<?xml version='1.0' encoding='UTF-8'?><gpx version="1.1" creator="JPX - https://github.com/jenetics/jpx" xmlns="http://www.topografix.com/GPX/1/1"><trk><trkseg><trkpt lat="44.5461861" lon="4.7559189"><ele>93.0</ele><time>2026-04-18T13:40:52.969Z</time></trkpt><trkpt lat="44.5462486" lon="4.7559664"><ele>93.0</ele><time>2026-04-18T13:40:54.419Z</time></trkpt><trkpt lat="44.5463384" lon="4.7560064"><ele>93.0</ele><time>2026-04-18T13:40:55.525Z</time></trkpt><trkpt lat="44.5464862" lon="4.7560465"><ele>93.0</ele><time>2026-04-18T13:40:56.97Z</time></trkpt><trkpt lat="44.5465971" lon="4.7560721"><ele>93.0</ele><time>2026-04-18T13:40:57.969Z</time></trkpt><trkpt lat="44.5466993" lon="4.7561029"><ele>92.83333333333333</ele><time>2026-04-18T13:40:58.969Z</time></trkpt><trkpt lat="44.5467704" lon="4.7561339"><ele>92.66666666666667</ele><time>2026-04-18T13:40:59.968Z</time></trkpt><trkpt lat="44.5468468" lon="4.7561639"><ele>92.5</ele><time>2026-04-18T13:41:00.968Z</time></trkpt><trkpt lat="44.5469123" lon="4.7561833"><ele>92.33333333333334</ele><time>2026-04-18T13:41:01.969Z</time></trkpt><trkpt lat="44.5470327" lon="4.7562176"><ele>92.16666666666667</ele><time>2026-04-18T13:41:03.969Z</time></trkpt><trkpt lat="44.54711" lon="4.7562506"><ele>92.0</ele><time>2026-04-18T13:41:04.969Z</time></trkpt><trkpt lat="44.5471785" lon="4.7562826"><ele>91.5</ele><time>2026-04-18T13:41:05.969Z</time></trkpt><trkpt lat="44.5472906" lon="4.7562986"><ele>91.0</ele><time>2026-04-18T13:41:07.968Z</time></trkpt><trkpt lat="44.5473553" lon="4.7563172"><ele>90.5</ele><time>2026-04-18T13:41:08.969Z</time></trkpt><trkpt lat="44.5474212" lon="4.7563333"><ele>90.0</ele><time>2026-04-18T13:41:09.969Z</time></trkpt><trkpt lat="44.5474961" lon="4.7563661"><ele>89.5</ele><time>2026-04-18T13:41:10.968Z</time></trkpt><trkpt lat="44.5475736" lon="4.7564041"><ele>89.0</ele><time>2026-04-18T13:41:11.969Z</time></trkpt><trkpt lat="44.5476483" lon="4.7564382"><ele>89.0</ele><time>2026-04-18T13:41:12.969Z</time></trkpt><trkpt lat="44.5477311" lon="4.756485"><ele>89.0</ele><time>2026-04-18T13:41:13.967Z</time></trkpt><trkpt lat="44.5478209" lon="4.7565294"><ele>89.0</ele><time>2026-04-18T13:41:14.969Z</time></trkpt><trkpt lat="44.5479162" lon="4.7565823"><ele>89.0</ele><time>2026-04-18T13:41:15.968Z</time></trkpt><trkpt lat="44.548012" lon="4.7566361"><ele>89.0</ele><time>2026-04-18T13:41:16.967Z</time></trkpt><trkpt lat="44.5481204" lon="4.7566916"><ele>89.0</ele><time>2026-04-18T13:41:17.968Z</time></trkpt><trkpt lat="44.5482186" lon="4.7567378"><ele>89.0</ele><time>2026-04-18T13:41:18.968Z</time></trkpt><trkpt lat="44.5483131" lon="4.7567832"><ele>89.0</ele><time>2026-04-18T13:41:19.969Z</time></trkpt><trkpt lat="44.5484011" lon="4.7568216"><ele>89.0</ele><time>2026-04-18T13:41:20.968Z</time></trkpt><trkpt lat="44.5484906" lon="4.7568519"><ele>89.0</ele><time>2026-04-18T13:41:21.968Z</time></trkpt><trkpt lat="44.5485857" lon="4.7568902"><ele>89.0</ele><time>2026-04-18T13:41:22.969Z</time></trkpt><trkpt lat="44.5486887" lon="4.7569275"><ele>89.0</ele><time>2026-04-18T13:41:23.969Z</time></trkpt><trkpt lat="44.5487982" lon="4.7569549"><ele>89.0</ele><time>2026-04-18T13:41:24.968Z</time></trkpt><trkpt lat="44.5489164" lon="4.7569812"><ele>89.0</ele><time>2026-04-18T13:41:25.969Z</time></trkpt><trkpt lat="44.5490384" lon="4.7570092"><ele>89.0</ele><time>2026-04-18T13:41:26.969Z</time></trkpt><trkpt lat="44.5491609" lon="4.7570421"><ele>89.0</ele><time>2026-04-18T13:41:27.968Z</time></trkpt><trkpt lat="44.5492855" lon="4.7570672"><ele>89.0</ele><time>2026-04-18T13:41:28.968Z</time></trkpt><trkpt lat="44.5494067" lon="4.757076"><ele>89.0</ele><time>2026-04-18T13:41:29.968Z</time></trkpt><trkpt lat="44.5495191" lon="4.7570875"><ele>89.4</ele><time>2026-04-18T13:41:30.968Z</time></trkpt><trkpt lat="44.5496267" lon="4.7570989"><ele>89.80000000000001</ele><time>2026-04-18T13:41:31.967Z</time></trkpt><trkpt lat="44.549724" lon="4.7571086"><ele>90.19999999999999</ele><time>2026-04-18T13:41:32.968Z</time></trkpt><trkpt lat="44.5498261" lon="4.7571121"><ele>90.6</ele><time>2026-04-18T13:41:33.968Z</time></trkpt><trkpt lat="44.5499419" lon="4.7571122"><ele>91.0</ele><time>2026-04-18T13:41:34.969Z</time></trkpt><trkpt lat="44.5500521" lon="4.7571187"><ele>91.0</ele><time>2026-04-18T13:41:35.969Z</time></trkpt><trkpt lat="44.550165" lon="4.7571279"><ele>91.0</ele><time>2026-04-18T13:41:36.967Z</time></trkpt><trkpt lat="44.5502844" lon="4.7571282"><ele>91.0</ele><time>2026-04-18T13:41:37.968Z</time></trkpt><trkpt lat="44.5504047" lon="4.7571344"><ele>91.0</ele><time>2026-04-18T13:41:38.968Z</time></trkpt><trkpt lat="44.5505275" lon="4.757142"><ele>90.0</ele><time>2026-04-18T13:41:39.969Z</time></trkpt><trkpt lat="44.5506521" lon="4.7571539"><ele>89.0</ele><time>2026-04-18T13:41:40.969Z</time></trkpt><trkpt lat="44.5507926" lon="4.7571639"><ele>88.0</ele><time>2026-04-18T13:41:41.968Z</time></trkpt><trkpt lat="44.5509316" lon="4.7571847"><ele>87.0</ele><time>2026-04-18T13:41:42.968Z</time></trkpt><trkpt lat="44.5510618" lon="4.757206"><ele>87.0</ele><time>2026-04-18T13:41:43.968Z</time></trkpt><trkpt lat="44.5512009" lon="4.7572352"><ele>87.0</ele><time>2026-04-18T13:41:44.969Z</time></trkpt><trkpt lat="44.5513154" lon="4.7572531"><ele>87.0</ele><time>2026-04-18T13:41:45.968Z</time></trkpt><trkpt lat="44.5514209" lon="4.7572896"><ele>87.0</ele><time>2026-04-18T13:41:46.969Z</time></trkpt><trkpt lat="44.5515404" lon="4.7573247"><ele>86.75</ele><time>2026-04-18T13:41:47.968Z</time></trkpt><trkpt lat="44.551662" lon="4.7573595"><ele>86.5</ele><time>2026-04-18T13:41:48.968Z</time></trkpt><trkpt lat="44.5517832" lon="4.7574029"><ele>86.25</ele><time>2026-04-18T13:41:49.968Z</time></trkpt><trkpt lat="44.5518953" lon="4.7574457"><ele>86.0</ele><time>2026-04-18T13:41:50.969Z</time></trkpt><trkpt lat="44.5519994" lon="4.7574858"><ele>86.6</ele><time>2026-04-18T13:41:51.969Z</time></trkpt><trkpt lat="44.552105" lon="4.75753"><ele>87.19999999999999</ele><time>2026-04-18T13:41:52.968Z</time></trkpt><trkpt lat="44.5522089" lon="4.7575703"><ele>87.80000000000001</ele><time>2026-04-18T13:41:53.967Z</time></trkpt><trkpt lat="44.5523035" lon="4.7576152"><ele>88.4</ele><time>2026-04-18T13:41:54.969Z</time></trkpt><trkpt lat="44.5523892" lon="4.7576541"><ele>89.0</ele><time>2026-04-18T13:41:55.968Z</time></trkpt><trkpt lat="44.5524644" lon="4.7576834"><ele>88.83333333333334</ele><time>2026-04-18T13:41:56.968Z</time></trkpt><trkpt lat="44.552545" lon="4.7577175"><ele>88.66666666666667</ele><time>2026-04-18T13:41:57.968Z</time></trkpt><trkpt lat="44.5526283" lon="4.7577559"><ele>88.5</ele><time>2026-04-18T13:41:58.969Z</time></trkpt><trkpt lat="44.5527139" lon="4.7577929"><ele>88.33333333333333</ele><time>2026-04-18T13:41:59.969Z</time></trkpt><trkpt lat="44.5527941" lon="4.7578237"><ele>88.16666666666666</ele><time>2026-04-18T13:42:00.967Z</time></trkpt><trkpt lat="44.5528837" lon="4.7578614"><ele>88.0</ele><time>2026-04-18T13:42:01.968Z</time></trkpt><trkpt lat="44.5529778" lon="4.7578957"><ele>88.0</ele><time>2026-04-18T13:42:02.969Z</time></trkpt><trkpt lat="44.5530775" lon="4.7579378"><ele>88.0</ele><time>2026-04-18T13:42:03.969Z</time></trkpt><trkpt lat="44.5531802" lon="4.7579825"><ele>88.0</ele><time>2026-04-18T13:42:04.968Z</time></trkpt><trkpt lat="44.5532763" lon="4.758021"><ele>88.0</ele><time>2026-04-18T13:42:05.968Z</time></trkpt><trkpt lat="44.5533789" lon="4.7580621"><ele>88.0</ele><time>2026-04-18T13:42:06.969Z</time></trkpt><trkpt lat="44.5534862" lon="4.75811"><ele>88.0</ele><time>2026-04-18T13:42:07.968Z</time></trkpt><trkpt lat="44.5536023" lon="4.7581586"><ele>88.0</ele><time>2026-04-18T13:42:08.968Z</time></trkpt><trkpt lat="44.553709" lon="4.7581979"><ele>88.0</ele><time>2026-04-18T13:42:09.969Z</time></trkpt><trkpt lat="44.5538025" lon="4.7582386"><ele>88.0</ele><time>2026-04-18T13:42:10.969Z</time></trkpt><trkpt lat="44.5538931" lon="4.7582831"><ele>88.0</ele><time>2026-04-18T13:42:11.968Z</time></trkpt><trkpt lat="44.5539831" lon="4.7583324"><ele>88.0</ele><time>2026-04-18T13:42:12.968Z</time></trkpt><trkpt lat="44.5540734" lon="4.7583668"><ele>88.0</ele><time>2026-04-18T13:42:13.969Z</time></trkpt><trkpt lat="44.5541742" lon="4.7584104"><ele>88.0</ele><time>2026-04-18T13:42:14.967Z</time></trkpt><trkpt lat="44.5542828" lon="4.75845"><ele>88.0</ele><time>2026-04-18T13:42:15.968Z</time></trkpt><trkpt lat="44.5543896" lon="4.7584933"><ele>88.0</ele><time>2026-04-18T13:42:16.969Z</time></trkpt><trkpt lat="44.5544942" lon="4.7585156"><ele>88.0</ele><time>2026-04-18T13:42:17.968Z</time></trkpt><trkpt lat="44.554596" lon="4.7585403"><ele>88.0</ele><time>2026-04-18T13:42:18.969Z</time></trkpt><trkpt lat="44.5546921" lon="4.7585674"><ele>88.0</ele><time>2026-04-18T13:42:19.968Z</time></trkpt><trkpt lat="44.5547973" lon="4.7586068"><ele>88.0</ele><time>2026-04-18T13:42:21.969Z</time></trkpt><trkpt lat="44.5548974" lon="4.7586449"><ele>88.0</ele><time>2026-04-18T13:42:23.967Z</time></trkpt><trkpt lat="44.5549603" lon="4.7587346"><ele>88.0</ele><time>2026-04-18T13:42:26.969Z</time></trkpt><trkpt lat="44.5549902" lon="4.7588848"><ele>88.0</ele><time>2026-04-18T13:42:28.968Z</time></trkpt><trkpt lat="44.5550707" lon="4.7589988"><ele>88.0</ele><time>2026-04-18T13:42:30.968Z</time></trkpt><trkpt lat="44.5551721" lon="4.7591052"><ele>88.0</ele><time>2026-04-18T13:42:32.968Z</time></trkpt><trkpt lat="44.5552114" lon="4.7591969"><ele>88.0</ele><time>2026-04-18T13:42:33.968Z</time></trkpt><trkpt lat="44.5552405" lon="4.7593089"><ele>88.0</ele><time>2026-04-18T13:42:34.967Z</time></trkpt><trkpt lat="44.5552662" lon="4.7594138"><ele>88.0</ele><time>2026-04-18T13:42:35.969Z</time></trkpt><trkpt lat="44.5552957" lon="4.7595358"><ele>88.0</ele><time>2026-04-18T13:42:36.967Z</time></trkpt><trkpt lat="44.555323" lon="4.7596681"><ele>88.0</ele><time>2026-04-18T13:42:37.968Z</time></trkpt><trkpt lat="44.5553586" lon="4.7598015"><ele>88.0</ele><time>2026-04-18T13:42:38.969Z</time></trkpt><trkpt lat="44.5553883" lon="4.7599357"><ele>88.0</ele><time>2026-04-18T13:42:39.969Z</time></trkpt><trkpt lat="44.5554201" lon="4.7600549"><ele>88.0</ele><time>2026-04-18T13:42:40.968Z</time></trkpt><trkpt lat="44.5554528" lon="4.7601865"><ele>88.0</ele><time>2026-04-18T13:42:41.969Z</time></trkpt><trkpt lat="44.5554866" lon="4.7603261"><ele>88.0</ele><time>2026-04-18T13:42:42.968Z</time></trkpt><trkpt lat="44.5555227" lon="4.7604792"><ele>88.0</ele><time>2026-04-18T13:42:43.968Z</time></trkpt><trkpt lat="44.5555605" lon="4.760629"><ele>88.25</ele><time>2026-04-18T13:42:44.969Z</time></trkpt><trkpt lat="44.5556025" lon="4.7608007"><ele>88.5</ele><time>2026-04-18T13:42:45.968Z</time></trkpt><trkpt lat="44.5556513" lon="4.7609806"><ele>88.75</ele><time>2026-04-18T13:42:46.969Z</time></trkpt><trkpt lat="44.5557" lon="4.7611598"><ele>89.0</ele><time>2026-04-18T13:42:47.969Z</time></trkpt><trkpt lat="44.5557447" lon="4.761327"><ele>89.5</ele><time>2026-04-18T13:42:48.968Z</time></trkpt><trkpt lat="44.5557882" lon="4.7614994"><ele>90.0</ele><time>2026-04-18T13:42:49.968Z</time></trkpt><trkpt lat="44.5558307" lon="4.7616555"><ele>90.5</ele><time>2026-04-18T13:42:50.969Z</time></trkpt><trkpt lat="44.5558758" lon="4.7618142"><ele>91.0</ele><time>2026-04-18T13:42:51.968Z</time></trkpt><trkpt lat="44.55592" lon="4.7619707"><ele>91.8</ele><time>2026-04-18T13:42:52.968Z</time></trkpt><trkpt lat="44.5559544" lon="4.7621219"><ele>92.6</ele><time>2026-04-18T13:42:53.969Z</time></trkpt><trkpt lat="44.5559923" lon="4.7622713"><ele>93.4</ele><time>2026-04-18T13:42:54.969Z</time></trkpt><trkpt lat="44.5560259" lon="4.7624091"><ele>94.2</ele><time>2026-04-18T13:42:55.968Z</time></trkpt><trkpt lat="44.5560546" lon="4.7625545"><ele>95.0</ele><time>2026-04-18T13:42:56.968Z</time></trkpt><trkpt lat="44.5560897" lon="4.7627067"><ele>94.6</ele><time>2026-04-18T13:42:57.968Z</time></trkpt><trkpt lat="44.5561207" lon="4.7628371"><ele>94.2</ele><time>2026-04-18T13:42:58.968Z</time></trkpt><trkpt lat="44.5561524" lon="4.7629786"><ele>93.80000000000001</ele><time>2026-04-18T13:42:59.969Z</time></trkpt><trkpt lat="44.5562087" lon="4.7630711"><ele>93.4</ele><time>2026-04-18T13:43:00.968Z</time></trkpt><trkpt lat="44.5562659" lon="4.763155"><ele>93.0</ele><time>2026-04-18T13:43:01.969Z</time></trkpt><trkpt lat="44.5563186" lon="4.7632336"><ele>93.0</ele><time>2026-04-18T13:43:02.969Z</time></trkpt><trkpt lat="44.5563814" lon="4.7633117"><ele>93.0</ele><time>2026-04-18T13:43:03.968Z</time></trkpt><trkpt lat="44.5564493" lon="4.7633825"><ele>93.0</ele><time>2026-04-18T13:43:04.969Z</time></trkpt><trkpt lat="44.5565039" lon="4.7634431"><ele>93.0</ele><time>2026-04-18T13:43:05.968Z</time></trkpt><trkpt lat="44.5565669" lon="4.7634998"><ele>93.0</ele><time>2026-04-18T13:43:06.969Z</time></trkpt><trkpt lat="44.5566266" lon="4.7635457"><ele>93.0</ele><time>2026-04-18T13:43:07.968Z</time></trkpt><trkpt lat="44.5566841" lon="4.7636048"><ele>93.71428571428572</ele><time>2026-04-18T13:43:08.967Z</time></trkpt><trkpt lat="44.5567327" lon="4.7636843"><ele>94.42857142857143</ele><time>2026-04-18T13:43:09.969Z</time></trkpt><trkpt lat="44.556763" lon="4.7637758"><ele>95.14285714285714</ele><time>2026-04-18T13:43:10.968Z</time></trkpt><trkpt lat="44.556792" lon="4.7638606"><ele>95.85714285714286</ele><time>2026-04-18T13:43:11.968Z</time></trkpt><trkpt lat="44.5568349" lon="4.7639333"><ele>96.57142857142857</ele><time>2026-04-18T13:43:12.968Z</time></trkpt><trkpt lat="44.5568869" lon="4.763995"><ele>97.28571428571429</ele><time>2026-04-18T13:43:13.968Z</time></trkpt><trkpt lat="44.5569525" lon="4.7640384"><ele>98.0</ele><time>2026-04-18T13:43:14.968Z</time></trkpt><trkpt lat="44.557017" lon="4.7640814"><ele>97.33333333333333</ele><time>2026-04-18T13:43:15.969Z</time></trkpt><trkpt lat="44.5570687" lon="4.7641469"><ele>96.66666666666666</ele><time>2026-04-18T13:43:16.968Z</time></trkpt><trkpt lat="44.5571156" lon="4.7642351"><ele>96.0</ele><time>2026-04-18T13:43:17.968Z</time></trkpt><trkpt lat="44.5571619" lon="4.7643198"><ele>95.33333333333333</ele><time>2026-04-18T13:43:18.968Z</time></trkpt><trkpt lat="44.5572014" lon="4.7644094"><ele>94.66666666666666</ele><time>2026-04-18T13:43:19.967Z</time></trkpt><trkpt lat="44.5572708" lon="4.7645013"><ele>94.0</ele><time>2026-04-18T13:43:20.968Z</time></trkpt><trkpt lat="44.5573474" lon="4.7646173"><ele>94.0</ele><time>2026-04-18T13:43:21.967Z</time></trkpt><trkpt lat="44.5574215" lon="4.7647285"><ele>94.0</ele><time>2026-04-18T13:43:22.968Z</time></trkpt><trkpt lat="44.5582563" lon="4.7662278"><ele>94.0</ele><time>2026-04-18T13:43:31.967Z</time></trkpt><trkpt lat="44.5582894" lon="4.7664157"><ele>94.0</ele><time>2026-04-18T13:43:32.969Z</time></trkpt><trkpt lat="44.558299" lon="4.7666189"><ele>94.0</ele><time>2026-04-18T13:43:33.968Z</time></trkpt><trkpt lat="44.5583168" lon="4.766821"><ele>94.0</ele><time>2026-04-18T13:43:34.969Z</time></trkpt><trkpt lat="44.5583372" lon="4.76702"><ele>93.66666666666666</ele><time>2026-04-18T13:43:35.968Z</time></trkpt><trkpt lat="44.5583648" lon="4.7672602"><ele>93.33333333333333</ele><time>2026-04-18T13:43:36.969Z</time></trkpt><trkpt lat="44.5584335" lon="4.7674667"><ele>93.0</ele><time>2026-04-18T13:43:37.969Z</time></trkpt><trkpt lat="44.5584862" lon="4.7676667"><ele>92.33333333333333</ele><time>2026-04-18T13:43:38.969Z</time></trkpt><trkpt lat="44.5585493" lon="4.7678803"><ele>91.66666666666666</ele><time>2026-04-18T13:43:39.969Z</time></trkpt><trkpt lat="44.558631" lon="4.7680955"><ele>91.0</ele><time>2026-04-18T13:43:40.968Z</time></trkpt><trkpt lat="44.5587057" lon="4.7683257"><ele>91.0</ele><time>2026-04-18T13:43:41.969Z</time></trkpt><trkpt lat="44.5587859" lon="4.768563"><ele>94.0</ele><time>2026-04-18T13:43:42.969Z</time></trkpt><trkpt lat="44.5588757" lon="4.7687847"><ele>94.0</ele><time>2026-04-18T13:43:43.969Z</time></trkpt></trkseg><trkseg><trkpt lat="44.5922103" lon="4.9517231"><ele>219.99999999999997</ele><time>2026-04-18T13:56:54.965Z</time></trkpt><trkpt lat="44.5921801" lon="4.9518799"><ele>220.0</ele><time>2026-04-18T13:56:56.966Z</time></trkpt><trkpt lat="44.5921657" lon="4.9519683"><ele>220.0</ele><time>2026-04-18T13:56:57.965Z</time></trkpt><trkpt lat="44.5921469" lon="4.9520701"><ele>220.0</ele><time>2026-04-18T13:56:58.964Z</time></trkpt><trkpt lat="44.592127" lon="4.9521832"><ele>219.99999999999997</ele><time>2026-04-18T13:56:59.965Z</time></trkpt><trkpt lat="44.5921089" lon="4.9522967"><ele>220.0</ele><time>2026-04-18T13:57:00.965Z</time></trkpt><trkpt lat="44.5920972" lon="4.9523935"><ele>219.99999999999997</ele><time>2026-04-18T13:57:01.965Z</time></trkpt><trkpt lat="44.5920839" lon="4.9524887"><ele>220.0</ele><time>2026-04-18T13:57:02.966Z</time></trkpt><trkpt lat="44.5920703" lon="4.9525807"><ele>220.0</ele><time>2026-04-18T13:57:03.966Z</time></trkpt><trkpt lat="44.5920413" lon="4.9526673"><ele>220.0</ele><time>2026-04-18T13:57:04.966Z</time></trkpt><trkpt lat="44.5920086" lon="4.9527505"><ele>220.0</ele><time>2026-04-18T13:57:05.966Z</time></trkpt><trkpt lat="44.5919872" lon="4.9528416"><ele>219.99999999999997</ele><time>2026-04-18T13:57:06.965Z</time></trkpt><trkpt lat="44.5919877" lon="4.9529391"><ele>220.0</ele><time>2026-04-18T13:57:07.966Z</time></trkpt><trkpt lat="44.5920133" lon="4.9530278"><ele>219.99999999999997</ele><time>2026-04-18T13:57:08.966Z</time></trkpt><trkpt lat="44.5920232" lon="4.9531302"><ele>220.0</ele><time>2026-04-18T13:57:09.964Z</time></trkpt><trkpt lat="44.5920098" lon="4.9532354"><ele>220.0</ele><time>2026-04-18T13:57:10.966Z</time></trkpt><trkpt lat="44.5919949" lon="4.9533336"><ele>220.0</ele><time>2026-04-18T13:57:11.966Z</time></trkpt><trkpt lat="44.5919814" lon="4.9534443"><ele>219.99999999999997</ele><time>2026-04-18T13:57:12.966Z</time></trkpt><trkpt lat="44.5919664" lon="4.9535591"><ele>220.0</ele><time>2026-04-18T13:57:13.966Z</time></trkpt><trkpt lat="44.5919583" lon="4.9536688"><ele>219.83333333333331</ele><time>2026-04-18T13:57:14.964Z</time></trkpt><trkpt lat="44.5919496" lon="4.9538025"><ele>219.66666666666666</ele><time>2026-04-18T13:57:15.966Z</time></trkpt><trkpt lat="44.5919423" lon="4.9539117"><ele>219.5</ele><time>2026-04-18T13:57:16.966Z</time></trkpt><trkpt lat="44.5919366" lon="4.9540186"><ele>219.33333333333331</ele><time>2026-04-18T13:57:17.966Z</time></trkpt><trkpt lat="44.5919262" lon="4.954136"><ele>219.16666666666666</ele><time>2026-04-18T13:57:18.966Z</time></trkpt><trkpt lat="44.5919213" lon="4.9542637"><ele>219.0</ele><time>2026-04-18T13:57:19.965Z</time></trkpt><trkpt lat="44.5919138" lon="4.9543879"><ele>218.6</ele><time>2026-04-18T13:57:20.965Z</time></trkpt><trkpt lat="44.5919071" lon="4.954515"><ele>218.2</ele><time>2026-04-18T13:57:21.964Z</time></trkpt><trkpt lat="44.591895" lon="4.954627"><ele>217.79999999999998</ele><time>2026-04-18T13:57:22.965Z</time></trkpt><trkpt lat="44.5918798" lon="4.9547473"><ele>217.39999999999998</ele><time>2026-04-18T13:57:23.966Z</time></trkpt><trkpt lat="44.5918716" lon="4.954883"><ele>217.0</ele><time>2026-04-18T13:57:24.966Z</time></trkpt><trkpt lat="44.5918601" lon="4.9550268"><ele>217.5</ele><time>2026-04-18T13:57:25.965Z</time></trkpt><trkpt lat="44.5918405" lon="4.955201"><ele>218.0</ele><time>2026-04-18T13:57:26.965Z</time></trkpt><trkpt lat="44.5918186" lon="4.9554064"><ele>218.5</ele><time>2026-04-18T13:57:27.965Z</time></trkpt><trkpt lat="44.5917919" lon="4.9556446"><ele>219.0</ele><time>2026-04-18T13:57:28.964Z</time></trkpt><trkpt lat="44.5917692" lon="4.9558994"><ele>219.66666666666669</ele><time>2026-04-18T13:57:29.965Z</time></trkpt><trkpt lat="44.5917394" lon="4.9561541"><ele>220.33333333333334</ele><time>2026-04-18T13:57:30.966Z</time></trkpt><trkpt lat="44.5917147" lon="4.9564597"><ele>221.0</ele><time>2026-04-18T13:57:31.965Z</time></trkpt><trkpt lat="44.5916866" lon="4.9567959"><ele>221.0</ele><time>2026-04-18T13:57:32.965Z</time></trkpt><trkpt lat="44.5916569" lon="4.9571096"><ele>221.0</ele><time>2026-04-18T13:57:33.966Z</time></trkpt><trkpt lat="44.5916286" lon="4.957418"><ele>221.0</ele><time>2026-04-18T13:57:34.966Z</time></trkpt><trkpt lat="44.5916022" lon="4.9577302"><ele>221.0</ele><time>2026-04-18T13:57:35.965Z</time></trkpt><trkpt lat="44.5915776" lon="4.9580361"><ele>221.0</ele><time>2026-04-18T13:57:36.965Z</time></trkpt><trkpt lat="44.5915569" lon="4.9583435"><ele>221.0</ele><time>2026-04-18T13:57:37.964Z</time></trkpt><trkpt lat="44.5915446" lon="4.9586528"><ele>221.33333333333334</ele><time>2026-04-18T13:57:38.966Z</time></trkpt><trkpt lat="44.5915367" lon="4.9589549"><ele>221.66666666666669</ele><time>2026-04-18T13:57:39.966Z</time></trkpt><trkpt lat="44.5915353" lon="4.9592667"><ele>222.0</ele><time>2026-04-18T13:57:40.966Z</time></trkpt><trkpt lat="44.5915383" lon="4.9595815"><ele>222.0</ele><time>2026-04-18T13:57:41.966Z</time></trkpt><trkpt lat="44.5915457" lon="4.9599059"><ele>222.0</ele><time>2026-04-18T13:57:42.966Z</time></trkpt><trkpt lat="44.591555" lon="4.9602377"><ele>222.0</ele><time>2026-04-18T13:57:43.966Z</time></trkpt><trkpt lat="44.5915664" lon="4.9605746"><ele>222.0</ele><time>2026-04-18T13:57:44.966Z</time></trkpt><trkpt lat="44.591577" lon="4.9609172"><ele>222.0</ele><time>2026-04-18T13:57:45.966Z</time></trkpt><trkpt lat="44.5915862" lon="4.9612404"><ele>222.0</ele><time>2026-04-18T13:57:46.966Z</time></trkpt><trkpt lat="44.5915944" lon="4.9615378"><ele>222.0</ele><time>2026-04-18T13:57:47.966Z</time></trkpt><trkpt lat="44.5916009" lon="4.9618214"><ele>221.66666666666669</ele><time>2026-04-18T13:57:48.966Z</time></trkpt><trkpt lat="44.5916072" lon="4.9620857"><ele>221.33333333333334</ele><time>2026-04-18T13:57:49.966Z</time></trkpt><trkpt lat="44.5916156" lon="4.9623324"><ele>221.0</ele><time>2026-04-18T13:57:50.965Z</time></trkpt><trkpt lat="44.5916241" lon="4.9625628"><ele>221.75</ele><time>2026-04-18T13:57:51.966Z</time></trkpt><trkpt lat="44.5916295" lon="4.9627772"><ele>222.5</ele><time>2026-04-18T13:57:52.964Z</time></trkpt><trkpt lat="44.5916346" lon="4.9629798"><ele>223.25</ele><time>2026-04-18T13:57:53.966Z</time></trkpt><trkpt lat="44.5916415" lon="4.9631692"><ele>224.0</ele><time>2026-04-18T13:57:54.965Z</time></trkpt><trkpt lat="44.5916462" lon="4.9633479"><ele>224.66666666666669</ele><time>2026-04-18T13:57:55.966Z</time></trkpt><trkpt lat="44.5916495" lon="4.9635187"><ele>225.33333333333331</ele><time>2026-04-18T13:57:56.965Z</time></trkpt><trkpt lat="44.5916618" lon="4.9638459"><ele>226.0</ele><time>2026-04-18T13:57:58.966Z</time></trkpt><trkpt lat="44.5916638" lon="4.9640046"><ele>226.0</ele><time>2026-04-18T13:57:59.966Z</time></trkpt><trkpt lat="44.5916764" lon="4.9642159"><ele>226.0</ele><time>2026-04-18T13:58:00.966Z</time></trkpt><trkpt lat="44.5916814" lon="4.9644413"><ele>226.0</ele><time>2026-04-18T13:58:01.965Z</time></trkpt><trkpt lat="44.5916889" lon="4.9646753"><ele>226.0</ele><time>2026-04-18T13:58:02.965Z</time></trkpt><trkpt lat="44.5917002" lon="4.9649223"><ele>226.0</ele><time>2026-04-18T13:58:03.966Z</time></trkpt><trkpt lat="44.5917065" lon="4.9651719"><ele>226.0</ele><time>2026-04-18T13:58:04.964Z</time></trkpt><trkpt lat="44.5917096" lon="4.9654263"><ele>225.0</ele><time>2026-04-18T13:58:05.965Z</time></trkpt><trkpt lat="44.5917177" lon="4.9656851"><ele>224.0</ele><time>2026-04-18T13:58:06.966Z</time></trkpt><trkpt lat="44.5917261" lon="4.9659459"><ele>223.0</ele><time>2026-04-18T13:58:07.965Z</time></trkpt><trkpt lat="44.5917331" lon="4.9662181"><ele>222.66666666666666</ele><time>2026-04-18T13:58:08.966Z</time></trkpt><trkpt lat="44.591743" lon="4.9664947"><ele>222.33333333333331</ele><time>2026-04-18T13:58:09.964Z</time></trkpt><trkpt lat="44.5917544" lon="4.9667863"><ele>222.0</ele><time>2026-04-18T13:58:10.966Z</time></trkpt><trkpt lat="44.5917665" lon="4.9670954"><ele>222.0</ele><time>2026-04-18T13:58:11.966Z</time></trkpt><trkpt lat="44.5917842" lon="4.9674109"><ele>222.0</ele><time>2026-04-18T13:58:12.965Z</time></trkpt><trkpt lat="44.5917881" lon="4.9677338"><ele>223.5</ele><time>2026-04-18T13:58:13.966Z</time></trkpt><trkpt lat="44.5917982" lon="4.9680614"><ele>225.0</ele><time>2026-04-18T13:58:14.966Z</time></trkpt><trkpt lat="44.5918051" lon="4.9683982"><ele>225.0</ele><time>2026-04-18T13:58:15.965Z</time></trkpt><trkpt lat="44.5918127" lon="4.9687143"><ele>225.0</ele><time>2026-04-18T13:58:16.965Z</time></trkpt><trkpt lat="44.5918204" lon="4.9690125"><ele>225.0</ele><time>2026-04-18T13:58:17.965Z</time></trkpt><trkpt lat="44.5918305" lon="4.9693073"><ele>223.66666666666669</ele><time>2026-04-18T13:58:18.965Z</time></trkpt><trkpt lat="44.5918339" lon="4.9695923"><ele>222.33333333333334</ele><time>2026-04-18T13:58:19.964Z</time></trkpt><trkpt lat="44.5918428" lon="4.9698774"><ele>221.0</ele><time>2026-04-18T13:58:20.963Z</time></trkpt><trkpt lat="44.5918443" lon="4.9701598"><ele>221.0</ele><time>2026-04-18T13:58:21.964Z</time></trkpt><trkpt lat="44.5918458" lon="4.9704368"><ele>221.0</ele><time>2026-04-18T13:58:22.965Z</time></trkpt><trkpt lat="44.5918542" lon="4.9707144"><ele>221.0</ele><time>2026-04-18T13:58:23.965Z</time></trkpt><trkpt lat="44.5918612" lon="4.9709862"><ele>228.0</ele><time>2026-04-18T13:58:24.965Z</time></trkpt><trkpt lat="44.5918733" lon="4.9712529"><ele>228.0</ele><time>2026-04-18T13:58:25.963Z</time></trkpt></trkseg><trkseg><trkpt lat="44.5925206" lon="4.9818473"><ele>225.0</ele><time>2026-04-18T13:59:18.367Z</time></trkpt><trkpt lat="44.5926071" lon="4.9821755"><ele>225.0</ele><time>2026-04-18T13:59:19.965Z</time></trkpt><trkpt lat="44.5926586" lon="4.9823773"><ele>225.0</ele><time>2026-04-18T13:59:20.966Z</time></trkpt><trkpt lat="44.592701" lon="4.9825896"><ele>224.66666666666669</ele><time>2026-04-18T13:59:21.965Z</time></trkpt><trkpt lat="44.5927454" lon="4.9827988"><ele>224.33333333333334</ele><time>2026-04-18T13:59:22.965Z</time></trkpt><trkpt lat="44.5927926" lon="4.9830123"><ele>224.0</ele><time>2026-04-18T13:59:23.965Z</time></trkpt><trkpt lat="44.592847" lon="4.9832232"><ele>224.66666666666669</ele><time>2026-04-18T13:59:24.965Z</time></trkpt><trkpt lat="44.5929082" lon="4.9834455"><ele>225.33333333333331</ele><time>2026-04-18T13:59:25.964Z</time></trkpt><trkpt lat="44.5929703" lon="4.9836712"><ele>226.0</ele><time>2026-04-18T13:59:26.965Z</time></trkpt><trkpt lat="44.5930445" lon="4.9838956"><ele>226.0</ele><time>2026-04-18T13:59:27.966Z</time></trkpt><trkpt lat="44.5931201" lon="4.984145"><ele>226.0</ele><time>2026-04-18T13:59:28.966Z</time></trkpt><trkpt lat="44.5932061" lon="4.9843858"><ele>226.0</ele><time>2026-04-18T13:59:29.965Z</time></trkpt><trkpt lat="44.5933048" lon="4.9846311"><ele>226.0</ele><time>2026-04-18T13:59:30.965Z</time></trkpt><trkpt lat="44.5934056" lon="4.9848779"><ele>226.0</ele><time>2026-04-18T13:59:31.965Z</time></trkpt><trkpt lat="44.5935108" lon="4.9851411"><ele>226.0</ele><time>2026-04-18T13:59:32.966Z</time></trkpt><trkpt lat="44.5936131" lon="4.9854104"><ele>226.33333333333331</ele><time>2026-04-18T13:59:33.966Z</time></trkpt><trkpt lat="44.5937173" lon="4.9856798"><ele>226.66666666666669</ele><time>2026-04-18T13:59:34.966Z</time></trkpt><trkpt lat="44.5938167" lon="4.985949"><ele>227.0</ele><time>2026-04-18T13:59:35.965Z</time></trkpt><trkpt lat="44.5939197" lon="4.9862089"><ele>227.33333333333334</ele><time>2026-04-18T13:59:36.966Z</time></trkpt><trkpt lat="44.5940214" lon="4.9864737"><ele>227.66666666666669</ele><time>2026-04-18T13:59:37.966Z</time></trkpt><trkpt lat="44.5941202" lon="4.9867366"><ele>228.0</ele><time>2026-04-18T13:59:38.965Z</time></trkpt><trkpt lat="44.5942243" lon="4.9869967"><ele>228.0</ele><time>2026-04-18T13:59:39.965Z</time></trkpt><trkpt lat="44.5943257" lon="4.9872588"><ele>228.0</ele><time>2026-04-18T13:59:40.966Z</time></trkpt><trkpt lat="44.5944268" lon="4.987521"><ele>228.0</ele><time>2026-04-18T13:59:41.966Z</time></trkpt><trkpt lat="44.5945315" lon="4.9877819"><ele>228.33333333333331</ele><time>2026-04-18T13:59:42.966Z</time></trkpt><trkpt lat="44.5946509" lon="4.9880342"><ele>228.66666666666666</ele><time>2026-04-18T13:59:43.966Z</time></trkpt><trkpt lat="44.5947803" lon="4.9882768"><ele>229.0</ele><time>2026-04-18T13:59:44.966Z</time></trkpt><trkpt lat="44.5949138" lon="4.9885154"><ele>230.0</ele><time>2026-04-18T13:59:45.965Z</time></trkpt><trkpt lat="44.5950534" lon="4.9887548"><ele>231.0</ele><time>2026-04-18T13:59:46.965Z</time></trkpt><trkpt lat="44.5951935" lon="4.9889963"><ele>232.0</ele><time>2026-04-18T13:59:47.966Z</time></trkpt><trkpt lat="44.5953309" lon="4.9892381"><ele>230.66666666666666</ele><time>2026-04-18T13:59:48.965Z</time></trkpt><trkpt lat="44.5954694" lon="4.9894821"><ele>229.33333333333331</ele><time>2026-04-18T13:59:49.966Z</time></trkpt><trkpt lat="44.5956073" lon="4.9897294"><ele>228.0</ele><time>2026-04-18T13:59:50.966Z</time></trkpt><trkpt lat="44.5957491" lon="4.9899767"><ele>229.0</ele><time>2026-04-18T13:59:51.966Z</time></trkpt><trkpt lat="44.5958931" lon="4.9902259"><ele>230.0</ele><time>2026-04-18T13:59:52.966Z</time></trkpt><trkpt lat="44.5960373" lon="4.9904766"><ele>229.5</ele><time>2026-04-18T13:59:53.966Z</time></trkpt><trkpt lat="44.5961807" lon="4.9907281"><ele>229.0</ele><time>2026-04-18T13:59:54.966Z</time></trkpt><trkpt lat="44.5963267" lon="4.9909791"><ele>229.0</ele><time>2026-04-18T13:59:55.965Z</time></trkpt><trkpt lat="44.5964777" lon="4.9912335"><ele>229.0</ele><time>2026-04-18T13:59:56.965Z</time></trkpt><trkpt lat="44.5966276" lon="4.9914914"><ele>228.0</ele><time>2026-04-18T13:59:57.966Z</time></trkpt><trkpt lat="44.596778" lon="4.9917418"><ele>227.0</ele><time>2026-04-18T13:59:58.964Z</time></trkpt><trkpt lat="44.5969281" lon="4.9919995"><ele>226.5</ele><time>2026-04-18T13:59:59.965Z</time></trkpt><trkpt lat="44.5970792" lon="4.9922556"><ele>226.0</ele><time>2026-04-18T14:00:00.964Z</time></trkpt><trkpt lat="44.5972313" lon="4.9925169"><ele>226.0</ele><time>2026-04-18T14:00:01.965Z</time></trkpt><trkpt lat="44.5973793" lon="4.992782"><ele>226.0</ele><time>2026-04-18T14:00:02.966Z</time></trkpt><trkpt lat="44.5975382" lon="4.9930406"><ele>226.0</ele><time>2026-04-18T14:00:03.965Z</time></trkpt><trkpt lat="44.5976764" lon="4.9932929"><ele>226.0</ele><time>2026-04-18T14:00:04.965Z</time></trkpt><trkpt lat="44.5978147" lon="4.9935235"><ele>226.0</ele><time>2026-04-18T14:00:05.966Z</time></trkpt><trkpt lat="44.5979422" lon="4.9937397"><ele>226.66666666666666</ele><time>2026-04-18T14:00:06.965Z</time></trkpt><trkpt lat="44.5980608" lon="4.9939465"><ele>227.33333333333331</ele><time>2026-04-18T14:00:07.966Z</time></trkpt><trkpt lat="44.5981713" lon="4.9941355"><ele>228.0</ele><time>2026-04-18T14:00:08.966Z</time></trkpt><trkpt lat="44.5982732" lon="4.9943147"><ele>228.5</ele><time>2026-04-18T14:00:09.965Z</time></trkpt><trkpt lat="44.5983648" lon="4.9944801"><ele>229.0</ele><time>2026-04-18T14:00:10.965Z</time></trkpt><trkpt lat="44.5984472" lon="4.9946319"><ele>229.5</ele><time>2026-04-18T14:00:11.965Z</time></trkpt><trkpt lat="44.59852" lon="4.9947573"><ele>230.0</ele><time>2026-04-18T14:00:12.966Z</time></trkpt><trkpt lat="44.5985825" lon="4.9948565"><ele>230.00000000000003</ele><time>2026-04-18T14:00:13.966Z</time></trkpt><trkpt lat="44.5986273" lon="4.9949264"><ele>230.0</ele><time>2026-04-18T14:00:14.966Z</time></trkpt><trkpt lat="44.598662" lon="4.9950009"><ele>230.0</ele><time>2026-04-18T14:00:15.965Z</time></trkpt><trkpt lat="44.5986735" lon="4.995097"><ele>230.0</ele><time>2026-04-18T14:00:16.966Z</time></trkpt><trkpt lat="44.5986612" lon="4.9952241"><ele>230.00000000000003</ele><time>2026-04-18T14:00:17.964Z</time></trkpt><trkpt lat="44.5986466" lon="4.9953702"><ele>230.0</ele><time>2026-04-18T14:00:18.965Z</time></trkpt><trkpt lat="44.5986362" lon="4.9955471"><ele>230.33333333333334</ele><time>2026-04-18T14:00:19.966Z</time></trkpt><trkpt lat="44.5986207" lon="4.9957645"><ele>230.66666666666669</ele><time>2026-04-18T14:00:20.965Z</time></trkpt><trkpt lat="44.5986063" lon="4.9959976"><ele>231.0</ele><time>2026-04-18T14:00:21.966Z</time></trkpt><trkpt lat="44.5985907" lon="4.9962559"><ele>231.33333333333331</ele><time>2026-04-18T14:00:22.965Z</time></trkpt><trkpt lat="44.5985734" lon="4.99654"><ele>231.66666666666666</ele><time>2026-04-18T14:00:23.965Z</time></trkpt><trkpt lat="44.5985513" lon="4.9968261"><ele>232.0</ele><time>2026-04-18T14:00:24.965Z</time></trkpt><trkpt lat="44.5985288" lon="4.9971331"><ele>232.66666666666666</ele><time>2026-04-18T14:00:25.966Z</time></trkpt><trkpt lat="44.5985082" lon="4.9974492"><ele>233.33333333333331</ele><time>2026-04-18T14:00:26.966Z</time></trkpt><trkpt lat="44.5984869" lon="4.9977575"><ele>234.0</ele><time>2026-04-18T14:00:27.966Z</time></trkpt><trkpt lat="44.5984689" lon="4.9980598"><ele>234.0</ele><time>2026-04-18T14:00:28.966Z</time></trkpt><trkpt lat="44.5984485" lon="4.9983642"><ele>234.0</ele><time>2026-04-18T14:00:29.965Z</time></trkpt><trkpt lat="44.5984253" lon="4.9986646"><ele>234.0</ele><time>2026-04-18T14:00:30.966Z</time></trkpt><trkpt lat="44.598402" lon="4.9989646"><ele>234.33333333333331</ele><time>2026-04-18T14:00:31.965Z</time></trkpt><trkpt lat="44.5983781" lon="4.9992711"><ele>234.66666666666666</ele><time>2026-04-18T14:00:32.964Z</time></trkpt><trkpt lat="44.5983565" lon="4.9995803"><ele>235.0</ele><time>2026-04-18T14:00:33.965Z</time></trkpt><trkpt lat="44.5983381" lon="4.9998919"><ele>235.0</ele><time>2026-04-18T14:00:34.964Z</time></trkpt><trkpt lat="44.5983167" lon="5.0002078"><ele>235.0</ele><time>2026-04-18T14:00:35.966Z</time></trkpt><trkpt lat="44.5982954" lon="5.0005263"><ele>235.0</ele><time>2026-04-18T14:00:36.966Z</time></trkpt><trkpt lat="44.5982735" lon="5.0008484"><ele>235.0</ele><time>2026-04-18T14:00:37.965Z</time></trkpt><trkpt lat="44.598251" lon="5.0011706"><ele>235.0</ele><time>2026-04-18T14:00:38.966Z</time></trkpt><trkpt lat="44.5982282" lon="5.0014954"><ele>235.0</ele><time>2026-04-18T14:00:39.966Z</time></trkpt><trkpt lat="44.5982049" lon="5.001821"><ele>234.5</ele><time>2026-04-18T14:00:40.965Z</time></trkpt><trkpt lat="44.598183" lon="5.0021495"><ele>234.0</ele><time>2026-04-18T14:00:41.966Z</time></trkpt><trkpt lat="44.5981606" lon="5.0024763"><ele>235.5</ele><time>2026-04-18T14:00:42.966Z</time></trkpt><trkpt lat="44.5981381" lon="5.0028021"><ele>237.0</ele><time>2026-04-18T14:00:43.965Z</time></trkpt><trkpt lat="44.5981156" lon="5.0031208"><ele>237.33333333333331</ele><time>2026-04-18T14:00:44.966Z</time></trkpt><trkpt lat="44.5980911" lon="5.0034407"><ele>237.66666666666666</ele><time>2026-04-18T14:00:45.964Z</time></trkpt><trkpt lat="44.5980761" lon="5.0036916"><ele>238.0</ele><time>2026-04-18T14:00:46.966Z</time></trkpt><trkpt lat="44.5980532" lon="5.0039509"><ele>237.33333333333331</ele><time>2026-04-18T14:00:47.965Z</time></trkpt><trkpt lat="44.5980294" lon="5.004201"><ele>236.66666666666669</ele><time>2026-04-18T14:00:48.965Z</time></trkpt><trkpt lat="44.5980075" lon="5.0044482"><ele>236.0</ele><time>2026-04-18T14:00:49.966Z</time></trkpt><trkpt lat="44.5979878" lon="5.0046926"><ele>236.0</ele><time>2026-04-18T14:00:50.966Z</time></trkpt><trkpt lat="44.5979687" lon="5.0049205"><ele>236.0</ele><time>2026-04-18T14:00:51.964Z</time></trkpt><trkpt lat="44.5979578" lon="5.005135"><ele>236.0</ele><time>2026-04-18T14:00:52.965Z</time></trkpt><trkpt lat="44.5979598" lon="5.0053387"><ele>235.75</ele><time>2026-04-18T14:00:53.966Z</time></trkpt><trkpt lat="44.5979762" lon="5.0055411"><ele>235.5</ele><time>2026-04-18T14:00:54.966Z</time></trkpt><trkpt lat="44.5980119" lon="5.0057389"><ele>235.25</ele><time>2026-04-18T14:00:55.965Z</time></trkpt><trkpt lat="44.5980724" lon="5.0059251"><ele>235.0</ele><time>2026-04-18T14:00:56.965Z</time></trkpt><trkpt lat="44.5981486" lon="5.0061051"><ele>235.0</ele><time>2026-04-18T14:00:57.965Z</time></trkpt><trkpt lat="44.5982386" lon="5.0062719"><ele>235.0</ele><time>2026-04-18T14:00:58.965Z</time></trkpt><trkpt lat="44.5983481" lon="5.0064211"><ele>235.0</ele><time>2026-04-18T14:00:59.965Z</time></trkpt><trkpt lat="44.5984653" lon="5.006559"><ele>235.0</ele><time>2026-04-18T14:01:00.966Z</time></trkpt><trkpt lat="44.5985762" lon="5.0066891"><ele>235.0</ele><time>2026-04-18T14:01:01.965Z</time></trkpt><trkpt lat="44.5986804" lon="5.006817"><ele>235.0</ele><time>2026-04-18T14:01:02.966Z</time></trkpt><trkpt lat="44.598784" lon="5.0069395"><ele>235.0</ele><time>2026-04-18T14:01:03.965Z</time></trkpt><trkpt lat="44.5988843" lon="5.0070598"><ele>235.0</ele><time>2026-04-18T14:01:04.966Z</time></trkpt><trkpt lat="44.5989868" lon="5.0071837"><ele>235.0</ele><time>2026-04-18T14:01:05.965Z</time></trkpt><trkpt lat="44.5990929" lon="5.0073081"><ele>235.0</ele><time>2026-04-18T14:01:06.964Z</time></trkpt><trkpt lat="44.599198" lon="5.0074366"><ele>235.0</ele><time>2026-04-18T14:01:07.965Z</time></trkpt><trkpt lat="44.5992935" lon="5.0075558"><ele>235.5</ele><time>2026-04-18T14:01:08.964Z</time></trkpt><trkpt lat="44.5993861" lon="5.007667"><ele>236.0</ele><time>2026-04-18T14:01:09.965Z</time></trkpt><trkpt lat="44.59948" lon="5.0077849"><ele>236.5</ele><time>2026-04-18T14:01:10.964Z</time></trkpt><trkpt lat="44.599572" lon="5.0078911"><ele>237.0</ele><time>2026-04-18T14:01:11.966Z</time></trkpt><trkpt lat="44.5996563" lon="5.0079939"><ele>237.0</ele><time>2026-04-18T14:01:12.966Z</time></trkpt><trkpt lat="44.5997421" lon="5.0080892"><ele>237.0</ele><time>2026-04-18T14:01:13.966Z</time></trkpt><trkpt lat="44.5998228" lon="5.0081898"><ele>237.0</ele><time>2026-04-18T14:01:14.965Z</time></trkpt><trkpt lat="44.5999023" lon="5.0082913"><ele>237.0</ele><time>2026-04-18T14:01:15.965Z</time></trkpt><trkpt lat="44.5999782" lon="5.0083811"><ele>237.0</ele><time>2026-04-18T14:01:16.966Z</time></trkpt><trkpt lat="44.6000477" lon="5.0084758"><ele>237.2</ele><time>2026-04-18T14:01:17.966Z</time></trkpt><trkpt lat="44.6001168" lon="5.0085474"><ele>237.39999999999998</ele><time>2026-04-18T14:01:18.965Z</time></trkpt><trkpt lat="44.6001838" lon="5.0086309"><ele>237.60000000000002</ele><time>2026-04-18T14:01:19.965Z</time></trkpt><trkpt lat="44.600254" lon="5.0087262"><ele>237.8</ele><time>2026-04-18T14:01:20.965Z</time></trkpt><trkpt lat="44.6003234" lon="5.0088212"><ele>238.0</ele><time>2026-04-18T14:01:21.966Z</time></trkpt><trkpt lat="44.6003879" lon="5.0089184"><ele>238.0</ele><time>2026-04-18T14:01:22.965Z</time></trkpt><trkpt lat="44.600461" lon="5.0090101"><ele>238.0</ele><time>2026-04-18T14:01:23.966Z</time></trkpt><trkpt lat="44.6005368" lon="5.0091091"><ele>238.0</ele><time>2026-04-18T14:01:24.965Z</time></trkpt><trkpt lat="44.6006152" lon="5.0092025"><ele>238.0</ele><time>2026-04-18T14:01:25.966Z</time></trkpt><trkpt lat="44.600691" lon="5.0092998"><ele>238.0</ele><time>2026-04-18T14:01:26.965Z</time></trkpt><trkpt lat="44.6007687" lon="5.0093901"><ele>238.16666666666666</ele><time>2026-04-18T14:01:27.965Z</time></trkpt><trkpt lat="44.6008374" lon="5.0094698"><ele>238.33333333333331</ele><time>2026-04-18T14:01:28.964Z</time></trkpt><trkpt lat="44.6009" lon="5.0095373"><ele>238.5</ele><time>2026-04-18T14:01:29.965Z</time></trkpt><trkpt lat="44.6009555" lon="5.0096"><ele>238.66666666666669</ele><time>2026-04-18T14:01:30.964Z</time></trkpt><trkpt lat="44.6010485" lon="5.0097025"><ele>238.83333333333334</ele><time>2026-04-18T14:01:32.965Z</time></trkpt><trkpt lat="44.6011207" lon="5.0097816"><ele>239.0</ele><time>2026-04-18T14:01:34.964Z</time></trkpt><trkpt lat="44.6011804" lon="5.0098484"><ele>239.00000000000003</ele><time>2026-04-18T14:01:36.965Z</time></trkpt><trkpt lat="44.6012378" lon="5.0099058"><ele>239.0</ele><time>2026-04-18T14:01:38.965Z</time></trkpt><trkpt lat="44.6012945" lon="5.0099793"><ele>239.0</ele><time>2026-04-18T14:01:41.964Z</time></trkpt><trkpt lat="44.6013678" lon="5.0100717"><ele>239.0</ele><time>2026-04-18T14:01:49.964Z</time></trkpt><trkpt lat="44.6014586" lon="5.0101762"><ele>239.00000000000003</ele><time>2026-04-18T14:01:51.964Z</time></trkpt><trkpt lat="44.6015154" lon="5.0102424"><ele>239.0</ele><time>2026-04-18T14:01:52.963Z</time></trkpt><trkpt lat="44.6015772" lon="5.0103159"><ele>239.00000000000003</ele><time>2026-04-18T14:01:53.965Z</time></trkpt><trkpt lat="44.601643" lon="5.0103912"><ele>239.0</ele><time>2026-04-18T14:01:54.965Z</time></trkpt><trkpt lat="44.6017026" lon="5.0104727"><ele>239.0</ele><time>2026-04-18T14:01:55.964Z</time></trkpt><trkpt lat="44.6017626" lon="5.0105526"><ele>239.0</ele><time>2026-04-18T14:01:56.965Z</time></trkpt><trkpt lat="44.6018078" lon="5.0106236"><ele>239.00000000000003</ele><time>2026-04-18T14:01:57.965Z</time></trkpt><trkpt lat="44.6018502" lon="5.0106932"><ele>239.0</ele><time>2026-04-18T14:01:58.965Z</time></trkpt><trkpt lat="44.601916" lon="5.0108528"><ele>240.6</ele><time>2026-04-18T14:02:00.964Z</time></trkpt><trkpt lat="44.6019307" lon="5.0109442"><ele>242.2</ele><time>2026-04-18T14:02:01.965Z</time></trkpt><trkpt lat="44.6019494" lon="5.0111089"><ele>243.79999999999998</ele><time>2026-04-18T14:02:03.963Z</time></trkpt><trkpt lat="44.6019408" lon="5.0112276"><ele>245.39999999999998</ele><time>2026-04-18T14:02:05.963Z</time></trkpt><trkpt lat="44.601872" lon="5.0113563"><ele>247.0</ele><time>2026-04-18T14:02:07.964Z</time></trkpt><trkpt lat="44.601818" lon="5.0114158"><ele>247.0</ele><time>2026-04-18T14:02:08.964Z</time></trkpt><trkpt lat="44.6017644" lon="5.0114812"><ele>247.0</ele><time>2026-04-18T14:02:09.965Z</time></trkpt><trkpt lat="44.6017171" lon="5.0115621"><ele>247.0</ele><time>2026-04-18T14:02:10.964Z</time></trkpt><trkpt lat="44.6016738" lon="5.0116479"><ele>247.0</ele><time>2026-04-18T14:02:11.964Z</time></trkpt><trkpt lat="44.6016459" lon="5.0117274"><ele>247.0</ele><time>2026-04-18T14:02:12.965Z</time></trkpt><trkpt lat="44.6016393" lon="5.0118189"><ele>247.0</ele><time>2026-04-18T14:02:13.965Z</time></trkpt><trkpt lat="44.6016369" lon="5.0119215"><ele>247.0</ele><time>2026-04-18T14:02:14.965Z</time></trkpt><trkpt lat="44.601649" lon="5.0120292"><ele>247.66666666666666</ele><time>2026-04-18T14:02:15.965Z</time></trkpt><trkpt lat="44.6016503" lon="5.0121482"><ele>248.33333333333331</ele><time>2026-04-18T14:02:16.965Z</time></trkpt><trkpt lat="44.6016477" lon="5.0122572"><ele>249.0</ele><time>2026-04-18T14:02:17.965Z</time></trkpt><trkpt lat="44.6016249" lon="5.0123653"><ele>249.66666666666669</ele><time>2026-04-18T14:02:18.964Z</time></trkpt><trkpt lat="44.601582" lon="5.0124592"><ele>250.33333333333334</ele><time>2026-04-18T14:02:19.964Z</time></trkpt><trkpt lat="44.601519" lon="5.012522"><ele>251.0</ele><time>2026-04-18T14:02:20.964Z</time></trkpt><trkpt lat="44.6014464" lon="5.0125644"><ele>251.71428571428567</ele><time>2026-04-18T14:02:21.965Z</time></trkpt><trkpt lat="44.6013745" lon="5.0125871"><ele>252.42857142857142</ele><time>2026-04-18T14:02:22.964Z</time></trkpt><trkpt lat="44.6012997" lon="5.0126056"><ele>253.1428571428571</ele><time>2026-04-18T14:02:23.964Z</time></trkpt><trkpt lat="44.6012217" lon="5.0126164"><ele>253.85714285714283</ele><time>2026-04-18T14:02:24.963Z</time></trkpt><trkpt lat="44.6011522" lon="5.0126261"><ele>254.57142857142856</ele><time>2026-04-18T14:02:25.963Z</time></trkpt><trkpt lat="44.6010848" lon="5.0126268"><ele>255.28571428571428</ele><time>2026-04-18T14:02:26.964Z</time></trkpt><trkpt lat="44.601023" lon="5.0126467"><ele>256.0</ele><time>2026-04-18T14:02:27.964Z</time></trkpt><trkpt lat="44.6009557" lon="5.0127822"><ele>256.0</ele><time>2026-04-18T14:02:29.964Z</time></trkpt><trkpt lat="44.6009512" lon="5.012874"><ele>256.0</ele><time>2026-04-18T14:02:30.965Z</time></trkpt><trkpt lat="44.60104" lon="5.0129874"><ele>256.0</ele><time>2026-04-18T14:02:32.964Z</time></trkpt><trkpt lat="44.6011183" lon="5.0130002"><ele>256.0</ele><time>2026-04-18T14:02:33.965Z</time></trkpt><trkpt lat="44.6012139" lon="5.0130088"><ele>256.0</ele><time>2026-04-18T14:02:34.963Z</time></trkpt><trkpt lat="44.6013273" lon="5.0130215"><ele>256.25</ele><time>2026-04-18T14:02:35.964Z</time></trkpt><trkpt lat="44.6014442" lon="5.0130308"><ele>256.5</ele><time>2026-04-18T14:02:36.964Z</time></trkpt><trkpt lat="44.6015642" lon="5.0130393"><ele>256.75</ele><time>2026-04-18T14:02:37.964Z</time></trkpt><trkpt lat="44.6016888" lon="5.0130437"><ele>257.0</ele><time>2026-04-18T14:02:38.965Z</time></trkpt><trkpt lat="44.6017977" lon="5.0130525"><ele>257.0</ele><time>2026-04-18T14:02:39.964Z</time></trkpt><trkpt lat="44.6019109" lon="5.0130629"><ele>257.0</ele><time>2026-04-18T14:02:40.963Z</time></trkpt><trkpt lat="44.6020156" lon="5.013076"><ele>257.0</ele><time>2026-04-18T14:02:41.964Z</time></trkpt><trkpt lat="44.6020986" lon="5.0130865"><ele>257.0</ele><time>2026-04-18T14:02:42.965Z</time></trkpt><trkpt lat="44.6021668" lon="5.0130906"><ele>257.0</ele><time>2026-04-18T14:02:43.963Z</time></trkpt><trkpt lat="44.60223" lon="5.0131044"><ele>257.0</ele><time>2026-04-18T14:02:44.964Z</time></trkpt><trkpt lat="44.6022901" lon="5.0132433"><ele>259.0</ele><time>2026-04-18T14:02:46.965Z</time></trkpt><trkpt lat="44.6022714" lon="5.0133409"><ele>261.0</ele><time>2026-04-18T14:02:47.963Z</time></trkpt><trkpt lat="44.6022343" lon="5.013463"><ele>263.0</ele><time>2026-04-18T14:02:48.964Z</time></trkpt><trkpt lat="44.6021879" lon="5.0136062"><ele>265.0</ele><time>2026-04-18T14:02:49.964Z</time></trkpt><trkpt lat="44.6021403" lon="5.0137698"><ele>267.0</ele><time>2026-04-18T14:02:50.964Z</time></trkpt><trkpt lat="44.6020925" lon="5.0139636"><ele>268.6666666666667</ele><time>2026-04-18T14:02:51.965Z</time></trkpt><trkpt lat="44.6020365" lon="5.0141711"><ele>270.33333333333337</ele><time>2026-04-18T14:02:52.965Z</time></trkpt><trkpt lat="44.6019817" lon="5.0143716"><ele>272.0</ele><time>2026-04-18T14:02:53.964Z</time></trkpt><trkpt lat="44.6019282" lon="5.014564"><ele>272.6666666666667</ele><time>2026-04-18T14:02:54.965Z</time></trkpt><trkpt lat="44.6018793" lon="5.0147523"><ele>273.3333333333333</ele><time>2026-04-18T14:02:55.965Z</time></trkpt><trkpt lat="44.601842" lon="5.0149572"><ele>274.0</ele><time>2026-04-18T14:02:56.964Z</time></trkpt><trkpt lat="44.6018015" lon="5.0151701"><ele>278.0</ele><time>2026-04-18T14:02:57.964Z</time></trkpt><trkpt lat="44.6017672" lon="5.0153814"><ele>282.0</ele><time>2026-04-18T14:02:58.964Z</time></trkpt><trkpt lat="44.6017475" lon="5.0156074"><ele>286.0</ele><time>2026-04-18T14:02:59.965Z</time></trkpt><trkpt lat="44.6017483" lon="5.015846"><ele>289.0</ele><time>2026-04-18T14:03:00.965Z</time></trkpt><trkpt lat="44.6017483" lon="5.0160991"><ele>292.0</ele><time>2026-04-18T14:03:01.965Z</time></trkpt><trkpt lat="44.6017347" lon="5.0163273"><ele>295.0</ele><time>2026-04-18T14:03:02.963Z</time></trkpt><trkpt lat="44.6017104" lon="5.0165337"><ele>295.75</ele><time>2026-04-18T14:03:03.965Z</time></trkpt><trkpt lat="44.6016654" lon="5.0167199"><ele>296.5</ele><time>2026-04-18T14:03:04.965Z</time></trkpt><trkpt lat="44.6015942" lon="5.0168793"><ele>297.25</ele><time>2026-04-18T14:03:05.964Z</time></trkpt><trkpt lat="44.6015289" lon="5.0170414"><ele>298.0</ele><time>2026-04-18T14:03:06.965Z</time></trkpt><trkpt lat="44.6014932" lon="5.0172166"><ele>298.0</ele><time>2026-04-18T14:03:07.965Z</time></trkpt><trkpt lat="44.601482" lon="5.0174054"><ele>298.0</ele><time>2026-04-18T14:03:08.965Z</time></trkpt><trkpt lat="44.6014926" lon="5.0176097"><ele>298.0</ele><time>2026-04-18T14:03:09.964Z</time></trkpt><trkpt lat="44.6015237" lon="5.0178292"><ele>298.0</ele><time>2026-04-18T14:03:10.963Z</time></trkpt><trkpt lat="44.6015663" lon="5.0180418"><ele>299.5</ele><time>2026-04-18T14:03:11.963Z</time></trkpt><trkpt lat="44.6016137" lon="5.0182428"><ele>301.0</ele><time>2026-04-18T14:03:12.964Z</time></trkpt><trkpt lat="44.6016623" lon="5.0184174"><ele>302.5</ele><time>2026-04-18T14:03:13.965Z</time></trkpt><trkpt lat="44.6017105" lon="5.0185614"><ele>304.0</ele><time>2026-04-18T14:03:14.964Z</time></trkpt><trkpt lat="44.6017545" lon="5.0186753"><ele>305.3333333333333</ele><time>2026-04-18T14:03:15.965Z</time></trkpt><trkpt lat="44.6017911" lon="5.0187562"><ele>306.66666666666663</ele><time>2026-04-18T14:03:16.965Z</time></trkpt><trkpt lat="44.6017934" lon="5.0189063"><ele>308.0</ele><time>2026-04-18T14:03:18.965Z</time></trkpt><trkpt lat="44.6017061" lon="5.0189049"><ele>309.3333333333333</ele><time>2026-04-18T14:03:20.964Z</time></trkpt><trkpt lat="44.6016793" lon="5.0188196"><ele>310.6666666666667</ele><time>2026-04-18T14:03:21.965Z</time></trkpt><trkpt lat="44.6016451" lon="5.0187094"><ele>312.0</ele><time>2026-04-18T14:03:22.965Z</time></trkpt><trkpt lat="44.6015886" lon="5.0185803"><ele>312.0</ele><time>2026-04-18T14:03:23.965Z</time></trkpt><trkpt lat="44.6015124" lon="5.0184358"><ele>312.0</ele><time>2026-04-18T14:03:24.964Z</time></trkpt><trkpt lat="44.6014305" lon="5.0182761"><ele>312.0</ele><time>2026-04-18T14:03:25.965Z</time></trkpt><trkpt lat="44.6013429" lon="5.018083"><ele>312.0</ele><time>2026-04-18T14:03:26.964Z</time></trkpt><trkpt lat="44.6012771" lon="5.0179176"><ele>310.0</ele><time>2026-04-18T14:03:27.965Z</time></trkpt><trkpt lat="44.6012319" lon="5.0177434"><ele>308.0</ele><time>2026-04-18T14:03:28.964Z</time></trkpt><trkpt lat="44.6012094" lon="5.0175685"><ele>306.0</ele><time>2026-04-18T14:03:29.965Z</time></trkpt><trkpt lat="44.6012176" lon="5.0173804"><ele>304.0</ele><time>2026-04-18T14:03:30.964Z</time></trkpt><trkpt lat="44.6012447" lon="5.0172101"><ele>302.8</ele><time>2026-04-18T14:03:31.964Z</time></trkpt><trkpt lat="44.6012793" lon="5.0170768"><ele>301.59999999999997</ele><time>2026-04-18T14:03:32.964Z</time></trkpt><trkpt lat="44.6013038" lon="5.0169701"><ele>300.4</ele><time>2026-04-18T14:03:33.965Z</time></trkpt><trkpt lat="44.6012798" lon="5.0168272"><ele>299.2</ele><time>2026-04-18T14:03:35.963Z</time></trkpt><trkpt lat="44.6012016" lon="5.0168712"><ele>298.0</ele><time>2026-04-18T14:03:37.963Z</time></trkpt><trkpt lat="44.6011711" lon="5.0170921"><ele>301.25</ele><time>2026-04-18T14:03:39.964Z</time></trkpt><trkpt lat="44.6011487" lon="5.0172585"><ele>304.5</ele><time>2026-04-18T14:03:40.965Z</time></trkpt><trkpt lat="44.6011208" lon="5.0174458"><ele>307.75</ele><time>2026-04-18T14:03:41.965Z</time></trkpt><trkpt lat="44.6011021" lon="5.017661"><ele>311.0</ele><time>2026-04-18T14:03:42.965Z</time></trkpt><trkpt lat="44.6011093" lon="5.0178933"><ele>311.33333333333337</ele><time>2026-04-18T14:03:43.964Z</time></trkpt><trkpt lat="44.6011407" lon="5.0181199"><ele>311.6666666666667</ele><time>2026-04-18T14:03:44.963Z</time></trkpt><trkpt lat="44.6011934" lon="5.0183457"><ele>312.0</ele><time>2026-04-18T14:03:45.965Z</time></trkpt><trkpt lat="44.601253" lon="5.0185766"><ele>312.0</ele><time>2026-04-18T14:03:46.964Z</time></trkpt><trkpt lat="44.6013222" lon="5.0188237"><ele>312.0</ele><time>2026-04-18T14:03:47.964Z</time></trkpt><trkpt lat="44.6013885" lon="5.0190671"><ele>312.0</ele><time>2026-04-18T14:03:48.964Z</time></trkpt><trkpt lat="44.6014477" lon="5.0193305"><ele>315.3333333333333</ele><time>2026-04-18T14:03:49.964Z</time></trkpt><trkpt lat="44.6014943" lon="5.0195975"><ele>318.66666666666663</ele><time>2026-04-18T14:03:50.965Z</time></trkpt><trkpt lat="44.6015347" lon="5.0198317"><ele>322.0</ele><time>2026-04-18T14:03:51.965Z</time></trkpt><trkpt lat="44.6015641" lon="5.0200406"><ele>324.66666666666663</ele><time>2026-04-18T14:03:52.964Z</time></trkpt><trkpt lat="44.6015691" lon="5.0202459"><ele>327.3333333333333</ele><time>2026-04-18T14:03:53.964Z</time></trkpt><trkpt lat="44.6015371" lon="5.0204556"><ele>330.0</ele><time>2026-04-18T14:03:54.964Z</time></trkpt><trkpt lat="44.6014889" lon="5.0206758"><ele>330.6666666666667</ele><time>2026-04-18T14:03:55.965Z</time></trkpt><trkpt lat="44.6014418" lon="5.0209219"><ele>331.33333333333337</ele><time>2026-04-18T14:03:56.963Z</time></trkpt><trkpt lat="44.6014077" lon="5.0211673"><ele>332.0</ele><time>2026-04-18T14:03:57.964Z</time></trkpt><trkpt lat="44.6013724" lon="5.0213846"><ele>332.0</ele><time>2026-04-18T14:03:58.964Z</time></trkpt><trkpt lat="44.6013279" lon="5.0215825"><ele>332.0</ele><time>2026-04-18T14:03:59.964Z</time></trkpt><trkpt lat="44.6012944" lon="5.0217635"><ele>332.0</ele><time>2026-04-18T14:04:00.965Z</time></trkpt><trkpt lat="44.6013039" lon="5.0219508"><ele>332.0</ele><time>2026-04-18T14:04:01.965Z</time></trkpt><trkpt lat="44.6013356" lon="5.0221391"><ele>332.75</ele><time>2026-04-18T14:04:02.965Z</time></trkpt><trkpt lat="44.6013914" lon="5.0223149"><ele>333.5</ele><time>2026-04-18T14:04:03.963Z</time></trkpt><trkpt lat="44.6014839" lon="5.0224794"><ele>334.25</ele><time>2026-04-18T14:04:04.965Z</time></trkpt><trkpt lat="44.6015798" lon="5.0226232"><ele>335.0</ele><time>2026-04-18T14:04:05.965Z</time></trkpt><trkpt lat="44.6016762" lon="5.0227571"><ele>336.5</ele><time>2026-04-18T14:04:06.964Z</time></trkpt><trkpt lat="44.601752" lon="5.0229091"><ele>338.0</ele><time>2026-04-18T14:04:07.964Z</time></trkpt><trkpt lat="44.6018076" lon="5.0230825"><ele>339.5</ele><time>2026-04-18T14:04:08.964Z</time></trkpt><trkpt lat="44.6018484" lon="5.0232776"><ele>341.0</ele><time>2026-04-18T14:04:09.964Z</time></trkpt><trkpt lat="44.6018874" lon="5.0234883"><ele>343.0</ele><time>2026-04-18T14:04:10.963Z</time></trkpt><trkpt lat="44.6019498" lon="5.0237105"><ele>345.0</ele><time>2026-04-18T14:04:11.965Z</time></trkpt><trkpt lat="44.6020214" lon="5.0239438"><ele>347.0</ele><time>2026-04-18T14:04:12.964Z</time></trkpt><trkpt lat="44.6020938" lon="5.0241992"><ele>348.6666666666667</ele><time>2026-04-18T14:04:13.964Z</time></trkpt><trkpt lat="44.6021535" lon="5.0244433"><ele>350.3333333333333</ele><time>2026-04-18T14:04:14.965Z</time></trkpt><trkpt lat="44.6022034" lon="5.0246704"><ele>352.0</ele><time>2026-04-18T14:04:15.964Z</time></trkpt><trkpt lat="44.6022317" lon="5.0248817"><ele>353.3333333333333</ele><time>2026-04-18T14:04:16.965Z</time></trkpt><trkpt lat="44.602232" lon="5.0250934"><ele>354.6666666666667</ele><time>2026-04-18T14:04:17.963Z</time></trkpt><trkpt lat="44.6022022" lon="5.0252995"><ele>356.0</ele><time>2026-04-18T14:04:18.964Z</time></trkpt><trkpt lat="44.6021491" lon="5.025502"><ele>356.0</ele><time>2026-04-18T14:04:19.965Z</time></trkpt><trkpt lat="44.6020771" lon="5.0256962"><ele>356.0</ele><time>2026-04-18T14:04:20.965Z</time></trkpt><trkpt lat="44.6019934" lon="5.0258613"><ele>356.0</ele><time>2026-04-18T14:04:21.965Z</time></trkpt><trkpt lat="44.6018911" lon="5.0260167"><ele>362.33333333333337</ele><time>2026-04-18T14:04:22.965Z</time></trkpt><trkpt lat="44.6017694" lon="5.0261452"><ele>368.6666666666667</ele><time>2026-04-18T14:04:23.965Z</time></trkpt><trkpt lat="44.6016333" lon="5.0262566"><ele>375.0</ele><time>2026-04-18T14:04:24.964Z</time></trkpt><trkpt lat="44.6014992" lon="5.0263753"><ele>375.0</ele><time>2026-04-18T14:04:25.964Z</time></trkpt><trkpt lat="44.6013669" lon="5.0265216"><ele>375.0</ele><time>2026-04-18T14:04:26.965Z</time></trkpt><trkpt lat="44.6012415" lon="5.0266858"><ele>375.0</ele><time>2026-04-18T14:04:27.964Z</time></trkpt><trkpt lat="44.6011223" lon="5.0268628"><ele>379.66666666666663</ele><time>2026-04-18T14:04:28.965Z</time></trkpt><trkpt lat="44.6010146" lon="5.0270526"><ele>384.3333333333333</ele><time>2026-04-18T14:04:29.965Z</time></trkpt><trkpt lat="44.6009191" lon="5.0272533"><ele>389.0</ele><time>2026-04-18T14:04:30.965Z</time></trkpt><trkpt lat="44.6008396" lon="5.0274613"><ele>386.66666666666663</ele><time>2026-04-18T14:04:31.965Z</time></trkpt><trkpt lat="44.6007679" lon="5.0276814"><ele>384.3333333333333</ele><time>2026-04-18T14:04:32.964Z</time></trkpt><trkpt lat="44.6007005" lon="5.02791"><ele>382.0</ele><time>2026-04-18T14:04:33.965Z</time></trkpt><trkpt lat="44.6006299" lon="5.0281367"><ele>383.0</ele><time>2026-04-18T14:04:34.964Z</time></trkpt><trkpt lat="44.6005608" lon="5.0283652"><ele>384.0</ele><time>2026-04-18T14:04:35.964Z</time></trkpt><trkpt lat="44.6004875" lon="5.0285927"><ele>385.0</ele><time>2026-04-18T14:04:36.965Z</time></trkpt><trkpt lat="44.6004173" lon="5.0288056"><ele>385.0</ele><time>2026-04-18T14:04:37.964Z</time></trkpt><trkpt lat="44.6003628" lon="5.0290204"><ele>385.0</ele><time>2026-04-18T14:04:38.964Z</time></trkpt><trkpt lat="44.6003274" lon="5.0292443"><ele>385.0</ele><time>2026-04-18T14:04:39.964Z</time></trkpt><trkpt lat="44.6003115" lon="5.0294728"><ele>388.33333333333337</ele><time>2026-04-18T14:04:40.964Z</time></trkpt><trkpt lat="44.6003096" lon="5.0297089"><ele>391.66666666666663</ele><time>2026-04-18T14:04:41.964Z</time></trkpt><trkpt lat="44.6003239" lon="5.0299485"><ele>395.0</ele><time>2026-04-18T14:04:42.965Z</time></trkpt><trkpt lat="44.6003497" lon="5.0301913"><ele>395.0</ele><time>2026-04-18T14:04:43.964Z</time></trkpt><trkpt lat="44.6003779" lon="5.030416"><ele>395.0</ele><time>2026-04-18T14:04:44.965Z</time></trkpt><trkpt lat="44.600389" lon="5.0306461"><ele>395.0</ele><time>2026-04-18T14:04:45.964Z</time></trkpt><trkpt lat="44.6003873" lon="5.0308808"><ele>396.3333333333333</ele><time>2026-04-18T14:04:46.964Z</time></trkpt><trkpt lat="44.6003685" lon="5.0311254"><ele>397.66666666666663</ele><time>2026-04-18T14:04:47.964Z</time></trkpt><trkpt lat="44.6003429" lon="5.0313763"><ele>399.0</ele><time>2026-04-18T14:04:48.964Z</time></trkpt><trkpt lat="44.6003131" lon="5.0316309"><ele>404.66666666666663</ele><time>2026-04-18T14:04:49.964Z</time></trkpt><trkpt lat="44.6002865" lon="5.0319033"><ele>410.3333333333333</ele><time>2026-04-18T14:04:50.965Z</time></trkpt><trkpt lat="44.6002562" lon="5.0321528"><ele>416.0</ele><time>2026-04-18T14:04:51.964Z</time></trkpt><trkpt lat="44.6002123" lon="5.0324042"><ele>416.0</ele><time>2026-04-18T14:04:52.964Z</time></trkpt><trkpt lat="44.6001583" lon="5.0326587"><ele>416.0</ele><time>2026-04-18T14:04:53.964Z</time></trkpt><trkpt lat="44.6001036" lon="5.0329186"><ele>416.0</ele><time>2026-04-18T14:04:54.965Z</time></trkpt><trkpt lat="44.6000563" lon="5.033185"><ele>417.3333333333333</ele><time>2026-04-18T14:04:55.964Z</time></trkpt><trkpt lat="44.6000157" lon="5.0334432"><ele>418.66666666666663</ele><time>2026-04-18T14:04:56.965Z</time></trkpt><trkpt lat="44.5999776" lon="5.033702"><ele>420.0</ele><time>2026-04-18T14:04:57.964Z</time></trkpt><trkpt lat="44.5999542" lon="5.0339658"><ele>421.0</ele><time>2026-04-18T14:04:58.964Z</time></trkpt><trkpt lat="44.599946" lon="5.0342332"><ele>422.0</ele><time>2026-04-18T14:04:59.964Z</time></trkpt><trkpt lat="44.5999493" lon="5.0345081"><ele>423.0</ele><time>2026-04-18T14:05:00.965Z</time></trkpt><trkpt lat="44.5999504" lon="5.034781"><ele>425.0</ele><time>2026-04-18T14:05:01.964Z</time></trkpt><trkpt lat="44.5999451" lon="5.0350595"><ele>427.0</ele><time>2026-04-18T14:05:02.963Z</time></trkpt><trkpt lat="44.5999336" lon="5.0353212"><ele>429.0</ele><time>2026-04-18T14:05:03.965Z</time></trkpt><trkpt lat="44.5999225" lon="5.0355729"><ele>430.33333333333337</ele><time>2026-04-18T14:05:04.964Z</time></trkpt><trkpt lat="44.5999036" lon="5.0358202"><ele>431.6666666666667</ele><time>2026-04-18T14:05:05.964Z</time></trkpt><trkpt lat="44.5998858" lon="5.0360624"><ele>433.0</ele><time>2026-04-18T14:05:06.964Z</time></trkpt><trkpt lat="44.5998618" lon="5.0363013"><ele>433.0</ele><time>2026-04-18T14:05:07.964Z</time></trkpt><trkpt lat="44.599836" lon="5.0365228"><ele>433.0</ele><time>2026-04-18T14:05:08.964Z</time></trkpt><trkpt lat="44.5998048" lon="5.0367285"><ele>433.0</ele><time>2026-04-18T14:05:09.965Z</time></trkpt><trkpt lat="44.5997733" lon="5.0369352"><ele>433.5</ele><time>2026-04-18T14:05:10.965Z</time></trkpt><trkpt lat="44.5997525" lon="5.0371106"><ele>434.0</ele><time>2026-04-18T14:05:11.964Z</time></trkpt><trkpt lat="44.5997322" lon="5.0372815"><ele>434.5</ele><time>2026-04-18T14:05:12.965Z</time></trkpt><trkpt lat="44.5997148" lon="5.0374237"><ele>435.0</ele><time>2026-04-18T14:05:13.965Z</time></trkpt><trkpt lat="44.5996756" lon="5.0375531"><ele>436.25</ele><time>2026-04-18T14:05:14.963Z</time></trkpt><trkpt lat="44.5996121" lon="5.0376806"><ele>437.5</ele><time>2026-04-18T14:05:15.963Z</time></trkpt><trkpt lat="44.5995228" lon="5.0377805"><ele>438.75</ele><time>2026-04-18T14:05:16.965Z</time></trkpt><trkpt lat="44.5994132" lon="5.0378619"><ele>440.0</ele><time>2026-04-18T14:05:17.965Z</time></trkpt><trkpt lat="44.5992934" lon="5.0379373"><ele>440.0</ele><time>2026-04-18T14:05:18.963Z</time></trkpt><trkpt lat="44.599176" lon="5.0380104"><ele>440.0</ele><time>2026-04-18T14:05:19.965Z</time></trkpt><trkpt lat="44.5990505" lon="5.0380816"><ele>440.0</ele><time>2026-04-18T14:05:20.964Z</time></trkpt><trkpt lat="44.5989291" lon="5.0381708"><ele>440.0</ele><time>2026-04-18T14:05:21.965Z</time></trkpt><trkpt lat="44.5988046" lon="5.0382815"><ele>438.66666666666663</ele><time>2026-04-18T14:05:22.965Z</time></trkpt><trkpt lat="44.5986681" lon="5.0383996"><ele>437.33333333333337</ele><time>2026-04-18T14:05:23.964Z</time></trkpt><trkpt lat="44.5985282" lon="5.0385162"><ele>436.0</ele><time>2026-04-18T14:05:24.964Z</time></trkpt><trkpt lat="44.5983977" lon="5.0386233"><ele>436.0</ele><time>2026-04-18T14:05:25.964Z</time></trkpt><trkpt lat="44.5982747" lon="5.0387119"><ele>436.0</ele><time>2026-04-18T14:05:26.965Z</time></trkpt><trkpt lat="44.5981418" lon="5.0387612"><ele>436.0</ele><time>2026-04-18T14:05:27.964Z</time></trkpt><trkpt lat="44.5980122" lon="5.0387685"><ele>436.0</ele><time>2026-04-18T14:05:28.964Z</time></trkpt><trkpt lat="44.5978947" lon="5.0387586"><ele>434.8</ele><time>2026-04-18T14:05:29.963Z</time></trkpt><trkpt lat="44.5977906" lon="5.0387648"><ele>433.6</ele><time>2026-04-18T14:05:30.965Z</time></trkpt><trkpt lat="44.5976851" lon="5.0387751"><ele>432.4</ele><time>2026-04-18T14:05:31.965Z</time></trkpt><trkpt lat="44.5976444" lon="5.0389334"><ele>431.2</ele><time>2026-04-18T14:05:32.964Z</time></trkpt><trkpt lat="44.5975988" lon="5.0390534"><ele>430.0</ele><time>2026-04-18T14:05:33.964Z</time></trkpt><trkpt lat="44.5975589" lon="5.0392048"><ele>430.0</ele><time>2026-04-18T14:05:34.963Z</time></trkpt><trkpt lat="44.5975037" lon="5.0393589"><ele>430.0</ele><time>2026-04-18T14:05:35.964Z</time></trkpt><trkpt lat="44.5974256" lon="5.0395096"><ele>430.0</ele><time>2026-04-18T14:05:36.964Z</time></trkpt><trkpt lat="44.597332" lon="5.0396459"><ele>430.0</ele><time>2026-04-18T14:05:37.964Z</time></trkpt><trkpt lat="44.5972292" lon="5.0397753"><ele>430.0</ele><time>2026-04-18T14:05:38.965Z</time></trkpt><trkpt lat="44.5971257" lon="5.0399002"><ele>430.0</ele><time>2026-04-18T14:05:39.965Z</time></trkpt><trkpt lat="44.5970187" lon="5.0400312"><ele>430.0</ele><time>2026-04-18T14:05:40.963Z</time></trkpt><trkpt lat="44.5969241" lon="5.0401836"><ele>430.0</ele><time>2026-04-18T14:05:41.963Z</time></trkpt><trkpt lat="44.5968452" lon="5.0403562"><ele>430.33333333333337</ele><time>2026-04-18T14:05:42.964Z</time></trkpt><trkpt lat="44.596774" lon="5.0405446"><ele>430.66666666666663</ele><time>2026-04-18T14:05:43.965Z</time></trkpt><trkpt lat="44.5967088" lon="5.0407387"><ele>431.0</ele><time>2026-04-18T14:05:44.965Z</time></trkpt><trkpt lat="44.5966493" lon="5.0409425"><ele>431.0</ele><time>2026-04-18T14:05:45.964Z</time></trkpt><trkpt lat="44.5965922" lon="5.0411564"><ele>431.0</ele><time>2026-04-18T14:05:46.964Z</time></trkpt><trkpt lat="44.5965332" lon="5.0413707"><ele>431.0</ele><time>2026-04-18T14:05:47.965Z</time></trkpt><trkpt lat="44.5964716" lon="5.0415881"><ele>427.0</ele><time>2026-04-18T14:05:48.965Z</time></trkpt><trkpt lat="44.596411" lon="5.0418065"><ele>423.0</ele><time>2026-04-18T14:05:49.963Z</time></trkpt><trkpt lat="44.5963484" lon="5.042018"><ele>419.0</ele><time>2026-04-18T14:05:50.965Z</time></trkpt><trkpt lat="44.5962751" lon="5.0422261"><ele>419.0</ele><time>2026-04-18T14:05:51.964Z</time></trkpt><trkpt lat="44.5961962" lon="5.0424331"><ele>419.0</ele><time>2026-04-18T14:05:52.965Z</time></trkpt><trkpt lat="44.5961082" lon="5.0426334"><ele>419.0</ele><time>2026-04-18T14:05:53.964Z</time></trkpt><trkpt lat="44.5960187" lon="5.042843"><ele>422.66666666666663</ele><time>2026-04-18T14:05:54.965Z</time></trkpt><trkpt lat="44.5959341" lon="5.0430617"><ele>426.33333333333337</ele><time>2026-04-18T14:05:55.965Z</time></trkpt><trkpt lat="44.5958496" lon="5.0432818"><ele>430.0</ele><time>2026-04-18T14:05:56.964Z</time></trkpt><trkpt lat="44.5957559" lon="5.0434985"><ele>430.0</ele><time>2026-04-18T14:05:57.964Z</time></trkpt><trkpt lat="44.5956642" lon="5.0437162"><ele>430.0</ele><time>2026-04-18T14:05:58.965Z</time></trkpt><trkpt lat="44.5955763" lon="5.0439234"><ele>430.0</ele><time>2026-04-18T14:05:59.964Z</time></trkpt><trkpt lat="44.5954882" lon="5.0441241"><ele>425.6666666666667</ele><time>2026-04-18T14:06:00.964Z</time></trkpt><trkpt lat="44.5954045" lon="5.0443252"><ele>421.33333333333337</ele><time>2026-04-18T14:06:01.964Z</time></trkpt><trkpt lat="44.5953143" lon="5.0445215"><ele>417.0</ele><time>2026-04-18T14:06:02.964Z</time></trkpt><trkpt lat="44.5952149" lon="5.0447098"><ele>422.33333333333337</ele><time>2026-04-18T14:06:03.963Z</time></trkpt><trkpt lat="44.5951129" lon="5.0448965"><ele>427.6666666666667</ele><time>2026-04-18T14:06:04.964Z</time></trkpt><trkpt lat="44.5950082" lon="5.045084"><ele>433.0</ele><time>2026-04-18T14:06:05.963Z</time></trkpt><trkpt lat="44.594909" lon="5.0452668"><ele>433.0</ele><time>2026-04-18T14:06:06.965Z</time></trkpt><trkpt lat="44.5948138" lon="5.0454364"><ele>433.0</ele><time>2026-04-18T14:06:07.964Z</time></trkpt><trkpt lat="44.5947182" lon="5.0455912"><ele>433.0</ele><time>2026-04-18T14:06:08.965Z</time></trkpt><trkpt lat="44.594618" lon="5.0457362"><ele>433.0</ele><time>2026-04-18T14:06:09.964Z</time></trkpt><trkpt lat="44.5945322" lon="5.0458846"><ele>436.75</ele><time>2026-04-18T14:06:10.964Z</time></trkpt><trkpt lat="44.594465" lon="5.0460435"><ele>440.5</ele><time>2026-04-18T14:06:11.963Z</time></trkpt><trkpt lat="44.5944119" lon="5.0462249"><ele>444.25</ele><time>2026-04-18T14:06:12.964Z</time></trkpt><trkpt lat="44.5943683" lon="5.0464182"><ele>448.0</ele><time>2026-04-18T14:06:13.964Z</time></trkpt><trkpt lat="44.5943301" lon="5.0466229"><ele>443.33333333333337</ele><time>2026-04-18T14:06:14.964Z</time></trkpt><trkpt lat="44.5942909" lon="5.0468362"><ele>438.66666666666663</ele><time>2026-04-18T14:06:15.963Z</time></trkpt><trkpt lat="44.594256" lon="5.0470417"><ele>434.0</ele><time>2026-04-18T14:06:16.963Z</time></trkpt><trkpt lat="44.59422" lon="5.0472476"><ele>434.0</ele><time>2026-04-18T14:06:17.963Z</time></trkpt><trkpt lat="44.5941736" lon="5.0474518"><ele>434.0</ele><time>2026-04-18T14:06:18.963Z</time></trkpt><trkpt lat="44.5941173" lon="5.0476603"><ele>434.0</ele><time>2026-04-18T14:06:19.963Z</time></trkpt><trkpt lat="44.5940466" lon="5.047863"><ele>431.66666666666663</ele><time>2026-04-18T14:06:20.964Z</time></trkpt><trkpt lat="44.593963" lon="5.0480608"><ele>429.33333333333337</ele><time>2026-04-18T14:06:21.963Z</time></trkpt><trkpt lat="44.5938692" lon="5.0482581"><ele>427.0</ele><time>2026-04-18T14:06:22.964Z</time></trkpt><trkpt lat="44.5937722" lon="5.048456"><ele>430.6666666666667</ele><time>2026-04-18T14:06:23.963Z</time></trkpt><trkpt lat="44.5936698" lon="5.0486453"><ele>434.33333333333337</ele><time>2026-04-18T14:06:24.964Z</time></trkpt><trkpt lat="44.593558" lon="5.0488291"><ele>438.0</ele><time>2026-04-18T14:06:25.964Z</time></trkpt><trkpt lat="44.5934621" lon="5.0490488"><ele>434.66666666666663</ele><time>2026-04-18T14:06:26.963Z</time></trkpt><trkpt lat="44.5933638" lon="5.0492587"><ele>431.3333333333333</ele><time>2026-04-18T14:06:27.963Z</time></trkpt><trkpt lat="44.5932616" lon="5.0494718"><ele>428.0</ele><time>2026-04-18T14:06:28.964Z</time></trkpt><trkpt lat="44.5931553" lon="5.0496781"><ele>428.0</ele><time>2026-04-18T14:06:29.963Z</time></trkpt><trkpt lat="44.593052" lon="5.0498863"><ele>428.0</ele><time>2026-04-18T14:06:30.964Z</time></trkpt><trkpt lat="44.5929467" lon="5.0501032"><ele>428.0</ele><time>2026-04-18T14:06:31.964Z</time></trkpt><trkpt lat="44.5928468" lon="5.0503207"><ele>429.0</ele><time>2026-04-18T14:06:32.964Z</time></trkpt><trkpt lat="44.5927482" lon="5.0505408"><ele>430.0</ele><time>2026-04-18T14:06:33.963Z</time></trkpt><trkpt lat="44.5926521" lon="5.050761"><ele>431.0</ele><time>2026-04-18T14:06:34.963Z</time></trkpt><trkpt lat="44.5925579" lon="5.0509796"><ele>431.0</ele><time>2026-04-18T14:06:35.963Z</time></trkpt><trkpt lat="44.5924689" lon="5.0511855"><ele>431.0</ele><time>2026-04-18T14:06:36.963Z</time></trkpt><trkpt lat="44.5923819" lon="5.0513789"><ele>431.0</ele><time>2026-04-18T14:06:37.963Z</time></trkpt><trkpt lat="44.5923011" lon="5.0515623"><ele>429.25</ele><time>2026-04-18T14:06:38.963Z</time></trkpt><trkpt lat="44.5922253" lon="5.051736"><ele>427.5</ele><time>2026-04-18T14:06:39.963Z</time></trkpt><trkpt lat="44.5921547" lon="5.0519009"><ele>425.75</ele><time>2026-04-18T14:06:40.963Z</time></trkpt><trkpt lat="44.5920896" lon="5.0520499"><ele>424.0</ele><time>2026-04-18T14:06:41.964Z</time></trkpt><trkpt lat="44.5920299" lon="5.0521819"><ele>424.33333333333337</ele><time>2026-04-18T14:06:42.964Z</time></trkpt><trkpt lat="44.5919751" lon="5.0523024"><ele>424.6666666666667</ele><time>2026-04-18T14:06:43.963Z</time></trkpt><trkpt lat="44.5919302" lon="5.0524047"><ele>425.0</ele><time>2026-04-18T14:06:44.963Z</time></trkpt><trkpt lat="44.591891" lon="5.0524925"><ele>425.33333333333337</ele><time>2026-04-18T14:06:45.964Z</time></trkpt><trkpt lat="44.5918411" lon="5.0526056"><ele>425.6666666666667</ele><time>2026-04-18T14:06:47.964Z</time></trkpt><trkpt lat="44.5918341" lon="5.0527045"><ele>426.0</ele><time>2026-04-18T14:06:49.963Z</time></trkpt><trkpt lat="44.5918781" lon="5.0528046"><ele>426.0</ele><time>2026-04-18T14:06:51.962Z</time></trkpt><trkpt lat="44.5919317" lon="5.0528534"><ele>426.0</ele><time>2026-04-18T14:06:52.964Z</time></trkpt><trkpt lat="44.5919845" lon="5.0529028"><ele>426.0</ele><time>2026-04-18T14:06:53.963Z</time></trkpt><trkpt lat="44.5920499" lon="5.0529611"><ele>426.0</ele><time>2026-04-18T14:06:54.964Z</time></trkpt><trkpt lat="44.5921255" lon="5.053023"><ele>426.0</ele><time>2026-04-18T14:06:55.963Z</time></trkpt><trkpt lat="44.5922102" lon="5.0530869"><ele>426.0</ele><time>2026-04-18T14:06:56.964Z</time></trkpt><trkpt lat="44.5922942" lon="5.0531466"><ele>425.8</ele><time>2026-04-18T14:06:57.964Z</time></trkpt><trkpt lat="44.5923878" lon="5.053202"><ele>425.6</ele><time>2026-04-18T14:06:58.963Z</time></trkpt><trkpt lat="44.5924892" lon="5.0532486"><ele>425.4</ele><time>2026-04-18T14:06:59.964Z</time></trkpt><trkpt lat="44.5925959" lon="5.0532903"><ele>425.2</ele><time>2026-04-18T14:07:00.964Z</time></trkpt><trkpt lat="44.5927045" lon="5.0533338"><ele>425.0</ele><time>2026-04-18T14:07:01.963Z</time></trkpt><trkpt lat="44.5928215" lon="5.0533741"><ele>426.75</ele><time>2026-04-18T14:07:02.964Z</time></trkpt><trkpt lat="44.5929462" lon="5.0534176"><ele>428.5</ele><time>2026-04-18T14:07:03.962Z</time></trkpt><trkpt lat="44.593075" lon="5.0534612"><ele>430.25</ele><time>2026-04-18T14:07:04.963Z</time></trkpt><trkpt lat="44.5932114" lon="5.0535072"><ele>432.0</ele><time>2026-04-18T14:07:05.963Z</time></trkpt><trkpt lat="44.5933507" lon="5.0535536"><ele>432.0</ele><time>2026-04-18T14:07:06.964Z</time></trkpt><trkpt lat="44.5934933" lon="5.0536016"><ele>432.0</ele><time>2026-04-18T14:07:07.963Z</time></trkpt><trkpt lat="44.5936371" lon="5.0536514"><ele>432.0</ele><time>2026-04-18T14:07:08.964Z</time></trkpt><trkpt lat="44.5937814" lon="5.0537004"><ele>432.0</ele><time>2026-04-18T14:07:09.963Z</time></trkpt><trkpt lat="44.593924" lon="5.0537472"><ele>432.75</ele><time>2026-04-18T14:07:10.964Z</time></trkpt><trkpt lat="44.5940585" lon="5.0537877"><ele>433.5</ele><time>2026-04-18T14:07:11.962Z</time></trkpt><trkpt lat="44.5941832" lon="5.0538099"><ele>434.25</ele><time>2026-04-18T14:07:12.964Z</time></trkpt><trkpt lat="44.5943077" lon="5.0538145"><ele>435.0</ele><time>2026-04-18T14:07:13.964Z</time></trkpt><trkpt lat="44.5944342" lon="5.0538275"><ele>438.75</ele><time>2026-04-18T14:07:14.963Z</time></trkpt><trkpt lat="44.5945496" lon="5.0537122"><ele>442.5</ele><time>2026-04-18T14:07:15.963Z</time></trkpt><trkpt lat="44.5946635" lon="5.0536225"><ele>446.25</ele><time>2026-04-18T14:07:16.963Z</time></trkpt><trkpt lat="44.5947687" lon="5.0535049"><ele>450.0</ele><time>2026-04-18T14:07:17.964Z</time></trkpt><trkpt lat="44.5948744" lon="5.0533702"><ele>450.25</ele><time>2026-04-18T14:07:18.964Z</time></trkpt><trkpt lat="44.5949871" lon="5.0532362"><ele>450.5</ele><time>2026-04-18T14:07:19.964Z</time></trkpt><trkpt lat="44.5951021" lon="5.0531313"><ele>450.75</ele><time>2026-04-18T14:07:20.963Z</time></trkpt><trkpt lat="44.5952305" lon="5.0530617"><ele>451.0</ele><time>2026-04-18T14:07:21.963Z</time></trkpt><trkpt lat="44.5953625" lon="5.0530051"><ele>451.0</ele><time>2026-04-18T14:07:22.964Z</time></trkpt><trkpt lat="44.5954854" lon="5.0529453"><ele>451.0</ele><time>2026-04-18T14:07:23.962Z</time></trkpt><trkpt lat="44.5955926" lon="5.052852"><ele>451.0</ele><time>2026-04-18T14:07:24.964Z</time></trkpt><trkpt lat="44.5956895" lon="5.0527264"><ele>451.0</ele><time>2026-04-18T14:07:25.963Z</time></trkpt><trkpt lat="44.5957785" lon="5.0525888"><ele>448.8</ele><time>2026-04-18T14:07:26.964Z</time></trkpt><trkpt lat="44.5958532" lon="5.0524546"><ele>446.6</ele><time>2026-04-18T14:07:27.963Z</time></trkpt><trkpt lat="44.5959055" lon="5.0523371"><ele>444.4</ele><time>2026-04-18T14:07:28.963Z</time></trkpt><trkpt lat="44.5959383" lon="5.0522307"><ele>442.2</ele><time>2026-04-18T14:07:29.964Z</time></trkpt><trkpt lat="44.5959769" lon="5.0521488"><ele>440.0</ele><time>2026-04-18T14:07:30.962Z</time></trkpt><trkpt lat="44.5960887" lon="5.0521554"><ele>440.0</ele><time>2026-04-18T14:07:32.963Z</time></trkpt><trkpt lat="44.5960923" lon="5.0522459"><ele>440.0</ele><time>2026-04-18T14:07:33.964Z</time></trkpt><trkpt lat="44.5960642" lon="5.0523538"><ele>440.0</ele><time>2026-04-18T14:07:34.964Z</time></trkpt><trkpt lat="44.596024" lon="5.0524932"><ele>440.0</ele><time>2026-04-18T14:07:35.963Z</time></trkpt><trkpt lat="44.5959701" lon="5.0526645"><ele>440.0</ele><time>2026-04-18T14:07:36.963Z</time></trkpt><trkpt lat="44.5959257" lon="5.0528386"><ele>442.75</ele><time>2026-04-18T14:07:37.964Z</time></trkpt><trkpt lat="44.5958718" lon="5.0530228"><ele>445.5</ele><time>2026-04-18T14:07:38.963Z</time></trkpt><trkpt lat="44.5957991" lon="5.0531923"><ele>448.25</ele><time>2026-04-18T14:07:39.963Z</time></trkpt><trkpt lat="44.5957113" lon="5.0533459"><ele>451.0</ele><time>2026-04-18T14:07:40.964Z</time></trkpt><trkpt lat="44.5956017" lon="5.0534581"><ele>450.75</ele><time>2026-04-18T14:07:41.964Z</time></trkpt><trkpt lat="44.5954771" lon="5.0535565"><ele>450.5</ele><time>2026-04-18T14:07:42.964Z</time></trkpt><trkpt lat="44.5953537" lon="5.0536659"><ele>450.25</ele><time>2026-04-18T14:07:43.963Z</time></trkpt><trkpt lat="44.5952387" lon="5.0537987"><ele>450.0</ele><time>2026-04-18T14:07:44.963Z</time></trkpt><trkpt lat="44.5951285" lon="5.0539445"><ele>450.0</ele><time>2026-04-18T14:07:45.964Z</time></trkpt><trkpt lat="44.5950141" lon="5.0540854"><ele>450.0</ele><time>2026-04-18T14:07:46.963Z</time></trkpt><trkpt lat="44.5949018" lon="5.0542332"><ele>450.0</ele><time>2026-04-18T14:07:47.964Z</time></trkpt><trkpt lat="44.5947732" lon="5.054341"><ele>451.0</ele><time>2026-04-18T14:07:48.962Z</time></trkpt><trkpt lat="44.5946649" lon="5.0544977"><ele>452.0</ele><time>2026-04-18T14:07:49.963Z</time></trkpt><trkpt lat="44.5945625" lon="5.0546642"><ele>453.0</ele><time>2026-04-18T14:07:50.964Z</time></trkpt><trkpt lat="44.5944634" lon="5.0548382"><ele>457.5</ele><time>2026-04-18T14:07:51.964Z</time></trkpt><trkpt lat="44.594381" lon="5.0550037"><ele>462.0</ele><time>2026-04-18T14:07:52.963Z</time></trkpt><trkpt lat="44.5943076" lon="5.0551639"><ele>466.5</ele><time>2026-04-18T14:07:53.962Z</time></trkpt><trkpt lat="44.594254" lon="5.055321"><ele>471.0</ele><time>2026-04-18T14:07:54.964Z</time></trkpt><trkpt lat="44.5942143" lon="5.0554848"><ele>471.0</ele><time>2026-04-18T14:07:55.963Z</time></trkpt><trkpt lat="44.5941914" lon="5.0556532"><ele>471.0</ele><time>2026-04-18T14:07:56.964Z</time></trkpt><trkpt lat="44.5941989" lon="5.0558043"><ele>471.0</ele><time>2026-04-18T14:07:57.964Z</time></trkpt><trkpt lat="44.5942353" lon="5.0559366"><ele>471.0</ele><time>2026-04-18T14:07:58.964Z</time></trkpt><trkpt lat="44.5942994" lon="5.0560526"><ele>471.0</ele><time>2026-04-18T14:07:59.963Z</time></trkpt><trkpt lat="44.5943856" lon="5.0561559"><ele>472.0</ele><time>2026-04-18T14:08:00.963Z</time></trkpt><trkpt lat="44.5944706" lon="5.056271"><ele>473.0</ele><time>2026-04-18T14:08:01.964Z</time></trkpt><trkpt lat="44.5945405" lon="5.0564079"><ele>474.0</ele><time>2026-04-18T14:08:02.963Z</time></trkpt><trkpt lat="44.5945758" lon="5.0565535"><ele>475.0</ele><time>2026-04-18T14:08:03.962Z</time></trkpt><trkpt lat="44.5945968" lon="5.0567156"><ele>483.25</ele><time>2026-04-18T14:08:04.963Z</time></trkpt><trkpt lat="44.5946066" lon="5.0568976"><ele>491.5</ele><time>2026-04-18T14:08:05.963Z</time></trkpt><trkpt lat="44.5946049" lon="5.0570849"><ele>499.75</ele><time>2026-04-18T14:08:06.964Z</time></trkpt><trkpt lat="44.5945828" lon="5.0572691"><ele>508.0</ele><time>2026-04-18T14:08:07.963Z</time></trkpt><trkpt lat="44.5945312" lon="5.057455"><ele>502.5</ele><time>2026-04-18T14:08:08.963Z</time></trkpt><trkpt lat="44.5944575" lon="5.0576452"><ele>497.0</ele><time>2026-04-18T14:08:09.964Z</time></trkpt><trkpt lat="44.5943895" lon="5.0578234"><ele>491.5</ele><time>2026-04-18T14:08:10.964Z</time></trkpt><trkpt lat="44.5943305" lon="5.0579946"><ele>486.0</ele><time>2026-04-18T14:08:11.963Z</time></trkpt><trkpt lat="44.5942703" lon="5.0581685"><ele>489.0</ele><time>2026-04-18T14:08:12.964Z</time></trkpt><trkpt lat="44.5942067" lon="5.0583424"><ele>492.0</ele><time>2026-04-18T14:08:13.964Z</time></trkpt><trkpt lat="44.5941386" lon="5.0585173"><ele>495.0</ele><time>2026-04-18T14:08:14.964Z</time></trkpt><trkpt lat="44.5940774" lon="5.0586968"><ele>498.0</ele><time>2026-04-18T14:08:15.963Z</time></trkpt><trkpt lat="44.5940311" lon="5.0588838"><ele>498.0</ele><time>2026-04-18T14:08:16.963Z</time></trkpt><trkpt lat="44.5939808" lon="5.0590776"><ele>498.0</ele><time>2026-04-18T14:08:17.964Z</time></trkpt><trkpt lat="44.5939503" lon="5.0593008"><ele>498.0</ele><time>2026-04-18T14:08:18.963Z</time></trkpt><trkpt lat="44.5938999" lon="5.0595111"><ele>502.0</ele><time>2026-04-18T14:08:19.964Z</time></trkpt><trkpt lat="44.5938477" lon="5.0597079"><ele>506.0</ele><time>2026-04-18T14:08:20.964Z</time></trkpt><trkpt lat="44.5938072" lon="5.0598824"><ele>510.0</ele><time>2026-04-18T14:08:21.963Z</time></trkpt><trkpt lat="44.593781" lon="5.0600613"><ele>514.0</ele><time>2026-04-18T14:08:22.963Z</time></trkpt><trkpt lat="44.5937565" lon="5.060209"><ele>516.6</ele><time>2026-04-18T14:08:23.963Z</time></trkpt><trkpt lat="44.593741" lon="5.0603285"><ele>519.2</ele><time>2026-04-18T14:08:24.963Z</time></trkpt><trkpt lat="44.5937383" lon="5.0604302"><ele>521.8000000000001</ele><time>2026-04-18T14:08:25.964Z</time></trkpt><trkpt lat="44.5938242" lon="5.0604841"><ele>524.4</ele><time>2026-04-18T14:08:27.964Z</time></trkpt><trkpt lat="44.5938964" lon="5.0603241"><ele>527.0</ele><time>2026-04-18T14:08:29.964Z</time></trkpt><trkpt lat="44.5939216" lon="5.0601883"><ele>527.0</ele><time>2026-04-18T14:08:30.964Z</time></trkpt><trkpt lat="44.5939545" lon="5.0600461"><ele>527.0</ele><time>2026-04-18T14:08:31.964Z</time></trkpt><trkpt lat="44.5940151" lon="5.0599008"><ele>527.0</ele><time>2026-04-18T14:08:32.964Z</time></trkpt><trkpt lat="44.594098" lon="5.0597588"><ele>527.0</ele><time>2026-04-18T14:08:33.964Z</time></trkpt><trkpt lat="44.5942001" lon="5.0596044"><ele>522.6666666666666</ele><time>2026-04-18T14:08:34.964Z</time></trkpt><trkpt lat="44.5943003" lon="5.0594498"><ele>518.3333333333334</ele><time>2026-04-18T14:08:35.962Z</time></trkpt><trkpt lat="44.5944111" lon="5.0592823"><ele>514.0</ele><time>2026-04-18T14:08:36.963Z</time></trkpt><trkpt lat="44.5945055" lon="5.0591248"><ele>517.2</ele><time>2026-04-18T14:08:37.963Z</time></trkpt><trkpt lat="44.5945817" lon="5.0589759"><ele>520.4</ele><time>2026-04-18T14:08:38.964Z</time></trkpt><trkpt lat="44.5946437" lon="5.0588359"><ele>523.6</ele><time>2026-04-18T14:08:39.963Z</time></trkpt><trkpt lat="44.5946913" lon="5.058717"><ele>526.8</ele><time>2026-04-18T14:08:40.963Z</time></trkpt><trkpt lat="44.5947298" lon="5.0586238"><ele>530.0</ele><time>2026-04-18T14:08:41.962Z</time></trkpt><trkpt lat="44.5948346" lon="5.0585719"><ele>530.0</ele><time>2026-04-18T14:08:43.963Z</time></trkpt><trkpt lat="44.5948438" lon="5.0587128"><ele>530.0</ele><time>2026-04-18T14:08:45.962Z</time></trkpt><trkpt lat="44.594793" lon="5.0588085"><ele>530.0</ele><time>2026-04-18T14:08:46.963Z</time></trkpt><trkpt lat="44.5947343" lon="5.0589213"><ele>530.0</ele><time>2026-04-18T14:08:47.964Z</time></trkpt><trkpt lat="44.5946709" lon="5.0590964"><ele>530.0</ele><time>2026-04-18T14:08:48.964Z</time></trkpt><trkpt lat="44.5946146" lon="5.0592739"><ele>524.6666666666666</ele><time>2026-04-18T14:08:49.962Z</time></trkpt><trkpt lat="44.5945513" lon="5.0594805"><ele>519.3333333333334</ele><time>2026-04-18T14:08:50.963Z</time></trkpt><trkpt lat="44.5944908" lon="5.0596801"><ele>514.0</ele><time>2026-04-18T14:08:51.964Z</time></trkpt><trkpt lat="44.5944376" lon="5.0598571"><ele>517.25</ele><time>2026-04-18T14:08:52.964Z</time></trkpt><trkpt lat="44.5943925" lon="5.060023"><ele>520.5</ele><time>2026-04-18T14:08:53.963Z</time></trkpt><trkpt lat="44.594366" lon="5.060202"><ele>523.75</ele><time>2026-04-18T14:08:54.963Z</time></trkpt><trkpt lat="44.5943437" lon="5.0603973"><ele>527.0</ele><time>2026-04-18T14:08:55.963Z</time></trkpt><trkpt lat="44.5943429" lon="5.0605854"><ele>527.0</ele><time>2026-04-18T14:08:56.964Z</time></trkpt><trkpt lat="44.5943407" lon="5.060765"><ele>527.0</ele><time>2026-04-18T14:08:57.963Z</time></trkpt><trkpt lat="44.5943477" lon="5.0609266"><ele>527.0</ele><time>2026-04-18T14:08:58.964Z</time></trkpt><trkpt lat="44.5943526" lon="5.0610827"><ele>527.0</ele><time>2026-04-18T14:08:59.964Z</time></trkpt><trkpt lat="44.5944161" lon="5.0611852"><ele>528.3333333333333</ele><time>2026-04-18T14:09:00.964Z</time></trkpt><trkpt lat="44.5944594" lon="5.0612832"><ele>529.6666666666666</ele><time>2026-04-18T14:09:01.963Z</time></trkpt><trkpt lat="44.5945023" lon="5.0613574"><ele>531.0</ele><time>2026-04-18T14:09:02.963Z</time></trkpt><trkpt lat="44.5945504" lon="5.0614352"><ele>532.3333333333334</ele><time>2026-04-18T14:09:03.964Z</time></trkpt><trkpt lat="44.594597" lon="5.0615249"><ele>533.6666666666667</ele><time>2026-04-18T14:09:04.963Z</time></trkpt><trkpt lat="44.5946547" lon="5.0616065"><ele>535.0</ele><time>2026-04-18T14:09:05.963Z</time></trkpt><trkpt lat="44.59473" lon="5.061697"><ele>541.25</ele><time>2026-04-18T14:09:06.963Z</time></trkpt><trkpt lat="44.5948176" lon="5.0618038"><ele>547.5</ele><time>2026-04-18T14:09:07.964Z</time></trkpt><trkpt lat="44.5949099" lon="5.0619362"><ele>553.75</ele><time>2026-04-18T14:09:08.962Z</time></trkpt><trkpt lat="44.5950085" lon="5.0620862"><ele>560.0</ele><time>2026-04-18T14:09:09.964Z</time></trkpt><trkpt lat="44.5951115" lon="5.062247"><ele>560.0</ele><time>2026-04-18T14:09:10.964Z</time></trkpt><trkpt lat="44.5952129" lon="5.062404"><ele>560.0</ele><time>2026-04-18T14:09:11.962Z</time></trkpt><trkpt lat="44.5953054" lon="5.0625506"><ele>560.0</ele><time>2026-04-18T14:09:12.964Z</time></trkpt><trkpt lat="44.5953856" lon="5.0626828"><ele>560.0</ele><time>2026-04-18T14:09:13.963Z</time></trkpt><trkpt lat="44.5954584" lon="5.0628018"><ele>560.2</ele><time>2026-04-18T14:09:14.964Z</time></trkpt><trkpt lat="44.5955408" lon="5.0628869"><ele>560.4</ele><time>2026-04-18T14:09:15.964Z</time></trkpt><trkpt lat="44.5956179" lon="5.0629351"><ele>560.6</ele><time>2026-04-18T14:09:16.964Z</time></trkpt><trkpt lat="44.5957145" lon="5.0629634"><ele>560.8</ele><time>2026-04-18T14:09:17.964Z</time></trkpt><trkpt lat="44.5957947" lon="5.0629727"><ele>561.0</ele><time>2026-04-18T14:09:18.963Z</time></trkpt><trkpt lat="44.5958852" lon="5.0628238"><ele>561.0</ele><time>2026-04-18T14:09:19.964Z</time></trkpt><trkpt lat="44.5959913" lon="5.0627671"><ele>561.0</ele><time>2026-04-18T14:09:20.964Z</time></trkpt><trkpt lat="44.5961114" lon="5.0627064"><ele>561.0</ele><time>2026-04-18T14:09:21.964Z</time></trkpt><trkpt lat="44.596245" lon="5.0626522"><ele>561.0</ele><time>2026-04-18T14:09:22.964Z</time></trkpt><trkpt lat="44.5963773" lon="5.0626132"><ele>561.3333333333334</ele><time>2026-04-18T14:09:23.964Z</time></trkpt><trkpt lat="44.5965212" lon="5.0625913"><ele>561.6666666666667</ele><time>2026-04-18T14:09:24.962Z</time></trkpt><trkpt lat="44.5966771" lon="5.0625819"><ele>562.0</ele><time>2026-04-18T14:09:25.963Z</time></trkpt><trkpt lat="44.5968453" lon="5.0625659"><ele>564.6666666666667</ele><time>2026-04-18T14:09:26.963Z</time></trkpt><trkpt lat="44.5970235" lon="5.0625501"><ele>567.3333333333334</ele><time>2026-04-18T14:09:27.963Z</time></trkpt><trkpt lat="44.5972095" lon="5.0625416"><ele>570.0</ele><time>2026-04-18T14:09:28.963Z</time></trkpt><trkpt lat="44.5973794" lon="5.0625369"><ele>570.0</ele><time>2026-04-18T14:09:29.963Z</time></trkpt><trkpt lat="44.5975398" lon="5.0625365"><ele>570.0</ele><time>2026-04-18T14:09:30.964Z</time></trkpt><trkpt lat="44.5976971" lon="5.0625505"><ele>570.0</ele><time>2026-04-18T14:09:31.963Z</time></trkpt><trkpt lat="44.5978472" lon="5.0625711"><ele>575.0</ele><time>2026-04-18T14:09:32.964Z</time></trkpt><trkpt lat="44.5979908" lon="5.0626111"><ele>580.0</ele><time>2026-04-18T14:09:33.963Z</time></trkpt><trkpt lat="44.5981301" lon="5.0626727"><ele>585.0</ele><time>2026-04-18T14:09:34.964Z</time></trkpt><trkpt lat="44.5982644" lon="5.0627557"><ele>590.0</ele><time>2026-04-18T14:09:35.964Z</time></trkpt><trkpt lat="44.5983942" lon="5.062854"><ele>590.0</ele><time>2026-04-18T14:09:36.964Z</time></trkpt><trkpt lat="44.5985111" lon="5.0629653"><ele>590.0</ele><time>2026-04-18T14:09:37.963Z</time></trkpt><trkpt lat="44.5986373" lon="5.0630758"><ele>590.0</ele><time>2026-04-18T14:09:38.964Z</time></trkpt><trkpt lat="44.5987597" lon="5.0631948"><ele>590.0</ele><time>2026-04-18T14:09:39.963Z</time></trkpt><trkpt lat="44.5988839" lon="5.0633273"><ele>591.0</ele><time>2026-04-18T14:09:40.963Z</time></trkpt><trkpt lat="44.5990084" lon="5.0634808"><ele>592.0</ele><time>2026-04-18T14:09:41.964Z</time></trkpt><trkpt lat="44.5991347" lon="5.0636603"><ele>593.0</ele><time>2026-04-18T14:09:42.963Z</time></trkpt><trkpt lat="44.5992569" lon="5.0638638"><ele>593.0</ele><time>2026-04-18T14:09:43.963Z</time></trkpt><trkpt lat="44.5993762" lon="5.0640861"><ele>593.0</ele><time>2026-04-18T14:09:44.963Z</time></trkpt><trkpt lat="44.5994765" lon="5.0642886"><ele>593.0</ele><time>2026-04-18T14:09:45.962Z</time></trkpt><trkpt lat="44.5995516" lon="5.0644882"><ele>595.0</ele><time>2026-04-18T14:09:46.964Z</time></trkpt><trkpt lat="44.5996275" lon="5.0646736"><ele>597.0</ele><time>2026-04-18T14:09:47.964Z</time></trkpt><trkpt lat="44.5996267" lon="5.0649116"><ele>599.0</ele><time>2026-04-18T14:09:48.964Z</time></trkpt><trkpt lat="44.5996503" lon="5.0651224"><ele>600.0</ele><time>2026-04-18T14:09:49.964Z</time></trkpt><trkpt lat="44.5996573" lon="5.0653445"><ele>601.0</ele><time>2026-04-18T14:09:50.964Z</time></trkpt><trkpt lat="44.5996532" lon="5.0655718"><ele>602.0</ele><time>2026-04-18T14:09:51.962Z</time></trkpt><trkpt lat="44.5996233" lon="5.065799"><ele>604.3333333333333</ele><time>2026-04-18T14:09:52.964Z</time></trkpt><trkpt lat="44.5995844" lon="5.0660338"><ele>606.6666666666666</ele><time>2026-04-18T14:09:53.963Z</time></trkpt><trkpt lat="44.5995369" lon="5.0662463"><ele>609.0</ele><time>2026-04-18T14:09:54.963Z</time></trkpt><trkpt lat="44.599482" lon="5.06645"><ele>604.5</ele><time>2026-04-18T14:09:55.964Z</time></trkpt><trkpt lat="44.5994338" lon="5.0666414"><ele>600.0</ele><time>2026-04-18T14:09:56.963Z</time></trkpt><trkpt lat="44.5993908" lon="5.0668352"><ele>595.5</ele><time>2026-04-18T14:09:57.964Z</time></trkpt><trkpt lat="44.5993535" lon="5.0670415"><ele>591.0</ele><time>2026-04-18T14:09:58.963Z</time></trkpt><trkpt lat="44.5993702" lon="5.0672913"><ele>593.3333333333334</ele><time>2026-04-18T14:09:59.964Z</time></trkpt><trkpt lat="44.5993556" lon="5.0675259"><ele>595.6666666666667</ele><time>2026-04-18T14:10:00.962Z</time></trkpt><trkpt lat="44.5993442" lon="5.0677558"><ele>598.0</ele><time>2026-04-18T14:10:01.964Z</time></trkpt><trkpt lat="44.5993354" lon="5.067982"><ele>598.0</ele><time>2026-04-18T14:10:02.964Z</time></trkpt><trkpt lat="44.599313" lon="5.0681867"><ele>598.0</ele><time>2026-04-18T14:10:03.964Z</time></trkpt><trkpt lat="44.5993023" lon="5.0683742"><ele>598.0</ele><time>2026-04-18T14:10:04.964Z</time></trkpt><trkpt lat="44.599288" lon="5.0685391"><ele>598.0</ele><time>2026-04-18T14:10:05.962Z</time></trkpt><trkpt lat="44.5992964" lon="5.0686918"><ele>599.5</ele><time>2026-04-18T14:10:06.962Z</time></trkpt><trkpt lat="44.5993517" lon="5.0688291"><ele>601.0</ele><time>2026-04-18T14:10:07.963Z</time></trkpt><trkpt lat="44.5994251" lon="5.068941"><ele>602.5</ele><time>2026-04-18T14:10:08.964Z</time></trkpt><trkpt lat="44.5995043" lon="5.0690432"><ele>604.0</ele><time>2026-04-18T14:10:09.963Z</time></trkpt><trkpt lat="44.5996227" lon="5.0691381"><ele>606.75</ele><time>2026-04-18T14:10:10.963Z</time></trkpt><trkpt lat="44.5997367" lon="5.069242"><ele>609.5</ele><time>2026-04-18T14:10:11.963Z</time></trkpt><trkpt lat="44.5998638" lon="5.0693537"><ele>612.25</ele><time>2026-04-18T14:10:12.964Z</time></trkpt><trkpt lat="44.5999993" lon="5.0694696"><ele>615.0</ele><time>2026-04-18T14:10:13.964Z</time></trkpt><trkpt lat="44.6001382" lon="5.0695851"><ele>615.0</ele><time>2026-04-18T14:10:14.963Z</time></trkpt><trkpt lat="44.6002769" lon="5.0697091"><ele>615.0</ele><time>2026-04-18T14:10:15.963Z</time></trkpt><trkpt lat="44.6004074" lon="5.0698243"><ele>615.0</ele><time>2026-04-18T14:10:16.964Z</time></trkpt><trkpt lat="44.600532" lon="5.0699289"><ele>613.5</ele><time>2026-04-18T14:10:17.963Z</time></trkpt><trkpt lat="44.6006499" lon="5.0700147"><ele>612.0</ele><time>2026-04-18T14:10:18.963Z</time></trkpt><trkpt lat="44.6007646" lon="5.0701019"><ele>610.5</ele><time>2026-04-18T14:10:19.963Z</time></trkpt><trkpt lat="44.6008787" lon="5.0701871"><ele>609.0</ele><time>2026-04-18T14:10:20.964Z</time></trkpt><trkpt lat="44.6009837" lon="5.0702863"><ele>609.0</ele><time>2026-04-18T14:10:21.963Z</time></trkpt><trkpt lat="44.6010748" lon="5.0704135"><ele>609.0</ele><time>2026-04-18T14:10:22.962Z</time></trkpt><trkpt lat="44.6011452" lon="5.07057"><ele>609.0</ele><time>2026-04-18T14:10:23.964Z</time></trkpt><trkpt lat="44.6012105" lon="5.0707468"><ele>609.0</ele><time>2026-04-18T14:10:24.963Z</time></trkpt><trkpt lat="44.6012622" lon="5.0709325"><ele>608.0</ele><time>2026-04-18T14:10:25.963Z</time></trkpt><trkpt lat="44.6013003" lon="5.0711198"><ele>607.0</ele><time>2026-04-18T14:10:26.964Z</time></trkpt><trkpt lat="44.6013114" lon="5.0713041"><ele>606.0</ele><time>2026-04-18T14:10:27.964Z</time></trkpt><trkpt lat="44.6012946" lon="5.0714964"><ele>605.0</ele><time>2026-04-18T14:10:28.964Z</time></trkpt><trkpt lat="44.6012609" lon="5.0716897"><ele>605.0</ele><time>2026-04-18T14:10:29.963Z</time></trkpt><trkpt lat="44.6012241" lon="5.0718888"><ele>605.0</ele><time>2026-04-18T14:10:30.962Z</time></trkpt><trkpt lat="44.6011944" lon="5.0720993"><ele>605.0</ele><time>2026-04-18T14:10:31.964Z</time></trkpt><trkpt lat="44.6011891" lon="5.072315"><ele>607.3333333333333</ele><time>2026-04-18T14:10:32.964Z</time></trkpt><trkpt lat="44.6012027" lon="5.0725283"><ele>609.6666666666666</ele><time>2026-04-18T14:10:33.964Z</time></trkpt><trkpt lat="44.6012295" lon="5.072741"><ele>612.0</ele><time>2026-04-18T14:10:34.964Z</time></trkpt><trkpt lat="44.601258" lon="5.0729575"><ele>612.0</ele><time>2026-04-18T14:10:35.963Z</time></trkpt><trkpt lat="44.6012864" lon="5.0731697"><ele>612.0</ele><time>2026-04-18T14:10:36.964Z</time></trkpt><trkpt lat="44.6013125" lon="5.0733829"><ele>612.0</ele><time>2026-04-18T14:10:37.964Z</time></trkpt><trkpt lat="44.6013346" lon="5.073586"><ele>614.25</ele><time>2026-04-18T14:10:38.962Z</time></trkpt><trkpt lat="44.6013424" lon="5.0737718"><ele>616.5</ele><time>2026-04-18T14:10:39.964Z</time></trkpt><trkpt lat="44.6013323" lon="5.0739492"><ele>618.75</ele><time>2026-04-18T14:10:40.963Z</time></trkpt><trkpt lat="44.6013176" lon="5.0741198"><ele>621.0</ele><time>2026-04-18T14:10:41.962Z</time></trkpt><trkpt lat="44.6012957" lon="5.0742831"><ele>622.4</ele><time>2026-04-18T14:10:42.964Z</time></trkpt><trkpt lat="44.601271" lon="5.0744295"><ele>623.8</ele><time>2026-04-18T14:10:43.964Z</time></trkpt><trkpt lat="44.6012439" lon="5.0745724"><ele>625.1999999999999</ele><time>2026-04-18T14:10:44.963Z</time></trkpt><trkpt lat="44.6012128" lon="5.0747088"><ele>626.6</ele><time>2026-04-18T14:10:45.964Z</time></trkpt><trkpt lat="44.6011739" lon="5.0748368"><ele>628.0</ele><time>2026-04-18T14:10:46.964Z</time></trkpt><trkpt lat="44.6011237" lon="5.074961"><ele>628.0</ele><time>2026-04-18T14:10:47.964Z</time></trkpt><trkpt lat="44.6010562" lon="5.0750768"><ele>628.0</ele><time>2026-04-18T14:10:48.964Z</time></trkpt><trkpt lat="44.6009776" lon="5.0751907"><ele>628.0</ele><time>2026-04-18T14:10:49.964Z</time></trkpt><trkpt lat="44.6008978" lon="5.0753046"><ele>628.0</ele><time>2026-04-18T14:10:50.963Z</time></trkpt><trkpt lat="44.6007991" lon="5.0754135"><ele>628.0</ele><time>2026-04-18T14:10:51.964Z</time></trkpt><trkpt lat="44.6007037" lon="5.0755303"><ele>628.0</ele><time>2026-04-18T14:10:52.962Z</time></trkpt><trkpt lat="44.6006062" lon="5.0756439"><ele>628.0</ele><time>2026-04-18T14:10:53.963Z</time></trkpt><trkpt lat="44.6005055" lon="5.0757602"><ele>628.0</ele><time>2026-04-18T14:10:54.963Z</time></trkpt><trkpt lat="44.6004036" lon="5.07588"><ele>630.0</ele><time>2026-04-18T14:10:55.963Z</time></trkpt><trkpt lat="44.6002985" lon="5.0759986"><ele>632.0</ele><time>2026-04-18T14:10:56.963Z</time></trkpt><trkpt lat="44.6001881" lon="5.0761049"><ele>634.0</ele><time>2026-04-18T14:10:57.963Z</time></trkpt><trkpt lat="44.6000885" lon="5.0762077"><ele>636.0</ele><time>2026-04-18T14:10:58.962Z</time></trkpt><trkpt lat="44.5999992" lon="5.0762984"><ele>636.0</ele><time>2026-04-18T14:10:59.964Z</time></trkpt><trkpt lat="44.5999098" lon="5.0763893"><ele>636.0</ele><time>2026-04-18T14:11:00.963Z</time></trkpt><trkpt lat="44.5998197" lon="5.0764787"><ele>636.0</ele><time>2026-04-18T14:11:01.964Z</time></trkpt><trkpt lat="44.5997305" lon="5.0765682"><ele>636.0</ele><time>2026-04-18T14:11:02.963Z</time></trkpt><trkpt lat="44.5996407" lon="5.0766638"><ele>636.0</ele><time>2026-04-18T14:11:03.964Z</time></trkpt><trkpt lat="44.5995543" lon="5.0767711"><ele>639.0</ele><time>2026-04-18T14:11:04.964Z</time></trkpt><trkpt lat="44.5994767" lon="5.0768898"><ele>642.0</ele><time>2026-04-18T14:11:05.964Z</time></trkpt><trkpt lat="44.5994112" lon="5.0770046"><ele>645.0</ele><time>2026-04-18T14:11:06.963Z</time></trkpt><trkpt lat="44.5993618" lon="5.0771197"><ele>648.0</ele><time>2026-04-18T14:11:07.963Z</time></trkpt><trkpt lat="44.5993359" lon="5.0772585"><ele>651.0</ele><time>2026-04-18T14:11:08.963Z</time></trkpt><trkpt lat="44.5993204" lon="5.0774229"><ele>651.25</ele><time>2026-04-18T14:11:09.964Z</time></trkpt><trkpt lat="44.5993112" lon="5.0776025"><ele>651.5</ele><time>2026-04-18T14:11:10.963Z</time></trkpt><trkpt lat="44.5993207" lon="5.0777855"><ele>651.75</ele><time>2026-04-18T14:11:11.962Z</time></trkpt><trkpt lat="44.5993511" lon="5.077971"><ele>652.0</ele><time>2026-04-18T14:11:12.963Z</time></trkpt><trkpt lat="44.599382" lon="5.0781601"><ele>653.25</ele><time>2026-04-18T14:11:13.964Z</time></trkpt><trkpt lat="44.5994001" lon="5.0783449"><ele>654.5</ele><time>2026-04-18T14:11:14.964Z</time></trkpt><trkpt lat="44.599404" lon="5.0785254"><ele>655.75</ele><time>2026-04-18T14:11:15.964Z</time></trkpt><trkpt lat="44.5994054" lon="5.0787022"><ele>657.0</ele><time>2026-04-18T14:11:16.963Z</time></trkpt><trkpt lat="44.5994173" lon="5.0788808"><ele>657.0</ele><time>2026-04-18T14:11:17.964Z</time></trkpt><trkpt lat="44.5994479" lon="5.0790569"><ele>657.0</ele><time>2026-04-18T14:11:18.964Z</time></trkpt><trkpt lat="44.5994976" lon="5.0792234"><ele>657.0</ele><time>2026-04-18T14:11:19.964Z</time></trkpt><trkpt lat="44.5995382" lon="5.0793971"><ele>657.0</ele><time>2026-04-18T14:11:20.962Z</time></trkpt><trkpt lat="44.5995638" lon="5.0795852"><ele>651.5</ele><time>2026-04-18T14:11:21.964Z</time></trkpt><trkpt lat="44.5995827" lon="5.0797794"><ele>646.0</ele><time>2026-04-18T14:11:22.962Z</time></trkpt><trkpt lat="44.5995921" lon="5.0799777"><ele>640.5</ele><time>2026-04-18T14:11:23.964Z</time></trkpt><trkpt lat="44.5995917" lon="5.0801979"><ele>635.0</ele><time>2026-04-18T14:11:24.964Z</time></trkpt><trkpt lat="44.5995917" lon="5.0804216"><ele>635.0</ele><time>2026-04-18T14:11:25.964Z</time></trkpt><trkpt lat="44.5995915" lon="5.0806522"><ele>635.0</ele><time>2026-04-18T14:11:26.963Z</time></trkpt><trkpt lat="44.5995939" lon="5.0808859"><ele>635.0</ele><time>2026-04-18T14:11:27.962Z</time></trkpt><trkpt lat="44.5995996" lon="5.0811101"><ele>635.25</ele><time>2026-04-18T14:11:28.961Z</time></trkpt><trkpt lat="44.5996042" lon="5.0813212"><ele>635.5</ele><time>2026-04-18T14:11:29.963Z</time></trkpt><trkpt lat="44.5996036" lon="5.0815178"><ele>635.75</ele><time>2026-04-18T14:11:30.962Z</time></trkpt><trkpt lat="44.5995958" lon="5.081695"><ele>636.0</ele><time>2026-04-18T14:11:31.961Z</time></trkpt><trkpt lat="44.5995733" lon="5.0818521"><ele>635.4</ele><time>2026-04-18T14:11:32.963Z</time></trkpt><trkpt lat="44.5995484" lon="5.0819896"><ele>634.8</ele><time>2026-04-18T14:11:33.963Z</time></trkpt><trkpt lat="44.599542" lon="5.0821203"><ele>634.1999999999999</ele><time>2026-04-18T14:11:34.962Z</time></trkpt><trkpt lat="44.5995661" lon="5.0822366"><ele>633.6</ele><time>2026-04-18T14:11:35.963Z</time></trkpt><trkpt lat="44.5996147" lon="5.082329"><ele>633.0</ele><time>2026-04-18T14:11:36.963Z</time></trkpt><trkpt lat="44.5996949" lon="5.0823957"><ele>633.1999999999999</ele><time>2026-04-18T14:11:37.962Z</time></trkpt><trkpt lat="44.5997886" lon="5.0824542"><ele>633.4</ele><time>2026-04-18T14:11:38.962Z</time></trkpt><trkpt lat="44.5998947" lon="5.0825076"><ele>633.5999999999999</ele><time>2026-04-18T14:11:39.962Z</time></trkpt><trkpt lat="44.5999854" lon="5.0825637"><ele>633.8</ele><time>2026-04-18T14:11:40.962Z</time></trkpt><trkpt lat="44.60007" lon="5.0826314"><ele>634.0</ele><time>2026-04-18T14:11:41.962Z</time></trkpt><trkpt lat="44.6001326" lon="5.0827362"><ele>634.0</ele><time>2026-04-18T14:11:42.961Z</time></trkpt><trkpt lat="44.6001623" lon="5.0828503"><ele>634.0</ele><time>2026-04-18T14:11:43.963Z</time></trkpt><trkpt lat="44.6001613" lon="5.0829851"><ele>634.0</ele><time>2026-04-18T14:11:44.962Z</time></trkpt><trkpt lat="44.6001387" lon="5.0831232"><ele>634.0</ele><time>2026-04-18T14:11:45.963Z</time></trkpt><trkpt lat="44.6001228" lon="5.0832812"><ele>634.0</ele><time>2026-04-18T14:11:46.963Z</time></trkpt><trkpt lat="44.6001288" lon="5.0834572"><ele>634.25</ele><time>2026-04-18T14:11:47.962Z</time></trkpt><trkpt lat="44.6001565" lon="5.0836398"><ele>634.5</ele><time>2026-04-18T14:11:48.962Z</time></trkpt><trkpt lat="44.6001942" lon="5.0838218"><ele>634.75</ele><time>2026-04-18T14:11:49.962Z</time></trkpt><trkpt lat="44.6002311" lon="5.0839982"><ele>635.0</ele><time>2026-04-18T14:11:50.963Z</time></trkpt><trkpt lat="44.6002647" lon="5.0841701"><ele>635.75</ele><time>2026-04-18T14:11:51.963Z</time></trkpt><trkpt lat="44.6003062" lon="5.08433"><ele>636.5</ele><time>2026-04-18T14:11:52.963Z</time></trkpt><trkpt lat="44.6003638" lon="5.08448"><ele>637.25</ele><time>2026-04-18T14:11:53.963Z</time></trkpt><trkpt lat="44.6004407" lon="5.0846245"><ele>638.0</ele><time>2026-04-18T14:11:54.963Z</time></trkpt><trkpt lat="44.6005324" lon="5.0847628"><ele>635.0</ele><time>2026-04-18T14:11:55.963Z</time></trkpt><trkpt lat="44.6006413" lon="5.0848923"><ele>632.0</ele><time>2026-04-18T14:11:56.962Z</time></trkpt><trkpt lat="44.6007625" lon="5.0850079"><ele>629.0</ele><time>2026-04-18T14:11:57.963Z</time></trkpt><trkpt lat="44.6008953" lon="5.0851054"><ele>626.0</ele><time>2026-04-18T14:11:58.962Z</time></trkpt><trkpt lat="44.6010316" lon="5.0851995"><ele>626.0</ele><time>2026-04-18T14:11:59.962Z</time></trkpt><trkpt lat="44.6011656" lon="5.0852764"><ele>626.0</ele><time>2026-04-18T14:12:00.963Z</time></trkpt><trkpt lat="44.6013012" lon="5.0853449"><ele>626.0</ele><time>2026-04-18T14:12:01.963Z</time></trkpt><trkpt lat="44.6014399" lon="5.0854039"><ele>626.0</ele><time>2026-04-18T14:12:02.962Z</time></trkpt><trkpt lat="44.6015786" lon="5.0854626"><ele>623.0</ele><time>2026-04-18T14:12:03.962Z</time></trkpt><trkpt lat="44.6017185" lon="5.0855124"><ele>620.0</ele><time>2026-04-18T14:12:04.961Z</time></trkpt><trkpt lat="44.601858" lon="5.0855647"><ele>617.0</ele><time>2026-04-18T14:12:05.963Z</time></trkpt><trkpt lat="44.6020049" lon="5.0856182"><ele>614.0</ele><time>2026-04-18T14:12:06.963Z</time></trkpt><trkpt lat="44.6021517" lon="5.0856739"><ele>614.25</ele><time>2026-04-18T14:12:07.961Z</time></trkpt><trkpt lat="44.6022946" lon="5.085727"><ele>614.5</ele><time>2026-04-18T14:12:08.962Z</time></trkpt><trkpt lat="44.6024252" lon="5.0857762"><ele>614.75</ele><time>2026-04-18T14:12:09.963Z</time></trkpt><trkpt lat="44.6025476" lon="5.0858275"><ele>615.0</ele><time>2026-04-18T14:12:10.962Z</time></trkpt><trkpt lat="44.6026604" lon="5.0859002"><ele>615.0</ele><time>2026-04-18T14:12:11.962Z</time></trkpt><trkpt lat="44.6027531" lon="5.085989"><ele>615.0</ele><time>2026-04-18T14:12:12.961Z</time></trkpt><trkpt lat="44.6028485" lon="5.0860731"><ele>615.0</ele><time>2026-04-18T14:12:13.962Z</time></trkpt><trkpt lat="44.602893" lon="5.086226"><ele>615.0</ele><time>2026-04-18T14:12:14.963Z</time></trkpt><trkpt lat="44.6029035" lon="5.0864195"><ele>612.25</ele><time>2026-04-18T14:12:15.962Z</time></trkpt><trkpt lat="44.6029257" lon="5.086608"><ele>609.5</ele><time>2026-04-18T14:12:16.962Z</time></trkpt><trkpt lat="44.6029497" lon="5.0867934"><ele>606.75</ele><time>2026-04-18T14:12:17.962Z</time></trkpt><trkpt lat="44.6029697" lon="5.0869825"><ele>604.0</ele><time>2026-04-18T14:12:18.962Z</time></trkpt><trkpt lat="44.6029875" lon="5.0871656"><ele>604.0</ele><time>2026-04-18T14:12:19.963Z</time></trkpt><trkpt lat="44.6029939" lon="5.0873567"><ele>604.0</ele><time>2026-04-18T14:12:20.962Z</time></trkpt><trkpt lat="44.6029824" lon="5.0875607"><ele>604.0</ele><time>2026-04-18T14:12:21.963Z</time></trkpt><trkpt lat="44.6029693" lon="5.0877701"><ele>604.0</ele><time>2026-04-18T14:12:22.963Z</time></trkpt><trkpt lat="44.602949" lon="5.0879763"><ele>603.25</ele><time>2026-04-18T14:12:23.962Z</time></trkpt><trkpt lat="44.6029383" lon="5.0881821"><ele>602.5</ele><time>2026-04-18T14:12:24.962Z</time></trkpt><trkpt lat="44.6029205" lon="5.0883776"><ele>601.75</ele><time>2026-04-18T14:12:25.963Z</time></trkpt><trkpt lat="44.6028942" lon="5.0885732"><ele>601.0</ele><time>2026-04-18T14:12:26.963Z</time></trkpt><trkpt lat="44.6028588" lon="5.0887614"><ele>602.5</ele><time>2026-04-18T14:12:27.963Z</time></trkpt><trkpt lat="44.6028264" lon="5.0889455"><ele>604.0</ele><time>2026-04-18T14:12:28.963Z</time></trkpt><trkpt lat="44.6027962" lon="5.0891223"><ele>605.5</ele><time>2026-04-18T14:12:29.963Z</time></trkpt><trkpt lat="44.6027609" lon="5.0893043"><ele>607.0</ele><time>2026-04-18T14:12:30.963Z</time></trkpt><trkpt lat="44.6027227" lon="5.0894982"><ele>607.0</ele><time>2026-04-18T14:12:31.962Z</time></trkpt><trkpt lat="44.6026898" lon="5.0896748"><ele>607.0</ele><time>2026-04-18T14:12:32.962Z</time></trkpt><trkpt lat="44.6026662" lon="5.0898528"><ele>607.0</ele><time>2026-04-18T14:12:33.962Z</time></trkpt><trkpt lat="44.6026513" lon="5.0900421"><ele>607.0</ele><time>2026-04-18T14:12:34.962Z</time></trkpt><trkpt lat="44.6026366" lon="5.0902344"><ele>605.25</ele><time>2026-04-18T14:12:35.961Z</time></trkpt><trkpt lat="44.6026255" lon="5.090432"><ele>603.5</ele><time>2026-04-18T14:12:36.962Z</time></trkpt><trkpt lat="44.6026306" lon="5.0906487"><ele>601.75</ele><time>2026-04-18T14:12:37.963Z</time></trkpt><trkpt lat="44.6026266" lon="5.0908631"><ele>600.0</ele><time>2026-04-18T14:12:38.963Z</time></trkpt><trkpt lat="44.6026266" lon="5.0910627"><ele>599.0</ele><time>2026-04-18T14:12:39.962Z</time></trkpt><trkpt lat="44.6026231" lon="5.0912593"><ele>598.0</ele><time>2026-04-18T14:12:40.962Z</time></trkpt><trkpt lat="44.6026238" lon="5.0914465"><ele>597.0</ele><time>2026-04-18T14:12:41.963Z</time></trkpt><trkpt lat="44.6026215" lon="5.0916181"><ele>596.0</ele><time>2026-04-18T14:12:42.963Z</time></trkpt><trkpt lat="44.6026152" lon="5.0917727"><ele>594.6</ele><time>2026-04-18T14:12:43.963Z</time></trkpt><trkpt lat="44.6026097" lon="5.0919146"><ele>593.2</ele><time>2026-04-18T14:12:44.962Z</time></trkpt><trkpt lat="44.6026028" lon="5.0920393"><ele>591.8</ele><time>2026-04-18T14:12:45.962Z</time></trkpt><trkpt lat="44.6025938" lon="5.092167"><ele>590.4</ele><time>2026-04-18T14:12:46.963Z</time></trkpt><trkpt lat="44.602576" lon="5.0923012"><ele>589.0</ele><time>2026-04-18T14:12:47.962Z</time></trkpt><trkpt lat="44.6025562" lon="5.0924451"><ele>588.6</ele><time>2026-04-18T14:12:48.961Z</time></trkpt><trkpt lat="44.6025439" lon="5.0925848"><ele>588.2</ele><time>2026-04-18T14:12:49.963Z</time></trkpt><trkpt lat="44.6025376" lon="5.0927217"><ele>587.8000000000001</ele><time>2026-04-18T14:12:50.962Z</time></trkpt><trkpt lat="44.602535" lon="5.0928489"><ele>587.4</ele><time>2026-04-18T14:12:51.962Z</time></trkpt><trkpt lat="44.6025655" lon="5.0929534"><ele>587.0</ele><time>2026-04-18T14:12:52.962Z</time></trkpt><trkpt lat="44.6025897" lon="5.0930793"><ele>587.0</ele><time>2026-04-18T14:12:53.961Z</time></trkpt><trkpt lat="44.6026359" lon="5.0931827"><ele>587.0</ele><time>2026-04-18T14:12:54.962Z</time></trkpt><trkpt lat="44.6027668" lon="5.0932133"><ele>587.0</ele><time>2026-04-18T14:12:55.963Z</time></trkpt><trkpt lat="44.6028471" lon="5.0933122"><ele>587.0</ele><time>2026-04-18T14:12:56.961Z</time></trkpt><trkpt lat="44.602902" lon="5.0934134"><ele>587.0</ele><time>2026-04-18T14:12:57.963Z</time></trkpt><trkpt lat="44.602961" lon="5.0935285"><ele>586.5</ele><time>2026-04-18T14:12:58.963Z</time></trkpt><trkpt lat="44.6030174" lon="5.0936454"><ele>586.0</ele><time>2026-04-18T14:12:59.963Z</time></trkpt><trkpt lat="44.6030081" lon="5.0938304"><ele>585.5</ele><time>2026-04-18T14:13:00.962Z</time></trkpt><trkpt lat="44.6030095" lon="5.0939888"><ele>585.0</ele><time>2026-04-18T14:13:01.963Z</time></trkpt><trkpt lat="44.6030042" lon="5.0941419"><ele>585.0</ele><time>2026-04-18T14:13:02.963Z</time></trkpt><trkpt lat="44.6029912" lon="5.0942646"><ele>585.0</ele><time>2026-04-18T14:13:03.962Z</time></trkpt><trkpt lat="44.6029664" lon="5.0943695"><ele>585.0</ele><time>2026-04-18T14:13:04.963Z</time></trkpt><trkpt lat="44.6028631" lon="5.0944034"><ele>585.0</ele><time>2026-04-18T14:13:05.963Z</time></trkpt><trkpt lat="44.6027946" lon="5.0944181"><ele>585.0</ele><time>2026-04-18T14:13:06.963Z</time></trkpt><trkpt lat="44.6027181" lon="5.0943999"><ele>585.0</ele><time>2026-04-18T14:13:07.963Z</time></trkpt><trkpt lat="44.602629" lon="5.0943628"><ele>583.6</ele><time>2026-04-18T14:13:08.962Z</time></trkpt><trkpt lat="44.6025317" lon="5.0943044"><ele>582.2</ele><time>2026-04-18T14:13:09.963Z</time></trkpt><trkpt lat="44.6024458" lon="5.0942354"><ele>580.8</ele><time>2026-04-18T14:13:10.962Z</time></trkpt><trkpt lat="44.6023618" lon="5.0941445"><ele>579.4</ele><time>2026-04-18T14:13:11.963Z</time></trkpt><trkpt lat="44.6022855" lon="5.0940283"><ele>578.0</ele><time>2026-04-18T14:13:12.962Z</time></trkpt><trkpt lat="44.6022133" lon="5.0938877"><ele>578.0</ele><time>2026-04-18T14:13:13.962Z</time></trkpt><trkpt lat="44.6021412" lon="5.0937361"><ele>578.0</ele><time>2026-04-18T14:13:14.962Z</time></trkpt><trkpt lat="44.6020677" lon="5.0935841"><ele>578.0</ele><time>2026-04-18T14:13:15.963Z</time></trkpt><trkpt lat="44.6020006" lon="5.093443"><ele>578.0</ele><time>2026-04-18T14:13:16.962Z</time></trkpt><trkpt lat="44.601943" lon="5.0933026"><ele>575.8</ele><time>2026-04-18T14:13:17.962Z</time></trkpt><trkpt lat="44.6018852" lon="5.0931785"><ele>573.5999999999999</ele><time>2026-04-18T14:13:18.962Z</time></trkpt><trkpt lat="44.6018331" lon="5.09306"><ele>571.4000000000001</ele><time>2026-04-18T14:13:19.962Z</time></trkpt><trkpt lat="44.6017847" lon="5.0929485"><ele>569.2</ele><time>2026-04-18T14:13:20.963Z</time></trkpt><trkpt lat="44.6017366" lon="5.0928499"><ele>567.0</ele><time>2026-04-18T14:13:21.963Z</time></trkpt><trkpt lat="44.6016936" lon="5.0927584"><ele>567.0</ele><time>2026-04-18T14:13:22.963Z</time></trkpt><trkpt lat="44.601659" lon="5.0926727"><ele>567.0</ele><time>2026-04-18T14:13:23.961Z</time></trkpt><trkpt lat="44.6016177" lon="5.0925973"><ele>567.0</ele><time>2026-04-18T14:13:24.962Z</time></trkpt><trkpt lat="44.6015658" lon="5.0925228"><ele>567.0</ele><time>2026-04-18T14:13:25.963Z</time></trkpt><trkpt lat="44.6014899" lon="5.0924669"><ele>567.0</ele><time>2026-04-18T14:13:26.963Z</time></trkpt><trkpt lat="44.6014063" lon="5.0924525"><ele>567.0</ele><time>2026-04-18T14:13:27.963Z</time></trkpt><trkpt lat="44.6013138" lon="5.0924765"><ele>567.0</ele><time>2026-04-18T14:13:28.962Z</time></trkpt><trkpt lat="44.6012289" lon="5.0925124"><ele>567.0</ele><time>2026-04-18T14:13:29.962Z</time></trkpt><trkpt lat="44.6011399" lon="5.0926168"><ele>567.0</ele><time>2026-04-18T14:13:30.963Z</time></trkpt><trkpt lat="44.6010608" lon="5.0927165"><ele>567.0</ele><time>2026-04-18T14:13:31.963Z</time></trkpt><trkpt lat="44.6009926" lon="5.0928345"><ele>567.0</ele><time>2026-04-18T14:13:32.963Z</time></trkpt><trkpt lat="44.6009542" lon="5.0929993"><ele>567.5</ele><time>2026-04-18T14:13:33.963Z</time></trkpt><trkpt lat="44.6009302" lon="5.0931655"><ele>568.0</ele><time>2026-04-18T14:13:34.962Z</time></trkpt><trkpt lat="44.6009106" lon="5.093354"><ele>568.5</ele><time>2026-04-18T14:13:35.963Z</time></trkpt><trkpt lat="44.600926" lon="5.0935811"><ele>569.0</ele><time>2026-04-18T14:13:36.962Z</time></trkpt><trkpt lat="44.6009224" lon="5.0938236"><ele>569.0</ele><time>2026-04-18T14:13:37.962Z</time></trkpt><trkpt lat="44.6009425" lon="5.094067"><ele>569.0</ele><time>2026-04-18T14:13:38.962Z</time></trkpt><trkpt lat="44.6009713" lon="5.0942836"><ele>569.0</ele><time>2026-04-18T14:13:39.963Z</time></trkpt><trkpt lat="44.600994" lon="5.0944784"><ele>568.25</ele><time>2026-04-18T14:13:40.962Z</time></trkpt><trkpt lat="44.6010164" lon="5.0946941"><ele>567.5</ele><time>2026-04-18T14:13:41.963Z</time></trkpt><trkpt lat="44.6010313" lon="5.0948783"><ele>566.75</ele><time>2026-04-18T14:13:42.963Z</time></trkpt><trkpt lat="44.6010604" lon="5.0950873"><ele>566.0</ele><time>2026-04-18T14:13:43.963Z</time></trkpt><trkpt lat="44.6010778" lon="5.0952881"><ele>566.0</ele><time>2026-04-18T14:13:44.963Z</time></trkpt><trkpt lat="44.6010964" lon="5.095488"><ele>566.0</ele><time>2026-04-18T14:13:45.962Z</time></trkpt><trkpt lat="44.6011263" lon="5.0956749"><ele>566.0</ele><time>2026-04-18T14:13:46.963Z</time></trkpt><trkpt lat="44.60115" lon="5.0958803"><ele>566.0</ele><time>2026-04-18T14:13:47.963Z</time></trkpt><trkpt lat="44.6011667" lon="5.096078"><ele>562.0</ele><time>2026-04-18T14:13:48.963Z</time></trkpt><trkpt lat="44.6012093" lon="5.0962772"><ele>558.0</ele><time>2026-04-18T14:13:49.962Z</time></trkpt><trkpt lat="44.6012286" lon="5.0964758"><ele>554.0</ele><time>2026-04-18T14:13:50.963Z</time></trkpt><trkpt lat="44.601244" lon="5.0966801"><ele>550.0</ele><time>2026-04-18T14:13:51.963Z</time></trkpt><trkpt lat="44.6012617" lon="5.0968877"><ele>549.3333333333334</ele><time>2026-04-18T14:13:52.963Z</time></trkpt><trkpt lat="44.6012959" lon="5.0971233"><ele>548.6666666666666</ele><time>2026-04-18T14:13:53.963Z</time></trkpt><trkpt lat="44.6013292" lon="5.0973511"><ele>548.0</ele><time>2026-04-18T14:13:54.963Z</time></trkpt><trkpt lat="44.6013409" lon="5.0975938"><ele>546.3333333333333</ele><time>2026-04-18T14:13:55.962Z</time></trkpt><trkpt lat="44.6013756" lon="5.0978267"><ele>544.6666666666666</ele><time>2026-04-18T14:13:56.962Z</time></trkpt><trkpt lat="44.6013526" lon="5.0980478"><ele>543.0</ele><time>2026-04-18T14:13:57.962Z</time></trkpt><trkpt lat="44.6013456" lon="5.0982689"><ele>539.3333333333334</ele><time>2026-04-18T14:13:58.963Z</time></trkpt><trkpt lat="44.6013417" lon="5.0984962"><ele>535.6666666666667</ele><time>2026-04-18T14:13:59.963Z</time></trkpt><trkpt lat="44.6013383" lon="5.0987257"><ele>532.0</ele><time>2026-04-18T14:14:00.962Z</time></trkpt><trkpt lat="44.6013338" lon="5.0989426"><ele>531.0</ele><time>2026-04-18T14:14:01.962Z</time></trkpt><trkpt lat="44.6013121" lon="5.0991654"><ele>530.0</ele><time>2026-04-18T14:14:02.962Z</time></trkpt><trkpt lat="44.601282" lon="5.0993943"><ele>529.0</ele><time>2026-04-18T14:14:03.963Z</time></trkpt><trkpt lat="44.6012433" lon="5.0996288"><ele>529.0</ele><time>2026-04-18T14:14:04.963Z</time></trkpt><trkpt lat="44.6011943" lon="5.0998676"><ele>529.0</ele><time>2026-04-18T14:14:05.961Z</time></trkpt><trkpt lat="44.6011429" lon="5.1001114"><ele>529.0</ele><time>2026-04-18T14:14:06.963Z</time></trkpt><trkpt lat="44.6010941" lon="5.1003383"><ele>530.0</ele><time>2026-04-18T14:14:07.962Z</time></trkpt><trkpt lat="44.6010461" lon="5.1005542"><ele>531.0</ele><time>2026-04-18T14:14:08.962Z</time></trkpt><trkpt lat="44.6010079" lon="5.1007461"><ele>532.0</ele><time>2026-04-18T14:14:09.963Z</time></trkpt><trkpt lat="44.6009753" lon="5.1009117"><ele>533.0</ele><time>2026-04-18T14:14:10.962Z</time></trkpt><trkpt lat="44.6009485" lon="5.1010777"><ele>531.4</ele><time>2026-04-18T14:14:11.963Z</time></trkpt><trkpt lat="44.6009573" lon="5.101205"><ele>529.8</ele><time>2026-04-18T14:14:12.963Z</time></trkpt><trkpt lat="44.6009867" lon="5.1013379"><ele>528.2</ele><time>2026-04-18T14:14:13.963Z</time></trkpt><trkpt lat="44.6010447" lon="5.1014534"><ele>526.6</ele><time>2026-04-18T14:14:14.963Z</time></trkpt><trkpt lat="44.6011149" lon="5.1015594"><ele>525.0</ele><time>2026-04-18T14:14:15.963Z</time></trkpt><trkpt lat="44.6011966" lon="5.101668"><ele>523.25</ele><time>2026-04-18T14:14:16.963Z</time></trkpt><trkpt lat="44.6012828" lon="5.1017822"><ele>521.5</ele><time>2026-04-18T14:14:17.962Z</time></trkpt><trkpt lat="44.6013671" lon="5.1018937"><ele>519.75</ele><time>2026-04-18T14:14:18.962Z</time></trkpt><trkpt lat="44.6014516" lon="5.102004"><ele>518.0</ele><time>2026-04-18T14:14:19.963Z</time></trkpt><trkpt lat="44.6015301" lon="5.1021085"><ele>518.0</ele><time>2026-04-18T14:14:20.962Z</time></trkpt><trkpt lat="44.6016061" lon="5.10221"><ele>518.0</ele><time>2026-04-18T14:14:21.963Z</time></trkpt><trkpt lat="44.6016784" lon="5.1023"><ele>518.0</ele><time>2026-04-18T14:14:22.963Z</time></trkpt><trkpt lat="44.60174" lon="5.1023815"><ele>518.0</ele><time>2026-04-18T14:14:23.962Z</time></trkpt><trkpt lat="44.6017858" lon="5.1024507"><ele>518.0</ele><time>2026-04-18T14:14:24.962Z</time></trkpt><trkpt lat="44.601827" lon="5.1025768"><ele>519.1666666666666</ele><time>2026-04-18T14:14:26.963Z</time></trkpt><trkpt lat="44.6018065" lon="5.1026729"><ele>520.3333333333333</ele><time>2026-04-18T14:14:28.963Z</time></trkpt><trkpt lat="44.6017546" lon="5.1027787"><ele>521.5</ele><time>2026-04-18T14:14:30.962Z</time></trkpt><trkpt lat="44.6017235" lon="5.1028626"><ele>522.6666666666666</ele><time>2026-04-18T14:14:31.963Z</time></trkpt><trkpt lat="44.6016897" lon="5.102961"><ele>523.8333333333334</ele><time>2026-04-18T14:14:32.962Z</time></trkpt><trkpt lat="44.6016627" lon="5.1030499"><ele>525.0</ele><time>2026-04-18T14:14:33.961Z</time></trkpt><trkpt lat="44.6016275" lon="5.1031763"><ele>524.8</ele><time>2026-04-18T14:14:34.962Z</time></trkpt><trkpt lat="44.6015918" lon="5.1032908"><ele>524.6</ele><time>2026-04-18T14:14:35.962Z</time></trkpt><trkpt lat="44.6015545" lon="5.1034163"><ele>524.4</ele><time>2026-04-18T14:14:36.963Z</time></trkpt><trkpt lat="44.6015218" lon="5.1035507"><ele>524.2</ele><time>2026-04-18T14:14:37.963Z</time></trkpt><trkpt lat="44.6014835" lon="5.1036818"><ele>524.0</ele><time>2026-04-18T14:14:38.963Z</time></trkpt><trkpt lat="44.6014419" lon="5.1038139"><ele>524.0</ele><time>2026-04-18T14:14:39.963Z</time></trkpt><trkpt lat="44.601451" lon="5.1039456"><ele>524.0</ele><time>2026-04-18T14:14:40.963Z</time></trkpt><trkpt lat="44.6014393" lon="5.104067"><ele>524.0</ele><time>2026-04-18T14:14:41.962Z</time></trkpt><trkpt lat="44.601465" lon="5.1042005"><ele>524.0</ele><time>2026-04-18T14:14:42.962Z</time></trkpt><trkpt lat="44.6015085" lon="5.1043048"><ele>524.0</ele><time>2026-04-18T14:14:43.962Z</time></trkpt><trkpt lat="44.6016681" lon="5.104413"><ele>523.5</ele><time>2026-04-18T14:14:44.963Z</time></trkpt><trkpt lat="44.6017455" lon="5.1045456"><ele>523.0</ele><time>2026-04-18T14:14:45.962Z</time></trkpt><trkpt lat="44.6018054" lon="5.1046916"><ele>522.5</ele><time>2026-04-18T14:14:46.962Z</time></trkpt><trkpt lat="44.6018543" lon="5.1048459"><ele>522.0</ele><time>2026-04-18T14:14:47.963Z</time></trkpt><trkpt lat="44.6018905" lon="5.1050188"><ele>522.0</ele><time>2026-04-18T14:14:48.961Z</time></trkpt><trkpt lat="44.601919" lon="5.1051673"><ele>522.0</ele><time>2026-04-18T14:14:49.963Z</time></trkpt><trkpt lat="44.6019439" lon="5.1053064"><ele>522.0</ele><time>2026-04-18T14:14:50.961Z</time></trkpt><trkpt lat="44.6019759" lon="5.1054584"><ele>522.0</ele><time>2026-04-18T14:14:51.961Z</time></trkpt><trkpt lat="44.6020128" lon="5.105616"><ele>522.0</ele><time>2026-04-18T14:14:52.963Z</time></trkpt><trkpt lat="44.6020357" lon="5.1057667"><ele>519.0</ele><time>2026-04-18T14:14:53.962Z</time></trkpt><trkpt lat="44.6021398" lon="5.1059289"><ele>516.0</ele><time>2026-04-18T14:14:54.961Z</time></trkpt><trkpt lat="44.6022286" lon="5.1060789"><ele>513.0</ele><time>2026-04-18T14:14:55.963Z</time></trkpt><trkpt lat="44.6023261" lon="5.1062235"><ele>510.0</ele><time>2026-04-18T14:14:56.962Z</time></trkpt><trkpt lat="44.6024128" lon="5.1063572"><ele>510.0</ele><time>2026-04-18T14:14:57.963Z</time></trkpt><trkpt lat="44.6024976" lon="5.1064868"><ele>510.0</ele><time>2026-04-18T14:14:58.962Z</time></trkpt><trkpt lat="44.6025746" lon="5.1066091"><ele>510.0</ele><time>2026-04-18T14:14:59.962Z</time></trkpt><trkpt lat="44.6026516" lon="5.1067283"><ele>510.0</ele><time>2026-04-18T14:15:00.963Z</time></trkpt><trkpt lat="44.6027296" lon="5.1068496"><ele>509.0</ele><time>2026-04-18T14:15:01.963Z</time></trkpt><trkpt lat="44.6028026" lon="5.1069665"><ele>508.0</ele><time>2026-04-18T14:15:02.962Z</time></trkpt><trkpt lat="44.6028685" lon="5.1070786"><ele>507.0</ele><time>2026-04-18T14:15:03.962Z</time></trkpt><trkpt lat="44.6029388" lon="5.1071911"><ele>506.0</ele><time>2026-04-18T14:15:04.961Z</time></trkpt><trkpt lat="44.6030136" lon="5.1073064"><ele>505.0</ele><time>2026-04-18T14:15:05.962Z</time></trkpt><trkpt lat="44.6030899" lon="5.1074318"><ele>505.0</ele><time>2026-04-18T14:15:06.963Z</time></trkpt><trkpt lat="44.6031616" lon="5.1075738"><ele>505.0</ele><time>2026-04-18T14:15:07.963Z</time></trkpt><trkpt lat="44.6032332" lon="5.1077292"><ele>505.0</ele><time>2026-04-18T14:15:08.962Z</time></trkpt><trkpt lat="44.6033074" lon="5.107888"><ele>505.0</ele><time>2026-04-18T14:15:09.961Z</time></trkpt><trkpt lat="44.6033872" lon="5.1080558"><ele>505.0</ele><time>2026-04-18T14:15:10.961Z</time></trkpt><trkpt lat="44.6034732" lon="5.1082287"><ele>505.0</ele><time>2026-04-18T14:15:11.961Z</time></trkpt><trkpt lat="44.6035558" lon="5.10841"><ele>505.0</ele><time>2026-04-18T14:15:12.963Z</time></trkpt><trkpt lat="44.6036406" lon="5.1085971"><ele>503.5</ele><time>2026-04-18T14:15:13.963Z</time></trkpt><trkpt lat="44.6037264" lon="5.108778"><ele>502.0</ele><time>2026-04-18T14:15:14.962Z</time></trkpt><trkpt lat="44.6038055" lon="5.1089461"><ele>500.5</ele><time>2026-04-18T14:15:15.963Z</time></trkpt><trkpt lat="44.6038792" lon="5.109106"><ele>499.0</ele><time>2026-04-18T14:15:16.962Z</time></trkpt><trkpt lat="44.6039471" lon="5.1092573"><ele>498.75</ele><time>2026-04-18T14:15:17.962Z</time></trkpt><trkpt lat="44.6039971" lon="5.1094059"><ele>498.5</ele><time>2026-04-18T14:15:18.962Z</time></trkpt><trkpt lat="44.6040181" lon="5.1095551"><ele>498.25</ele><time>2026-04-18T14:15:19.963Z</time></trkpt><trkpt lat="44.6040203" lon="5.1097178"><ele>498.0</ele><time>2026-04-18T14:15:20.963Z</time></trkpt><trkpt lat="44.6040107" lon="5.1098878"><ele>497.5</ele><time>2026-04-18T14:15:21.963Z</time></trkpt><trkpt lat="44.6039828" lon="5.1100504"><ele>497.0</ele><time>2026-04-18T14:15:22.963Z</time></trkpt><trkpt lat="44.6039336" lon="5.1102075"><ele>496.5</ele><time>2026-04-18T14:15:23.963Z</time></trkpt><trkpt lat="44.6038891" lon="5.1103708"><ele>496.0</ele><time>2026-04-18T14:15:24.962Z</time></trkpt><trkpt lat="44.6037953" lon="5.1105226"><ele>496.0</ele><time>2026-04-18T14:15:25.962Z</time></trkpt><trkpt lat="44.6037143" lon="5.1106831"><ele>496.0</ele><time>2026-04-18T14:15:26.961Z</time></trkpt><trkpt lat="44.6036231" lon="5.110844"><ele>496.0</ele><time>2026-04-18T14:15:27.962Z</time></trkpt><trkpt lat="44.6035296" lon="5.1109866"><ele>496.0</ele><time>2026-04-18T14:15:28.961Z</time></trkpt><trkpt lat="44.6034266" lon="5.1111443"><ele>498.33333333333337</ele><time>2026-04-18T14:15:29.962Z</time></trkpt><trkpt lat="44.603315" lon="5.1112989"><ele>500.66666666666663</ele><time>2026-04-18T14:15:30.963Z</time></trkpt><trkpt lat="44.6032071" lon="5.1114519"><ele>503.0</ele><time>2026-04-18T14:15:31.962Z</time></trkpt><trkpt lat="44.603105" lon="5.1115983"><ele>503.75</ele><time>2026-04-18T14:15:32.962Z</time></trkpt><trkpt lat="44.6030035" lon="5.1117342"><ele>504.5</ele><time>2026-04-18T14:15:33.963Z</time></trkpt><trkpt lat="44.602911" lon="5.1118706"><ele>505.25</ele><time>2026-04-18T14:15:34.963Z</time></trkpt><trkpt lat="44.6028182" lon="5.1119994"><ele>506.0</ele><time>2026-04-18T14:15:35.961Z</time></trkpt><trkpt lat="44.6027179" lon="5.1121293"><ele>506.0</ele><time>2026-04-18T14:15:36.962Z</time></trkpt><trkpt lat="44.6026034" lon="5.1122506"><ele>506.0</ele><time>2026-04-18T14:15:37.962Z</time></trkpt><trkpt lat="44.6024851" lon="5.1123601"><ele>506.0</ele><time>2026-04-18T14:15:38.962Z</time></trkpt><trkpt lat="44.6023508" lon="5.1124672"><ele>506.0</ele><time>2026-04-18T14:15:39.962Z</time></trkpt><trkpt lat="44.6022104" lon="5.1125773"><ele>504.3333333333333</ele><time>2026-04-18T14:15:40.962Z</time></trkpt><trkpt lat="44.6020637" lon="5.1126879"><ele>502.66666666666663</ele><time>2026-04-18T14:15:41.961Z</time></trkpt><trkpt lat="44.6019203" lon="5.1127895"><ele>501.0</ele><time>2026-04-18T14:15:42.961Z</time></trkpt><trkpt lat="44.60177" lon="5.1128978"><ele>501.0</ele><time>2026-04-18T14:15:43.963Z</time></trkpt><trkpt lat="44.6016231" lon="5.1130001"><ele>501.0</ele><time>2026-04-18T14:15:44.962Z</time></trkpt><trkpt lat="44.6014903" lon="5.1130879"><ele>501.0</ele><time>2026-04-18T14:15:45.963Z</time></trkpt><trkpt lat="44.6013652" lon="5.1131765"><ele>497.5</ele><time>2026-04-18T14:15:46.961Z</time></trkpt><trkpt lat="44.6012645" lon="5.1132594"><ele>494.0</ele><time>2026-04-18T14:15:47.963Z</time></trkpt><trkpt lat="44.6011645" lon="5.1133452"><ele>490.5</ele><time>2026-04-18T14:15:48.962Z</time></trkpt><trkpt lat="44.6010675" lon="5.1134219"><ele>487.0</ele><time>2026-04-18T14:15:49.963Z</time></trkpt><trkpt lat="44.6009643" lon="5.1134865"><ele>487.00000000000006</ele><time>2026-04-18T14:15:50.963Z</time></trkpt><trkpt lat="44.60086" lon="5.1135362"><ele>487.0</ele><time>2026-04-18T14:15:51.962Z</time></trkpt><trkpt lat="44.6007672" lon="5.1135743"><ele>487.0</ele><time>2026-04-18T14:15:52.961Z</time></trkpt><trkpt lat="44.6006866" lon="5.1136181"><ele>487.0</ele><time>2026-04-18T14:15:53.963Z</time></trkpt><trkpt lat="44.6006306" lon="5.1136902"><ele>487.00000000000006</ele><time>2026-04-18T14:15:54.963Z</time></trkpt><trkpt lat="44.6006029" lon="5.1137762"><ele>487.0</ele><time>2026-04-18T14:15:55.962Z</time></trkpt><trkpt lat="44.6006111" lon="5.1138687"><ele>487.00000000000006</ele><time>2026-04-18T14:15:56.962Z</time></trkpt><trkpt lat="44.6006205" lon="5.1139587"><ele>487.0</ele><time>2026-04-18T14:15:57.963Z</time></trkpt><trkpt lat="44.6007232" lon="5.1139892"><ele>487.0</ele><time>2026-04-18T14:15:58.962Z</time></trkpt><trkpt lat="44.6008023" lon="5.1140282"><ele>487.0</ele><time>2026-04-18T14:15:59.963Z</time></trkpt><trkpt lat="44.6009033" lon="5.1140592"><ele>487.00000000000006</ele><time>2026-04-18T14:16:00.963Z</time></trkpt><trkpt lat="44.600975" lon="5.1141403"><ele>487.0</ele><time>2026-04-18T14:16:01.962Z</time></trkpt><trkpt lat="44.6010324" lon="5.1142425"><ele>484.6</ele><time>2026-04-18T14:16:02.962Z</time></trkpt><trkpt lat="44.6010646" lon="5.1143715"><ele>482.20000000000005</ele><time>2026-04-18T14:16:03.963Z</time></trkpt><trkpt lat="44.601065" lon="5.1145137"><ele>479.8</ele><time>2026-04-18T14:16:04.963Z</time></trkpt><trkpt lat="44.6010397" lon="5.1146555"><ele>477.4</ele><time>2026-04-18T14:16:05.962Z</time></trkpt><trkpt lat="44.6009924" lon="5.114777"><ele>475.0</ele><time>2026-04-18T14:16:06.963Z</time></trkpt><trkpt lat="44.6009198" lon="5.1148921"><ele>471.75</ele><time>2026-04-18T14:16:07.963Z</time></trkpt><trkpt lat="44.6008352" lon="5.1150148"><ele>468.5</ele><time>2026-04-18T14:16:08.961Z</time></trkpt><trkpt lat="44.6007518" lon="5.1151389"><ele>465.25</ele><time>2026-04-18T14:16:09.963Z</time></trkpt><trkpt lat="44.600665" lon="5.1152692"><ele>462.0</ele><time>2026-04-18T14:16:10.963Z</time></trkpt><trkpt lat="44.6005704" lon="5.1154026"><ele>462.0</ele><time>2026-04-18T14:16:11.962Z</time></trkpt><trkpt lat="44.6004729" lon="5.1155282"><ele>462.0</ele><time>2026-04-18T14:16:12.961Z</time></trkpt><trkpt lat="44.6003702" lon="5.1156388"><ele>462.0</ele><time>2026-04-18T14:16:13.963Z</time></trkpt><trkpt lat="44.6002584" lon="5.1157401"><ele>462.0</ele><time>2026-04-18T14:16:14.963Z</time></trkpt><trkpt lat="44.6001503" lon="5.1158311"><ele>460.0</ele><time>2026-04-18T14:16:15.962Z</time></trkpt><trkpt lat="44.6000429" lon="5.115913"><ele>458.0</ele><time>2026-04-18T14:16:16.961Z</time></trkpt><trkpt lat="44.5999307" lon="5.1159846"><ele>456.0</ele><time>2026-04-18T14:16:17.962Z</time></trkpt><trkpt lat="44.599818" lon="5.1160355"><ele>454.0</ele><time>2026-04-18T14:16:18.962Z</time></trkpt><trkpt lat="44.5997157" lon="5.1161118"><ele>454.0</ele><time>2026-04-18T14:16:19.962Z</time></trkpt><trkpt lat="44.5996199" lon="5.1162164"><ele>454.0</ele><time>2026-04-18T14:16:20.963Z</time></trkpt><trkpt lat="44.5995187" lon="5.1163407"><ele>454.0</ele><time>2026-04-18T14:16:21.962Z</time></trkpt><trkpt lat="44.5994177" lon="5.1164538"><ele>454.0</ele><time>2026-04-18T14:16:22.963Z</time></trkpt><trkpt lat="44.599316" lon="5.1165584"><ele>452.0</ele><time>2026-04-18T14:16:23.962Z</time></trkpt><trkpt lat="44.5992237" lon="5.116664"><ele>450.0</ele><time>2026-04-18T14:16:24.962Z</time></trkpt><trkpt lat="44.599137" lon="5.1167838"><ele>448.0</ele><time>2026-04-18T14:16:25.962Z</time></trkpt><trkpt lat="44.5990605" lon="5.1169014"><ele>446.0</ele><time>2026-04-18T14:16:26.962Z</time></trkpt><trkpt lat="44.5989878" lon="5.1170203"><ele>446.0</ele><time>2026-04-18T14:16:27.963Z</time></trkpt><trkpt lat="44.5989202" lon="5.1171379"><ele>446.0</ele><time>2026-04-18T14:16:28.962Z</time></trkpt><trkpt lat="44.5988563" lon="5.1172557"><ele>446.0</ele><time>2026-04-18T14:16:29.963Z</time></trkpt><trkpt lat="44.5987907" lon="5.1173921"><ele>446.0</ele><time>2026-04-18T14:16:30.962Z</time></trkpt><trkpt lat="44.5987248" lon="5.1175401"><ele>445.5</ele><time>2026-04-18T14:16:31.963Z</time></trkpt><trkpt lat="44.5986417" lon="5.1176879"><ele>445.0</ele><time>2026-04-18T14:16:32.963Z</time></trkpt><trkpt lat="44.5985497" lon="5.1178223"><ele>444.5</ele><time>2026-04-18T14:16:33.963Z</time></trkpt><trkpt lat="44.5984544" lon="5.1179499"><ele>444.0</ele><time>2026-04-18T14:16:34.963Z</time></trkpt><trkpt lat="44.5983555" lon="5.1180656"><ele>444.0</ele><time>2026-04-18T14:16:35.963Z</time></trkpt><trkpt lat="44.5982438" lon="5.1181617"><ele>444.0</ele><time>2026-04-18T14:16:36.962Z</time></trkpt><trkpt lat="44.5981212" lon="5.1182252"><ele>444.0</ele><time>2026-04-18T14:16:37.961Z</time></trkpt><trkpt lat="44.5979946" lon="5.1182683"><ele>444.0</ele><time>2026-04-18T14:16:38.963Z</time></trkpt><trkpt lat="44.5978758" lon="5.1182915"><ele>443.75</ele><time>2026-04-18T14:16:39.963Z</time></trkpt><trkpt lat="44.5977619" lon="5.1182833"><ele>443.5</ele><time>2026-04-18T14:16:40.963Z</time></trkpt><trkpt lat="44.5976595" lon="5.1182324"><ele>443.25</ele><time>2026-04-18T14:16:41.961Z</time></trkpt><trkpt lat="44.5975529" lon="5.1181516"><ele>443.0</ele><time>2026-04-18T14:16:42.962Z</time></trkpt><trkpt lat="44.5974598" lon="5.1180775"><ele>443.0</ele><time>2026-04-18T14:16:43.963Z</time></trkpt><trkpt lat="44.5973632" lon="5.1180167"><ele>442.99999999999994</ele><time>2026-04-18T14:16:44.962Z</time></trkpt><trkpt lat="44.5972784" lon="5.1179977"><ele>442.99999999999994</ele><time>2026-04-18T14:16:45.962Z</time></trkpt><trkpt lat="44.5971973" lon="5.11803"><ele>443.0</ele><time>2026-04-18T14:16:46.963Z</time></trkpt><trkpt lat="44.5971331" lon="5.118116"><ele>443.0</ele><time>2026-04-18T14:16:47.962Z</time></trkpt><trkpt lat="44.5970664" lon="5.1181947"><ele>440.0</ele><time>2026-04-18T14:16:48.962Z</time></trkpt><trkpt lat="44.5971409" lon="5.1183702"><ele>437.0</ele><time>2026-04-18T14:16:49.962Z</time></trkpt><trkpt lat="44.5971485" lon="5.1185222"><ele>434.0</ele><time>2026-04-18T14:16:50.963Z</time></trkpt><trkpt lat="44.597149" lon="5.1186814"><ele>431.0</ele><time>2026-04-18T14:16:51.962Z</time></trkpt><trkpt lat="44.5971521" lon="5.1188321"><ele>431.0</ele><time>2026-04-18T14:16:52.963Z</time></trkpt><trkpt lat="44.5971339" lon="5.1189458"><ele>431.0</ele><time>2026-04-18T14:16:53.963Z</time></trkpt><trkpt lat="44.5970726" lon="5.1190713"><ele>431.0</ele><time>2026-04-18T14:16:54.963Z</time></trkpt><trkpt lat="44.5970097" lon="5.1191804"><ele>431.0</ele><time>2026-04-18T14:16:55.962Z</time></trkpt><trkpt lat="44.5969213" lon="5.11926"><ele>431.0</ele><time>2026-04-18T14:16:56.963Z</time></trkpt><trkpt lat="44.5968263" lon="5.1193105"><ele>429.6</ele><time>2026-04-18T14:16:57.962Z</time></trkpt><trkpt lat="44.5967207" lon="5.1193355"><ele>428.20000000000005</ele><time>2026-04-18T14:16:58.963Z</time></trkpt><trkpt lat="44.5966191" lon="5.1193522"><ele>426.79999999999995</ele><time>2026-04-18T14:16:59.962Z</time></trkpt><trkpt lat="44.5965298" lon="5.1193497"><ele>425.4</ele><time>2026-04-18T14:17:00.963Z</time></trkpt><trkpt lat="44.5964349" lon="5.1193529"><ele>424.0</ele><time>2026-04-18T14:17:01.963Z</time></trkpt><trkpt lat="44.5963462" lon="5.1193916"><ele>424.0</ele><time>2026-04-18T14:17:02.962Z</time></trkpt><trkpt lat="44.5963072" lon="5.119529"><ele>424.0</ele><time>2026-04-18T14:17:03.963Z</time></trkpt><trkpt lat="44.5962535" lon="5.1196193"><ele>424.0</ele><time>2026-04-18T14:17:04.963Z</time></trkpt><trkpt lat="44.5962761" lon="5.1197802"><ele>424.0</ele><time>2026-04-18T14:17:05.963Z</time></trkpt><trkpt lat="44.5963687" lon="5.1199169"><ele>424.0</ele><time>2026-04-18T14:17:06.962Z</time></trkpt><trkpt lat="44.5963403" lon="5.1200447"><ele>422.2</ele><time>2026-04-18T14:17:07.963Z</time></trkpt><trkpt lat="44.5962915" lon="5.1201587"><ele>420.4</ele><time>2026-04-18T14:17:08.963Z</time></trkpt><trkpt lat="44.5962181" lon="5.1202679"><ele>418.6</ele><time>2026-04-18T14:17:09.963Z</time></trkpt><trkpt lat="44.5961468" lon="5.1203612"><ele>416.8</ele><time>2026-04-18T14:17:10.962Z</time></trkpt><trkpt lat="44.5960696" lon="5.1204252"><ele>415.0</ele><time>2026-04-18T14:17:11.961Z</time></trkpt><trkpt lat="44.5959845" lon="5.1204544"><ele>415.0</ele><time>2026-04-18T14:17:12.962Z</time></trkpt><trkpt lat="44.5958871" lon="5.1204446"><ele>415.0</ele><time>2026-04-18T14:17:13.963Z</time></trkpt><trkpt lat="44.5957941" lon="5.1203979"><ele>415.0</ele><time>2026-04-18T14:17:14.962Z</time></trkpt><trkpt lat="44.5956932" lon="5.1203325"><ele>415.0</ele><time>2026-04-18T14:17:15.963Z</time></trkpt><trkpt lat="44.5955884" lon="5.1202798"><ele>415.0</ele><time>2026-04-18T14:17:16.962Z</time></trkpt><trkpt lat="44.5954853" lon="5.1202151"><ele>415.0</ele><time>2026-04-18T14:17:17.961Z</time></trkpt><trkpt lat="44.5953868" lon="5.1202546"><ele>415.0</ele><time>2026-04-18T14:17:18.962Z</time></trkpt><trkpt lat="44.5952961" lon="5.1202933"><ele>415.0</ele><time>2026-04-18T14:17:19.962Z</time></trkpt><trkpt lat="44.5952223" lon="5.1203891"><ele>415.0</ele><time>2026-04-18T14:17:20.962Z</time></trkpt><trkpt lat="44.5951748" lon="5.120504"><ele>415.0</ele><time>2026-04-18T14:17:21.961Z</time></trkpt><trkpt lat="44.5951722" lon="5.120654"><ele>413.6</ele><time>2026-04-18T14:17:22.961Z</time></trkpt><trkpt lat="44.5951482" lon="5.1208084"><ele>412.2</ele><time>2026-04-18T14:17:23.962Z</time></trkpt><trkpt lat="44.5950942" lon="5.1209459"><ele>410.79999999999995</ele><time>2026-04-18T14:17:24.961Z</time></trkpt><trkpt lat="44.59502" lon="5.1210504"><ele>409.4</ele><time>2026-04-18T14:17:25.961Z</time></trkpt><trkpt lat="44.5949245" lon="5.1211172"><ele>408.0</ele><time>2026-04-18T14:17:26.962Z</time></trkpt><trkpt lat="44.5948222" lon="5.1211649"><ele>408.0</ele><time>2026-04-18T14:17:27.961Z</time></trkpt><trkpt lat="44.5947087" lon="5.1212168"><ele>408.0</ele><time>2026-04-18T14:17:28.962Z</time></trkpt><trkpt lat="44.5945903" lon="5.1212784"><ele>408.0</ele><time>2026-04-18T14:17:29.961Z</time></trkpt><trkpt lat="44.5944695" lon="5.1213498"><ele>408.0</ele><time>2026-04-18T14:17:30.962Z</time></trkpt><trkpt lat="44.5943434" lon="5.1214284"><ele>406.66666666666663</ele><time>2026-04-18T14:17:31.961Z</time></trkpt><trkpt lat="44.5942057" lon="5.1215259"><ele>405.3333333333333</ele><time>2026-04-18T14:17:32.962Z</time></trkpt><trkpt lat="44.5940588" lon="5.1216284"><ele>404.0</ele><time>2026-04-18T14:17:33.961Z</time></trkpt><trkpt lat="44.5939253" lon="5.1217299"><ele>404.0</ele><time>2026-04-18T14:17:34.962Z</time></trkpt><trkpt lat="44.5937937" lon="5.1218239"><ele>404.0</ele><time>2026-04-18T14:17:35.961Z</time></trkpt><trkpt lat="44.5936623" lon="5.1219101"><ele>404.0</ele><time>2026-04-18T14:17:36.961Z</time></trkpt><trkpt lat="44.5935159" lon="5.1219733"><ele>404.0</ele><time>2026-04-18T14:17:37.961Z</time></trkpt><trkpt lat="44.5933549" lon="5.1220295"><ele>411.0</ele><time>2026-04-18T14:17:38.961Z</time></trkpt><trkpt lat="44.5931795" lon="5.1220744"><ele>418.0</ele><time>2026-04-18T14:17:39.961Z</time></trkpt><trkpt lat="44.5930157" lon="5.1221106"><ele>425.0</ele><time>2026-04-18T14:17:40.961Z</time></trkpt><trkpt lat="44.5928539" lon="5.1221522"><ele>424.0</ele><time>2026-04-18T14:17:41.962Z</time></trkpt><trkpt lat="44.5926923" lon="5.1222174"><ele>423.0</ele><time>2026-04-18T14:17:42.96Z</time></trkpt><trkpt lat="44.5925265" lon="5.1222915"><ele>422.0</ele><time>2026-04-18T14:17:43.962Z</time></trkpt><trkpt lat="44.5923626" lon="5.1223797"><ele>418.0</ele><time>2026-04-18T14:17:44.962Z</time></trkpt><trkpt lat="44.5922059" lon="5.1224645"><ele>414.0</ele><time>2026-04-18T14:17:45.96Z</time></trkpt><trkpt lat="44.5920687" lon="5.1225374"><ele>410.0</ele><time>2026-04-18T14:17:46.961Z</time></trkpt><trkpt lat="44.5919504" lon="5.1225988"><ele>406.0</ele><time>2026-04-18T14:17:47.961Z</time></trkpt><trkpt lat="44.5918471" lon="5.1226666"><ele>406.0</ele><time>2026-04-18T14:17:48.961Z</time></trkpt><trkpt lat="44.5917593" lon="5.1227706"><ele>406.0</ele><time>2026-04-18T14:17:49.961Z</time></trkpt><trkpt lat="44.5916862" lon="5.1229024"><ele>406.0</ele><time>2026-04-18T14:17:50.962Z</time></trkpt><trkpt lat="44.5916222" lon="5.1230604"><ele>406.0</ele><time>2026-04-18T14:17:51.962Z</time></trkpt><trkpt lat="44.5915559" lon="5.1232379"><ele>404.6666666666667</ele><time>2026-04-18T14:17:52.962Z</time></trkpt><trkpt lat="44.5914817" lon="5.1234347"><ele>403.33333333333337</ele><time>2026-04-18T14:17:53.961Z</time></trkpt><trkpt lat="44.5913981" lon="5.1236489"><ele>402.0</ele><time>2026-04-18T14:17:54.962Z</time></trkpt><trkpt lat="44.5913237" lon="5.1238442"><ele>402.0</ele><time>2026-04-18T14:17:55.962Z</time></trkpt><trkpt lat="44.5912575" lon="5.1240215"><ele>402.0</ele><time>2026-04-18T14:17:56.962Z</time></trkpt><trkpt lat="44.5911937" lon="5.1241859"><ele>402.0</ele><time>2026-04-18T14:17:57.962Z</time></trkpt><trkpt lat="44.591123" lon="5.1243336"><ele>402.0</ele><time>2026-04-18T14:17:58.961Z</time></trkpt><trkpt lat="44.5910371" lon="5.1244565"><ele>403.25</ele><time>2026-04-18T14:17:59.961Z</time></trkpt><trkpt lat="44.5909392" lon="5.1245453"><ele>404.5</ele><time>2026-04-18T14:18:00.961Z</time></trkpt><trkpt lat="44.5908153" lon="5.1246186"><ele>405.75</ele><time>2026-04-18T14:18:01.961Z</time></trkpt><trkpt lat="44.5906705" lon="5.1246941"><ele>407.0</ele><time>2026-04-18T14:18:02.962Z</time></trkpt><trkpt lat="44.5905291" lon="5.1247622"><ele>407.0</ele><time>2026-04-18T14:18:03.962Z</time></trkpt><trkpt lat="44.5903946" lon="5.1248274"><ele>407.0</ele><time>2026-04-18T14:18:04.961Z</time></trkpt><trkpt lat="44.5902634" lon="5.1248972"><ele>407.0</ele><time>2026-04-18T14:18:05.962Z</time></trkpt><trkpt lat="44.59013" lon="5.1249681"><ele>407.0</ele><time>2026-04-18T14:18:06.961Z</time></trkpt><trkpt lat="44.5899999" lon="5.1250488"><ele>405.25</ele><time>2026-04-18T14:18:07.961Z</time></trkpt><trkpt lat="44.5898752" lon="5.1251419"><ele>403.5</ele><time>2026-04-18T14:18:08.961Z</time></trkpt><trkpt lat="44.5897581" lon="5.1252485"><ele>401.75</ele><time>2026-04-18T14:18:09.962Z</time></trkpt><trkpt lat="44.5896384" lon="5.1253612"><ele>400.0</ele><time>2026-04-18T14:18:10.962Z</time></trkpt><trkpt lat="44.589513" lon="5.1254743"><ele>400.6666666666667</ele><time>2026-04-18T14:18:11.962Z</time></trkpt><trkpt lat="44.5893845" lon="5.1255908"><ele>401.33333333333337</ele><time>2026-04-18T14:18:12.962Z</time></trkpt><trkpt lat="44.5892497" lon="5.1257042"><ele>402.0</ele><time>2026-04-18T14:18:13.961Z</time></trkpt><trkpt lat="44.589132" lon="5.1258276"><ele>402.0</ele><time>2026-04-18T14:18:14.962Z</time></trkpt><trkpt lat="44.5890212" lon="5.1259421"><ele>402.0</ele><time>2026-04-18T14:18:15.961Z</time></trkpt><trkpt lat="44.5889328" lon="5.1260687"><ele>402.0</ele><time>2026-04-18T14:18:16.961Z</time></trkpt><trkpt lat="44.5888682" lon="5.1262125"><ele>402.0</ele><time>2026-04-18T14:18:17.962Z</time></trkpt><trkpt lat="44.5888234" lon="5.1263745"><ele>402.0</ele><time>2026-04-18T14:18:18.961Z</time></trkpt><trkpt lat="44.588802" lon="5.1265543"><ele>402.0</ele><time>2026-04-18T14:18:19.961Z</time></trkpt><trkpt lat="44.5887989" lon="5.1267503"><ele>402.0</ele><time>2026-04-18T14:18:20.961Z</time></trkpt><trkpt lat="44.5888093" lon="5.1269731"><ele>402.0</ele><time>2026-04-18T14:18:21.962Z</time></trkpt><trkpt lat="44.5888203" lon="5.1272096"><ele>400.0</ele><time>2026-04-18T14:18:22.961Z</time></trkpt><trkpt lat="44.5888304" lon="5.127466"><ele>398.0</ele><time>2026-04-18T14:18:23.962Z</time></trkpt><trkpt lat="44.5888398" lon="5.1277205"><ele>396.0</ele><time>2026-04-18T14:18:24.961Z</time></trkpt><trkpt lat="44.5888375" lon="5.1279509"><ele>396.0</ele><time>2026-04-18T14:18:25.962Z</time></trkpt><trkpt lat="44.58883" lon="5.1281779"><ele>396.0</ele><time>2026-04-18T14:18:26.962Z</time></trkpt><trkpt lat="44.5888278" lon="5.1284078"><ele>396.0</ele><time>2026-04-18T14:18:27.961Z</time></trkpt><trkpt lat="44.5888199" lon="5.1286317"><ele>395.66666666666663</ele><time>2026-04-18T14:18:28.962Z</time></trkpt><trkpt lat="44.5888136" lon="5.1288596"><ele>395.3333333333333</ele><time>2026-04-18T14:18:29.961Z</time></trkpt><trkpt lat="44.5888068" lon="5.1290709"><ele>395.0</ele><time>2026-04-18T14:18:30.962Z</time></trkpt><trkpt lat="44.5887936" lon="5.1292683"><ele>395.5</ele><time>2026-04-18T14:18:31.96Z</time></trkpt><trkpt lat="44.5887821" lon="5.1294516"><ele>396.0</ele><time>2026-04-18T14:18:32.962Z</time></trkpt><trkpt lat="44.5887718" lon="5.1296214"><ele>396.5</ele><time>2026-04-18T14:18:33.962Z</time></trkpt><trkpt lat="44.5887658" lon="5.1297757"><ele>397.0</ele><time>2026-04-18T14:18:34.962Z</time></trkpt><trkpt lat="44.5887578" lon="5.1299136"><ele>397.00000000000006</ele><time>2026-04-18T14:18:35.962Z</time></trkpt><trkpt lat="44.5887531" lon="5.1300329"><ele>397.0</ele><time>2026-04-18T14:18:36.961Z</time></trkpt><trkpt lat="44.5887477" lon="5.1301449"><ele>397.0</ele><time>2026-04-18T14:18:37.96Z</time></trkpt><trkpt lat="44.5887428" lon="5.1302332"><ele>397.0</ele><time>2026-04-18T14:18:38.962Z</time></trkpt><trkpt lat="44.5887696" lon="5.1303525"><ele>397.00000000000006</ele><time>2026-04-18T14:18:40.961Z</time></trkpt><trkpt lat="44.5888407" lon="5.1304055"><ele>397.0</ele><time>2026-04-18T14:18:42.961Z</time></trkpt><trkpt lat="44.5889466" lon="5.1304662"><ele>397.0</ele><time>2026-04-18T14:18:44.962Z</time></trkpt><trkpt lat="44.5890392" lon="5.130547"><ele>397.0</ele><time>2026-04-18T14:18:46.962Z</time></trkpt><trkpt lat="44.5890908" lon="5.1305989"><ele>397.0</ele><time>2026-04-18T14:18:48.961Z</time></trkpt><trkpt lat="44.5891518" lon="5.1306592"><ele>397.0</ele><time>2026-04-18T14:18:51.961Z</time></trkpt><trkpt lat="44.5892137" lon="5.1307522"><ele>397.0</ele><time>2026-04-18T14:18:53.961Z</time></trkpt><trkpt lat="44.589272" lon="5.1309266"><ele>397.40000000000003</ele><time>2026-04-18T14:18:55.96Z</time></trkpt><trkpt lat="44.5893036" lon="5.1310506"><ele>397.8</ele><time>2026-04-18T14:18:56.961Z</time></trkpt><trkpt lat="44.5893453" lon="5.1311946"><ele>398.2</ele><time>2026-04-18T14:18:57.961Z</time></trkpt><trkpt lat="44.5893841" lon="5.131327"><ele>398.6</ele><time>2026-04-18T14:18:58.961Z</time></trkpt><trkpt lat="44.5894265" lon="5.1314674"><ele>399.0</ele><time>2026-04-18T14:18:59.962Z</time></trkpt><trkpt lat="44.5894695" lon="5.1316117"><ele>400.25</ele><time>2026-04-18T14:19:00.961Z</time></trkpt><trkpt lat="44.5895197" lon="5.1317671"><ele>401.5</ele><time>2026-04-18T14:19:01.961Z</time></trkpt><trkpt lat="44.5895738" lon="5.1319225"><ele>402.75</ele><time>2026-04-18T14:19:02.962Z</time></trkpt><trkpt lat="44.5896381" lon="5.1320605"><ele>404.0</ele><time>2026-04-18T14:19:03.961Z</time></trkpt><trkpt lat="44.5897071" lon="5.1321747"><ele>403.99999999999994</ele><time>2026-04-18T14:19:04.962Z</time></trkpt><trkpt lat="44.5897811" lon="5.1322688"><ele>404.0</ele><time>2026-04-18T14:19:05.962Z</time></trkpt><trkpt lat="44.5898495" lon="5.1323334"><ele>404.0</ele><time>2026-04-18T14:19:06.96Z</time></trkpt><trkpt lat="44.5899083" lon="5.1323764"><ele>404.0</ele><time>2026-04-18T14:19:07.962Z</time></trkpt><trkpt lat="44.589976" lon="5.132468"><ele>403.99999999999994</ele><time>2026-04-18T14:19:09.962Z</time></trkpt><trkpt lat="44.5899625" lon="5.1325917"><ele>404.0</ele><time>2026-04-18T14:19:12.961Z</time></trkpt><trkpt lat="44.589883" lon="5.1326745"><ele>404.1428571428571</ele><time>2026-04-18T14:19:14.962Z</time></trkpt><trkpt lat="44.5898218" lon="5.1327159"><ele>404.2857142857143</ele><time>2026-04-18T14:19:15.961Z</time></trkpt><trkpt lat="44.5897499" lon="5.1327624"><ele>404.42857142857144</ele><time>2026-04-18T14:19:16.962Z</time></trkpt><trkpt lat="44.5896887" lon="5.1328038"><ele>404.57142857142856</ele><time>2026-04-18T14:19:17.96Z</time></trkpt><trkpt lat="44.5896223" lon="5.1328433"><ele>404.7142857142857</ele><time>2026-04-18T14:19:18.961Z</time></trkpt><trkpt lat="44.5895519" lon="5.1328927"><ele>404.85714285714283</ele><time>2026-04-18T14:19:19.962Z</time></trkpt><trkpt lat="44.5894896" lon="5.1329284"><ele>405.0</ele><time>2026-04-18T14:19:20.961Z</time></trkpt><trkpt lat="44.5893903" lon="5.1329927"><ele>404.6</ele><time>2026-04-18T14:19:22.961Z</time></trkpt><trkpt lat="44.5892991" lon="5.1330529"><ele>404.2</ele><time>2026-04-18T14:19:24.961Z</time></trkpt><trkpt lat="44.5892288" lon="5.1330941"><ele>403.79999999999995</ele><time>2026-04-18T14:19:26.962Z</time></trkpt><trkpt lat="44.589301" lon="5.1330773"><ele>403.4</ele><time>2026-04-18T14:19:36.961Z</time></trkpt><trkpt lat="44.5894037" lon="5.1329882"><ele>403.0</ele><time>2026-04-18T14:19:38.961Z</time></trkpt><trkpt lat="44.5894875" lon="5.1329324"><ele>403.4</ele><time>2026-04-18T14:19:39.962Z</time></trkpt><trkpt lat="44.5895695" lon="5.1328746"><ele>403.79999999999995</ele><time>2026-04-18T14:19:40.962Z</time></trkpt><trkpt lat="44.5896639" lon="5.1328167"><ele>404.2</ele><time>2026-04-18T14:19:41.962Z</time></trkpt><trkpt lat="44.5897582" lon="5.132762"><ele>404.6</ele><time>2026-04-18T14:19:42.962Z</time></trkpt><trkpt lat="44.5898477" lon="5.1327005"><ele>405.0</ele><time>2026-04-18T14:19:43.962Z</time></trkpt><trkpt lat="44.5899424" lon="5.1326334"><ele>405.0</ele><time>2026-04-18T14:19:44.96Z</time></trkpt><trkpt lat="44.5900435" lon="5.1325718"><ele>405.0</ele><time>2026-04-18T14:19:45.961Z</time></trkpt><trkpt lat="44.5901476" lon="5.1325031"><ele>405.0</ele><time>2026-04-18T14:19:46.962Z</time></trkpt><trkpt lat="44.5902704" lon="5.132422"><ele>405.0</ele><time>2026-04-18T14:19:47.961Z</time></trkpt><trkpt lat="44.5903994" lon="5.1323341"><ele>405.25</ele><time>2026-04-18T14:19:48.962Z</time></trkpt><trkpt lat="44.5905222" lon="5.1322526"><ele>405.5</ele><time>2026-04-18T14:19:49.962Z</time></trkpt><trkpt lat="44.5906412" lon="5.1321785"><ele>405.75</ele><time>2026-04-18T14:19:50.961Z</time></trkpt><trkpt lat="44.5907484" lon="5.1321063"><ele>406.0</ele><time>2026-04-18T14:19:51.962Z</time></trkpt><trkpt lat="44.5908436" lon="5.1320403"><ele>406.0</ele><time>2026-04-18T14:19:52.962Z</time></trkpt><trkpt lat="44.5909201" lon="5.1319871"><ele>406.0</ele><time>2026-04-18T14:19:53.962Z</time></trkpt><trkpt lat="44.5910103" lon="5.1320111"><ele>406.0</ele><time>2026-04-18T14:19:54.962Z</time></trkpt><trkpt lat="44.5910822" lon="5.1320758"><ele>406.0</ele><time>2026-04-18T14:19:55.962Z</time></trkpt><trkpt lat="44.5911312" lon="5.1321857"><ele>406.0</ele><time>2026-04-18T14:19:56.961Z</time></trkpt><trkpt lat="44.5911616" lon="5.1323376"><ele>406.25</ele><time>2026-04-18T14:19:57.96Z</time></trkpt><trkpt lat="44.5911875" lon="5.1325161"><ele>406.5</ele><time>2026-04-18T14:19:58.962Z</time></trkpt><trkpt lat="44.5912196" lon="5.1327152"><ele>406.75</ele><time>2026-04-18T14:19:59.962Z</time></trkpt><trkpt lat="44.5912533" lon="5.1329457"><ele>407.0</ele><time>2026-04-18T14:20:00.962Z</time></trkpt><trkpt lat="44.5912965" lon="5.1332109"><ele>407.3333333333333</ele><time>2026-04-18T14:20:01.962Z</time></trkpt><trkpt lat="44.5913384" lon="5.1334752"><ele>407.66666666666663</ele><time>2026-04-18T14:20:02.962Z</time></trkpt><trkpt lat="44.5913848" lon="5.1337516"><ele>408.0</ele><time>2026-04-18T14:20:03.962Z</time></trkpt><trkpt lat="44.5914274" lon="5.1340076"><ele>408.0</ele><time>2026-04-18T14:20:04.961Z</time></trkpt><trkpt lat="44.5914623" lon="5.1342559"><ele>408.0</ele><time>2026-04-18T14:20:05.961Z</time></trkpt><trkpt lat="44.5914851" lon="5.1345004"><ele>408.0</ele><time>2026-04-18T14:20:06.962Z</time></trkpt><trkpt lat="44.5915029" lon="5.1347261"><ele>408.0</ele><time>2026-04-18T14:20:07.962Z</time></trkpt><trkpt lat="44.5915308" lon="5.134952"><ele>408.0</ele><time>2026-04-18T14:20:08.962Z</time></trkpt><trkpt lat="44.5915866" lon="5.135169"><ele>408.0</ele><time>2026-04-18T14:20:09.961Z</time></trkpt><trkpt lat="44.5916667" lon="5.1353834"><ele>408.0</ele><time>2026-04-18T14:20:10.961Z</time></trkpt><trkpt lat="44.5917609" lon="5.1356053"><ele>408.0</ele><time>2026-04-18T14:20:11.96Z</time></trkpt><trkpt lat="44.5918635" lon="5.135839"><ele>408.0</ele><time>2026-04-18T14:20:12.961Z</time></trkpt><trkpt lat="44.5919541" lon="5.1360657"><ele>409.66666666666663</ele><time>2026-04-18T14:20:13.961Z</time></trkpt><trkpt lat="44.5920277" lon="5.1362842"><ele>411.3333333333333</ele><time>2026-04-18T14:20:14.961Z</time></trkpt><trkpt lat="44.592094" lon="5.1364937"><ele>413.0</ele><time>2026-04-18T14:20:15.962Z</time></trkpt><trkpt lat="44.5921646" lon="5.1366983"><ele>413.66666666666663</ele><time>2026-04-18T14:20:16.962Z</time></trkpt><trkpt lat="44.5922455" lon="5.1368938"><ele>414.33333333333337</ele><time>2026-04-18T14:20:17.962Z</time></trkpt><trkpt lat="44.5923409" lon="5.1370687"><ele>415.0</ele><time>2026-04-18T14:20:18.96Z</time></trkpt><trkpt lat="44.592454" lon="5.137222"><ele>415.0</ele><time>2026-04-18T14:20:19.962Z</time></trkpt><trkpt lat="44.5925879" lon="5.1373497"><ele>415.0</ele><time>2026-04-18T14:20:20.961Z</time></trkpt><trkpt lat="44.5927258" lon="5.1374584"><ele>415.0</ele><time>2026-04-18T14:20:21.962Z</time></trkpt><trkpt lat="44.5928468" lon="5.1375661"><ele>415.5</ele><time>2026-04-18T14:20:22.961Z</time></trkpt><trkpt lat="44.5929464" lon="5.1376938"><ele>416.0</ele><time>2026-04-18T14:20:23.961Z</time></trkpt><trkpt lat="44.5930243" lon="5.1378347"><ele>416.5</ele><time>2026-04-18T14:20:24.962Z</time></trkpt><trkpt lat="44.5930899" lon="5.1379936"><ele>417.0</ele><time>2026-04-18T14:20:25.961Z</time></trkpt><trkpt lat="44.5931407" lon="5.1381728"><ele>417.66666666666663</ele><time>2026-04-18T14:20:26.96Z</time></trkpt><trkpt lat="44.5931856" lon="5.1383738"><ele>418.3333333333333</ele><time>2026-04-18T14:20:27.96Z</time></trkpt><trkpt lat="44.5932336" lon="5.1385858"><ele>419.0</ele><time>2026-04-18T14:20:28.962Z</time></trkpt><trkpt lat="44.5932788" lon="5.138776"><ele>419.0</ele><time>2026-04-18T14:20:29.962Z</time></trkpt><trkpt lat="44.593337" lon="5.1389558"><ele>419.0</ele><time>2026-04-18T14:20:30.962Z</time></trkpt><trkpt lat="44.5934163" lon="5.1391175"><ele>419.0</ele><time>2026-04-18T14:20:31.961Z</time></trkpt><trkpt lat="44.5935177" lon="5.1392596"><ele>419.0</ele><time>2026-04-18T14:20:32.961Z</time></trkpt><trkpt lat="44.5936224" lon="5.139395"><ele>419.25</ele><time>2026-04-18T14:20:33.961Z</time></trkpt><trkpt lat="44.59373" lon="5.1395221"><ele>419.5</ele><time>2026-04-18T14:20:34.961Z</time></trkpt><trkpt lat="44.5938386" lon="5.1396448"><ele>419.75</ele><time>2026-04-18T14:20:35.962Z</time></trkpt><trkpt lat="44.5939452" lon="5.1397876"><ele>420.0</ele><time>2026-04-18T14:20:36.96Z</time></trkpt><trkpt lat="44.5940292" lon="5.1399536"><ele>420.0</ele><time>2026-04-18T14:20:37.962Z</time></trkpt><trkpt lat="44.5941014" lon="5.1401494"><ele>420.0</ele><time>2026-04-18T14:20:38.962Z</time></trkpt><trkpt lat="44.594164" lon="5.1403684"><ele>420.0</ele><time>2026-04-18T14:20:39.962Z</time></trkpt><trkpt lat="44.5942219" lon="5.1406008"><ele>421.66666666666663</ele><time>2026-04-18T14:20:40.962Z</time></trkpt><trkpt lat="44.5942761" lon="5.1408599"><ele>423.3333333333333</ele><time>2026-04-18T14:20:41.962Z</time></trkpt><trkpt lat="44.5943222" lon="5.1411127"><ele>425.0</ele><time>2026-04-18T14:20:42.962Z</time></trkpt><trkpt lat="44.5943826" lon="5.1413758"><ele>425.66666666666663</ele><time>2026-04-18T14:20:43.961Z</time></trkpt><trkpt lat="44.5944554" lon="5.1416442"><ele>426.33333333333337</ele><time>2026-04-18T14:20:44.961Z</time></trkpt><trkpt lat="44.5945309" lon="5.1418904"><ele>427.0</ele><time>2026-04-18T14:20:45.961Z</time></trkpt><trkpt lat="44.594599" lon="5.1421204"><ele>427.0</ele><time>2026-04-18T14:20:46.96Z</time></trkpt><trkpt lat="44.5946783" lon="5.1423194"><ele>427.0</ele><time>2026-04-18T14:20:47.962Z</time></trkpt><trkpt lat="44.5947745" lon="5.1424874"><ele>427.0</ele><time>2026-04-18T14:20:48.962Z</time></trkpt><trkpt lat="44.5948902" lon="5.14262"><ele>427.25</ele><time>2026-04-18T14:20:49.961Z</time></trkpt><trkpt lat="44.5950229" lon="5.1427137"><ele>427.5</ele><time>2026-04-18T14:20:50.962Z</time></trkpt><trkpt lat="44.5951675" lon="5.1427548"><ele>427.75</ele><time>2026-04-18T14:20:51.962Z</time></trkpt><trkpt lat="44.5953072" lon="5.1427914"><ele>428.0</ele><time>2026-04-18T14:20:52.96Z</time></trkpt><trkpt lat="44.5954591" lon="5.1427654"><ele>429.0</ele><time>2026-04-18T14:20:53.961Z</time></trkpt><trkpt lat="44.5956026" lon="5.1428199"><ele>430.0</ele><time>2026-04-18T14:20:54.962Z</time></trkpt><trkpt lat="44.5957511" lon="5.142909"><ele>431.0</ele><time>2026-04-18T14:20:55.962Z</time></trkpt><trkpt lat="44.5958968" lon="5.1430157"><ele>431.0</ele><time>2026-04-18T14:20:56.961Z</time></trkpt><trkpt lat="44.5960194" lon="5.1431348"><ele>431.0</ele><time>2026-04-18T14:20:57.962Z</time></trkpt><trkpt lat="44.5961177" lon="5.14328"><ele>431.0</ele><time>2026-04-18T14:20:58.962Z</time></trkpt><trkpt lat="44.5961966" lon="5.1434616"><ele>431.0</ele><time>2026-04-18T14:20:59.961Z</time></trkpt><trkpt lat="44.5962525" lon="5.1436734"><ele>435.0</ele><time>2026-04-18T14:21:00.961Z</time></trkpt><trkpt lat="44.5962855" lon="5.1439128"><ele>439.0</ele><time>2026-04-18T14:21:01.962Z</time></trkpt><trkpt lat="44.5963085" lon="5.1441643"><ele>443.0</ele><time>2026-04-18T14:21:02.962Z</time></trkpt><trkpt lat="44.5963401" lon="5.1443953"><ele>443.0</ele><time>2026-04-18T14:21:03.962Z</time></trkpt><trkpt lat="44.5963942" lon="5.1446343"><ele>443.0</ele><time>2026-04-18T14:21:04.961Z</time></trkpt><trkpt lat="44.596461" lon="5.1448836"><ele>443.0</ele><time>2026-04-18T14:21:05.962Z</time></trkpt><trkpt lat="44.5965292" lon="5.1451521"><ele>442.3333333333333</ele><time>2026-04-18T14:21:06.962Z</time></trkpt><trkpt lat="44.5966015" lon="5.1454342"><ele>441.66666666666663</ele><time>2026-04-18T14:21:07.962Z</time></trkpt><trkpt lat="44.5966658" lon="5.1456855"><ele>441.0</ele><time>2026-04-18T14:21:08.961Z</time></trkpt><trkpt lat="44.5967389" lon="5.145889"><ele>440.75</ele><time>2026-04-18T14:21:09.961Z</time></trkpt><trkpt lat="44.5968218" lon="5.1460553"><ele>440.5</ele><time>2026-04-18T14:21:10.961Z</time></trkpt><trkpt lat="44.5969158" lon="5.146179"><ele>440.25</ele><time>2026-04-18T14:21:11.961Z</time></trkpt><trkpt lat="44.5970336" lon="5.146255"><ele>440.0</ele><time>2026-04-18T14:21:12.962Z</time></trkpt><trkpt lat="44.597173" lon="5.1463197"><ele>441.75</ele><time>2026-04-18T14:21:13.962Z</time></trkpt><trkpt lat="44.5973105" lon="5.1463885"><ele>443.5</ele><time>2026-04-18T14:21:14.962Z</time></trkpt><trkpt lat="44.5974334" lon="5.1464843"><ele>445.25</ele><time>2026-04-18T14:21:15.962Z</time></trkpt><trkpt lat="44.597535" lon="5.1466277"><ele>447.0</ele><time>2026-04-18T14:21:16.962Z</time></trkpt><trkpt lat="44.5976268" lon="5.1468113"><ele>447.0</ele><time>2026-04-18T14:21:17.961Z</time></trkpt><trkpt lat="44.597702" lon="5.147027"><ele>447.0</ele><time>2026-04-18T14:21:18.961Z</time></trkpt><trkpt lat="44.5977886" lon="5.1472547"><ele>447.0</ele><time>2026-04-18T14:21:19.961Z</time></trkpt><trkpt lat="44.5978771" lon="5.1474873"><ele>452.0</ele><time>2026-04-18T14:21:20.96Z</time></trkpt><trkpt lat="44.5979688" lon="5.147694"><ele>457.0</ele><time>2026-04-18T14:21:21.961Z</time></trkpt><trkpt lat="44.598062" lon="5.1478776"><ele>462.0</ele><time>2026-04-18T14:21:22.962Z</time></trkpt><trkpt lat="44.5981652" lon="5.1480408"><ele>462.0</ele><time>2026-04-18T14:21:23.962Z</time></trkpt><trkpt lat="44.5982618" lon="5.148197"><ele>462.0</ele><time>2026-04-18T14:21:24.961Z</time></trkpt><trkpt lat="44.598348" lon="5.1483589"><ele>462.0</ele><time>2026-04-18T14:21:25.961Z</time></trkpt><trkpt lat="44.5984208" lon="5.148537"><ele>462.0</ele><time>2026-04-18T14:21:26.96Z</time></trkpt><trkpt lat="44.598473" lon="5.1487351"><ele>460.66666666666663</ele><time>2026-04-18T14:21:27.961Z</time></trkpt><trkpt lat="44.5985005" lon="5.148951"><ele>459.3333333333333</ele><time>2026-04-18T14:21:28.962Z</time></trkpt><trkpt lat="44.5985158" lon="5.1491589"><ele>458.0</ele><time>2026-04-18T14:21:29.961Z</time></trkpt><trkpt lat="44.5985225" lon="5.1493666"><ele>457.25</ele><time>2026-04-18T14:21:30.961Z</time></trkpt><trkpt lat="44.5985216" lon="5.1495705"><ele>456.5</ele><time>2026-04-18T14:21:31.961Z</time></trkpt><trkpt lat="44.5985103" lon="5.1497506"><ele>455.75</ele><time>2026-04-18T14:21:32.961Z</time></trkpt><trkpt lat="44.5984852" lon="5.149914"><ele>455.0</ele><time>2026-04-18T14:21:33.961Z</time></trkpt><trkpt lat="44.598458" lon="5.1500701"><ele>454.5</ele><time>2026-04-18T14:21:34.961Z</time></trkpt><trkpt lat="44.5984572" lon="5.1502183"><ele>454.0</ele><time>2026-04-18T14:21:35.962Z</time></trkpt><trkpt lat="44.5984989" lon="5.1503582"><ele>453.5</ele><time>2026-04-18T14:21:36.962Z</time></trkpt><trkpt lat="44.5985739" lon="5.1504788"><ele>453.0</ele><time>2026-04-18T14:21:37.961Z</time></trkpt><trkpt lat="44.5986833" lon="5.1505831"><ele>454.33333333333337</ele><time>2026-04-18T14:21:38.962Z</time></trkpt><trkpt lat="44.5988051" lon="5.1506985"><ele>455.6666666666667</ele><time>2026-04-18T14:21:39.962Z</time></trkpt><trkpt lat="44.5989365" lon="5.1508299"><ele>457.0</ele><time>2026-04-18T14:21:40.961Z</time></trkpt><trkpt lat="44.5990784" lon="5.1509733"><ele>457.0</ele><time>2026-04-18T14:21:41.96Z</time></trkpt><trkpt lat="44.5992071" lon="5.1511344"><ele>457.0</ele><time>2026-04-18T14:21:42.961Z</time></trkpt><trkpt lat="44.599321" lon="5.1513034"><ele>457.0</ele><time>2026-04-18T14:21:43.961Z</time></trkpt><trkpt lat="44.5994127" lon="5.151477"><ele>458.6666666666667</ele><time>2026-04-18T14:21:44.962Z</time></trkpt><trkpt lat="44.5994872" lon="5.1516639"><ele>460.33333333333337</ele><time>2026-04-18T14:21:45.961Z</time></trkpt><trkpt lat="44.5995409" lon="5.1518616"><ele>462.0</ele><time>2026-04-18T14:21:46.961Z</time></trkpt><trkpt lat="44.599555" lon="5.152099"><ele>467.33333333333337</ele><time>2026-04-18T14:21:47.962Z</time></trkpt><trkpt lat="44.5995539" lon="5.1523528"><ele>472.6666666666667</ele><time>2026-04-18T14:21:48.962Z</time></trkpt><trkpt lat="44.5995439" lon="5.1526082"><ele>478.0</ele><time>2026-04-18T14:21:49.961Z</time></trkpt><trkpt lat="44.5995311" lon="5.1528418"><ele>478.5</ele><time>2026-04-18T14:21:50.962Z</time></trkpt><trkpt lat="44.5995181" lon="5.1530694"><ele>479.0</ele><time>2026-04-18T14:21:51.961Z</time></trkpt><trkpt lat="44.5995081" lon="5.153275"><ele>479.5</ele><time>2026-04-18T14:21:52.961Z</time></trkpt><trkpt lat="44.5994985" lon="5.1534479"><ele>480.0</ele><time>2026-04-18T14:21:53.962Z</time></trkpt><trkpt lat="44.5994841" lon="5.1536074"><ele>477.5</ele><time>2026-04-18T14:21:54.96Z</time></trkpt><trkpt lat="44.5994323" lon="5.153755"><ele>475.0</ele><time>2026-04-18T14:21:55.962Z</time></trkpt><trkpt lat="44.5993533" lon="5.1538985"><ele>472.5</ele><time>2026-04-18T14:21:56.962Z</time></trkpt><trkpt lat="44.5992695" lon="5.1540587"><ele>470.0</ele><time>2026-04-18T14:21:57.962Z</time></trkpt><trkpt lat="44.5991743" lon="5.1542357"><ele>467.66666666666663</ele><time>2026-04-18T14:21:58.962Z</time></trkpt><trkpt lat="44.599072" lon="5.1544264"><ele>465.33333333333337</ele><time>2026-04-18T14:21:59.96Z</time></trkpt><trkpt lat="44.5989625" lon="5.1546334"><ele>463.0</ele><time>2026-04-18T14:22:00.962Z</time></trkpt><trkpt lat="44.5988443" lon="5.1548535"><ele>462.6666666666667</ele><time>2026-04-18T14:22:01.961Z</time></trkpt><trkpt lat="44.5987189" lon="5.1550859"><ele>462.33333333333337</ele><time>2026-04-18T14:22:02.962Z</time></trkpt><trkpt lat="44.5985979" lon="5.1552945"><ele>462.0</ele><time>2026-04-18T14:22:03.962Z</time></trkpt><trkpt lat="44.5984757" lon="5.1554833"><ele>464.0</ele><time>2026-04-18T14:22:04.96Z</time></trkpt><trkpt lat="44.5983552" lon="5.1556802"><ele>466.0</ele><time>2026-04-18T14:22:05.961Z</time></trkpt><trkpt lat="44.5982348" lon="5.1558895"><ele>468.0</ele><time>2026-04-18T14:22:06.961Z</time></trkpt><trkpt lat="44.5981112" lon="5.1561099"><ele>468.0</ele><time>2026-04-18T14:22:07.96Z</time></trkpt><trkpt lat="44.5979969" lon="5.1563229"><ele>468.0</ele><time>2026-04-18T14:22:08.961Z</time></trkpt><trkpt lat="44.5978997" lon="5.1565408"><ele>468.0</ele><time>2026-04-18T14:22:09.962Z</time></trkpt><trkpt lat="44.5978218" lon="5.1567797"><ele>470.33333333333337</ele><time>2026-04-18T14:22:10.962Z</time></trkpt><trkpt lat="44.597765" lon="5.1570472"><ele>472.6666666666667</ele><time>2026-04-18T14:22:11.962Z</time></trkpt><trkpt lat="44.5977028" lon="5.1573139"><ele>475.0</ele><time>2026-04-18T14:22:12.961Z</time></trkpt><trkpt lat="44.597611" lon="5.1575873"><ele>475.0</ele><time>2026-04-18T14:22:13.962Z</time></trkpt><trkpt lat="44.5975115" lon="5.1578384"><ele>475.0</ele><time>2026-04-18T14:22:14.962Z</time></trkpt><trkpt lat="44.5974151" lon="5.1580783"><ele>475.0</ele><time>2026-04-18T14:22:15.961Z</time></trkpt><trkpt lat="44.5973164" lon="5.1583234"><ele>475.0</ele><time>2026-04-18T14:22:16.961Z</time></trkpt><trkpt lat="44.5972166" lon="5.158564"><ele>475.0</ele><time>2026-04-18T14:22:17.962Z</time></trkpt><trkpt lat="44.5971123" lon="5.1588047"><ele>475.0</ele><time>2026-04-18T14:22:18.962Z</time></trkpt><trkpt lat="44.5970097" lon="5.1590416"><ele>475.6666666666667</ele><time>2026-04-18T14:22:19.961Z</time></trkpt><trkpt lat="44.5969119" lon="5.1592609"><ele>476.33333333333337</ele><time>2026-04-18T14:22:20.962Z</time></trkpt><trkpt lat="44.5968102" lon="5.1594655"><ele>477.0</ele><time>2026-04-18T14:22:21.961Z</time></trkpt><trkpt lat="44.5966996" lon="5.1596606"><ele>477.0</ele><time>2026-04-18T14:22:22.961Z</time></trkpt><trkpt lat="44.5965827" lon="5.159852"><ele>477.0</ele><time>2026-04-18T14:22:23.961Z</time></trkpt><trkpt lat="44.5964718" lon="5.1600462"><ele>477.0</ele><time>2026-04-18T14:22:24.96Z</time></trkpt><trkpt lat="44.5963682" lon="5.160212"><ele>477.5</ele><time>2026-04-18T14:22:25.962Z</time></trkpt><trkpt lat="44.5962741" lon="5.1603778"><ele>478.0</ele><time>2026-04-18T14:22:26.962Z</time></trkpt><trkpt lat="44.5962012" lon="5.1605576"><ele>478.5</ele><time>2026-04-18T14:22:27.961Z</time></trkpt><trkpt lat="44.5961465" lon="5.1607446"><ele>479.0</ele><time>2026-04-18T14:22:28.961Z</time></trkpt><trkpt lat="44.5960998" lon="5.1609395"><ele>479.25</ele><time>2026-04-18T14:22:29.961Z</time></trkpt><trkpt lat="44.596051" lon="5.1611313"><ele>479.5</ele><time>2026-04-18T14:22:30.962Z</time></trkpt><trkpt lat="44.5959885" lon="5.1613173"><ele>479.75</ele><time>2026-04-18T14:22:31.962Z</time></trkpt><trkpt lat="44.5959172" lon="5.161481"><ele>480.0</ele><time>2026-04-18T14:22:32.962Z</time></trkpt><trkpt lat="44.5958496" lon="5.1616226"><ele>480.0</ele><time>2026-04-18T14:22:33.961Z</time></trkpt><trkpt lat="44.5957969" lon="5.1617727"><ele>480.0</ele><time>2026-04-18T14:22:34.962Z</time></trkpt><trkpt lat="44.5957629" lon="5.1619379"><ele>480.0</ele><time>2026-04-18T14:22:35.961Z</time></trkpt><trkpt lat="44.5957386" lon="5.1621175"><ele>480.0</ele><time>2026-04-18T14:22:36.961Z</time></trkpt><trkpt lat="44.5957243" lon="5.1623108"><ele>480.75</ele><time>2026-04-18T14:22:37.961Z</time></trkpt><trkpt lat="44.5957183" lon="5.1625123"><ele>481.5</ele><time>2026-04-18T14:22:38.961Z</time></trkpt><trkpt lat="44.5957118" lon="5.1627217"><ele>482.25</ele><time>2026-04-18T14:22:39.962Z</time></trkpt><trkpt lat="44.5957098" lon="5.1629371"><ele>483.0</ele><time>2026-04-18T14:22:40.961Z</time></trkpt><trkpt lat="44.5957265" lon="5.163149"><ele>484.66666666666663</ele><time>2026-04-18T14:22:41.962Z</time></trkpt><trkpt lat="44.5957615" lon="5.1633667"><ele>486.3333333333333</ele><time>2026-04-18T14:22:42.962Z</time></trkpt><trkpt lat="44.595805" lon="5.163593"><ele>488.0</ele><time>2026-04-18T14:22:43.961Z</time></trkpt><trkpt lat="44.5958564" lon="5.1638273"><ele>488.3333333333333</ele><time>2026-04-18T14:22:44.962Z</time></trkpt><trkpt lat="44.5959125" lon="5.1640735"><ele>488.66666666666663</ele><time>2026-04-18T14:22:45.961Z</time></trkpt><trkpt lat="44.5959746" lon="5.1643331"><ele>489.0</ele><time>2026-04-18T14:22:46.961Z</time></trkpt><trkpt lat="44.5960363" lon="5.1645962"><ele>489.0</ele><time>2026-04-18T14:22:47.961Z</time></trkpt><trkpt lat="44.5960998" lon="5.1648524"><ele>489.0</ele><time>2026-04-18T14:22:48.961Z</time></trkpt><trkpt lat="44.5961605" lon="5.1651146"><ele>489.0</ele><time>2026-04-18T14:22:49.961Z</time></trkpt><trkpt lat="44.5962202" lon="5.1653832"><ele>494.0</ele><time>2026-04-18T14:22:50.962Z</time></trkpt><trkpt lat="44.596281" lon="5.165658"><ele>499.0</ele><time>2026-04-18T14:22:51.961Z</time></trkpt><trkpt lat="44.5963435" lon="5.1659466"><ele>504.0</ele><time>2026-04-18T14:22:52.961Z</time></trkpt><trkpt lat="44.5963946" lon="5.1662097"><ele>504.0</ele><time>2026-04-18T14:22:53.961Z</time></trkpt><trkpt lat="44.5964362" lon="5.1664312"><ele>504.0</ele><time>2026-04-18T14:22:54.961Z</time></trkpt><trkpt lat="44.596466" lon="5.1666146"><ele>504.0</ele><time>2026-04-18T14:22:55.961Z</time></trkpt><trkpt lat="44.5964888" lon="5.1667723"><ele>504.0</ele><time>2026-04-18T14:22:56.962Z</time></trkpt><trkpt lat="44.596511" lon="5.1669221"><ele>505.0</ele><time>2026-04-18T14:22:57.962Z</time></trkpt><trkpt lat="44.5965308" lon="5.1670767"><ele>506.0</ele><time>2026-04-18T14:22:58.961Z</time></trkpt><trkpt lat="44.5965554" lon="5.1672415"><ele>507.0</ele><time>2026-04-18T14:22:59.962Z</time></trkpt><trkpt lat="44.5965812" lon="5.1674096"><ele>508.0</ele><time>2026-04-18T14:23:00.961Z</time></trkpt><trkpt lat="44.5966018" lon="5.1675873"><ele>508.0</ele><time>2026-04-18T14:23:01.962Z</time></trkpt><trkpt lat="44.5966244" lon="5.1677658"><ele>508.0</ele><time>2026-04-18T14:23:02.961Z</time></trkpt><trkpt lat="44.5966467" lon="5.1679276"><ele>508.0</ele><time>2026-04-18T14:23:03.962Z</time></trkpt><trkpt lat="44.5966755" lon="5.1680765"><ele>508.0</ele><time>2026-04-18T14:23:04.961Z</time></trkpt><trkpt lat="44.5967268" lon="5.1682106"><ele>507.75</ele><time>2026-04-18T14:23:05.961Z</time></trkpt><trkpt lat="44.596803" lon="5.1683158"><ele>507.5</ele><time>2026-04-18T14:23:06.961Z</time></trkpt><trkpt lat="44.5968942" lon="5.1684115"><ele>507.25</ele><time>2026-04-18T14:23:07.96Z</time></trkpt><trkpt lat="44.5970049" lon="5.1685072"><ele>507.0</ele><time>2026-04-18T14:23:08.959Z</time></trkpt><trkpt lat="44.5971322" lon="5.168587"><ele>509.5</ele><time>2026-04-18T14:23:09.961Z</time></trkpt><trkpt lat="44.5972465" lon="5.1686388"><ele>512.0</ele><time>2026-04-18T14:23:10.96Z</time></trkpt><trkpt lat="44.5973637" lon="5.1686695"><ele>514.5</ele><time>2026-04-18T14:23:11.961Z</time></trkpt><trkpt lat="44.5974813" lon="5.1686607"><ele>517.0</ele><time>2026-04-18T14:23:12.961Z</time></trkpt><trkpt lat="44.5976018" lon="5.1686301"><ele>517.0</ele><time>2026-04-18T14:23:13.96Z</time></trkpt><trkpt lat="44.5977133" lon="5.1686068"><ele>517.0</ele><time>2026-04-18T14:23:14.96Z</time></trkpt><trkpt lat="44.5978208" lon="5.1685971"><ele>517.0</ele><time>2026-04-18T14:23:15.959Z</time></trkpt><trkpt lat="44.5979299" lon="5.1686225"><ele>517.0</ele><time>2026-04-18T14:23:16.959Z</time></trkpt><trkpt lat="44.5980383" lon="5.1687"><ele>518.0</ele><time>2026-04-18T14:23:17.961Z</time></trkpt><trkpt lat="44.5981528" lon="5.1687941"><ele>519.0</ele><time>2026-04-18T14:23:18.96Z</time></trkpt><trkpt lat="44.5982847" lon="5.1689036"><ele>520.0</ele><time>2026-04-18T14:23:19.961Z</time></trkpt><trkpt lat="44.5984264" lon="5.169031"><ele>520.0</ele><time>2026-04-18T14:23:20.961Z</time></trkpt><trkpt lat="44.5985739" lon="5.1691833"><ele>520.0</ele><time>2026-04-18T14:23:21.961Z</time></trkpt><trkpt lat="44.5987099" lon="5.1693239"><ele>520.0</ele><time>2026-04-18T14:23:22.961Z</time></trkpt><trkpt lat="44.5988507" lon="5.1694561"><ele>523.6666666666667</ele><time>2026-04-18T14:23:23.961Z</time></trkpt><trkpt lat="44.5989942" lon="5.1695803"><ele>527.3333333333334</ele><time>2026-04-18T14:23:24.96Z</time></trkpt><trkpt lat="44.5991376" lon="5.1697125"><ele>531.0</ele><time>2026-04-18T14:23:25.96Z</time></trkpt><trkpt lat="44.5992727" lon="5.1698285"><ele>529.75</ele><time>2026-04-18T14:23:26.96Z</time></trkpt><trkpt lat="44.5994009" lon="5.1699339"><ele>528.5</ele><time>2026-04-18T14:23:27.959Z</time></trkpt><trkpt lat="44.599515" lon="5.1700254"><ele>527.25</ele><time>2026-04-18T14:23:28.96Z</time></trkpt><trkpt lat="44.5996212" lon="5.1701013"><ele>526.0</ele><time>2026-04-18T14:23:29.96Z</time></trkpt><trkpt lat="44.5997046" lon="5.1702052"><ele>529.75</ele><time>2026-04-18T14:23:30.96Z</time></trkpt><trkpt lat="44.5997691" lon="5.1703347"><ele>533.5</ele><time>2026-04-18T14:23:31.96Z</time></trkpt><trkpt lat="44.5998441" lon="5.1704547"><ele>537.25</ele><time>2026-04-18T14:23:32.959Z</time></trkpt><trkpt lat="44.5999389" lon="5.1705591"><ele>541.0</ele><time>2026-04-18T14:23:33.96Z</time></trkpt><trkpt lat="44.6000459" lon="5.1706661"><ele>540.25</ele><time>2026-04-18T14:23:34.961Z</time></trkpt><trkpt lat="44.6001724" lon="5.1707707"><ele>539.5</ele><time>2026-04-18T14:23:35.96Z</time></trkpt><trkpt lat="44.6002967" lon="5.1708823"><ele>538.75</ele><time>2026-04-18T14:23:36.961Z</time></trkpt><trkpt lat="44.6003971" lon="5.1710384"><ele>538.0</ele><time>2026-04-18T14:23:37.961Z</time></trkpt><trkpt lat="44.6004911" lon="5.1712242"><ele>538.3333333333334</ele><time>2026-04-18T14:23:38.96Z</time></trkpt><trkpt lat="44.600599" lon="5.1714166"><ele>538.6666666666666</ele><time>2026-04-18T14:23:39.961Z</time></trkpt><trkpt lat="44.600706" lon="5.1715899"><ele>539.0</ele><time>2026-04-18T14:23:40.961Z</time></trkpt><trkpt lat="44.6008016" lon="5.1717545"><ele>539.0</ele><time>2026-04-18T14:23:41.961Z</time></trkpt><trkpt lat="44.6008769" lon="5.1719373"><ele>539.0</ele><time>2026-04-18T14:23:42.961Z</time></trkpt><trkpt lat="44.6009262" lon="5.1721349"><ele>539.0</ele><time>2026-04-18T14:23:43.961Z</time></trkpt><trkpt lat="44.6009801" lon="5.1723432"><ele>539.6666666666666</ele><time>2026-04-18T14:23:44.961Z</time></trkpt><trkpt lat="44.6010574" lon="5.1725348"><ele>540.3333333333334</ele><time>2026-04-18T14:23:45.961Z</time></trkpt><trkpt lat="44.6011565" lon="5.1727196"><ele>541.0</ele><time>2026-04-18T14:23:46.96Z</time></trkpt><trkpt lat="44.6012694" lon="5.1729039"><ele>541.0</ele><time>2026-04-18T14:23:47.959Z</time></trkpt><trkpt lat="44.601395" lon="5.1730815"><ele>541.0</ele><time>2026-04-18T14:23:48.96Z</time></trkpt><trkpt lat="44.6015262" lon="5.1732302"><ele>541.0</ele><time>2026-04-18T14:23:49.961Z</time></trkpt><trkpt lat="44.6016765" lon="5.1733725"><ele>540.6666666666667</ele><time>2026-04-18T14:23:50.961Z</time></trkpt><trkpt lat="44.6018323" lon="5.1735106"><ele>540.3333333333334</ele><time>2026-04-18T14:23:51.961Z</time></trkpt><trkpt lat="44.6019911" lon="5.17364"><ele>540.0</ele><time>2026-04-18T14:23:52.96Z</time></trkpt><trkpt lat="44.6021355" lon="5.1737502"><ele>540.0</ele><time>2026-04-18T14:23:53.96Z</time></trkpt><trkpt lat="44.6022642" lon="5.1738794"><ele>540.0</ele><time>2026-04-18T14:23:54.96Z</time></trkpt><trkpt lat="44.6023847" lon="5.174036"><ele>540.0</ele><time>2026-04-18T14:23:55.961Z</time></trkpt><trkpt lat="44.6025021" lon="5.1742056"><ele>541.6666666666666</ele><time>2026-04-18T14:23:56.961Z</time></trkpt><trkpt lat="44.6026225" lon="5.1743858"><ele>543.3333333333333</ele><time>2026-04-18T14:23:57.959Z</time></trkpt><trkpt lat="44.6027368" lon="5.174555"><ele>545.0</ele><time>2026-04-18T14:23:58.96Z</time></trkpt><trkpt lat="44.6028397" lon="5.1747128"><ele>548.25</ele><time>2026-04-18T14:23:59.961Z</time></trkpt><trkpt lat="44.6029229" lon="5.1748745"><ele>551.5</ele><time>2026-04-18T14:24:00.96Z</time></trkpt><trkpt lat="44.6029846" lon="5.1750445"><ele>554.75</ele><time>2026-04-18T14:24:01.961Z</time></trkpt><trkpt lat="44.6030187" lon="5.175233"><ele>558.0</ele><time>2026-04-18T14:24:02.96Z</time></trkpt><trkpt lat="44.6030254" lon="5.1754218"><ele>558.0</ele><time>2026-04-18T14:24:03.961Z</time></trkpt><trkpt lat="44.6029988" lon="5.1756059"><ele>558.0</ele><time>2026-04-18T14:24:04.959Z</time></trkpt><trkpt lat="44.6029804" lon="5.175772"><ele>558.0</ele><time>2026-04-18T14:24:05.96Z</time></trkpt><trkpt lat="44.6029742" lon="5.175909"><ele>558.0</ele><time>2026-04-18T14:24:06.961Z</time></trkpt><trkpt lat="44.6029789" lon="5.1760278"><ele>558.0</ele><time>2026-04-18T14:24:07.961Z</time></trkpt><trkpt lat="44.6030024" lon="5.1761261"><ele>559.6666666666666</ele><time>2026-04-18T14:24:08.96Z</time></trkpt><trkpt lat="44.6030415" lon="5.1762138"><ele>561.3333333333334</ele><time>2026-04-18T14:24:09.96Z</time></trkpt><trkpt lat="44.6031251" lon="5.1762246"><ele>563.0</ele><time>2026-04-18T14:24:10.96Z</time></trkpt><trkpt lat="44.6032002" lon="5.176211"><ele>564.6666666666667</ele><time>2026-04-18T14:24:11.96Z</time></trkpt><trkpt lat="44.6032737" lon="5.1761503"><ele>566.3333333333334</ele><time>2026-04-18T14:24:12.959Z</time></trkpt><trkpt lat="44.603355" lon="5.1760627"><ele>568.0</ele><time>2026-04-18T14:24:13.961Z</time></trkpt><trkpt lat="44.6034304" lon="5.1759583"><ele>568.0</ele><time>2026-04-18T14:24:14.961Z</time></trkpt><trkpt lat="44.6034856" lon="5.1758075"><ele>568.0</ele><time>2026-04-18T14:24:15.961Z</time></trkpt><trkpt lat="44.6035192" lon="5.175638"><ele>568.0</ele><time>2026-04-18T14:24:16.96Z</time></trkpt><trkpt lat="44.6035382" lon="5.175479"><ele>568.0</ele><time>2026-04-18T14:24:17.961Z</time></trkpt><trkpt lat="44.6035677" lon="5.175358"><ele>568.0</ele><time>2026-04-18T14:24:18.96Z</time></trkpt><trkpt lat="44.6036124" lon="5.1752669"><ele>568.0</ele><time>2026-04-18T14:24:19.961Z</time></trkpt><trkpt lat="44.6036767" lon="5.1752122"><ele>568.0</ele><time>2026-04-18T14:24:20.961Z</time></trkpt><trkpt lat="44.6037613" lon="5.1752039"><ele>568.0</ele><time>2026-04-18T14:24:21.96Z</time></trkpt><trkpt lat="44.6038589" lon="5.1752222"><ele>568.0</ele><time>2026-04-18T14:24:22.96Z</time></trkpt><trkpt lat="44.6039769" lon="5.1752729"><ele>568.0</ele><time>2026-04-18T14:24:23.959Z</time></trkpt><trkpt lat="44.6041029" lon="5.1753607"><ele>568.0</ele><time>2026-04-18T14:24:24.961Z</time></trkpt><trkpt lat="44.6042091" lon="5.1754401"><ele>568.0</ele><time>2026-04-18T14:24:25.96Z</time></trkpt><trkpt lat="44.6042976" lon="5.1754964"><ele>568.0</ele><time>2026-04-18T14:24:26.96Z</time></trkpt><trkpt lat="44.604388" lon="5.1754972"><ele>568.0</ele><time>2026-04-18T14:24:27.961Z</time></trkpt><trkpt lat="44.6044721" lon="5.1754381"><ele>572.75</ele><time>2026-04-18T14:24:28.961Z</time></trkpt><trkpt lat="44.6045455" lon="5.1753311"><ele>577.5</ele><time>2026-04-18T14:24:29.96Z</time></trkpt><trkpt lat="44.6046195" lon="5.1751911"><ele>582.25</ele><time>2026-04-18T14:24:30.961Z</time></trkpt><trkpt lat="44.6046965" lon="5.1750483"><ele>587.0</ele><time>2026-04-18T14:24:31.961Z</time></trkpt><trkpt lat="44.6047734" lon="5.1749273"><ele>582.25</ele><time>2026-04-18T14:24:32.959Z</time></trkpt><trkpt lat="44.6048636" lon="5.1748421"><ele>577.5</ele><time>2026-04-18T14:24:33.96Z</time></trkpt><trkpt lat="44.6049771" lon="5.1747935"><ele>572.75</ele><time>2026-04-18T14:24:34.961Z</time></trkpt><trkpt lat="44.6051096" lon="5.1747524"><ele>568.0</ele><time>2026-04-18T14:24:35.96Z</time></trkpt><trkpt lat="44.6052579" lon="5.1747029"><ele>573.0</ele><time>2026-04-18T14:24:36.96Z</time></trkpt><trkpt lat="44.6054058" lon="5.1746552"><ele>578.0</ele><time>2026-04-18T14:24:37.961Z</time></trkpt><trkpt lat="44.6055497" lon="5.1746376"><ele>583.0</ele><time>2026-04-18T14:24:38.961Z</time></trkpt><trkpt lat="44.6056942" lon="5.1746416"><ele>588.0</ele><time>2026-04-18T14:24:39.961Z</time></trkpt><trkpt lat="44.6058132" lon="5.1746486"><ele>588.0</ele><time>2026-04-18T14:24:40.96Z</time></trkpt><trkpt lat="44.6059307" lon="5.1746261"><ele>588.0</ele><time>2026-04-18T14:24:41.96Z</time></trkpt><trkpt lat="44.6060425" lon="5.1745739"><ele>588.0</ele><time>2026-04-18T14:24:42.96Z</time></trkpt><trkpt lat="44.6061419" lon="5.1744786"><ele>588.0</ele><time>2026-04-18T14:24:43.96Z</time></trkpt><trkpt lat="44.6062386" lon="5.1743426"><ele>588.75</ele><time>2026-04-18T14:24:44.959Z</time></trkpt><trkpt lat="44.6063364" lon="5.174222"><ele>589.5</ele><time>2026-04-18T14:24:45.96Z</time></trkpt><trkpt lat="44.6064619" lon="5.1741343"><ele>590.25</ele><time>2026-04-18T14:24:46.961Z</time></trkpt><trkpt lat="44.6066065" lon="5.1740519"><ele>591.0</ele><time>2026-04-18T14:24:47.961Z</time></trkpt><trkpt lat="44.6067601" lon="5.173966"><ele>591.0</ele><time>2026-04-18T14:24:48.961Z</time></trkpt><trkpt lat="44.6068962" lon="5.1738807"><ele>591.0</ele><time>2026-04-18T14:24:49.961Z</time></trkpt><trkpt lat="44.6070248" lon="5.1737968"><ele>591.0</ele><time>2026-04-18T14:24:50.96Z</time></trkpt><trkpt lat="44.6071643" lon="5.1737343"><ele>591.0</ele><time>2026-04-18T14:24:51.961Z</time></trkpt><trkpt lat="44.6072998" lon="5.1736795"><ele>595.75</ele><time>2026-04-18T14:24:52.961Z</time></trkpt><trkpt lat="44.6074322" lon="5.173618"><ele>600.5</ele><time>2026-04-18T14:24:53.961Z</time></trkpt><trkpt lat="44.6075622" lon="5.1735502"><ele>605.25</ele><time>2026-04-18T14:24:54.961Z</time></trkpt><trkpt lat="44.6076797" lon="5.1734845"><ele>610.0</ele><time>2026-04-18T14:24:55.961Z</time></trkpt><trkpt lat="44.6077843" lon="5.17343"><ele>610.4</ele><time>2026-04-18T14:24:56.961Z</time></trkpt><trkpt lat="44.6078725" lon="5.1733937"><ele>610.8</ele><time>2026-04-18T14:24:57.961Z</time></trkpt><trkpt lat="44.6079695" lon="5.1733906"><ele>611.2</ele><time>2026-04-18T14:24:58.96Z</time></trkpt><trkpt lat="44.6080613" lon="5.1734268"><ele>611.6</ele><time>2026-04-18T14:24:59.961Z</time></trkpt><trkpt lat="44.6081549" lon="5.1734889"><ele>612.0</ele><time>2026-04-18T14:25:00.96Z</time></trkpt><trkpt lat="44.6082644" lon="5.1735505"><ele>612.0</ele><time>2026-04-18T14:25:01.959Z</time></trkpt><trkpt lat="44.6083885" lon="5.1736139"><ele>612.0</ele><time>2026-04-18T14:25:02.961Z</time></trkpt><trkpt lat="44.6085286" lon="5.1736589"><ele>612.0</ele><time>2026-04-18T14:25:03.96Z</time></trkpt><trkpt lat="44.6086872" lon="5.1736729"><ele>612.0</ele><time>2026-04-18T14:25:04.96Z</time></trkpt><trkpt lat="44.6088489" lon="5.1736669"><ele>611.3333333333334</ele><time>2026-04-18T14:25:05.96Z</time></trkpt><trkpt lat="44.6090091" lon="5.1736556"><ele>610.6666666666667</ele><time>2026-04-18T14:25:06.961Z</time></trkpt><trkpt lat="44.6091513" lon="5.173667"><ele>610.0</ele><time>2026-04-18T14:25:07.959Z</time></trkpt><trkpt lat="44.6092951" lon="5.1737272"><ele>610.0</ele><time>2026-04-18T14:25:08.959Z</time></trkpt><trkpt lat="44.6094421" lon="5.1738019"><ele>610.0</ele><time>2026-04-18T14:25:09.96Z</time></trkpt><trkpt lat="44.6095896" lon="5.1738945"><ele>610.0</ele><time>2026-04-18T14:25:10.96Z</time></trkpt><trkpt lat="44.6097442" lon="5.1740053"><ele>617.6666666666667</ele><time>2026-04-18T14:25:11.961Z</time></trkpt><trkpt lat="44.609901" lon="5.1741275"><ele>625.3333333333334</ele><time>2026-04-18T14:25:12.96Z</time></trkpt><trkpt lat="44.6100545" lon="5.1742482"><ele>633.0</ele><time>2026-04-18T14:25:13.96Z</time></trkpt><trkpt lat="44.6102126" lon="5.1743732"><ele>632.25</ele><time>2026-04-18T14:25:14.961Z</time></trkpt><trkpt lat="44.6103469" lon="5.1744919"><ele>631.5</ele><time>2026-04-18T14:25:15.961Z</time></trkpt><trkpt lat="44.6104703" lon="5.1745945"><ele>630.75</ele><time>2026-04-18T14:25:16.961Z</time></trkpt><trkpt lat="44.610603" lon="5.1746475"><ele>630.0</ele><time>2026-04-18T14:25:17.961Z</time></trkpt><trkpt lat="44.6107475" lon="5.1746598"><ele>630.0</ele><time>2026-04-18T14:25:18.96Z</time></trkpt><trkpt lat="44.6108983" lon="5.1746574"><ele>630.0</ele><time>2026-04-18T14:25:19.96Z</time></trkpt><trkpt lat="44.6110557" lon="5.1746478"><ele>630.0</ele><time>2026-04-18T14:25:20.961Z</time></trkpt><trkpt lat="44.6112206" lon="5.1746505"><ele>632.0</ele><time>2026-04-18T14:25:21.961Z</time></trkpt><trkpt lat="44.6113917" lon="5.1746692"><ele>634.0</ele><time>2026-04-18T14:25:22.961Z</time></trkpt><trkpt lat="44.6115644" lon="5.1747005"><ele>636.0</ele><time>2026-04-18T14:25:23.961Z</time></trkpt><trkpt lat="44.6117268" lon="5.1747337"><ele>636.0</ele><time>2026-04-18T14:25:24.96Z</time></trkpt><trkpt lat="44.6118678" lon="5.1747568"><ele>636.0</ele><time>2026-04-18T14:25:25.959Z</time></trkpt><trkpt lat="44.6119825" lon="5.174785"><ele>636.0</ele><time>2026-04-18T14:25:26.961Z</time></trkpt><trkpt lat="44.6120778" lon="5.1748127"><ele>636.0</ele><time>2026-04-18T14:25:27.961Z</time></trkpt><trkpt lat="44.6121602" lon="5.1748264"><ele>636.0</ele><time>2026-04-18T14:25:28.961Z</time></trkpt><trkpt lat="44.6122316" lon="5.1748485"><ele>638.4</ele><time>2026-04-18T14:25:29.959Z</time></trkpt><trkpt lat="44.6122466" lon="5.1749987"><ele>640.8</ele><time>2026-04-18T14:25:31.961Z</time></trkpt><trkpt lat="44.6121851" lon="5.1750456"><ele>643.1999999999999</ele><time>2026-04-18T14:25:32.96Z</time></trkpt><trkpt lat="44.6120953" lon="5.1750462"><ele>645.6</ele><time>2026-04-18T14:25:33.961Z</time></trkpt><trkpt lat="44.6120013" lon="5.1750383"><ele>648.0</ele><time>2026-04-18T14:25:34.961Z</time></trkpt><trkpt lat="44.6118992" lon="5.1750758"><ele>650.25</ele><time>2026-04-18T14:25:35.96Z</time></trkpt><trkpt lat="44.6117842" lon="5.1751468"><ele>652.5</ele><time>2026-04-18T14:25:36.96Z</time></trkpt><trkpt lat="44.611654" lon="5.1752263"><ele>654.75</ele><time>2026-04-18T14:25:37.96Z</time></trkpt><trkpt lat="44.6115193" lon="5.1753127"><ele>657.0</ele><time>2026-04-18T14:25:38.961Z</time></trkpt><trkpt lat="44.6113738" lon="5.1754076"><ele>657.0</ele><time>2026-04-18T14:25:39.96Z</time></trkpt><trkpt lat="44.6112221" lon="5.1754942"><ele>657.0</ele><time>2026-04-18T14:25:40.961Z</time></trkpt><trkpt lat="44.6110518" lon="5.1755517"><ele>657.0</ele><time>2026-04-18T14:25:41.961Z</time></trkpt><trkpt lat="44.6108878" lon="5.1755864"><ele>655.6666666666666</ele><time>2026-04-18T14:25:42.96Z</time></trkpt><trkpt lat="44.61072" lon="5.1755909"><ele>654.3333333333333</ele><time>2026-04-18T14:25:43.96Z</time></trkpt><trkpt lat="44.6105661" lon="5.1755629"><ele>653.0</ele><time>2026-04-18T14:25:44.961Z</time></trkpt><trkpt lat="44.6104249" lon="5.1755366"><ele>654.75</ele><time>2026-04-18T14:25:45.96Z</time></trkpt><trkpt lat="44.6102808" lon="5.1755224"><ele>656.5</ele><time>2026-04-18T14:25:46.961Z</time></trkpt><trkpt lat="44.6101318" lon="5.1755187"><ele>658.25</ele><time>2026-04-18T14:25:47.96Z</time></trkpt><trkpt lat="44.6099835" lon="5.1755277"><ele>660.0</ele><time>2026-04-18T14:25:48.96Z</time></trkpt><trkpt lat="44.6098521" lon="5.1755393"><ele>660.0</ele><time>2026-04-18T14:25:49.961Z</time></trkpt><trkpt lat="44.6097373" lon="5.1755466"><ele>660.0</ele><time>2026-04-18T14:25:50.96Z</time></trkpt><trkpt lat="44.6096352" lon="5.1755522"><ele>660.0</ele><time>2026-04-18T14:25:51.961Z</time></trkpt><trkpt lat="44.6095396" lon="5.1755695"><ele>660.0</ele><time>2026-04-18T14:25:52.959Z</time></trkpt><trkpt lat="44.6094462" lon="5.1756179"><ele>660.0</ele><time>2026-04-18T14:25:53.961Z</time></trkpt><trkpt lat="44.6093579" lon="5.1756849"><ele>663.8333333333334</ele><time>2026-04-18T14:25:54.96Z</time></trkpt><trkpt lat="44.6092705" lon="5.1757504"><ele>667.6666666666666</ele><time>2026-04-18T14:25:55.961Z</time></trkpt><trkpt lat="44.6091962" lon="5.1758151"><ele>671.5</ele><time>2026-04-18T14:25:56.961Z</time></trkpt><trkpt lat="44.6091385" lon="5.1759042"><ele>675.3333333333333</ele><time>2026-04-18T14:25:57.959Z</time></trkpt><trkpt lat="44.6091175" lon="5.1760096"><ele>679.1666666666666</ele><time>2026-04-18T14:25:58.96Z</time></trkpt><trkpt lat="44.6091371" lon="5.1761019"><ele>683.0</ele><time>2026-04-18T14:25:59.96Z</time></trkpt><trkpt lat="44.6091893" lon="5.1761565"><ele>683.0</ele><time>2026-04-18T14:26:00.961Z</time></trkpt><trkpt lat="44.6092638" lon="5.1761631"><ele>683.0</ele><time>2026-04-18T14:26:01.96Z</time></trkpt><trkpt lat="44.6093531" lon="5.1761292"><ele>683.0</ele><time>2026-04-18T14:26:02.96Z</time></trkpt><trkpt lat="44.6094625" lon="5.1760932"><ele>683.0</ele><time>2026-04-18T14:26:03.96Z</time></trkpt><trkpt lat="44.6095876" lon="5.1760808"><ele>683.0</ele><time>2026-04-18T14:26:04.961Z</time></trkpt><trkpt lat="44.6097285" lon="5.1761073"><ele>682.3333333333333</ele><time>2026-04-18T14:26:05.96Z</time></trkpt><trkpt lat="44.6098719" lon="5.176142"><ele>681.6666666666666</ele><time>2026-04-18T14:26:06.961Z</time></trkpt><trkpt lat="44.6100227" lon="5.1761745"><ele>681.0</ele><time>2026-04-18T14:26:07.96Z</time></trkpt><trkpt lat="44.6101794" lon="5.1762077"><ele>680.0</ele><time>2026-04-18T14:26:08.961Z</time></trkpt><trkpt lat="44.6103341" lon="5.1762617"><ele>679.0</ele><time>2026-04-18T14:26:09.96Z</time></trkpt><trkpt lat="44.610491" lon="5.1763335"><ele>678.0</ele><time>2026-04-18T14:26:10.961Z</time></trkpt><trkpt lat="44.6106342" lon="5.1764059"><ele>678.0</ele><time>2026-04-18T14:26:11.961Z</time></trkpt><trkpt lat="44.6107771" lon="5.1764659"><ele>678.0</ele><time>2026-04-18T14:26:12.961Z</time></trkpt><trkpt lat="44.6109303" lon="5.1764811"><ele>678.0</ele><time>2026-04-18T14:26:13.961Z</time></trkpt><trkpt lat="44.6110815" lon="5.1764755"><ele>678.25</ele><time>2026-04-18T14:26:14.96Z</time></trkpt><trkpt lat="44.6112253" lon="5.176496"><ele>678.5</ele><time>2026-04-18T14:26:15.96Z</time></trkpt><trkpt lat="44.6113723" lon="5.1765584"><ele>678.75</ele><time>2026-04-18T14:26:16.959Z</time></trkpt><trkpt lat="44.6115088" lon="5.1766473"><ele>679.0</ele><time>2026-04-18T14:26:17.961Z</time></trkpt><trkpt lat="44.6116411" lon="5.1767568"><ele>684.6666666666667</ele><time>2026-04-18T14:26:18.961Z</time></trkpt><trkpt lat="44.611788" lon="5.1768476"><ele>690.3333333333334</ele><time>2026-04-18T14:26:19.961Z</time></trkpt><trkpt lat="44.6119458" lon="5.1769057"><ele>696.0</ele><time>2026-04-18T14:26:20.961Z</time></trkpt><trkpt lat="44.6120989" lon="5.1769867"><ele>696.0</ele><time>2026-04-18T14:26:21.96Z</time></trkpt><trkpt lat="44.6122507" lon="5.1771022"><ele>696.0</ele><time>2026-04-18T14:26:22.961Z</time></trkpt><trkpt lat="44.6124046" lon="5.1772216"><ele>696.0</ele><time>2026-04-18T14:26:23.961Z</time></trkpt><trkpt lat="44.6125451" lon="5.1773252"><ele>699.0</ele><time>2026-04-18T14:26:24.961Z</time></trkpt><trkpt lat="44.6126707" lon="5.1774171"><ele>702.0</ele><time>2026-04-18T14:26:25.961Z</time></trkpt><trkpt lat="44.6127768" lon="5.1775101"><ele>705.0</ele><time>2026-04-18T14:26:26.96Z</time></trkpt><trkpt lat="44.6128725" lon="5.1776448"><ele>708.0</ele><time>2026-04-18T14:26:27.96Z</time></trkpt><trkpt lat="44.6129533" lon="5.1778049"><ele>708.0</ele><time>2026-04-18T14:26:28.961Z</time></trkpt><trkpt lat="44.6130505" lon="5.177964"><ele>708.0</ele><time>2026-04-18T14:26:29.96Z</time></trkpt><trkpt lat="44.6131661" lon="5.178113"><ele>708.0</ele><time>2026-04-18T14:26:30.959Z</time></trkpt><trkpt lat="44.6132663" lon="5.1782425"><ele>708.0</ele><time>2026-04-18T14:26:31.96Z</time></trkpt><trkpt lat="44.6133554" lon="5.1783585"><ele>711.1666666666666</ele><time>2026-04-18T14:26:32.961Z</time></trkpt><trkpt lat="44.6134246" lon="5.178443"><ele>714.3333333333334</ele><time>2026-04-18T14:26:33.959Z</time></trkpt><trkpt lat="44.6134729" lon="5.1785268"><ele>717.5</ele><time>2026-04-18T14:26:34.96Z</time></trkpt><trkpt lat="44.6134755" lon="5.178624"><ele>720.6666666666667</ele><time>2026-04-18T14:26:35.961Z</time></trkpt><trkpt lat="44.6134311" lon="5.1786885"><ele>723.8333333333334</ele><time>2026-04-18T14:26:36.96Z</time></trkpt><trkpt lat="44.6133516" lon="5.1787007"><ele>727.0</ele><time>2026-04-18T14:26:37.96Z</time></trkpt><trkpt lat="44.6132582" lon="5.1786682"><ele>727.0</ele><time>2026-04-18T14:26:38.961Z</time></trkpt><trkpt lat="44.6131504" lon="5.1786035"><ele>727.0</ele><time>2026-04-18T14:26:39.961Z</time></trkpt><trkpt lat="44.6130198" lon="5.1785245"><ele>727.0</ele><time>2026-04-18T14:26:40.959Z</time></trkpt><trkpt lat="44.6128728" lon="5.1784271"><ele>727.0</ele><time>2026-04-18T14:26:41.96Z</time></trkpt><trkpt lat="44.6127197" lon="5.1783163"><ele>726.3333333333334</ele><time>2026-04-18T14:26:42.961Z</time></trkpt><trkpt lat="44.6125559" lon="5.1781924"><ele>725.6666666666666</ele><time>2026-04-18T14:26:43.96Z</time></trkpt><trkpt lat="44.6124041" lon="5.1780857"><ele>725.0</ele><time>2026-04-18T14:26:44.96Z</time></trkpt><trkpt lat="44.612249" lon="5.1779985"><ele>725.0</ele><time>2026-04-18T14:26:45.961Z</time></trkpt><trkpt lat="44.6120927" lon="5.1779313"><ele>725.0</ele><time>2026-04-18T14:26:46.96Z</time></trkpt><trkpt lat="44.6119211" lon="5.1778757"><ele>725.0</ele><time>2026-04-18T14:26:47.961Z</time></trkpt><trkpt lat="44.6117359" lon="5.1778252"><ele>729.0</ele><time>2026-04-18T14:26:48.961Z</time></trkpt><trkpt lat="44.6115414" lon="5.1778026"><ele>733.0</ele><time>2026-04-18T14:26:49.96Z</time></trkpt><trkpt lat="44.6113374" lon="5.177807"><ele>737.0</ele><time>2026-04-18T14:26:50.961Z</time></trkpt><trkpt lat="44.6111568" lon="5.1778115"><ele>738.6666666666666</ele><time>2026-04-18T14:26:51.96Z</time></trkpt><trkpt lat="44.610986" lon="5.1777979"><ele>740.3333333333334</ele><time>2026-04-18T14:26:52.959Z</time></trkpt><trkpt lat="44.6108156" lon="5.1777788"><ele>742.0</ele><time>2026-04-18T14:26:53.959Z</time></trkpt><trkpt lat="44.6106533" lon="5.177767"><ele>742.0</ele><time>2026-04-18T14:26:54.961Z</time></trkpt><trkpt lat="44.6105101" lon="5.1777607"><ele>742.0</ele><time>2026-04-18T14:26:55.96Z</time></trkpt><trkpt lat="44.6103696" lon="5.177787"><ele>742.0</ele><time>2026-04-18T14:26:56.96Z</time></trkpt><trkpt lat="44.610234" lon="5.1778544"><ele>742.0</ele><time>2026-04-18T14:26:57.961Z</time></trkpt><trkpt lat="44.6101018" lon="5.1779579"><ele>741.6666666666667</ele><time>2026-04-18T14:26:58.959Z</time></trkpt><trkpt lat="44.6099783" lon="5.1780965"><ele>741.3333333333334</ele><time>2026-04-18T14:26:59.96Z</time></trkpt><trkpt lat="44.6098654" lon="5.1782611"><ele>741.0</ele><time>2026-04-18T14:27:00.961Z</time></trkpt><trkpt lat="44.6097681" lon="5.1784354"><ele>750.6666666666667</ele><time>2026-04-18T14:27:01.961Z</time></trkpt><trkpt lat="44.6096765" lon="5.178628"><ele>760.3333333333334</ele><time>2026-04-18T14:27:02.961Z</time></trkpt><trkpt lat="44.6096108" lon="5.1788297"><ele>770.0</ele><time>2026-04-18T14:27:03.961Z</time></trkpt><trkpt lat="44.6095635" lon="5.1790522"><ele>768.75</ele><time>2026-04-18T14:27:04.959Z</time></trkpt><trkpt lat="44.6095227" lon="5.1792728"><ele>767.5</ele><time>2026-04-18T14:27:05.96Z</time></trkpt><trkpt lat="44.6094717" lon="5.1794607"><ele>766.25</ele><time>2026-04-18T14:27:06.961Z</time></trkpt><trkpt lat="44.6094043" lon="5.1796177"><ele>765.0</ele><time>2026-04-18T14:27:07.96Z</time></trkpt><trkpt lat="44.609311" lon="5.1797214"><ele>765.0</ele><time>2026-04-18T14:27:08.96Z</time></trkpt><trkpt lat="44.6091984" lon="5.1797724"><ele>765.0</ele><time>2026-04-18T14:27:09.961Z</time></trkpt><trkpt lat="44.6090684" lon="5.1797985"><ele>765.0</ele><time>2026-04-18T14:27:10.959Z</time></trkpt><trkpt lat="44.6089306" lon="5.1798329"><ele>765.0</ele><time>2026-04-18T14:27:11.961Z</time></trkpt><trkpt lat="44.6087827" lon="5.1798793"><ele>771.0</ele><time>2026-04-18T14:27:12.96Z</time></trkpt><trkpt lat="44.6086327" lon="5.1799519"><ele>777.0</ele><time>2026-04-18T14:27:13.96Z</time></trkpt><trkpt lat="44.6084844" lon="5.1800457"><ele>783.0</ele><time>2026-04-18T14:27:14.959Z</time></trkpt><trkpt lat="44.6083359" lon="5.1801381"><ele>783.0</ele><time>2026-04-18T14:27:15.96Z</time></trkpt><trkpt lat="44.608191" lon="5.1802305"><ele>783.0</ele><time>2026-04-18T14:27:16.96Z</time></trkpt><trkpt lat="44.6080662" lon="5.1803179"><ele>783.0</ele><time>2026-04-18T14:27:17.961Z</time></trkpt><trkpt lat="44.6079467" lon="5.1804131"><ele>783.0</ele><time>2026-04-18T14:27:18.96Z</time></trkpt><trkpt lat="44.6078388" lon="5.1805292"><ele>784.4</ele><time>2026-04-18T14:27:19.959Z</time></trkpt><trkpt lat="44.6077508" lon="5.1806676"><ele>785.8</ele><time>2026-04-18T14:27:20.961Z</time></trkpt><trkpt lat="44.6076768" lon="5.180795"><ele>787.2</ele><time>2026-04-18T14:27:21.961Z</time></trkpt><trkpt lat="44.6076203" lon="5.1809129"><ele>788.6</ele><time>2026-04-18T14:27:22.961Z</time></trkpt><trkpt lat="44.6075917" lon="5.1810107"><ele>790.0</ele><time>2026-04-18T14:27:23.96Z</time></trkpt><trkpt lat="44.6076566" lon="5.1811384"><ele>790.0</ele><time>2026-04-18T14:27:25.96Z</time></trkpt><trkpt lat="44.6077266" lon="5.1811229"><ele>790.0</ele><time>2026-04-18T14:27:26.961Z</time></trkpt><trkpt lat="44.6078096" lon="5.1810765"><ele>790.0</ele><time>2026-04-18T14:27:27.961Z</time></trkpt><trkpt lat="44.6079124" lon="5.1810039"><ele>790.0</ele><time>2026-04-18T14:27:28.961Z</time></trkpt><trkpt lat="44.608026" lon="5.1809336"><ele>790.0</ele><time>2026-04-18T14:27:29.961Z</time></trkpt><trkpt lat="44.6081651" lon="5.1808807"><ele>795.3333333333333</ele><time>2026-04-18T14:27:30.96Z</time></trkpt><trkpt lat="44.6083149" lon="5.1808351"><ele>800.6666666666667</ele><time>2026-04-18T14:27:31.961Z</time></trkpt><trkpt lat="44.6084727" lon="5.180799"><ele>806.0</ele><time>2026-04-18T14:27:32.961Z</time></trkpt><trkpt lat="44.6086409" lon="5.1807612"><ele>807.3333333333334</ele><time>2026-04-18T14:27:33.961Z</time></trkpt><trkpt lat="44.6088105" lon="5.1807527"><ele>808.6666666666667</ele><time>2026-04-18T14:27:34.96Z</time></trkpt><trkpt lat="44.6089876" lon="5.1807796"><ele>810.0</ele><time>2026-04-18T14:27:35.961Z</time></trkpt><trkpt lat="44.6091576" lon="5.1808305"><ele>810.0</ele><time>2026-04-18T14:27:36.961Z</time></trkpt><trkpt lat="44.6093365" lon="5.1808907"><ele>810.0</ele><time>2026-04-18T14:27:37.961Z</time></trkpt><trkpt lat="44.609517" lon="5.1809675"><ele>810.0</ele><time>2026-04-18T14:27:38.96Z</time></trkpt><trkpt lat="44.6096921" lon="5.1810662"><ele>810.6666666666667</ele><time>2026-04-18T14:27:39.96Z</time></trkpt><trkpt lat="44.6098765" lon="5.1811528"><ele>811.3333333333334</ele><time>2026-04-18T14:27:40.961Z</time></trkpt><trkpt lat="44.6100709" lon="5.1812168"><ele>812.0</ele><time>2026-04-18T14:27:41.961Z</time></trkpt><trkpt lat="44.6102716" lon="5.1812689"><ele>813.6666666666667</ele><time>2026-04-18T14:27:42.96Z</time></trkpt><trkpt lat="44.6104707" lon="5.1813279"><ele>815.3333333333333</ele><time>2026-04-18T14:27:43.96Z</time></trkpt><trkpt lat="44.6106505" lon="5.181378"><ele>817.0</ele><time>2026-04-18T14:27:44.961Z</time></trkpt><trkpt lat="44.6108159" lon="5.1814206"><ele>817.0</ele><time>2026-04-18T14:27:45.961Z</time></trkpt><trkpt lat="44.6109534" lon="5.1814439"><ele>817.0</ele><time>2026-04-18T14:27:46.961Z</time></trkpt><trkpt lat="44.611079" lon="5.1814438"><ele>817.0</ele><time>2026-04-18T14:27:47.96Z</time></trkpt><trkpt lat="44.6111873" lon="5.1814379"><ele>817.0</ele><time>2026-04-18T14:27:48.961Z</time></trkpt><trkpt lat="44.6112753" lon="5.181441"><ele>817.6666666666666</ele><time>2026-04-18T14:27:49.961Z</time></trkpt><trkpt lat="44.6113501" lon="5.1814896"><ele>818.3333333333333</ele><time>2026-04-18T14:27:50.96Z</time></trkpt><trkpt lat="44.6113863" lon="5.1815793"><ele>819.0</ele><time>2026-04-18T14:27:51.96Z</time></trkpt><trkpt lat="44.6113685" lon="5.1816795"><ele>819.6666666666667</ele><time>2026-04-18T14:27:52.961Z</time></trkpt><trkpt lat="44.6113127" lon="5.1817659"><ele>820.3333333333334</ele><time>2026-04-18T14:27:53.961Z</time></trkpt><trkpt lat="44.6112315" lon="5.1818522"><ele>821.0</ele><time>2026-04-18T14:27:54.961Z</time></trkpt><trkpt lat="44.6111317" lon="5.181939"><ele>823.0</ele><time>2026-04-18T14:27:55.961Z</time></trkpt><trkpt lat="44.6110141" lon="5.1820327"><ele>825.0</ele><time>2026-04-18T14:27:56.961Z</time></trkpt><trkpt lat="44.6108825" lon="5.1821346"><ele>827.0</ele><time>2026-04-18T14:27:57.961Z</time></trkpt><trkpt lat="44.6107483" lon="5.182237"><ele>829.0</ele><time>2026-04-18T14:27:58.961Z</time></trkpt><trkpt lat="44.6106053" lon="5.1823414"><ele>833.3333333333333</ele><time>2026-04-18T14:27:59.961Z</time></trkpt><trkpt lat="44.6104564" lon="5.1824631"><ele>837.6666666666667</ele><time>2026-04-18T14:28:00.961Z</time></trkpt><trkpt lat="44.6103027" lon="5.1825893"><ele>842.0</ele><time>2026-04-18T14:28:01.96Z</time></trkpt><trkpt lat="44.6101499" lon="5.1827074"><ele>842.0</ele><time>2026-04-18T14:28:02.96Z</time></trkpt><trkpt lat="44.6100036" lon="5.1828145"><ele>842.0</ele><time>2026-04-18T14:28:03.96Z</time></trkpt><trkpt lat="44.6098693" lon="5.1829435"><ele>842.0</ele><time>2026-04-18T14:28:04.96Z</time></trkpt><trkpt lat="44.609751" lon="5.183088"><ele>845.6666666666667</ele><time>2026-04-18T14:28:05.961Z</time></trkpt><trkpt lat="44.6096273" lon="5.1832174"><ele>849.3333333333333</ele><time>2026-04-18T14:28:06.961Z</time></trkpt><trkpt lat="44.6094919" lon="5.1833252"><ele>853.0</ele><time>2026-04-18T14:28:07.959Z</time></trkpt><trkpt lat="44.609372" lon="5.1834262"><ele>853.0</ele><time>2026-04-18T14:28:08.96Z</time></trkpt><trkpt lat="44.6092573" lon="5.1835241"><ele>853.0</ele><time>2026-04-18T14:28:09.961Z</time></trkpt><trkpt lat="44.6091551" lon="5.1836037"><ele>853.0</ele><time>2026-04-18T14:28:10.959Z</time></trkpt><trkpt lat="44.6090678" lon="5.1836745"><ele>853.0</ele><time>2026-04-18T14:28:11.961Z</time></trkpt><trkpt lat="44.6090109" lon="5.1837689"><ele>853.0</ele><time>2026-04-18T14:28:12.96Z</time></trkpt><trkpt lat="44.6089621" lon="5.1838683"><ele>853.0</ele><time>2026-04-18T14:28:13.961Z</time></trkpt><trkpt lat="44.60904" lon="5.1839795"><ele>853.0</ele><time>2026-04-18T14:28:14.961Z</time></trkpt><trkpt lat="44.6091051" lon="5.1840392"><ele>853.0</ele><time>2026-04-18T14:28:15.96Z</time></trkpt><trkpt lat="44.6091989" lon="5.1840725"><ele>853.0</ele><time>2026-04-18T14:28:16.961Z</time></trkpt><trkpt lat="44.6093075" lon="5.1840947"><ele>853.0</ele><time>2026-04-18T14:28:17.96Z</time></trkpt><trkpt lat="44.6094296" lon="5.1841033"><ele>854.5</ele><time>2026-04-18T14:28:18.96Z</time></trkpt><trkpt lat="44.6095611" lon="5.1840695"><ele>856.0</ele><time>2026-04-18T14:28:19.961Z</time></trkpt><trkpt lat="44.6097027" lon="5.1840189"><ele>857.5</ele><time>2026-04-18T14:28:20.96Z</time></trkpt><trkpt lat="44.6098637" lon="5.1839726"><ele>859.0</ele><time>2026-04-18T14:28:21.959Z</time></trkpt><trkpt lat="44.6100394" lon="5.1839451"><ele>859.0</ele><time>2026-04-18T14:28:22.96Z</time></trkpt><trkpt lat="44.6102246" lon="5.1839216"><ele>859.0</ele><time>2026-04-18T14:28:23.96Z</time></trkpt><trkpt lat="44.6104034" lon="5.1838922"><ele>859.0</ele><time>2026-04-18T14:28:24.961Z</time></trkpt><trkpt lat="44.6105827" lon="5.1838473"><ele>861.0</ele><time>2026-04-18T14:28:25.961Z</time></trkpt><trkpt lat="44.6107645" lon="5.1837732"><ele>863.0</ele><time>2026-04-18T14:28:26.96Z</time></trkpt><trkpt lat="44.6109447" lon="5.18369"><ele>865.0</ele><time>2026-04-18T14:28:27.961Z</time></trkpt><trkpt lat="44.6111302" lon="5.1836164"><ele>869.3333333333333</ele><time>2026-04-18T14:28:28.959Z</time></trkpt><trkpt lat="44.6113195" lon="5.1835541"><ele>873.6666666666667</ele><time>2026-04-18T14:28:29.961Z</time></trkpt><trkpt lat="44.6115107" lon="5.1835024"><ele>878.0</ele><time>2026-04-18T14:28:30.961Z</time></trkpt><trkpt lat="44.6116917" lon="5.1834629"><ele>878.0</ele><time>2026-04-18T14:28:31.959Z</time></trkpt><trkpt lat="44.6118643" lon="5.1834369"><ele>878.0</ele><time>2026-04-18T14:28:32.959Z</time></trkpt><trkpt lat="44.6120367" lon="5.1834345"><ele>878.0</ele><time>2026-04-18T14:28:33.959Z</time></trkpt><trkpt lat="44.6122097" lon="5.1834619"><ele>882.3333333333334</ele><time>2026-04-18T14:28:34.959Z</time></trkpt><trkpt lat="44.6123836" lon="5.1835039"><ele>886.6666666666667</ele><time>2026-04-18T14:28:35.959Z</time></trkpt><trkpt lat="44.6125631" lon="5.1835401"><ele>891.0</ele><time>2026-04-18T14:28:36.96Z</time></trkpt><trkpt lat="44.6127414" lon="5.1835441"><ele>893.3333333333333</ele><time>2026-04-18T14:28:37.959Z</time></trkpt><trkpt lat="44.6129244" lon="5.1835128"><ele>895.6666666666666</ele><time>2026-04-18T14:28:38.958Z</time></trkpt><trkpt lat="44.613099" lon="5.1834715"><ele>898.0</ele><time>2026-04-18T14:28:39.96Z</time></trkpt><trkpt lat="44.6132621" lon="5.1834374"><ele>898.0</ele><time>2026-04-18T14:28:40.958Z</time></trkpt><trkpt lat="44.6134057" lon="5.1833716"><ele>898.0</ele><time>2026-04-18T14:28:41.959Z</time></trkpt><trkpt lat="44.6135323" lon="5.1832745"><ele>898.0</ele><time>2026-04-18T14:28:42.96Z</time></trkpt><trkpt lat="44.6136654" lon="5.1831904"><ele>898.0</ele><time>2026-04-18T14:28:43.96Z</time></trkpt><trkpt lat="44.6138118" lon="5.1831502"><ele>893.0</ele><time>2026-04-18T14:28:44.96Z</time></trkpt><trkpt lat="44.6139645" lon="5.1831413"><ele>888.0</ele><time>2026-04-18T14:28:45.959Z</time></trkpt><trkpt lat="44.6141214" lon="5.1831602"><ele>883.0</ele><time>2026-04-18T14:28:46.96Z</time></trkpt><trkpt lat="44.6142816" lon="5.1831985"><ele>886.0</ele><time>2026-04-18T14:28:47.96Z</time></trkpt><trkpt lat="44.6144473" lon="5.1831986"><ele>889.0</ele><time>2026-04-18T14:28:48.96Z</time></trkpt><trkpt lat="44.614617" lon="5.1831705"><ele>892.0</ele><time>2026-04-18T14:28:49.96Z</time></trkpt><trkpt lat="44.6147909" lon="5.1831231"><ele>892.0</ele><time>2026-04-18T14:28:50.959Z</time></trkpt><trkpt lat="44.614962" lon="5.183061"><ele>892.0</ele><time>2026-04-18T14:28:51.959Z</time></trkpt><trkpt lat="44.6151131" lon="5.1829959"><ele>892.0</ele><time>2026-04-18T14:28:52.958Z</time></trkpt><trkpt lat="44.6152601" lon="5.1829133"><ele>897.6666666666666</ele><time>2026-04-18T14:28:53.959Z</time></trkpt><trkpt lat="44.6154117" lon="5.1828469"><ele>903.3333333333333</ele><time>2026-04-18T14:28:54.96Z</time></trkpt><trkpt lat="44.6155697" lon="5.1828013"><ele>909.0</ele><time>2026-04-18T14:28:55.96Z</time></trkpt><trkpt lat="44.615734" lon="5.1827739"><ele>909.0</ele><time>2026-04-18T14:28:56.96Z</time></trkpt><trkpt lat="44.6159026" lon="5.1827693"><ele>909.0</ele><time>2026-04-18T14:28:57.959Z</time></trkpt><trkpt lat="44.6160763" lon="5.1827946"><ele>909.0</ele><time>2026-04-18T14:28:58.959Z</time></trkpt><trkpt lat="44.6162539" lon="5.1828325"><ele>910.3333333333333</ele><time>2026-04-18T14:28:59.96Z</time></trkpt><trkpt lat="44.6164365" lon="5.1828745"><ele>911.6666666666666</ele><time>2026-04-18T14:29:00.96Z</time></trkpt><trkpt lat="44.616624" lon="5.1829177"><ele>913.0</ele><time>2026-04-18T14:29:01.96Z</time></trkpt><trkpt lat="44.6168158" lon="5.182962"><ele>914.3333333333333</ele><time>2026-04-18T14:29:02.959Z</time></trkpt><trkpt lat="44.6170146" lon="5.183001"><ele>915.6666666666667</ele><time>2026-04-18T14:29:03.959Z</time></trkpt><trkpt lat="44.6172165" lon="5.1830391"><ele>917.0</ele><time>2026-04-18T14:29:04.959Z</time></trkpt><trkpt lat="44.6174254" lon="5.1830741"><ele>917.0</ele><time>2026-04-18T14:29:05.96Z</time></trkpt><trkpt lat="44.6176423" lon="5.1831118"><ele>917.0</ele><time>2026-04-18T14:29:06.96Z</time></trkpt><trkpt lat="44.6178598" lon="5.1831474"><ele>917.0</ele><time>2026-04-18T14:29:07.96Z</time></trkpt><trkpt lat="44.6180722" lon="5.1831791"><ele>927.6666666666667</ele><time>2026-04-18T14:29:08.959Z</time></trkpt><trkpt lat="44.618274" lon="5.1832057"><ele>938.3333333333333</ele><time>2026-04-18T14:29:09.959Z</time></trkpt><trkpt lat="44.6184673" lon="5.1832316"><ele>949.0</ele><time>2026-04-18T14:29:10.959Z</time></trkpt><trkpt lat="44.6186516" lon="5.1832548"><ele>950.3333333333333</ele><time>2026-04-18T14:29:11.96Z</time></trkpt><trkpt lat="44.618831" lon="5.1832783"><ele>951.6666666666667</ele><time>2026-04-18T14:29:12.96Z</time></trkpt><trkpt lat="44.619004" lon="5.1833098"><ele>953.0</ele><time>2026-04-18T14:29:13.96Z</time></trkpt><trkpt lat="44.6191731" lon="5.1833468"><ele>953.0</ele><time>2026-04-18T14:29:14.96Z</time></trkpt><trkpt lat="44.6193359" lon="5.1833896"><ele>953.0</ele><time>2026-04-18T14:29:15.96Z</time></trkpt><trkpt lat="44.6194949" lon="5.1834482"><ele>953.0</ele><time>2026-04-18T14:29:16.959Z</time></trkpt><trkpt lat="44.6196423" lon="5.1835318"><ele>954.3333333333334</ele><time>2026-04-18T14:29:17.959Z</time></trkpt><trkpt lat="44.6197767" lon="5.1836459"><ele>955.6666666666667</ele><time>2026-04-18T14:29:18.96Z</time></trkpt><trkpt lat="44.6199017" lon="5.1837869"><ele>957.0</ele><time>2026-04-18T14:29:19.959Z</time></trkpt><trkpt lat="44.6200211" lon="5.1839459"><ele>955.0</ele><time>2026-04-18T14:29:20.96Z</time></trkpt><trkpt lat="44.6201398" lon="5.1841174"><ele>953.0</ele><time>2026-04-18T14:29:21.959Z</time></trkpt><trkpt lat="44.620257" lon="5.1842963"><ele>951.0</ele><time>2026-04-18T14:29:22.959Z</time></trkpt><trkpt lat="44.6203725" lon="5.1844917"><ele>951.0</ele><time>2026-04-18T14:29:23.96Z</time></trkpt><trkpt lat="44.6204872" lon="5.184697"><ele>951.0</ele><time>2026-04-18T14:29:24.959Z</time></trkpt><trkpt lat="44.6205949" lon="5.184897"><ele>951.0</ele><time>2026-04-18T14:29:25.959Z</time></trkpt><trkpt lat="44.6206905" lon="5.1850998"><ele>953.3333333333333</ele><time>2026-04-18T14:29:26.96Z</time></trkpt><trkpt lat="44.620776" lon="5.1853171"><ele>955.6666666666666</ele><time>2026-04-18T14:29:27.959Z</time></trkpt><trkpt lat="44.6208487" lon="5.1855376"><ele>958.0</ele><time>2026-04-18T14:29:28.959Z</time></trkpt><trkpt lat="44.6209262" lon="5.1857544"><ele>953.6666666666666</ele><time>2026-04-18T14:29:29.959Z</time></trkpt><trkpt lat="44.6210274" lon="5.1859413"><ele>949.3333333333333</ele><time>2026-04-18T14:29:30.959Z</time></trkpt><trkpt lat="44.6211291" lon="5.1861222"><ele>945.0</ele><time>2026-04-18T14:29:31.959Z</time></trkpt><trkpt lat="44.6212085" lon="5.1863267"><ele>950.3333333333333</ele><time>2026-04-18T14:29:32.959Z</time></trkpt><trkpt lat="44.6212728" lon="5.1865432"><ele>955.6666666666666</ele><time>2026-04-18T14:29:33.958Z</time></trkpt><trkpt lat="44.6213408" lon="5.1867687"><ele>961.0</ele><time>2026-04-18T14:29:34.958Z</time></trkpt><trkpt lat="44.621401" lon="5.1869978"><ele>961.0</ele><time>2026-04-18T14:29:35.96Z</time></trkpt><trkpt lat="44.6214664" lon="5.1872351"><ele>961.0</ele><time>2026-04-18T14:29:36.959Z</time></trkpt><trkpt lat="44.6215319" lon="5.1874761"><ele>961.0</ele><time>2026-04-18T14:29:37.96Z</time></trkpt><trkpt lat="44.6215939" lon="5.1877248"><ele>966.0</ele><time>2026-04-18T14:29:38.96Z</time></trkpt><trkpt lat="44.621653" lon="5.1879777"><ele>971.0</ele><time>2026-04-18T14:29:39.959Z</time></trkpt><trkpt lat="44.6217062" lon="5.1882393"><ele>976.0</ele><time>2026-04-18T14:29:40.96Z</time></trkpt><trkpt lat="44.6217516" lon="5.1885123"><ele>980.3333333333333</ele><time>2026-04-18T14:29:41.958Z</time></trkpt><trkpt lat="44.6217988" lon="5.1887878"><ele>984.6666666666667</ele><time>2026-04-18T14:29:42.96Z</time></trkpt><trkpt lat="44.6218511" lon="5.1890763"><ele>989.0</ele><time>2026-04-18T14:29:43.96Z</time></trkpt><trkpt lat="44.6219015" lon="5.1893698"><ele>993.0</ele><time>2026-04-18T14:29:44.96Z</time></trkpt><trkpt lat="44.62195" lon="5.1896614"><ele>997.0</ele><time>2026-04-18T14:29:45.959Z</time></trkpt><trkpt lat="44.6219963" lon="5.1899622"><ele>1001.0</ele><time>2026-04-18T14:29:46.96Z</time></trkpt><trkpt lat="44.6220348" lon="5.1902647"><ele>996.0</ele><time>2026-04-18T14:29:47.96Z</time></trkpt><trkpt lat="44.6220708" lon="5.1905735"><ele>991.0</ele><time>2026-04-18T14:29:48.959Z</time></trkpt><trkpt lat="44.6221024" lon="5.1908781"><ele>986.0</ele><time>2026-04-18T14:29:49.959Z</time></trkpt><trkpt lat="44.622129" lon="5.1911576"><ele>986.0</ele><time>2026-04-18T14:29:50.959Z</time></trkpt><trkpt lat="44.6221534" lon="5.1914142"><ele>986.0</ele><time>2026-04-18T14:29:51.96Z</time></trkpt><trkpt lat="44.6221829" lon="5.1916417"><ele>986.0</ele><time>2026-04-18T14:29:52.959Z</time></trkpt><trkpt lat="44.6222247" lon="5.1918396"><ele>988.25</ele><time>2026-04-18T14:29:53.96Z</time></trkpt><trkpt lat="44.6222864" lon="5.1920159"><ele>990.5</ele><time>2026-04-18T14:29:54.96Z</time></trkpt><trkpt lat="44.6223746" lon="5.1921573"><ele>992.75</ele><time>2026-04-18T14:29:55.959Z</time></trkpt><trkpt lat="44.6224858" lon="5.1922609"><ele>995.0</ele><time>2026-04-18T14:29:56.959Z</time></trkpt><trkpt lat="44.622616" lon="5.1923209"><ele>995.0</ele><time>2026-04-18T14:29:57.959Z</time></trkpt><trkpt lat="44.6227582" lon="5.1923654"><ele>995.0</ele><time>2026-04-18T14:29:58.959Z</time></trkpt><trkpt lat="44.6228953" lon="5.1924212"><ele>995.0</ele><time>2026-04-18T14:29:59.959Z</time></trkpt><trkpt lat="44.6230196" lon="5.1925453"><ele>995.0</ele><time>2026-04-18T14:30:00.959Z</time></trkpt><trkpt lat="44.6231301" lon="5.1926913"><ele>995.0</ele><time>2026-04-18T14:30:01.96Z</time></trkpt><trkpt lat="44.6232235" lon="5.1928634"><ele>995.0</ele><time>2026-04-18T14:30:02.96Z</time></trkpt><trkpt lat="44.6232999" lon="5.1930685"><ele>995.0</ele><time>2026-04-18T14:30:03.959Z</time></trkpt><trkpt lat="44.6233627" lon="5.1932788"><ele>1001.25</ele><time>2026-04-18T14:30:04.959Z</time></trkpt><trkpt lat="44.623412" lon="5.19348"><ele>1007.5</ele><time>2026-04-18T14:30:05.96Z</time></trkpt><trkpt lat="44.6234387" lon="5.1936864"><ele>1013.75</ele><time>2026-04-18T14:30:06.96Z</time></trkpt><trkpt lat="44.6234631" lon="5.1938863"><ele>1020.0</ele><time>2026-04-18T14:30:07.96Z</time></trkpt><trkpt lat="44.6234946" lon="5.1940719"><ele>1023.0</ele><time>2026-04-18T14:30:08.959Z</time></trkpt><trkpt lat="44.6235216" lon="5.1942347"><ele>1026.0</ele><time>2026-04-18T14:30:09.959Z</time></trkpt><trkpt lat="44.6235525" lon="5.1943878"><ele>1029.0</ele><time>2026-04-18T14:30:10.959Z</time></trkpt><trkpt lat="44.6236025" lon="5.1945417"><ele>1032.0</ele><time>2026-04-18T14:30:11.959Z</time></trkpt><trkpt lat="44.6236503" lon="5.1946965"><ele>1025.75</ele><time>2026-04-18T14:30:12.959Z</time></trkpt><trkpt lat="44.6237648" lon="5.194755"><ele>1019.5</ele><time>2026-04-18T14:30:13.96Z</time></trkpt><trkpt lat="44.6238362" lon="5.1948889"><ele>1013.25</ele><time>2026-04-18T14:30:14.959Z</time></trkpt><trkpt lat="44.6238758" lon="5.1950506"><ele>1007.0</ele><time>2026-04-18T14:30:15.959Z</time></trkpt><trkpt lat="44.6238974" lon="5.1952265"><ele>1007.0</ele><time>2026-04-18T14:30:16.96Z</time></trkpt><trkpt lat="44.6239226" lon="5.1954151"><ele>1007.0</ele><time>2026-04-18T14:30:17.96Z</time></trkpt><trkpt lat="44.623953" lon="5.1956026"><ele>1007.0</ele><time>2026-04-18T14:30:18.96Z</time></trkpt><trkpt lat="44.6239927" lon="5.195797"><ele>1007.0</ele><time>2026-04-18T14:30:19.959Z</time></trkpt><trkpt lat="44.6240501" lon="5.195987"><ele>1013.0</ele><time>2026-04-18T14:30:20.96Z</time></trkpt><trkpt lat="44.6241313" lon="5.1961619"><ele>1019.0</ele><time>2026-04-18T14:30:21.959Z</time></trkpt><trkpt lat="44.6242261" lon="5.196331"><ele>1025.0</ele><time>2026-04-18T14:30:22.959Z</time></trkpt><trkpt lat="44.624327" lon="5.1964991"><ele>1020.5</ele><time>2026-04-18T14:30:23.959Z</time></trkpt><trkpt lat="44.6244249" lon="5.196642"><ele>1016.0</ele><time>2026-04-18T14:30:24.959Z</time></trkpt><trkpt lat="44.6245146" lon="5.1967747"><ele>1011.5</ele><time>2026-04-18T14:30:25.959Z</time></trkpt><trkpt lat="44.6245914" lon="5.196923"><ele>1007.0</ele><time>2026-04-18T14:30:26.96Z</time></trkpt><trkpt lat="44.6246288" lon="5.1970892"><ele>1007.0</ele><time>2026-04-18T14:30:27.96Z</time></trkpt><trkpt lat="44.6246344" lon="5.1972592"><ele>1007.0</ele><time>2026-04-18T14:30:28.959Z</time></trkpt><trkpt lat="44.6246285" lon="5.1974387"><ele>1007.0</ele><time>2026-04-18T14:30:29.96Z</time></trkpt><trkpt lat="44.6246372" lon="5.1976192"><ele>1007.0</ele><time>2026-04-18T14:30:30.959Z</time></trkpt><trkpt lat="44.6246698" lon="5.1978002"><ele>1010.25</ele><time>2026-04-18T14:30:31.96Z</time></trkpt><trkpt lat="44.6247274" lon="5.1979838"><ele>1013.5</ele><time>2026-04-18T14:30:32.96Z</time></trkpt><trkpt lat="44.6247984" lon="5.1981668"><ele>1016.75</ele><time>2026-04-18T14:30:33.959Z</time></trkpt><trkpt lat="44.6248763" lon="5.1983511"><ele>1020.0</ele><time>2026-04-18T14:30:34.959Z</time></trkpt><trkpt lat="44.6249559" lon="5.1985378"><ele>1023.0</ele><time>2026-04-18T14:30:35.959Z</time></trkpt><trkpt lat="44.6250436" lon="5.1987109"><ele>1026.0</ele><time>2026-04-18T14:30:36.96Z</time></trkpt><trkpt lat="44.6251481" lon="5.1988677"><ele>1029.0</ele><time>2026-04-18T14:30:37.96Z</time></trkpt><trkpt lat="44.6252618" lon="5.1990423"><ele>1029.6666666666667</ele><time>2026-04-18T14:30:38.96Z</time></trkpt><trkpt lat="44.6253864" lon="5.1992274"><ele>1030.3333333333335</ele><time>2026-04-18T14:30:39.96Z</time></trkpt><trkpt lat="44.6255199" lon="5.1994209"><ele>1031.0</ele><time>2026-04-18T14:30:40.96Z</time></trkpt><trkpt lat="44.6256508" lon="5.1996062"><ele>1031.0</ele><time>2026-04-18T14:30:41.959Z</time></trkpt><trkpt lat="44.6257825" lon="5.1997969"><ele>1031.0</ele><time>2026-04-18T14:30:42.959Z</time></trkpt><trkpt lat="44.6259006" lon="5.199974"><ele>1031.0</ele><time>2026-04-18T14:30:43.96Z</time></trkpt><trkpt lat="44.6260133" lon="5.2001385"><ele>1033.6666666666667</ele><time>2026-04-18T14:30:44.959Z</time></trkpt><trkpt lat="44.6261227" lon="5.2003043"><ele>1036.3333333333333</ele><time>2026-04-18T14:30:45.959Z</time></trkpt><trkpt lat="44.6262176" lon="5.2004806"><ele>1039.0</ele><time>2026-04-18T14:30:46.959Z</time></trkpt><trkpt lat="44.6262996" lon="5.2006623"><ele>1041.75</ele><time>2026-04-18T14:30:47.96Z</time></trkpt><trkpt lat="44.6263814" lon="5.2008399"><ele>1044.5</ele><time>2026-04-18T14:30:48.959Z</time></trkpt><trkpt lat="44.6264597" lon="5.2009942"><ele>1047.25</ele><time>2026-04-18T14:30:49.958Z</time></trkpt><trkpt lat="44.6265368" lon="5.2011321"><ele>1050.0</ele><time>2026-04-18T14:30:50.959Z</time></trkpt><trkpt lat="44.6266189" lon="5.201245"><ele>1050.0</ele><time>2026-04-18T14:30:51.96Z</time></trkpt><trkpt lat="44.6266987" lon="5.2013375"><ele>1050.0</ele><time>2026-04-18T14:30:52.96Z</time></trkpt><trkpt lat="44.6267729" lon="5.2014199"><ele>1050.0</ele><time>2026-04-18T14:30:53.96Z</time></trkpt><trkpt lat="44.6268562" lon="5.2014955"><ele>1050.0</ele><time>2026-04-18T14:30:54.96Z</time></trkpt><trkpt lat="44.6269427" lon="5.2015695"><ele>1050.0</ele><time>2026-04-18T14:30:55.96Z</time></trkpt><trkpt lat="44.6270334" lon="5.2016411"><ele>1051.25</ele><time>2026-04-18T14:30:56.959Z</time></trkpt><trkpt lat="44.6271349" lon="5.2017086"><ele>1052.5</ele><time>2026-04-18T14:30:57.959Z</time></trkpt><trkpt lat="44.6272506" lon="5.2017745"><ele>1053.75</ele><time>2026-04-18T14:30:58.958Z</time></trkpt><trkpt lat="44.627356" lon="5.2018313"><ele>1055.0</ele><time>2026-04-18T14:30:59.96Z</time></trkpt><trkpt lat="44.6274602" lon="5.2018825"><ele>1055.0</ele><time>2026-04-18T14:31:00.96Z</time></trkpt><trkpt lat="44.6275623" lon="5.2019373"><ele>1055.0</ele><time>2026-04-18T14:31:01.96Z</time></trkpt><trkpt lat="44.627665" lon="5.202004"><ele>1055.0</ele><time>2026-04-18T14:31:02.96Z</time></trkpt><trkpt lat="44.6277679" lon="5.2021016"><ele>1055.0</ele><time>2026-04-18T14:31:03.958Z</time></trkpt><trkpt lat="44.6278652" lon="5.2022223"><ele>1055.0</ele><time>2026-04-18T14:31:04.959Z</time></trkpt><trkpt lat="44.6279645" lon="5.2023594"><ele>1055.0</ele><time>2026-04-18T14:31:05.959Z</time></trkpt><trkpt lat="44.6280682" lon="5.2025043"><ele>1055.0</ele><time>2026-04-18T14:31:06.959Z</time></trkpt><trkpt lat="44.6281808" lon="5.202654"><ele>1055.0</ele><time>2026-04-18T14:31:07.96Z</time></trkpt><trkpt lat="44.6282899" lon="5.2027973"><ele>1055.0</ele><time>2026-04-18T14:31:08.96Z</time></trkpt><trkpt lat="44.6283805" lon="5.2029459"><ele>1055.0</ele><time>2026-04-18T14:31:09.96Z</time></trkpt><trkpt lat="44.62846" lon="5.2031024"><ele>1055.0</ele><time>2026-04-18T14:31:10.959Z</time></trkpt><trkpt lat="44.6285332" lon="5.2032602"><ele>1055.0</ele><time>2026-04-18T14:31:11.96Z</time></trkpt><trkpt lat="44.6286165" lon="5.2033926"><ele>1057.5</ele><time>2026-04-18T14:31:12.96Z</time></trkpt><trkpt lat="44.6287026" lon="5.2035093"><ele>1060.0</ele><time>2026-04-18T14:31:13.959Z</time></trkpt><trkpt lat="44.6287913" lon="5.2036184"><ele>1062.5</ele><time>2026-04-18T14:31:14.96Z</time></trkpt><trkpt lat="44.6288801" lon="5.2037237"><ele>1065.0</ele><time>2026-04-18T14:31:15.96Z</time></trkpt><trkpt lat="44.6289645" lon="5.2038196"><ele>1065.0</ele><time>2026-04-18T14:31:16.96Z</time></trkpt><trkpt lat="44.6290469" lon="5.2039121"><ele>1065.0</ele><time>2026-04-18T14:31:17.96Z</time></trkpt><trkpt lat="44.6291138" lon="5.2040096"><ele>1065.0</ele><time>2026-04-18T14:31:18.959Z</time></trkpt><trkpt lat="44.6291645" lon="5.2041294"><ele>1065.0</ele><time>2026-04-18T14:31:19.96Z</time></trkpt><trkpt lat="44.6291966" lon="5.2042704"><ele>1065.0</ele><time>2026-04-18T14:31:20.96Z</time></trkpt><trkpt lat="44.6292088" lon="5.2044109"><ele>1059.6</ele><time>2026-04-18T14:31:21.96Z</time></trkpt><trkpt lat="44.6292079" lon="5.2045491"><ele>1054.2</ele><time>2026-04-18T14:31:22.96Z</time></trkpt><trkpt lat="44.6292212" lon="5.204684"><ele>1048.8</ele><time>2026-04-18T14:31:23.959Z</time></trkpt><trkpt lat="44.6292592" lon="5.2048084"><ele>1043.4</ele><time>2026-04-18T14:31:24.958Z</time></trkpt><trkpt lat="44.6293263" lon="5.2049192"><ele>1038.0</ele><time>2026-04-18T14:31:25.96Z</time></trkpt><trkpt lat="44.629421" lon="5.2050106"><ele>1038.75</ele><time>2026-04-18T14:31:26.96Z</time></trkpt><trkpt lat="44.6295291" lon="5.2051023"><ele>1039.5</ele><time>2026-04-18T14:31:27.959Z</time></trkpt><trkpt lat="44.6296284" lon="5.2051961"><ele>1040.25</ele><time>2026-04-18T14:31:28.96Z</time></trkpt><trkpt lat="44.6297272" lon="5.2053003"><ele>1041.0</ele><time>2026-04-18T14:31:29.96Z</time></trkpt><trkpt lat="44.6298206" lon="5.2054185"><ele>1041.0</ele><time>2026-04-18T14:31:30.96Z</time></trkpt><trkpt lat="44.629901" lon="5.2055411"><ele>1041.0</ele><time>2026-04-18T14:31:31.959Z</time></trkpt><trkpt lat="44.6299736" lon="5.2056701"><ele>1041.0</ele><time>2026-04-18T14:31:32.96Z</time></trkpt><trkpt lat="44.6300283" lon="5.2058038"><ele>1041.0</ele><time>2026-04-18T14:31:33.96Z</time></trkpt><trkpt lat="44.6300836" lon="5.2059193"><ele>1041.0</ele><time>2026-04-18T14:31:34.96Z</time></trkpt><trkpt lat="44.6301393" lon="5.2060165"><ele>1041.8333333333333</ele><time>2026-04-18T14:31:35.959Z</time></trkpt><trkpt lat="44.6301946" lon="5.2061002"><ele>1042.6666666666667</ele><time>2026-04-18T14:31:36.96Z</time></trkpt><trkpt lat="44.6302505" lon="5.206183"><ele>1043.5</ele><time>2026-04-18T14:31:37.96Z</time></trkpt><trkpt lat="44.6302974" lon="5.2062867"><ele>1044.3333333333335</ele><time>2026-04-18T14:31:38.959Z</time></trkpt><trkpt lat="44.6303177" lon="5.2064093"><ele>1045.1666666666667</ele><time>2026-04-18T14:31:39.958Z</time></trkpt><trkpt lat="44.6303129" lon="5.2065481"><ele>1046.0</ele><time>2026-04-18T14:31:40.958Z</time></trkpt><trkpt lat="44.6302974" lon="5.2066851"><ele>1040.0</ele><time>2026-04-18T14:31:41.959Z</time></trkpt><trkpt lat="44.6302841" lon="5.2068359"><ele>1034.0</ele><time>2026-04-18T14:31:42.959Z</time></trkpt><trkpt lat="44.6302885" lon="5.2069997"><ele>1028.0</ele><time>2026-04-18T14:31:43.96Z</time></trkpt><trkpt lat="44.6303039" lon="5.2071747"><ele>1022.0</ele><time>2026-04-18T14:31:44.959Z</time></trkpt><trkpt lat="44.6303277" lon="5.2073452"><ele>1022.0</ele><time>2026-04-18T14:31:45.958Z</time></trkpt><trkpt lat="44.6303607" lon="5.2075152"><ele>1022.0</ele><time>2026-04-18T14:31:46.959Z</time></trkpt><trkpt lat="44.6304117" lon="5.2076822"><ele>1022.0</ele><time>2026-04-18T14:31:47.96Z</time></trkpt><trkpt lat="44.6304778" lon="5.2078481"><ele>1022.0</ele><time>2026-04-18T14:31:48.96Z</time></trkpt><trkpt lat="44.6305638" lon="5.2080033"><ele>1022.0</ele><time>2026-04-18T14:31:49.958Z</time></trkpt><trkpt lat="44.6306658" lon="5.20815"><ele>1022.0</ele><time>2026-04-18T14:31:50.96Z</time></trkpt><trkpt lat="44.630781" lon="5.2082881"><ele>1022.0</ele><time>2026-04-18T14:31:51.959Z</time></trkpt><trkpt lat="44.6308994" lon="5.2084087"><ele>1022.0</ele><time>2026-04-18T14:31:52.96Z</time></trkpt><trkpt lat="44.631022" lon="5.2085109"><ele>1019.5</ele><time>2026-04-18T14:31:53.959Z</time></trkpt><trkpt lat="44.6311449" lon="5.2085898"><ele>1017.0</ele><time>2026-04-18T14:31:54.96Z</time></trkpt><trkpt lat="44.6312659" lon="5.2086587"><ele>1014.5</ele><time>2026-04-18T14:31:55.96Z</time></trkpt><trkpt lat="44.6313764" lon="5.2087412"><ele>1012.0</ele><time>2026-04-18T14:31:56.959Z</time></trkpt><trkpt lat="44.6314816" lon="5.2088426"><ele>1012.0</ele><time>2026-04-18T14:31:57.958Z</time></trkpt><trkpt lat="44.6315762" lon="5.2089522"><ele>1012.0</ele><time>2026-04-18T14:31:58.96Z</time></trkpt><trkpt lat="44.6316615" lon="5.2090673"><ele>1012.0</ele><time>2026-04-18T14:31:59.96Z</time></trkpt><trkpt lat="44.6317478" lon="5.209167"><ele>1012.0</ele><time>2026-04-18T14:32:00.96Z</time></trkpt><trkpt lat="44.6318462" lon="5.2092471"><ele>1006.5</ele><time>2026-04-18T14:32:01.96Z</time></trkpt><trkpt lat="44.6319589" lon="5.2093133"><ele>1001.0</ele><time>2026-04-18T14:32:02.958Z</time></trkpt><trkpt lat="44.6320805" lon="5.2093554"><ele>995.5</ele><time>2026-04-18T14:32:03.96Z</time></trkpt><trkpt lat="44.6322125" lon="5.2093834"><ele>990.0</ele><time>2026-04-18T14:32:04.959Z</time></trkpt><trkpt lat="44.6323453" lon="5.2094068"><ele>990.0</ele><time>2026-04-18T14:32:05.96Z</time></trkpt><trkpt lat="44.6324758" lon="5.2094272"><ele>990.0</ele><time>2026-04-18T14:32:06.96Z</time></trkpt><trkpt lat="44.6325999" lon="5.2094505"><ele>990.0</ele><time>2026-04-18T14:32:07.958Z</time></trkpt><trkpt lat="44.6327197" lon="5.209471"><ele>990.0</ele><time>2026-04-18T14:32:08.959Z</time></trkpt><trkpt lat="44.632836" lon="5.2094775"><ele>989.2</ele><time>2026-04-18T14:32:09.96Z</time></trkpt><trkpt lat="44.6329465" lon="5.2094527"><ele>988.4</ele><time>2026-04-18T14:32:10.959Z</time></trkpt><trkpt lat="44.6330523" lon="5.2093877"><ele>987.5999999999999</ele><time>2026-04-18T14:32:11.96Z</time></trkpt><trkpt lat="44.6331463" lon="5.2093062"><ele>986.8</ele><time>2026-04-18T14:32:12.959Z</time></trkpt><trkpt lat="44.6332402" lon="5.2092286"><ele>986.0</ele><time>2026-04-18T14:32:13.96Z</time></trkpt><trkpt lat="44.6333376" lon="5.2091872"><ele>986.0</ele><time>2026-04-18T14:32:14.959Z</time></trkpt><trkpt lat="44.6334429" lon="5.2092027"><ele>986.0</ele><time>2026-04-18T14:32:15.96Z</time></trkpt><trkpt lat="44.6335414" lon="5.2092696"><ele>986.0</ele><time>2026-04-18T14:32:16.96Z</time></trkpt><trkpt lat="44.6336396" lon="5.2093626"><ele>986.0</ele><time>2026-04-18T14:32:17.959Z</time></trkpt><trkpt lat="44.6337367" lon="5.2094607"><ele>985.8</ele><time>2026-04-18T14:32:18.96Z</time></trkpt><trkpt lat="44.6338242" lon="5.2095613"><ele>985.5999999999999</ele><time>2026-04-18T14:32:19.96Z</time></trkpt><trkpt lat="44.633898" lon="5.2096512"><ele>985.4</ele><time>2026-04-18T14:32:20.958Z</time></trkpt><trkpt lat="44.6339591" lon="5.2097205"><ele>985.2</ele><time>2026-04-18T14:32:21.959Z</time></trkpt><trkpt lat="44.6340465" lon="5.2098071"><ele>985.0</ele><time>2026-04-18T14:32:23.959Z</time></trkpt><trkpt lat="44.6341112" lon="5.2098444"><ele>984.9999999999999</ele><time>2026-04-18T14:32:26.959Z</time></trkpt><trkpt lat="44.6341921" lon="5.2098291"><ele>985.0</ele><time>2026-04-18T14:34:22.958Z</time></trkpt><trkpt lat="44.6342648" lon="5.2098264"><ele>985.0</ele><time>2026-04-18T14:34:23.958Z</time></trkpt><trkpt lat="44.6343478" lon="5.2098105"><ele>985.0</ele><time>2026-04-18T14:34:24.958Z</time></trkpt><trkpt lat="44.6344404" lon="5.209784"><ele>984.9999999999999</ele><time>2026-04-18T14:34:25.959Z</time></trkpt><trkpt lat="44.6345472" lon="5.2097537"><ele>985.0</ele><time>2026-04-18T14:34:26.959Z</time></trkpt><trkpt lat="44.6346588" lon="5.2097339"><ele>983.75</ele><time>2026-04-18T14:34:27.958Z</time></trkpt><trkpt lat="44.6347796" lon="5.2097395"><ele>982.5</ele><time>2026-04-18T14:34:28.959Z</time></trkpt><trkpt lat="44.6349038" lon="5.2097425"><ele>981.25</ele><time>2026-04-18T14:34:29.959Z</time></trkpt><trkpt lat="44.6350258" lon="5.209738"><ele>980.0</ele><time>2026-04-18T14:34:30.958Z</time></trkpt><trkpt lat="44.635142" lon="5.2097185"><ele>980.0</ele><time>2026-04-18T14:34:31.958Z</time></trkpt><trkpt lat="44.6352502" lon="5.2096874"><ele>980.0</ele><time>2026-04-18T14:34:32.957Z</time></trkpt><trkpt lat="44.6353563" lon="5.2096461"><ele>980.0</ele><time>2026-04-18T14:34:33.959Z</time></trkpt><trkpt lat="44.6354557" lon="5.2095999"><ele>980.0</ele><time>2026-04-18T14:34:34.959Z</time></trkpt><trkpt lat="44.6355437" lon="5.2095719"><ele>980.0</ele><time>2026-04-18T14:34:35.957Z</time></trkpt><trkpt lat="44.635629" lon="5.2095636"><ele>979.1666666666667</ele><time>2026-04-18T14:34:36.959Z</time></trkpt><trkpt lat="44.6356998" lon="5.2095786"><ele>978.3333333333334</ele><time>2026-04-18T14:34:37.959Z</time></trkpt><trkpt lat="44.6357749" lon="5.2096313"><ele>977.5</ele><time>2026-04-18T14:34:39.959Z</time></trkpt><trkpt lat="44.6358504" lon="5.2096825"><ele>976.6666666666667</ele><time>2026-04-18T14:34:41.959Z</time></trkpt><trkpt lat="44.6359207" lon="5.2097443"><ele>975.8333333333334</ele><time>2026-04-18T14:34:43.957Z</time></trkpt><trkpt lat="44.6359973" lon="5.2098419"><ele>975.0</ele><time>2026-04-18T14:34:45.959Z</time></trkpt><trkpt lat="44.6360507" lon="5.2098967"><ele>971.4</ele><time>2026-04-18T14:34:46.959Z</time></trkpt><trkpt lat="44.6361764" lon="5.2099647"><ele>967.8</ele><time>2026-04-18T14:34:48.958Z</time></trkpt><trkpt lat="44.6362585" lon="5.2099699"><ele>964.2</ele><time>2026-04-18T14:34:49.959Z</time></trkpt><trkpt lat="44.6363528" lon="5.2099703"><ele>960.6</ele><time>2026-04-18T14:34:50.958Z</time></trkpt><trkpt lat="44.6364548" lon="5.2099496"><ele>957.0</ele><time>2026-04-18T14:34:51.959Z</time></trkpt><trkpt lat="44.6365675" lon="5.2099295"><ele>957.0</ele><time>2026-04-18T14:34:52.958Z</time></trkpt><trkpt lat="44.636676" lon="5.2099109"><ele>957.0</ele><time>2026-04-18T14:34:53.959Z</time></trkpt><trkpt lat="44.6367806" lon="5.2099078"><ele>957.0</ele><time>2026-04-18T14:34:54.958Z</time></trkpt><trkpt lat="44.6368835" lon="5.2099196"><ele>957.0</ele><time>2026-04-18T14:34:55.958Z</time></trkpt><trkpt lat="44.6369893" lon="5.2099635"><ele>957.0</ele><time>2026-04-18T14:34:56.958Z</time></trkpt><trkpt lat="44.6370953" lon="5.2100153"><ele>958.0</ele><time>2026-04-18T14:34:57.959Z</time></trkpt><trkpt lat="44.637202" lon="5.2100734"><ele>959.0</ele><time>2026-04-18T14:34:58.958Z</time></trkpt><trkpt lat="44.6373111" lon="5.2101332"><ele>960.0</ele><time>2026-04-18T14:34:59.958Z</time></trkpt><trkpt lat="44.6374222" lon="5.2102"><ele>961.0</ele><time>2026-04-18T14:35:00.959Z</time></trkpt><trkpt lat="44.637538" lon="5.2102668"><ele>961.0</ele><time>2026-04-18T14:35:01.959Z</time></trkpt><trkpt lat="44.6376435" lon="5.2103297"><ele>960.9999999999999</ele><time>2026-04-18T14:35:02.959Z</time></trkpt><trkpt lat="44.6377475" lon="5.2103765"><ele>960.9999999999999</ele><time>2026-04-18T14:35:03.958Z</time></trkpt><trkpt lat="44.6378579" lon="5.2104164"><ele>961.0</ele><time>2026-04-18T14:35:04.957Z</time></trkpt><trkpt lat="44.6379692" lon="5.2104094"><ele>961.0</ele><time>2026-04-18T14:35:05.957Z</time></trkpt><trkpt lat="44.6380726" lon="5.2103696"><ele>958.25</ele><time>2026-04-18T14:35:06.959Z</time></trkpt><trkpt lat="44.6381783" lon="5.210293"><ele>955.5</ele><time>2026-04-18T14:35:07.959Z</time></trkpt><trkpt lat="44.6382766" lon="5.2102037"><ele>952.75</ele><time>2026-04-18T14:35:08.958Z</time></trkpt><trkpt lat="44.638378" lon="5.2101219"><ele>950.0</ele><time>2026-04-18T14:35:09.959Z</time></trkpt><trkpt lat="44.6384813" lon="5.210067"><ele>950.0</ele><time>2026-04-18T14:35:10.959Z</time></trkpt><trkpt lat="44.6385913" lon="5.2100611"><ele>950.0</ele><time>2026-04-18T14:35:11.958Z</time></trkpt><trkpt lat="44.6386934" lon="5.2100666"><ele>950.0</ele><time>2026-04-18T14:35:12.958Z</time></trkpt><trkpt lat="44.6387701" lon="5.2101701"><ele>950.0</ele><time>2026-04-18T14:35:13.958Z</time></trkpt><trkpt lat="44.6388452" lon="5.2102727"><ele>950.0</ele><time>2026-04-18T14:35:14.959Z</time></trkpt><trkpt lat="44.6389239" lon="5.2103498"><ele>949.6</ele><time>2026-04-18T14:35:15.958Z</time></trkpt><trkpt lat="44.6390272" lon="5.2104025"><ele>949.2</ele><time>2026-04-18T14:35:16.959Z</time></trkpt><trkpt lat="44.6391378" lon="5.2104205"><ele>948.8</ele><time>2026-04-18T14:35:17.959Z</time></trkpt><trkpt lat="44.6392469" lon="5.2104433"><ele>948.4</ele><time>2026-04-18T14:35:18.958Z</time></trkpt><trkpt lat="44.6393621" lon="5.2104311"><ele>948.0</ele><time>2026-04-18T14:35:19.959Z</time></trkpt><trkpt lat="44.6394878" lon="5.210438"><ele>947.75</ele><time>2026-04-18T14:35:20.958Z</time></trkpt><trkpt lat="44.6396203" lon="5.2104407"><ele>947.5</ele><time>2026-04-18T14:35:21.958Z</time></trkpt><trkpt lat="44.6397469" lon="5.2104333"><ele>947.25</ele><time>2026-04-18T14:35:22.958Z</time></trkpt><trkpt lat="44.6398731" lon="5.2104195"><ele>947.0</ele><time>2026-04-18T14:35:23.958Z</time></trkpt><trkpt lat="44.6399817" lon="5.210452"><ele>947.0</ele><time>2026-04-18T14:35:24.958Z</time></trkpt><trkpt lat="44.6400839" lon="5.210513"><ele>947.0</ele><time>2026-04-18T14:35:25.959Z</time></trkpt><trkpt lat="44.640201" lon="5.2105913"><ele>947.0</ele><time>2026-04-18T14:35:26.959Z</time></trkpt><trkpt lat="44.6403271" lon="5.2106486"><ele>947.0</ele><time>2026-04-18T14:35:27.958Z</time></trkpt><trkpt lat="44.6404497" lon="5.2106802"><ele>941.0</ele><time>2026-04-18T14:35:28.959Z</time></trkpt><trkpt lat="44.6405823" lon="5.2107153"><ele>935.0</ele><time>2026-04-18T14:35:29.959Z</time></trkpt><trkpt lat="44.6407207" lon="5.2107214"><ele>929.0</ele><time>2026-04-18T14:35:30.957Z</time></trkpt><trkpt lat="44.6408533" lon="5.2107324"><ele>923.0</ele><time>2026-04-18T14:35:31.959Z</time></trkpt><trkpt lat="44.6409719" lon="5.2107215"><ele>923.0</ele><time>2026-04-18T14:35:32.959Z</time></trkpt><trkpt lat="44.6410958" lon="5.2106944"><ele>923.0</ele><time>2026-04-18T14:35:33.959Z</time></trkpt><trkpt lat="44.6412118" lon="5.210631"><ele>923.0</ele><time>2026-04-18T14:35:34.959Z</time></trkpt><trkpt lat="44.6413196" lon="5.2105467"><ele>923.0</ele><time>2026-04-18T14:35:35.959Z</time></trkpt><trkpt lat="44.6414304" lon="5.2104812"><ele>923.5</ele><time>2026-04-18T14:35:36.959Z</time></trkpt><trkpt lat="44.6415363" lon="5.21043"><ele>924.0</ele><time>2026-04-18T14:35:37.958Z</time></trkpt><trkpt lat="44.6416786" lon="5.2104498"><ele>924.5</ele><time>2026-04-18T14:35:38.959Z</time></trkpt><trkpt lat="44.6417897" lon="5.2104572"><ele>925.0</ele><time>2026-04-18T14:35:39.957Z</time></trkpt><trkpt lat="44.6418704" lon="5.2105366"><ele>924.8333333333333</ele><time>2026-04-18T14:35:40.959Z</time></trkpt><trkpt lat="44.6418865" lon="5.210691"><ele>924.6666666666666</ele><time>2026-04-18T14:35:41.959Z</time></trkpt><trkpt lat="44.6419278" lon="5.2108022"><ele>924.5</ele><time>2026-04-18T14:35:42.959Z</time></trkpt><trkpt lat="44.6419496" lon="5.2109125"><ele>924.3333333333333</ele><time>2026-04-18T14:35:43.959Z</time></trkpt><trkpt lat="44.6419874" lon="5.2110204"><ele>924.1666666666666</ele><time>2026-04-18T14:35:44.958Z</time></trkpt><trkpt lat="44.6420322" lon="5.2111171"><ele>924.0</ele><time>2026-04-18T14:35:45.959Z</time></trkpt><trkpt lat="44.642113" lon="5.2112107"><ele>924.0</ele><time>2026-04-18T14:35:46.957Z</time></trkpt><trkpt lat="44.6422205" lon="5.2112916"><ele>924.0000000000001</ele><time>2026-04-18T14:35:47.958Z</time></trkpt><trkpt lat="44.6423194" lon="5.2113468"><ele>924.0000000000001</ele><time>2026-04-18T14:35:48.959Z</time></trkpt><trkpt lat="44.6424015" lon="5.211373"><ele>924.0</ele><time>2026-04-18T14:35:49.957Z</time></trkpt><trkpt lat="44.6425004" lon="5.2114016"><ele>924.0</ele><time>2026-04-18T14:35:50.958Z</time></trkpt><trkpt lat="44.6426273" lon="5.2114314"><ele>926.0</ele><time>2026-04-18T14:35:51.959Z</time></trkpt><trkpt lat="44.6427614" lon="5.2115098"><ele>928.0</ele><time>2026-04-18T14:35:52.959Z</time></trkpt><trkpt lat="44.6428504" lon="5.2116057"><ele>930.0</ele><time>2026-04-18T14:35:53.959Z</time></trkpt><trkpt lat="44.6428757" lon="5.2117999"><ele>932.0</ele><time>2026-04-18T14:35:54.959Z</time></trkpt><trkpt lat="44.6429305" lon="5.2119579"><ele>932.0</ele><time>2026-04-18T14:35:55.959Z</time></trkpt><trkpt lat="44.6429906" lon="5.2121108"><ele>932.0</ele><time>2026-04-18T14:35:56.958Z</time></trkpt><trkpt lat="44.6430274" lon="5.2122906"><ele>932.0</ele><time>2026-04-18T14:35:57.959Z</time></trkpt><trkpt lat="44.6430731" lon="5.2124707"><ele>932.0</ele><time>2026-04-18T14:35:58.958Z</time></trkpt><trkpt lat="44.6431213" lon="5.2126385"><ele>927.25</ele><time>2026-04-18T14:35:59.958Z</time></trkpt><trkpt lat="44.6431724" lon="5.212806"><ele>922.5</ele><time>2026-04-18T14:36:00.959Z</time></trkpt><trkpt lat="44.6432414" lon="5.2129632"><ele>917.75</ele><time>2026-04-18T14:36:01.959Z</time></trkpt><trkpt lat="44.6433159" lon="5.2131171"><ele>913.0</ele><time>2026-04-18T14:36:02.959Z</time></trkpt><trkpt lat="44.6433867" lon="5.213271"><ele>916.0</ele><time>2026-04-18T14:36:03.958Z</time></trkpt><trkpt lat="44.643456" lon="5.2134261"><ele>919.0</ele><time>2026-04-18T14:36:04.958Z</time></trkpt><trkpt lat="44.6435107" lon="5.2135876"><ele>922.0</ele><time>2026-04-18T14:36:05.959Z</time></trkpt><trkpt lat="44.6435728" lon="5.2137673"><ele>925.0</ele><time>2026-04-18T14:36:06.959Z</time></trkpt><trkpt lat="44.6436345" lon="5.2139428"><ele>919.25</ele><time>2026-04-18T14:36:07.958Z</time></trkpt><trkpt lat="44.6436908" lon="5.2141191"><ele>913.5</ele><time>2026-04-18T14:36:08.959Z</time></trkpt><trkpt lat="44.6437413" lon="5.214287"><ele>907.75</ele><time>2026-04-18T14:36:09.959Z</time></trkpt><trkpt lat="44.6437876" lon="5.2144552"><ele>902.0</ele><time>2026-04-18T14:36:10.958Z</time></trkpt><trkpt lat="44.6438468" lon="5.2146031"><ele>902.0</ele><time>2026-04-18T14:36:11.958Z</time></trkpt><trkpt lat="44.6439213" lon="5.21473"><ele>902.0</ele><time>2026-04-18T14:36:12.958Z</time></trkpt><trkpt lat="44.6440114" lon="5.2148364"><ele>902.0</ele><time>2026-04-18T14:36:13.957Z</time></trkpt><trkpt lat="44.6441025" lon="5.2149313"><ele>902.0</ele><time>2026-04-18T14:36:14.958Z</time></trkpt><trkpt lat="44.6441792" lon="5.2150391"><ele>899.2</ele><time>2026-04-18T14:36:15.959Z</time></trkpt><trkpt lat="44.6442275" lon="5.2151753"><ele>896.4000000000001</ele><time>2026-04-18T14:36:16.959Z</time></trkpt><trkpt lat="44.6442489" lon="5.2153206"><ele>893.5999999999999</ele><time>2026-04-18T14:36:17.958Z</time></trkpt><trkpt lat="44.6442745" lon="5.2154581"><ele>890.8</ele><time>2026-04-18T14:36:18.958Z</time></trkpt><trkpt lat="44.6442845" lon="5.2156098"><ele>888.0</ele><time>2026-04-18T14:36:19.958Z</time></trkpt><trkpt lat="44.644253" lon="5.2157054"><ele>889.5999999999999</ele><time>2026-04-18T14:36:21.958Z</time></trkpt><trkpt lat="44.6442663" lon="5.2157945"><ele>891.1999999999999</ele><time>2026-04-18T14:36:23.957Z</time></trkpt><trkpt lat="44.6443183" lon="5.2159095"><ele>892.8</ele><time>2026-04-18T14:36:47.958Z</time></trkpt><trkpt lat="44.6443949" lon="5.2160546"><ele>894.4</ele><time>2026-04-18T14:36:49.959Z</time></trkpt><trkpt lat="44.6444526" lon="5.2161576"><ele>896.0</ele><time>2026-04-18T14:36:50.958Z</time></trkpt><trkpt lat="44.6445145" lon="5.2162644"><ele>896.0</ele><time>2026-04-18T14:36:51.957Z</time></trkpt><trkpt lat="44.6445772" lon="5.2163908"><ele>895.9999999999999</ele><time>2026-04-18T14:36:52.959Z</time></trkpt><trkpt lat="44.6446321" lon="5.2165221"><ele>895.9999999999999</ele><time>2026-04-18T14:36:53.959Z</time></trkpt><trkpt lat="44.6446776" lon="5.2166621"><ele>896.0</ele><time>2026-04-18T14:36:54.959Z</time></trkpt><trkpt lat="44.6447074" lon="5.2168112"><ele>896.0</ele><time>2026-04-18T14:36:55.959Z</time></trkpt><trkpt lat="44.6447261" lon="5.2169662"><ele>891.5</ele><time>2026-04-18T14:36:56.959Z</time></trkpt><trkpt lat="44.6447479" lon="5.2171217"><ele>887.0</ele><time>2026-04-18T14:36:57.959Z</time></trkpt><trkpt lat="44.6447749" lon="5.2172805"><ele>882.5</ele><time>2026-04-18T14:36:58.958Z</time></trkpt><trkpt lat="44.644808" lon="5.2174483"><ele>878.0</ele><time>2026-04-18T14:36:59.958Z</time></trkpt><trkpt lat="44.6448383" lon="5.2176091"><ele>876.0</ele><time>2026-04-18T14:37:00.958Z</time></trkpt><trkpt lat="44.6448629" lon="5.2177691"><ele>874.0</ele><time>2026-04-18T14:37:01.959Z</time></trkpt><trkpt lat="44.6448978" lon="5.2179183"><ele>872.0</ele><time>2026-04-18T14:37:02.959Z</time></trkpt><trkpt lat="44.6449486" lon="5.2180518"><ele>870.0</ele><time>2026-04-18T14:37:03.957Z</time></trkpt><trkpt lat="44.6450167" lon="5.2181595"><ele>868.0</ele><time>2026-04-18T14:37:04.959Z</time></trkpt><trkpt lat="44.6450999" lon="5.2182372"><ele>865.0</ele><time>2026-04-18T14:37:05.958Z</time></trkpt><trkpt lat="44.6451898" lon="5.2183112"><ele>862.0</ele><time>2026-04-18T14:37:06.959Z</time></trkpt><trkpt lat="44.6452578" lon="5.2183077"><ele>859.0</ele><time>2026-04-18T14:37:07.957Z</time></trkpt><trkpt lat="44.6453511" lon="5.2183132"><ele>856.0</ele><time>2026-04-18T14:37:09.958Z</time></trkpt><trkpt lat="44.6453016" lon="5.218404"><ele>853.0</ele><time>2026-04-18T14:37:16.958Z</time></trkpt><trkpt lat="44.645187" lon="5.2184383"><ele>853.0</ele><time>2026-04-18T14:37:18.959Z</time></trkpt><trkpt lat="44.6450612" lon="5.218417"><ele>853.0</ele><time>2026-04-18T14:37:20.959Z</time></trkpt><trkpt lat="44.6449923" lon="5.2183561"><ele>853.0</ele><time>2026-04-18T14:37:21.958Z</time></trkpt><trkpt lat="44.6449288" lon="5.2182573"><ele>853.0</ele><time>2026-04-18T14:37:22.957Z</time></trkpt><trkpt lat="44.6448692" lon="5.2181484"><ele>853.0</ele><time>2026-04-18T14:37:23.959Z</time></trkpt><trkpt lat="44.6448088" lon="5.2180327"><ele>856.0</ele><time>2026-04-18T14:37:24.959Z</time></trkpt><trkpt lat="44.6447457" lon="5.2179046"><ele>859.0</ele><time>2026-04-18T14:37:25.959Z</time></trkpt><trkpt lat="44.6446907" lon="5.2177632"><ele>862.0</ele><time>2026-04-18T14:37:26.958Z</time></trkpt><trkpt lat="44.6446516" lon="5.2176225"><ele>865.0</ele><time>2026-04-18T14:37:27.958Z</time></trkpt><trkpt lat="44.6446202" lon="5.2174663"><ele>868.0</ele><time>2026-04-18T14:37:28.958Z</time></trkpt><trkpt lat="44.644588" lon="5.2173059"><ele>870.0</ele><time>2026-04-18T14:37:29.958Z</time></trkpt><trkpt lat="44.6445504" lon="5.2171493"><ele>872.0</ele><time>2026-04-18T14:37:30.958Z</time></trkpt><trkpt lat="44.6445151" lon="5.2170046"><ele>874.0</ele><time>2026-04-18T14:37:31.959Z</time></trkpt><trkpt lat="44.6444832" lon="5.2168669"><ele>876.0</ele><time>2026-04-18T14:37:32.958Z</time></trkpt><trkpt lat="44.6444409" lon="5.2167482"><ele>878.0</ele><time>2026-04-18T14:37:33.959Z</time></trkpt><trkpt lat="44.6443964" lon="5.2166346"><ele>876.8</ele><time>2026-04-18T14:37:34.958Z</time></trkpt><trkpt lat="44.6443353" lon="5.2165254"><ele>875.5999999999999</ele><time>2026-04-18T14:37:35.959Z</time></trkpt><trkpt lat="44.6442603" lon="5.2164299"><ele>874.4000000000001</ele><time>2026-04-18T14:37:36.959Z</time></trkpt><trkpt lat="44.6441804" lon="5.2163265"><ele>873.2</ele><time>2026-04-18T14:37:37.959Z</time></trkpt><trkpt lat="44.6441023" lon="5.2162152"><ele>872.0</ele><time>2026-04-18T14:37:38.959Z</time></trkpt><trkpt lat="44.6440337" lon="5.2160943"><ele>872.0</ele><time>2026-04-18T14:37:39.958Z</time></trkpt><trkpt lat="44.6439763" lon="5.2159645"><ele>872.0</ele><time>2026-04-18T14:37:40.959Z</time></trkpt><trkpt lat="44.6439341" lon="5.2158249"><ele>872.0</ele><time>2026-04-18T14:37:41.958Z</time></trkpt><trkpt lat="44.6439029" lon="5.2156767"><ele>872.0</ele><time>2026-04-18T14:37:42.959Z</time></trkpt><trkpt lat="44.6438617" lon="5.2155233"><ele>872.0</ele><time>2026-04-18T14:37:43.959Z</time></trkpt><trkpt lat="44.6437984" lon="5.2153854"><ele>876.0</ele><time>2026-04-18T14:37:44.959Z</time></trkpt><trkpt lat="44.6437142" lon="5.2152782"><ele>880.0</ele><time>2026-04-18T14:37:45.958Z</time></trkpt><trkpt lat="44.6436204" lon="5.2151882"><ele>884.0</ele><time>2026-04-18T14:37:46.957Z</time></trkpt><trkpt lat="44.6435307" lon="5.2150963"><ele>888.0</ele><time>2026-04-18T14:37:47.959Z</time></trkpt><trkpt lat="44.6434454" lon="5.2149892"><ele>883.0</ele><time>2026-04-18T14:37:48.959Z</time></trkpt><trkpt lat="44.6433693" lon="5.2148624"><ele>878.0</ele><time>2026-04-18T14:37:49.959Z</time></trkpt><trkpt lat="44.6433001" lon="5.2147279"><ele>873.0</ele><time>2026-04-18T14:37:50.959Z</time></trkpt><trkpt lat="44.6432316" lon="5.2145876"><ele>868.0</ele><time>2026-04-18T14:37:51.958Z</time></trkpt><trkpt lat="44.6431685" lon="5.2144436"><ele>868.0</ele><time>2026-04-18T14:37:52.959Z</time></trkpt><trkpt lat="44.6431101" lon="5.214297"><ele>868.0</ele><time>2026-04-18T14:37:53.957Z</time></trkpt><trkpt lat="44.6430555" lon="5.2141437"><ele>868.0</ele><time>2026-04-18T14:37:54.958Z</time></trkpt><trkpt lat="44.6429971" lon="5.2139885"><ele>868.0</ele><time>2026-04-18T14:37:55.959Z</time></trkpt><trkpt lat="44.6429375" lon="5.2138353"><ele>865.25</ele><time>2026-04-18T14:37:56.957Z</time></trkpt><trkpt lat="44.6428686" lon="5.2136864"><ele>862.5</ele><time>2026-04-18T14:37:57.959Z</time></trkpt><trkpt lat="44.6427914" lon="5.2135515"><ele>859.75</ele><time>2026-04-18T14:37:58.958Z</time></trkpt><trkpt lat="44.6427198" lon="5.2134282"><ele>857.0</ele><time>2026-04-18T14:37:59.958Z</time></trkpt><trkpt lat="44.6426592" lon="5.2133051"><ele>857.0</ele><time>2026-04-18T14:38:00.957Z</time></trkpt><trkpt lat="44.6426062" lon="5.2131775"><ele>857.0</ele><time>2026-04-18T14:38:01.959Z</time></trkpt><trkpt lat="44.6425396" lon="5.2130579"><ele>857.0</ele><time>2026-04-18T14:38:02.959Z</time></trkpt><trkpt lat="44.6424578" lon="5.2130237"><ele>857.0</ele><time>2026-04-18T14:38:03.959Z</time></trkpt><trkpt lat="44.6423762" lon="5.2130108"><ele>857.0</ele><time>2026-04-18T14:38:04.957Z</time></trkpt><trkpt lat="44.6422948" lon="5.21304"><ele>859.1666666666667</ele><time>2026-04-18T14:38:05.958Z</time></trkpt><trkpt lat="44.642203" lon="5.2130696"><ele>861.3333333333334</ele><time>2026-04-18T14:38:06.959Z</time></trkpt><trkpt lat="44.6421164" lon="5.2130751"><ele>863.5</ele><time>2026-04-18T14:38:07.958Z</time></trkpt><trkpt lat="44.6420416" lon="5.2130486"><ele>865.6666666666667</ele><time>2026-04-18T14:38:08.959Z</time></trkpt><trkpt lat="44.6419792" lon="5.212994"><ele>867.8333333333334</ele><time>2026-04-18T14:38:09.958Z</time></trkpt><trkpt lat="44.6419323" lon="5.2129257"><ele>870.0</ele><time>2026-04-18T14:38:10.959Z</time></trkpt><trkpt lat="44.6418846" lon="5.2128594"><ele>870.0</ele><time>2026-04-18T14:38:11.959Z</time></trkpt><trkpt lat="44.6418159" lon="5.2128094"><ele>870.0</ele><time>2026-04-18T14:38:12.957Z</time></trkpt><trkpt lat="44.6417327" lon="5.2127896"><ele>870.0</ele><time>2026-04-18T14:38:13.958Z</time></trkpt><trkpt lat="44.6416493" lon="5.2128428"><ele>870.0</ele><time>2026-04-18T14:38:14.959Z</time></trkpt><trkpt lat="44.641582" lon="5.2128878"><ele>870.0</ele><time>2026-04-18T14:38:15.958Z</time></trkpt><trkpt lat="44.6415041" lon="5.212897"><ele>870.0</ele><time>2026-04-18T14:38:16.959Z</time></trkpt><trkpt lat="44.6414142" lon="5.2128855"><ele>870.0</ele><time>2026-04-18T14:38:17.958Z</time></trkpt><trkpt lat="44.6413153" lon="5.2128816"><ele>870.0</ele><time>2026-04-18T14:38:18.959Z</time></trkpt><trkpt lat="44.6412146" lon="5.2128842"><ele>870.0</ele><time>2026-04-18T14:38:19.958Z</time></trkpt><trkpt lat="44.641104" lon="5.2129118"><ele>870.0</ele><time>2026-04-18T14:38:20.959Z</time></trkpt><trkpt lat="44.6409872" lon="5.2129642"><ele>870.0</ele><time>2026-04-18T14:38:21.958Z</time></trkpt><trkpt lat="44.6408679" lon="5.213016"><ele>871.0</ele><time>2026-04-18T14:38:22.958Z</time></trkpt><trkpt lat="44.640768" lon="5.2130651"><ele>872.0</ele><time>2026-04-18T14:38:23.958Z</time></trkpt><trkpt lat="44.6406738" lon="5.2131242"><ele>873.0</ele><time>2026-04-18T14:38:24.958Z</time></trkpt><trkpt lat="44.6405766" lon="5.2131884"><ele>874.0</ele><time>2026-04-18T14:38:25.958Z</time></trkpt><trkpt lat="44.6404921" lon="5.2132435"><ele>875.0</ele><time>2026-04-18T14:38:26.958Z</time></trkpt><trkpt lat="44.6404162" lon="5.2132789"><ele>875.4</ele><time>2026-04-18T14:38:27.959Z</time></trkpt><trkpt lat="44.6403305" lon="5.2132886"><ele>875.8</ele><time>2026-04-18T14:38:28.958Z</time></trkpt><trkpt lat="44.6402372" lon="5.2132647"><ele>876.2</ele><time>2026-04-18T14:38:29.958Z</time></trkpt><trkpt lat="44.6401358" lon="5.2132302"><ele>876.6</ele><time>2026-04-18T14:38:30.958Z</time></trkpt><trkpt lat="44.6400212" lon="5.213191"><ele>877.0</ele><time>2026-04-18T14:38:31.958Z</time></trkpt><trkpt lat="44.6398998" lon="5.2131413"><ele>877.0</ele><time>2026-04-18T14:38:32.957Z</time></trkpt><trkpt lat="44.63977" lon="5.2130873"><ele>877.0</ele><time>2026-04-18T14:38:33.959Z</time></trkpt><trkpt lat="44.6396467" lon="5.2130495"><ele>877.0</ele><time>2026-04-18T14:38:34.958Z</time></trkpt><trkpt lat="44.6395368" lon="5.2130131"><ele>877.0</ele><time>2026-04-18T14:38:35.959Z</time></trkpt><trkpt lat="44.6394353" lon="5.2129743"><ele>877.6</ele><time>2026-04-18T14:38:36.958Z</time></trkpt><trkpt lat="44.6393398" lon="5.2129732"><ele>878.2</ele><time>2026-04-18T14:38:37.957Z</time></trkpt><trkpt lat="44.6392587" lon="5.2130237"><ele>878.8</ele><time>2026-04-18T14:38:38.958Z</time></trkpt><trkpt lat="44.6391974" lon="5.2131184"><ele>879.4</ele><time>2026-04-18T14:38:39.958Z</time></trkpt><trkpt lat="44.6391602" lon="5.2132512"><ele>880.0</ele><time>2026-04-18T14:38:40.958Z</time></trkpt><trkpt lat="44.6391326" lon="5.2133998"><ele>876.9999999999999</ele><time>2026-04-18T14:38:41.958Z</time></trkpt><trkpt lat="44.6390968" lon="5.2135476"><ele>874.0</ele><time>2026-04-18T14:38:42.959Z</time></trkpt><trkpt lat="44.6390655" lon="5.2136671"><ele>871.0</ele><time>2026-04-18T14:38:43.959Z</time></trkpt><trkpt lat="44.6390323" lon="5.213775"><ele>868.0</ele><time>2026-04-18T14:38:44.957Z</time></trkpt><trkpt lat="44.6389855" lon="5.2138637"><ele>864.9999999999999</ele><time>2026-04-18T14:38:45.958Z</time></trkpt><trkpt lat="44.6389192" lon="5.2139369"><ele>862.0</ele><time>2026-04-18T14:38:46.958Z</time></trkpt><trkpt lat="44.6388394" lon="5.2139842"><ele>861.8</ele><time>2026-04-18T14:38:47.957Z</time></trkpt><trkpt lat="44.6387453" lon="5.2140155"><ele>861.6</ele><time>2026-04-18T14:38:48.959Z</time></trkpt><trkpt lat="44.6386364" lon="5.2140253"><ele>861.3999999999999</ele><time>2026-04-18T14:38:49.958Z</time></trkpt><trkpt lat="44.6385163" lon="5.2140269"><ele>861.1999999999999</ele><time>2026-04-18T14:38:50.957Z</time></trkpt><trkpt lat="44.6383999" lon="5.2140182"><ele>861.0</ele><time>2026-04-18T14:38:51.956Z</time></trkpt><trkpt lat="44.6382729" lon="5.2140019"><ele>861.0</ele><time>2026-04-18T14:38:52.957Z</time></trkpt><trkpt lat="44.6381428" lon="5.2139889"><ele>861.0</ele><time>2026-04-18T14:38:53.958Z</time></trkpt><trkpt lat="44.6380216" lon="5.2139839"><ele>861.0</ele><time>2026-04-18T14:38:54.958Z</time></trkpt><trkpt lat="44.6379075" lon="5.2139735"><ele>861.0</ele><time>2026-04-18T14:38:55.956Z</time></trkpt><trkpt lat="44.6377951" lon="5.2139662"><ele>865.1999999999999</ele><time>2026-04-18T14:38:56.958Z</time></trkpt><trkpt lat="44.6376823" lon="5.2139708"><ele>869.3999999999999</ele><time>2026-04-18T14:38:57.958Z</time></trkpt><trkpt lat="44.6375709" lon="5.2139807"><ele>873.6</ele><time>2026-04-18T14:38:58.958Z</time></trkpt><trkpt lat="44.6374806" lon="5.2139471"><ele>877.8</ele><time>2026-04-18T14:38:59.958Z</time></trkpt><trkpt lat="44.6373948" lon="5.2138811"><ele>882.0</ele><time>2026-04-18T14:39:00.957Z</time></trkpt><trkpt lat="44.6373034" lon="5.2138318"><ele>882.0</ele><time>2026-04-18T14:39:01.957Z</time></trkpt><trkpt lat="44.6372081" lon="5.2138253"><ele>882.0</ele><time>2026-04-18T14:39:02.957Z</time></trkpt><trkpt lat="44.6371203" lon="5.2139008"><ele>882.0</ele><time>2026-04-18T14:39:03.958Z</time></trkpt><trkpt lat="44.6370452" lon="5.2139443"><ele>882.0</ele><time>2026-04-18T14:39:04.956Z</time></trkpt><trkpt lat="44.6369548" lon="5.2140191"><ele>882.0</ele><time>2026-04-18T14:39:05.958Z</time></trkpt><trkpt lat="44.6368502" lon="5.2140944"><ele>879.25</ele><time>2026-04-18T14:39:06.958Z</time></trkpt><trkpt lat="44.6367504" lon="5.2141647"><ele>876.5</ele><time>2026-04-18T14:39:07.957Z</time></trkpt><trkpt lat="44.6366324" lon="5.2142226"><ele>873.75</ele><time>2026-04-18T14:39:08.957Z</time></trkpt><trkpt lat="44.6365077" lon="5.2142743"><ele>871.0</ele><time>2026-04-18T14:39:09.958Z</time></trkpt><trkpt lat="44.6363718" lon="5.214335"><ele>871.0</ele><time>2026-04-18T14:39:10.958Z</time></trkpt><trkpt lat="44.6362365" lon="5.2143862"><ele>871.0</ele><time>2026-04-18T14:39:11.957Z</time></trkpt><trkpt lat="44.6361025" lon="5.2144262"><ele>871.0</ele><time>2026-04-18T14:39:12.957Z</time></trkpt><trkpt lat="44.6359611" lon="5.2144589"><ele>871.0</ele><time>2026-04-18T14:39:13.957Z</time></trkpt><trkpt lat="44.63581" lon="5.2144809"><ele>872.6666666666666</ele><time>2026-04-18T14:39:14.956Z</time></trkpt><trkpt lat="44.6356553" lon="5.2145114"><ele>874.3333333333333</ele><time>2026-04-18T14:39:15.957Z</time></trkpt><trkpt lat="44.6354997" lon="5.2145476"><ele>876.0</ele><time>2026-04-18T14:39:16.958Z</time></trkpt><trkpt lat="44.6353436" lon="5.2145864"><ele>877.0</ele><time>2026-04-18T14:39:17.957Z</time></trkpt><trkpt lat="44.6351842" lon="5.2146224"><ele>878.0</ele><time>2026-04-18T14:39:18.957Z</time></trkpt><trkpt lat="44.6350207" lon="5.2146619"><ele>879.0</ele><time>2026-04-18T14:39:19.958Z</time></trkpt><trkpt lat="44.6348554" lon="5.2147007"><ele>879.0</ele><time>2026-04-18T14:39:20.958Z</time></trkpt><trkpt lat="44.6346832" lon="5.2147387"><ele>879.0</ele><time>2026-04-18T14:39:21.957Z</time></trkpt><trkpt lat="44.6345074" lon="5.2147777"><ele>879.0</ele><time>2026-04-18T14:39:22.957Z</time></trkpt><trkpt lat="44.6343304" lon="5.2148194"><ele>878.0</ele><time>2026-04-18T14:39:23.958Z</time></trkpt><trkpt lat="44.6341545" lon="5.2148625"><ele>877.0</ele><time>2026-04-18T14:39:24.957Z</time></trkpt><trkpt lat="44.633982" lon="5.2149001"><ele>876.0</ele><time>2026-04-18T14:39:25.958Z</time></trkpt><trkpt lat="44.6338229" lon="5.2149357"><ele>876.0</ele><time>2026-04-18T14:39:26.958Z</time></trkpt><trkpt lat="44.6336782" lon="5.2149761"><ele>876.0</ele><time>2026-04-18T14:39:27.957Z</time></trkpt><trkpt lat="44.6335497" lon="5.2150163"><ele>876.0</ele><time>2026-04-18T14:39:28.957Z</time></trkpt><trkpt lat="44.6334369" lon="5.2150546"><ele>876.0</ele><time>2026-04-18T14:39:29.958Z</time></trkpt><trkpt lat="44.6333439" lon="5.2150877"><ele>876.8333333333334</ele><time>2026-04-18T14:39:30.958Z</time></trkpt><trkpt lat="44.6332725" lon="5.2151167"><ele>877.6666666666667</ele><time>2026-04-18T14:39:31.958Z</time></trkpt><trkpt lat="44.6331947" lon="5.2151694"><ele>878.5</ele><time>2026-04-18T14:39:33.958Z</time></trkpt><trkpt lat="44.6331863" lon="5.2152733"><ele>879.3333333333334</ele><time>2026-04-18T14:39:37.958Z</time></trkpt><trkpt lat="44.6332263" lon="5.2153563"><ele>880.1666666666667</ele><time>2026-04-18T14:39:52.958Z</time></trkpt><trkpt lat="44.6332899" lon="5.2154534"><ele>881.0</ele><time>2026-04-18T14:39:55.957Z</time></trkpt><trkpt lat="44.6333953" lon="5.2155726"><ele>881.0000000000001</ele><time>2026-04-18T14:39:57.957Z</time></trkpt><trkpt lat="44.6334947" lon="5.2156239"><ele>881.0</ele><time>2026-04-18T14:39:59.957Z</time></trkpt><trkpt lat="44.6335584" lon="5.2156515"><ele>881.0</ele><time>2026-04-18T14:40:00.956Z</time></trkpt><trkpt lat="44.6336307" lon="5.2156792"><ele>881.0</ele><time>2026-04-18T14:40:01.957Z</time></trkpt><trkpt lat="44.6337112" lon="5.2157032"><ele>881.0000000000001</ele><time>2026-04-18T14:40:02.958Z</time></trkpt><trkpt lat="44.6337777" lon="5.2157245"><ele>881.0</ele><time>2026-04-18T14:40:03.957Z</time></trkpt><trkpt lat="44.6338498" lon="5.2157455"><ele>880.0</ele><time>2026-04-18T14:40:04.958Z</time></trkpt><trkpt lat="44.6339701" lon="5.2157782"><ele>878.9999999999999</ele><time>2026-04-18T14:40:06.958Z</time></trkpt><trkpt lat="44.6340322" lon="5.2157951"><ele>877.9999999999999</ele><time>2026-04-18T14:40:07.957Z</time></trkpt><trkpt lat="44.6340978" lon="5.2158147"><ele>877.0</ele><time>2026-04-18T14:40:08.957Z</time></trkpt><trkpt lat="44.6341643" lon="5.2158367"><ele>876.0</ele><time>2026-04-18T14:40:09.957Z</time></trkpt><trkpt lat="44.634292" lon="5.2158865"><ele>876.0</ele><time>2026-04-18T14:40:11.958Z</time></trkpt><trkpt lat="44.6343604" lon="5.2159187"><ele>876.0</ele><time>2026-04-18T14:40:12.958Z</time></trkpt><trkpt lat="44.6344407" lon="5.2159466"><ele>876.0</ele><time>2026-04-18T14:40:13.957Z</time></trkpt><trkpt lat="44.6345188" lon="5.2159731"><ele>876.0</ele><time>2026-04-18T14:40:14.958Z</time></trkpt><trkpt lat="44.6345931" lon="5.2159974"><ele>876.0</ele><time>2026-04-18T14:40:15.958Z</time></trkpt><trkpt lat="44.6346724" lon="5.2160259"><ele>876.0</ele><time>2026-04-18T14:40:16.957Z</time></trkpt><trkpt lat="44.6347503" lon="5.216059"><ele>875.5</ele><time>2026-04-18T14:40:17.957Z</time></trkpt><trkpt lat="44.6348216" lon="5.2160897"><ele>875.0</ele><time>2026-04-18T14:40:18.958Z</time></trkpt><trkpt lat="44.6348983" lon="5.2161177"><ele>874.5</ele><time>2026-04-18T14:40:19.957Z</time></trkpt><trkpt lat="44.63496" lon="5.2161481"><ele>874.0</ele><time>2026-04-18T14:40:20.958Z</time></trkpt><trkpt lat="44.6350487" lon="5.2161907"><ele>873.5</ele><time>2026-04-18T14:40:22.957Z</time></trkpt><trkpt lat="44.6351116" lon="5.2162154"><ele>873.0</ele><time>2026-04-18T14:40:24.957Z</time></trkpt><trkpt lat="44.635204" lon="5.2162354"><ele>873.0</ele><time>2026-04-18T14:40:27.957Z</time></trkpt><trkpt lat="44.6352713" lon="5.2162446"><ele>873.0</ele><time>2026-04-18T14:40:29.957Z</time></trkpt><trkpt lat="44.6353631" lon="5.2162474"><ele>873.0</ele><time>2026-04-18T14:40:31.958Z</time></trkpt><trkpt lat="44.6354436" lon="5.2162718"><ele>873.0</ele><time>2026-04-18T14:40:33.957Z</time></trkpt><trkpt lat="44.635568" lon="5.2163011"><ele>873.0</ele><time>2026-04-18T14:40:35.958Z</time></trkpt><trkpt lat="44.6356728" lon="5.2163349"><ele>870.2</ele><time>2026-04-18T14:40:37.958Z</time></trkpt><trkpt lat="44.6357612" lon="5.2163447"><ele>867.4</ele><time>2026-04-18T14:40:38.958Z</time></trkpt><trkpt lat="44.6358604" lon="5.2163805"><ele>864.6000000000001</ele><time>2026-04-18T14:40:40.958Z</time></trkpt><trkpt lat="44.6359657" lon="5.2164054"><ele>861.8000000000001</ele><time>2026-04-18T14:40:43.958Z</time></trkpt><trkpt lat="44.6360677" lon="5.2164674"><ele>859.0</ele><time>2026-04-18T14:40:45.957Z</time></trkpt><trkpt lat="44.6361717" lon="5.2165106"><ele>857.9999999999999</ele><time>2026-04-18T14:40:47.958Z</time></trkpt><trkpt lat="44.6362726" lon="5.2165522"><ele>857.0</ele><time>2026-04-18T14:40:49.958Z</time></trkpt><trkpt lat="44.6363588" lon="5.2165887"><ele>856.0</ele><time>2026-04-18T14:40:52.958Z</time></trkpt><trkpt lat="44.6364221" lon="5.2166176"><ele>855.0</ele><time>2026-04-18T14:40:54.958Z</time></trkpt><trkpt lat="44.6364827" lon="5.2166496"><ele>853.9999999999999</ele><time>2026-04-18T14:40:56.956Z</time></trkpt><trkpt lat="44.6365458" lon="5.216694"><ele>853.0</ele><time>2026-04-18T14:40:58.958Z</time></trkpt><trkpt lat="44.6366268" lon="5.2167573"><ele>853.0</ele><time>2026-04-18T14:41:00.958Z</time></trkpt><trkpt lat="44.6366777" lon="5.2168189"><ele>853.0</ele><time>2026-04-18T14:41:01.957Z</time></trkpt><trkpt lat="44.6367822" lon="5.2169076"><ele>853.0</ele><time>2026-04-18T14:41:03.958Z</time></trkpt><trkpt lat="44.6369074" lon="5.2170338"><ele>853.0</ele><time>2026-04-18T14:41:05.958Z</time></trkpt><trkpt lat="44.6370075" lon="5.217148"><ele>852.8</ele><time>2026-04-18T14:41:07.958Z</time></trkpt><trkpt lat="44.6370992" lon="5.2172588"><ele>852.5999999999999</ele><time>2026-04-18T14:41:09.958Z</time></trkpt><trkpt lat="44.637205" lon="5.2173564"><ele>852.4000000000001</ele><time>2026-04-18T14:41:11.957Z</time></trkpt><trkpt lat="44.637315" lon="5.2174366"><ele>852.2</ele><time>2026-04-18T14:41:13.956Z</time></trkpt><trkpt lat="44.6373816" lon="5.2174931"><ele>852.0</ele><time>2026-04-18T14:41:14.957Z</time></trkpt><trkpt lat="44.6374785" lon="5.2176291"><ele>852.0</ele><time>2026-04-18T14:41:16.957Z</time></trkpt><trkpt lat="44.63754" lon="5.2177152"><ele>852.0</ele><time>2026-04-18T14:41:17.958Z</time></trkpt><trkpt lat="44.6376115" lon="5.2178077"><ele>852.0</ele><time>2026-04-18T14:41:18.956Z</time></trkpt><trkpt lat="44.6376591" lon="5.2178963"><ele>852.0</ele><time>2026-04-18T14:41:19.957Z</time></trkpt><trkpt lat="44.6377029" lon="5.2179766"><ele>852.0</ele><time>2026-04-18T14:41:20.957Z</time></trkpt><trkpt lat="44.6377574" lon="5.2180368"><ele>852.0</ele><time>2026-04-18T14:41:21.958Z</time></trkpt><trkpt lat="44.6378116" lon="5.2181185"><ele>850.6</ele><time>2026-04-18T14:41:22.958Z</time></trkpt><trkpt lat="44.6378834" lon="5.2181968"><ele>849.2</ele><time>2026-04-18T14:41:23.957Z</time></trkpt><trkpt lat="44.6379633" lon="5.2182726"><ele>847.8</ele><time>2026-04-18T14:41:24.957Z</time></trkpt><trkpt lat="44.6380327" lon="5.2183688"><ele>846.4</ele><time>2026-04-18T14:41:25.958Z</time></trkpt><trkpt lat="44.6381094" lon="5.2184438"><ele>845.0</ele><time>2026-04-18T14:41:26.958Z</time></trkpt><trkpt lat="44.6381877" lon="5.2185239"><ele>845.0000000000001</ele><time>2026-04-18T14:41:27.958Z</time></trkpt><trkpt lat="44.638274" lon="5.2185946"><ele>845.0</ele><time>2026-04-18T14:41:28.958Z</time></trkpt><trkpt lat="44.6383561" lon="5.2186519"><ele>845.0</ele><time>2026-04-18T14:41:29.957Z</time></trkpt><trkpt lat="44.6384149" lon="5.2187081"><ele>845.0</ele><time>2026-04-18T14:41:30.958Z</time></trkpt><trkpt lat="44.638498" lon="5.218765"><ele>845.0000000000001</ele><time>2026-04-18T14:41:31.958Z</time></trkpt><trkpt lat="44.6385618" lon="5.2188231"><ele>845.0</ele><time>2026-04-18T14:41:32.958Z</time></trkpt><trkpt lat="44.6386155" lon="5.2188825"><ele>842.5714285714286</ele><time>2026-04-18T14:41:33.956Z</time></trkpt><trkpt lat="44.6386693" lon="5.2189518"><ele>840.1428571428571</ele><time>2026-04-18T14:41:34.958Z</time></trkpt><trkpt lat="44.6387132" lon="5.2190161"><ele>837.7142857142858</ele><time>2026-04-18T14:41:35.957Z</time></trkpt><trkpt lat="44.6387443" lon="5.2190968"><ele>835.2857142857142</ele><time>2026-04-18T14:41:36.957Z</time></trkpt><trkpt lat="44.6387639" lon="5.219188"><ele>832.8571428571429</ele><time>2026-04-18T14:41:37.957Z</time></trkpt><trkpt lat="44.6387819" lon="5.2192793"><ele>830.4285714285714</ele><time>2026-04-18T14:41:38.958Z</time></trkpt><trkpt lat="44.6387962" lon="5.2193755"><ele>828.0</ele><time>2026-04-18T14:41:39.957Z</time></trkpt><trkpt lat="44.6388181" lon="5.2194703"><ele>828.0</ele><time>2026-04-18T14:41:40.958Z</time></trkpt><trkpt lat="44.6389097" lon="5.2195228"><ele>828.0</ele><time>2026-04-18T14:41:41.958Z</time></trkpt><trkpt lat="44.6389708" lon="5.2195785"><ele>828.0</ele><time>2026-04-18T14:41:42.958Z</time></trkpt><trkpt lat="44.6390229" lon="5.2196408"><ele>828.0</ele><time>2026-04-18T14:41:43.958Z</time></trkpt><trkpt lat="44.6390831" lon="5.2198106"><ele>828.0</ele><time>2026-04-18T14:41:45.958Z</time></trkpt><trkpt lat="44.639103" lon="5.2199223"><ele>830.0</ele><time>2026-04-18T14:41:46.958Z</time></trkpt><trkpt lat="44.6391253" lon="5.2200229"><ele>832.0</ele><time>2026-04-18T14:41:47.958Z</time></trkpt><trkpt lat="44.6391274" lon="5.2201299"><ele>834.0</ele><time>2026-04-18T14:41:48.958Z</time></trkpt><trkpt lat="44.6391277" lon="5.2202451"><ele>836.0</ele><time>2026-04-18T14:41:49.958Z</time></trkpt><trkpt lat="44.6391335" lon="5.2203627"><ele>838.0</ele><time>2026-04-18T14:41:50.957Z</time></trkpt><trkpt lat="44.6391381" lon="5.2204741"><ele>840.0</ele><time>2026-04-18T14:41:51.956Z</time></trkpt><trkpt lat="44.6391509" lon="5.2205724"><ele>840.0</ele><time>2026-04-18T14:41:52.956Z</time></trkpt><trkpt lat="44.6391595" lon="5.2206731"><ele>840.0</ele><time>2026-04-18T14:41:53.956Z</time></trkpt><trkpt lat="44.6391617" lon="5.2207823"><ele>840.0</ele><time>2026-04-18T14:41:54.957Z</time></trkpt><trkpt lat="44.6391709" lon="5.2208765"><ele>840.0</ele><time>2026-04-18T14:41:55.957Z</time></trkpt><trkpt lat="44.6391817" lon="5.2209656"><ele>840.0</ele><time>2026-04-18T14:41:56.957Z</time></trkpt><trkpt lat="44.6391542" lon="5.2211505"><ele>840.0</ele><time>2026-04-18T14:41:58.958Z</time></trkpt><trkpt lat="44.6391187" lon="5.2212379"><ele>840.0</ele><time>2026-04-18T14:41:59.956Z</time></trkpt><trkpt lat="44.6391032" lon="5.2213306"><ele>840.0</ele><time>2026-04-18T14:42:00.957Z</time></trkpt><trkpt lat="44.6391189" lon="5.2214295"><ele>840.0</ele><time>2026-04-18T14:42:01.958Z</time></trkpt><trkpt lat="44.6391809" lon="5.2215189"><ele>840.0</ele><time>2026-04-18T14:42:03.958Z</time></trkpt><trkpt lat="44.639234" lon="5.2215804"><ele>840.0</ele><time>2026-04-18T14:42:04.958Z</time></trkpt><trkpt lat="44.6393566" lon="5.2215906"><ele>840.0</ele><time>2026-04-18T14:42:05.958Z</time></trkpt><trkpt lat="44.6394261" lon="5.2216165"><ele>838.0</ele><time>2026-04-18T14:42:06.956Z</time></trkpt><trkpt lat="44.6395037" lon="5.2216631"><ele>836.0</ele><time>2026-04-18T14:42:07.957Z</time></trkpt><trkpt lat="44.6395797" lon="5.2216947"><ele>834.0</ele><time>2026-04-18T14:42:08.957Z</time></trkpt><trkpt lat="44.6396534" lon="5.2217046"><ele>832.0</ele><time>2026-04-18T14:42:09.957Z</time></trkpt><trkpt lat="44.6397917" lon="5.2217007"><ele>830.0</ele><time>2026-04-18T14:42:11.958Z</time></trkpt><trkpt lat="44.6398737" lon="5.2216529"><ele>830.0</ele><time>2026-04-18T14:42:12.958Z</time></trkpt><trkpt lat="44.6399762" lon="5.2216065"><ele>830.0</ele><time>2026-04-18T14:42:14.958Z</time></trkpt><trkpt lat="44.6401139" lon="5.2216225"><ele>830.0</ele><time>2026-04-18T14:42:16.957Z</time></trkpt><trkpt lat="44.6402606" lon="5.2217122"><ele>830.0</ele><time>2026-04-18T14:42:18.957Z</time></trkpt><trkpt lat="44.6403216" lon="5.221751"><ele>825.0</ele><time>2026-04-18T14:42:19.957Z</time></trkpt><trkpt lat="44.6403802" lon="5.2218054"><ele>820.0</ele><time>2026-04-18T14:42:20.958Z</time></trkpt><trkpt lat="44.6404338" lon="5.2218589"><ele>815.0</ele><time>2026-04-18T14:42:21.957Z</time></trkpt><trkpt lat="44.6405231" lon="5.2219747"><ele>810.0</ele><time>2026-04-18T14:42:23.958Z</time></trkpt><trkpt lat="44.6405745" lon="5.222116"><ele>805.0</ele><time>2026-04-18T14:42:25.957Z</time></trkpt><trkpt lat="44.6406047" lon="5.2222552"><ele>807.1666666666666</ele><time>2026-04-18T14:42:27.958Z</time></trkpt><trkpt lat="44.6406223" lon="5.2223887"><ele>809.3333333333333</ele><time>2026-04-18T14:42:29.957Z</time></trkpt><trkpt lat="44.6406229" lon="5.2225087"><ele>811.5</ele><time>2026-04-18T14:42:31.958Z</time></trkpt><trkpt lat="44.6406247" lon="5.2225973"><ele>813.6666666666667</ele><time>2026-04-18T14:42:32.958Z</time></trkpt><trkpt lat="44.6406612" lon="5.2227444"><ele>815.8333333333334</ele><time>2026-04-18T14:42:34.956Z</time></trkpt><trkpt lat="44.6407476" lon="5.2227803"><ele>818.0</ele><time>2026-04-18T14:42:37.956Z</time></trkpt><trkpt lat="44.6408105" lon="5.2227766"><ele>818.0000000000001</ele><time>2026-04-18T14:42:38.958Z</time></trkpt><trkpt lat="44.6408807" lon="5.2228036"><ele>818.0</ele><time>2026-04-18T14:42:40.957Z</time></trkpt><trkpt lat="44.640908" lon="5.2228836"><ele>818.0</ele><time>2026-04-18T14:42:42.957Z</time></trkpt><trkpt lat="44.6408993" lon="5.2229756"><ele>818.0</ele><time>2026-04-18T14:42:44.958Z</time></trkpt><trkpt lat="44.640914" lon="5.223103"><ele>818.0000000000001</ele><time>2026-04-18T14:42:47.957Z</time></trkpt><trkpt lat="44.6409886" lon="5.2231736"><ele>818.0</ele><time>2026-04-18T14:42:49.957Z</time></trkpt><trkpt lat="44.6410626" lon="5.2232199"><ele>814.4</ele><time>2026-04-18T14:42:50.957Z</time></trkpt><trkpt lat="44.6411682" lon="5.2233035"><ele>810.8</ele><time>2026-04-18T14:42:52.957Z</time></trkpt><trkpt lat="44.6412465" lon="5.2233534"><ele>807.2</ele><time>2026-04-18T14:42:53.957Z</time></trkpt><trkpt lat="44.641303" lon="5.2234031"><ele>803.6</ele><time>2026-04-18T14:42:54.958Z</time></trkpt><trkpt lat="44.6413979" lon="5.2235146"><ele>800.0</ele><time>2026-04-18T14:42:56.957Z</time></trkpt><trkpt lat="44.6414626" lon="5.2235382"><ele>800.0000000000001</ele><time>2026-04-18T14:42:57.958Z</time></trkpt><trkpt lat="44.6415238" lon="5.2235877"><ele>800.0</ele><time>2026-04-18T14:42:58.956Z</time></trkpt><trkpt lat="44.6415637" lon="5.2236662"><ele>800.0</ele><time>2026-04-18T14:43:00.958Z</time></trkpt><trkpt lat="44.6416258" lon="5.2237853"><ele>800.0</ele><time>2026-04-18T14:43:02.957Z</time></trkpt><trkpt lat="44.6416545" lon="5.2238773"><ele>800.0000000000001</ele><time>2026-04-18T14:43:03.956Z</time></trkpt><trkpt lat="44.6417044" lon="5.2240382"><ele>800.0</ele><time>2026-04-18T14:43:05.956Z</time></trkpt><trkpt lat="44.6417355" lon="5.2241301"><ele>802.0</ele><time>2026-04-18T14:43:06.957Z</time></trkpt><trkpt lat="44.6417615" lon="5.2242262"><ele>804.0</ele><time>2026-04-18T14:43:07.957Z</time></trkpt><trkpt lat="44.6418172" lon="5.2244011"><ele>806.0</ele><time>2026-04-18T14:43:09.957Z</time></trkpt><trkpt lat="44.641852" lon="5.2245025"><ele>808.0</ele><time>2026-04-18T14:43:10.957Z</time></trkpt><trkpt lat="44.6418826" lon="5.2245941"><ele>810.0</ele><time>2026-04-18T14:43:11.958Z</time></trkpt><trkpt lat="44.6419517" lon="5.2247448"><ele>805.5</ele><time>2026-04-18T14:43:13.957Z</time></trkpt><trkpt lat="44.6419973" lon="5.2248362"><ele>801.0</ele><time>2026-04-18T14:43:14.958Z</time></trkpt><trkpt lat="44.642046" lon="5.2249089"><ele>796.5</ele><time>2026-04-18T14:43:15.957Z</time></trkpt><trkpt lat="44.6421341" lon="5.2250251"><ele>792.0</ele><time>2026-04-18T14:43:17.957Z</time></trkpt><trkpt lat="44.6421742" lon="5.2251175"><ele>787.5</ele><time>2026-04-18T14:43:19.958Z</time></trkpt><trkpt lat="44.6421713" lon="5.2252194"><ele>783.0</ele><time>2026-04-18T14:43:21.957Z</time></trkpt><trkpt lat="44.6421292" lon="5.2252915"><ele>783.0</ele><time>2026-04-18T14:43:23.956Z</time></trkpt><trkpt lat="44.642068" lon="5.2253371"><ele>783.0</ele><time>2026-04-18T14:43:24.958Z</time></trkpt><trkpt lat="44.6419678" lon="5.2254106"><ele>783.0</ele><time>2026-04-18T14:43:26.956Z</time></trkpt><trkpt lat="44.6418788" lon="5.2254915"><ele>783.0</ele><time>2026-04-18T14:43:28.958Z</time></trkpt><trkpt lat="44.6418046" lon="5.2255972"><ele>783.0</ele><time>2026-04-18T14:43:30.956Z</time></trkpt><trkpt lat="44.6417516" lon="5.2257154"><ele>786.8</ele><time>2026-04-18T14:43:32.958Z</time></trkpt><trkpt lat="44.6417073" lon="5.2258345"><ele>790.5999999999999</ele><time>2026-04-18T14:43:34.958Z</time></trkpt><trkpt lat="44.6416624" lon="5.2259639"><ele>794.4000000000001</ele><time>2026-04-18T14:43:36.958Z</time></trkpt><trkpt lat="44.6416178" lon="5.2260971"><ele>798.2</ele><time>2026-04-18T14:43:38.958Z</time></trkpt><trkpt lat="44.6416066" lon="5.2262465"><ele>802.0</ele><time>2026-04-18T14:43:40.957Z</time></trkpt><trkpt lat="44.6416025" lon="5.2263361"><ele>802.0</ele><time>2026-04-18T14:43:41.957Z</time></trkpt><trkpt lat="44.6416185" lon="5.2264771"><ele>802.0</ele><time>2026-04-18T14:43:43.957Z</time></trkpt><trkpt lat="44.6416613" lon="5.2266213"><ele>802.0</ele><time>2026-04-18T14:43:45.956Z</time></trkpt><trkpt lat="44.6417572" lon="5.2266877"><ele>802.0</ele><time>2026-04-18T14:43:47.957Z</time></trkpt><trkpt lat="44.641851" lon="5.2267701"><ele>802.0</ele><time>2026-04-18T14:43:49.957Z</time></trkpt><trkpt lat="44.6419484" lon="5.2267444"><ele>796.1666666666666</ele><time>2026-04-18T14:43:50.957Z</time></trkpt><trkpt lat="44.6420604" lon="5.2268107"><ele>790.3333333333333</ele><time>2026-04-18T14:43:52.957Z</time></trkpt><trkpt lat="44.6421521" lon="5.2269282"><ele>784.5</ele><time>2026-04-18T14:43:54.958Z</time></trkpt><trkpt lat="44.6422018" lon="5.2269913"><ele>778.6666666666666</ele><time>2026-04-18T14:43:55.958Z</time></trkpt><trkpt lat="44.6422462" lon="5.2270584"><ele>772.8333333333333</ele><time>2026-04-18T14:43:56.957Z</time></trkpt><trkpt lat="44.6422912" lon="5.2271366"><ele>767.0</ele><time>2026-04-18T14:43:57.958Z</time></trkpt><trkpt lat="44.6423184" lon="5.2272492"><ele>771.0</ele><time>2026-04-18T14:43:58.957Z</time></trkpt><trkpt lat="44.6423375" lon="5.2273564"><ele>775.0</ele><time>2026-04-18T14:43:59.957Z</time></trkpt><trkpt lat="44.6423715" lon="5.2274496"><ele>779.0</ele><time>2026-04-18T14:44:00.958Z</time></trkpt><trkpt lat="44.6424181" lon="5.2275427"><ele>783.0</ele><time>2026-04-18T14:44:01.957Z</time></trkpt><trkpt lat="44.6424615" lon="5.2276343"><ele>787.0000000000001</ele><time>2026-04-18T14:44:02.957Z</time></trkpt><trkpt lat="44.6425017" lon="5.2277094"><ele>791.0</ele><time>2026-04-18T14:44:03.957Z</time></trkpt><trkpt lat="44.6425496" lon="5.2277958"><ele>791.0000000000001</ele><time>2026-04-18T14:44:04.958Z</time></trkpt><trkpt lat="44.6425989" lon="5.2278786"><ele>791.0</ele><time>2026-04-18T14:44:05.957Z</time></trkpt><trkpt lat="44.6426512" lon="5.2279579"><ele>791.0</ele><time>2026-04-18T14:44:06.957Z</time></trkpt><trkpt lat="44.6426987" lon="5.2280246"><ele>791.0</ele><time>2026-04-18T14:44:07.957Z</time></trkpt><trkpt lat="44.6427867" lon="5.2281369"><ele>791.0000000000001</ele><time>2026-04-18T14:44:09.956Z</time></trkpt><trkpt lat="44.6428618" lon="5.2281444"><ele>791.0</ele><time>2026-04-18T14:44:10.957Z</time></trkpt><trkpt lat="44.6429323" lon="5.228129"><ele>789.5000000000001</ele><time>2026-04-18T14:44:11.956Z</time></trkpt><trkpt lat="44.6430015" lon="5.2281455"><ele>788.0</ele><time>2026-04-18T14:44:12.958Z</time></trkpt><trkpt lat="44.6430729" lon="5.2281906"><ele>786.5</ele><time>2026-04-18T14:44:13.958Z</time></trkpt><trkpt lat="44.6431367" lon="5.2282349"><ele>785.0</ele><time>2026-04-18T14:44:14.958Z</time></trkpt><trkpt lat="44.6431959" lon="5.2282907"><ele>783.5000000000001</ele><time>2026-04-18T14:44:15.958Z</time></trkpt><trkpt lat="44.6432665" lon="5.2284058"><ele>782.0</ele><time>2026-04-18T14:44:17.957Z</time></trkpt><trkpt lat="44.6432971" lon="5.2284834"><ele>781.9999999999999</ele><time>2026-04-18T14:44:18.957Z</time></trkpt><trkpt lat="44.6433271" lon="5.2285746"><ele>782.0</ele><time>2026-04-18T14:44:19.957Z</time></trkpt><trkpt lat="44.6433581" lon="5.2286613"><ele>782.0</ele><time>2026-04-18T14:44:20.958Z</time></trkpt><trkpt lat="44.6433956" lon="5.2287527"><ele>782.0</ele><time>2026-04-18T14:44:21.958Z</time></trkpt><trkpt lat="44.6434327" lon="5.2288368"><ele>782.0</ele><time>2026-04-18T14:44:22.957Z</time></trkpt><trkpt lat="44.6434825" lon="5.2289308"><ele>781.9999999999999</ele><time>2026-04-18T14:44:23.957Z</time></trkpt><trkpt lat="44.6435297" lon="5.2290155"><ele>782.0</ele><time>2026-04-18T14:44:24.957Z</time></trkpt><trkpt lat="44.6435757" lon="5.2290964"><ele>782.0000000000001</ele><time>2026-04-18T14:44:25.957Z</time></trkpt><trkpt lat="44.643632" lon="5.2291908"><ele>782.0</ele><time>2026-04-18T14:44:26.957Z</time></trkpt><trkpt lat="44.6436816" lon="5.2292811"><ele>782.0</ele><time>2026-04-18T14:44:27.958Z</time></trkpt><trkpt lat="44.6437242" lon="5.22937"><ele>782.0</ele><time>2026-04-18T14:44:28.956Z</time></trkpt><trkpt lat="44.6437711" lon="5.2294803"><ele>782.0000000000001</ele><time>2026-04-18T14:44:29.957Z</time></trkpt><trkpt lat="44.6438094" lon="5.2295941"><ele>782.0</ele><time>2026-04-18T14:44:30.957Z</time></trkpt><trkpt lat="44.6438553" lon="5.2297014"><ele>782.0000000000001</ele><time>2026-04-18T14:44:31.956Z</time></trkpt><trkpt lat="44.6438769" lon="5.2297904"><ele>782.0</ele><time>2026-04-18T14:44:32.956Z</time></trkpt><trkpt lat="44.6439095" lon="5.2298868"><ele>782.0</ele><time>2026-04-18T14:44:33.958Z</time></trkpt><trkpt lat="44.6439565" lon="5.2299853"><ele>782.0</ele><time>2026-04-18T14:44:34.958Z</time></trkpt><trkpt lat="44.6439988" lon="5.2300587"><ele>782.0000000000001</ele><time>2026-04-18T14:44:35.958Z</time></trkpt><trkpt lat="44.6440342" lon="5.2301505"><ele>782.0</ele><time>2026-04-18T14:44:36.957Z</time></trkpt><trkpt lat="44.6440988" lon="5.2302576"><ele>785.5000000000001</ele><time>2026-04-18T14:44:37.958Z</time></trkpt><trkpt lat="44.6441364" lon="5.2303453"><ele>789.0</ele><time>2026-04-18T14:44:38.957Z</time></trkpt><trkpt lat="44.6441711" lon="5.2304451"><ele>792.5</ele><time>2026-04-18T14:44:39.957Z</time></trkpt><trkpt lat="44.6442343" lon="5.2305914"><ele>796.0</ele><time>2026-04-18T14:44:41.958Z</time></trkpt><trkpt lat="44.6442211" lon="5.230718"><ele>799.5000000000001</ele><time>2026-04-18T14:44:43.957Z</time></trkpt><trkpt lat="44.6441899" lon="5.2308126"><ele>803.0</ele><time>2026-04-18T14:44:45.958Z</time></trkpt><trkpt lat="44.6440845" lon="5.2309012"><ele>803.5000000000001</ele><time>2026-04-18T14:44:47.957Z</time></trkpt><trkpt lat="44.6440166" lon="5.2309361"><ele>804.0</ele><time>2026-04-18T14:44:48.957Z</time></trkpt><trkpt lat="44.6439448" lon="5.2309717"><ele>804.5</ele><time>2026-04-18T14:44:49.958Z</time></trkpt><trkpt lat="44.6438706" lon="5.2310028"><ele>805.0</ele><time>2026-04-18T14:44:50.958Z</time></trkpt><trkpt lat="44.643789" lon="5.231055"><ele>805.5000000000001</ele><time>2026-04-18T14:44:51.956Z</time></trkpt><trkpt lat="44.6437089" lon="5.2310977"><ele>806.0</ele><time>2026-04-18T14:44:52.957Z</time></trkpt><trkpt lat="44.6436572" lon="5.2311555"><ele>808.6666666666667</ele><time>2026-04-18T14:44:53.958Z</time></trkpt><trkpt lat="44.6435903" lon="5.2312022"><ele>811.3333333333334</ele><time>2026-04-18T14:44:54.958Z</time></trkpt><trkpt lat="44.6435258" lon="5.2312625"><ele>814.0</ele><time>2026-04-18T14:44:55.957Z</time></trkpt><trkpt lat="44.6434741" lon="5.2313231"><ele>816.6666666666667</ele><time>2026-04-18T14:45:57.955Z</time></trkpt><trkpt lat="44.6434056" lon="5.2313868"><ele>819.3333333333334</ele><time>2026-04-18T14:45:59.956Z</time></trkpt><trkpt lat="44.643322" lon="5.2314667"><ele>822.0</ele><time>2026-04-18T14:46:01.956Z</time></trkpt><trkpt lat="44.6432363" lon="5.2315436"><ele>822.0</ele><time>2026-04-18T14:46:03.956Z</time></trkpt><trkpt lat="44.6431783" lon="5.2315812"><ele>822.0</ele><time>2026-04-18T14:46:04.956Z</time></trkpt><trkpt lat="44.6431116" lon="5.231626"><ele>822.0</ele><time>2026-04-18T14:46:05.957Z</time></trkpt><trkpt lat="44.6430433" lon="5.2316837"><ele>822.0</ele><time>2026-04-18T14:46:06.957Z</time></trkpt><trkpt lat="44.6429789" lon="5.2317398"><ele>822.0</ele><time>2026-04-18T14:46:07.957Z</time></trkpt><trkpt lat="44.6429095" lon="5.2317837"><ele>822.0</ele><time>2026-04-18T14:46:08.957Z</time></trkpt><trkpt lat="44.6428508" lon="5.23183"><ele>822.0</ele><time>2026-04-18T14:46:09.957Z</time></trkpt><trkpt lat="44.6427499" lon="5.2319089"><ele>829.0</ele><time>2026-04-18T14:46:11.956Z</time></trkpt><trkpt lat="44.6426642" lon="5.231963"><ele>836.0</ele><time>2026-04-18T14:46:13.956Z</time></trkpt><trkpt lat="44.64268" lon="5.2319392"><ele>843.0</ele><time>2026-04-18T14:48:12.469Z</time></trkpt><trkpt lat="44.6425263" lon="5.2320648"><ele>850.0</ele><time>2026-04-18T14:48:13.446Z</time></trkpt><trkpt lat="44.6424391" lon="5.2321312"><ele>857.0</ele><time>2026-04-18T14:48:14.445Z</time></trkpt><trkpt lat="44.6423712" lon="5.2321808"><ele>857.0</ele><time>2026-04-18T14:48:15.445Z</time></trkpt><trkpt lat="44.6422671" lon="5.2322445"><ele>857.0</ele><time>2026-04-18T14:48:17.445Z</time></trkpt><trkpt lat="44.6421791" lon="5.2323242"><ele>857.0</ele><time>2026-04-18T14:48:19.446Z</time></trkpt><trkpt lat="44.642175" lon="5.2324491"><ele>857.0</ele><time>2026-04-18T14:48:21.445Z</time></trkpt><trkpt lat="44.6422467" lon="5.2325642"><ele>857.0</ele><time>2026-04-18T14:48:23.445Z</time></trkpt><trkpt lat="44.6423276" lon="5.2326858"><ele>858.1428571428571</ele><time>2026-04-18T14:48:25.445Z</time></trkpt><trkpt lat="44.6423677" lon="5.2327559"><ele>859.2857142857142</ele><time>2026-04-18T14:48:26.445Z</time></trkpt><trkpt lat="44.642405" lon="5.232837"><ele>860.4285714285714</ele><time>2026-04-18T14:48:27.445Z</time></trkpt><trkpt lat="44.6424443" lon="5.2329247"><ele>861.5714285714286</ele><time>2026-04-18T14:48:28.445Z</time></trkpt><trkpt lat="44.6424937" lon="5.2330059"><ele>862.7142857142858</ele><time>2026-04-18T14:48:29.445Z</time></trkpt><trkpt lat="44.6425484" lon="5.2330742"><ele>863.8571428571429</ele><time>2026-04-18T14:48:30.445Z</time></trkpt><trkpt lat="44.6426006" lon="5.2331264"><ele>865.0</ele><time>2026-04-18T14:48:31.445Z</time></trkpt><trkpt lat="44.6427002" lon="5.2332191"><ele>859.0</ele><time>2026-04-18T14:48:33.445Z</time></trkpt><trkpt lat="44.6428114" lon="5.2333239"><ele>853.0</ele><time>2026-04-18T14:48:35.445Z</time></trkpt><trkpt lat="44.6428753" lon="5.2333765"><ele>847.0</ele><time>2026-04-18T14:48:36.445Z</time></trkpt><trkpt lat="44.6429872" lon="5.2334587"><ele>841.0</ele><time>2026-04-18T14:48:38.445Z</time></trkpt><trkpt lat="44.6431119" lon="5.2335458"><ele>840.9999999999999</ele><time>2026-04-18T14:48:40.445Z</time></trkpt><trkpt lat="44.6431702" lon="5.2335938"><ele>841.0</ele><time>2026-04-18T14:48:41.445Z</time></trkpt><trkpt lat="44.6432634" lon="5.2336596"><ele>841.0</ele><time>2026-04-18T14:48:43.446Z</time></trkpt><trkpt lat="44.6433219" lon="5.2337047"><ele>841.0</ele><time>2026-04-18T14:48:46.445Z</time></trkpt><trkpt lat="44.6433737" lon="5.2337802"><ele>840.9999999999999</ele><time>2026-04-18T14:53:10.444Z</time></trkpt><trkpt lat="44.6434694" lon="5.2338689"><ele>841.0</ele><time>2026-04-18T14:53:12.444Z</time></trkpt><trkpt lat="44.6435227" lon="5.2339201"><ele>839.4999999999999</ele><time>2026-04-18T14:53:13.443Z</time></trkpt><trkpt lat="44.6436054" lon="5.2340215"><ele>838.0</ele><time>2026-04-18T14:53:15.444Z</time></trkpt><trkpt lat="44.6436399" lon="5.2341372"><ele>836.5</ele><time>2026-04-18T14:53:17.444Z</time></trkpt><trkpt lat="44.6436254" lon="5.2342715"><ele>835.0</ele><time>2026-04-18T14:53:19.444Z</time></trkpt><trkpt lat="44.6435986" lon="5.2343642"><ele>833.4999999999999</ele><time>2026-04-18T14:53:20.444Z</time></trkpt><trkpt lat="44.6435644" lon="5.2344557"><ele>832.0</ele><time>2026-04-18T14:53:21.444Z</time></trkpt><trkpt lat="44.6435255" lon="5.2345608"><ele>838.1666666666666</ele><time>2026-04-18T14:53:22.444Z</time></trkpt><trkpt lat="44.6434905" lon="5.234669"><ele>844.3333333333333</ele><time>2026-04-18T14:53:23.444Z</time></trkpt><trkpt lat="44.6434573" lon="5.2347731"><ele>850.5</ele><time>2026-04-18T14:53:24.444Z</time></trkpt><trkpt lat="44.6434355" lon="5.23486"><ele>856.6666666666667</ele><time>2026-04-18T14:53:25.444Z</time></trkpt><trkpt lat="44.6434065" lon="5.234959"><ele>862.8333333333334</ele><time>2026-04-18T14:53:27.444Z</time></trkpt><trkpt lat="44.6433906" lon="5.2350842"><ele>869.0</ele><time>2026-04-18T14:53:29.444Z</time></trkpt><trkpt lat="44.643373" lon="5.235235"><ele>869.2</ele><time>2026-04-18T14:53:31.443Z</time></trkpt><trkpt lat="44.6433589" lon="5.2353566"><ele>869.4000000000001</ele><time>2026-04-18T14:53:33.444Z</time></trkpt><trkpt lat="44.6433128" lon="5.2354555"><ele>869.6</ele><time>2026-04-18T14:53:35.443Z</time></trkpt><trkpt lat="44.6432537" lon="5.2355315"><ele>869.8</ele><time>2026-04-18T14:53:37.444Z</time></trkpt><trkpt lat="44.6431709" lon="5.2355966"><ele>870.0</ele><time>2026-04-18T14:53:39.444Z</time></trkpt><trkpt lat="44.6430617" lon="5.2356796"><ele>871.2857142857143</ele><time>2026-04-18T14:53:41.444Z</time></trkpt><trkpt lat="44.6430046" lon="5.2357356"><ele>872.5714285714286</ele><time>2026-04-18T14:53:42.444Z</time></trkpt><trkpt lat="44.6429464" lon="5.2358019"><ele>873.8571428571429</ele><time>2026-04-18T14:53:43.444Z</time></trkpt><trkpt lat="44.6428867" lon="5.235866"><ele>875.1428571428571</ele><time>2026-04-18T14:53:44.444Z</time></trkpt><trkpt lat="44.6428331" lon="5.2359318"><ele>876.4285714285714</ele><time>2026-04-18T14:53:45.444Z</time></trkpt><trkpt lat="44.6427729" lon="5.2360012"><ele>877.7142857142858</ele><time>2026-04-18T14:53:46.444Z</time></trkpt><trkpt lat="44.6427107" lon="5.2360685"><ele>879.0</ele><time>2026-04-18T14:53:47.444Z</time></trkpt><trkpt lat="44.6426491" lon="5.2361472"><ele>879.0</ele><time>2026-04-18T14:53:48.444Z</time></trkpt><trkpt lat="44.642591" lon="5.2362188"><ele>879.0</ele><time>2026-04-18T14:53:49.444Z</time></trkpt><trkpt lat="44.6425343" lon="5.2362891"><ele>879.0</ele><time>2026-04-18T14:53:50.444Z</time></trkpt><trkpt lat="44.6424818" lon="5.2363535"><ele>879.0</ele><time>2026-04-18T14:53:51.444Z</time></trkpt><trkpt lat="44.6423923" lon="5.2364551"><ele>879.0</ele><time>2026-04-18T14:53:53.444Z</time></trkpt><trkpt lat="44.6423518" lon="5.2365698"><ele>879.0</ele><time>2026-04-18T14:53:55.444Z</time></trkpt><trkpt lat="44.642437" lon="5.2366667"><ele>876.2</ele><time>2026-04-18T14:53:57.444Z</time></trkpt><trkpt lat="44.6425424" lon="5.2367333"><ele>873.4000000000001</ele><time>2026-04-18T14:53:59.444Z</time></trkpt><trkpt lat="44.642652" lon="5.2368128"><ele>870.6</ele><time>2026-04-18T14:54:01.444Z</time></trkpt><trkpt lat="44.6427085" lon="5.236868"><ele>867.8</ele><time>2026-04-18T14:54:02.444Z</time></trkpt><trkpt lat="44.642808" lon="5.2369363"><ele>865.0</ele><time>2026-04-18T14:54:04.443Z</time></trkpt><trkpt lat="44.6429029" lon="5.237024"><ele>864.2857142857143</ele><time>2026-04-18T14:54:06.444Z</time></trkpt><trkpt lat="44.6429606" lon="5.2370839"><ele>863.5714285714287</ele><time>2026-04-18T14:54:07.444Z</time></trkpt><trkpt lat="44.6430223" lon="5.2371398"><ele>862.8571428571429</ele><time>2026-04-18T14:54:08.443Z</time></trkpt><trkpt lat="44.6430881" lon="5.2372018"><ele>862.1428571428571</ele><time>2026-04-18T14:54:09.444Z</time></trkpt><trkpt lat="44.6431517" lon="5.2372682"><ele>861.4285714285714</ele><time>2026-04-18T14:54:10.444Z</time></trkpt><trkpt lat="44.6432049" lon="5.2373265"><ele>860.7142857142857</ele><time>2026-04-18T14:54:11.444Z</time></trkpt><trkpt lat="44.6432611" lon="5.2373846"><ele>860.0</ele><time>2026-04-18T14:54:12.444Z</time></trkpt><trkpt lat="44.6433172" lon="5.2374503"><ele>860.0000000000001</ele><time>2026-04-18T14:54:13.443Z</time></trkpt><trkpt lat="44.6433724" lon="5.2375235"><ele>860.0</ele><time>2026-04-18T14:54:14.444Z</time></trkpt><trkpt lat="44.6434209" lon="5.2375984"><ele>860.0</ele><time>2026-04-18T14:54:15.444Z</time></trkpt><trkpt lat="44.6434596" lon="5.2376786"><ele>860.0</ele><time>2026-04-18T14:54:16.443Z</time></trkpt><trkpt lat="44.6434954" lon="5.2377622"><ele>860.0000000000001</ele><time>2026-04-18T14:54:17.444Z</time></trkpt><trkpt lat="44.6435334" lon="5.2379104"><ele>860.0</ele><time>2026-04-18T14:54:19.444Z</time></trkpt><trkpt lat="44.6435207" lon="5.2380309"><ele>860.0</ele><time>2026-04-18T14:54:21.444Z</time></trkpt><trkpt lat="44.6434512" lon="5.2381203"><ele>860.0</ele><time>2026-04-18T14:54:23.444Z</time></trkpt><trkpt lat="44.6433996" lon="5.2381793"><ele>860.0</ele><time>2026-04-18T14:54:24.444Z</time></trkpt><trkpt lat="44.6433425" lon="5.2382301"><ele>860.0</ele><time>2026-04-18T14:54:25.443Z</time></trkpt><trkpt lat="44.6432898" lon="5.2382974"><ele>860.0</ele><time>2026-04-18T14:54:26.444Z</time></trkpt><trkpt lat="44.643239" lon="5.2383739"><ele>860.0</ele><time>2026-04-18T14:54:27.444Z</time></trkpt><trkpt lat="44.6431929" lon="5.2384441"><ele>860.0</ele><time>2026-04-18T14:54:28.444Z</time></trkpt><trkpt lat="44.6431456" lon="5.2385052"><ele>861.0</ele><time>2026-04-18T14:54:29.444Z</time></trkpt><trkpt lat="44.6430826" lon="5.2385617"><ele>862.0</ele><time>2026-04-18T14:54:30.444Z</time></trkpt><trkpt lat="44.64296" lon="5.2386188"><ele>863.0</ele><time>2026-04-18T14:54:32.444Z</time></trkpt><trkpt lat="44.6428876" lon="5.2386358"><ele>864.0</ele><time>2026-04-18T14:54:33.444Z</time></trkpt><trkpt lat="44.6428211" lon="5.2386418"><ele>865.0</ele><time>2026-04-18T14:54:34.444Z</time></trkpt><trkpt lat="44.6427123" lon="5.2386431"><ele>869.4999999999999</ele><time>2026-04-18T14:54:36.444Z</time></trkpt><trkpt lat="44.6426488" lon="5.2386428"><ele>874.0</ele><time>2026-04-18T14:54:37.444Z</time></trkpt><trkpt lat="44.6425756" lon="5.2386573"><ele>878.5</ele><time>2026-04-18T14:54:38.444Z</time></trkpt><trkpt lat="44.6425112" lon="5.2386805"><ele>883.0</ele><time>2026-04-18T14:54:39.444Z</time></trkpt><trkpt lat="44.6424144" lon="5.2387496"><ele>887.4999999999999</ele><time>2026-04-18T14:54:41.444Z</time></trkpt><trkpt lat="44.6423625" lon="5.2388175"><ele>892.0</ele><time>2026-04-18T14:54:42.444Z</time></trkpt><trkpt lat="44.6423176" lon="5.2388898"><ele>891.9999999999999</ele><time>2026-04-18T14:54:43.444Z</time></trkpt><trkpt lat="44.6422763" lon="5.2389569"><ele>892.0</ele><time>2026-04-18T14:54:44.444Z</time></trkpt><trkpt lat="44.6421646" lon="5.2390377"><ele>892.0</ele><time>2026-04-18T14:54:46.444Z</time></trkpt><trkpt lat="44.6420988" lon="5.2390634"><ele>892.0</ele><time>2026-04-18T14:54:47.443Z</time></trkpt><trkpt lat="44.6420379" lon="5.2390882"><ele>891.9999999999999</ele><time>2026-04-18T14:54:48.444Z</time></trkpt><trkpt lat="44.6419431" lon="5.2391575"><ele>892.0</ele><time>2026-04-18T14:54:50.444Z</time></trkpt><trkpt lat="44.6418516" lon="5.2392864"><ele>892.1666666666666</ele><time>2026-04-18T14:54:52.444Z</time></trkpt><trkpt lat="44.6418244" lon="5.2393823"><ele>892.3333333333333</ele><time>2026-04-18T14:54:53.444Z</time></trkpt><trkpt lat="44.6417972" lon="5.2394747"><ele>892.5</ele><time>2026-04-18T14:54:54.444Z</time></trkpt><trkpt lat="44.6417628" lon="5.2396238"><ele>892.6666666666667</ele><time>2026-04-18T14:54:56.444Z</time></trkpt><trkpt lat="44.6417425" lon="5.239749"><ele>892.8333333333334</ele><time>2026-04-18T14:55:41.443Z</time></trkpt><trkpt lat="44.6417042" lon="5.2398402"><ele>893.0</ele><time>2026-04-18T14:55:43.444Z</time></trkpt><trkpt lat="44.6416542" lon="5.2399148"><ele>891.5999999999999</ele><time>2026-04-18T14:55:45.444Z</time></trkpt><trkpt lat="44.6415707" lon="5.2400063"><ele>890.1999999999999</ele><time>2026-04-18T14:55:47.444Z</time></trkpt><trkpt lat="44.6414879" lon="5.2401047"><ele>888.8</ele><time>2026-04-18T14:55:49.444Z</time></trkpt><trkpt lat="44.6414391" lon="5.2402182"><ele>887.4</ele><time>2026-04-18T14:55:51.444Z</time></trkpt><trkpt lat="44.6414562" lon="5.2403347"><ele>886.0</ele><time>2026-04-18T14:55:53.443Z</time></trkpt><trkpt lat="44.6415566" lon="5.2404086"><ele>885.9999999999999</ele><time>2026-04-18T14:55:55.445Z</time></trkpt><trkpt lat="44.6416271" lon="5.240411"><ele>886.0</ele><time>2026-04-18T14:55:56.444Z</time></trkpt><trkpt lat="44.6416935" lon="5.2403999"><ele>886.0</ele><time>2026-04-18T14:55:57.444Z</time></trkpt><trkpt lat="44.6418294" lon="5.2403844"><ele>886.0</ele><time>2026-04-18T14:55:59.444Z</time></trkpt><trkpt lat="44.6418958" lon="5.2403781"><ele>885.9999999999999</ele><time>2026-04-18T14:56:00.444Z</time></trkpt><trkpt lat="44.6419585" lon="5.2403666"><ele>886.0</ele><time>2026-04-18T14:56:01.444Z</time></trkpt><trkpt lat="44.6420357" lon="5.240366"><ele>885.3333333333333</ele><time>2026-04-18T14:56:02.444Z</time></trkpt><trkpt lat="44.642115" lon="5.2403538"><ele>884.6666666666666</ele><time>2026-04-18T14:56:03.444Z</time></trkpt><trkpt lat="44.6421971" lon="5.2403303"><ele>884.0</ele><time>2026-04-18T14:56:04.443Z</time></trkpt><trkpt lat="44.6422636" lon="5.2403115"><ele>883.3333333333333</ele><time>2026-04-18T14:56:05.444Z</time></trkpt><trkpt lat="44.6423265" lon="5.2403017"><ele>882.6666666666666</ele><time>2026-04-18T14:56:06.444Z</time></trkpt><trkpt lat="44.642402" lon="5.2403117"><ele>882.0</ele><time>2026-04-18T14:56:07.444Z</time></trkpt><trkpt lat="44.6424978" lon="5.2403979"><ele>882.0</ele><time>2026-04-18T14:56:09.444Z</time></trkpt><trkpt lat="44.6425445" lon="5.2404639"><ele>882.0</ele><time>2026-04-18T14:56:10.443Z</time></trkpt><trkpt lat="44.6425842" lon="5.2405374"><ele>882.0</ele><time>2026-04-18T14:56:11.444Z</time></trkpt><trkpt lat="44.6426247" lon="5.2406184"><ele>882.0</ele><time>2026-04-18T14:56:12.443Z</time></trkpt><trkpt lat="44.6426678" lon="5.2406968"><ele>882.0</ele><time>2026-04-18T14:56:13.444Z</time></trkpt><trkpt lat="44.6427193" lon="5.2407485"><ele>882.0</ele><time>2026-04-18T14:56:14.444Z</time></trkpt><trkpt lat="44.6427784" lon="5.240789"><ele>882.0</ele><time>2026-04-18T14:56:15.443Z</time></trkpt><trkpt lat="44.6428481" lon="5.2408082"><ele>884.1666666666666</ele><time>2026-04-18T14:56:16.444Z</time></trkpt><trkpt lat="44.6429199" lon="5.2408168"><ele>886.3333333333333</ele><time>2026-04-18T14:56:17.444Z</time></trkpt><trkpt lat="44.6430033" lon="5.2408047"><ele>888.5</ele><time>2026-04-18T14:56:18.444Z</time></trkpt><trkpt lat="44.6430887" lon="5.2408049"><ele>890.6666666666666</ele><time>2026-04-18T14:56:19.444Z</time></trkpt><trkpt lat="44.6431611" lon="5.2408019"><ele>892.8333333333333</ele><time>2026-04-18T14:56:20.444Z</time></trkpt><trkpt lat="44.6432293" lon="5.2408096"><ele>895.0</ele><time>2026-04-18T14:56:21.443Z</time></trkpt><trkpt lat="44.6433475" lon="5.2408624"><ele>895.0</ele><time>2026-04-18T14:56:23.444Z</time></trkpt><trkpt lat="44.6434607" lon="5.2409481"><ele>895.0</ele><time>2026-04-18T14:56:25.443Z</time></trkpt><trkpt lat="44.6435302" lon="5.2409693"><ele>895.0</ele><time>2026-04-18T14:56:26.444Z</time></trkpt><trkpt lat="44.643602" lon="5.2409754"><ele>895.0</ele><time>2026-04-18T14:56:27.444Z</time></trkpt><trkpt lat="44.6437235" lon="5.2409916"><ele>895.0</ele><time>2026-04-18T14:56:29.444Z</time></trkpt><trkpt lat="44.6437841" lon="5.241028"><ele>894.6666666666666</ele><time>2026-04-18T14:56:30.444Z</time></trkpt><trkpt lat="44.6438454" lon="5.241078"><ele>894.3333333333333</ele><time>2026-04-18T14:56:31.444Z</time></trkpt><trkpt lat="44.6439169" lon="5.2411195"><ele>894.0</ele><time>2026-04-18T14:56:32.444Z</time></trkpt><trkpt lat="44.6439956" lon="5.2411413"><ele>893.6666666666667</ele><time>2026-04-18T14:56:33.444Z</time></trkpt><trkpt lat="44.6440697" lon="5.2411594"><ele>893.3333333333334</ele><time>2026-04-18T14:56:34.444Z</time></trkpt><trkpt lat="44.6441565" lon="5.2411523"><ele>893.0</ele><time>2026-04-18T14:56:35.444Z</time></trkpt><trkpt lat="44.6442396" lon="5.2411437"><ele>893.0</ele><time>2026-04-18T14:56:36.444Z</time></trkpt><trkpt lat="44.6443257" lon="5.2411461"><ele>893.0</ele><time>2026-04-18T14:56:37.444Z</time></trkpt><trkpt lat="44.6444226" lon="5.2411582"><ele>893.0</ele><time>2026-04-18T14:56:38.444Z</time></trkpt><trkpt lat="44.6445133" lon="5.2411501"><ele>893.0</ele><time>2026-04-18T14:56:39.444Z</time></trkpt><trkpt lat="44.6446079" lon="5.2411338"><ele>893.0</ele><time>2026-04-18T14:56:40.444Z</time></trkpt><trkpt lat="44.644698" lon="5.241123"><ele>894.8333333333334</ele><time>2026-04-18T14:56:41.444Z</time></trkpt><trkpt lat="44.6447963" lon="5.2411219"><ele>896.6666666666667</ele><time>2026-04-18T14:56:42.444Z</time></trkpt><trkpt lat="44.6448709" lon="5.2411135"><ele>898.5</ele><time>2026-04-18T14:56:43.444Z</time></trkpt><trkpt lat="44.6449487" lon="5.241107"><ele>900.3333333333333</ele><time>2026-04-18T14:56:44.444Z</time></trkpt><trkpt lat="44.6450236" lon="5.2410811"><ele>902.1666666666666</ele><time>2026-04-18T14:56:45.444Z</time></trkpt><trkpt lat="44.6450971" lon="5.2410463"><ele>904.0</ele><time>2026-04-18T14:56:46.444Z</time></trkpt><trkpt lat="44.6451787" lon="5.2410111"><ele>903.9999999999999</ele><time>2026-04-18T14:56:47.444Z</time></trkpt><trkpt lat="44.6452614" lon="5.240968"><ele>904.0</ele><time>2026-04-18T14:56:48.444Z</time></trkpt><trkpt lat="44.6453418" lon="5.2409202"><ele>904.0</ele><time>2026-04-18T14:56:49.443Z</time></trkpt><trkpt lat="44.6454087" lon="5.240874"><ele>904.0</ele><time>2026-04-18T14:56:50.444Z</time></trkpt><trkpt lat="44.6454762" lon="5.2408306"><ele>903.9999999999999</ele><time>2026-04-18T14:56:51.444Z</time></trkpt><trkpt lat="44.6455462" lon="5.2408014"><ele>904.0</ele><time>2026-04-18T14:56:52.444Z</time></trkpt><trkpt lat="44.6456588" lon="5.240773"><ele>904.2</ele><time>2026-04-18T14:56:54.444Z</time></trkpt><trkpt lat="44.6457776" lon="5.2407331"><ele>904.4000000000001</ele><time>2026-04-18T14:56:56.443Z</time></trkpt><trkpt lat="44.6458733" lon="5.240673"><ele>904.6</ele><time>2026-04-18T14:56:58.444Z</time></trkpt><trkpt lat="44.6459848" lon="5.2406035"><ele>904.8</ele><time>2026-04-18T14:57:00.444Z</time></trkpt><trkpt lat="44.6460354" lon="5.2405487"><ele>905.0</ele><time>2026-04-18T14:57:01.443Z</time></trkpt><trkpt lat="44.6461097" lon="5.2405016"><ele>908.6666666666667</ele><time>2026-04-18T14:57:02.444Z</time></trkpt><trkpt lat="44.6461803" lon="5.2404499"><ele>912.3333333333334</ele><time>2026-04-18T14:57:03.444Z</time></trkpt><trkpt lat="44.6462512" lon="5.2403971"><ele>916.0</ele><time>2026-04-18T14:57:04.444Z</time></trkpt><trkpt lat="44.64631" lon="5.2403378"><ele>919.6666666666667</ele><time>2026-04-18T14:57:05.444Z</time></trkpt><trkpt lat="44.6463531" lon="5.2402657"><ele>923.3333333333334</ele><time>2026-04-18T14:57:06.444Z</time></trkpt><trkpt lat="44.6464231" lon="5.2401782"><ele>927.0</ele><time>2026-04-18T14:57:08.445Z</time></trkpt><trkpt lat="44.646457" lon="5.2400974"><ele>927.0</ele><time>2026-04-18T14:57:10.442Z</time></trkpt><trkpt lat="44.6464514" lon="5.2399865"><ele>927.0</ele><time>2026-04-18T14:57:12.443Z</time></trkpt><trkpt lat="44.6463918" lon="5.2398572"><ele>927.0</ele><time>2026-04-18T14:57:14.443Z</time></trkpt><trkpt lat="44.6463402" lon="5.2397994"><ele>927.0</ele><time>2026-04-18T14:57:15.442Z</time></trkpt><trkpt lat="44.6462362" lon="5.2397213"><ele>927.0</ele><time>2026-04-18T14:57:17.443Z</time></trkpt><trkpt lat="44.6461452" lon="5.239669"><ele>927.5</ele><time>2026-04-18T14:57:19.443Z</time></trkpt><trkpt lat="44.6460989" lon="5.2396073"><ele>928.0</ele><time>2026-04-18T14:57:21.443Z</time></trkpt><trkpt lat="44.6460935" lon="5.2394931"><ele>928.5</ele><time>2026-04-18T14:57:24.443Z</time></trkpt><trkpt lat="44.6461363" lon="5.2393986"><ele>929.0</ele><time>2026-04-18T14:57:27.443Z</time></trkpt><trkpt lat="44.6461816" lon="5.2393238"><ele>929.5</ele><time>2026-04-18T14:57:31.443Z</time></trkpt><trkpt lat="44.6462391" lon="5.239195"><ele>930.0</ele><time>2026-04-18T14:58:19.443Z</time></trkpt><trkpt lat="44.6463133" lon="5.2390551"><ele>925.0</ele><time>2026-04-18T14:58:21.443Z</time></trkpt><trkpt lat="44.6463746" lon="5.2389272"><ele>920.0</ele><time>2026-04-18T14:58:23.443Z</time></trkpt><trkpt lat="44.6464241" lon="5.2387895"><ele>915.0</ele><time>2026-04-18T14:58:25.443Z</time></trkpt><trkpt lat="44.6464909" lon="5.2386757"><ele>910.0</ele><time>2026-04-18T14:58:27.442Z</time></trkpt><trkpt lat="44.646563" lon="5.2385754"><ele>905.0</ele><time>2026-04-18T14:58:29.442Z</time></trkpt><trkpt lat="44.6466528" lon="5.2384897"><ele>905.0000000000001</ele><time>2026-04-18T14:58:31.443Z</time></trkpt><trkpt lat="44.6467529" lon="5.2384101"><ele>905.0</ele><time>2026-04-18T14:58:33.443Z</time></trkpt><trkpt lat="44.6468684" lon="5.2383314"><ele>905.0</ele><time>2026-04-18T14:58:35.443Z</time></trkpt><trkpt lat="44.6469234" lon="5.2382872"><ele>905.0</ele><time>2026-04-18T14:58:36.443Z</time></trkpt><trkpt lat="44.6469784" lon="5.238237"><ele>905.0000000000001</ele><time>2026-04-18T14:58:37.443Z</time></trkpt><trkpt lat="44.6470347" lon="5.2381689"><ele>905.0</ele><time>2026-04-18T14:58:38.443Z</time></trkpt><trkpt lat="44.6470912" lon="5.2381103"><ele>902.8571428571428</ele><time>2026-04-18T14:58:39.443Z</time></trkpt><trkpt lat="44.6471488" lon="5.2380524"><ele>900.7142857142856</ele><time>2026-04-18T14:58:40.443Z</time></trkpt><trkpt lat="44.6472008" lon="5.2379947"><ele>898.5714285714286</ele><time>2026-04-18T14:58:41.442Z</time></trkpt><trkpt lat="44.6472521" lon="5.2379351"><ele>896.4285714285713</ele><time>2026-04-18T14:58:42.443Z</time></trkpt><trkpt lat="44.6473001" lon="5.2378751"><ele>894.2857142857142</ele><time>2026-04-18T14:58:43.443Z</time></trkpt><trkpt lat="44.6473497" lon="5.2378141"><ele>892.1428571428571</ele><time>2026-04-18T14:58:44.443Z</time></trkpt><trkpt lat="44.6473973" lon="5.2377543"><ele>890.0</ele><time>2026-04-18T14:58:45.443Z</time></trkpt><trkpt lat="44.6474477" lon="5.2376918"><ele>890.0000000000001</ele><time>2026-04-18T14:58:46.443Z</time></trkpt><trkpt lat="44.6475019" lon="5.2376416"><ele>890.0</ele><time>2026-04-18T14:58:47.443Z</time></trkpt><trkpt lat="44.6475586" lon="5.2375975"><ele>890.0</ele><time>2026-04-18T14:58:48.443Z</time></trkpt><trkpt lat="44.6476194" lon="5.2375676"><ele>890.0</ele><time>2026-04-18T14:58:49.442Z</time></trkpt><trkpt lat="44.6476894" lon="5.2375506"><ele>890.0000000000001</ele><time>2026-04-18T14:58:50.443Z</time></trkpt><trkpt lat="44.6478192" lon="5.2375544"><ele>890.0</ele><time>2026-04-18T14:58:52.442Z</time></trkpt><trkpt lat="44.6478938" lon="5.2375883"><ele>889.5714285714286</ele><time>2026-04-18T14:58:53.443Z</time></trkpt><trkpt lat="44.6479605" lon="5.2376097"><ele>889.1428571428571</ele><time>2026-04-18T14:58:54.442Z</time></trkpt><trkpt lat="44.648023" lon="5.2376425"><ele>888.7142857142857</ele><time>2026-04-18T14:58:55.442Z</time></trkpt><trkpt lat="44.6480867" lon="5.2376618"><ele>888.2857142857142</ele><time>2026-04-18T14:58:56.443Z</time></trkpt><trkpt lat="44.6481473" lon="5.2377121"><ele>887.8571428571429</ele><time>2026-04-18T14:58:57.442Z</time></trkpt><trkpt lat="44.6482287" lon="5.2377443"><ele>887.4285714285713</ele><time>2026-04-18T14:58:58.442Z</time></trkpt><trkpt lat="44.6482941" lon="5.2377651"><ele>887.0</ele><time>2026-04-18T14:58:59.443Z</time></trkpt><trkpt lat="44.6484161" lon="5.2377744"><ele>887.0</ele><time>2026-04-18T14:59:01.443Z</time></trkpt><trkpt lat="44.6484893" lon="5.2377797"><ele>887.0</ele><time>2026-04-18T14:59:02.443Z</time></trkpt><trkpt lat="44.6485572" lon="5.2377693"><ele>887.0</ele><time>2026-04-18T14:59:03.443Z</time></trkpt><trkpt lat="44.6486815" lon="5.2377323"><ele>887.0</ele><time>2026-04-18T14:59:05.443Z</time></trkpt><trkpt lat="44.6488033" lon="5.2376978"><ele>887.0</ele><time>2026-04-18T14:59:07.443Z</time></trkpt><trkpt lat="44.6489104" lon="5.2376582"><ele>885.1666666666667</ele><time>2026-04-18T14:59:09.443Z</time></trkpt><trkpt lat="44.6489951" lon="5.2376402"><ele>883.3333333333334</ele><time>2026-04-18T14:59:11.442Z</time></trkpt><trkpt lat="44.649077" lon="5.2376411"><ele>881.5</ele><time>2026-04-18T14:59:13.443Z</time></trkpt><trkpt lat="44.6491506" lon="5.2376795"><ele>879.6666666666667</ele><time>2026-04-18T14:59:15.443Z</time></trkpt><trkpt lat="44.649244" lon="5.2377299"><ele>877.8333333333334</ele><time>2026-04-18T14:59:17.443Z</time></trkpt><trkpt lat="44.6493209" lon="5.2377398"><ele>876.0</ele><time>2026-04-18T14:59:19.442Z</time></trkpt><trkpt lat="44.6494026" lon="5.2377132"><ele>872.8333333333334</ele><time>2026-04-18T14:59:21.442Z</time></trkpt><trkpt lat="44.6494855" lon="5.2376729"><ele>869.6666666666667</ele><time>2026-04-18T14:59:23.443Z</time></trkpt><trkpt lat="44.64957" lon="5.23765"><ele>866.5</ele><time>2026-04-18T14:59:25.443Z</time></trkpt><trkpt lat="44.6496473" lon="5.2376501"><ele>863.3333333333334</ele><time>2026-04-18T14:59:27.443Z</time></trkpt><trkpt lat="44.6497312" lon="5.2376599"><ele>860.1666666666667</ele><time>2026-04-18T14:59:29.443Z</time></trkpt><trkpt lat="44.6498024" lon="5.2377449"><ele>857.0</ele><time>2026-04-18T14:59:31.443Z</time></trkpt><trkpt lat="44.649894" lon="5.2378857"><ele>857.0000000000001</ele><time>2026-04-18T14:59:33.443Z</time></trkpt><trkpt lat="44.6499567" lon="5.2379566"><ele>857.0</ele><time>2026-04-18T14:59:34.443Z</time></trkpt><trkpt lat="44.6500129" lon="5.2380189"><ele>857.0</ele><time>2026-04-18T14:59:35.443Z</time></trkpt><trkpt lat="44.6500763" lon="5.2380777"><ele>857.0</ele><time>2026-04-18T14:59:36.442Z</time></trkpt><trkpt lat="44.6501439" lon="5.2381256"><ele>857.0000000000001</ele><time>2026-04-18T14:59:37.442Z</time></trkpt><trkpt lat="44.6502152" lon="5.2381661"><ele>857.0</ele><time>2026-04-18T14:59:38.443Z</time></trkpt><trkpt lat="44.6502829" lon="5.238192"><ele>858.6666666666667</ele><time>2026-04-18T14:59:39.443Z</time></trkpt><trkpt lat="44.6503602" lon="5.238216"><ele>860.3333333333334</ele><time>2026-04-18T14:59:40.442Z</time></trkpt><trkpt lat="44.6504462" lon="5.2382477"><ele>862.0</ele><time>2026-04-18T14:59:41.443Z</time></trkpt><trkpt lat="44.6505233" lon="5.2382727"><ele>863.6666666666667</ele><time>2026-04-18T14:59:42.443Z</time></trkpt><trkpt lat="44.6505999" lon="5.2383033"><ele>865.3333333333334</ele><time>2026-04-18T14:59:43.443Z</time></trkpt><trkpt lat="44.6506666" lon="5.2383343"><ele>867.0</ele><time>2026-04-18T14:59:44.443Z</time></trkpt><trkpt lat="44.6507797" lon="5.2383851"><ele>867.0</ele><time>2026-04-18T14:59:46.442Z</time></trkpt><trkpt lat="44.6508806" lon="5.2384347"><ele>867.0</ele><time>2026-04-18T14:59:48.443Z</time></trkpt><trkpt lat="44.6509778" lon="5.2385526"><ele>867.0</ele><time>2026-04-18T14:59:50.443Z</time></trkpt><trkpt lat="44.6510252" lon="5.2386435"><ele>867.0</ele><time>2026-04-18T14:59:51.443Z</time></trkpt><trkpt lat="44.6510765" lon="5.2387265"><ele>867.0</ele><time>2026-04-18T14:59:52.443Z</time></trkpt><trkpt lat="44.6511256" lon="5.2387926"><ele>866.6666666666666</ele><time>2026-04-18T14:59:53.442Z</time></trkpt><trkpt lat="44.6512371" lon="5.2389164"><ele>866.3333333333333</ele><time>2026-04-18T14:59:55.442Z</time></trkpt><trkpt lat="44.6513031" lon="5.2389753"><ele>866.0</ele><time>2026-04-18T14:59:56.443Z</time></trkpt><trkpt lat="44.6513639" lon="5.2390147"><ele>865.6666666666666</ele><time>2026-04-18T14:59:57.443Z</time></trkpt><trkpt lat="44.6514262" lon="5.239048"><ele>865.3333333333333</ele><time>2026-04-18T14:59:58.443Z</time></trkpt><trkpt lat="44.6515061" lon="5.239075"><ele>865.0</ele><time>2026-04-18T14:59:59.442Z</time></trkpt><trkpt lat="44.6515943" lon="5.239096"><ele>865.0</ele><time>2026-04-18T15:00:00.443Z</time></trkpt><trkpt lat="44.6516747" lon="5.2391075"><ele>865.0</ele><time>2026-04-18T15:00:01.443Z</time></trkpt><trkpt lat="44.6517423" lon="5.2391146"><ele>865.0</ele><time>2026-04-18T15:00:02.443Z</time></trkpt><trkpt lat="44.6518301" lon="5.2391345"><ele>865.0</ele><time>2026-04-18T15:00:04.443Z</time></trkpt><trkpt lat="44.6519263" lon="5.2391648"><ele>865.0</ele><time>2026-04-18T15:00:06.443Z</time></trkpt><trkpt lat="44.6520323" lon="5.2392226"><ele>860.8</ele><time>2026-04-18T15:00:08.443Z</time></trkpt><trkpt lat="44.6521434" lon="5.2392874"><ele>856.6</ele><time>2026-04-18T15:00:10.443Z</time></trkpt><trkpt lat="44.6522419" lon="5.2393418"><ele>852.4000000000001</ele><time>2026-04-18T15:00:12.444Z</time></trkpt><trkpt lat="44.6523452" lon="5.239383"><ele>848.2</ele><time>2026-04-18T15:00:14.443Z</time></trkpt><trkpt lat="44.6524521" lon="5.2394154"><ele>844.0</ele><time>2026-04-18T15:00:16.443Z</time></trkpt><trkpt lat="44.6525586" lon="5.2394621"><ele>843.9999999999999</ele><time>2026-04-18T15:00:18.443Z</time></trkpt><trkpt lat="44.652623" lon="5.2394878"><ele>844.0</ele><time>2026-04-18T15:00:19.443Z</time></trkpt><trkpt lat="44.6526972" lon="5.2394931"><ele>844.0</ele><time>2026-04-18T15:00:20.442Z</time></trkpt><trkpt lat="44.652768" lon="5.2394779"><ele>844.0</ele><time>2026-04-18T15:00:21.443Z</time></trkpt><trkpt lat="44.6528331" lon="5.2394618"><ele>843.9999999999999</ele><time>2026-04-18T15:00:22.443Z</time></trkpt><trkpt lat="44.6529409" lon="5.2394493"><ele>844.0</ele><time>2026-04-18T15:00:24.443Z</time></trkpt><trkpt lat="44.6530289" lon="5.2395062"><ele>841.9999999999999</ele><time>2026-04-18T15:00:26.442Z</time></trkpt><trkpt lat="44.6530778" lon="5.2396622"><ele>840.0</ele><time>2026-04-18T15:00:28.443Z</time></trkpt><trkpt lat="44.6530974" lon="5.239769"><ele>838.0</ele><time>2026-04-18T15:00:29.443Z</time></trkpt><trkpt lat="44.6531144" lon="5.2398686"><ele>836.0</ele><time>2026-04-18T15:00:30.443Z</time></trkpt><trkpt lat="44.6531312" lon="5.239968"><ele>833.9999999999999</ele><time>2026-04-18T15:00:31.443Z</time></trkpt><trkpt lat="44.6531441" lon="5.2400638"><ele>832.0</ele><time>2026-04-18T15:00:32.443Z</time></trkpt><trkpt lat="44.6531556" lon="5.2401579"><ele>831.9999999999999</ele><time>2026-04-18T15:00:33.442Z</time></trkpt><trkpt lat="44.6531397" lon="5.2402561"><ele>832.0</ele><time>2026-04-18T15:00:34.443Z</time></trkpt><trkpt lat="44.6531217" lon="5.2403605"><ele>832.0</ele><time>2026-04-18T15:00:35.443Z</time></trkpt><trkpt lat="44.6531021" lon="5.2404736"><ele>832.0</ele><time>2026-04-18T15:00:36.443Z</time></trkpt><trkpt lat="44.6530722" lon="5.2405794"><ele>831.9999999999999</ele><time>2026-04-18T15:00:37.443Z</time></trkpt><trkpt lat="44.65305" lon="5.2406743"><ele>832.0</ele><time>2026-04-18T15:00:38.443Z</time></trkpt><trkpt lat="44.6530344" lon="5.2407668"><ele>831.5714285714286</ele><time>2026-04-18T15:00:39.443Z</time></trkpt><trkpt lat="44.6530167" lon="5.2408688"><ele>831.1428571428572</ele><time>2026-04-18T15:00:40.443Z</time></trkpt><trkpt lat="44.6529985" lon="5.2409637"><ele>830.7142857142858</ele><time>2026-04-18T15:00:41.443Z</time></trkpt><trkpt lat="44.6529835" lon="5.2410534"><ele>830.2857142857142</ele><time>2026-04-18T15:00:42.444Z</time></trkpt><trkpt lat="44.6529645" lon="5.2411545"><ele>829.8571428571429</ele><time>2026-04-18T15:00:43.443Z</time></trkpt><trkpt lat="44.6529496" lon="5.2412547"><ele>829.4285714285714</ele><time>2026-04-18T15:00:44.443Z</time></trkpt><trkpt lat="44.6529361" lon="5.2413548"><ele>829.0</ele><time>2026-04-18T15:00:45.443Z</time></trkpt><trkpt lat="44.6529228" lon="5.241456"><ele>828.3333333333333</ele><time>2026-04-18T15:00:46.443Z</time></trkpt><trkpt lat="44.652908" lon="5.2415519"><ele>827.6666666666666</ele><time>2026-04-18T15:00:47.443Z</time></trkpt><trkpt lat="44.6528935" lon="5.2416387"><ele>827.0</ele><time>2026-04-18T15:00:48.443Z</time></trkpt><trkpt lat="44.6528788" lon="5.2417839"><ele>826.3333333333333</ele><time>2026-04-18T15:00:50.443Z</time></trkpt><trkpt lat="44.6528829" lon="5.2419348"><ele>825.6666666666666</ele><time>2026-04-18T15:00:52.443Z</time></trkpt><trkpt lat="44.6528855" lon="5.242045"><ele>825.0</ele><time>2026-04-18T15:00:54.443Z</time></trkpt><trkpt lat="44.6528878" lon="5.2422079"><ele>825.0</ele><time>2026-04-18T15:00:56.443Z</time></trkpt><trkpt lat="44.652896" lon="5.2422961"><ele>825.0</ele><time>2026-04-18T15:00:57.442Z</time></trkpt><trkpt lat="44.6529125" lon="5.2424553"><ele>825.0</ele><time>2026-04-18T15:00:59.444Z</time></trkpt><trkpt lat="44.6529431" lon="5.2426149"><ele>825.0</ele><time>2026-04-18T15:01:01.443Z</time></trkpt><trkpt lat="44.6529927" lon="5.2427319"><ele>825.0</ele><time>2026-04-18T15:01:06.442Z</time></trkpt><trkpt lat="44.6530813" lon="5.2427679"><ele>827.0</ele><time>2026-04-18T15:01:15.443Z</time></trkpt><trkpt lat="44.6532258" lon="5.2428386"><ele>829.0</ele><time>2026-04-18T15:01:18.443Z</time></trkpt><trkpt lat="44.6532922" lon="5.2428498"><ele>831.0</ele><time>2026-04-18T15:01:19.443Z</time></trkpt><trkpt lat="44.6533443" lon="5.2427946"><ele>833.0</ele><time>2026-04-18T15:01:21.443Z</time></trkpt><trkpt lat="44.6533988" lon="5.2427359"><ele>835.0</ele><time>2026-04-18T15:01:23.469Z</time></trkpt><trkpt lat="44.6534679" lon="5.2427218"><ele>837.0</ele><time>2026-04-18T15:01:25.367Z</time></trkpt><trkpt lat="44.6535389" lon="5.2426883"><ele>837.0</ele><time>2026-04-18T15:01:29.448Z</time></trkpt><trkpt lat="44.6536207" lon="5.2426813"><ele>837.0</ele><time>2026-04-18T15:02:16.443Z</time></trkpt><trkpt lat="44.6536736" lon="5.2426063"><ele>837.0</ele><time>2026-04-18T15:02:18.442Z</time></trkpt><trkpt lat="44.6537213" lon="5.2425177"><ele>837.0</ele><time>2026-04-18T15:02:20.442Z</time></trkpt><trkpt lat="44.6537839" lon="5.2424275"><ele>837.0</ele><time>2026-04-18T15:02:22.442Z</time></trkpt><trkpt lat="44.6538277" lon="5.2423479"><ele>837.0</ele><time>2026-04-18T15:02:25.442Z</time></trkpt><trkpt lat="44.6538011" lon="5.2424402"><ele>837.0</ele><time>2026-04-18T15:02:40.442Z</time></trkpt><trkpt lat="44.6537027" lon="5.24253"><ele>837.0</ele><time>2026-04-18T15:02:42.442Z</time></trkpt><trkpt lat="44.6536463" lon="5.2425889"><ele>837.0</ele><time>2026-04-18T15:02:43.442Z</time></trkpt><trkpt lat="44.6535911" lon="5.2426483"><ele>837.0</ele><time>2026-04-18T15:02:44.442Z</time></trkpt><trkpt lat="44.653527" lon="5.2427013"><ele>837.0</ele><time>2026-04-18T15:02:45.442Z</time></trkpt><trkpt lat="44.6534619" lon="5.2427477"><ele>837.0</ele><time>2026-04-18T15:02:46.442Z</time></trkpt><trkpt lat="44.6534037" lon="5.2427863"><ele>837.0</ele><time>2026-04-18T15:02:47.442Z</time></trkpt><trkpt lat="44.6533314" lon="5.242814"><ele>837.0</ele><time>2026-04-18T15:02:48.442Z</time></trkpt><trkpt lat="44.6532657" lon="5.2428476"><ele>837.0</ele><time>2026-04-18T15:02:49.442Z</time></trkpt><trkpt lat="44.653144" lon="5.2428606"><ele>837.0</ele><time>2026-04-18T15:02:51.441Z</time></trkpt><trkpt lat="44.6530661" lon="5.2428333"><ele>837.0</ele><time>2026-04-18T15:02:53.442Z</time></trkpt><trkpt lat="44.6529981" lon="5.2428402"><ele>837.0</ele><time>2026-04-18T15:02:56.442Z</time></trkpt><trkpt lat="44.6530322" lon="5.2429414"><ele>837.0</ele><time>2026-04-18T15:03:01.442Z</time></trkpt><trkpt lat="44.6531006" lon="5.2430434"><ele>837.0</ele><time>2026-04-18T15:03:04.442Z</time></trkpt><trkpt lat="44.6531806" lon="5.2430875"><ele>837.0</ele><time>2026-04-18T15:03:05.442Z</time></trkpt><trkpt lat="44.6532851" lon="5.2430876"><ele>837.0</ele><time>2026-04-18T15:03:07.442Z</time></trkpt><trkpt lat="44.6533745" lon="5.2431461"><ele>837.0</ele><time>2026-04-18T15:03:09.442Z</time></trkpt><trkpt lat="44.6534064" lon="5.2432539"><ele>841.0</ele><time>2026-04-18T15:03:12.441Z</time></trkpt><trkpt lat="44.6533482" lon="5.2433106"><ele>845.0</ele><time>2026-04-18T15:03:14.442Z</time></trkpt><trkpt lat="44.653269" lon="5.2433941"><ele>849.0</ele><time>2026-04-18T15:03:16.442Z</time></trkpt><trkpt lat="44.6531833" lon="5.243483"><ele>853.0</ele><time>2026-04-18T15:03:18.442Z</time></trkpt><trkpt lat="44.6530806" lon="5.243568"><ele>857.0</ele><time>2026-04-18T15:03:20.442Z</time></trkpt><trkpt lat="44.6529952" lon="5.2436588"><ele>857.0000000000001</ele><time>2026-04-18T15:03:22.442Z</time></trkpt><trkpt lat="44.6529387" lon="5.2437135"><ele>857.0</ele><time>2026-04-18T15:03:24.442Z</time></trkpt><trkpt lat="44.6528701" lon="5.2437816"><ele>857.0</ele><time>2026-04-18T15:03:26.442Z</time></trkpt><trkpt lat="44.6528115" lon="5.243843"><ele>857.0</ele><time>2026-04-18T15:04:13.442Z</time></trkpt><trkpt lat="44.65281" lon="5.2439533"><ele>857.0000000000001</ele><time>2026-04-18T15:04:22.442Z</time></trkpt><trkpt lat="44.6528152" lon="5.2440878"><ele>857.0</ele><time>2026-04-18T15:04:24.442Z</time></trkpt><trkpt lat="44.6528402" lon="5.2441993"><ele>858.3333333333334</ele><time>2026-04-18T15:04:26.442Z</time></trkpt><trkpt lat="44.6528453" lon="5.2443235"><ele>859.6666666666667</ele><time>2026-04-18T15:04:28.441Z</time></trkpt><trkpt lat="44.6528451" lon="5.2444364"><ele>861.0</ele><time>2026-04-18T15:04:30.442Z</time></trkpt><trkpt lat="44.6528057" lon="5.2445526"><ele>862.3333333333333</ele><time>2026-04-18T15:04:32.442Z</time></trkpt><trkpt lat="44.6527718" lon="5.2446509"><ele>863.6666666666666</ele><time>2026-04-18T15:04:35.441Z</time></trkpt><trkpt lat="44.6527288" lon="5.2447726"><ele>865.0</ele><time>2026-04-18T15:04:39.442Z</time></trkpt><trkpt lat="44.652693" lon="5.2448811"><ele>858.0</ele><time>2026-04-18T15:04:41.442Z</time></trkpt><trkpt lat="44.6526522" lon="5.245042"><ele>851.0</ele><time>2026-04-18T15:04:43.442Z</time></trkpt><trkpt lat="44.652625" lon="5.2452061"><ele>844.0</ele><time>2026-04-18T15:04:45.441Z</time></trkpt><trkpt lat="44.6526117" lon="5.2453648"><ele>837.0</ele><time>2026-04-18T15:04:47.442Z</time></trkpt><trkpt lat="44.6526033" lon="5.2455102"><ele>836.6666666666666</ele><time>2026-04-18T15:04:49.442Z</time></trkpt><trkpt lat="44.6525822" lon="5.2456605"><ele>836.3333333333333</ele><time>2026-04-18T15:04:51.442Z</time></trkpt><trkpt lat="44.6525499" lon="5.2458118"><ele>836.0</ele><time>2026-04-18T15:04:53.442Z</time></trkpt><trkpt lat="44.6525212" lon="5.2459057"><ele>835.6666666666666</ele><time>2026-04-18T15:04:54.442Z</time></trkpt><trkpt lat="44.6524915" lon="5.2459864"><ele>835.3333333333333</ele><time>2026-04-18T15:04:55.441Z</time></trkpt><trkpt lat="44.6524541" lon="5.2460655"><ele>835.0</ele><time>2026-04-18T15:04:56.442Z</time></trkpt><trkpt lat="44.6523986" lon="5.2462166"><ele>835.0000000000001</ele><time>2026-04-18T15:04:58.442Z</time></trkpt><trkpt lat="44.6523789" lon="5.2463043"><ele>835.0</ele><time>2026-04-18T15:04:59.442Z</time></trkpt><trkpt lat="44.6523561" lon="5.2463921"><ele>835.0</ele><time>2026-04-18T15:05:00.442Z</time></trkpt><trkpt lat="44.6523388" lon="5.2464933"><ele>835.0</ele><time>2026-04-18T15:05:01.442Z</time></trkpt><trkpt lat="44.6523116" lon="5.2465742"><ele>835.0</ele><time>2026-04-18T15:05:02.442Z</time></trkpt><trkpt lat="44.652291" lon="5.246662"><ele>835.0000000000001</ele><time>2026-04-18T15:05:03.442Z</time></trkpt><trkpt lat="44.6522725" lon="5.2467475"><ele>835.0</ele><time>2026-04-18T15:05:04.441Z</time></trkpt><trkpt lat="44.6522657" lon="5.2469218"><ele>836.2</ele><time>2026-04-18T15:05:06.442Z</time></trkpt><trkpt lat="44.6522644" lon="5.2470742"><ele>837.4</ele><time>2026-04-18T15:05:08.442Z</time></trkpt><trkpt lat="44.6522465" lon="5.247222"><ele>838.5999999999999</ele><time>2026-04-18T15:05:10.441Z</time></trkpt><trkpt lat="44.6522046" lon="5.2473549"><ele>839.8</ele><time>2026-04-18T15:05:12.442Z</time></trkpt><trkpt lat="44.6521623" lon="5.247486"><ele>841.0</ele><time>2026-04-18T15:05:14.442Z</time></trkpt><trkpt lat="44.6521289" lon="5.247657"><ele>842.4</ele><time>2026-04-18T15:05:16.442Z</time></trkpt><trkpt lat="44.6521184" lon="5.247802"><ele>843.8</ele><time>2026-04-18T15:05:18.441Z</time></trkpt><trkpt lat="44.6521273" lon="5.2479234"><ele>845.1999999999999</ele><time>2026-04-18T15:05:20.441Z</time></trkpt><trkpt lat="44.6521305" lon="5.2480591"><ele>846.5999999999999</ele><time>2026-04-18T15:05:22.442Z</time></trkpt><trkpt lat="44.6521217" lon="5.2481883"><ele>848.0</ele><time>2026-04-18T15:05:24.442Z</time></trkpt><trkpt lat="44.652089" lon="5.2482991"><ele>848.6666666666667</ele><time>2026-04-18T15:05:26.442Z</time></trkpt><trkpt lat="44.6520498" lon="5.2483972"><ele>849.3333333333334</ele><time>2026-04-18T15:05:28.442Z</time></trkpt><trkpt lat="44.6519979" lon="5.2484609"><ele>850.0</ele><time>2026-04-18T15:05:30.442Z</time></trkpt><trkpt lat="44.6519266" lon="5.2484627"><ele>850.6666666666667</ele><time>2026-04-18T15:05:33.442Z</time></trkpt><trkpt lat="44.6518818" lon="5.2483928"><ele>851.3333333333334</ele><time>2026-04-18T15:05:35.442Z</time></trkpt><trkpt lat="44.651879" lon="5.2482964"><ele>852.0</ele><time>2026-04-18T15:05:37.427Z</time></trkpt><trkpt lat="44.6518824" lon="5.2481613"><ele>841.4000000000001</ele><time>2026-04-18T15:05:39.441Z</time></trkpt><trkpt lat="44.6518576" lon="5.2480001"><ele>830.8000000000001</ele><time>2026-04-18T15:05:41.442Z</time></trkpt><trkpt lat="44.651839" lon="5.2478489"><ele>820.2</ele><time>2026-04-18T15:05:43.442Z</time></trkpt><trkpt lat="44.6518212" lon="5.2477007"><ele>809.6</ele><time>2026-04-18T15:05:45.442Z</time></trkpt><trkpt lat="44.6517968" lon="5.2475418"><ele>799.0</ele><time>2026-04-18T15:05:47.442Z</time></trkpt><trkpt lat="44.6517847" lon="5.2474498"><ele>800.0</ele><time>2026-04-18T15:05:48.442Z</time></trkpt><trkpt lat="44.6517571" lon="5.2472858"><ele>801.0</ele><time>2026-04-18T15:05:50.442Z</time></trkpt><trkpt lat="44.6517437" lon="5.2471104"><ele>802.0</ele><time>2026-04-18T15:05:52.442Z</time></trkpt><trkpt lat="44.6517409" lon="5.2470118"><ele>803.0</ele><time>2026-04-18T15:05:53.441Z</time></trkpt><trkpt lat="44.6517343" lon="5.2469198"><ele>804.0</ele><time>2026-04-18T15:05:54.441Z</time></trkpt><trkpt lat="44.6517178" lon="5.2467542"><ele>804.0</ele><time>2026-04-18T15:05:56.442Z</time></trkpt><trkpt lat="44.651701" lon="5.246622"><ele>804.0</ele><time>2026-04-18T15:05:58.442Z</time></trkpt><trkpt lat="44.6516635" lon="5.24653"><ele>804.0</ele><time>2026-04-18T15:06:00.442Z</time></trkpt><trkpt lat="44.6515964" lon="5.2465571"><ele>804.0</ele><time>2026-04-18T15:06:03.442Z</time></trkpt><trkpt lat="44.6515748" lon="5.2466627"><ele>804.0</ele><time>2026-04-18T15:06:06.442Z</time></trkpt><trkpt lat="44.6515744" lon="5.2468196"><ele>804.0</ele><time>2026-04-18T15:06:09.442Z</time></trkpt><trkpt lat="44.6515662" lon="5.2469497"><ele>804.0</ele><time>2026-04-18T15:06:11.441Z</time></trkpt><trkpt lat="44.651557" lon="5.2470843"><ele>804.0</ele><time>2026-04-18T15:06:13.441Z</time></trkpt><trkpt lat="44.6515352" lon="5.2472282"><ele>804.0</ele><time>2026-04-18T15:06:15.442Z</time></trkpt><trkpt lat="44.6515026" lon="5.2473598"><ele>804.0</ele><time>2026-04-18T15:06:17.442Z</time></trkpt><trkpt lat="44.651452" lon="5.2474861"><ele>804.0</ele><time>2026-04-18T15:06:19.442Z</time></trkpt><trkpt lat="44.6513913" lon="5.2476052"><ele>803.6</ele><time>2026-04-18T15:06:21.442Z</time></trkpt><trkpt lat="44.6513282" lon="5.2477284"><ele>803.2</ele><time>2026-04-18T15:06:23.442Z</time></trkpt><trkpt lat="44.6512888" lon="5.2478683"><ele>802.8000000000001</ele><time>2026-04-18T15:06:25.442Z</time></trkpt><trkpt lat="44.6512835" lon="5.248015"><ele>802.4000000000001</ele><time>2026-04-18T15:06:27.442Z</time></trkpt><trkpt lat="44.6512718" lon="5.2481566"><ele>802.0</ele><time>2026-04-18T15:06:29.442Z</time></trkpt><trkpt lat="44.6512802" lon="5.248313"><ele>802.0</ele><time>2026-04-18T15:06:31.442Z</time></trkpt><trkpt lat="44.6512911" lon="5.2484585"><ele>802.0</ele><time>2026-04-18T15:06:33.442Z</time></trkpt><trkpt lat="44.6513111" lon="5.2486095"><ele>802.0</ele><time>2026-04-18T15:06:35.441Z</time></trkpt><trkpt lat="44.6513382" lon="5.2487459"><ele>802.0</ele><time>2026-04-18T15:06:37.442Z</time></trkpt><trkpt lat="44.6513708" lon="5.2488918"><ele>802.0</ele><time>2026-04-18T15:06:39.442Z</time></trkpt><trkpt lat="44.6513801" lon="5.2490144"><ele>801.3333333333333</ele><time>2026-04-18T15:06:41.442Z</time></trkpt><trkpt lat="44.6513795" lon="5.2491103"><ele>800.6666666666666</ele><time>2026-04-18T15:06:43.442Z</time></trkpt><trkpt lat="44.6513937" lon="5.2492077"><ele>800.0</ele><time>2026-04-18T15:06:47.442Z</time></trkpt><trkpt lat="44.651402" lon="5.2493266"><ele>799.3333333333333</ele><time>2026-04-18T15:07:01.442Z</time></trkpt><trkpt lat="44.6514162" lon="5.2494275"><ele>798.6666666666666</ele><time>2026-04-18T15:07:03.442Z</time></trkpt><trkpt lat="44.6514282" lon="5.2495388"><ele>798.0</ele><time>2026-04-18T15:07:05.441Z</time></trkpt><trkpt lat="44.6514159" lon="5.2496391"><ele>798.0</ele><time>2026-04-18T15:07:07.442Z</time></trkpt><trkpt lat="44.6514162" lon="5.2497417"><ele>798.0</ele><time>2026-04-18T15:07:09.442Z</time></trkpt><trkpt lat="44.6514454" lon="5.2498672"><ele>798.0</ele><time>2026-04-18T15:07:11.442Z</time></trkpt><trkpt lat="44.6514751" lon="5.2499508"><ele>798.0</ele><time>2026-04-18T15:07:13.442Z</time></trkpt><trkpt lat="44.6515118" lon="5.2500364"><ele>798.0</ele><time>2026-04-18T15:07:15.442Z</time></trkpt><trkpt lat="44.6515747" lon="5.2501569"><ele>798.0</ele><time>2026-04-18T15:07:17.441Z</time></trkpt><trkpt lat="44.6516279" lon="5.2502649"><ele>796.4</ele><time>2026-04-18T15:07:19.441Z</time></trkpt><trkpt lat="44.6516821" lon="5.2503847"><ele>794.8</ele><time>2026-04-18T15:07:21.441Z</time></trkpt><trkpt lat="44.6517155" lon="5.2505188"><ele>793.2</ele><time>2026-04-18T15:07:23.442Z</time></trkpt><trkpt lat="44.6517316" lon="5.2506479"><ele>791.6</ele><time>2026-04-18T15:07:25.441Z</time></trkpt><trkpt lat="44.6517809" lon="5.2507459"><ele>790.0</ele><time>2026-04-18T15:07:27.441Z</time></trkpt><trkpt lat="44.6518849" lon="5.2507769"><ele>791.4285714285714</ele><time>2026-04-18T15:07:29.441Z</time></trkpt><trkpt lat="44.6519486" lon="5.2507833"><ele>792.8571428571429</ele><time>2026-04-18T15:07:30.441Z</time></trkpt><trkpt lat="44.6520121" lon="5.2508038"><ele>794.2857142857143</ele><time>2026-04-18T15:07:31.44Z</time></trkpt><trkpt lat="44.6520764" lon="5.2508275"><ele>795.7142857142858</ele><time>2026-04-18T15:07:32.441Z</time></trkpt><trkpt lat="44.6521493" lon="5.2508505"><ele>797.1428571428571</ele><time>2026-04-18T15:07:33.441Z</time></trkpt><trkpt lat="44.6522105" lon="5.2508845"><ele>798.5714285714287</ele><time>2026-04-18T15:07:34.441Z</time></trkpt><trkpt lat="44.6522795" lon="5.2509125"><ele>800.0</ele><time>2026-04-18T15:07:35.441Z</time></trkpt><trkpt lat="44.6523602" lon="5.2509437"><ele>800.0</ele><time>2026-04-18T15:07:36.441Z</time></trkpt><trkpt lat="44.6524693" lon="5.2509942"><ele>800.0</ele><time>2026-04-18T15:07:38.44Z</time></trkpt><trkpt lat="44.6525741" lon="5.2510376"><ele>800.0</ele><time>2026-04-18T15:07:40.441Z</time></trkpt><trkpt lat="44.6526563" lon="5.2511338"><ele>800.0</ele><time>2026-04-18T15:07:42.44Z</time></trkpt><trkpt lat="44.6527053" lon="5.2511932"><ele>800.0</ele><time>2026-04-18T15:07:43.441Z</time></trkpt><trkpt lat="44.6527768" lon="5.2513108"><ele>798.6</ele><time>2026-04-18T15:07:45.44Z</time></trkpt><trkpt lat="44.6528496" lon="5.2513515"><ele>797.2</ele><time>2026-04-18T15:07:47.44Z</time></trkpt><trkpt lat="44.6529554" lon="5.2513533"><ele>795.8</ele><time>2026-04-18T15:07:49.441Z</time></trkpt><trkpt lat="44.6530697" lon="5.2513741"><ele>794.4</ele><time>2026-04-18T15:07:51.44Z</time></trkpt><trkpt lat="44.653147" lon="5.2514153"><ele>793.0</ele><time>2026-04-18T15:07:53.441Z</time></trkpt><trkpt lat="44.6532298" lon="5.251477"><ele>793.0</ele><time>2026-04-18T15:08:16.441Z</time></trkpt><trkpt lat="44.6533537" lon="5.2515278"><ele>793.0</ele><time>2026-04-18T15:08:18.441Z</time></trkpt><trkpt lat="44.6534149" lon="5.2515606"><ele>793.0</ele><time>2026-04-18T15:08:19.441Z</time></trkpt><trkpt lat="44.6534805" lon="5.2516037"><ele>793.0</ele><time>2026-04-18T15:08:20.441Z</time></trkpt><trkpt lat="44.6535501" lon="5.251647"><ele>793.0</ele><time>2026-04-18T15:08:21.441Z</time></trkpt><trkpt lat="44.6536503" lon="5.2516984"><ele>800.4</ele><time>2026-04-18T15:08:23.44Z</time></trkpt><trkpt lat="44.6537447" lon="5.2517179"><ele>807.8</ele><time>2026-04-18T15:08:25.441Z</time></trkpt><trkpt lat="44.6538059" lon="5.2518197"><ele>815.2</ele><time>2026-04-18T15:08:27.441Z</time></trkpt><trkpt lat="44.6538205" lon="5.2519167"><ele>822.6</ele><time>2026-04-18T15:08:29.44Z</time></trkpt><trkpt lat="44.6537976" lon="5.2520478"><ele>830.0</ele><time>2026-04-18T15:08:31.441Z</time></trkpt><trkpt lat="44.6538224" lon="5.2521784"><ele>830.0</ele><time>2026-04-18T15:08:33.441Z</time></trkpt><trkpt lat="44.6538824" lon="5.2522816"><ele>830.0</ele><time>2026-04-18T15:08:35.44Z</time></trkpt><trkpt lat="44.6539473" lon="5.2523141"><ele>830.0</ele><time>2026-04-18T15:08:36.44Z</time></trkpt><trkpt lat="44.6540671" lon="5.2523623"><ele>830.0</ele><time>2026-04-18T15:08:38.441Z</time></trkpt><trkpt lat="44.654133" lon="5.2523785"><ele>830.0</ele><time>2026-04-18T15:08:39.441Z</time></trkpt><trkpt lat="44.6542379" lon="5.252438"><ele>829.1666666666667</ele><time>2026-04-18T15:08:41.441Z</time></trkpt><trkpt lat="44.6542975" lon="5.2524967"><ele>828.3333333333334</ele><time>2026-04-18T15:08:42.441Z</time></trkpt><trkpt lat="44.6543607" lon="5.252584"><ele>827.5</ele><time>2026-04-18T15:08:43.441Z</time></trkpt><trkpt lat="44.6544075" lon="5.2526589"><ele>826.6666666666667</ele><time>2026-04-18T15:08:44.441Z</time></trkpt><trkpt lat="44.6544527" lon="5.2527278"><ele>825.8333333333334</ele><time>2026-04-18T15:08:45.441Z</time></trkpt><trkpt lat="44.6545045" lon="5.2528576"><ele>825.0</ele><time>2026-04-18T15:08:47.441Z</time></trkpt><trkpt lat="44.6544596" lon="5.2529655"><ele>825.0</ele><time>2026-04-18T15:08:49.441Z</time></trkpt><trkpt lat="44.6545224" lon="5.2530448"><ele>825.0</ele><time>2026-04-18T15:08:52.441Z</time></trkpt><trkpt lat="44.6545978" lon="5.2529937"><ele>825.0</ele><time>2026-04-18T15:08:54.441Z</time></trkpt><trkpt lat="44.6546758" lon="5.2529061"><ele>825.0</ele><time>2026-04-18T15:08:56.44Z</time></trkpt><trkpt lat="44.6547463" lon="5.2528771"><ele>825.0</ele><time>2026-04-18T15:08:58.441Z</time></trkpt><trkpt lat="44.6548249" lon="5.252868"><ele>825.0</ele><time>2026-04-18T15:09:00.441Z</time></trkpt><trkpt lat="44.6549026" lon="5.2528429"><ele>825.0</ele><time>2026-04-18T15:09:04.441Z</time></trkpt><trkpt lat="44.6549744" lon="5.2527742"><ele>825.0</ele><time>2026-04-18T15:09:07.441Z</time></trkpt><trkpt lat="44.6550011" lon="5.2526895"><ele>825.0</ele><time>2026-04-18T15:09:09.441Z</time></trkpt><trkpt lat="44.6550514" lon="5.2525643"><ele>825.0</ele><time>2026-04-18T15:09:11.441Z</time></trkpt><trkpt lat="44.6551514" lon="5.2524566"><ele>825.0</ele><time>2026-04-18T15:09:13.441Z</time></trkpt><trkpt lat="44.6552407" lon="5.252363"><ele>825.6</ele><time>2026-04-18T15:09:15.441Z</time></trkpt><trkpt lat="44.6553054" lon="5.2523349"><ele>826.2</ele><time>2026-04-18T15:09:16.441Z</time></trkpt><trkpt lat="44.6553748" lon="5.2522628"><ele>826.8</ele><time>2026-04-18T15:09:18.441Z</time></trkpt><trkpt lat="44.6554753" lon="5.2521935"><ele>827.4</ele><time>2026-04-18T15:09:20.441Z</time></trkpt><trkpt lat="44.6555862" lon="5.2521181"><ele>828.0</ele><time>2026-04-18T15:09:22.441Z</time></trkpt><trkpt lat="44.6556941" lon="5.2520697"><ele>828.0</ele><time>2026-04-18T15:09:24.441Z</time></trkpt><trkpt lat="44.6557636" lon="5.252082"><ele>828.0</ele><time>2026-04-18T15:09:25.44Z</time></trkpt><trkpt lat="44.6558832" lon="5.2520507"><ele>828.0</ele><time>2026-04-18T15:09:27.441Z</time></trkpt><trkpt lat="44.6559877" lon="5.2520177"><ele>828.0</ele><time>2026-04-18T15:09:29.441Z</time></trkpt><trkpt lat="44.6561031" lon="5.2519887"><ele>828.0</ele><time>2026-04-18T15:09:31.441Z</time></trkpt><trkpt lat="44.6562143" lon="5.2519383"><ele>823.4</ele><time>2026-04-18T15:09:33.441Z</time></trkpt><trkpt lat="44.6563234" lon="5.2518873"><ele>818.8</ele><time>2026-04-18T15:09:35.44Z</time></trkpt><trkpt lat="44.656386" lon="5.251862"><ele>814.2</ele><time>2026-04-18T15:09:36.441Z</time></trkpt><trkpt lat="44.6564985" lon="5.2518269"><ele>809.6</ele><time>2026-04-18T15:09:38.441Z</time></trkpt><trkpt lat="44.6566035" lon="5.2517718"><ele>805.0</ele><time>2026-04-18T15:09:40.44Z</time></trkpt><trkpt lat="44.6567005" lon="5.2517173"><ele>805.0</ele><time>2026-04-18T15:09:42.441Z</time></trkpt><trkpt lat="44.6568161" lon="5.2516747"><ele>805.0</ele><time>2026-04-18T15:09:44.441Z</time></trkpt><trkpt lat="44.6569273" lon="5.2516695"><ele>805.0</ele><time>2026-04-18T15:09:46.441Z</time></trkpt><trkpt lat="44.6570333" lon="5.2517005"><ele>805.0</ele><time>2026-04-18T15:09:48.441Z</time></trkpt><trkpt lat="44.6570986" lon="5.2517242"><ele>805.0</ele><time>2026-04-18T15:09:49.441Z</time></trkpt><trkpt lat="44.6572101" lon="5.2517291"><ele>803.8</ele><time>2026-04-18T15:09:51.441Z</time></trkpt><trkpt lat="44.6573269" lon="5.2517491"><ele>802.6</ele><time>2026-04-18T15:09:53.44Z</time></trkpt><trkpt lat="44.6574443" lon="5.2517701"><ele>801.4000000000001</ele><time>2026-04-18T15:09:55.442Z</time></trkpt><trkpt lat="44.6575098" lon="5.2517953"><ele>800.2</ele><time>2026-04-18T15:09:56.441Z</time></trkpt><trkpt lat="44.6576206" lon="5.2518346"><ele>799.0</ele><time>2026-04-18T15:09:58.441Z</time></trkpt><trkpt lat="44.6577297" lon="5.2518758"><ele>797.7142857142858</ele><time>2026-04-18T15:10:00.441Z</time></trkpt><trkpt lat="44.6578" lon="5.2518889"><ele>796.4285714285713</ele><time>2026-04-18T15:10:01.441Z</time></trkpt><trkpt lat="44.6578755" lon="5.2519048"><ele>795.1428571428571</ele><time>2026-04-18T15:10:02.441Z</time></trkpt><trkpt lat="44.657954" lon="5.2519182"><ele>793.8571428571429</ele><time>2026-04-18T15:10:03.441Z</time></trkpt><trkpt lat="44.6580196" lon="5.2519005"><ele>792.5714285714287</ele><time>2026-04-18T15:10:04.441Z</time></trkpt><trkpt lat="44.6580777" lon="5.2518565"><ele>791.2857142857142</ele><time>2026-04-18T15:10:05.441Z</time></trkpt><trkpt lat="44.6581517" lon="5.2518363"><ele>790.0</ele><time>2026-04-18T15:10:06.441Z</time></trkpt><trkpt lat="44.6582168" lon="5.2518254"><ele>789.9999999999999</ele><time>2026-04-18T15:10:07.441Z</time></trkpt><trkpt lat="44.6582859" lon="5.2518251"><ele>790.0</ele><time>2026-04-18T15:10:08.44Z</time></trkpt><trkpt lat="44.6583566" lon="5.2518528"><ele>790.0</ele><time>2026-04-18T15:10:09.441Z</time></trkpt><trkpt lat="44.6584764" lon="5.2518695"><ele>790.0</ele><time>2026-04-18T15:10:11.441Z</time></trkpt><trkpt lat="44.6585662" lon="5.2518494"><ele>789.9999999999999</ele><time>2026-04-18T15:10:13.441Z</time></trkpt><trkpt lat="44.6586337" lon="5.2518095"><ele>790.0</ele><time>2026-04-18T15:10:15.441Z</time></trkpt><trkpt lat="44.6587055" lon="5.2517748"><ele>789.9999999999999</ele><time>2026-04-18T15:10:17.44Z</time></trkpt><trkpt lat="44.6587166" lon="5.2518768"><ele>790.0</ele><time>2026-04-18T15:10:19.441Z</time></trkpt><trkpt lat="44.6586645" lon="5.2519508"><ele>790.0</ele><time>2026-04-18T15:10:22.441Z</time></trkpt><trkpt lat="44.6585844" lon="5.2520066"><ele>790.0</ele><time>2026-04-18T15:10:24.441Z</time></trkpt><trkpt lat="44.6585138" lon="5.2520884"><ele>789.9999999999999</ele><time>2026-04-18T15:10:26.44Z</time></trkpt><trkpt lat="44.6584429" lon="5.2521534"><ele>790.0</ele><time>2026-04-18T15:10:27.44Z</time></trkpt><trkpt lat="44.6583502" lon="5.252249"><ele>785.4</ele><time>2026-04-18T15:10:29.441Z</time></trkpt><trkpt lat="44.6582813" lon="5.2523796"><ele>780.8</ele><time>2026-04-18T15:10:31.441Z</time></trkpt><trkpt lat="44.6582108" lon="5.252509"><ele>776.2</ele><time>2026-04-18T15:10:33.441Z</time></trkpt><trkpt lat="44.6581474" lon="5.2526227"><ele>771.6</ele><time>2026-04-18T15:10:35.441Z</time></trkpt><trkpt lat="44.65809" lon="5.2526775"><ele>767.0</ele><time>2026-04-18T15:10:36.441Z</time></trkpt><trkpt lat="44.6579787" lon="5.2527754"><ele>767.0</ele><time>2026-04-18T15:10:38.441Z</time></trkpt><trkpt lat="44.6578907" lon="5.252818"><ele>767.0</ele><time>2026-04-18T15:10:40.441Z</time></trkpt><trkpt lat="44.6577786" lon="5.2528542"><ele>767.0</ele><time>2026-04-18T15:10:42.441Z</time></trkpt><trkpt lat="44.6576622" lon="5.252867"><ele>767.0</ele><time>2026-04-18T15:10:44.441Z</time></trkpt><trkpt lat="44.6575465" lon="5.2528776"><ele>767.0</ele><time>2026-04-18T15:10:46.44Z</time></trkpt><trkpt lat="44.657429" lon="5.2528899"><ele>769.0</ele><time>2026-04-18T15:10:48.441Z</time></trkpt><trkpt lat="44.6573178" lon="5.2529155"><ele>771.0</ele><time>2026-04-18T15:10:50.44Z</time></trkpt><trkpt lat="44.6572272" lon="5.2529616"><ele>773.0</ele><time>2026-04-18T15:10:52.441Z</time></trkpt><trkpt lat="44.6571396" lon="5.2530316"><ele>775.0</ele><time>2026-04-18T15:10:53.441Z</time></trkpt><trkpt lat="44.6570822" lon="5.2530767"><ele>777.0</ele><time>2026-04-18T15:10:54.441Z</time></trkpt><trkpt lat="44.6570069" lon="5.2531282"><ele>772.5</ele><time>2026-04-18T15:10:55.441Z</time></trkpt><trkpt lat="44.6569447" lon="5.2531814"><ele>768.0</ele><time>2026-04-18T15:10:56.44Z</time></trkpt><trkpt lat="44.6568805" lon="5.2532421"><ele>763.5</ele><time>2026-04-18T15:10:57.441Z</time></trkpt><trkpt lat="44.6568103" lon="5.2532935"><ele>759.0</ele><time>2026-04-18T15:10:58.441Z</time></trkpt><trkpt lat="44.6567266" lon="5.253399"><ele>754.5</ele><time>2026-04-18T15:11:00.441Z</time></trkpt><trkpt lat="44.6566454" lon="5.2534892"><ele>750.0</ele><time>2026-04-18T15:11:02.441Z</time></trkpt><trkpt lat="44.6565558" lon="5.2535247"><ele>750.0</ele><time>2026-04-18T15:11:04.441Z</time></trkpt><trkpt lat="44.656483" lon="5.2535156"><ele>750.0</ele><time>2026-04-18T15:11:06.441Z</time></trkpt><trkpt lat="44.6564308" lon="5.2535986"><ele>750.0</ele><time>2026-04-18T15:11:09.441Z</time></trkpt><trkpt lat="44.6564945" lon="5.2536605"><ele>750.0</ele><time>2026-04-18T15:11:13.441Z</time></trkpt><trkpt lat="44.6565664" lon="5.2536652"><ele>750.0</ele><time>2026-04-18T15:11:15.441Z</time></trkpt><trkpt lat="44.6566354" lon="5.2537119"><ele>750.0</ele><time>2026-04-18T15:11:17.441Z</time></trkpt><trkpt lat="44.656708" lon="5.2537614"><ele>750.0</ele><time>2026-04-18T15:11:19.441Z</time></trkpt><trkpt lat="44.6567793" lon="5.2537932"><ele>750.0</ele><time>2026-04-18T15:11:21.441Z</time></trkpt><trkpt lat="44.6568744" lon="5.2538105"><ele>750.0</ele><time>2026-04-18T15:11:23.44Z</time></trkpt><trkpt lat="44.6569386" lon="5.2538411"><ele>750.0</ele><time>2026-04-18T15:11:24.441Z</time></trkpt><trkpt lat="44.6570419" lon="5.2538916"><ele>750.0</ele><time>2026-04-18T15:11:26.441Z</time></trkpt><trkpt lat="44.6571073" lon="5.253946"><ele>750.0</ele><time>2026-04-18T15:11:28.441Z</time></trkpt><trkpt lat="44.6571774" lon="5.2539929"><ele>743.6666666666666</ele><time>2026-04-18T15:11:30.441Z</time></trkpt><trkpt lat="44.6572502" lon="5.2540423"><ele>737.3333333333334</ele><time>2026-04-18T15:11:32.44Z</time></trkpt><trkpt lat="44.6573466" lon="5.2540489"><ele>731.0</ele><time>2026-04-18T15:11:33.44Z</time></trkpt><trkpt lat="44.6574008" lon="5.2541337"><ele>724.6666666666667</ele><time>2026-04-18T15:11:34.44Z</time></trkpt><trkpt lat="44.6574708" lon="5.2541631"><ele>718.3333333333334</ele><time>2026-04-18T15:11:36.44Z</time></trkpt><trkpt lat="44.6575624" lon="5.2541842"><ele>712.0</ele><time>2026-04-18T15:11:38.441Z</time></trkpt><trkpt lat="44.6576557" lon="5.2541888"><ele>712.0</ele><time>2026-04-18T15:11:40.44Z</time></trkpt><trkpt lat="44.6577372" lon="5.2541635"><ele>712.0</ele><time>2026-04-18T15:11:42.441Z</time></trkpt><trkpt lat="44.6578013" lon="5.2541365"><ele>712.0</ele><time>2026-04-18T15:11:44.441Z</time></trkpt><trkpt lat="44.6578803" lon="5.2540878"><ele>712.0</ele><time>2026-04-18T15:11:46.441Z</time></trkpt><trkpt lat="44.6579438" lon="5.2540475"><ele>712.0</ele><time>2026-04-18T15:11:48.441Z</time></trkpt><trkpt lat="44.6580082" lon="5.2540114"><ele>712.0</ele><time>2026-04-18T15:11:50.441Z</time></trkpt><trkpt lat="44.6580966" lon="5.2539892"><ele>710.2857142857142</ele><time>2026-04-18T15:11:54.441Z</time></trkpt><trkpt lat="44.6581663" lon="5.2539953"><ele>708.5714285714286</ele><time>2026-04-18T15:11:56.441Z</time></trkpt><trkpt lat="44.6582319" lon="5.2540013"><ele>706.8571428571429</ele><time>2026-04-18T15:11:58.441Z</time></trkpt><trkpt lat="44.6583019" lon="5.2540105"><ele>705.1428571428571</ele><time>2026-04-18T15:12:00.44Z</time></trkpt><trkpt lat="44.6583682" lon="5.2540111"><ele>703.4285714285714</ele><time>2026-04-18T15:12:02.441Z</time></trkpt><trkpt lat="44.6584312" lon="5.2540143"><ele>701.7142857142857</ele><time>2026-04-18T15:12:03.441Z</time></trkpt><trkpt lat="44.6585169" lon="5.2540182"><ele>700.0</ele><time>2026-04-18T15:12:05.44Z</time></trkpt><trkpt lat="44.6585859" lon="5.2539902"><ele>700.0</ele><time>2026-04-18T15:12:07.441Z</time></trkpt><trkpt lat="44.6586533" lon="5.2539655"><ele>700.0</ele><time>2026-04-18T15:12:09.44Z</time></trkpt><trkpt lat="44.6587125" lon="5.254035"><ele>700.0</ele><time>2026-04-18T15:12:12.441Z</time></trkpt><trkpt lat="44.6586735" lon="5.2541099"><ele>700.0</ele><time>2026-04-18T15:12:15.441Z</time></trkpt><trkpt lat="44.6586146" lon="5.2541416"><ele>700.0</ele><time>2026-04-18T15:12:17.44Z</time></trkpt><trkpt lat="44.6585277" lon="5.2541927"><ele>700.0</ele><time>2026-04-18T15:12:19.441Z</time></trkpt><trkpt lat="44.6584563" lon="5.2542787"><ele>700.0</ele><time>2026-04-18T15:12:21.441Z</time></trkpt><trkpt lat="44.6583863" lon="5.2543393"><ele>700.0</ele><time>2026-04-18T15:12:23.441Z</time></trkpt><trkpt lat="44.6583255" lon="5.2544288"><ele>700.0</ele><time>2026-04-18T15:12:26.441Z</time></trkpt><trkpt lat="44.658266" lon="5.2545598"><ele>700.0</ele><time>2026-04-18T15:12:28.441Z</time></trkpt><trkpt lat="44.6582221" lon="5.2546943"><ele>700.0</ele><time>2026-04-18T15:12:30.441Z</time></trkpt><trkpt lat="44.6581651" lon="5.2547985"><ele>694.2</ele><time>2026-04-18T15:12:32.441Z</time></trkpt><trkpt lat="44.6581153" lon="5.2549048"><ele>688.4</ele><time>2026-04-18T15:12:34.441Z</time></trkpt><trkpt lat="44.6580332" lon="5.2549934"><ele>682.5999999999999</ele><time>2026-04-18T15:12:36.44Z</time></trkpt><trkpt lat="44.6579713" lon="5.2550681"><ele>676.8</ele><time>2026-04-18T15:12:38.441Z</time></trkpt><trkpt lat="44.6578805" lon="5.2551272"><ele>671.0</ele><time>2026-04-18T15:12:40.441Z</time></trkpt><trkpt lat="44.6577882" lon="5.2551604"><ele>673.8</ele><time>2026-04-18T15:12:42.441Z</time></trkpt><trkpt lat="44.6576879" lon="5.2552138"><ele>676.5999999999999</ele><time>2026-04-18T15:12:44.441Z</time></trkpt><trkpt lat="44.6575946" lon="5.2552719"><ele>679.4</ele><time>2026-04-18T15:12:46.441Z</time></trkpt><trkpt lat="44.6575145" lon="5.2553216"><ele>682.2</ele><time>2026-04-18T15:12:48.44Z</time></trkpt><trkpt lat="44.6574457" lon="5.2553825"><ele>685.0</ele><time>2026-04-18T15:12:50.441Z</time></trkpt><trkpt lat="44.6573839" lon="5.255445"><ele>685.0</ele><time>2026-04-18T15:12:52.441Z</time></trkpt><trkpt lat="44.6573185" lon="5.2555118"><ele>685.0</ele><time>2026-04-18T15:12:54.441Z</time></trkpt><trkpt lat="44.6572538" lon="5.2555741"><ele>685.0</ele><time>2026-04-18T15:12:57.44Z</time></trkpt><trkpt lat="44.6571771" lon="5.2555722"><ele>685.0</ele><time>2026-04-18T15:13:34.441Z</time></trkpt><trkpt lat="44.6571042" lon="5.2555707"><ele>685.0</ele><time>2026-04-18T15:13:36.44Z</time></trkpt><trkpt lat="44.6570325" lon="5.2555993"><ele>685.0</ele><time>2026-04-18T15:13:37.44Z</time></trkpt><trkpt lat="44.6569275" lon="5.2556342"><ele>679.8333333333334</ele><time>2026-04-18T15:13:39.441Z</time></trkpt><trkpt lat="44.6568375" lon="5.2556589"><ele>674.6666666666667</ele><time>2026-04-18T15:13:41.44Z</time></trkpt><trkpt lat="44.6567513" lon="5.2557147"><ele>669.5</ele><time>2026-04-18T15:13:43.44Z</time></trkpt><trkpt lat="44.6566977" lon="5.2557641"><ele>664.3333333333334</ele><time>2026-04-18T15:13:44.44Z</time></trkpt><trkpt lat="44.6566375" lon="5.2558883"><ele>659.1666666666666</ele><time>2026-04-18T15:13:46.44Z</time></trkpt><trkpt lat="44.656584" lon="5.2559762"><ele>654.0</ele><time>2026-04-18T15:13:48.44Z</time></trkpt><trkpt lat="44.6565253" lon="5.2560511"><ele>654.0</ele><time>2026-04-18T15:13:50.44Z</time></trkpt><trkpt lat="44.6564704" lon="5.2561183"><ele>654.0</ele><time>2026-04-18T15:13:52.44Z</time></trkpt><trkpt lat="44.6564658" lon="5.2562198"><ele>654.0</ele><time>2026-04-18T15:13:54.44Z</time></trkpt><trkpt lat="44.6565392" lon="5.2562445"><ele>654.0</ele><time>2026-04-18T15:13:56.44Z</time></trkpt><trkpt lat="44.656595" lon="5.2561839"><ele>654.0</ele><time>2026-04-18T15:13:58.44Z</time></trkpt><trkpt lat="44.6566457" lon="5.2561191"><ele>654.0</ele><time>2026-04-18T15:13:59.439Z</time></trkpt><trkpt lat="44.6567556" lon="5.2560817"><ele>654.0</ele><time>2026-04-18T15:14:01.439Z</time></trkpt><trkpt lat="44.6568584" lon="5.2560674"><ele>654.0</ele><time>2026-04-18T15:14:03.439Z</time></trkpt><trkpt lat="44.6569365" lon="5.2560763"><ele>654.0</ele><time>2026-04-18T15:14:05.44Z</time></trkpt><trkpt lat="44.6570233" lon="5.2561348"><ele>654.0</ele><time>2026-04-18T15:14:07.44Z</time></trkpt><trkpt lat="44.6571198" lon="5.2561928"><ele>654.0</ele><time>2026-04-18T15:14:09.439Z</time></trkpt><trkpt lat="44.6571896" lon="5.2562519"><ele>653.1666666666666</ele><time>2026-04-18T15:14:11.44Z</time></trkpt><trkpt lat="44.6572533" lon="5.2562723"><ele>652.3333333333334</ele><time>2026-04-18T15:14:12.44Z</time></trkpt><trkpt lat="44.657327" lon="5.2563115"><ele>651.5</ele><time>2026-04-18T15:14:14.44Z</time></trkpt><trkpt lat="44.6573884" lon="5.256357"><ele>650.6666666666667</ele><time>2026-04-18T15:14:16.44Z</time></trkpt><trkpt lat="44.657438" lon="5.2564781"><ele>649.8333333333334</ele><time>2026-04-18T15:14:19.44Z</time></trkpt><trkpt lat="44.6573593" lon="5.2565752"><ele>649.0</ele><time>2026-04-18T15:14:21.44Z</time></trkpt><trkpt lat="44.6573381" lon="5.2566632"><ele>645.4000000000001</ele><time>2026-04-18T15:14:23.44Z</time></trkpt><trkpt lat="44.6573144" lon="5.2568118"><ele>641.8000000000001</ele><time>2026-04-18T15:14:25.44Z</time></trkpt><trkpt lat="44.6572749" lon="5.2569575"><ele>638.2</ele><time>2026-04-18T15:14:27.44Z</time></trkpt><trkpt lat="44.6572625" lon="5.2570466"><ele>634.6</ele><time>2026-04-18T15:14:28.439Z</time></trkpt><trkpt lat="44.6572566" lon="5.2571878"><ele>631.0</ele><time>2026-04-18T15:14:30.44Z</time></trkpt><trkpt lat="44.6572437" lon="5.2573277"><ele>626.8</ele><time>2026-04-18T15:14:32.44Z</time></trkpt><trkpt lat="44.657195" lon="5.2574574"><ele>622.6</ele><time>2026-04-18T15:14:34.44Z</time></trkpt><trkpt lat="44.6571369" lon="5.2575728"><ele>618.4</ele><time>2026-04-18T15:14:36.439Z</time></trkpt><trkpt lat="44.657068" lon="5.2576727"><ele>614.2</ele><time>2026-04-18T15:14:38.44Z</time></trkpt><trkpt lat="44.6570067" lon="5.2577794"><ele>610.0</ele><time>2026-04-18T15:14:40.44Z</time></trkpt><trkpt lat="44.6569676" lon="5.2578537"><ele>610.0</ele><time>2026-04-18T15:14:42.44Z</time></trkpt><trkpt lat="44.656905" lon="5.2579197"><ele>610.0</ele><time>2026-04-18T15:14:45.44Z</time></trkpt><trkpt lat="44.6569752" lon="5.2578811"><ele>610.0</ele><time>2026-04-18T15:15:06.44Z</time></trkpt><trkpt lat="44.6570226" lon="5.2577786"><ele>610.0</ele><time>2026-04-18T15:15:09.441Z</time></trkpt><trkpt lat="44.6570684" lon="5.2576702"><ele>610.0</ele><time>2026-04-18T15:15:11.44Z</time></trkpt><trkpt lat="44.6571154" lon="5.2575978"><ele>610.0</ele><time>2026-04-18T15:15:12.44Z</time></trkpt><trkpt lat="44.6571835" lon="5.2574846"><ele>610.0</ele><time>2026-04-18T15:15:14.44Z</time></trkpt><trkpt lat="44.6572411" lon="5.257352"><ele>610.0</ele><time>2026-04-18T15:15:16.44Z</time></trkpt><trkpt lat="44.6572674" lon="5.2572073"><ele>610.0</ele><time>2026-04-18T15:15:18.44Z</time></trkpt><trkpt lat="44.6572887" lon="5.2571203"><ele>610.0</ele><time>2026-04-18T15:15:19.44Z</time></trkpt><trkpt lat="44.6573203" lon="5.2569614"><ele>610.0</ele><time>2026-04-18T15:15:21.44Z</time></trkpt><trkpt lat="44.6573223" lon="5.2568012"><ele>613.5</ele><time>2026-04-18T15:15:23.439Z</time></trkpt><trkpt lat="44.6573497" lon="5.2566537"><ele>617.0</ele><time>2026-04-18T15:15:25.441Z</time></trkpt><trkpt lat="44.6574087" lon="5.2565395"><ele>620.5</ele><time>2026-04-18T15:15:27.44Z</time></trkpt><trkpt lat="44.6574437" lon="5.2564506"><ele>624.0</ele><time>2026-04-18T15:15:29.44Z</time></trkpt><trkpt lat="44.6574183" lon="5.2565452"><ele>627.5</ele><time>2026-04-18T15:15:50.44Z</time></trkpt><trkpt lat="44.6573706" lon="5.2566375"><ele>631.0</ele><time>2026-04-18T15:15:52.439Z</time></trkpt><trkpt lat="44.6573493" lon="5.2567884"><ele>631.0</ele><time>2026-04-18T15:15:54.439Z</time></trkpt><trkpt lat="44.6573239" lon="5.2569166"><ele>631.0</ele><time>2026-04-18T15:15:56.44Z</time></trkpt><trkpt lat="44.6573017" lon="5.2570697"><ele>631.0</ele><time>2026-04-18T15:15:58.44Z</time></trkpt><trkpt lat="44.6572632" lon="5.2572035"><ele>631.0</ele><time>2026-04-18T15:16:00.44Z</time></trkpt><trkpt lat="44.6572342" lon="5.2573491"><ele>631.0</ele><time>2026-04-18T15:16:02.44Z</time></trkpt><trkpt lat="44.6571966" lon="5.2574772"><ele>629.5</ele><time>2026-04-18T15:16:04.44Z</time></trkpt><trkpt lat="44.6571341" lon="5.2575775"><ele>628.0</ele><time>2026-04-18T15:16:06.44Z</time></trkpt><trkpt lat="44.6570933" lon="5.2576811"><ele>626.5</ele><time>2026-04-18T15:16:08.439Z</time></trkpt><trkpt lat="44.6570169" lon="5.2577692"><ele>625.0</ele><time>2026-04-18T15:16:10.44Z</time></trkpt><trkpt lat="44.6569805" lon="5.2578453"><ele>623.5</ele><time>2026-04-18T15:16:12.44Z</time></trkpt><trkpt lat="44.6569566" lon="5.2579316"><ele>622.0</ele><time>2026-04-18T15:16:22.44Z</time></trkpt><trkpt lat="44.6569364" lon="5.2580458"><ele>618.6666666666667</ele><time>2026-04-18T15:16:25.439Z</time></trkpt><trkpt lat="44.6569202" lon="5.2581345"><ele>615.3333333333334</ele><time>2026-04-18T15:16:27.439Z</time></trkpt><trkpt lat="44.6568892" lon="5.2582234"><ele>612.0</ele><time>2026-04-18T15:16:29.44Z</time></trkpt><trkpt lat="44.656876" lon="5.2583445"><ele>608.6666666666666</ele><time>2026-04-18T15:16:31.44Z</time></trkpt><trkpt lat="44.6568869" lon="5.2584602"><ele>605.3333333333333</ele><time>2026-04-18T15:16:33.44Z</time></trkpt><trkpt lat="44.6568222" lon="5.2585592"><ele>602.0</ele><time>2026-04-18T15:16:36.44Z</time></trkpt><trkpt lat="44.6567492" lon="5.2585624"><ele>602.0</ele><time>2026-04-18T15:16:38.44Z</time></trkpt><trkpt lat="44.6566744" lon="5.2585374"><ele>602.0</ele><time>2026-04-18T15:16:40.439Z</time></trkpt><trkpt lat="44.6565944" lon="5.2584971"><ele>602.0</ele><time>2026-04-18T15:16:42.44Z</time></trkpt><trkpt lat="44.6565111" lon="5.2584573"><ele>602.0</ele><time>2026-04-18T15:16:44.44Z</time></trkpt><trkpt lat="44.6564089" lon="5.2583899"><ele>602.0</ele><time>2026-04-18T15:16:46.439Z</time></trkpt><trkpt lat="44.6563221" lon="5.2583328"><ele>602.0</ele><time>2026-04-18T15:16:48.439Z</time></trkpt><trkpt lat="44.6562111" lon="5.2582978"><ele>602.0</ele><time>2026-04-18T15:16:50.44Z</time></trkpt><trkpt lat="44.6560953" lon="5.2583292"><ele>602.0</ele><time>2026-04-18T15:16:52.44Z</time></trkpt><trkpt lat="44.6559824" lon="5.2583365"><ele>602.0</ele><time>2026-04-18T15:16:54.44Z</time></trkpt><trkpt lat="44.6558986" lon="5.2583034"><ele>602.0</ele><time>2026-04-18T15:16:56.44Z</time></trkpt><trkpt lat="44.6558649" lon="5.2582273"><ele>600.0</ele><time>2026-04-18T15:16:58.44Z</time></trkpt><trkpt lat="44.6557972" lon="5.2582157"><ele>598.0</ele><time>2026-04-18T15:17:01.44Z</time></trkpt><trkpt lat="44.6557785" lon="5.2583026"><ele>596.0</ele><time>2026-04-18T15:17:04.44Z</time></trkpt><trkpt lat="44.6558262" lon="5.2583824"><ele>594.0</ele><time>2026-04-18T15:17:07.44Z</time></trkpt><trkpt lat="44.6558907" lon="5.258469"><ele>592.0</ele><time>2026-04-18T15:17:10.439Z</time></trkpt><trkpt lat="44.655942" lon="5.2585308"><ele>590.0</ele><time>2026-04-18T15:17:12.439Z</time></trkpt><trkpt lat="44.6560177" lon="5.2585914"><ele>590.0</ele><time>2026-04-18T15:17:14.438Z</time></trkpt><trkpt lat="44.6561023" lon="5.2586651"><ele>590.0</ele><time>2026-04-18T15:17:16.44Z</time></trkpt><trkpt lat="44.6561672" lon="5.2587564"><ele>590.0</ele><time>2026-04-18T15:17:18.44Z</time></trkpt><trkpt lat="44.6561685" lon="5.2588903"><ele>590.0</ele><time>2026-04-18T15:17:20.44Z</time></trkpt><trkpt lat="44.6561904" lon="5.2590277"><ele>590.0</ele><time>2026-04-18T15:17:22.439Z</time></trkpt><trkpt lat="44.6562492" lon="5.25918"><ele>588.2</ele><time>2026-04-18T15:17:24.44Z</time></trkpt><trkpt lat="44.6562473" lon="5.259283"><ele>586.4</ele><time>2026-04-18T15:17:26.439Z</time></trkpt><trkpt lat="44.6562442" lon="5.2594341"><ele>584.6</ele><time>2026-04-18T15:17:28.44Z</time></trkpt><trkpt lat="44.6562498" lon="5.2595823"><ele>582.8</ele><time>2026-04-18T15:17:30.44Z</time></trkpt><trkpt lat="44.6562512" lon="5.2597326"><ele>581.0</ele><time>2026-04-18T15:17:32.44Z</time></trkpt><trkpt lat="44.6562595" lon="5.2598709"><ele>576.8</ele><time>2026-04-18T15:17:34.439Z</time></trkpt><trkpt lat="44.6562733" lon="5.2600169"><ele>572.6</ele><time>2026-04-18T15:17:36.44Z</time></trkpt><trkpt lat="44.6562844" lon="5.2601757"><ele>568.4</ele><time>2026-04-18T15:17:38.44Z</time></trkpt><trkpt lat="44.656306" lon="5.2603118"><ele>564.2</ele><time>2026-04-18T15:17:41.44Z</time></trkpt><trkpt lat="44.6563628" lon="5.2603669"><ele>560.0</ele><time>2026-04-18T15:17:42.44Z</time></trkpt><trkpt lat="44.6563984" lon="5.2604488"><ele>560.0</ele><time>2026-04-18T15:17:44.44Z</time></trkpt><trkpt lat="44.6564036" lon="5.2605522"><ele>560.0</ele><time>2026-04-18T15:17:48.439Z</time></trkpt><trkpt lat="44.6563319" lon="5.2605644"><ele>560.0</ele><time>2026-04-18T15:19:22.44Z</time></trkpt><trkpt lat="44.6563102" lon="5.2604624"><ele>560.0</ele><time>2026-04-18T15:19:24.44Z</time></trkpt><trkpt lat="44.6562571" lon="5.2603215"><ele>560.0</ele><time>2026-04-18T15:19:26.44Z</time></trkpt><trkpt lat="44.6562306" lon="5.2601982"><ele>560.0</ele><time>2026-04-18T15:19:28.44Z</time></trkpt><trkpt lat="44.6561959" lon="5.260111"><ele>560.0</ele><time>2026-04-18T15:19:30.44Z</time></trkpt><trkpt lat="44.6561341" lon="5.2600649"><ele>560.0</ele><time>2026-04-18T15:19:33.44Z</time></trkpt><trkpt lat="44.6561321" lon="5.260172"><ele>560.0</ele><time>2026-04-18T15:19:36.439Z</time></trkpt><trkpt lat="44.6561509" lon="5.2602968"><ele>560.0</ele><time>2026-04-18T15:19:38.44Z</time></trkpt><trkpt lat="44.6561728" lon="5.2604292"><ele>560.0</ele><time>2026-04-18T15:19:40.439Z</time></trkpt><trkpt lat="44.6561876" lon="5.2605599"><ele>560.0</ele><time>2026-04-18T15:19:42.44Z</time></trkpt><trkpt lat="44.6562004" lon="5.2606754"><ele>555.0</ele><time>2026-04-18T15:19:44.439Z</time></trkpt><trkpt lat="44.6562117" lon="5.2608049"><ele>550.0</ele><time>2026-04-18T15:19:46.439Z</time></trkpt><trkpt lat="44.6562119" lon="5.2609656"><ele>545.0</ele><time>2026-04-18T15:19:48.44Z</time></trkpt><trkpt lat="44.6562097" lon="5.2611189"><ele>540.0</ele><time>2026-04-18T15:19:50.44Z</time></trkpt><trkpt lat="44.6562485" lon="5.2612689"><ele>535.0</ele><time>2026-04-18T15:19:52.44Z</time></trkpt><trkpt lat="44.6562837" lon="5.2613581"><ele>535.0</ele><time>2026-04-18T15:19:54.44Z</time></trkpt><trkpt lat="44.6562995" lon="5.2614642"><ele>535.0</ele><time>2026-04-18T15:19:57.439Z</time></trkpt><trkpt lat="44.6562372" lon="5.2615075"><ele>535.0</ele><time>2026-04-18T15:20:00.44Z</time></trkpt><trkpt lat="44.6561933" lon="5.2614433"><ele>535.0</ele><time>2026-04-18T15:20:03.44Z</time></trkpt><trkpt lat="44.6561681" lon="5.261339"><ele>535.0</ele><time>2026-04-18T15:20:06.439Z</time></trkpt><trkpt lat="44.6561453" lon="5.2612512"><ele>535.0</ele><time>2026-04-18T15:20:08.44Z</time></trkpt><trkpt lat="44.6560938" lon="5.2610991"><ele>535.8333333333334</ele><time>2026-04-18T15:20:10.44Z</time></trkpt><trkpt lat="44.6560616" lon="5.2610228"><ele>536.6666666666667</ele><time>2026-04-18T15:20:11.44Z</time></trkpt><trkpt lat="44.6560299" lon="5.2609453"><ele>537.5</ele><time>2026-04-18T15:20:12.44Z</time></trkpt><trkpt lat="44.6559943" lon="5.2608616"><ele>538.3333333333334</ele><time>2026-04-18T15:20:13.44Z</time></trkpt><trkpt lat="44.6559546" lon="5.260783"><ele>539.1666666666666</ele><time>2026-04-18T15:20:14.44Z</time></trkpt><trkpt lat="44.6559258" lon="5.2607035"><ele>540.0</ele><time>2026-04-18T15:20:15.439Z</time></trkpt><trkpt lat="44.6558515" lon="5.2605622"><ele>540.0</ele><time>2026-04-18T15:20:17.44Z</time></trkpt><trkpt lat="44.6557916" lon="5.2604115"><ele>540.0</ele><time>2026-04-18T15:20:19.44Z</time></trkpt><trkpt lat="44.65575" lon="5.2602607"><ele>540.0</ele><time>2026-04-18T15:20:21.44Z</time></trkpt><trkpt lat="44.6557251" lon="5.2601632"><ele>540.0</ele><time>2026-04-18T15:20:23.44Z</time></trkpt><trkpt lat="44.6556781" lon="5.2602458"><ele>540.0</ele><time>2026-04-18T15:20:28.439Z</time></trkpt><trkpt lat="44.655716" lon="5.2603419"><ele>540.0</ele><time>2026-04-18T15:20:30.439Z</time></trkpt><trkpt lat="44.6557338" lon="5.2604481"><ele>540.0</ele><time>2026-04-18T15:20:32.44Z</time></trkpt><trkpt lat="44.6557536" lon="5.2605978"><ele>540.0</ele><time>2026-04-18T15:20:34.44Z</time></trkpt><trkpt lat="44.6557538" lon="5.2607558"><ele>540.0</ele><time>2026-04-18T15:20:36.439Z</time></trkpt><trkpt lat="44.6557747" lon="5.2608443"><ele>540.0</ele><time>2026-04-18T15:20:37.439Z</time></trkpt><trkpt lat="44.6557892" lon="5.2610189"><ele>537.8333333333334</ele><time>2026-04-18T15:20:39.44Z</time></trkpt><trkpt lat="44.6557914" lon="5.2611091"><ele>535.6666666666666</ele><time>2026-04-18T15:20:40.439Z</time></trkpt><trkpt lat="44.6558111" lon="5.2612873"><ele>533.5</ele><time>2026-04-18T15:20:42.44Z</time></trkpt><trkpt lat="44.6558239" lon="5.2613787"><ele>531.3333333333333</ele><time>2026-04-18T15:20:43.44Z</time></trkpt><trkpt lat="44.6558377" lon="5.2614652"><ele>529.1666666666666</ele><time>2026-04-18T15:20:44.44Z</time></trkpt><trkpt lat="44.6558566" lon="5.2616098"><ele>527.0</ele><time>2026-04-18T15:20:46.44Z</time></trkpt><trkpt lat="44.6558969" lon="5.2617592"><ele>524.2</ele><time>2026-04-18T15:20:48.44Z</time></trkpt><trkpt lat="44.6559304" lon="5.2618354"><ele>521.4000000000001</ele><time>2026-04-18T15:20:49.44Z</time></trkpt><trkpt lat="44.6559854" lon="5.2619703"><ele>518.5999999999999</ele><time>2026-04-18T15:20:51.44Z</time></trkpt><trkpt lat="44.6560267" lon="5.2621126"><ele>515.8</ele><time>2026-04-18T15:20:53.44Z</time></trkpt><trkpt lat="44.6560683" lon="5.2622738"><ele>513.0</ele><time>2026-04-18T15:20:55.44Z</time></trkpt><trkpt lat="44.656117" lon="5.2624339"><ele>511.59999999999997</ele><time>2026-04-18T15:20:57.439Z</time></trkpt><trkpt lat="44.6561446" lon="5.2625244"><ele>510.19999999999993</ele><time>2026-04-18T15:20:58.44Z</time></trkpt><trkpt lat="44.6561698" lon="5.2626101"><ele>508.8</ele><time>2026-04-18T15:20:59.44Z</time></trkpt><trkpt lat="44.6562077" lon="5.2627651"><ele>507.4</ele><time>2026-04-18T15:21:01.44Z</time></trkpt><trkpt lat="44.6562381" lon="5.2629101"><ele>506.0</ele><time>2026-04-18T15:21:03.44Z</time></trkpt><trkpt lat="44.6562734" lon="5.2630521"><ele>504.20000000000005</ele><time>2026-04-18T15:21:05.44Z</time></trkpt><trkpt lat="44.6563051" lon="5.2631869"><ele>502.40000000000003</ele><time>2026-04-18T15:21:07.44Z</time></trkpt><trkpt lat="44.6563365" lon="5.2632787"><ele>500.6</ele><time>2026-04-18T15:21:09.439Z</time></trkpt><trkpt lat="44.6563864" lon="5.263391"><ele>498.8</ele><time>2026-04-18T15:21:12.44Z</time></trkpt><trkpt lat="44.6563985" lon="5.2635104"><ele>497.0</ele><time>2026-04-18T15:21:14.44Z</time></trkpt><trkpt lat="44.6563798" lon="5.2636608"><ele>497.0</ele><time>2026-04-18T15:21:16.44Z</time></trkpt><trkpt lat="44.6563503" lon="5.2638177"><ele>497.00000000000006</ele><time>2026-04-18T15:21:18.44Z</time></trkpt><trkpt lat="44.6563336" lon="5.2639644"><ele>497.00000000000006</ele><time>2026-04-18T15:21:20.44Z</time></trkpt><trkpt lat="44.6563232" lon="5.2640875"><ele>497.0</ele><time>2026-04-18T15:21:22.439Z</time></trkpt><trkpt lat="44.6562899" lon="5.2642147"><ele>497.0</ele><time>2026-04-18T15:21:24.44Z</time></trkpt><trkpt lat="44.6562954" lon="5.2643071"><ele>496.16666666666663</ele><time>2026-04-18T15:21:26.44Z</time></trkpt><trkpt lat="44.6563225" lon="5.2643988"><ele>495.3333333333333</ele><time>2026-04-18T15:21:28.44Z</time></trkpt><trkpt lat="44.656371" lon="5.2644977"><ele>494.5</ele><time>2026-04-18T15:21:30.44Z</time></trkpt><trkpt lat="44.6564107" lon="5.2645672"><ele>493.66666666666663</ele><time>2026-04-18T15:21:32.439Z</time></trkpt><trkpt lat="44.6564726" lon="5.2646433"><ele>492.8333333333333</ele><time>2026-04-18T15:21:34.44Z</time></trkpt><trkpt lat="44.6565421" lon="5.2646055"><ele>492.0</ele><time>2026-04-18T15:21:50.44Z</time></trkpt><trkpt lat="44.6565311" lon="5.2644681"><ele>492.00000000000006</ele><time>2026-04-18T15:21:52.44Z</time></trkpt><trkpt lat="44.6565218" lon="5.2643748"><ele>492.0</ele><time>2026-04-18T15:21:53.439Z</time></trkpt><trkpt lat="44.656511" lon="5.2642758"><ele>492.00000000000006</ele><time>2026-04-18T15:21:54.44Z</time></trkpt><trkpt lat="44.6565098" lon="5.2641761"><ele>492.00000000000006</ele><time>2026-04-18T15:21:55.441Z</time></trkpt><trkpt lat="44.656509" lon="5.2640694"><ele>492.0</ele><time>2026-04-18T15:21:56.439Z</time></trkpt><trkpt lat="44.65652" lon="5.2639591"><ele>492.00000000000006</ele><time>2026-04-18T15:21:57.44Z</time></trkpt><trkpt lat="44.6565326" lon="5.2638421"><ele>492.00000000000006</ele><time>2026-04-18T15:21:58.44Z</time></trkpt><trkpt lat="44.6565485" lon="5.2637277"><ele>492.7142857142858</ele><time>2026-04-18T15:21:59.44Z</time></trkpt><trkpt lat="44.6565494" lon="5.263634"><ele>493.42857142857144</ele><time>2026-04-18T15:22:00.44Z</time></trkpt><trkpt lat="44.6565489" lon="5.2635381"><ele>494.14285714285717</ele><time>2026-04-18T15:22:01.44Z</time></trkpt><trkpt lat="44.6565389" lon="5.2634435"><ele>494.8571428571429</ele><time>2026-04-18T15:22:02.44Z</time></trkpt><trkpt lat="44.656525" lon="5.2633504"><ele>495.57142857142856</ele><time>2026-04-18T15:22:03.44Z</time></trkpt><trkpt lat="44.6565382" lon="5.2632593"><ele>496.2857142857143</ele><time>2026-04-18T15:22:04.44Z</time></trkpt><trkpt lat="44.6565525" lon="5.2631676"><ele>497.0</ele><time>2026-04-18T15:22:05.44Z</time></trkpt><trkpt lat="44.6565865" lon="5.2630754"><ele>498.49999999999994</ele><time>2026-04-18T15:22:06.44Z</time></trkpt><trkpt lat="44.6566242" lon="5.2629813"><ele>500.0</ele><time>2026-04-18T15:22:07.439Z</time></trkpt><trkpt lat="44.6566505" lon="5.2628664"><ele>501.5</ele><time>2026-04-18T15:22:08.44Z</time></trkpt><trkpt lat="44.6566631" lon="5.2627567"><ele>503.0</ele><time>2026-04-18T15:22:09.44Z</time></trkpt><trkpt lat="44.6566677" lon="5.2626361"><ele>504.49999999999994</ele><time>2026-04-18T15:22:10.44Z</time></trkpt><trkpt lat="44.6566739" lon="5.2625202"><ele>506.0</ele><time>2026-04-18T15:22:11.44Z</time></trkpt><trkpt lat="44.6566765" lon="5.2624301"><ele>506.0</ele><time>2026-04-18T15:22:12.44Z</time></trkpt><trkpt lat="44.6566701" lon="5.2623198"><ele>506.0</ele><time>2026-04-18T15:22:14.44Z</time></trkpt><trkpt lat="44.6566877" lon="5.2622237"><ele>506.0</ele><time>2026-04-18T15:22:16.44Z</time></trkpt><trkpt lat="44.6567272" lon="5.2621513"><ele>506.0</ele><time>2026-04-18T15:22:18.44Z</time></trkpt><trkpt lat="44.6568322" lon="5.2622352"><ele>506.0</ele><time>2026-04-18T15:22:20.44Z</time></trkpt><trkpt lat="44.6569205" lon="5.2624127"><ele>506.0</ele><time>2026-04-18T15:22:22.44Z</time></trkpt><trkpt lat="44.6569512" lon="5.2625611"><ele>506.0</ele><time>2026-04-18T15:22:23.44Z</time></trkpt><trkpt lat="44.6570021" lon="5.2626767"><ele>506.0</ele><time>2026-04-18T15:22:24.44Z</time></trkpt><trkpt lat="44.6570491" lon="5.2627868"><ele>506.0</ele><time>2026-04-18T15:22:25.44Z</time></trkpt><trkpt lat="44.6570991" lon="5.2628958"><ele>506.0</ele><time>2026-04-18T15:22:26.44Z</time></trkpt><trkpt lat="44.6571474" lon="5.2629953"><ele>509.66666666666663</ele><time>2026-04-18T15:22:27.44Z</time></trkpt><trkpt lat="44.6571954" lon="5.2631061"><ele>513.3333333333333</ele><time>2026-04-18T15:22:28.439Z</time></trkpt><trkpt lat="44.6572313" lon="5.2632132"><ele>517.0</ele><time>2026-04-18T15:22:29.44Z</time></trkpt><trkpt lat="44.6572548" lon="5.2633278"><ele>520.6666666666666</ele><time>2026-04-18T15:22:30.439Z</time></trkpt><trkpt lat="44.6572735" lon="5.2634501"><ele>524.3333333333334</ele><time>2026-04-18T15:22:31.439Z</time></trkpt><trkpt lat="44.6572909" lon="5.2635788"><ele>528.0</ele><time>2026-04-18T15:22:32.439Z</time></trkpt><trkpt lat="44.6573083" lon="5.2637135"><ele>528.0</ele><time>2026-04-18T15:22:33.439Z</time></trkpt><trkpt lat="44.6573334" lon="5.2638531"><ele>528.0</ele><time>2026-04-18T15:22:34.439Z</time></trkpt><trkpt lat="44.6573565" lon="5.2639893"><ele>528.0</ele><time>2026-04-18T15:22:35.438Z</time></trkpt><trkpt lat="44.6573846" lon="5.2641166"><ele>528.0</ele><time>2026-04-18T15:22:36.438Z</time></trkpt><trkpt lat="44.6574108" lon="5.2642483"><ele>528.0</ele><time>2026-04-18T15:22:37.439Z</time></trkpt><trkpt lat="44.6574276" lon="5.2643533"><ele>526.6666666666666</ele><time>2026-04-18T15:22:38.439Z</time></trkpt><trkpt lat="44.6574511" lon="5.2645139"><ele>525.3333333333334</ele><time>2026-04-18T15:22:40.439Z</time></trkpt><trkpt lat="44.6574556" lon="5.2646432"><ele>524.0</ele><time>2026-04-18T15:22:42.439Z</time></trkpt><trkpt lat="44.6574983" lon="5.2647189"><ele>522.6666666666667</ele><time>2026-04-18T15:22:44.439Z</time></trkpt><trkpt lat="44.6575617" lon="5.2647209"><ele>521.3333333333334</ele><time>2026-04-18T15:22:46.439Z</time></trkpt><trkpt lat="44.65759" lon="5.2646309"><ele>520.0</ele><time>2026-04-18T15:23:03.439Z</time></trkpt><trkpt lat="44.6575469" lon="5.2645239"><ele>520.0</ele><time>2026-04-18T15:23:05.438Z</time></trkpt><trkpt lat="44.6575092" lon="5.2643597"><ele>520.0</ele><time>2026-04-18T15:23:07.439Z</time></trkpt><trkpt lat="44.6575078" lon="5.2642608"><ele>520.0</ele><time>2026-04-18T15:23:08.439Z</time></trkpt><trkpt lat="44.6575171" lon="5.2641631"><ele>520.0</ele><time>2026-04-18T15:23:09.439Z</time></trkpt><trkpt lat="44.6575292" lon="5.2640656"><ele>520.0</ele><time>2026-04-18T15:23:10.439Z</time></trkpt><trkpt lat="44.6575422" lon="5.2639676"><ele>520.0</ele><time>2026-04-18T15:23:11.439Z</time></trkpt><trkpt lat="44.657547" lon="5.2638639"><ele>521.3333333333334</ele><time>2026-04-18T15:23:12.439Z</time></trkpt><trkpt lat="44.6575547" lon="5.2637639"><ele>522.6666666666667</ele><time>2026-04-18T15:23:13.439Z</time></trkpt><trkpt lat="44.6575599" lon="5.2636734"><ele>524.0</ele><time>2026-04-18T15:23:14.439Z</time></trkpt><trkpt lat="44.6575778" lon="5.263583"><ele>525.3333333333334</ele><time>2026-04-18T15:23:15.439Z</time></trkpt><trkpt lat="44.6576224" lon="5.2634141"><ele>526.6666666666666</ele><time>2026-04-18T15:23:17.438Z</time></trkpt><trkpt lat="44.657645" lon="5.2633212"><ele>528.0</ele><time>2026-04-18T15:23:18.439Z</time></trkpt><trkpt lat="44.6576714" lon="5.2632272"><ele>528.0</ele><time>2026-04-18T15:23:19.439Z</time></trkpt><trkpt lat="44.6576984" lon="5.2631352"><ele>528.0</ele><time>2026-04-18T15:23:20.439Z</time></trkpt><trkpt lat="44.6577197" lon="5.2630437"><ele>528.0</ele><time>2026-04-18T15:23:21.439Z</time></trkpt><trkpt lat="44.6577427" lon="5.262949"><ele>528.0</ele><time>2026-04-18T15:23:22.439Z</time></trkpt><trkpt lat="44.6577584" lon="5.2628582"><ele>528.0</ele><time>2026-04-18T15:23:23.439Z</time></trkpt><trkpt lat="44.6577766" lon="5.2627186"><ele>528.0</ele><time>2026-04-18T15:23:25.438Z</time></trkpt><trkpt lat="44.6578237" lon="5.2626478"><ele>528.0</ele><time>2026-04-18T15:23:27.439Z</time></trkpt><trkpt lat="44.6579156" lon="5.2626342"><ele>533.8333333333334</ele><time>2026-04-18T15:23:29.439Z</time></trkpt><trkpt lat="44.6580212" lon="5.2626828"><ele>539.6666666666666</ele><time>2026-04-18T15:23:31.438Z</time></trkpt><trkpt lat="44.6580819" lon="5.2627153"><ele>545.5</ele><time>2026-04-18T15:23:32.439Z</time></trkpt><trkpt lat="44.6581525" lon="5.2627329"><ele>551.3333333333333</ele><time>2026-04-18T15:23:33.438Z</time></trkpt><trkpt lat="44.6582154" lon="5.2627462"><ele>557.1666666666666</ele><time>2026-04-18T15:23:34.439Z</time></trkpt><trkpt lat="44.6582984" lon="5.2627645"><ele>563.0</ele><time>2026-04-18T15:23:35.439Z</time></trkpt><trkpt lat="44.6583809" lon="5.2628473"><ele>563.0</ele><time>2026-04-18T15:23:36.439Z</time></trkpt><trkpt lat="44.6584567" lon="5.2628919"><ele>563.0</ele><time>2026-04-18T15:23:37.438Z</time></trkpt><trkpt lat="44.6585402" lon="5.2629293"><ele>563.0</ele><time>2026-04-18T15:23:38.439Z</time></trkpt><trkpt lat="44.6586108" lon="5.2629596"><ele>563.0</ele><time>2026-04-18T15:23:39.439Z</time></trkpt><trkpt lat="44.6586797" lon="5.2629764"><ele>563.0</ele><time>2026-04-18T15:23:40.438Z</time></trkpt><trkpt lat="44.658785" lon="5.2630156"><ele>563.0</ele><time>2026-04-18T15:23:42.439Z</time></trkpt><trkpt lat="44.658862" lon="5.2630442"><ele>565.4</ele><time>2026-04-18T15:23:43.438Z</time></trkpt><trkpt lat="44.6589626" lon="5.2630613"><ele>567.8</ele><time>2026-04-18T15:23:44.439Z</time></trkpt><trkpt lat="44.6590649" lon="5.2630694"><ele>570.2</ele><time>2026-04-18T15:23:45.439Z</time></trkpt><trkpt lat="44.659167" lon="5.2630744"><ele>572.6</ele><time>2026-04-18T15:23:46.438Z</time></trkpt><trkpt lat="44.6592461" lon="5.2630808"><ele>575.0</ele><time>2026-04-18T15:23:47.439Z</time></trkpt><trkpt lat="44.6593232" lon="5.2630854"><ele>575.0</ele><time>2026-04-18T15:23:48.439Z</time></trkpt><trkpt lat="44.6594106" lon="5.2630857"><ele>575.0</ele><time>2026-04-18T15:23:49.439Z</time></trkpt><trkpt lat="44.6594788" lon="5.2630704"><ele>575.0</ele><time>2026-04-18T15:23:50.438Z</time></trkpt><trkpt lat="44.659567" lon="5.2629593"><ele>575.0</ele><time>2026-04-18T15:23:52.439Z</time></trkpt><trkpt lat="44.6596236" lon="5.2629102"><ele>575.0</ele><time>2026-04-18T15:23:53.439Z</time></trkpt><trkpt lat="44.6596493" lon="5.2627688"><ele>575.0</ele><time>2026-04-18T15:23:55.439Z</time></trkpt><trkpt lat="44.6596654" lon="5.2626734"><ele>574.8571428571429</ele><time>2026-04-18T15:23:56.439Z</time></trkpt><trkpt lat="44.6596829" lon="5.2625819"><ele>574.7142857142857</ele><time>2026-04-18T15:23:57.438Z</time></trkpt><trkpt lat="44.6596927" lon="5.262453"><ele>574.5714285714286</ele><time>2026-04-18T15:23:59.439Z</time></trkpt><trkpt lat="44.6597601" lon="5.2624007"><ele>574.4285714285714</ele><time>2026-04-18T15:24:01.439Z</time></trkpt><trkpt lat="44.6598221" lon="5.2624316"><ele>574.2857142857142</ele><time>2026-04-18T15:24:02.439Z</time></trkpt><trkpt lat="44.6598806" lon="5.262497"><ele>574.1428571428571</ele><time>2026-04-18T15:24:03.439Z</time></trkpt><trkpt lat="44.6599322" lon="5.2625627"><ele>574.0</ele><time>2026-04-18T15:24:04.438Z</time></trkpt><trkpt lat="44.6599842" lon="5.2626213"><ele>574.0</ele><time>2026-04-18T15:24:05.438Z</time></trkpt><trkpt lat="44.6600929" lon="5.2626851"><ele>574.0</ele><time>2026-04-18T15:24:07.438Z</time></trkpt><trkpt lat="44.6601838" lon="5.2627683"><ele>574.0</ele><time>2026-04-18T15:24:09.439Z</time></trkpt><trkpt lat="44.660228" lon="5.262836"><ele>574.0</ele><time>2026-04-18T15:24:10.439Z</time></trkpt><trkpt lat="44.6602668" lon="5.2629189"><ele>574.0</ele><time>2026-04-18T15:24:11.44Z</time></trkpt><trkpt lat="44.6603045" lon="5.2629943"><ele>574.0</ele><time>2026-04-18T15:24:12.44Z</time></trkpt><trkpt lat="44.6603444" lon="5.2631426"><ele>573.5</ele><time>2026-04-18T15:24:14.44Z</time></trkpt><trkpt lat="44.6603674" lon="5.2632492"><ele>573.0</ele><time>2026-04-18T15:24:16.439Z</time></trkpt><trkpt lat="44.6603817" lon="5.2633368"><ele>572.5</ele><time>2026-04-18T15:24:18.439Z</time></trkpt><trkpt lat="44.660449" lon="5.2633701"><ele>572.0</ele><time>2026-04-18T15:24:33.439Z</time></trkpt><trkpt lat="44.6605366" lon="5.2633716"><ele>571.5</ele><time>2026-04-18T15:24:35.438Z</time></trkpt><trkpt lat="44.660668" lon="5.2633549"><ele>571.0</ele><time>2026-04-18T15:24:37.439Z</time></trkpt><trkpt lat="44.6607394" lon="5.263341"><ele>571.0</ele><time>2026-04-18T15:24:38.439Z</time></trkpt><trkpt lat="44.6608108" lon="5.2633377"><ele>571.0</ele><time>2026-04-18T15:24:39.439Z</time></trkpt><trkpt lat="44.6608777" lon="5.2633417"><ele>571.0</ele><time>2026-04-18T15:24:40.44Z</time></trkpt><trkpt lat="44.6609421" lon="5.2633587"><ele>571.0</ele><time>2026-04-18T15:24:41.439Z</time></trkpt><trkpt lat="44.6610107" lon="5.2633707"><ele>571.0</ele><time>2026-04-18T15:24:42.439Z</time></trkpt><trkpt lat="44.6611406" lon="5.2634381"><ele>571.0</ele><time>2026-04-18T15:24:44.439Z</time></trkpt><trkpt lat="44.6611976" lon="5.2634778"><ele>573.2</ele><time>2026-04-18T15:24:45.439Z</time></trkpt><trkpt lat="44.6612663" lon="5.2635158"><ele>575.4000000000001</ele><time>2026-04-18T15:24:46.439Z</time></trkpt><trkpt lat="44.6613866" lon="5.2635823"><ele>577.6</ele><time>2026-04-18T15:24:48.439Z</time></trkpt><trkpt lat="44.6614495" lon="5.2636166"><ele>579.8000000000001</ele><time>2026-04-18T15:24:49.439Z</time></trkpt><trkpt lat="44.6615555" lon="5.2636845"><ele>582.0</ele><time>2026-04-18T15:24:51.439Z</time></trkpt><trkpt lat="44.6616459" lon="5.2637666"><ele>582.0</ele><time>2026-04-18T15:24:53.439Z</time></trkpt><trkpt lat="44.6617377" lon="5.2638582"><ele>582.0</ele><time>2026-04-18T15:24:55.438Z</time></trkpt><trkpt lat="44.6618256" lon="5.263927"><ele>582.0</ele><time>2026-04-18T15:24:57.439Z</time></trkpt><trkpt lat="44.6619247" lon="5.2639854"><ele>582.0</ele><time>2026-04-18T15:24:59.439Z</time></trkpt><trkpt lat="44.6620257" lon="5.2640626"><ele>582.0</ele><time>2026-04-18T15:25:01.44Z</time></trkpt><trkpt lat="44.6621096" lon="5.2641541"><ele>580.4</ele><time>2026-04-18T15:25:03.44Z</time></trkpt><trkpt lat="44.6621941" lon="5.2642032"><ele>578.8000000000001</ele><time>2026-04-18T15:25:05.439Z</time></trkpt><trkpt lat="44.6622984" lon="5.2641733"><ele>577.2</ele><time>2026-04-18T15:25:07.439Z</time></trkpt><trkpt lat="44.6623927" lon="5.2640922"><ele>575.6</ele><time>2026-04-18T15:25:09.439Z</time></trkpt><trkpt lat="44.6624883" lon="5.2640516"><ele>574.0</ele><time>2026-04-18T15:25:11.439Z</time></trkpt><trkpt lat="44.6625901" lon="5.2641267"><ele>574.0</ele><time>2026-04-18T15:25:13.439Z</time></trkpt><trkpt lat="44.6626429" lon="5.2641821"><ele>574.0</ele><time>2026-04-18T15:25:14.439Z</time></trkpt><trkpt lat="44.6627145" lon="5.2642475"><ele>574.0</ele><time>2026-04-18T15:25:15.439Z</time></trkpt><trkpt lat="44.6627702" lon="5.2643226"><ele>574.0</ele><time>2026-04-18T15:25:16.438Z</time></trkpt><trkpt lat="44.6628781" lon="5.2644115"><ele>574.0</ele><time>2026-04-18T15:25:18.439Z</time></trkpt><trkpt lat="44.6629922" lon="5.2644316"><ele>576.5</ele><time>2026-04-18T15:25:20.439Z</time></trkpt><trkpt lat="44.6631199" lon="5.264428"><ele>579.0</ele><time>2026-04-18T15:25:22.438Z</time></trkpt><trkpt lat="44.6632009" lon="5.2643947"><ele>581.5</ele><time>2026-04-18T15:25:23.439Z</time></trkpt><trkpt lat="44.6632773" lon="5.2643672"><ele>584.0</ele><time>2026-04-18T15:25:24.438Z</time></trkpt><trkpt lat="44.6633383" lon="5.2643328"><ele>586.5</ele><time>2026-04-18T15:25:25.439Z</time></trkpt><trkpt lat="44.6633989" lon="5.2642935"><ele>589.0</ele><time>2026-04-18T15:25:26.439Z</time></trkpt><trkpt lat="44.6634952" lon="5.2642659"><ele>589.0</ele><time>2026-04-18T15:25:28.439Z</time></trkpt><trkpt lat="44.6635595" lon="5.2642602"><ele>589.0</ele><time>2026-04-18T15:25:30.439Z</time></trkpt><trkpt lat="44.663635" lon="5.2642485"><ele>589.0</ele><time>2026-04-18T15:25:32.439Z</time></trkpt><trkpt lat="44.663724" lon="5.2642589"><ele>589.0</ele><time>2026-04-18T15:25:34.439Z</time></trkpt><trkpt lat="44.6638264" lon="5.2642843"><ele>589.0</ele><time>2026-04-18T15:25:36.44Z</time></trkpt><trkpt lat="44.6639257" lon="5.2643219"><ele>589.0</ele><time>2026-04-18T15:25:38.439Z</time></trkpt><trkpt lat="44.6639796" lon="5.2643679"><ele>589.0</ele><time>2026-04-18T15:25:39.439Z</time></trkpt><trkpt lat="44.6640531" lon="5.2644981"><ele>589.0</ele><time>2026-04-18T15:25:41.439Z</time></trkpt><trkpt lat="44.6641341" lon="5.2646003"><ele>589.0</ele><time>2026-04-18T15:25:43.438Z</time></trkpt><trkpt lat="44.6642388" lon="5.2646701"><ele>589.0</ele><time>2026-04-18T15:25:45.439Z</time></trkpt><trkpt lat="44.6643009" lon="5.2646951"><ele>589.0</ele><time>2026-04-18T15:25:46.439Z</time></trkpt><trkpt lat="44.6643624" lon="5.264722"><ele>589.0</ele><time>2026-04-18T15:25:47.439Z</time></trkpt><trkpt lat="44.6644353" lon="5.2647426"><ele>589.0</ele><time>2026-04-18T15:25:48.439Z</time></trkpt><trkpt lat="44.6644985" lon="5.2647649"><ele>589.0</ele><time>2026-04-18T15:25:49.439Z</time></trkpt><trkpt lat="44.664611" lon="5.2648095"><ele>589.0</ele><time>2026-04-18T15:25:51.439Z</time></trkpt><trkpt lat="44.6647107" lon="5.2648574"><ele>589.0</ele><time>2026-04-18T15:25:53.439Z</time></trkpt><trkpt lat="44.6648304" lon="5.2648883"><ele>584.4285714285714</ele><time>2026-04-18T15:25:55.439Z</time></trkpt><trkpt lat="44.6648931" lon="5.2649001"><ele>579.8571428571428</ele><time>2026-04-18T15:25:56.439Z</time></trkpt><trkpt lat="44.6649647" lon="5.2649058"><ele>575.2857142857142</ele><time>2026-04-18T15:25:57.439Z</time></trkpt><trkpt lat="44.6650354" lon="5.2649094"><ele>570.7142857142857</ele><time>2026-04-18T15:25:58.44Z</time></trkpt><trkpt lat="44.6651" lon="5.2649036"><ele>566.1428571428571</ele><time>2026-04-18T15:25:59.439Z</time></trkpt><trkpt lat="44.6651646" lon="5.2648866"><ele>561.5714285714286</ele><time>2026-04-18T15:26:00.439Z</time></trkpt><trkpt lat="44.6652282" lon="5.26488"><ele>557.0</ele><time>2026-04-18T15:26:01.439Z</time></trkpt><trkpt lat="44.6652984" lon="5.2648921"><ele>556.0</ele><time>2026-04-18T15:26:02.439Z</time></trkpt><trkpt lat="44.6653767" lon="5.2649173"><ele>555.0</ele><time>2026-04-18T15:26:03.439Z</time></trkpt><trkpt lat="44.665456" lon="5.2649497"><ele>554.0</ele><time>2026-04-18T15:26:04.438Z</time></trkpt><trkpt lat="44.6655358" lon="5.2649644"><ele>553.0</ele><time>2026-04-18T15:26:05.439Z</time></trkpt><trkpt lat="44.6656097" lon="5.264993"><ele>552.0</ele><time>2026-04-18T15:26:06.439Z</time></trkpt><trkpt lat="44.6656855" lon="5.2650305"><ele>551.0</ele><time>2026-04-18T15:26:07.439Z</time></trkpt><trkpt lat="44.665751" lon="5.2650731"><ele>551.0</ele><time>2026-04-18T15:26:08.439Z</time></trkpt><trkpt lat="44.6658162" lon="5.2651173"><ele>551.0</ele><time>2026-04-18T15:26:09.438Z</time></trkpt><trkpt lat="44.6658806" lon="5.2651672"><ele>551.0</ele><time>2026-04-18T15:26:10.438Z</time></trkpt><trkpt lat="44.6659457" lon="5.2652083"><ele>551.0</ele><time>2026-04-18T15:26:11.439Z</time></trkpt><trkpt lat="44.6659984" lon="5.2652658"><ele>551.0</ele><time>2026-04-18T15:26:12.439Z</time></trkpt><trkpt lat="44.6660984" lon="5.2653418"><ele>551.0</ele><time>2026-04-18T15:26:14.439Z</time></trkpt><trkpt lat="44.6661976" lon="5.2653376"><ele>552.2</ele><time>2026-04-18T15:26:16.438Z</time></trkpt><trkpt lat="44.6662704" lon="5.2652334"><ele>553.4000000000001</ele><time>2026-04-18T15:26:18.438Z</time></trkpt><trkpt lat="44.6663325" lon="5.2651022"><ele>554.6</ele><time>2026-04-18T15:26:20.438Z</time></trkpt><trkpt lat="44.6664021" lon="5.2649876"><ele>555.8000000000001</ele><time>2026-04-18T15:26:22.439Z</time></trkpt><trkpt lat="44.6664471" lon="5.2649215"><ele>557.0</ele><time>2026-04-18T15:26:23.438Z</time></trkpt><trkpt lat="44.666513" lon="5.2647779"><ele>557.0</ele><time>2026-04-18T15:26:25.439Z</time></trkpt><trkpt lat="44.6665686" lon="5.264647"><ele>557.0</ele><time>2026-04-18T15:26:27.438Z</time></trkpt><trkpt lat="44.6666719" lon="5.2645734"><ele>557.0</ele><time>2026-04-18T15:26:29.439Z</time></trkpt><trkpt lat="44.6667445" lon="5.2645669"><ele>557.0</ele><time>2026-04-18T15:26:30.439Z</time></trkpt><trkpt lat="44.6668069" lon="5.2645517"><ele>557.0</ele><time>2026-04-18T15:26:31.439Z</time></trkpt><trkpt lat="44.6669149" lon="5.2644973"><ele>553.8000000000001</ele><time>2026-04-18T15:26:33.439Z</time></trkpt><trkpt lat="44.6669988" lon="5.2643997"><ele>550.6</ele><time>2026-04-18T15:26:35.439Z</time></trkpt><trkpt lat="44.6670801" lon="5.2642959"><ele>547.4000000000001</ele><time>2026-04-18T15:26:37.439Z</time></trkpt><trkpt lat="44.6671749" lon="5.2642407"><ele>544.2</ele><time>2026-04-18T15:26:39.439Z</time></trkpt><trkpt lat="44.6672595" lon="5.2642117"><ele>541.0</ele><time>2026-04-18T15:26:41.439Z</time></trkpt><trkpt lat="44.6673539" lon="5.2642143"><ele>541.0</ele><time>2026-04-18T15:26:43.439Z</time></trkpt><trkpt lat="44.6674517" lon="5.2643095"><ele>541.0</ele><time>2026-04-18T15:26:45.438Z</time></trkpt><trkpt lat="44.6675042" lon="5.2643698"><ele>541.0</ele><time>2026-04-18T15:26:46.438Z</time></trkpt><trkpt lat="44.6675479" lon="5.2644574"><ele>541.0</ele><time>2026-04-18T15:26:47.439Z</time></trkpt><trkpt lat="44.6676258" lon="5.2645648"><ele>541.0</ele><time>2026-04-18T15:26:49.438Z</time></trkpt><trkpt lat="44.6677267" lon="5.2646222"><ele>539.0</ele><time>2026-04-18T15:26:51.439Z</time></trkpt><trkpt lat="44.6678439" lon="5.2646213"><ele>537.0</ele><time>2026-04-18T15:26:53.439Z</time></trkpt><trkpt lat="44.667957" lon="5.2646166"><ele>535.0</ele><time>2026-04-18T15:26:55.439Z</time></trkpt><trkpt lat="44.6680627" lon="5.2646534"><ele>533.0</ele><time>2026-04-18T15:26:57.439Z</time></trkpt><trkpt lat="44.6681567" lon="5.2646856"><ele>531.0</ele><time>2026-04-18T15:26:59.438Z</time></trkpt><trkpt lat="44.6682361" lon="5.2646817"><ele>531.0</ele><time>2026-04-18T15:27:01.439Z</time></trkpt><trkpt lat="44.6683004" lon="5.2646291"><ele>531.0</ele><time>2026-04-18T15:27:03.439Z</time></trkpt><trkpt lat="44.6683589" lon="5.2645433"><ele>531.0</ele><time>2026-04-18T15:27:05.439Z</time></trkpt><trkpt lat="44.6684218" lon="5.2644602"><ele>531.0</ele><time>2026-04-18T15:27:07.439Z</time></trkpt><trkpt lat="44.6685133" lon="5.2644191"><ele>531.0</ele><time>2026-04-18T15:27:09.44Z</time></trkpt><trkpt lat="44.6686084" lon="5.264447"><ele>531.0</ele><time>2026-04-18T15:27:11.44Z</time></trkpt><trkpt lat="44.6686978" lon="5.2645337"><ele>531.2</ele><time>2026-04-18T15:27:13.438Z</time></trkpt><trkpt lat="44.6687654" lon="5.2645988"><ele>531.4000000000001</ele><time>2026-04-18T15:27:15.439Z</time></trkpt><trkpt lat="44.6688511" lon="5.2646444"><ele>531.6</ele><time>2026-04-18T15:27:17.439Z</time></trkpt><trkpt lat="44.6689144" lon="5.2646658"><ele>531.8000000000001</ele><time>2026-04-18T15:27:18.439Z</time></trkpt><trkpt lat="44.6690697" lon="5.264651"><ele>532.0</ele><time>2026-04-18T15:27:20.439Z</time></trkpt><trkpt lat="44.6691396" lon="5.2646467"><ele>532.0</ele><time>2026-04-18T15:27:21.438Z</time></trkpt><trkpt lat="44.6692222" lon="5.264652"><ele>532.0</ele><time>2026-04-18T15:27:22.439Z</time></trkpt><trkpt lat="44.6693021" lon="5.264664"><ele>532.0</ele><time>2026-04-18T15:27:23.438Z</time></trkpt><trkpt lat="44.6693774" lon="5.2646573"><ele>532.0</ele><time>2026-04-18T15:27:24.439Z</time></trkpt><trkpt lat="44.6694831" lon="5.264679"><ele>532.0</ele><time>2026-04-18T15:27:26.439Z</time></trkpt><trkpt lat="44.6695906" lon="5.2647437"><ele>525.8333333333334</ele><time>2026-04-18T15:27:28.439Z</time></trkpt><trkpt lat="44.6696851" lon="5.2648374"><ele>519.6666666666667</ele><time>2026-04-18T15:27:30.439Z</time></trkpt><trkpt lat="44.6697382" lon="5.2649"><ele>513.5</ele><time>2026-04-18T15:27:31.44Z</time></trkpt><trkpt lat="44.6697873" lon="5.2649652"><ele>507.33333333333337</ele><time>2026-04-18T15:27:32.439Z</time></trkpt><trkpt lat="44.6698388" lon="5.2650358"><ele>501.1666666666667</ele><time>2026-04-18T15:27:33.439Z</time></trkpt><trkpt lat="44.6698961" lon="5.2650942"><ele>495.0</ele><time>2026-04-18T15:27:34.438Z</time></trkpt><trkpt lat="44.6699597" lon="5.2651444"><ele>495.0</ele><time>2026-04-18T15:27:35.439Z</time></trkpt><trkpt lat="44.6700222" lon="5.2651985"><ele>495.0</ele><time>2026-04-18T15:27:36.438Z</time></trkpt><trkpt lat="44.67009" lon="5.2652542"><ele>495.0</ele><time>2026-04-18T15:27:37.439Z</time></trkpt><trkpt lat="44.6701229" lon="5.2653299"><ele>495.0</ele><time>2026-04-18T15:27:38.439Z</time></trkpt><trkpt lat="44.6702311" lon="5.2654251"><ele>495.0</ele><time>2026-04-18T15:27:40.439Z</time></trkpt><trkpt lat="44.6702997" lon="5.265455"><ele>495.0</ele><time>2026-04-18T15:27:41.439Z</time></trkpt><trkpt lat="44.6703781" lon="5.2654639"><ele>493.42857142857133</ele><time>2026-04-18T15:27:42.439Z</time></trkpt><trkpt lat="44.6704457" lon="5.2654656"><ele>491.85714285714283</ele><time>2026-04-18T15:27:43.439Z</time></trkpt><trkpt lat="44.6705216" lon="5.2654721"><ele>490.2857142857142</ele><time>2026-04-18T15:27:44.438Z</time></trkpt><trkpt lat="44.6705975" lon="5.2654662"><ele>488.71428571428567</ele><time>2026-04-18T15:27:45.439Z</time></trkpt><trkpt lat="44.6706705" lon="5.2654623"><ele>487.1428571428571</ele><time>2026-04-18T15:27:46.439Z</time></trkpt><trkpt lat="44.6707463" lon="5.2654636"><ele>485.57142857142856</ele><time>2026-04-18T15:27:47.439Z</time></trkpt><trkpt lat="44.6708199" lon="5.2654393"><ele>484.0</ele><time>2026-04-18T15:27:48.439Z</time></trkpt><trkpt lat="44.6709008" lon="5.2654186"><ele>484.00000000000006</ele><time>2026-04-18T15:27:49.439Z</time></trkpt><trkpt lat="44.6709761" lon="5.2653995"><ele>484.0</ele><time>2026-04-18T15:27:50.439Z</time></trkpt><trkpt lat="44.6710418" lon="5.2653762"><ele>484.0</ele><time>2026-04-18T15:27:51.439Z</time></trkpt><trkpt lat="44.6711504" lon="5.2653407"><ele>484.0</ele><time>2026-04-18T15:27:53.439Z</time></trkpt><trkpt lat="44.6712654" lon="5.2652751"><ele>484.00000000000006</ele><time>2026-04-18T15:27:55.439Z</time></trkpt><trkpt lat="44.6713194" lon="5.2652295"><ele>484.0</ele><time>2026-04-18T15:27:56.439Z</time></trkpt><trkpt lat="44.6713693" lon="5.2651609"><ele>479.1666666666667</ele><time>2026-04-18T15:27:57.439Z</time></trkpt><trkpt lat="44.671399" lon="5.2650813"><ele>474.33333333333337</ele><time>2026-04-18T15:27:58.439Z</time></trkpt><trkpt lat="44.6714484" lon="5.2650134"><ele>469.5</ele><time>2026-04-18T15:27:59.439Z</time></trkpt><trkpt lat="44.6715484" lon="5.2649161"><ele>464.66666666666663</ele><time>2026-04-18T15:28:01.439Z</time></trkpt><trkpt lat="44.6716146" lon="5.2648901"><ele>459.8333333333333</ele><time>2026-04-18T15:28:02.439Z</time></trkpt><trkpt lat="44.6716797" lon="5.2648653"><ele>455.0</ele><time>2026-04-18T15:28:03.439Z</time></trkpt><trkpt lat="44.6717501" lon="5.2648448"><ele>454.99999999999994</ele><time>2026-04-18T15:28:04.439Z</time></trkpt><trkpt lat="44.6718196" lon="5.2648181"><ele>455.0</ele><time>2026-04-18T15:28:05.439Z</time></trkpt><trkpt lat="44.6718848" lon="5.2647816"><ele>455.0</ele><time>2026-04-18T15:28:06.439Z</time></trkpt><trkpt lat="44.6719399" lon="5.2647333"><ele>455.0</ele><time>2026-04-18T15:28:07.439Z</time></trkpt><trkpt lat="44.6720308" lon="5.2646265"><ele>454.99999999999994</ele><time>2026-04-18T15:28:09.439Z</time></trkpt><trkpt lat="44.6721069" lon="5.2645443"><ele>455.0</ele><time>2026-04-18T15:28:11.439Z</time></trkpt><trkpt lat="44.6721941" lon="5.264517"><ele>455.4</ele><time>2026-04-18T15:28:13.439Z</time></trkpt><trkpt lat="44.6723031" lon="5.2645156"><ele>455.8</ele><time>2026-04-18T15:28:15.44Z</time></trkpt><trkpt lat="44.6724298" lon="5.2644304"><ele>456.20000000000005</ele><time>2026-04-18T15:28:17.439Z</time></trkpt><trkpt lat="44.6725043" lon="5.264347"><ele>456.6</ele><time>2026-04-18T15:28:18.44Z</time></trkpt><trkpt lat="44.6725688" lon="5.2642832"><ele>457.0</ele><time>2026-04-18T15:28:19.438Z</time></trkpt><trkpt lat="44.672644" lon="5.264229"><ele>457.0</ele><time>2026-04-18T15:28:20.438Z</time></trkpt><trkpt lat="44.6727276" lon="5.2641674"><ele>457.00000000000006</ele><time>2026-04-18T15:28:21.439Z</time></trkpt><trkpt lat="44.6728122" lon="5.2640926"><ele>457.00000000000006</ele><time>2026-04-18T15:28:22.438Z</time></trkpt><trkpt lat="44.6728896" lon="5.2640388"><ele>457.0</ele><time>2026-04-18T15:28:23.438Z</time></trkpt><trkpt lat="44.6729783" lon="5.2640005"><ele>457.0</ele><time>2026-04-18T15:28:24.439Z</time></trkpt><trkpt lat="44.6730594" lon="5.263975"><ele>458.6</ele><time>2026-04-18T15:28:25.439Z</time></trkpt><trkpt lat="44.673125" lon="5.263952"><ele>460.20000000000005</ele><time>2026-04-18T15:28:26.438Z</time></trkpt><trkpt lat="44.6732387" lon="5.2638506"><ele>461.8</ele><time>2026-04-18T15:28:28.438Z</time></trkpt><trkpt lat="44.673291" lon="5.2637951"><ele>463.4</ele><time>2026-04-18T15:28:29.438Z</time></trkpt><trkpt lat="44.6733715" lon="5.2637192"><ele>465.0</ele><time>2026-04-18T15:28:30.439Z</time></trkpt><trkpt lat="44.6734615" lon="5.2636649"><ele>465.0</ele><time>2026-04-18T15:28:31.438Z</time></trkpt><trkpt lat="44.6735582" lon="5.263611"><ele>465.0</ele><time>2026-04-18T15:28:32.439Z</time></trkpt><trkpt lat="44.6736523" lon="5.26356"><ele>465.0</ele><time>2026-04-18T15:28:33.439Z</time></trkpt><trkpt lat="44.6737458" lon="5.2634925"><ele>465.0</ele><time>2026-04-18T15:28:34.439Z</time></trkpt><trkpt lat="44.6738406" lon="5.263427"><ele>465.0</ele><time>2026-04-18T15:28:35.439Z</time></trkpt><trkpt lat="44.6739161" lon="5.263344"><ele>462.2</ele><time>2026-04-18T15:28:36.439Z</time></trkpt><trkpt lat="44.6739946" lon="5.263272"><ele>459.4</ele><time>2026-04-18T15:28:37.439Z</time></trkpt><trkpt lat="44.6740671" lon="5.2632084"><ele>456.6</ele><time>2026-04-18T15:28:38.439Z</time></trkpt><trkpt lat="44.6741519" lon="5.2631534"><ele>453.8</ele><time>2026-04-18T15:28:39.439Z</time></trkpt><trkpt lat="44.6742447" lon="5.2631175"><ele>451.0</ele><time>2026-04-18T15:28:40.438Z</time></trkpt><trkpt lat="44.6743479" lon="5.2630848"><ele>453.4</ele><time>2026-04-18T15:28:41.439Z</time></trkpt><trkpt lat="44.6744549" lon="5.2630435"><ele>455.8</ele><time>2026-04-18T15:28:42.438Z</time></trkpt><trkpt lat="44.674559" lon="5.2630006"><ele>458.19999999999993</ele><time>2026-04-18T15:28:43.439Z</time></trkpt><trkpt lat="44.6746683" lon="5.2629599"><ele>460.59999999999997</ele><time>2026-04-18T15:28:44.438Z</time></trkpt><trkpt lat="44.6747789" lon="5.2629197"><ele>463.0</ele><time>2026-04-18T15:28:45.439Z</time></trkpt><trkpt lat="44.6748826" lon="5.262893"><ele>463.00000000000006</ele><time>2026-04-18T15:28:46.439Z</time></trkpt><trkpt lat="44.6749709" lon="5.262868"><ele>463.0</ele><time>2026-04-18T15:28:47.439Z</time></trkpt><trkpt lat="44.6750567" lon="5.2628435"><ele>463.0</ele><time>2026-04-18T15:28:48.439Z</time></trkpt><trkpt lat="44.675141" lon="5.2628149"><ele>463.0</ele><time>2026-04-18T15:28:49.439Z</time></trkpt><trkpt lat="44.6752241" lon="5.2627731"><ele>463.00000000000006</ele><time>2026-04-18T15:28:50.439Z</time></trkpt><trkpt lat="44.6753163" lon="5.2627311"><ele>463.0</ele><time>2026-04-18T15:28:51.439Z</time></trkpt><trkpt lat="44.6754302" lon="5.2626595"><ele>458.79999999999995</ele><time>2026-04-18T15:28:52.439Z</time></trkpt><trkpt lat="44.6755251" lon="5.2625957"><ele>454.59999999999997</ele><time>2026-04-18T15:28:53.438Z</time></trkpt><trkpt lat="44.6756173" lon="5.2625397"><ele>450.40000000000003</ele><time>2026-04-18T15:28:54.439Z</time></trkpt><trkpt lat="44.6757023" lon="5.262481"><ele>446.20000000000005</ele><time>2026-04-18T15:28:55.439Z</time></trkpt><trkpt lat="44.6757952" lon="5.262423"><ele>442.0</ele><time>2026-04-18T15:28:56.439Z</time></trkpt><trkpt lat="44.6758799" lon="5.2623512"><ele>442.00000000000006</ele><time>2026-04-18T15:28:57.439Z</time></trkpt><trkpt lat="44.6759382" lon="5.2623016"><ele>442.0</ele><time>2026-04-18T15:28:58.438Z</time></trkpt><trkpt lat="44.676005" lon="5.2622532"><ele>442.0</ele><time>2026-04-18T15:28:59.439Z</time></trkpt><trkpt lat="44.676069" lon="5.2622093"><ele>442.0</ele><time>2026-04-18T15:29:00.439Z</time></trkpt><trkpt lat="44.6761288" lon="5.2621679"><ele>442.00000000000006</ele><time>2026-04-18T15:29:01.439Z</time></trkpt><trkpt lat="44.6761939" lon="5.2621353"><ele>442.0</ele><time>2026-04-18T15:29:02.439Z</time></trkpt><trkpt lat="44.6763172" lon="5.2620863"><ele>440.0</ele><time>2026-04-18T15:29:04.438Z</time></trkpt><trkpt lat="44.6764345" lon="5.2620895"><ele>438.00000000000006</ele><time>2026-04-18T15:29:06.438Z</time></trkpt><trkpt lat="44.6765556" lon="5.26215"><ele>436.00000000000006</ele><time>2026-04-18T15:29:08.44Z</time></trkpt><trkpt lat="44.6766262" lon="5.262188"><ele>434.0</ele><time>2026-04-18T15:29:09.438Z</time></trkpt><trkpt lat="44.6766846" lon="5.262225"><ele>432.0</ele><time>2026-04-18T15:29:10.439Z</time></trkpt><trkpt lat="44.6767531" lon="5.2622759"><ele>432.3333333333333</ele><time>2026-04-18T15:29:11.439Z</time></trkpt><trkpt lat="44.6768295" lon="5.2623383"><ele>432.66666666666663</ele><time>2026-04-18T15:29:12.439Z</time></trkpt><trkpt lat="44.6769024" lon="5.2624013"><ele>433.0</ele><time>2026-04-18T15:29:13.439Z</time></trkpt><trkpt lat="44.6769748" lon="5.2624604"><ele>433.3333333333333</ele><time>2026-04-18T15:29:14.439Z</time></trkpt><trkpt lat="44.6770446" lon="5.2625165"><ele>433.66666666666663</ele><time>2026-04-18T15:29:15.439Z</time></trkpt><trkpt lat="44.6770996" lon="5.2625722"><ele>434.0</ele><time>2026-04-18T15:29:16.439Z</time></trkpt><trkpt lat="44.6771754" lon="5.26267"><ele>434.0</ele><time>2026-04-18T15:29:18.439Z</time></trkpt><trkpt lat="44.6771876" lon="5.2627837"><ele>434.0</ele><time>2026-04-18T15:29:20.439Z</time></trkpt><trkpt lat="44.6771428" lon="5.2628751"><ele>434.0</ele><time>2026-04-18T15:29:22.439Z</time></trkpt><trkpt lat="44.6770508" lon="5.2629453"><ele>434.0</ele><time>2026-04-18T15:29:24.439Z</time></trkpt><trkpt lat="44.6769488" lon="5.2629703"><ele>434.0</ele><time>2026-04-18T15:29:26.439Z</time></trkpt><trkpt lat="44.676823" lon="5.2629809"><ele>433.99999999999994</ele><time>2026-04-18T15:29:28.439Z</time></trkpt><trkpt lat="44.6767551" lon="5.2629811"><ele>434.0</ele><time>2026-04-18T15:29:29.438Z</time></trkpt><trkpt lat="44.6766835" lon="5.262984"><ele>434.0</ele><time>2026-04-18T15:29:30.439Z</time></trkpt><trkpt lat="44.676607" lon="5.2629786"><ele>434.0</ele><time>2026-04-18T15:29:31.439Z</time></trkpt><trkpt lat="44.6765167" lon="5.2629899"><ele>433.99999999999994</ele><time>2026-04-18T15:29:32.439Z</time></trkpt><trkpt lat="44.6764399" lon="5.2630052"><ele>434.0</ele><time>2026-04-18T15:29:33.439Z</time></trkpt><trkpt lat="44.6763667" lon="5.263025"><ele>434.0</ele><time>2026-04-18T15:29:34.439Z</time></trkpt><trkpt lat="44.6762892" lon="5.2630326"><ele>434.0</ele><time>2026-04-18T15:29:35.44Z</time></trkpt><trkpt lat="44.6762165" lon="5.263043"><ele>434.0</ele><time>2026-04-18T15:29:36.438Z</time></trkpt><trkpt lat="44.6761525" lon="5.2630907"><ele>434.0</ele><time>2026-04-18T15:29:37.439Z</time></trkpt><trkpt lat="44.6760932" lon="5.2631257"><ele>434.0</ele><time>2026-04-18T15:29:38.439Z</time></trkpt><trkpt lat="44.6760335" lon="5.2631661"><ele>434.0</ele><time>2026-04-18T15:29:39.439Z</time></trkpt><trkpt lat="44.6759697" lon="5.2632327"><ele>434.0</ele><time>2026-04-18T15:29:40.439Z</time></trkpt><trkpt lat="44.6759107" lon="5.2632939"><ele>430.3333333333333</ele><time>2026-04-18T15:29:41.439Z</time></trkpt><trkpt lat="44.6758478" lon="5.2633615"><ele>426.66666666666663</ele><time>2026-04-18T15:29:42.439Z</time></trkpt><trkpt lat="44.6757911" lon="5.2634314"><ele>423.0</ele><time>2026-04-18T15:29:43.439Z</time></trkpt><trkpt lat="44.6757331" lon="5.2634919"><ele>419.33333333333337</ele><time>2026-04-18T15:29:44.438Z</time></trkpt><trkpt lat="44.6756608" lon="5.2635488"><ele>415.6666666666667</ele><time>2026-04-18T15:29:45.439Z</time></trkpt><trkpt lat="44.6756088" lon="5.2636145"><ele>412.0</ele><time>2026-04-18T15:29:46.439Z</time></trkpt><trkpt lat="44.6755246" lon="5.2637388"><ele>412.00000000000006</ele><time>2026-04-18T15:29:48.439Z</time></trkpt><trkpt lat="44.6754772" lon="5.2638018"><ele>412.0</ele><time>2026-04-18T15:29:49.439Z</time></trkpt><trkpt lat="44.6754096" lon="5.2638901"><ele>412.0</ele><time>2026-04-18T15:29:51.439Z</time></trkpt><trkpt lat="44.6752781" lon="5.2639387"><ele>412.0</ele><time>2026-04-18T15:29:53.439Z</time></trkpt><trkpt lat="44.675201" lon="5.2639504"><ele>412.00000000000006</ele><time>2026-04-18T15:29:54.439Z</time></trkpt><trkpt lat="44.6751258" lon="5.2639623"><ele>412.0</ele><time>2026-04-18T15:29:55.439Z</time></trkpt><trkpt lat="44.6750565" lon="5.2639876"><ele>409.33333333333337</ele><time>2026-04-18T15:29:56.439Z</time></trkpt><trkpt lat="44.6749886" lon="5.264032"><ele>406.6666666666667</ele><time>2026-04-18T15:29:57.438Z</time></trkpt><trkpt lat="44.6749143" lon="5.264091"><ele>404.0</ele><time>2026-04-18T15:29:58.439Z</time></trkpt><trkpt lat="44.6748357" lon="5.2641728"><ele>401.33333333333337</ele><time>2026-04-18T15:29:59.439Z</time></trkpt><trkpt lat="44.6747659" lon="5.2642434"><ele>398.6666666666667</ele><time>2026-04-18T15:30:00.439Z</time></trkpt><trkpt lat="44.6747013" lon="5.2643167"><ele>396.0</ele><time>2026-04-18T15:30:01.439Z</time></trkpt><trkpt lat="44.6746454" lon="5.2643709"><ele>396.0</ele><time>2026-04-18T15:30:02.439Z</time></trkpt><trkpt lat="44.6745903" lon="5.2644271"><ele>396.0</ele><time>2026-04-18T15:30:03.439Z</time></trkpt><trkpt lat="44.674514" lon="5.2644973"><ele>396.0</ele><time>2026-04-18T15:30:04.439Z</time></trkpt><trkpt lat="44.6744573" lon="5.2645812"><ele>396.0</ele><time>2026-04-18T15:30:05.439Z</time></trkpt><trkpt lat="44.6744237" lon="5.2646991"><ele>396.0</ele><time>2026-04-18T15:30:06.439Z</time></trkpt><trkpt lat="44.6743941" lon="5.2648694"><ele>395.0</ele><time>2026-04-18T15:30:08.439Z</time></trkpt><trkpt lat="44.674361" lon="5.2650212"><ele>394.0</ele><time>2026-04-18T15:30:10.439Z</time></trkpt><trkpt lat="44.6742864" lon="5.2651097"><ele>393.0</ele><time>2026-04-18T15:30:12.439Z</time></trkpt><trkpt lat="44.674223" lon="5.265156"><ele>392.0</ele><time>2026-04-18T15:30:14.439Z</time></trkpt><trkpt lat="44.6741602" lon="5.2651826"><ele>391.0</ele><time>2026-04-18T15:30:16.439Z</time></trkpt><trkpt lat="44.6740824" lon="5.2651955"><ele>390.0</ele><time>2026-04-18T15:31:54.439Z</time></trkpt><trkpt lat="44.6740062" lon="5.2652096"><ele>390.0</ele><time>2026-04-18T15:31:57.439Z</time></trkpt><trkpt lat="44.6739417" lon="5.2652551"><ele>390.0</ele><time>2026-04-18T15:31:59.438Z</time></trkpt><trkpt lat="44.6739176" lon="5.2653549"><ele>390.0</ele><time>2026-04-18T15:32:02.439Z</time></trkpt><trkpt lat="44.6739988" lon="5.2654017"><ele>390.0</ele><time>2026-04-18T15:32:07.438Z</time></trkpt><trkpt lat="44.6740614" lon="5.2653789"><ele>390.0</ele><time>2026-04-18T15:32:08.438Z</time></trkpt><trkpt lat="44.6741281" lon="5.2653529"><ele>390.0</ele><time>2026-04-18T15:32:09.437Z</time></trkpt><trkpt lat="44.6742068" lon="5.2653281"><ele>390.0</ele><time>2026-04-18T15:32:10.438Z</time></trkpt><trkpt lat="44.6742927" lon="5.2652995"><ele>390.0</ele><time>2026-04-18T15:32:11.437Z</time></trkpt><trkpt lat="44.6743722" lon="5.2652464"><ele>390.0</ele><time>2026-04-18T15:32:12.438Z</time></trkpt><trkpt lat="44.6744483" lon="5.2651541"><ele>390.0</ele><time>2026-04-18T15:32:13.438Z</time></trkpt><trkpt lat="44.6745073" lon="5.2650399"><ele>390.0</ele><time>2026-04-18T15:32:14.438Z</time></trkpt><trkpt lat="44.6745595" lon="5.264925"><ele>390.0</ele><time>2026-04-18T15:32:15.438Z</time></trkpt><trkpt lat="44.674613" lon="5.2648215"><ele>391.2</ele><time>2026-04-18T15:32:16.438Z</time></trkpt><trkpt lat="44.674676" lon="5.2647352"><ele>392.4</ele><time>2026-04-18T15:32:17.438Z</time></trkpt><trkpt lat="44.6747528" lon="5.2646564"><ele>393.6</ele><time>2026-04-18T15:32:18.438Z</time></trkpt><trkpt lat="44.6748415" lon="5.2645858"><ele>394.8</ele><time>2026-04-18T15:32:19.438Z</time></trkpt><trkpt lat="44.6749399" lon="5.2645302"><ele>396.0</ele><time>2026-04-18T15:32:20.437Z</time></trkpt><trkpt lat="44.6750553" lon="5.2644873"><ele>396.0</ele><time>2026-04-18T15:32:21.437Z</time></trkpt><trkpt lat="44.6751731" lon="5.2644515"><ele>396.0</ele><time>2026-04-18T15:32:22.438Z</time></trkpt><trkpt lat="44.6752917" lon="5.2644144"><ele>396.0</ele><time>2026-04-18T15:32:23.438Z</time></trkpt><trkpt lat="44.675402" lon="5.264358"><ele>396.0</ele><time>2026-04-18T15:32:24.438Z</time></trkpt><trkpt lat="44.6755165" lon="5.2642751"><ele>390.0</ele><time>2026-04-18T15:32:25.437Z</time></trkpt><trkpt lat="44.6756273" lon="5.2641921"><ele>384.0</ele><time>2026-04-18T15:32:26.438Z</time></trkpt><trkpt lat="44.6757395" lon="5.2640985"><ele>378.0</ele><time>2026-04-18T15:32:27.438Z</time></trkpt><trkpt lat="44.675857" lon="5.2640132"><ele>372.0</ele><time>2026-04-18T15:32:28.438Z</time></trkpt><trkpt lat="44.6759783" lon="5.2639521"><ele>380.5</ele><time>2026-04-18T15:32:29.438Z</time></trkpt><trkpt lat="44.6761048" lon="5.2639068"><ele>389.0</ele><time>2026-04-18T15:32:30.438Z</time></trkpt><trkpt lat="44.676237" lon="5.2638735"><ele>397.5</ele><time>2026-04-18T15:32:31.439Z</time></trkpt><trkpt lat="44.676368" lon="5.2638583"><ele>406.0</ele><time>2026-04-18T15:32:32.438Z</time></trkpt><trkpt lat="44.6764983" lon="5.2638467"><ele>406.0</ele><time>2026-04-18T15:32:33.438Z</time></trkpt><trkpt lat="44.676634" lon="5.2638517"><ele>406.0</ele><time>2026-04-18T15:32:34.438Z</time></trkpt><trkpt lat="44.6767798" lon="5.2638856"><ele>406.0</ele><time>2026-04-18T15:32:35.438Z</time></trkpt><trkpt lat="44.6769436" lon="5.2639264"><ele>395.6666666666667</ele><time>2026-04-18T15:32:36.438Z</time></trkpt><trkpt lat="44.6771071" lon="5.2639536"><ele>385.33333333333337</ele><time>2026-04-18T15:32:37.438Z</time></trkpt><trkpt lat="44.6772668" lon="5.2639798"><ele>375.0</ele><time>2026-04-18T15:32:38.438Z</time></trkpt><trkpt lat="44.6774219" lon="5.2640064"><ele>375.0</ele><time>2026-04-18T15:32:39.438Z</time></trkpt><trkpt lat="44.6775759" lon="5.2640808"><ele>375.0</ele><time>2026-04-18T15:32:40.438Z</time></trkpt><trkpt lat="44.6777239" lon="5.2641344"><ele>375.0</ele><time>2026-04-18T15:32:41.438Z</time></trkpt><trkpt lat="44.6778435" lon="5.2641842"><ele>375.0</ele><time>2026-04-18T15:32:42.438Z</time></trkpt><trkpt lat="44.6779476" lon="5.2642342"><ele>373.8333333333333</ele><time>2026-04-18T15:32:43.438Z</time></trkpt><trkpt lat="44.6780332" lon="5.264274"><ele>372.6666666666667</ele><time>2026-04-18T15:32:44.437Z</time></trkpt><trkpt lat="44.6781243" lon="5.2643133"><ele>371.5</ele><time>2026-04-18T15:32:45.438Z</time></trkpt><trkpt lat="44.6781928" lon="5.2642731"><ele>370.33333333333337</ele><time>2026-04-18T15:32:46.438Z</time></trkpt><trkpt lat="44.6782518" lon="5.2642083"><ele>369.1666666666667</ele><time>2026-04-18T15:32:47.438Z</time></trkpt><trkpt lat="44.678285" lon="5.2641045"><ele>368.0</ele><time>2026-04-18T15:32:48.438Z</time></trkpt><trkpt lat="44.6782886" lon="5.2639544"><ele>370.5</ele><time>2026-04-18T15:32:49.438Z</time></trkpt><trkpt lat="44.6782866" lon="5.2637785"><ele>373.0</ele><time>2026-04-18T15:32:50.438Z</time></trkpt><trkpt lat="44.6782837" lon="5.2635815"><ele>375.5</ele><time>2026-04-18T15:32:51.438Z</time></trkpt><trkpt lat="44.6782765" lon="5.2633758"><ele>378.0</ele><time>2026-04-18T15:32:52.437Z</time></trkpt><trkpt lat="44.6782697" lon="5.2631793"><ele>377.75</ele><time>2026-04-18T15:32:53.438Z</time></trkpt><trkpt lat="44.6782799" lon="5.2629904"><ele>377.5</ele><time>2026-04-18T15:32:54.438Z</time></trkpt><trkpt lat="44.6783175" lon="5.262816"><ele>377.25</ele><time>2026-04-18T15:32:55.438Z</time></trkpt><trkpt lat="44.6783585" lon="5.2626365"><ele>377.0</ele><time>2026-04-18T15:32:56.438Z</time></trkpt><trkpt lat="44.6783927" lon="5.2624603"><ele>375.75</ele><time>2026-04-18T15:32:57.438Z</time></trkpt><trkpt lat="44.6784062" lon="5.2622574"><ele>374.5</ele><time>2026-04-18T15:32:58.438Z</time></trkpt><trkpt lat="44.6784091" lon="5.2620355"><ele>373.25</ele><time>2026-04-18T15:32:59.438Z</time></trkpt><trkpt lat="44.6784129" lon="5.26183"><ele>372.0</ele><time>2026-04-18T15:33:00.438Z</time></trkpt><trkpt lat="44.678409" lon="5.2616287"><ele>369.25</ele><time>2026-04-18T15:33:01.438Z</time></trkpt><trkpt lat="44.6784" lon="5.2614391"><ele>366.5</ele><time>2026-04-18T15:33:02.438Z</time></trkpt><trkpt lat="44.6783861" lon="5.261263"><ele>363.75</ele><time>2026-04-18T15:33:03.437Z</time></trkpt><trkpt lat="44.6783654" lon="5.2610997"><ele>361.0</ele><time>2026-04-18T15:33:04.438Z</time></trkpt><trkpt lat="44.6783262" lon="5.2609384"><ele>361.0</ele><time>2026-04-18T15:33:05.438Z</time></trkpt><trkpt lat="44.6782687" lon="5.2607994"><ele>361.0</ele><time>2026-04-18T15:33:06.438Z</time></trkpt><trkpt lat="44.6782114" lon="5.2606719"><ele>361.0</ele><time>2026-04-18T15:33:07.438Z</time></trkpt><trkpt lat="44.6781627" lon="5.260541"><ele>361.0</ele><time>2026-04-18T15:33:08.438Z</time></trkpt><trkpt lat="44.6781237" lon="5.2603902"><ele>361.0</ele><time>2026-04-18T15:33:09.438Z</time></trkpt><trkpt lat="44.6781034" lon="5.2602253"><ele>360.6</ele><time>2026-04-18T15:33:10.438Z</time></trkpt><trkpt lat="44.6781051" lon="5.2600633"><ele>360.20000000000005</ele><time>2026-04-18T15:33:11.438Z</time></trkpt><trkpt lat="44.6781291" lon="5.2599066"><ele>359.79999999999995</ele><time>2026-04-18T15:33:12.438Z</time></trkpt><trkpt lat="44.678169" lon="5.2597626"><ele>359.4</ele><time>2026-04-18T15:33:13.439Z</time></trkpt><trkpt lat="44.6782231" lon="5.2596301"><ele>359.0</ele><time>2026-04-18T15:33:14.438Z</time></trkpt><trkpt lat="44.6782929" lon="5.2595177"><ele>359.79999999999995</ele><time>2026-04-18T15:33:15.438Z</time></trkpt><trkpt lat="44.6783885" lon="5.259448"><ele>360.59999999999997</ele><time>2026-04-18T15:33:16.438Z</time></trkpt><trkpt lat="44.6784884" lon="5.2594153"><ele>361.4</ele><time>2026-04-18T15:33:17.438Z</time></trkpt><trkpt lat="44.6785839" lon="5.259379"><ele>362.2</ele><time>2026-04-18T15:33:18.437Z</time></trkpt><trkpt lat="44.6786732" lon="5.2594279"><ele>363.0</ele><time>2026-04-18T15:33:19.437Z</time></trkpt><trkpt lat="44.6788123" lon="5.2595098"><ele>361.0</ele><time>2026-04-18T15:33:20.438Z</time></trkpt><trkpt lat="44.6789308" lon="5.2596807"><ele>359.0</ele><time>2026-04-18T15:33:21.438Z</time></trkpt><trkpt lat="44.6790569" lon="5.2597986"><ele>357.0</ele><time>2026-04-18T15:33:22.438Z</time></trkpt><trkpt lat="44.6791857" lon="5.2599146"><ele>357.0</ele><time>2026-04-18T15:33:23.438Z</time></trkpt><trkpt lat="44.6793254" lon="5.2600363"><ele>357.0</ele><time>2026-04-18T15:33:24.437Z</time></trkpt><trkpt lat="44.6794468" lon="5.2601413"><ele>357.0</ele><time>2026-04-18T15:33:25.438Z</time></trkpt><trkpt lat="44.6795509" lon="5.2602296"><ele>357.0</ele><time>2026-04-18T15:33:26.438Z</time></trkpt><trkpt lat="44.6796463" lon="5.2603074"><ele>358.0</ele><time>2026-04-18T15:33:27.437Z</time></trkpt><trkpt lat="44.6797618" lon="5.2603417"><ele>359.0</ele><time>2026-04-18T15:33:28.438Z</time></trkpt><trkpt lat="44.6798868" lon="5.2603257"><ele>360.0</ele><time>2026-04-18T15:33:29.438Z</time></trkpt><trkpt lat="44.6800172" lon="5.2602945"><ele>361.0</ele><time>2026-04-18T15:33:30.437Z</time></trkpt><trkpt lat="44.6801682" lon="5.260211"><ele>356.3333333333333</ele><time>2026-04-18T15:33:31.438Z</time></trkpt><trkpt lat="44.6803246" lon="5.2601303"><ele>351.6666666666667</ele><time>2026-04-18T15:33:32.438Z</time></trkpt><trkpt lat="44.6804836" lon="5.2600609"><ele>347.0</ele><time>2026-04-18T15:33:33.438Z</time></trkpt><trkpt lat="44.6806307" lon="5.2599955"><ele>347.0</ele><time>2026-04-18T15:33:34.438Z</time></trkpt><trkpt lat="44.6807672" lon="5.2599345"><ele>347.0</ele><time>2026-04-18T15:33:35.438Z</time></trkpt><trkpt lat="44.6808925" lon="5.2598736"><ele>347.0</ele><time>2026-04-18T15:33:36.438Z</time></trkpt><trkpt lat="44.6809996" lon="5.2597871"><ele>347.0</ele><time>2026-04-18T15:33:37.438Z</time></trkpt><trkpt lat="44.6810929" lon="5.2596563"><ele>348.0</ele><time>2026-04-18T15:33:38.437Z</time></trkpt><trkpt lat="44.6811786" lon="5.2595132"><ele>349.0</ele><time>2026-04-18T15:33:39.437Z</time></trkpt><trkpt lat="44.6812635" lon="5.2593744"><ele>350.0</ele><time>2026-04-18T15:33:40.438Z</time></trkpt><trkpt lat="44.6813377" lon="5.2592538"><ele>351.0</ele><time>2026-04-18T15:33:41.438Z</time></trkpt><trkpt lat="44.6814043" lon="5.2591575"><ele>351.0</ele><time>2026-04-18T15:33:42.438Z</time></trkpt><trkpt lat="44.6814755" lon="5.2590758"><ele>351.0</ele><time>2026-04-18T15:33:43.437Z</time></trkpt><trkpt lat="44.6815636" lon="5.2590389"><ele>351.0</ele><time>2026-04-18T15:33:44.438Z</time></trkpt><trkpt lat="44.681653" lon="5.2590681"><ele>351.0</ele><time>2026-04-18T15:33:45.438Z</time></trkpt><trkpt lat="44.6817501" lon="5.2590945"><ele>351.0</ele><time>2026-04-18T15:33:46.437Z</time></trkpt><trkpt lat="44.6818203" lon="5.2592201"><ele>351.0</ele><time>2026-04-18T15:33:47.437Z</time></trkpt><trkpt lat="44.681911" lon="5.2592766"><ele>351.0</ele><time>2026-04-18T15:33:48.438Z</time></trkpt><trkpt lat="44.6819848" lon="5.2593335"><ele>351.0</ele><time>2026-04-18T15:33:49.439Z</time></trkpt><trkpt lat="44.6820772" lon="5.2593675"><ele>351.0</ele><time>2026-04-18T15:33:50.438Z</time></trkpt><trkpt lat="44.6821776" lon="5.2593702"><ele>351.0</ele><time>2026-04-18T15:33:51.438Z</time></trkpt><trkpt lat="44.6822685" lon="5.259334"><ele>350.25</ele><time>2026-04-18T15:33:52.437Z</time></trkpt><trkpt lat="44.6823686" lon="5.2593022"><ele>349.5</ele><time>2026-04-18T15:33:53.438Z</time></trkpt><trkpt lat="44.682462" lon="5.2591911"><ele>348.75</ele><time>2026-04-18T15:33:54.438Z</time></trkpt><trkpt lat="44.6825545" lon="5.2590945"><ele>348.0</ele><time>2026-04-18T15:33:55.438Z</time></trkpt><trkpt lat="44.682656" lon="5.2589775"><ele>348.0</ele><time>2026-04-18T15:33:56.438Z</time></trkpt><trkpt lat="44.6827558" lon="5.2588644"><ele>348.0</ele><time>2026-04-18T15:33:57.438Z</time></trkpt><trkpt lat="44.6828599" lon="5.2587693"><ele>348.0</ele><time>2026-04-18T15:33:58.438Z</time></trkpt><trkpt lat="44.6829652" lon="5.2586696"><ele>348.0</ele><time>2026-04-18T15:33:59.438Z</time></trkpt><trkpt lat="44.6830764" lon="5.2585924"><ele>348.0</ele><time>2026-04-18T15:34:00.437Z</time></trkpt><trkpt lat="44.683182" lon="5.2585124"><ele>348.0</ele><time>2026-04-18T15:34:01.438Z</time></trkpt><trkpt lat="44.6832788" lon="5.2584049"><ele>348.0</ele><time>2026-04-18T15:34:02.438Z</time></trkpt><trkpt lat="44.6833671" lon="5.2582932"><ele>348.0</ele><time>2026-04-18T15:34:03.438Z</time></trkpt><trkpt lat="44.6834446" lon="5.2581807"><ele>354.25</ele><time>2026-04-18T15:34:04.438Z</time></trkpt><trkpt lat="44.6835212" lon="5.2580799"><ele>360.5</ele><time>2026-04-18T15:34:05.438Z</time></trkpt><trkpt lat="44.6836238" lon="5.2580281"><ele>366.75</ele><time>2026-04-18T15:34:06.438Z</time></trkpt><trkpt lat="44.683731" lon="5.2580006"><ele>373.0</ele><time>2026-04-18T15:34:07.438Z</time></trkpt><trkpt lat="44.6838582" lon="5.2579853"><ele>373.0</ele><time>2026-04-18T15:34:08.438Z</time></trkpt><trkpt lat="44.6840031" lon="5.257976"><ele>373.0</ele><time>2026-04-18T15:34:09.438Z</time></trkpt><trkpt lat="44.6841386" lon="5.2579581"><ele>373.0</ele><time>2026-04-18T15:34:10.438Z</time></trkpt><trkpt lat="44.6842683" lon="5.2579387"><ele>373.0</ele><time>2026-04-18T15:34:11.438Z</time></trkpt><trkpt lat="44.6843912" lon="5.2579391"><ele>374.0</ele><time>2026-04-18T15:34:12.438Z</time></trkpt><trkpt lat="44.6845242" lon="5.2579621"><ele>375.0</ele><time>2026-04-18T15:34:13.438Z</time></trkpt><trkpt lat="44.6846574" lon="5.2579961"><ele>376.0</ele><time>2026-04-18T15:34:14.438Z</time></trkpt><trkpt lat="44.6847993" lon="5.2580261"><ele>377.0</ele><time>2026-04-18T15:34:15.438Z</time></trkpt><trkpt lat="44.6849586" lon="5.2580279"><ele>377.0</ele><time>2026-04-18T15:34:16.438Z</time></trkpt><trkpt lat="44.6851165" lon="5.2580292"><ele>377.0</ele><time>2026-04-18T15:34:17.438Z</time></trkpt><trkpt lat="44.6852584" lon="5.2580178"><ele>377.0</ele><time>2026-04-18T15:34:18.438Z</time></trkpt><trkpt lat="44.6853917" lon="5.2580015"><ele>377.0</ele><time>2026-04-18T15:34:19.438Z</time></trkpt><trkpt lat="44.685536" lon="5.2580097"><ele>378.33333333333337</ele><time>2026-04-18T15:34:20.438Z</time></trkpt><trkpt lat="44.6856881" lon="5.2580352"><ele>379.6666666666667</ele><time>2026-04-18T15:34:21.438Z</time></trkpt><trkpt lat="44.6858523" lon="5.2580784"><ele>381.0</ele><time>2026-04-18T15:34:22.438Z</time></trkpt><trkpt lat="44.6860221" lon="5.2581315"><ele>372.0</ele><time>2026-04-18T15:34:23.438Z</time></trkpt><trkpt lat="44.6861984" lon="5.2581991"><ele>363.0</ele><time>2026-04-18T15:34:24.438Z</time></trkpt><trkpt lat="44.6863692" lon="5.2582759"><ele>354.0</ele><time>2026-04-18T15:34:25.438Z</time></trkpt><trkpt lat="44.6865332" lon="5.2583432"><ele>354.0</ele><time>2026-04-18T15:34:26.438Z</time></trkpt><trkpt lat="44.6866816" lon="5.2584064"><ele>354.0</ele><time>2026-04-18T15:34:27.438Z</time></trkpt><trkpt lat="44.6868247" lon="5.258476"><ele>354.0</ele><time>2026-04-18T15:34:28.438Z</time></trkpt><trkpt lat="44.68696" lon="5.2585444"><ele>350.0</ele><time>2026-04-18T15:34:29.437Z</time></trkpt><trkpt lat="44.6870923" lon="5.2586169"><ele>346.0</ele><time>2026-04-18T15:34:30.438Z</time></trkpt><trkpt lat="44.6872221" lon="5.258716"><ele>342.0</ele><time>2026-04-18T15:34:31.438Z</time></trkpt><trkpt lat="44.6873503" lon="5.2588213"><ele>338.0</ele><time>2026-04-18T15:34:32.437Z</time></trkpt><trkpt lat="44.6874662" lon="5.2589593"><ele>338.0</ele><time>2026-04-18T15:34:33.438Z</time></trkpt><trkpt lat="44.6875429" lon="5.2591433"><ele>338.0</ele><time>2026-04-18T15:34:34.438Z</time></trkpt><trkpt lat="44.6876044" lon="5.259317"><ele>338.0</ele><time>2026-04-18T15:34:35.438Z</time></trkpt><trkpt lat="44.6876981" lon="5.2594571"><ele>338.0</ele><time>2026-04-18T15:34:36.438Z</time></trkpt><trkpt lat="44.6878172" lon="5.2595654"><ele>334.75</ele><time>2026-04-18T15:34:37.438Z</time></trkpt><trkpt lat="44.6879438" lon="5.2596582"><ele>331.5</ele><time>2026-04-18T15:34:38.437Z</time></trkpt><trkpt lat="44.6880754" lon="5.2597345"><ele>328.25</ele><time>2026-04-18T15:34:39.438Z</time></trkpt><trkpt lat="44.6882296" lon="5.2597905"><ele>325.0</ele><time>2026-04-18T15:34:40.438Z</time></trkpt><trkpt lat="44.6883819" lon="5.2598415"><ele>325.0</ele><time>2026-04-18T15:34:41.438Z</time></trkpt><trkpt lat="44.6885439" lon="5.2598582"><ele>325.0</ele><time>2026-04-18T15:34:42.437Z</time></trkpt><trkpt lat="44.6887032" lon="5.2598976"><ele>325.0</ele><time>2026-04-18T15:34:43.438Z</time></trkpt><trkpt lat="44.6888474" lon="5.2599439"><ele>326.0</ele><time>2026-04-18T15:34:44.438Z</time></trkpt><trkpt lat="44.6889909" lon="5.259988"><ele>327.0</ele><time>2026-04-18T15:34:45.438Z</time></trkpt><trkpt lat="44.689137" lon="5.2600364"><ele>328.0</ele><time>2026-04-18T15:34:46.437Z</time></trkpt><trkpt lat="44.6892711" lon="5.2600766"><ele>329.0</ele><time>2026-04-18T15:34:47.437Z</time></trkpt><trkpt lat="44.6894231" lon="5.2601087"><ele>328.0</ele><time>2026-04-18T15:34:48.438Z</time></trkpt><trkpt lat="44.6895751" lon="5.2601126"><ele>327.0</ele><time>2026-04-18T15:34:49.437Z</time></trkpt><trkpt lat="44.6897256" lon="5.2600927"><ele>326.0</ele><time>2026-04-18T15:34:50.438Z</time></trkpt><trkpt lat="44.689873" lon="5.2600455"><ele>326.0</ele><time>2026-04-18T15:34:51.438Z</time></trkpt><trkpt lat="44.690019" lon="5.2599985"><ele>326.0</ele><time>2026-04-18T15:34:52.438Z</time></trkpt><trkpt lat="44.6901625" lon="5.2599836"><ele>326.0</ele><time>2026-04-18T15:34:53.438Z</time></trkpt><trkpt lat="44.690312" lon="5.2599813"><ele>326.0</ele><time>2026-04-18T15:34:54.437Z</time></trkpt><trkpt lat="44.6904531" lon="5.2599635"><ele>322.33333333333337</ele><time>2026-04-18T15:34:55.438Z</time></trkpt><trkpt lat="44.6905984" lon="5.2599103"><ele>318.6666666666667</ele><time>2026-04-18T15:34:56.438Z</time></trkpt><trkpt lat="44.6907522" lon="5.2598341"><ele>315.0</ele><time>2026-04-18T15:34:57.438Z</time></trkpt><trkpt lat="44.6909147" lon="5.2597538"><ele>321.0</ele><time>2026-04-18T15:34:58.438Z</time></trkpt><trkpt lat="44.6910766" lon="5.2596807"><ele>327.0</ele><time>2026-04-18T15:34:59.438Z</time></trkpt><trkpt lat="44.6912332" lon="5.2596086"><ele>333.0</ele><time>2026-04-18T15:35:00.438Z</time></trkpt><trkpt lat="44.6913921" lon="5.2595429"><ele>333.0</ele><time>2026-04-18T15:35:01.438Z</time></trkpt><trkpt lat="44.6915507" lon="5.2594721"><ele>333.0</ele><time>2026-04-18T15:35:02.438Z</time></trkpt><trkpt lat="44.6916974" lon="5.2593904"><ele>333.0</ele><time>2026-04-18T15:35:03.438Z</time></trkpt><trkpt lat="44.691843" lon="5.2593057"><ele>328.75</ele><time>2026-04-18T15:35:04.437Z</time></trkpt><trkpt lat="44.6919887" lon="5.2592276"><ele>324.5</ele><time>2026-04-18T15:35:05.438Z</time></trkpt><trkpt lat="44.6921346" lon="5.259168"><ele>320.25</ele><time>2026-04-18T15:35:06.438Z</time></trkpt><trkpt lat="44.6922642" lon="5.2591501"><ele>316.0</ele><time>2026-04-18T15:35:07.438Z</time></trkpt><trkpt lat="44.6923925" lon="5.2591615"><ele>316.0</ele><time>2026-04-18T15:35:08.438Z</time></trkpt><trkpt lat="44.692518" lon="5.2592129"><ele>316.0</ele><time>2026-04-18T15:35:09.438Z</time></trkpt><trkpt lat="44.6926365" lon="5.2592772"><ele>316.0</ele><time>2026-04-18T15:35:10.439Z</time></trkpt><trkpt lat="44.6927623" lon="5.2593283"><ele>316.0</ele><time>2026-04-18T15:35:11.438Z</time></trkpt><trkpt lat="44.6929035" lon="5.2593401"><ele>315.0</ele><time>2026-04-18T15:35:12.437Z</time></trkpt><trkpt lat="44.6930557" lon="5.2593223"><ele>314.0</ele><time>2026-04-18T15:35:13.438Z</time></trkpt><trkpt lat="44.6931943" lon="5.2592989"><ele>313.0</ele><time>2026-04-18T15:35:14.438Z</time></trkpt><trkpt lat="44.6933267" lon="5.259273"><ele>312.0</ele><time>2026-04-18T15:35:15.438Z</time></trkpt><trkpt lat="44.6934537" lon="5.2592423"><ele>312.0</ele><time>2026-04-18T15:35:16.438Z</time></trkpt><trkpt lat="44.6935743" lon="5.2591838"><ele>312.0</ele><time>2026-04-18T15:35:17.438Z</time></trkpt><trkpt lat="44.6936939" lon="5.2591108"><ele>312.0</ele><time>2026-04-18T15:35:18.438Z</time></trkpt><trkpt lat="44.6938143" lon="5.2590246"><ele>312.0</ele><time>2026-04-18T15:35:19.438Z</time></trkpt><trkpt lat="44.6939377" lon="5.2589157"><ele>311.25</ele><time>2026-04-18T15:35:20.438Z</time></trkpt><trkpt lat="44.694056" lon="5.2587916"><ele>310.5</ele><time>2026-04-18T15:35:21.437Z</time></trkpt><trkpt lat="44.6941638" lon="5.2586627"><ele>309.75</ele><time>2026-04-18T15:35:22.438Z</time></trkpt><trkpt lat="44.6942589" lon="5.258532"><ele>309.0</ele><time>2026-04-18T15:35:23.438Z</time></trkpt><trkpt lat="44.6943471" lon="5.2584015"><ele>306.0</ele><time>2026-04-18T15:35:24.438Z</time></trkpt><trkpt lat="44.6944237" lon="5.2582635"><ele>303.0</ele><time>2026-04-18T15:35:25.438Z</time></trkpt><trkpt lat="44.6944867" lon="5.2581261"><ele>300.0</ele><time>2026-04-18T15:35:26.438Z</time></trkpt><trkpt lat="44.6945355" lon="5.2579742"><ele>297.0</ele><time>2026-04-18T15:35:27.438Z</time></trkpt><trkpt lat="44.6945761" lon="5.2578009"><ele>297.0</ele><time>2026-04-18T15:35:28.437Z</time></trkpt><trkpt lat="44.6946101" lon="5.2576335"><ele>297.0</ele><time>2026-04-18T15:35:29.438Z</time></trkpt><trkpt lat="44.6946377" lon="5.2574789"><ele>297.0</ele><time>2026-04-18T15:35:30.438Z</time></trkpt><trkpt lat="44.6946675" lon="5.2573455"><ele>297.0</ele><time>2026-04-18T15:35:31.438Z</time></trkpt><trkpt lat="44.6946944" lon="5.2572426"><ele>297.0</ele><time>2026-04-18T15:35:32.437Z</time></trkpt><trkpt lat="44.6947624" lon="5.2571468"><ele>297.0</ele><time>2026-04-18T15:35:34.438Z</time></trkpt><trkpt lat="44.694809" lon="5.2572092"><ele>297.0</ele><time>2026-04-18T15:35:36.437Z</time></trkpt><trkpt lat="44.6947786" lon="5.2573575"><ele>297.0</ele><time>2026-04-18T15:35:38.437Z</time></trkpt><trkpt lat="44.6947427" lon="5.2574719"><ele>297.0</ele><time>2026-04-18T15:35:39.438Z</time></trkpt><trkpt lat="44.6947026" lon="5.2576339"><ele>297.0</ele><time>2026-04-18T15:35:40.438Z</time></trkpt><trkpt lat="44.6946719" lon="5.2578105"><ele>297.0</ele><time>2026-04-18T15:35:41.438Z</time></trkpt><trkpt lat="44.6946336" lon="5.2580017"><ele>297.0</ele><time>2026-04-18T15:35:42.438Z</time></trkpt><trkpt lat="44.6946051" lon="5.2581778"><ele>297.0</ele><time>2026-04-18T15:35:43.439Z</time></trkpt><trkpt lat="44.6946017" lon="5.2583708"><ele>297.0</ele><time>2026-04-18T15:35:44.437Z</time></trkpt><trkpt lat="44.6946395" lon="5.2585763"><ele>296.0</ele><time>2026-04-18T15:35:45.438Z</time></trkpt><trkpt lat="44.6946983" lon="5.258779"><ele>295.0</ele><time>2026-04-18T15:35:46.438Z</time></trkpt><trkpt lat="44.6947693" lon="5.2589849"><ele>294.0</ele><time>2026-04-18T15:35:47.438Z</time></trkpt><trkpt lat="44.6948528" lon="5.2591965"><ele>294.0</ele><time>2026-04-18T15:35:48.438Z</time></trkpt><trkpt lat="44.6949392" lon="5.2594191"><ele>294.0</ele><time>2026-04-18T15:35:49.438Z</time></trkpt><trkpt lat="44.6950347" lon="5.2596472"><ele>294.0</ele><time>2026-04-18T15:35:50.437Z</time></trkpt><trkpt lat="44.6951364" lon="5.2598825"><ele>293.6666666666667</ele><time>2026-04-18T15:35:51.438Z</time></trkpt><trkpt lat="44.6952307" lon="5.2601168"><ele>293.33333333333337</ele><time>2026-04-18T15:35:52.438Z</time></trkpt><trkpt lat="44.6953185" lon="5.2603365"><ele>293.0</ele><time>2026-04-18T15:35:53.437Z</time></trkpt><trkpt lat="44.6954" lon="5.2605394"><ele>293.75</ele><time>2026-04-18T15:35:54.438Z</time></trkpt><trkpt lat="44.6954677" lon="5.2607165"><ele>294.5</ele><time>2026-04-18T15:35:55.438Z</time></trkpt><trkpt lat="44.6955303" lon="5.2608693"><ele>295.25</ele><time>2026-04-18T15:35:56.438Z</time></trkpt><trkpt lat="44.6955893" lon="5.2610176"><ele>296.0</ele><time>2026-04-18T15:35:57.438Z</time></trkpt><trkpt lat="44.6956377" lon="5.261132"><ele>296.0</ele><time>2026-04-18T15:35:58.438Z</time></trkpt><trkpt lat="44.6956796" lon="5.2612217"><ele>296.0</ele><time>2026-04-18T15:35:59.438Z</time></trkpt><trkpt lat="44.6957284" lon="5.2612973"><ele>296.0</ele><time>2026-04-18T15:36:00.438Z</time></trkpt><trkpt lat="44.6958518" lon="5.261323"><ele>296.0</ele><time>2026-04-18T15:36:02.438Z</time></trkpt><trkpt lat="44.6959155" lon="5.2612747"><ele>296.0</ele><time>2026-04-18T15:36:03.438Z</time></trkpt><trkpt lat="44.6959918" lon="5.2612194"><ele>296.0</ele><time>2026-04-18T15:36:04.438Z</time></trkpt><trkpt lat="44.6960932" lon="5.2611674"><ele>296.75</ele><time>2026-04-18T15:36:05.438Z</time></trkpt><trkpt lat="44.6962097" lon="5.261108"><ele>297.5</ele><time>2026-04-18T15:36:06.438Z</time></trkpt><trkpt lat="44.6963453" lon="5.2610524"><ele>298.25</ele><time>2026-04-18T15:36:07.437Z</time></trkpt><trkpt lat="44.6964867" lon="5.2610151"><ele>299.0</ele><time>2026-04-18T15:36:08.438Z</time></trkpt><trkpt lat="44.6966314" lon="5.2610035"><ele>299.0</ele><time>2026-04-18T15:36:09.438Z</time></trkpt><trkpt lat="44.6967806" lon="5.261013"><ele>299.0</ele><time>2026-04-18T15:36:10.438Z</time></trkpt><trkpt lat="44.6969335" lon="5.2610414"><ele>299.0</ele><time>2026-04-18T15:36:11.437Z</time></trkpt><trkpt lat="44.6970905" lon="5.2610858"><ele>298.75</ele><time>2026-04-18T15:36:12.438Z</time></trkpt><trkpt lat="44.6972362" lon="5.2611439"><ele>298.5</ele><time>2026-04-18T15:36:13.437Z</time></trkpt><trkpt lat="44.6973771" lon="5.2612172"><ele>298.25</ele><time>2026-04-18T15:36:14.438Z</time></trkpt><trkpt lat="44.69751" lon="5.2613072"><ele>298.0</ele><time>2026-04-18T15:36:15.438Z</time></trkpt><trkpt lat="44.6976387" lon="5.2614105"><ele>297.5</ele><time>2026-04-18T15:36:16.438Z</time></trkpt><trkpt lat="44.6977629" lon="5.2615018"><ele>297.0</ele><time>2026-04-18T15:36:17.438Z</time></trkpt><trkpt lat="44.6978914" lon="5.2616004"><ele>296.5</ele><time>2026-04-18T15:36:18.438Z</time></trkpt><trkpt lat="44.6980173" lon="5.2617248"><ele>296.0</ele><time>2026-04-18T15:36:19.438Z</time></trkpt><trkpt lat="44.6981389" lon="5.2618769"><ele>296.0</ele><time>2026-04-18T15:36:20.438Z</time></trkpt><trkpt lat="44.6982595" lon="5.2620554"><ele>296.0</ele><time>2026-04-18T15:36:21.438Z</time></trkpt><trkpt lat="44.6983702" lon="5.2622509"><ele>296.0</ele><time>2026-04-18T15:36:22.438Z</time></trkpt><trkpt lat="44.6984777" lon="5.2624614"><ele>294.6666666666667</ele><time>2026-04-18T15:36:23.438Z</time></trkpt><trkpt lat="44.698572" lon="5.262662"><ele>293.3333333333333</ele><time>2026-04-18T15:36:24.438Z</time></trkpt><trkpt lat="44.6986568" lon="5.2628673"><ele>292.0</ele><time>2026-04-18T15:36:25.438Z</time></trkpt><trkpt lat="44.6987243" lon="5.2630772"><ele>293.0</ele><time>2026-04-18T15:36:26.437Z</time></trkpt><trkpt lat="44.6987855" lon="5.2632713"><ele>294.0</ele><time>2026-04-18T15:36:27.438Z</time></trkpt><trkpt lat="44.6988413" lon="5.2634552"><ele>295.0</ele><time>2026-04-18T15:36:28.438Z</time></trkpt><trkpt lat="44.6988659" lon="5.2636455"><ele>296.0</ele><time>2026-04-18T15:36:29.437Z</time></trkpt><trkpt lat="44.698884" lon="5.2638443"><ele>296.75</ele><time>2026-04-18T15:36:30.437Z</time></trkpt><trkpt lat="44.6989174" lon="5.2640382"><ele>297.5</ele><time>2026-04-18T15:36:31.438Z</time></trkpt><trkpt lat="44.6989584" lon="5.2642312"><ele>298.25</ele><time>2026-04-18T15:36:32.438Z</time></trkpt><trkpt lat="44.6990051" lon="5.2644083"><ele>299.0</ele><time>2026-04-18T15:36:33.438Z</time></trkpt><trkpt lat="44.699077" lon="5.2645748"><ele>299.0</ele><time>2026-04-18T15:36:34.438Z</time></trkpt><trkpt lat="44.6991698" lon="5.2647357"><ele>299.0</ele><time>2026-04-18T15:36:35.438Z</time></trkpt><trkpt lat="44.6992635" lon="5.2648692"><ele>299.0</ele><time>2026-04-18T15:36:36.437Z</time></trkpt><trkpt lat="44.6993725" lon="5.2649846"><ele>299.0</ele><time>2026-04-18T15:36:37.438Z</time></trkpt><trkpt lat="44.6994999" lon="5.265083"><ele>297.6666666666667</ele><time>2026-04-18T15:36:38.438Z</time></trkpt><trkpt lat="44.6996364" lon="5.2651804"><ele>296.3333333333333</ele><time>2026-04-18T15:36:39.438Z</time></trkpt><trkpt lat="44.6997702" lon="5.2652764"><ele>295.0</ele><time>2026-04-18T15:36:40.438Z</time></trkpt><trkpt lat="44.6999061" lon="5.2653677"><ele>295.0</ele><time>2026-04-18T15:36:41.438Z</time></trkpt><trkpt lat="44.700021" lon="5.2654529"><ele>295.0</ele><time>2026-04-18T15:36:42.437Z</time></trkpt><trkpt lat="44.7001287" lon="5.2655295"><ele>295.0</ele><time>2026-04-18T15:36:43.438Z</time></trkpt><trkpt lat="44.7002383" lon="5.2655863"><ele>295.0</ele><time>2026-04-18T15:36:44.438Z</time></trkpt><trkpt lat="44.7003599" lon="5.2655963"><ele>295.25</ele><time>2026-04-18T15:36:45.438Z</time></trkpt><trkpt lat="44.7004832" lon="5.2655652"><ele>295.5</ele><time>2026-04-18T15:36:46.438Z</time></trkpt><trkpt lat="44.7006143" lon="5.2655083"><ele>295.75</ele><time>2026-04-18T15:36:47.438Z</time></trkpt><trkpt lat="44.7007564" lon="5.265444"><ele>296.0</ele><time>2026-04-18T15:36:48.438Z</time></trkpt><trkpt lat="44.7009084" lon="5.2653753"><ele>296.0</ele><time>2026-04-18T15:36:49.438Z</time></trkpt><trkpt lat="44.7010483" lon="5.2653093"><ele>296.0</ele><time>2026-04-18T15:36:50.438Z</time></trkpt><trkpt lat="44.7011699" lon="5.2652732"><ele>296.0</ele><time>2026-04-18T15:36:51.438Z</time></trkpt><trkpt lat="44.7012921" lon="5.2652662"><ele>296.0</ele><time>2026-04-18T15:36:52.438Z</time></trkpt><trkpt lat="44.7014139" lon="5.265291"><ele>296.75</ele><time>2026-04-18T15:36:53.438Z</time></trkpt><trkpt lat="44.7015301" lon="5.2653518"><ele>297.5</ele><time>2026-04-18T15:36:54.438Z</time></trkpt><trkpt lat="44.7016452" lon="5.2654549"><ele>298.25</ele><time>2026-04-18T15:36:55.438Z</time></trkpt><trkpt lat="44.7017614" lon="5.2655899"><ele>299.0</ele><time>2026-04-18T15:36:56.438Z</time></trkpt><trkpt lat="44.7018798" lon="5.2657553"><ele>299.6666666666667</ele><time>2026-04-18T15:36:57.437Z</time></trkpt><trkpt lat="44.7020038" lon="5.2659396"><ele>300.3333333333333</ele><time>2026-04-18T15:36:58.438Z</time></trkpt><trkpt lat="44.7021286" lon="5.2661332"><ele>301.0</ele><time>2026-04-18T15:36:59.438Z</time></trkpt><trkpt lat="44.7022488" lon="5.2663281"><ele>301.66666666666663</ele><time>2026-04-18T15:37:00.438Z</time></trkpt><trkpt lat="44.7023676" lon="5.2665238"><ele>302.3333333333333</ele><time>2026-04-18T15:37:01.437Z</time></trkpt><trkpt lat="44.7024977" lon="5.266739"><ele>303.0</ele><time>2026-04-18T15:37:02.437Z</time></trkpt><trkpt lat="44.7026308" lon="5.2669556"><ele>303.3333333333333</ele><time>2026-04-18T15:37:03.438Z</time></trkpt><trkpt lat="44.7027715" lon="5.2671748"><ele>303.66666666666663</ele><time>2026-04-18T15:37:04.438Z</time></trkpt><trkpt lat="44.7029089" lon="5.2673939"><ele>304.0</ele><time>2026-04-18T15:37:05.438Z</time></trkpt><trkpt lat="44.7030443" lon="5.2675945"><ele>304.0</ele><time>2026-04-18T15:37:06.439Z</time></trkpt><trkpt lat="44.7031894" lon="5.2677803"><ele>304.0</ele><time>2026-04-18T15:37:07.437Z</time></trkpt><trkpt lat="44.7033465" lon="5.2679608"><ele>304.0</ele><time>2026-04-18T15:37:08.438Z</time></trkpt><trkpt lat="44.7035134" lon="5.2681356"><ele>304.0</ele><time>2026-04-18T15:37:09.438Z</time></trkpt><trkpt lat="44.7036887" lon="5.2683129"><ele>304.0</ele><time>2026-04-18T15:37:10.438Z</time></trkpt><trkpt lat="44.7038675" lon="5.2684985"><ele>304.0</ele><time>2026-04-18T15:37:11.437Z</time></trkpt><trkpt lat="44.7040516" lon="5.268682"><ele>304.0</ele><time>2026-04-18T15:37:12.438Z</time></trkpt><trkpt lat="44.7042334" lon="5.2688659"><ele>304.0</ele><time>2026-04-18T15:37:13.438Z</time></trkpt><trkpt lat="44.7043999" lon="5.2690353"><ele>304.0</ele><time>2026-04-18T15:37:14.439Z</time></trkpt><trkpt lat="44.7045511" lon="5.2691918"><ele>303.3333333333333</ele><time>2026-04-18T15:37:15.438Z</time></trkpt><trkpt lat="44.7046861" lon="5.2693235"><ele>302.6666666666667</ele><time>2026-04-18T15:37:16.437Z</time></trkpt><trkpt lat="44.704811" lon="5.2694428"><ele>302.0</ele><time>2026-04-18T15:37:17.439Z</time></trkpt><trkpt lat="44.7049453" lon="5.2695486"><ele>302.0</ele><time>2026-04-18T15:37:18.437Z</time></trkpt><trkpt lat="44.7050946" lon="5.26963"><ele>302.0</ele><time>2026-04-18T15:37:19.438Z</time></trkpt><trkpt lat="44.7052621" lon="5.2696901"><ele>302.0</ele><time>2026-04-18T15:37:20.437Z</time></trkpt><trkpt lat="44.7054409" lon="5.2697401"><ele>304.33333333333337</ele><time>2026-04-18T15:37:21.438Z</time></trkpt><trkpt lat="44.7056281" lon="5.269793"><ele>306.6666666666667</ele><time>2026-04-18T15:37:22.438Z</time></trkpt><trkpt lat="44.7058155" lon="5.269847"><ele>309.0</ele><time>2026-04-18T15:37:23.437Z</time></trkpt><trkpt lat="44.7059898" lon="5.269908"><ele>307.3333333333333</ele><time>2026-04-18T15:37:24.438Z</time></trkpt><trkpt lat="44.7061739" lon="5.2699773"><ele>305.66666666666663</ele><time>2026-04-18T15:37:25.438Z</time></trkpt><trkpt lat="44.7063635" lon="5.2700538"><ele>304.0</ele><time>2026-04-18T15:37:26.438Z</time></trkpt><trkpt lat="44.7065566" lon="5.2701243"><ele>304.0</ele><time>2026-04-18T15:37:27.438Z</time></trkpt><trkpt lat="44.7067351" lon="5.2701901"><ele>304.0</ele><time>2026-04-18T15:37:28.438Z</time></trkpt><trkpt lat="44.7069062" lon="5.2702576"><ele>304.0</ele><time>2026-04-18T15:37:29.438Z</time></trkpt><trkpt lat="44.7070614" lon="5.2703266"><ele>302.3333333333333</ele><time>2026-04-18T15:37:30.438Z</time></trkpt><trkpt lat="44.7072077" lon="5.2703991"><ele>300.6666666666667</ele><time>2026-04-18T15:37:31.438Z</time></trkpt><trkpt lat="44.7073548" lon="5.2704889"><ele>299.0</ele><time>2026-04-18T15:37:32.438Z</time></trkpt><trkpt lat="44.7075028" lon="5.2706002"><ele>301.6666666666667</ele><time>2026-04-18T15:37:33.438Z</time></trkpt><trkpt lat="44.7076631" lon="5.2707247"><ele>304.3333333333333</ele><time>2026-04-18T15:37:34.437Z</time></trkpt><trkpt lat="44.7078316" lon="5.2708574"><ele>307.0</ele><time>2026-04-18T15:37:35.438Z</time></trkpt><trkpt lat="44.7080036" lon="5.2710005"><ele>307.0</ele><time>2026-04-18T15:37:36.438Z</time></trkpt><trkpt lat="44.7081646" lon="5.2711287"><ele>307.0</ele><time>2026-04-18T15:37:37.438Z</time></trkpt><trkpt lat="44.7083112" lon="5.271249"><ele>307.0</ele><time>2026-04-18T15:37:38.439Z</time></trkpt><trkpt lat="44.7084557" lon="5.27135"><ele>306.3333333333333</ele><time>2026-04-18T15:37:39.438Z</time></trkpt><trkpt lat="44.7085977" lon="5.271424"><ele>305.6666666666667</ele><time>2026-04-18T15:37:40.437Z</time></trkpt><trkpt lat="44.7087476" lon="5.271477"><ele>305.0</ele><time>2026-04-18T15:37:41.438Z</time></trkpt><trkpt lat="44.7089048" lon="5.2715031"><ele>306.6666666666667</ele><time>2026-04-18T15:37:42.437Z</time></trkpt><trkpt lat="44.7090646" lon="5.2715153"><ele>308.3333333333333</ele><time>2026-04-18T15:37:43.438Z</time></trkpt><trkpt lat="44.7092198" lon="5.2715167"><ele>310.0</ele><time>2026-04-18T15:37:44.438Z</time></trkpt><trkpt lat="44.7093604" lon="5.2715155"><ele>309.5</ele><time>2026-04-18T15:37:45.438Z</time></trkpt><trkpt lat="44.7094835" lon="5.2715159"><ele>309.0</ele><time>2026-04-18T15:37:46.438Z</time></trkpt><trkpt lat="44.7096049" lon="5.2715214"><ele>308.5</ele><time>2026-04-18T15:37:47.438Z</time></trkpt><trkpt lat="44.7097322" lon="5.2715406"><ele>308.0</ele><time>2026-04-18T15:37:48.438Z</time></trkpt><trkpt lat="44.7098749" lon="5.2715803"><ele>308.0</ele><time>2026-04-18T15:37:49.438Z</time></trkpt><trkpt lat="44.710024" lon="5.2716411"><ele>308.0</ele><time>2026-04-18T15:37:50.438Z</time></trkpt><trkpt lat="44.7101872" lon="5.2717205"><ele>308.0</ele><time>2026-04-18T15:37:51.438Z</time></trkpt><trkpt lat="44.7103575" lon="5.2718059"><ele>306.33333333333337</ele><time>2026-04-18T15:37:52.438Z</time></trkpt><trkpt lat="44.710544" lon="5.2718889"><ele>304.6666666666667</ele><time>2026-04-18T15:37:53.438Z</time></trkpt><trkpt lat="44.710733" lon="5.2719699"><ele>303.0</ele><time>2026-04-18T15:37:54.438Z</time></trkpt><trkpt lat="44.7109089" lon="5.2720401"><ele>303.0</ele><time>2026-04-18T15:37:55.438Z</time></trkpt><trkpt lat="44.7110804" lon="5.2721078"><ele>303.0</ele><time>2026-04-18T15:37:56.438Z</time></trkpt><trkpt lat="44.7112421" lon="5.2721776"><ele>303.0</ele><time>2026-04-18T15:37:57.438Z</time></trkpt><trkpt lat="44.7113925" lon="5.2722615"><ele>305.0</ele><time>2026-04-18T15:37:58.438Z</time></trkpt><trkpt lat="44.7115445" lon="5.2723668"><ele>307.0</ele><time>2026-04-18T15:37:59.437Z</time></trkpt><trkpt lat="44.7116923" lon="5.2724914"><ele>309.0</ele><time>2026-04-18T15:38:00.438Z</time></trkpt><trkpt lat="44.7118419" lon="5.2726094"><ele>308.3333333333333</ele><time>2026-04-18T15:38:01.438Z</time></trkpt><trkpt lat="44.7119895" lon="5.2727185"><ele>307.66666666666663</ele><time>2026-04-18T15:38:02.439Z</time></trkpt><trkpt lat="44.7121462" lon="5.2728142"><ele>307.0</ele><time>2026-04-18T15:38:03.438Z</time></trkpt><trkpt lat="44.7123054" lon="5.272902"><ele>307.0</ele><time>2026-04-18T15:38:04.438Z</time></trkpt><trkpt lat="44.7124581" lon="5.2729735"><ele>307.0</ele><time>2026-04-18T15:38:05.438Z</time></trkpt><trkpt lat="44.7126018" lon="5.2730272"><ele>307.0</ele><time>2026-04-18T15:38:06.439Z</time></trkpt><trkpt lat="44.7127401" lon="5.2730745"><ele>308.0</ele><time>2026-04-18T15:38:07.438Z</time></trkpt><trkpt lat="44.7128742" lon="5.2731295"><ele>309.0</ele><time>2026-04-18T15:38:08.438Z</time></trkpt><trkpt lat="44.713009" lon="5.2732086"><ele>310.0</ele><time>2026-04-18T15:38:09.438Z</time></trkpt><trkpt lat="44.7131369" lon="5.2733112"><ele>311.0</ele><time>2026-04-18T15:38:10.438Z</time></trkpt><trkpt lat="44.7132563" lon="5.2734092"><ele>311.0</ele><time>2026-04-18T15:38:11.437Z</time></trkpt><trkpt lat="44.7133655" lon="5.2734996"><ele>311.0</ele><time>2026-04-18T15:38:12.438Z</time></trkpt><trkpt lat="44.7134626" lon="5.2735797"><ele>311.0</ele><time>2026-04-18T15:38:13.437Z</time></trkpt><trkpt lat="44.7135622" lon="5.2736426"><ele>311.0</ele><time>2026-04-18T15:38:14.438Z</time></trkpt><trkpt lat="44.7136776" lon="5.2736741"><ele>311.0</ele><time>2026-04-18T15:38:15.437Z</time></trkpt><trkpt lat="44.7137832" lon="5.2737064"><ele>311.0</ele><time>2026-04-18T15:38:16.437Z</time></trkpt><trkpt lat="44.7139095" lon="5.2737096"><ele>311.0</ele><time>2026-04-18T15:38:17.438Z</time></trkpt><trkpt lat="44.7141073" lon="5.2736255"><ele>311.0</ele><time>2026-04-18T15:38:18.438Z</time></trkpt><trkpt lat="44.7142692" lon="5.2735814"><ele>311.6666666666667</ele><time>2026-04-18T15:38:19.438Z</time></trkpt><trkpt lat="44.714452" lon="5.2735543"><ele>312.3333333333333</ele><time>2026-04-18T15:38:20.438Z</time></trkpt><trkpt lat="44.7146395" lon="5.27354"><ele>313.0</ele><time>2026-04-18T15:38:21.439Z</time></trkpt><trkpt lat="44.7148367" lon="5.2735165"><ele>313.0</ele><time>2026-04-18T15:38:22.438Z</time></trkpt><trkpt lat="44.7150145" lon="5.2734934"><ele>313.0</ele><time>2026-04-18T15:38:23.437Z</time></trkpt><trkpt lat="44.7151864" lon="5.2734758"><ele>313.0</ele><time>2026-04-18T15:38:24.438Z</time></trkpt><trkpt lat="44.7153564" lon="5.2734546"><ele>314.0</ele><time>2026-04-18T15:38:25.438Z</time></trkpt><trkpt lat="44.7155289" lon="5.2734274"><ele>315.0</ele><time>2026-04-18T15:38:26.439Z</time></trkpt><trkpt lat="44.7157017" lon="5.273389"><ele>316.0</ele><time>2026-04-18T15:38:27.438Z</time></trkpt><trkpt lat="44.7158731" lon="5.2733386"><ele>316.0</ele><time>2026-04-18T15:38:28.438Z</time></trkpt><trkpt lat="44.7160476" lon="5.2732831"><ele>316.0</ele><time>2026-04-18T15:38:29.438Z</time></trkpt><trkpt lat="44.7162174" lon="5.2732274"><ele>316.0</ele><time>2026-04-18T15:38:30.439Z</time></trkpt><trkpt lat="44.7163761" lon="5.273176"><ele>317.25</ele><time>2026-04-18T15:38:31.438Z</time></trkpt><trkpt lat="44.7165294" lon="5.2731307"><ele>318.5</ele><time>2026-04-18T15:38:32.438Z</time></trkpt><trkpt lat="44.7166701" lon="5.2730882"><ele>319.75</ele><time>2026-04-18T15:38:33.438Z</time></trkpt><trkpt lat="44.7168014" lon="5.2730527"><ele>321.0</ele><time>2026-04-18T15:38:34.439Z</time></trkpt><trkpt lat="44.7169274" lon="5.273027"><ele>318.0</ele><time>2026-04-18T15:38:35.438Z</time></trkpt><trkpt lat="44.7170614" lon="5.2730192"><ele>315.0</ele><time>2026-04-18T15:38:36.438Z</time></trkpt><trkpt lat="44.7171926" lon="5.2730189"><ele>312.0</ele><time>2026-04-18T15:38:37.438Z</time></trkpt><trkpt lat="44.7173285" lon="5.2730244"><ele>309.0</ele><time>2026-04-18T15:38:38.438Z</time></trkpt><trkpt lat="44.7174676" lon="5.2730352"><ele>309.0</ele><time>2026-04-18T15:38:39.438Z</time></trkpt><trkpt lat="44.7176169" lon="5.2730456"><ele>309.0</ele><time>2026-04-18T15:38:40.438Z</time></trkpt><trkpt lat="44.7177657" lon="5.2730584"><ele>309.0</ele><time>2026-04-18T15:38:41.438Z</time></trkpt><trkpt lat="44.7179182" lon="5.2730764"><ele>309.0</ele><time>2026-04-18T15:38:42.438Z</time></trkpt><trkpt lat="44.7180751" lon="5.2730876"><ele>309.0</ele><time>2026-04-18T15:38:43.438Z</time></trkpt><trkpt lat="44.7182356" lon="5.273095"><ele>309.0</ele><time>2026-04-18T15:38:44.438Z</time></trkpt><trkpt lat="44.7184052" lon="5.2730967"><ele>310.0</ele><time>2026-04-18T15:38:45.438Z</time></trkpt><trkpt lat="44.7185743" lon="5.2730894"><ele>311.0</ele><time>2026-04-18T15:38:46.438Z</time></trkpt><trkpt lat="44.7187481" lon="5.2730827"><ele>312.0</ele><time>2026-04-18T15:38:47.438Z</time></trkpt><trkpt lat="44.7189246" lon="5.2730741"><ele>312.0</ele><time>2026-04-18T15:38:48.438Z</time></trkpt><trkpt lat="44.7191045" lon="5.2730664"><ele>312.0</ele><time>2026-04-18T15:38:49.438Z</time></trkpt><trkpt lat="44.7192851" lon="5.2730627"><ele>312.0</ele><time>2026-04-18T15:38:50.437Z</time></trkpt><trkpt lat="44.7194683" lon="5.2730544"><ele>312.0</ele><time>2026-04-18T15:38:51.437Z</time></trkpt><trkpt lat="44.7196491" lon="5.2730486"><ele>312.0</ele><time>2026-04-18T15:38:52.438Z</time></trkpt><trkpt lat="44.7198219" lon="5.2730447"><ele>312.0</ele><time>2026-04-18T15:38:53.438Z</time></trkpt><trkpt lat="44.7199837" lon="5.273042"><ele>312.0</ele><time>2026-04-18T15:38:54.438Z</time></trkpt><trkpt lat="44.7201325" lon="5.2730429"><ele>312.0</ele><time>2026-04-18T15:38:55.437Z</time></trkpt><trkpt lat="44.7202779" lon="5.2730359"><ele>312.0</ele><time>2026-04-18T15:38:56.438Z</time></trkpt><trkpt lat="44.720424" lon="5.273029"><ele>312.0</ele><time>2026-04-18T15:38:57.438Z</time></trkpt><trkpt lat="44.720568" lon="5.2730328"><ele>311.6666666666667</ele><time>2026-04-18T15:38:58.437Z</time></trkpt><trkpt lat="44.7207172" lon="5.2730286"><ele>311.33333333333337</ele><time>2026-04-18T15:38:59.438Z</time></trkpt><trkpt lat="44.7208687" lon="5.2730097"><ele>311.0</ele><time>2026-04-18T15:39:00.438Z</time></trkpt><trkpt lat="44.7210194" lon="5.2729716"><ele>312.0</ele><time>2026-04-18T15:39:01.438Z</time></trkpt><trkpt lat="44.7211702" lon="5.2729189"><ele>313.0</ele><time>2026-04-18T15:39:02.437Z</time></trkpt><trkpt lat="44.7213275" lon="5.2728564"><ele>314.0</ele><time>2026-04-18T15:39:03.438Z</time></trkpt><trkpt lat="44.7214891" lon="5.2727851"><ele>314.0</ele><time>2026-04-18T15:39:04.438Z</time></trkpt><trkpt lat="44.7216518" lon="5.2727184"><ele>314.0</ele><time>2026-04-18T15:39:05.437Z</time></trkpt><trkpt lat="44.7218292" lon="5.2726572"><ele>314.0</ele><time>2026-04-18T15:39:06.437Z</time></trkpt><trkpt lat="44.7220206" lon="5.2726048"><ele>315.6666666666667</ele><time>2026-04-18T15:39:07.438Z</time></trkpt><trkpt lat="44.7222136" lon="5.2725595"><ele>317.3333333333333</ele><time>2026-04-18T15:39:08.438Z</time></trkpt><trkpt lat="44.722406" lon="5.2725143"><ele>319.0</ele><time>2026-04-18T15:39:09.438Z</time></trkpt><trkpt lat="44.7225972" lon="5.2724509"><ele>317.0</ele><time>2026-04-18T15:39:10.438Z</time></trkpt><trkpt lat="44.7227796" lon="5.272368"><ele>315.0</ele><time>2026-04-18T15:39:11.438Z</time></trkpt><trkpt lat="44.7229524" lon="5.2722642"><ele>313.0</ele><time>2026-04-18T15:39:12.437Z</time></trkpt><trkpt lat="44.7231091" lon="5.2721712"><ele>313.0</ele><time>2026-04-18T15:39:13.437Z</time></trkpt><trkpt lat="44.7232542" lon="5.2721086"><ele>313.0</ele><time>2026-04-18T15:39:14.437Z</time></trkpt><trkpt lat="44.7234025" lon="5.2720995"><ele>313.0</ele><time>2026-04-18T15:39:15.438Z</time></trkpt><trkpt lat="44.7235537" lon="5.2721278"><ele>313.3333333333333</ele><time>2026-04-18T15:39:16.438Z</time></trkpt><trkpt lat="44.7237135" lon="5.2721788"><ele>313.6666666666667</ele><time>2026-04-18T15:39:17.438Z</time></trkpt><trkpt lat="44.7238789" lon="5.2722489"><ele>314.0</ele><time>2026-04-18T15:39:18.438Z</time></trkpt><trkpt lat="44.7240529" lon="5.2723331"><ele>316.6666666666667</ele><time>2026-04-18T15:39:19.438Z</time></trkpt><trkpt lat="44.7242351" lon="5.2724241"><ele>319.3333333333333</ele><time>2026-04-18T15:39:20.438Z</time></trkpt><trkpt lat="44.72441" lon="5.2725104"><ele>322.0</ele><time>2026-04-18T15:39:21.438Z</time></trkpt><trkpt lat="44.7245706" lon="5.2725868"><ele>322.0</ele><time>2026-04-18T15:39:22.438Z</time></trkpt><trkpt lat="44.7247237" lon="5.272662"><ele>322.0</ele><time>2026-04-18T15:39:23.438Z</time></trkpt><trkpt lat="44.7248634" lon="5.2727496"><ele>322.0</ele><time>2026-04-18T15:39:24.438Z</time></trkpt><trkpt lat="44.7249867" lon="5.2728479"><ele>322.0</ele><time>2026-04-18T15:39:25.438Z</time></trkpt><trkpt lat="44.7251029" lon="5.2729629"><ele>322.0</ele><time>2026-04-18T15:39:26.438Z</time></trkpt><trkpt lat="44.7252069" lon="5.2731074"><ele>322.0</ele><time>2026-04-18T15:39:27.438Z</time></trkpt><trkpt lat="44.7252829" lon="5.2732823"><ele>322.0</ele><time>2026-04-18T15:39:28.438Z</time></trkpt><trkpt lat="44.7253577" lon="5.2734791"><ele>321.75</ele><time>2026-04-18T15:39:29.438Z</time></trkpt><trkpt lat="44.7254009" lon="5.2736993"><ele>321.5</ele><time>2026-04-18T15:39:30.438Z</time></trkpt><trkpt lat="44.7254468" lon="5.2738824"><ele>321.25</ele><time>2026-04-18T15:39:31.438Z</time></trkpt><trkpt lat="44.7254846" lon="5.2740234"><ele>321.0</ele><time>2026-04-18T15:39:32.438Z</time></trkpt><trkpt lat="44.7255254" lon="5.2741376"><ele>322.0</ele><time>2026-04-18T15:39:33.438Z</time></trkpt><trkpt lat="44.7255889" lon="5.2742203"><ele>323.0</ele><time>2026-04-18T15:39:34.438Z</time></trkpt><trkpt lat="44.7256794" lon="5.2742451"><ele>324.0</ele><time>2026-04-18T15:39:35.437Z</time></trkpt><trkpt lat="44.7257796" lon="5.2742246"><ele>325.0</ele><time>2026-04-18T15:39:36.438Z</time></trkpt><trkpt lat="44.7258933" lon="5.2741918"><ele>326.0</ele><time>2026-04-18T15:39:37.438Z</time></trkpt><trkpt lat="44.7260069" lon="5.2741581"><ele>325.5</ele><time>2026-04-18T15:39:38.439Z</time></trkpt><trkpt lat="44.7261286" lon="5.2741306"><ele>325.0</ele><time>2026-04-18T15:39:39.438Z</time></trkpt><trkpt lat="44.7262525" lon="5.2741296"><ele>324.5</ele><time>2026-04-18T15:39:40.438Z</time></trkpt><trkpt lat="44.7263775" lon="5.2741767"><ele>324.0</ele><time>2026-04-18T15:39:41.437Z</time></trkpt><trkpt lat="44.7265019" lon="5.2742575"><ele>324.0</ele><time>2026-04-18T15:39:42.437Z</time></trkpt><trkpt lat="44.7266088" lon="5.2743397"><ele>324.0</ele><time>2026-04-18T15:39:43.438Z</time></trkpt><trkpt lat="44.7267143" lon="5.2744276"><ele>324.0</ele><time>2026-04-18T15:39:44.438Z</time></trkpt><trkpt lat="44.7268105" lon="5.274518"><ele>324.0</ele><time>2026-04-18T15:39:45.438Z</time></trkpt><trkpt lat="44.7269021" lon="5.274608"><ele>323.5</ele><time>2026-04-18T15:39:46.438Z</time></trkpt><trkpt lat="44.7269945" lon="5.274691"><ele>323.0</ele><time>2026-04-18T15:39:47.438Z</time></trkpt><trkpt lat="44.727096" lon="5.274761"><ele>322.5</ele><time>2026-04-18T15:39:48.438Z</time></trkpt><trkpt lat="44.7272075" lon="5.2748084"><ele>322.0</ele><time>2026-04-18T15:39:49.438Z</time></trkpt><trkpt lat="44.7273246" lon="5.27484"><ele>323.25</ele><time>2026-04-18T15:39:50.438Z</time></trkpt><trkpt lat="44.727454" lon="5.2748574"><ele>324.5</ele><time>2026-04-18T15:39:51.438Z</time></trkpt><trkpt lat="44.7275912" lon="5.2748661"><ele>325.75</ele><time>2026-04-18T15:39:52.438Z</time></trkpt><trkpt lat="44.7277359" lon="5.2748689"><ele>327.0</ele><time>2026-04-18T15:39:53.438Z</time></trkpt><trkpt lat="44.7278847" lon="5.2748664"><ele>327.0</ele><time>2026-04-18T15:39:54.438Z</time></trkpt><trkpt lat="44.7280334" lon="5.2748659"><ele>327.0</ele><time>2026-04-18T15:39:55.438Z</time></trkpt><trkpt lat="44.7281738" lon="5.2748605"><ele>327.0</ele><time>2026-04-18T15:39:56.438Z</time></trkpt><trkpt lat="44.7283153" lon="5.2748374"><ele>327.0</ele><time>2026-04-18T15:39:57.438Z</time></trkpt><trkpt lat="44.7284519" lon="5.274786"><ele>326.75</ele><time>2026-04-18T15:39:58.438Z</time></trkpt><trkpt lat="44.7285867" lon="5.2747234"><ele>326.5</ele><time>2026-04-18T15:39:59.439Z</time></trkpt><trkpt lat="44.7287215" lon="5.2746651"><ele>326.25</ele><time>2026-04-18T15:40:00.438Z</time></trkpt><trkpt lat="44.7288552" lon="5.2746163"><ele>326.0</ele><time>2026-04-18T15:40:01.438Z</time></trkpt><trkpt lat="44.7289748" lon="5.2745734"><ele>326.0</ele><time>2026-04-18T15:40:02.438Z</time></trkpt><trkpt lat="44.7290943" lon="5.2745327"><ele>326.0</ele><time>2026-04-18T15:40:03.438Z</time></trkpt><trkpt lat="44.7292283" lon="5.2745025"><ele>326.0</ele><time>2026-04-18T15:40:04.438Z</time></trkpt><trkpt lat="44.7293712" lon="5.2744928"><ele>326.0</ele><time>2026-04-18T15:40:05.437Z</time></trkpt><trkpt lat="44.7295235" lon="5.2744853"><ele>325.6666666666667</ele><time>2026-04-18T15:40:06.438Z</time></trkpt><trkpt lat="44.7296833" lon="5.2744766"><ele>325.3333333333333</ele><time>2026-04-18T15:40:07.438Z</time></trkpt><trkpt lat="44.7298432" lon="5.2744692"><ele>325.0</ele><time>2026-04-18T15:40:08.438Z</time></trkpt><trkpt lat="44.7300083" lon="5.2744634"><ele>325.0</ele><time>2026-04-18T15:40:09.438Z</time></trkpt><trkpt lat="44.7301748" lon="5.2744503"><ele>325.0</ele><time>2026-04-18T15:40:10.438Z</time></trkpt><trkpt lat="44.7303456" lon="5.2744448"><ele>325.0</ele><time>2026-04-18T15:40:11.438Z</time></trkpt><trkpt lat="44.7305228" lon="5.2744411"><ele>324.66666666666663</ele><time>2026-04-18T15:40:12.438Z</time></trkpt><trkpt lat="44.7306977" lon="5.2744367"><ele>324.3333333333333</ele><time>2026-04-18T15:40:13.437Z</time></trkpt><trkpt lat="44.7308631" lon="5.274432"><ele>324.0</ele><time>2026-04-18T15:40:14.438Z</time></trkpt><trkpt lat="44.7310205" lon="5.2744255"><ele>325.0</ele><time>2026-04-18T15:40:15.437Z</time></trkpt><trkpt lat="44.7311811" lon="5.2744101"><ele>326.0</ele><time>2026-04-18T15:40:16.438Z</time></trkpt><trkpt lat="44.7313382" lon="5.2743794"><ele>327.0</ele><time>2026-04-18T15:40:17.438Z</time></trkpt><trkpt lat="44.7314923" lon="5.2743375"><ele>327.0</ele><time>2026-04-18T15:40:18.438Z</time></trkpt><trkpt lat="44.7316394" lon="5.2742906"><ele>327.0</ele><time>2026-04-18T15:40:19.438Z</time></trkpt><trkpt lat="44.7317778" lon="5.2742502"><ele>327.0</ele><time>2026-04-18T15:40:20.438Z</time></trkpt><trkpt lat="44.7319046" lon="5.2742167"><ele>327.0</ele><time>2026-04-18T15:40:21.438Z</time></trkpt><trkpt lat="44.7320257" lon="5.2741931"><ele>329.5</ele><time>2026-04-18T15:40:22.438Z</time></trkpt><trkpt lat="44.7321498" lon="5.2741693"><ele>332.0</ele><time>2026-04-18T15:40:23.438Z</time></trkpt><trkpt lat="44.73227" lon="5.2741369"><ele>334.5</ele><time>2026-04-18T15:40:24.438Z</time></trkpt><trkpt lat="44.7323886" lon="5.2740802"><ele>337.0</ele><time>2026-04-18T15:40:25.438Z</time></trkpt><trkpt lat="44.7325112" lon="5.2740121"><ele>336.75</ele><time>2026-04-18T15:40:26.437Z</time></trkpt><trkpt lat="44.7326312" lon="5.2739308"><ele>336.5</ele><time>2026-04-18T15:40:27.438Z</time></trkpt><trkpt lat="44.7327516" lon="5.27382"><ele>336.25</ele><time>2026-04-18T15:40:28.438Z</time></trkpt><trkpt lat="44.7328698" lon="5.273692"><ele>336.0</ele><time>2026-04-18T15:40:29.437Z</time></trkpt><trkpt lat="44.7329921" lon="5.2735553"><ele>336.0</ele><time>2026-04-18T15:40:30.438Z</time></trkpt><trkpt lat="44.733125" lon="5.2734098"><ele>336.0</ele><time>2026-04-18T15:40:31.438Z</time></trkpt><trkpt lat="44.7332571" lon="5.2732623"><ele>336.0</ele><time>2026-04-18T15:40:32.437Z</time></trkpt><trkpt lat="44.7333876" lon="5.2731136"><ele>335.0</ele><time>2026-04-18T15:40:33.438Z</time></trkpt><trkpt lat="44.7335125" lon="5.2729836"><ele>334.0</ele><time>2026-04-18T15:40:34.438Z</time></trkpt><trkpt lat="44.7336477" lon="5.2728656"><ele>333.0</ele><time>2026-04-18T15:40:35.437Z</time></trkpt><trkpt lat="44.7337917" lon="5.2727526"><ele>333.0</ele><time>2026-04-18T15:40:36.438Z</time></trkpt><trkpt lat="44.7339374" lon="5.2726437"><ele>333.0</ele><time>2026-04-18T15:40:37.438Z</time></trkpt><trkpt lat="44.7340731" lon="5.2725398"><ele>333.0</ele><time>2026-04-18T15:40:38.438Z</time></trkpt><trkpt lat="44.7341997" lon="5.2724501"><ele>333.0</ele><time>2026-04-18T15:40:39.438Z</time></trkpt><trkpt lat="44.7343199" lon="5.2723739"><ele>333.0</ele><time>2026-04-18T15:40:40.438Z</time></trkpt><trkpt lat="44.7344476" lon="5.272328"><ele>333.0</ele><time>2026-04-18T15:40:41.439Z</time></trkpt><trkpt lat="44.734587" lon="5.2723227"><ele>333.0</ele><time>2026-04-18T15:40:42.437Z</time></trkpt><trkpt lat="44.7347346" lon="5.2723324"><ele>333.3333333333333</ele><time>2026-04-18T15:40:43.438Z</time></trkpt><trkpt lat="44.7348913" lon="5.2723504"><ele>333.66666666666663</ele><time>2026-04-18T15:40:44.437Z</time></trkpt><trkpt lat="44.7350578" lon="5.2723758"><ele>334.0</ele><time>2026-04-18T15:40:45.438Z</time></trkpt><trkpt lat="44.7352234" lon="5.2724069"><ele>334.0</ele><time>2026-04-18T15:40:46.438Z</time></trkpt><trkpt lat="44.7353804" lon="5.2724407"><ele>334.0</ele><time>2026-04-18T15:40:47.438Z</time></trkpt><trkpt lat="44.7355372" lon="5.2724817"><ele>334.0</ele><time>2026-04-18T15:40:48.437Z</time></trkpt><trkpt lat="44.7356979" lon="5.2725442"><ele>334.0</ele><time>2026-04-18T15:40:49.438Z</time></trkpt><trkpt lat="44.7358508" lon="5.2726079"><ele>334.0</ele><time>2026-04-18T15:40:50.438Z</time></trkpt><trkpt lat="44.7359918" lon="5.2726687"><ele>334.0</ele><time>2026-04-18T15:40:51.438Z</time></trkpt><trkpt lat="44.7361184" lon="5.2727256"><ele>334.0</ele><time>2026-04-18T15:40:52.438Z</time></trkpt><trkpt lat="44.7362343" lon="5.2727627"><ele>336.25</ele><time>2026-04-18T15:40:53.438Z</time></trkpt><trkpt lat="44.7363546" lon="5.2727814"><ele>338.5</ele><time>2026-04-18T15:40:54.438Z</time></trkpt><trkpt lat="44.7364759" lon="5.2727632"><ele>340.75</ele><time>2026-04-18T15:40:55.438Z</time></trkpt><trkpt lat="44.7365936" lon="5.2727119"><ele>343.0</ele><time>2026-04-18T15:40:56.438Z</time></trkpt><trkpt lat="44.7367059" lon="5.2726102"><ele>343.0</ele><time>2026-04-18T15:40:57.438Z</time></trkpt><trkpt lat="44.7368075" lon="5.2724722"><ele>343.0</ele><time>2026-04-18T15:40:58.437Z</time></trkpt><trkpt lat="44.7369212" lon="5.2723228"><ele>343.0</ele><time>2026-04-18T15:40:59.437Z</time></trkpt><trkpt lat="44.7370511" lon="5.2721812"><ele>344.3333333333333</ele><time>2026-04-18T15:41:00.438Z</time></trkpt><trkpt lat="44.7371807" lon="5.2720347"><ele>345.6666666666667</ele><time>2026-04-18T15:41:01.437Z</time></trkpt><trkpt lat="44.7373085" lon="5.271903"><ele>347.0</ele><time>2026-04-18T15:41:02.437Z</time></trkpt><trkpt lat="44.7374436" lon="5.2717853"><ele>347.0</ele><time>2026-04-18T15:41:03.438Z</time></trkpt><trkpt lat="44.7375881" lon="5.2716868"><ele>347.0</ele><time>2026-04-18T15:41:04.437Z</time></trkpt><trkpt lat="44.7377421" lon="5.2716047"><ele>347.0</ele><time>2026-04-18T15:41:05.438Z</time></trkpt><trkpt lat="44.7379003" lon="5.271542"><ele>351.0</ele><time>2026-04-18T15:41:06.437Z</time></trkpt><trkpt lat="44.7380705" lon="5.2715022"><ele>355.0</ele><time>2026-04-18T15:41:07.437Z</time></trkpt><trkpt lat="44.7382543" lon="5.2714723"><ele>359.0</ele><time>2026-04-18T15:41:08.438Z</time></trkpt><trkpt lat="44.738431" lon="5.2714433"><ele>353.33333333333337</ele><time>2026-04-18T15:41:09.437Z</time></trkpt><trkpt lat="44.7385904" lon="5.2714225"><ele>347.6666666666667</ele><time>2026-04-18T15:41:10.438Z</time></trkpt><trkpt lat="44.7387501" lon="5.2714164"><ele>342.0</ele><time>2026-04-18T15:41:11.438Z</time></trkpt><trkpt lat="44.7389017" lon="5.2714302"><ele>342.0</ele><time>2026-04-18T15:41:12.438Z</time></trkpt><trkpt lat="44.7390377" lon="5.2714531"><ele>342.0</ele><time>2026-04-18T15:41:13.439Z</time></trkpt><trkpt lat="44.7391648" lon="5.271468"><ele>342.0</ele><time>2026-04-18T15:41:14.438Z</time></trkpt><trkpt lat="44.7392911" lon="5.2714378"><ele>342.0</ele><time>2026-04-18T15:41:15.438Z</time></trkpt><trkpt lat="44.7394016" lon="5.2713672"><ele>345.25</ele><time>2026-04-18T15:41:16.438Z</time></trkpt><trkpt lat="44.7395024" lon="5.271262"><ele>348.5</ele><time>2026-04-18T15:41:17.438Z</time></trkpt><trkpt lat="44.7395864" lon="5.2711142"><ele>351.75</ele><time>2026-04-18T15:41:18.438Z</time></trkpt><trkpt lat="44.7396672" lon="5.2709538"><ele>355.0</ele><time>2026-04-18T15:41:19.438Z</time></trkpt><trkpt lat="44.7397458" lon="5.2708056"><ele>355.0</ele><time>2026-04-18T15:41:20.438Z</time></trkpt><trkpt lat="44.739849" lon="5.2706763"><ele>355.0</ele><time>2026-04-18T15:41:21.438Z</time></trkpt><trkpt lat="44.7399804" lon="5.2705731"><ele>355.0</ele><time>2026-04-18T15:41:22.438Z</time></trkpt><trkpt lat="44.740124" lon="5.2704966"><ele>355.0</ele><time>2026-04-18T15:41:23.438Z</time></trkpt><trkpt lat="44.7402691" lon="5.270415"><ele>354.3333333333333</ele><time>2026-04-18T15:41:24.438Z</time></trkpt><trkpt lat="44.7404039" lon="5.2702985"><ele>353.6666666666667</ele><time>2026-04-18T15:41:25.437Z</time></trkpt><trkpt lat="44.7405342" lon="5.2701598"><ele>353.0</ele><time>2026-04-18T15:41:26.438Z</time></trkpt><trkpt lat="44.74066" lon="5.2700199"><ele>353.0</ele><time>2026-04-18T15:41:27.437Z</time></trkpt><trkpt lat="44.7407927" lon="5.2698851"><ele>353.0</ele><time>2026-04-18T15:41:28.438Z</time></trkpt><trkpt lat="44.7409456" lon="5.2697621"><ele>353.0</ele><time>2026-04-18T15:41:29.438Z</time></trkpt><trkpt lat="44.7411111" lon="5.2696294"><ele>351.6666666666667</ele><time>2026-04-18T15:41:30.438Z</time></trkpt><trkpt lat="44.7412851" lon="5.2695008"><ele>350.3333333333333</ele><time>2026-04-18T15:41:31.438Z</time></trkpt><trkpt lat="44.7414611" lon="5.269368"><ele>349.0</ele><time>2026-04-18T15:41:32.438Z</time></trkpt><trkpt lat="44.741647" lon="5.2692267"><ele>349.0</ele><time>2026-04-18T15:41:33.438Z</time></trkpt><trkpt lat="44.7418228" lon="5.2690934"><ele>349.0</ele><time>2026-04-18T15:41:34.438Z</time></trkpt><trkpt lat="44.7419886" lon="5.2689673"><ele>349.0</ele><time>2026-04-18T15:41:35.437Z</time></trkpt><trkpt lat="44.7421507" lon="5.2688375"><ele>348.0</ele><time>2026-04-18T15:41:36.437Z</time></trkpt><trkpt lat="44.742314" lon="5.2687113"><ele>347.0</ele><time>2026-04-18T15:41:37.438Z</time></trkpt><trkpt lat="44.7424793" lon="5.2685876"><ele>346.0</ele><time>2026-04-18T15:41:38.438Z</time></trkpt><trkpt lat="44.742646" lon="5.2684628"><ele>345.66666666666663</ele><time>2026-04-18T15:41:39.438Z</time></trkpt><trkpt lat="44.7428007" lon="5.2683459"><ele>345.3333333333333</ele><time>2026-04-18T15:41:40.438Z</time></trkpt><trkpt lat="44.7429494" lon="5.2682267"><ele>345.0</ele><time>2026-04-18T15:41:41.438Z</time></trkpt><trkpt lat="44.7430924" lon="5.2680914"><ele>345.0</ele><time>2026-04-18T15:41:42.438Z</time></trkpt><trkpt lat="44.7432299" lon="5.2679502"><ele>345.0</ele><time>2026-04-18T15:41:43.437Z</time></trkpt><trkpt lat="44.743354" lon="5.2678153"><ele>345.0</ele><time>2026-04-18T15:41:44.438Z</time></trkpt><trkpt lat="44.7434728" lon="5.2676732"><ele>344.6666666666667</ele><time>2026-04-18T15:41:45.438Z</time></trkpt><trkpt lat="44.7435836" lon="5.2675258"><ele>344.33333333333337</ele><time>2026-04-18T15:41:46.438Z</time></trkpt><trkpt lat="44.7436907" lon="5.267374"><ele>344.0</ele><time>2026-04-18T15:41:47.438Z</time></trkpt><trkpt lat="44.7437876" lon="5.2672083"><ele>344.0</ele><time>2026-04-18T15:41:48.438Z</time></trkpt><trkpt lat="44.7438836" lon="5.2670463"><ele>344.0</ele><time>2026-04-18T15:41:49.438Z</time></trkpt><trkpt lat="44.7439787" lon="5.2669128"><ele>344.0</ele><time>2026-04-18T15:41:50.438Z</time></trkpt><trkpt lat="44.7440782" lon="5.2667933"><ele>344.0</ele><time>2026-04-18T15:41:51.438Z</time></trkpt><trkpt lat="44.7441939" lon="5.2666914"><ele>344.0</ele><time>2026-04-18T15:41:52.438Z</time></trkpt><trkpt lat="44.7443305" lon="5.2666088"><ele>344.0</ele><time>2026-04-18T15:41:53.438Z</time></trkpt><trkpt lat="44.7444736" lon="5.2665163"><ele>344.0</ele><time>2026-04-18T15:41:54.439Z</time></trkpt><trkpt lat="44.744616" lon="5.2664001"><ele>341.0</ele><time>2026-04-18T15:41:55.438Z</time></trkpt><trkpt lat="44.7447649" lon="5.2662952"><ele>338.0</ele><time>2026-04-18T15:41:56.439Z</time></trkpt><trkpt lat="44.7449026" lon="5.2662144"><ele>335.0</ele><time>2026-04-18T15:41:57.437Z</time></trkpt><trkpt lat="44.7450381" lon="5.2661366"><ele>335.0</ele><time>2026-04-18T15:41:58.438Z</time></trkpt><trkpt lat="44.745178" lon="5.2660761"><ele>335.0</ele><time>2026-04-18T15:41:59.438Z</time></trkpt><trkpt lat="44.7453252" lon="5.2660506"><ele>335.0</ele><time>2026-04-18T15:42:00.438Z</time></trkpt><trkpt lat="44.7454738" lon="5.2660335"><ele>335.0</ele><time>2026-04-18T15:42:01.438Z</time></trkpt><trkpt lat="44.7456278" lon="5.265985"><ele>338.6666666666667</ele><time>2026-04-18T15:42:02.437Z</time></trkpt><trkpt lat="44.7457734" lon="5.2659186"><ele>342.3333333333333</ele><time>2026-04-18T15:42:03.438Z</time></trkpt><trkpt lat="44.7459153" lon="5.2658505"><ele>346.0</ele><time>2026-04-18T15:42:04.437Z</time></trkpt><trkpt lat="44.7460486" lon="5.2657503"><ele>342.66666666666663</ele><time>2026-04-18T15:42:05.438Z</time></trkpt><trkpt lat="44.7461682" lon="5.2656241"><ele>339.3333333333333</ele><time>2026-04-18T15:42:06.438Z</time></trkpt><trkpt lat="44.746292" lon="5.2654876"><ele>336.0</ele><time>2026-04-18T15:42:07.438Z</time></trkpt><trkpt lat="44.7463989" lon="5.2653443"><ele>336.0</ele><time>2026-04-18T15:42:08.438Z</time></trkpt><trkpt lat="44.7465013" lon="5.2652203"><ele>336.0</ele><time>2026-04-18T15:42:09.438Z</time></trkpt><trkpt lat="44.7465935" lon="5.2651027"><ele>336.0</ele><time>2026-04-18T15:42:10.437Z</time></trkpt><trkpt lat="44.7467015" lon="5.2650103"><ele>336.0</ele><time>2026-04-18T15:42:11.438Z</time></trkpt><trkpt lat="44.7468273" lon="5.2649547"><ele>339.25</ele><time>2026-04-18T15:42:12.439Z</time></trkpt><trkpt lat="44.7469559" lon="5.2649383"><ele>342.5</ele><time>2026-04-18T15:42:13.438Z</time></trkpt><trkpt lat="44.7470946" lon="5.2649396"><ele>345.75</ele><time>2026-04-18T15:42:14.438Z</time></trkpt><trkpt lat="44.74725" lon="5.264937"><ele>349.0</ele><time>2026-04-18T15:42:15.438Z</time></trkpt><trkpt lat="44.7474115" lon="5.2649143"><ele>349.0</ele><time>2026-04-18T15:42:16.438Z</time></trkpt><trkpt lat="44.747563" lon="5.2648824"><ele>349.0</ele><time>2026-04-18T15:42:17.438Z</time></trkpt><trkpt lat="44.7477089" lon="5.2648445"><ele>349.0</ele><time>2026-04-18T15:42:18.437Z</time></trkpt><trkpt lat="44.7478525" lon="5.2647887"><ele>345.25</ele><time>2026-04-18T15:42:19.438Z</time></trkpt><trkpt lat="44.7479824" lon="5.264733"><ele>341.5</ele><time>2026-04-18T15:42:20.437Z</time></trkpt><trkpt lat="44.748104" lon="5.2646827"><ele>337.75</ele><time>2026-04-18T15:42:21.436Z</time></trkpt><trkpt lat="44.7482089" lon="5.2646304"><ele>334.0</ele><time>2026-04-18T15:42:22.437Z</time></trkpt><trkpt lat="44.7483026" lon="5.2645776"><ele>334.0</ele><time>2026-04-18T15:42:23.437Z</time></trkpt><trkpt lat="44.7483824" lon="5.2645132"><ele>334.0</ele><time>2026-04-18T15:42:24.437Z</time></trkpt><trkpt lat="44.748448" lon="5.2644544"><ele>334.0</ele><time>2026-04-18T15:42:25.438Z</time></trkpt><trkpt lat="44.7485037" lon="5.2643977"><ele>334.0</ele><time>2026-04-18T15:42:26.437Z</time></trkpt><trkpt lat="44.7486187" lon="5.2643608"><ele>334.0</ele><time>2026-04-18T15:42:28.438Z</time></trkpt><trkpt lat="44.74869" lon="5.2643561"><ele>334.0</ele><time>2026-04-18T15:42:29.437Z</time></trkpt><trkpt lat="44.748767" lon="5.2643565"><ele>334.66666666666663</ele><time>2026-04-18T15:42:30.437Z</time></trkpt><trkpt lat="44.7488425" lon="5.2643614"><ele>335.3333333333333</ele><time>2026-04-18T15:42:31.437Z</time></trkpt><trkpt lat="44.7489121" lon="5.2643556"><ele>336.0</ele><time>2026-04-18T15:42:32.437Z</time></trkpt><trkpt lat="44.7489886" lon="5.2643636"><ele>336.6666666666667</ele><time>2026-04-18T15:42:33.437Z</time></trkpt><trkpt lat="44.7491072" lon="5.2643727"><ele>337.33333333333337</ele><time>2026-04-18T15:42:35.437Z</time></trkpt><trkpt lat="44.7491747" lon="5.2643751"><ele>338.0</ele><time>2026-04-18T15:42:36.437Z</time></trkpt><trkpt lat="44.749247" lon="5.2643714"><ele>338.0</ele><time>2026-04-18T15:42:37.437Z</time></trkpt><trkpt lat="44.7493116" lon="5.2643695"><ele>338.0</ele><time>2026-04-18T15:42:38.437Z</time></trkpt><trkpt lat="44.7493784" lon="5.2643804"><ele>338.0</ele><time>2026-04-18T15:42:39.437Z</time></trkpt><trkpt lat="44.7494842" lon="5.2643994"><ele>338.0</ele><time>2026-04-18T15:42:41.437Z</time></trkpt><trkpt lat="44.7495587" lon="5.2644232"><ele>338.0</ele><time>2026-04-18T15:42:43.437Z</time></trkpt><trkpt lat="44.7496595" lon="5.264493"><ele>338.0</ele><time>2026-04-18T15:42:45.438Z</time></trkpt><trkpt lat="44.7497485" lon="5.2645421"><ele>338.5</ele><time>2026-04-18T15:42:47.436Z</time></trkpt><trkpt lat="44.7498133" lon="5.2645675"><ele>339.0</ele><time>2026-04-18T15:42:49.437Z</time></trkpt><trkpt lat="44.7498682" lon="5.2646142"><ele>339.5</ele><time>2026-04-18T15:42:51.437Z</time></trkpt><trkpt lat="44.7499407" lon="5.2646131"><ele>340.0</ele><time>2026-04-18T15:42:58.436Z</time></trkpt><trkpt lat="44.750066" lon="5.2646998"><ele>340.5</ele><time>2026-04-18T15:43:00.436Z</time></trkpt><trkpt lat="44.7501577" lon="5.2647718"><ele>341.0</ele><time>2026-04-18T15:43:01.437Z</time></trkpt><trkpt lat="44.7502631" lon="5.2648366"><ele>339.5</ele><time>2026-04-18T15:43:02.437Z</time></trkpt><trkpt lat="44.7503842" lon="5.2649128"><ele>338.0</ele><time>2026-04-18T15:43:03.437Z</time></trkpt><trkpt lat="44.7505138" lon="5.2649909"><ele>336.5</ele><time>2026-04-18T15:43:04.437Z</time></trkpt><trkpt lat="44.7506493" lon="5.2650891"><ele>335.0</ele><time>2026-04-18T15:43:05.437Z</time></trkpt><trkpt lat="44.7507699" lon="5.2652034"><ele>335.0</ele><time>2026-04-18T15:43:06.437Z</time></trkpt><trkpt lat="44.7508887" lon="5.2653206"><ele>335.0</ele><time>2026-04-18T15:43:07.437Z</time></trkpt><trkpt lat="44.7510104" lon="5.2654484"><ele>335.0</ele><time>2026-04-18T15:43:08.437Z</time></trkpt><trkpt lat="44.7511325" lon="5.2656031"><ele>334.0</ele><time>2026-04-18T15:43:09.437Z</time></trkpt><trkpt lat="44.7512471" lon="5.2657785"><ele>333.0</ele><time>2026-04-18T15:43:10.437Z</time></trkpt><trkpt lat="44.751353" lon="5.2659534"><ele>332.0</ele><time>2026-04-18T15:43:11.437Z</time></trkpt><trkpt lat="44.7514585" lon="5.2661294"><ele>332.0</ele><time>2026-04-18T15:43:12.437Z</time></trkpt><trkpt lat="44.7515626" lon="5.2662949"><ele>332.0</ele><time>2026-04-18T15:43:13.436Z</time></trkpt><trkpt lat="44.7516811" lon="5.2664507"><ele>332.0</ele><time>2026-04-18T15:43:14.437Z</time></trkpt><trkpt lat="44.7518085" lon="5.2665963"><ele>333.0</ele><time>2026-04-18T15:43:15.437Z</time></trkpt><trkpt lat="44.7519465" lon="5.2667338"><ele>334.0</ele><time>2026-04-18T15:43:16.437Z</time></trkpt><trkpt lat="44.752083" lon="5.2668459"><ele>335.0</ele><time>2026-04-18T15:43:17.437Z</time></trkpt><trkpt lat="44.7522201" lon="5.2669546"><ele>335.0</ele><time>2026-04-18T15:43:18.437Z</time></trkpt><trkpt lat="44.7523647" lon="5.2670485"><ele>335.0</ele><time>2026-04-18T15:43:19.437Z</time></trkpt><trkpt lat="44.7525104" lon="5.2671346"><ele>335.0</ele><time>2026-04-18T15:43:20.437Z</time></trkpt><trkpt lat="44.7526575" lon="5.2672138"><ele>338.0</ele><time>2026-04-18T15:43:21.437Z</time></trkpt><trkpt lat="44.7528093" lon="5.2672917"><ele>341.0</ele><time>2026-04-18T15:43:22.437Z</time></trkpt><trkpt lat="44.7529617" lon="5.2673666"><ele>344.0</ele><time>2026-04-18T15:43:23.437Z</time></trkpt><trkpt lat="44.7531115" lon="5.2674406"><ele>344.0</ele><time>2026-04-18T15:43:24.436Z</time></trkpt><trkpt lat="44.7532642" lon="5.2675201"><ele>344.0</ele><time>2026-04-18T15:43:25.437Z</time></trkpt><trkpt lat="44.7534237" lon="5.2675928"><ele>344.0</ele><time>2026-04-18T15:43:26.437Z</time></trkpt><trkpt lat="44.7535853" lon="5.2676705"><ele>341.33333333333337</ele><time>2026-04-18T15:43:27.437Z</time></trkpt><trkpt lat="44.7537476" lon="5.2677463"><ele>338.6666666666667</ele><time>2026-04-18T15:43:28.437Z</time></trkpt><trkpt lat="44.7539144" lon="5.2678202"><ele>336.0</ele><time>2026-04-18T15:43:29.436Z</time></trkpt><trkpt lat="44.7540862" lon="5.2678893"><ele>336.0</ele><time>2026-04-18T15:43:30.437Z</time></trkpt><trkpt lat="44.7542716" lon="5.267956"><ele>336.0</ele><time>2026-04-18T15:43:31.437Z</time></trkpt><trkpt lat="44.7544575" lon="5.2680045"><ele>336.0</ele><time>2026-04-18T15:43:32.436Z</time></trkpt><trkpt lat="44.7546445" lon="5.2680425"><ele>337.0</ele><time>2026-04-18T15:43:33.436Z</time></trkpt><trkpt lat="44.7548136" lon="5.2680613"><ele>338.0</ele><time>2026-04-18T15:43:34.437Z</time></trkpt><trkpt lat="44.754985" lon="5.2680772"><ele>339.0</ele><time>2026-04-18T15:43:35.436Z</time></trkpt><trkpt lat="44.7551622" lon="5.2680912"><ele>338.3333333333333</ele><time>2026-04-18T15:43:36.437Z</time></trkpt><trkpt lat="44.7553385" lon="5.2681047"><ele>337.66666666666663</ele><time>2026-04-18T15:43:37.437Z</time></trkpt><trkpt lat="44.7555064" lon="5.2681156"><ele>337.0</ele><time>2026-04-18T15:43:38.437Z</time></trkpt><trkpt lat="44.7556726" lon="5.2681252"><ele>340.0</ele><time>2026-04-18T15:43:39.437Z</time></trkpt><trkpt lat="44.7558446" lon="5.2681439"><ele>343.0</ele><time>2026-04-18T15:43:40.437Z</time></trkpt><trkpt lat="44.7560184" lon="5.2681593"><ele>346.0</ele><time>2026-04-18T15:43:41.436Z</time></trkpt><trkpt lat="44.7561846" lon="5.2681786"><ele>346.0</ele><time>2026-04-18T15:43:42.437Z</time></trkpt><trkpt lat="44.7563473" lon="5.2682134"><ele>346.0</ele><time>2026-04-18T15:43:43.437Z</time></trkpt><trkpt lat="44.7565041" lon="5.2682754"><ele>346.0</ele><time>2026-04-18T15:43:44.437Z</time></trkpt><trkpt lat="44.7566594" lon="5.268369"><ele>346.0</ele><time>2026-04-18T15:43:45.437Z</time></trkpt><trkpt lat="44.7568094" lon="5.2684911"><ele>346.0</ele><time>2026-04-18T15:43:46.437Z</time></trkpt><trkpt lat="44.7569597" lon="5.2686206"><ele>346.0</ele><time>2026-04-18T15:43:47.437Z</time></trkpt><trkpt lat="44.7571048" lon="5.2687538"><ele>346.3333333333333</ele><time>2026-04-18T15:43:48.437Z</time></trkpt><trkpt lat="44.7572468" lon="5.2688806"><ele>346.6666666666667</ele><time>2026-04-18T15:43:49.437Z</time></trkpt><trkpt lat="44.7573908" lon="5.2690111"><ele>347.0</ele><time>2026-04-18T15:43:50.436Z</time></trkpt><trkpt lat="44.7575375" lon="5.2691367"><ele>347.0</ele><time>2026-04-18T15:43:51.437Z</time></trkpt><trkpt lat="44.7576863" lon="5.2692553"><ele>347.0</ele><time>2026-04-18T15:43:52.437Z</time></trkpt><trkpt lat="44.757842" lon="5.2693568"><ele>347.0</ele><time>2026-04-18T15:43:53.437Z</time></trkpt><trkpt lat="44.7580047" lon="5.2694408"><ele>345.0</ele><time>2026-04-18T15:43:54.437Z</time></trkpt><trkpt lat="44.7581813" lon="5.2695088"><ele>343.0</ele><time>2026-04-18T15:43:55.437Z</time></trkpt><trkpt lat="44.7583566" lon="5.2695592"><ele>341.0</ele><time>2026-04-18T15:43:56.436Z</time></trkpt><trkpt lat="44.7585313" lon="5.2696112"><ele>339.6666666666667</ele><time>2026-04-18T15:43:57.437Z</time></trkpt><trkpt lat="44.7587107" lon="5.2696595"><ele>338.3333333333333</ele><time>2026-04-18T15:43:58.436Z</time></trkpt><trkpt lat="44.7588792" lon="5.2697009"><ele>337.0</ele><time>2026-04-18T15:43:59.437Z</time></trkpt><trkpt lat="44.7590475" lon="5.2697438"><ele>339.0</ele><time>2026-04-18T15:44:00.437Z</time></trkpt><trkpt lat="44.7592162" lon="5.2697902"><ele>341.0</ele><time>2026-04-18T15:44:01.436Z</time></trkpt><trkpt lat="44.7593822" lon="5.269839"><ele>343.0</ele><time>2026-04-18T15:44:02.437Z</time></trkpt><trkpt lat="44.7595484" lon="5.2698899"><ele>343.0</ele><time>2026-04-18T15:44:03.437Z</time></trkpt><trkpt lat="44.7597132" lon="5.2699492"><ele>343.0</ele><time>2026-04-18T15:44:04.436Z</time></trkpt><trkpt lat="44.759873" lon="5.2700075"><ele>343.0</ele><time>2026-04-18T15:44:05.436Z</time></trkpt><trkpt lat="44.7600389" lon="5.2700689"><ele>341.0</ele><time>2026-04-18T15:44:06.437Z</time></trkpt><trkpt lat="44.7602046" lon="5.2701351"><ele>339.0</ele><time>2026-04-18T15:44:07.436Z</time></trkpt><trkpt lat="44.760372" lon="5.2701969"><ele>337.0</ele><time>2026-04-18T15:44:08.437Z</time></trkpt><trkpt lat="44.7605454" lon="5.2702608"><ele>337.0</ele><time>2026-04-18T15:44:09.437Z</time></trkpt><trkpt lat="44.7607192" lon="5.2703282"><ele>337.0</ele><time>2026-04-18T15:44:10.436Z</time></trkpt><trkpt lat="44.7608909" lon="5.2703912"><ele>337.0</ele><time>2026-04-18T15:44:11.436Z</time></trkpt><trkpt lat="44.7610537" lon="5.2704439"><ele>337.0</ele><time>2026-04-18T15:44:12.436Z</time></trkpt><trkpt lat="44.7612179" lon="5.27049"><ele>337.0</ele><time>2026-04-18T15:44:13.437Z</time></trkpt><trkpt lat="44.7613879" lon="5.2705287"><ele>337.0</ele><time>2026-04-18T15:44:14.437Z</time></trkpt><trkpt lat="44.7615632" lon="5.2705634"><ele>337.0</ele><time>2026-04-18T15:44:15.437Z</time></trkpt><trkpt lat="44.7617394" lon="5.270587"><ele>337.0</ele><time>2026-04-18T15:44:16.437Z</time></trkpt><trkpt lat="44.7619159" lon="5.2706013"><ele>337.0</ele><time>2026-04-18T15:44:17.437Z</time></trkpt><trkpt lat="44.7620883" lon="5.27062"><ele>339.0</ele><time>2026-04-18T15:44:18.437Z</time></trkpt><trkpt lat="44.7622634" lon="5.2706539"><ele>341.0</ele><time>2026-04-18T15:44:19.437Z</time></trkpt><trkpt lat="44.76243" lon="5.2707235"><ele>343.0</ele><time>2026-04-18T15:44:20.437Z</time></trkpt><trkpt lat="44.7625964" lon="5.2708094"><ele>341.3333333333333</ele><time>2026-04-18T15:44:21.437Z</time></trkpt><trkpt lat="44.7627594" lon="5.2709087"><ele>339.6666666666667</ele><time>2026-04-18T15:44:22.437Z</time></trkpt><trkpt lat="44.7629197" lon="5.2710312"><ele>338.0</ele><time>2026-04-18T15:44:23.437Z</time></trkpt><trkpt lat="44.7630719" lon="5.2711785"><ele>338.0</ele><time>2026-04-18T15:44:24.437Z</time></trkpt><trkpt lat="44.7632111" lon="5.2713563"><ele>338.0</ele><time>2026-04-18T15:44:25.437Z</time></trkpt><trkpt lat="44.76334" lon="5.2715482"><ele>338.0</ele><time>2026-04-18T15:44:26.437Z</time></trkpt><trkpt lat="44.763446" lon="5.2717584"><ele>339.33333333333337</ele><time>2026-04-18T15:44:27.437Z</time></trkpt><trkpt lat="44.7635431" lon="5.271986"><ele>340.6666666666667</ele><time>2026-04-18T15:44:28.436Z</time></trkpt><trkpt lat="44.7636323" lon="5.2722192"><ele>342.0</ele><time>2026-04-18T15:44:29.437Z</time></trkpt><trkpt lat="44.7637073" lon="5.2724533"><ele>343.0</ele><time>2026-04-18T15:44:30.437Z</time></trkpt><trkpt lat="44.7637625" lon="5.2726948"><ele>344.0</ele><time>2026-04-18T15:44:31.437Z</time></trkpt><trkpt lat="44.7638008" lon="5.2729433"><ele>345.0</ele><time>2026-04-18T15:44:32.437Z</time></trkpt><trkpt lat="44.7638266" lon="5.2731962"><ele>345.3333333333333</ele><time>2026-04-18T15:44:33.437Z</time></trkpt><trkpt lat="44.7638373" lon="5.2734484"><ele>345.66666666666663</ele><time>2026-04-18T15:44:34.437Z</time></trkpt><trkpt lat="44.7638484" lon="5.2737075"><ele>346.0</ele><time>2026-04-18T15:44:35.437Z</time></trkpt><trkpt lat="44.7638566" lon="5.2739561"><ele>346.66666666666663</ele><time>2026-04-18T15:44:36.437Z</time></trkpt><trkpt lat="44.7638635" lon="5.2741915"><ele>347.3333333333333</ele><time>2026-04-18T15:44:37.437Z</time></trkpt><trkpt lat="44.7638676" lon="5.2744297"><ele>348.0</ele><time>2026-04-18T15:44:38.437Z</time></trkpt><trkpt lat="44.763872" lon="5.2746652"><ele>349.0</ele><time>2026-04-18T15:44:39.437Z</time></trkpt><trkpt lat="44.7638705" lon="5.2749005"><ele>350.0</ele><time>2026-04-18T15:44:40.437Z</time></trkpt><trkpt lat="44.7638753" lon="5.2751411"><ele>351.0</ele><time>2026-04-18T15:44:41.437Z</time></trkpt><trkpt lat="44.7638842" lon="5.2753766"><ele>351.0</ele><time>2026-04-18T15:44:42.437Z</time></trkpt><trkpt lat="44.7639" lon="5.2756135"><ele>351.0</ele><time>2026-04-18T15:44:43.437Z</time></trkpt><trkpt lat="44.7639175" lon="5.2758537"><ele>351.0</ele><time>2026-04-18T15:44:44.436Z</time></trkpt><trkpt lat="44.7639456" lon="5.276098"><ele>351.0</ele><time>2026-04-18T15:44:45.437Z</time></trkpt><trkpt lat="44.7639766" lon="5.2763363"><ele>351.0</ele><time>2026-04-18T15:44:46.437Z</time></trkpt><trkpt lat="44.7640098" lon="5.2765816"><ele>351.0</ele><time>2026-04-18T15:44:47.436Z</time></trkpt><trkpt lat="44.7640418" lon="5.2768246"><ele>351.6666666666667</ele><time>2026-04-18T15:44:48.436Z</time></trkpt><trkpt lat="44.7640756" lon="5.2770653"><ele>352.33333333333337</ele><time>2026-04-18T15:44:49.437Z</time></trkpt><trkpt lat="44.7641087" lon="5.2773068"><ele>353.0</ele><time>2026-04-18T15:44:50.437Z</time></trkpt><trkpt lat="44.7641508" lon="5.277551"><ele>354.33333333333337</ele><time>2026-04-18T15:44:51.437Z</time></trkpt><trkpt lat="44.7642002" lon="5.2777916"><ele>355.6666666666667</ele><time>2026-04-18T15:44:52.437Z</time></trkpt><trkpt lat="44.7642578" lon="5.2780322"><ele>357.0</ele><time>2026-04-18T15:44:53.437Z</time></trkpt><trkpt lat="44.764329" lon="5.2782717"><ele>354.6666666666667</ele><time>2026-04-18T15:44:54.437Z</time></trkpt><trkpt lat="44.7644042" lon="5.2785123"><ele>352.33333333333337</ele><time>2026-04-18T15:44:55.436Z</time></trkpt><trkpt lat="44.7644727" lon="5.2787466"><ele>350.0</ele><time>2026-04-18T15:44:56.437Z</time></trkpt><trkpt lat="44.7645418" lon="5.2789918"><ele>349.33333333333337</ele><time>2026-04-18T15:44:57.437Z</time></trkpt><trkpt lat="44.7646018" lon="5.279243"><ele>348.6666666666667</ele><time>2026-04-18T15:44:58.437Z</time></trkpt><trkpt lat="44.7646473" lon="5.2795029"><ele>348.0</ele><time>2026-04-18T15:44:59.437Z</time></trkpt><trkpt lat="44.7646795" lon="5.2797691"><ele>348.0</ele><time>2026-04-18T15:45:00.437Z</time></trkpt><trkpt lat="44.7646998" lon="5.280032"><ele>348.0</ele><time>2026-04-18T15:45:01.437Z</time></trkpt><trkpt lat="44.7646963" lon="5.2802794"><ele>348.0</ele><time>2026-04-18T15:45:02.437Z</time></trkpt><trkpt lat="44.7646801" lon="5.2805199"><ele>348.0</ele><time>2026-04-18T15:45:03.437Z</time></trkpt><trkpt lat="44.7646439" lon="5.2807598"><ele>348.0</ele><time>2026-04-18T15:45:04.437Z</time></trkpt><trkpt lat="44.7645903" lon="5.2810089"><ele>348.0</ele><time>2026-04-18T15:45:05.436Z</time></trkpt><trkpt lat="44.764522" lon="5.2812609"><ele>347.3333333333333</ele><time>2026-04-18T15:45:06.437Z</time></trkpt><trkpt lat="44.7644436" lon="5.2815148"><ele>346.66666666666663</ele><time>2026-04-18T15:45:07.437Z</time></trkpt><trkpt lat="44.7643606" lon="5.2817839"><ele>346.0</ele><time>2026-04-18T15:45:08.437Z</time></trkpt><trkpt lat="44.7642801" lon="5.2820462"><ele>349.66666666666663</ele><time>2026-04-18T15:45:09.436Z</time></trkpt><trkpt lat="44.7641972" lon="5.2823078"><ele>353.3333333333333</ele><time>2026-04-18T15:45:10.437Z</time></trkpt><trkpt lat="44.7641202" lon="5.2825563"><ele>357.0</ele><time>2026-04-18T15:45:11.437Z</time></trkpt><trkpt lat="44.7640429" lon="5.2828"><ele>357.0</ele><time>2026-04-18T15:45:12.437Z</time></trkpt><trkpt lat="44.763966" lon="5.2830367"><ele>357.0</ele><time>2026-04-18T15:45:13.437Z</time></trkpt><trkpt lat="44.7638869" lon="5.2832706"><ele>357.0</ele><time>2026-04-18T15:45:14.437Z</time></trkpt><trkpt lat="44.7638112" lon="5.2835081"><ele>354.3333333333333</ele><time>2026-04-18T15:45:15.437Z</time></trkpt><trkpt lat="44.763738" lon="5.2837456"><ele>351.66666666666663</ele><time>2026-04-18T15:45:16.437Z</time></trkpt><trkpt lat="44.7636704" lon="5.2839855"><ele>349.0</ele><time>2026-04-18T15:45:17.437Z</time></trkpt><trkpt lat="44.7636032" lon="5.2842255"><ele>348.3333333333333</ele><time>2026-04-18T15:45:18.438Z</time></trkpt><trkpt lat="44.7635384" lon="5.2844654"><ele>347.6666666666667</ele><time>2026-04-18T15:45:19.437Z</time></trkpt><trkpt lat="44.7634705" lon="5.2847068"><ele>347.0</ele><time>2026-04-18T15:45:20.437Z</time></trkpt><trkpt lat="44.7634139" lon="5.284953"><ele>350.33333333333337</ele><time>2026-04-18T15:45:21.437Z</time></trkpt><trkpt lat="44.763363" lon="5.2851977"><ele>353.6666666666667</ele><time>2026-04-18T15:45:22.437Z</time></trkpt><trkpt lat="44.7633117" lon="5.2854466"><ele>357.0</ele><time>2026-04-18T15:45:23.437Z</time></trkpt><trkpt lat="44.7632588" lon="5.2856924"><ele>357.0</ele><time>2026-04-18T15:45:24.437Z</time></trkpt><trkpt lat="44.7632063" lon="5.28594"><ele>357.0</ele><time>2026-04-18T15:45:25.437Z</time></trkpt><trkpt lat="44.7631586" lon="5.2861894"><ele>357.0</ele><time>2026-04-18T15:45:26.437Z</time></trkpt><trkpt lat="44.7631092" lon="5.2864393"><ele>356.0</ele><time>2026-04-18T15:45:27.437Z</time></trkpt><trkpt lat="44.7630615" lon="5.2866705"><ele>355.0</ele><time>2026-04-18T15:45:28.436Z</time></trkpt><trkpt lat="44.7630145" lon="5.2869018"><ele>354.0</ele><time>2026-04-18T15:45:29.437Z</time></trkpt><trkpt lat="44.7629629" lon="5.2871346"><ele>355.3333333333333</ele><time>2026-04-18T15:45:30.436Z</time></trkpt><trkpt lat="44.7629154" lon="5.2873799"><ele>356.66666666666663</ele><time>2026-04-18T15:45:31.436Z</time></trkpt><trkpt lat="44.7628516" lon="5.2876219"><ele>358.0</ele><time>2026-04-18T15:45:32.437Z</time></trkpt><trkpt lat="44.7627714" lon="5.2878669"><ele>361.66666666666663</ele><time>2026-04-18T15:45:33.436Z</time></trkpt><trkpt lat="44.7626849" lon="5.2881095"><ele>365.3333333333333</ele><time>2026-04-18T15:45:34.436Z</time></trkpt><trkpt lat="44.7625981" lon="5.288341"><ele>369.0</ele><time>2026-04-18T15:45:35.437Z</time></trkpt><trkpt lat="44.7625129" lon="5.2885687"><ele>369.0</ele><time>2026-04-18T15:45:36.437Z</time></trkpt><trkpt lat="44.7624348" lon="5.2887875"><ele>369.0</ele><time>2026-04-18T15:45:37.437Z</time></trkpt><trkpt lat="44.7623596" lon="5.2890095"><ele>369.0</ele><time>2026-04-18T15:45:38.437Z</time></trkpt><trkpt lat="44.7622855" lon="5.289222"><ele>364.6666666666667</ele><time>2026-04-18T15:45:39.437Z</time></trkpt><trkpt lat="44.762216" lon="5.2894287"><ele>360.33333333333337</ele><time>2026-04-18T15:45:40.437Z</time></trkpt><trkpt lat="44.7621532" lon="5.2896393"><ele>356.0</ele><time>2026-04-18T15:45:41.437Z</time></trkpt><trkpt lat="44.762095" lon="5.2898569"><ele>355.33333333333337</ele><time>2026-04-18T15:45:42.436Z</time></trkpt><trkpt lat="44.7620462" lon="5.2900778"><ele>354.6666666666667</ele><time>2026-04-18T15:45:43.437Z</time></trkpt><trkpt lat="44.7620051" lon="5.2902998"><ele>354.0</ele><time>2026-04-18T15:45:44.437Z</time></trkpt><trkpt lat="44.7619612" lon="5.2905293"><ele>355.0</ele><time>2026-04-18T15:45:45.437Z</time></trkpt><trkpt lat="44.7619025" lon="5.2907519"><ele>356.0</ele><time>2026-04-18T15:45:46.437Z</time></trkpt><trkpt lat="44.7618479" lon="5.2909735"><ele>357.0</ele><time>2026-04-18T15:45:47.437Z</time></trkpt><trkpt lat="44.7618048" lon="5.2912047"><ele>362.6666666666667</ele><time>2026-04-18T15:45:48.437Z</time></trkpt><trkpt lat="44.7617778" lon="5.2914438"><ele>368.33333333333337</ele><time>2026-04-18T15:45:49.436Z</time></trkpt><trkpt lat="44.7617649" lon="5.2916695"><ele>374.0</ele><time>2026-04-18T15:45:50.437Z</time></trkpt><trkpt lat="44.7617562" lon="5.2918935"><ele>374.0</ele><time>2026-04-18T15:45:51.437Z</time></trkpt><trkpt lat="44.7617436" lon="5.2921081"><ele>374.0</ele><time>2026-04-18T15:45:52.437Z</time></trkpt><trkpt lat="44.7617388" lon="5.2923275"><ele>374.0</ele><time>2026-04-18T15:45:53.436Z</time></trkpt><trkpt lat="44.7617635" lon="5.2925562"><ele>374.0</ele><time>2026-04-18T15:45:54.437Z</time></trkpt><trkpt lat="44.7618049" lon="5.292783"><ele>374.0</ele><time>2026-04-18T15:45:55.436Z</time></trkpt><trkpt lat="44.7618731" lon="5.2930026"><ele>374.0</ele><time>2026-04-18T15:45:56.437Z</time></trkpt><trkpt lat="44.7619545" lon="5.2932281"><ele>368.0</ele><time>2026-04-18T15:45:57.437Z</time></trkpt><trkpt lat="44.7620287" lon="5.2934459"><ele>362.0</ele><time>2026-04-18T15:45:58.437Z</time></trkpt><trkpt lat="44.7621056" lon="5.2936615"><ele>356.0</ele><time>2026-04-18T15:45:59.437Z</time></trkpt><trkpt lat="44.7621861" lon="5.2938854"><ele>358.0</ele><time>2026-04-18T15:46:00.437Z</time></trkpt><trkpt lat="44.762268" lon="5.2941163"><ele>360.0</ele><time>2026-04-18T15:46:01.437Z</time></trkpt><trkpt lat="44.7623461" lon="5.2943577"><ele>362.0</ele><time>2026-04-18T15:46:02.437Z</time></trkpt><trkpt lat="44.7624106" lon="5.2946125"><ele>363.33333333333337</ele><time>2026-04-18T15:46:03.437Z</time></trkpt><trkpt lat="44.7624529" lon="5.2948747"><ele>364.6666666666667</ele><time>2026-04-18T15:46:04.437Z</time></trkpt><trkpt lat="44.7624803" lon="5.2951559"><ele>366.0</ele><time>2026-04-18T15:46:05.437Z</time></trkpt><trkpt lat="44.7625017" lon="5.2954324"><ele>367.6666666666667</ele><time>2026-04-18T15:46:06.436Z</time></trkpt><trkpt lat="44.762526" lon="5.2956967"><ele>369.33333333333337</ele><time>2026-04-18T15:46:07.437Z</time></trkpt><trkpt lat="44.7625665" lon="5.2959539"><ele>371.0</ele><time>2026-04-18T15:46:08.437Z</time></trkpt><trkpt lat="44.7626365" lon="5.2962098"><ele>365.6666666666667</ele><time>2026-04-18T15:46:09.437Z</time></trkpt><trkpt lat="44.7627224" lon="5.296472"><ele>360.3333333333333</ele><time>2026-04-18T15:46:10.437Z</time></trkpt><trkpt lat="44.7628061" lon="5.2967309"><ele>355.0</ele><time>2026-04-18T15:46:11.437Z</time></trkpt><trkpt lat="44.7628867" lon="5.2970006"><ele>356.0</ele><time>2026-04-18T15:46:12.437Z</time></trkpt><trkpt lat="44.7629531" lon="5.2972696"><ele>357.0</ele><time>2026-04-18T15:46:13.436Z</time></trkpt><trkpt lat="44.7630124" lon="5.2975488"><ele>358.0</ele><time>2026-04-18T15:46:14.437Z</time></trkpt><trkpt lat="44.7630659" lon="5.2978259"><ele>360.0</ele><time>2026-04-18T15:46:15.437Z</time></trkpt><trkpt lat="44.7631155" lon="5.2981019"><ele>362.0</ele><time>2026-04-18T15:46:16.437Z</time></trkpt><trkpt lat="44.763153" lon="5.2983784"><ele>364.0</ele><time>2026-04-18T15:46:17.436Z</time></trkpt><trkpt lat="44.763192" lon="5.2986457"><ele>364.0</ele><time>2026-04-18T15:46:18.437Z</time></trkpt><trkpt lat="44.7632254" lon="5.298916"><ele>364.0</ele><time>2026-04-18T15:46:19.437Z</time></trkpt><trkpt lat="44.7632535" lon="5.2991846"><ele>364.0</ele><time>2026-04-18T15:46:20.437Z</time></trkpt><trkpt lat="44.7632727" lon="5.2994596"><ele>364.0</ele><time>2026-04-18T15:46:21.436Z</time></trkpt><trkpt lat="44.7632733" lon="5.299738"><ele>364.0</ele><time>2026-04-18T15:46:22.437Z</time></trkpt><trkpt lat="44.7632553" lon="5.3000086"><ele>364.0</ele><time>2026-04-18T15:46:23.437Z</time></trkpt><trkpt lat="44.7632197" lon="5.3002774"><ele>364.3333333333333</ele><time>2026-04-18T15:46:24.437Z</time></trkpt><trkpt lat="44.7631653" lon="5.3005452"><ele>364.6666666666667</ele><time>2026-04-18T15:46:25.437Z</time></trkpt><trkpt lat="44.7630994" lon="5.3008175"><ele>365.0</ele><time>2026-04-18T15:46:26.437Z</time></trkpt><trkpt lat="44.763027" lon="5.3010853"><ele>364.0</ele><time>2026-04-18T15:46:27.437Z</time></trkpt><trkpt lat="44.7629464" lon="5.3013439"><ele>363.0</ele><time>2026-04-18T15:46:28.436Z</time></trkpt><trkpt lat="44.7628717" lon="5.3016061"><ele>362.0</ele><time>2026-04-18T15:46:29.437Z</time></trkpt><trkpt lat="44.7628118" lon="5.3018741"><ele>359.6666666666667</ele><time>2026-04-18T15:46:30.436Z</time></trkpt><trkpt lat="44.7627672" lon="5.3021411"><ele>357.3333333333333</ele><time>2026-04-18T15:46:31.436Z</time></trkpt><trkpt lat="44.7627323" lon="5.3024071"><ele>355.0</ele><time>2026-04-18T15:46:32.436Z</time></trkpt><trkpt lat="44.7626992" lon="5.3026764"><ele>361.0</ele><time>2026-04-18T15:46:33.437Z</time></trkpt><trkpt lat="44.762673" lon="5.3029448"><ele>367.0</ele><time>2026-04-18T15:46:34.436Z</time></trkpt><trkpt lat="44.7626577" lon="5.3032116"><ele>373.0</ele><time>2026-04-18T15:46:35.437Z</time></trkpt><trkpt lat="44.7626448" lon="5.3034832"><ele>373.0</ele><time>2026-04-18T15:46:36.437Z</time></trkpt><trkpt lat="44.7626369" lon="5.3037561"><ele>373.0</ele><time>2026-04-18T15:46:37.437Z</time></trkpt><trkpt lat="44.7626384" lon="5.30403"><ele>373.0</ele><time>2026-04-18T15:46:38.437Z</time></trkpt><trkpt lat="44.7626469" lon="5.3043041"><ele>373.0</ele><time>2026-04-18T15:46:39.436Z</time></trkpt><trkpt lat="44.7626586" lon="5.3045745"><ele>373.0</ele><time>2026-04-18T15:46:40.437Z</time></trkpt><trkpt lat="44.7626692" lon="5.3048494"><ele>373.0</ele><time>2026-04-18T15:46:41.437Z</time></trkpt><trkpt lat="44.7626926" lon="5.305114"><ele>368.3333333333333</ele><time>2026-04-18T15:46:42.437Z</time></trkpt><trkpt lat="44.762721" lon="5.3053753"><ele>363.6666666666667</ele><time>2026-04-18T15:46:43.436Z</time></trkpt><trkpt lat="44.76276" lon="5.305626"><ele>359.0</ele><time>2026-04-18T15:46:44.437Z</time></trkpt><trkpt lat="44.7628062" lon="5.3058723"><ele>359.0</ele><time>2026-04-18T15:46:45.436Z</time></trkpt><trkpt lat="44.7628663" lon="5.3061185"><ele>359.0</ele><time>2026-04-18T15:46:46.437Z</time></trkpt><trkpt lat="44.7629408" lon="5.3063643"><ele>359.0</ele><time>2026-04-18T15:46:47.437Z</time></trkpt><trkpt lat="44.7630186" lon="5.3066046"><ele>359.6666666666667</ele><time>2026-04-18T15:46:48.437Z</time></trkpt><trkpt lat="44.7631052" lon="5.3068585"><ele>360.3333333333333</ele><time>2026-04-18T15:46:49.437Z</time></trkpt><trkpt lat="44.7631931" lon="5.3071101"><ele>361.0</ele><time>2026-04-18T15:46:50.437Z</time></trkpt><trkpt lat="44.7632826" lon="5.307365"><ele>360.66666666666663</ele><time>2026-04-18T15:46:51.437Z</time></trkpt><trkpt lat="44.76337" lon="5.3076189"><ele>360.3333333333333</ele><time>2026-04-18T15:46:52.437Z</time></trkpt><trkpt lat="44.7634527" lon="5.3078585"><ele>360.0</ele><time>2026-04-18T15:46:53.436Z</time></trkpt><trkpt lat="44.7635374" lon="5.3081071"><ele>360.0</ele><time>2026-04-18T15:46:54.436Z</time></trkpt><trkpt lat="44.763618" lon="5.3083493"><ele>360.0</ele><time>2026-04-18T15:46:55.436Z</time></trkpt><trkpt lat="44.7636973" lon="5.3085979"><ele>360.0</ele><time>2026-04-18T15:46:56.437Z</time></trkpt><trkpt lat="44.7637888" lon="5.3088586"><ele>359.3333333333333</ele><time>2026-04-18T15:46:57.437Z</time></trkpt><trkpt lat="44.7638854" lon="5.3091234"><ele>358.66666666666663</ele><time>2026-04-18T15:46:58.437Z</time></trkpt><trkpt lat="44.7639936" lon="5.3094066"><ele>358.0</ele><time>2026-04-18T15:46:59.437Z</time></trkpt><trkpt lat="44.7641142" lon="5.3096935"><ele>357.5</ele><time>2026-04-18T15:47:00.437Z</time></trkpt><trkpt lat="44.764256" lon="5.3099784"><ele>357.0</ele><time>2026-04-18T15:47:01.436Z</time></trkpt><trkpt lat="44.7644156" lon="5.3102666"><ele>357.0</ele><time>2026-04-18T15:47:02.436Z</time></trkpt><trkpt lat="44.7645782" lon="5.3105573"><ele>357.0</ele><time>2026-04-18T15:47:03.437Z</time></trkpt><trkpt lat="44.7647483" lon="5.3108422"><ele>359.0</ele><time>2026-04-18T15:47:04.437Z</time></trkpt><trkpt lat="44.7649162" lon="5.31112"><ele>361.0</ele><time>2026-04-18T15:47:05.436Z</time></trkpt><trkpt lat="44.765085" lon="5.3113934"><ele>361.0</ele><time>2026-04-18T15:47:06.437Z</time></trkpt><trkpt lat="44.7652421" lon="5.311657"><ele>361.0</ele><time>2026-04-18T15:47:07.437Z</time></trkpt><trkpt lat="44.7654037" lon="5.3119231"><ele>361.0</ele><time>2026-04-18T15:47:08.437Z</time></trkpt><trkpt lat="44.7655641" lon="5.3121836"><ele>361.0</ele><time>2026-04-18T15:47:09.438Z</time></trkpt><trkpt lat="44.7657231" lon="5.3124399"><ele>362.0</ele><time>2026-04-18T15:47:10.437Z</time></trkpt><trkpt lat="44.7658799" lon="5.3126931"><ele>363.0</ele><time>2026-04-18T15:47:11.437Z</time></trkpt><trkpt lat="44.7660362" lon="5.3129474"><ele>363.5</ele><time>2026-04-18T15:47:12.437Z</time></trkpt><trkpt lat="44.7661864" lon="5.3131962"><ele>364.0</ele><time>2026-04-18T15:47:13.437Z</time></trkpt><trkpt lat="44.7663445" lon="5.3134455"><ele>364.0</ele><time>2026-04-18T15:47:14.436Z</time></trkpt><trkpt lat="44.7664794" lon="5.3136907"><ele>364.0</ele><time>2026-04-18T15:47:15.437Z</time></trkpt><trkpt lat="44.7666064" lon="5.3139292"><ele>364.0</ele><time>2026-04-18T15:47:16.437Z</time></trkpt><trkpt lat="44.7667337" lon="5.3141775"><ele>363.66666666666663</ele><time>2026-04-18T15:47:17.436Z</time></trkpt><trkpt lat="44.7668492" lon="5.3144315"><ele>363.3333333333333</ele><time>2026-04-18T15:47:18.437Z</time></trkpt><trkpt lat="44.7669565" lon="5.3146903"><ele>363.0</ele><time>2026-04-18T15:47:19.437Z</time></trkpt><trkpt lat="44.7670603" lon="5.3149623"><ele>363.0</ele><time>2026-04-18T15:47:20.437Z</time></trkpt><trkpt lat="44.7671563" lon="5.3152358"><ele>363.0</ele><time>2026-04-18T15:47:21.437Z</time></trkpt><trkpt lat="44.7672532" lon="5.3155115"><ele>363.0</ele><time>2026-04-18T15:47:22.437Z</time></trkpt><trkpt lat="44.7673449" lon="5.3157945"><ele>364.0</ele><time>2026-04-18T15:47:23.437Z</time></trkpt><trkpt lat="44.7674365" lon="5.3160766"><ele>365.0</ele><time>2026-04-18T15:47:24.438Z</time></trkpt><trkpt lat="44.7675232" lon="5.3163584"><ele>366.0</ele><time>2026-04-18T15:47:25.437Z</time></trkpt><trkpt lat="44.7675985" lon="5.316651"><ele>365.3333333333333</ele><time>2026-04-18T15:47:26.437Z</time></trkpt><trkpt lat="44.7676604" lon="5.3169488"><ele>364.66666666666663</ele><time>2026-04-18T15:47:27.437Z</time></trkpt><trkpt lat="44.7677056" lon="5.3172448"><ele>364.0</ele><time>2026-04-18T15:47:28.437Z</time></trkpt><trkpt lat="44.7677305" lon="5.3175466"><ele>364.0</ele><time>2026-04-18T15:47:29.437Z</time></trkpt><trkpt lat="44.7677355" lon="5.3178488"><ele>364.0</ele><time>2026-04-18T15:47:30.437Z</time></trkpt><trkpt lat="44.7677215" lon="5.3181508"><ele>364.0</ele><time>2026-04-18T15:47:31.436Z</time></trkpt><trkpt lat="44.7676823" lon="5.3184545"><ele>368.0</ele><time>2026-04-18T15:47:32.437Z</time></trkpt><trkpt lat="44.7676338" lon="5.3187675"><ele>372.0</ele><time>2026-04-18T15:47:33.436Z</time></trkpt><trkpt lat="44.7675794" lon="5.3190902"><ele>372.0</ele><time>2026-04-18T15:47:34.437Z</time></trkpt><trkpt lat="44.7675208" lon="5.3194273"><ele>372.0</ele><time>2026-04-18T15:47:35.437Z</time></trkpt><trkpt lat="44.76746" lon="5.3197644"><ele>371.0</ele><time>2026-04-18T15:47:36.437Z</time></trkpt><trkpt lat="44.7673992" lon="5.3201032"><ele>370.0</ele><time>2026-04-18T15:47:37.436Z</time></trkpt><trkpt lat="44.7673363" lon="5.3204365"><ele>369.5</ele><time>2026-04-18T15:47:38.436Z</time></trkpt><trkpt lat="44.7672802" lon="5.3207764"><ele>369.0</ele><time>2026-04-18T15:47:39.437Z</time></trkpt><trkpt lat="44.7672186" lon="5.3211077"><ele>368.5</ele><time>2026-04-18T15:47:40.437Z</time></trkpt><trkpt lat="44.7671636" lon="5.3214294"><ele>368.0</ele><time>2026-04-18T15:47:41.437Z</time></trkpt><trkpt lat="44.767107" lon="5.321754"><ele>368.0</ele><time>2026-04-18T15:47:42.437Z</time></trkpt><trkpt lat="44.7670516" lon="5.3220742"><ele>368.0</ele><time>2026-04-18T15:47:43.437Z</time></trkpt><trkpt lat="44.7669957" lon="5.3223954"><ele>368.5</ele><time>2026-04-18T15:47:44.437Z</time></trkpt><trkpt lat="44.7669407" lon="5.3227122"><ele>369.0</ele><time>2026-04-18T15:47:45.436Z</time></trkpt><trkpt lat="44.7668813" lon="5.3230285"><ele>371.0</ele><time>2026-04-18T15:47:46.437Z</time></trkpt><trkpt lat="44.7668254" lon="5.3233409"><ele>373.0</ele><time>2026-04-18T15:47:47.437Z</time></trkpt><trkpt lat="44.7667691" lon="5.3236551"><ele>371.5</ele><time>2026-04-18T15:47:48.437Z</time></trkpt><trkpt lat="44.7667207" lon="5.3239668"><ele>370.0</ele><time>2026-04-18T15:47:49.437Z</time></trkpt><trkpt lat="44.766676" lon="5.3242782"><ele>370.0</ele><time>2026-04-18T15:47:50.437Z</time></trkpt><trkpt lat="44.766635" lon="5.3245929"><ele>370.0</ele><time>2026-04-18T15:47:51.437Z</time></trkpt><trkpt lat="44.7666008" lon="5.32491"><ele>369.0</ele><time>2026-04-18T15:47:52.436Z</time></trkpt><trkpt lat="44.7665737" lon="5.3252247"><ele>368.0</ele><time>2026-04-18T15:47:53.436Z</time></trkpt><trkpt lat="44.7665495" lon="5.3255407"><ele>369.5</ele><time>2026-04-18T15:47:54.438Z</time></trkpt><trkpt lat="44.766532" lon="5.3258601"><ele>371.0</ele><time>2026-04-18T15:47:55.437Z</time></trkpt><trkpt lat="44.7665203" lon="5.32618"><ele>371.5</ele><time>2026-04-18T15:47:56.437Z</time></trkpt><trkpt lat="44.7665105" lon="5.3265069"><ele>372.0</ele><time>2026-04-18T15:47:57.437Z</time></trkpt><trkpt lat="44.7665076" lon="5.3268441"><ele>372.0</ele><time>2026-04-18T15:47:58.436Z</time></trkpt><trkpt lat="44.7665024" lon="5.3271793"><ele>372.0</ele><time>2026-04-18T15:47:59.436Z</time></trkpt><trkpt lat="44.7664949" lon="5.3275075"><ele>372.0</ele><time>2026-04-18T15:48:00.438Z</time></trkpt><trkpt lat="44.7664899" lon="5.327825"><ele>372.0</ele><time>2026-04-18T15:48:01.437Z</time></trkpt><trkpt lat="44.7664923" lon="5.3281492"><ele>372.5</ele><time>2026-04-18T15:48:02.437Z</time></trkpt><trkpt lat="44.7664947" lon="5.3284662"><ele>373.0</ele><time>2026-04-18T15:48:03.437Z</time></trkpt><trkpt lat="44.7665028" lon="5.3287837"><ele>373.5</ele><time>2026-04-18T15:48:04.437Z</time></trkpt><trkpt lat="44.7665141" lon="5.3291058"><ele>374.0</ele><time>2026-04-18T15:48:05.437Z</time></trkpt><trkpt lat="44.766525" lon="5.3294325"><ele>374.0</ele><time>2026-04-18T15:48:06.437Z</time></trkpt><trkpt lat="44.7665337" lon="5.3297609"><ele>374.0</ele><time>2026-04-18T15:48:07.437Z</time></trkpt><trkpt lat="44.7665346" lon="5.3300914"><ele>374.0</ele><time>2026-04-18T15:48:08.437Z</time></trkpt><trkpt lat="44.7665318" lon="5.3304251"><ele>374.0</ele><time>2026-04-18T15:48:09.437Z</time></trkpt><trkpt lat="44.7665171" lon="5.3307551"><ele>373.5</ele><time>2026-04-18T15:48:10.437Z</time></trkpt><trkpt lat="44.7665161" lon="5.3310965"><ele>373.0</ele><time>2026-04-18T15:48:11.437Z</time></trkpt><trkpt lat="44.7664431" lon="5.3314026"><ele>373.0</ele><time>2026-04-18T15:48:12.436Z</time></trkpt><trkpt lat="44.7663851" lon="5.3317155"><ele>373.0</ele><time>2026-04-18T15:48:13.437Z</time></trkpt><trkpt lat="44.7663156" lon="5.3320302"><ele>371.0</ele><time>2026-04-18T15:48:14.437Z</time></trkpt><trkpt lat="44.7662347" lon="5.3323384"><ele>369.0</ele><time>2026-04-18T15:48:15.437Z</time></trkpt><trkpt lat="44.766148" lon="5.3326401"><ele>369.0</ele><time>2026-04-18T15:48:16.436Z</time></trkpt><trkpt lat="44.7660597" lon="5.3329401"><ele>369.0</ele><time>2026-04-18T15:48:17.437Z</time></trkpt><trkpt lat="44.7659706" lon="5.3332457"><ele>371.0</ele><time>2026-04-18T15:48:18.437Z</time></trkpt><trkpt lat="44.7658776" lon="5.3335566"><ele>373.0</ele><time>2026-04-18T15:48:19.436Z</time></trkpt><trkpt lat="44.7657837" lon="5.333874"><ele>373.0</ele><time>2026-04-18T15:48:20.437Z</time></trkpt><trkpt lat="44.7656865" lon="5.3341901"><ele>373.0</ele><time>2026-04-18T15:48:21.437Z</time></trkpt><trkpt lat="44.7655881" lon="5.3345116"><ele>373.5</ele><time>2026-04-18T15:48:22.437Z</time></trkpt><trkpt lat="44.7654986" lon="5.3348106"><ele>374.0</ele><time>2026-04-18T15:48:23.437Z</time></trkpt><trkpt lat="44.7654099" lon="5.3351064"><ele>374.0</ele><time>2026-04-18T15:48:24.436Z</time></trkpt><trkpt lat="44.7653249" lon="5.3353943"><ele>374.0</ele><time>2026-04-18T15:48:25.437Z</time></trkpt><trkpt lat="44.7652521" lon="5.3356666"><ele>374.0</ele><time>2026-04-18T15:48:26.437Z</time></trkpt><trkpt lat="44.7651909" lon="5.3359283"><ele>374.33333333333337</ele><time>2026-04-18T15:48:27.438Z</time></trkpt><trkpt lat="44.7651404" lon="5.3361834"><ele>374.6666666666667</ele><time>2026-04-18T15:48:28.437Z</time></trkpt><trkpt lat="44.7651018" lon="5.3364324"><ele>375.0</ele><time>2026-04-18T15:48:29.437Z</time></trkpt><trkpt lat="44.7650728" lon="5.3366773"><ele>375.0</ele><time>2026-04-18T15:48:30.437Z</time></trkpt><trkpt lat="44.765049" lon="5.3369255"><ele>375.0</ele><time>2026-04-18T15:48:31.437Z</time></trkpt><trkpt lat="44.7650277" lon="5.3371849"><ele>375.0</ele><time>2026-04-18T15:48:32.437Z</time></trkpt><trkpt lat="44.7650021" lon="5.3374597"><ele>375.0</ele><time>2026-04-18T15:48:33.437Z</time></trkpt><trkpt lat="44.7649756" lon="5.3377482"><ele>375.0</ele><time>2026-04-18T15:48:34.437Z</time></trkpt><trkpt lat="44.764948" lon="5.3380471"><ele>375.0</ele><time>2026-04-18T15:48:35.437Z</time></trkpt><trkpt lat="44.7649183" lon="5.3383633"><ele>375.0</ele><time>2026-04-18T15:48:36.437Z</time></trkpt><trkpt lat="44.7648917" lon="5.3386938"><ele>375.0</ele><time>2026-04-18T15:48:37.436Z</time></trkpt><trkpt lat="44.7648608" lon="5.3390326"><ele>375.5</ele><time>2026-04-18T15:48:38.437Z</time></trkpt><trkpt lat="44.7648265" lon="5.3393541"><ele>376.0</ele><time>2026-04-18T15:48:39.437Z</time></trkpt><trkpt lat="44.7647965" lon="5.3396626"><ele>376.0</ele><time>2026-04-18T15:48:40.436Z</time></trkpt><trkpt lat="44.7647648" lon="5.3399683"><ele>376.0</ele><time>2026-04-18T15:48:41.437Z</time></trkpt><trkpt lat="44.7647281" lon="5.3402783"><ele>376.0</ele><time>2026-04-18T15:48:42.437Z</time></trkpt><trkpt lat="44.7646823" lon="5.3405861"><ele>377.0</ele><time>2026-04-18T15:48:43.436Z</time></trkpt><trkpt lat="44.7646249" lon="5.3408964"><ele>378.0</ele><time>2026-04-18T15:48:44.437Z</time></trkpt><trkpt lat="44.7645576" lon="5.3411968"><ele>378.3333333333333</ele><time>2026-04-18T15:48:45.437Z</time></trkpt><trkpt lat="44.7644946" lon="5.3414949"><ele>378.66666666666663</ele><time>2026-04-18T15:48:46.437Z</time></trkpt><trkpt lat="44.7644261" lon="5.3417897"><ele>379.0</ele><time>2026-04-18T15:48:47.437Z</time></trkpt><trkpt lat="44.764355" lon="5.342076"><ele>378.3333333333333</ele><time>2026-04-18T15:48:48.437Z</time></trkpt><trkpt lat="44.7642881" lon="5.3423532"><ele>377.6666666666667</ele><time>2026-04-18T15:48:49.437Z</time></trkpt><trkpt lat="44.7642265" lon="5.3426168"><ele>377.0</ele><time>2026-04-18T15:48:50.436Z</time></trkpt><trkpt lat="44.7641669" lon="5.3428796"><ele>376.33333333333337</ele><time>2026-04-18T15:48:51.436Z</time></trkpt><trkpt lat="44.7641042" lon="5.3431369"><ele>375.6666666666667</ele><time>2026-04-18T15:48:52.436Z</time></trkpt><trkpt lat="44.7640416" lon="5.3433882"><ele>375.0</ele><time>2026-04-18T15:48:53.436Z</time></trkpt><trkpt lat="44.7639804" lon="5.3436285"><ele>375.0</ele><time>2026-04-18T15:48:54.435Z</time></trkpt><trkpt lat="44.7639172" lon="5.3438775"><ele>375.0</ele><time>2026-04-18T15:48:55.436Z</time></trkpt><trkpt lat="44.7638493" lon="5.3441397"><ele>375.0</ele><time>2026-04-18T15:48:56.435Z</time></trkpt><trkpt lat="44.7637824" lon="5.3444194"><ele>375.5</ele><time>2026-04-18T15:48:57.436Z</time></trkpt><trkpt lat="44.7637171" lon="5.3447201"><ele>376.0</ele><time>2026-04-18T15:48:58.435Z</time></trkpt><trkpt lat="44.7636486" lon="5.3450344"><ele>376.0</ele><time>2026-04-18T15:48:59.436Z</time></trkpt><trkpt lat="44.7635692" lon="5.3453607"><ele>376.0</ele><time>2026-04-18T15:49:00.436Z</time></trkpt><trkpt lat="44.7634831" lon="5.3456823"><ele>376.5</ele><time>2026-04-18T15:49:01.436Z</time></trkpt><trkpt lat="44.7633978" lon="5.3460043"><ele>377.0</ele><time>2026-04-18T15:49:02.436Z</time></trkpt><trkpt lat="44.7633145" lon="5.3463198"><ele>377.6666666666667</ele><time>2026-04-18T15:49:03.436Z</time></trkpt><trkpt lat="44.7632381" lon="5.3466138"><ele>378.3333333333333</ele><time>2026-04-18T15:49:04.436Z</time></trkpt><trkpt lat="44.7631668" lon="5.3468904"><ele>379.0</ele><time>2026-04-18T15:49:05.436Z</time></trkpt><trkpt lat="44.7631001" lon="5.3471526"><ele>379.3333333333333</ele><time>2026-04-18T15:49:06.436Z</time></trkpt><trkpt lat="44.7630391" lon="5.3474001"><ele>379.6666666666667</ele><time>2026-04-18T15:49:07.436Z</time></trkpt><trkpt lat="44.7629839" lon="5.3476242"><ele>380.0</ele><time>2026-04-18T15:49:08.436Z</time></trkpt><trkpt lat="44.7629302" lon="5.347829"><ele>380.0</ele><time>2026-04-18T15:49:09.436Z</time></trkpt><trkpt lat="44.7628804" lon="5.3480118"><ele>380.0</ele><time>2026-04-18T15:49:10.435Z</time></trkpt><trkpt lat="44.7628277" lon="5.3481706"><ele>380.0</ele><time>2026-04-18T15:49:11.435Z</time></trkpt><trkpt lat="44.7627732" lon="5.3483183"><ele>380.0</ele><time>2026-04-18T15:49:12.436Z</time></trkpt><trkpt lat="44.7627015" lon="5.3484537"><ele>380.0</ele><time>2026-04-18T15:49:13.436Z</time></trkpt><trkpt lat="44.7626148" lon="5.3485518"><ele>380.0</ele><time>2026-04-18T15:49:14.436Z</time></trkpt><trkpt lat="44.7625387" lon="5.3486409"><ele>380.0</ele><time>2026-04-18T15:49:15.436Z</time></trkpt><trkpt lat="44.762492" lon="5.3487667"><ele>380.0</ele><time>2026-04-18T15:49:16.435Z</time></trkpt><trkpt lat="44.7624798" lon="5.3489112"><ele>380.0</ele><time>2026-04-18T15:49:17.436Z</time></trkpt><trkpt lat="44.7625015" lon="5.3490523"><ele>380.25</ele><time>2026-04-18T15:49:18.436Z</time></trkpt><trkpt lat="44.7625302" lon="5.3492049"><ele>380.5</ele><time>2026-04-18T15:49:19.436Z</time></trkpt><trkpt lat="44.7625294" lon="5.3493773"><ele>380.75</ele><time>2026-04-18T15:49:20.436Z</time></trkpt><trkpt lat="44.7624976" lon="5.3495558"><ele>381.0</ele><time>2026-04-18T15:49:21.435Z</time></trkpt><trkpt lat="44.7624575" lon="5.3497332"><ele>382.0</ele><time>2026-04-18T15:49:22.435Z</time></trkpt><trkpt lat="44.7624188" lon="5.3499084"><ele>383.0</ele><time>2026-04-18T15:49:23.436Z</time></trkpt><trkpt lat="44.7623845" lon="5.350086"><ele>384.0</ele><time>2026-04-18T15:49:24.436Z</time></trkpt><trkpt lat="44.7623429" lon="5.3502656"><ele>385.0</ele><time>2026-04-18T15:49:25.435Z</time></trkpt><trkpt lat="44.7622985" lon="5.350445"><ele>385.75</ele><time>2026-04-18T15:49:26.436Z</time></trkpt><trkpt lat="44.7622533" lon="5.3506268"><ele>386.5</ele><time>2026-04-18T15:49:27.436Z</time></trkpt><trkpt lat="44.7622074" lon="5.3508152"><ele>387.25</ele><time>2026-04-18T15:49:28.436Z</time></trkpt><trkpt lat="44.7621613" lon="5.3510044"><ele>388.0</ele><time>2026-04-18T15:49:29.436Z</time></trkpt><trkpt lat="44.7621124" lon="5.3511945"><ele>388.0</ele><time>2026-04-18T15:49:30.436Z</time></trkpt><trkpt lat="44.7620681" lon="5.3513703"><ele>388.0</ele><time>2026-04-18T15:49:31.436Z</time></trkpt><trkpt lat="44.7620248" lon="5.3515494"><ele>388.0</ele><time>2026-04-18T15:49:32.436Z</time></trkpt><trkpt lat="44.7619842" lon="5.3517224"><ele>388.0</ele><time>2026-04-18T15:49:33.435Z</time></trkpt><trkpt lat="44.7619426" lon="5.3519011"><ele>388.0</ele><time>2026-04-18T15:49:34.437Z</time></trkpt><trkpt lat="44.7618994" lon="5.3520755"><ele>388.0</ele><time>2026-04-18T15:49:35.436Z</time></trkpt><trkpt lat="44.7618554" lon="5.3522501"><ele>388.0</ele><time>2026-04-18T15:49:36.436Z</time></trkpt><trkpt lat="44.7618172" lon="5.352417"><ele>388.0</ele><time>2026-04-18T15:49:37.436Z</time></trkpt><trkpt lat="44.7617789" lon="5.352564"><ele>388.33333333333337</ele><time>2026-04-18T15:49:38.436Z</time></trkpt><trkpt lat="44.7617445" lon="5.3526982"><ele>388.6666666666667</ele><time>2026-04-18T15:49:39.436Z</time></trkpt><trkpt lat="44.7617113" lon="5.3528278"><ele>389.0</ele><time>2026-04-18T15:49:40.436Z</time></trkpt><trkpt lat="44.7616785" lon="5.3529499"><ele>389.33333333333337</ele><time>2026-04-18T15:49:41.436Z</time></trkpt><trkpt lat="44.7616517" lon="5.3530496"><ele>389.6666666666667</ele><time>2026-04-18T15:49:42.436Z</time></trkpt><trkpt lat="44.7616257" lon="5.3531392"><ele>390.0</ele><time>2026-04-18T15:49:43.436Z</time></trkpt><trkpt lat="44.7616007" lon="5.3532231"><ele>390.0</ele><time>2026-04-18T15:49:44.436Z</time></trkpt><trkpt lat="44.7615737" lon="5.3533113"><ele>390.0</ele><time>2026-04-18T15:49:45.436Z</time></trkpt><trkpt lat="44.7615522" lon="5.353404"><ele>390.0</ele><time>2026-04-18T15:49:46.435Z</time></trkpt><trkpt lat="44.7615352" lon="5.3535036"><ele>390.0</ele><time>2026-04-18T15:49:47.436Z</time></trkpt><trkpt lat="44.7615135" lon="5.3536121"><ele>390.0</ele><time>2026-04-18T15:49:48.436Z</time></trkpt><trkpt lat="44.7614849" lon="5.3537258"><ele>390.0</ele><time>2026-04-18T15:49:49.435Z</time></trkpt><trkpt lat="44.7614515" lon="5.3538618"><ele>390.25</ele><time>2026-04-18T15:49:50.436Z</time></trkpt><trkpt lat="44.7614186" lon="5.3539979"><ele>390.5</ele><time>2026-04-18T15:49:51.436Z</time></trkpt><trkpt lat="44.7613823" lon="5.3541496"><ele>390.75</ele><time>2026-04-18T15:49:52.436Z</time></trkpt><trkpt lat="44.7613425" lon="5.3543032"><ele>391.0</ele><time>2026-04-18T15:49:53.435Z</time></trkpt><trkpt lat="44.761302" lon="5.3544619"><ele>391.0</ele><time>2026-04-18T15:49:54.435Z</time></trkpt><trkpt lat="44.7612585" lon="5.3546153"><ele>391.0</ele><time>2026-04-18T15:49:55.435Z</time></trkpt><trkpt lat="44.761219" lon="5.3547655"><ele>391.0</ele><time>2026-04-18T15:49:56.436Z</time></trkpt><trkpt lat="44.761179" lon="5.3549164"><ele>391.0</ele><time>2026-04-18T15:49:57.436Z</time></trkpt><trkpt lat="44.7611425" lon="5.3550734"><ele>391.0</ele><time>2026-04-18T15:49:58.436Z</time></trkpt><trkpt lat="44.7611046" lon="5.3552255"><ele>391.0</ele><time>2026-04-18T15:49:59.436Z</time></trkpt><trkpt lat="44.7610673" lon="5.3553806"><ele>391.0</ele><time>2026-04-18T15:50:00.436Z</time></trkpt><trkpt lat="44.7610286" lon="5.3555356"><ele>391.0</ele><time>2026-04-18T15:50:01.436Z</time></trkpt><trkpt lat="44.7609882" lon="5.3556923"><ele>391.25</ele><time>2026-04-18T15:50:02.435Z</time></trkpt><trkpt lat="44.760948" lon="5.3558474"><ele>391.5</ele><time>2026-04-18T15:50:03.436Z</time></trkpt><trkpt lat="44.760903" lon="5.3560056"><ele>391.75</ele><time>2026-04-18T15:50:04.435Z</time></trkpt><trkpt lat="44.7608628" lon="5.356164"><ele>392.0</ele><time>2026-04-18T15:50:05.436Z</time></trkpt><trkpt lat="44.7608232" lon="5.3563261"><ele>392.5</ele><time>2026-04-18T15:50:06.436Z</time></trkpt><trkpt lat="44.7607819" lon="5.3564852"><ele>393.0</ele><time>2026-04-18T15:50:07.436Z</time></trkpt><trkpt lat="44.7607402" lon="5.3566453"><ele>393.5</ele><time>2026-04-18T15:50:08.435Z</time></trkpt><trkpt lat="44.7607005" lon="5.3568019"><ele>394.0</ele><time>2026-04-18T15:50:09.436Z</time></trkpt><trkpt lat="44.760661" lon="5.3569612"><ele>394.0</ele><time>2026-04-18T15:50:10.436Z</time></trkpt><trkpt lat="44.7606213" lon="5.3571184"><ele>394.0</ele><time>2026-04-18T15:50:11.436Z</time></trkpt><trkpt lat="44.7605843" lon="5.3572679"><ele>394.0</ele><time>2026-04-18T15:50:12.436Z</time></trkpt><trkpt lat="44.7605475" lon="5.3574135"><ele>394.0</ele><time>2026-04-18T15:50:13.436Z</time></trkpt><trkpt lat="44.7605164" lon="5.3575582"><ele>394.0</ele><time>2026-04-18T15:50:14.435Z</time></trkpt><trkpt lat="44.7604829" lon="5.3577012"><ele>394.2</ele><time>2026-04-18T15:50:15.436Z</time></trkpt><trkpt lat="44.760451" lon="5.357847"><ele>394.4</ele><time>2026-04-18T15:50:16.436Z</time></trkpt><trkpt lat="44.7604186" lon="5.3579889"><ele>394.6</ele><time>2026-04-18T15:50:17.436Z</time></trkpt><trkpt lat="44.7603808" lon="5.3581289"><ele>394.8</ele><time>2026-04-18T15:50:18.436Z</time></trkpt><trkpt lat="44.7603458" lon="5.3582695"><ele>395.0</ele><time>2026-04-18T15:50:19.436Z</time></trkpt><trkpt lat="44.7603104" lon="5.3584111"><ele>395.4</ele><time>2026-04-18T15:50:20.436Z</time></trkpt><trkpt lat="44.7602778" lon="5.3585548"><ele>395.8</ele><time>2026-04-18T15:50:21.435Z</time></trkpt><trkpt lat="44.7602436" lon="5.3587007"><ele>396.20000000000005</ele><time>2026-04-18T15:50:22.435Z</time></trkpt><trkpt lat="44.7602103" lon="5.3588474"><ele>396.6</ele><time>2026-04-18T15:50:23.435Z</time></trkpt><trkpt lat="44.7601734" lon="5.3589972"><ele>397.0</ele><time>2026-04-18T15:50:24.436Z</time></trkpt><trkpt lat="44.7601323" lon="5.3591537"><ele>397.0</ele><time>2026-04-18T15:50:25.435Z</time></trkpt><trkpt lat="44.7600903" lon="5.3593133"><ele>397.0</ele><time>2026-04-18T15:50:26.436Z</time></trkpt><trkpt lat="44.7600446" lon="5.3594799"><ele>397.0</ele><time>2026-04-18T15:50:27.436Z</time></trkpt><trkpt lat="44.7599999" lon="5.3596535"><ele>397.0</ele><time>2026-04-18T15:50:28.436Z</time></trkpt><trkpt lat="44.7599573" lon="5.3598327"><ele>397.0</ele><time>2026-04-18T15:50:29.436Z</time></trkpt><trkpt lat="44.7599129" lon="5.3600134"><ele>397.0</ele><time>2026-04-18T15:50:30.436Z</time></trkpt><trkpt lat="44.7598674" lon="5.3601986"><ele>397.0</ele><time>2026-04-18T15:50:31.436Z</time></trkpt><trkpt lat="44.7598231" lon="5.3603719"><ele>397.0</ele><time>2026-04-18T15:50:32.436Z</time></trkpt><trkpt lat="44.7597805" lon="5.3605424"><ele>397.0</ele><time>2026-04-18T15:50:33.436Z</time></trkpt><trkpt lat="44.7597425" lon="5.3607063"><ele>397.0</ele><time>2026-04-18T15:50:34.436Z</time></trkpt><trkpt lat="44.7597003" lon="5.3608568"><ele>397.0</ele><time>2026-04-18T15:50:35.436Z</time></trkpt><trkpt lat="44.7596596" lon="5.3609994"><ele>397.0</ele><time>2026-04-18T15:50:36.436Z</time></trkpt><trkpt lat="44.7596187" lon="5.3611206"><ele>397.0</ele><time>2026-04-18T15:50:37.436Z</time></trkpt><trkpt lat="44.7595864" lon="5.3612403"><ele>397.00000000000006</ele><time>2026-04-18T15:50:38.435Z</time></trkpt><trkpt lat="44.7595533" lon="5.3613442"><ele>397.0</ele><time>2026-04-18T15:50:39.435Z</time></trkpt><trkpt lat="44.7595254" lon="5.3614376"><ele>397.0</ele><time>2026-04-18T15:50:40.436Z</time></trkpt><trkpt lat="44.7595025" lon="5.3615849"><ele>397.0</ele><time>2026-04-18T15:50:42.436Z</time></trkpt><trkpt lat="44.7595716" lon="5.3616491"><ele>397.00000000000006</ele><time>2026-04-18T15:50:44.435Z</time></trkpt><trkpt lat="44.7596485" lon="5.3615841"><ele>397.0</ele><time>2026-04-18T15:50:46.436Z</time></trkpt><trkpt lat="44.7596984" lon="5.3615245"><ele>397.00000000000006</ele><time>2026-04-18T15:50:47.436Z</time></trkpt><trkpt lat="44.7597559" lon="5.3614542"><ele>397.0</ele><time>2026-04-18T15:50:48.436Z</time></trkpt><trkpt lat="44.7598143" lon="5.3613747"><ele>397.0</ele><time>2026-04-18T15:50:49.436Z</time></trkpt><trkpt lat="44.7598789" lon="5.3612907"><ele>397.0</ele><time>2026-04-18T15:50:50.436Z</time></trkpt><trkpt lat="44.7599496" lon="5.3612058"><ele>397.00000000000006</ele><time>2026-04-18T15:50:51.436Z</time></trkpt><trkpt lat="44.7600243" lon="5.3611161"><ele>397.0</ele><time>2026-04-18T15:50:52.436Z</time></trkpt><trkpt lat="44.7601021" lon="5.3610271"><ele>397.0</ele><time>2026-04-18T15:50:53.436Z</time></trkpt><trkpt lat="44.7601758" lon="5.3609419"><ele>397.0</ele><time>2026-04-18T15:50:54.436Z</time></trkpt><trkpt lat="44.7602647" lon="5.3608336"><ele>397.0</ele><time>2026-04-18T15:50:55.436Z</time></trkpt><trkpt lat="44.7603608" lon="5.3607101"><ele>397.0</ele><time>2026-04-18T15:50:56.435Z</time></trkpt><trkpt lat="44.7604487" lon="5.3605972"><ele>397.25</ele><time>2026-04-18T15:50:57.436Z</time></trkpt><trkpt lat="44.7605418" lon="5.3604789"><ele>397.5</ele><time>2026-04-18T15:50:58.436Z</time></trkpt><trkpt lat="44.7606326" lon="5.3603701"><ele>397.75</ele><time>2026-04-18T15:50:59.436Z</time></trkpt><trkpt lat="44.7607311" lon="5.3602717"><ele>398.0</ele><time>2026-04-18T15:51:00.436Z</time></trkpt><trkpt lat="44.7608328" lon="5.3602149"><ele>398.0</ele><time>2026-04-18T15:51:01.437Z</time></trkpt><trkpt lat="44.7609408" lon="5.3602027"><ele>398.0</ele><time>2026-04-18T15:51:02.436Z</time></trkpt><trkpt lat="44.7610484" lon="5.3602427"><ele>398.0</ele><time>2026-04-18T15:51:03.436Z</time></trkpt><trkpt lat="44.7611637" lon="5.3603343"><ele>398.0</ele><time>2026-04-18T15:51:04.437Z</time></trkpt><trkpt lat="44.7612824" lon="5.3604558"><ele>398.25</ele><time>2026-04-18T15:51:05.436Z</time></trkpt><trkpt lat="44.7613988" lon="5.3605648"><ele>398.5</ele><time>2026-04-18T15:51:06.435Z</time></trkpt><trkpt lat="44.7615067" lon="5.3606825"><ele>398.75</ele><time>2026-04-18T15:51:07.436Z</time></trkpt><trkpt lat="44.7616137" lon="5.3608058"><ele>399.0</ele><time>2026-04-18T15:51:08.436Z</time></trkpt><trkpt lat="44.7617306" lon="5.3609217"><ele>399.0</ele><time>2026-04-18T15:51:09.435Z</time></trkpt><trkpt lat="44.7618543" lon="5.3610338"><ele>399.0</ele><time>2026-04-18T15:51:10.436Z</time></trkpt><trkpt lat="44.7619802" lon="5.3611445"><ele>399.0</ele><time>2026-04-18T15:51:11.435Z</time></trkpt><trkpt lat="44.7621109" lon="5.3612506"><ele>399.0</ele><time>2026-04-18T15:51:12.435Z</time></trkpt><trkpt lat="44.7622427" lon="5.3613545"><ele>399.5</ele><time>2026-04-18T15:51:13.436Z</time></trkpt><trkpt lat="44.762375" lon="5.3614522"><ele>400.0</ele><time>2026-04-18T15:51:14.436Z</time></trkpt><trkpt lat="44.7625021" lon="5.3615347"><ele>400.5</ele><time>2026-04-18T15:51:15.435Z</time></trkpt><trkpt lat="44.7626213" lon="5.3616068"><ele>401.0</ele><time>2026-04-18T15:51:16.436Z</time></trkpt><trkpt lat="44.7627335" lon="5.3616667"><ele>401.75</ele><time>2026-04-18T15:51:17.435Z</time></trkpt><trkpt lat="44.7628332" lon="5.3617291"><ele>402.5</ele><time>2026-04-18T15:51:18.436Z</time></trkpt><trkpt lat="44.7629373" lon="5.3618041"><ele>403.25</ele><time>2026-04-18T15:51:19.436Z</time></trkpt><trkpt lat="44.763038" lon="5.3618824"><ele>404.0</ele><time>2026-04-18T15:51:20.436Z</time></trkpt><trkpt lat="44.7631761" lon="5.3619743"><ele>404.0</ele><time>2026-04-18T15:51:21.436Z</time></trkpt><trkpt lat="44.7632985" lon="5.3620632"><ele>404.0</ele><time>2026-04-18T15:51:22.435Z</time></trkpt><trkpt lat="44.7634229" lon="5.3621398"><ele>404.0</ele><time>2026-04-18T15:51:23.436Z</time></trkpt><trkpt lat="44.7635442" lon="5.362215"><ele>404.0</ele><time>2026-04-18T15:51:24.436Z</time></trkpt><trkpt lat="44.7636689" lon="5.3622777"><ele>405.25</ele><time>2026-04-18T15:51:25.436Z</time></trkpt><trkpt lat="44.7638059" lon="5.3623113"><ele>406.5</ele><time>2026-04-18T15:51:26.437Z</time></trkpt><trkpt lat="44.7639511" lon="5.3623211"><ele>407.75</ele><time>2026-04-18T15:51:27.436Z</time></trkpt><trkpt lat="44.7640936" lon="5.3623268"><ele>409.0</ele><time>2026-04-18T15:51:28.435Z</time></trkpt><trkpt lat="44.7642343" lon="5.362338"><ele>409.25</ele><time>2026-04-18T15:51:29.437Z</time></trkpt><trkpt lat="44.764374" lon="5.3623594"><ele>409.5</ele><time>2026-04-18T15:51:30.436Z</time></trkpt><trkpt lat="44.7645188" lon="5.3623879"><ele>409.75</ele><time>2026-04-18T15:51:31.436Z</time></trkpt><trkpt lat="44.764673" lon="5.362405"><ele>410.0</ele><time>2026-04-18T15:51:32.436Z</time></trkpt><trkpt lat="44.7648361" lon="5.3624204"><ele>410.0</ele><time>2026-04-18T15:51:33.436Z</time></trkpt><trkpt lat="44.7650004" lon="5.3624415"><ele>410.0</ele><time>2026-04-18T15:51:34.436Z</time></trkpt><trkpt lat="44.7651625" lon="5.3624602"><ele>410.0</ele><time>2026-04-18T15:51:35.435Z</time></trkpt><trkpt lat="44.7653276" lon="5.3624807"><ele>410.0</ele><time>2026-04-18T15:51:36.436Z</time></trkpt><trkpt lat="44.7654919" lon="5.3625014"><ele>410.0</ele><time>2026-04-18T15:51:37.436Z</time></trkpt><trkpt lat="44.765656" lon="5.3625216"><ele>410.0</ele><time>2026-04-18T15:51:38.436Z</time></trkpt><trkpt lat="44.7658241" lon="5.3625406"><ele>410.0</ele><time>2026-04-18T15:51:39.436Z</time></trkpt><trkpt lat="44.7659937" lon="5.3625593"><ele>410.0</ele><time>2026-04-18T15:51:40.436Z</time></trkpt><trkpt lat="44.7661599" lon="5.3625771"><ele>410.0</ele><time>2026-04-18T15:51:41.436Z</time></trkpt><trkpt lat="44.7663218" lon="5.362594"><ele>410.5</ele><time>2026-04-18T15:51:42.436Z</time></trkpt><trkpt lat="44.7664715" lon="5.3626128"><ele>411.0</ele><time>2026-04-18T15:51:43.436Z</time></trkpt><trkpt lat="44.7666147" lon="5.3626205"><ele>411.5</ele><time>2026-04-18T15:51:44.436Z</time></trkpt><trkpt lat="44.7667477" lon="5.3626054"><ele>412.0</ele><time>2026-04-18T15:51:45.436Z</time></trkpt><trkpt lat="44.7668683" lon="5.3625703"><ele>412.20000000000005</ele><time>2026-04-18T15:51:46.437Z</time></trkpt><trkpt lat="44.7669768" lon="5.3625302"><ele>412.4</ele><time>2026-04-18T15:51:47.435Z</time></trkpt><trkpt lat="44.7670664" lon="5.362488"><ele>412.6</ele><time>2026-04-18T15:51:48.435Z</time></trkpt><trkpt lat="44.767156" lon="5.3624486"><ele>412.79999999999995</ele><time>2026-04-18T15:51:49.436Z</time></trkpt><trkpt lat="44.7672468" lon="5.3624078"><ele>413.0</ele><time>2026-04-18T15:51:50.437Z</time></trkpt><trkpt lat="44.7673426" lon="5.3623505"><ele>413.0</ele><time>2026-04-18T15:51:51.436Z</time></trkpt><trkpt lat="44.7674346" lon="5.3622847"><ele>413.0</ele><time>2026-04-18T15:51:52.436Z</time></trkpt><trkpt lat="44.7675426" lon="5.3622178"><ele>413.0</ele><time>2026-04-18T15:51:53.436Z</time></trkpt><trkpt lat="44.7676621" lon="5.3621428"><ele>413.0</ele><time>2026-04-18T15:51:54.436Z</time></trkpt><trkpt lat="44.7677842" lon="5.3620718"><ele>411.75</ele><time>2026-04-18T15:51:55.436Z</time></trkpt><trkpt lat="44.7679125" lon="5.3619971"><ele>410.5</ele><time>2026-04-18T15:51:56.436Z</time></trkpt><trkpt lat="44.7680466" lon="5.3619182"><ele>409.25</ele><time>2026-04-18T15:51:57.436Z</time></trkpt><trkpt lat="44.7681769" lon="5.3618448"><ele>408.0</ele><time>2026-04-18T15:51:58.437Z</time></trkpt><trkpt lat="44.7683017" lon="5.3617766"><ele>408.0</ele><time>2026-04-18T15:51:59.435Z</time></trkpt><trkpt lat="44.7684157" lon="5.3617179"><ele>408.0</ele><time>2026-04-18T15:52:00.436Z</time></trkpt><trkpt lat="44.7685293" lon="5.3616694"><ele>408.0</ele><time>2026-04-18T15:52:01.435Z</time></trkpt><trkpt lat="44.7686504" lon="5.3616249"><ele>408.0</ele><time>2026-04-18T15:52:02.436Z</time></trkpt><trkpt lat="44.7687793" lon="5.3615806"><ele>407.75</ele><time>2026-04-18T15:52:03.436Z</time></trkpt><trkpt lat="44.7689189" lon="5.3615305"><ele>407.5</ele><time>2026-04-18T15:52:04.436Z</time></trkpt><trkpt lat="44.7690617" lon="5.361487"><ele>407.25</ele><time>2026-04-18T15:52:05.437Z</time></trkpt><trkpt lat="44.7692127" lon="5.3614498"><ele>407.0</ele><time>2026-04-18T15:52:06.436Z</time></trkpt><trkpt lat="44.7693716" lon="5.3614103"><ele>406.66666666666663</ele><time>2026-04-18T15:52:07.436Z</time></trkpt><trkpt lat="44.7695298" lon="5.3613685"><ele>406.33333333333337</ele><time>2026-04-18T15:52:08.436Z</time></trkpt><trkpt lat="44.7696878" lon="5.3613283"><ele>406.0</ele><time>2026-04-18T15:52:09.436Z</time></trkpt><trkpt lat="44.7698439" lon="5.3612866"><ele>406.0</ele><time>2026-04-18T15:52:10.436Z</time></trkpt><trkpt lat="44.7699993" lon="5.3612431"><ele>406.0</ele><time>2026-04-18T15:52:11.436Z</time></trkpt><trkpt lat="44.7701535" lon="5.3611989"><ele>406.0</ele><time>2026-04-18T15:52:12.436Z</time></trkpt><trkpt lat="44.7703014" lon="5.3611554"><ele>406.25</ele><time>2026-04-18T15:52:13.435Z</time></trkpt><trkpt lat="44.7704401" lon="5.3611182"><ele>406.5</ele><time>2026-04-18T15:52:14.436Z</time></trkpt><trkpt lat="44.7705693" lon="5.3610838"><ele>406.75</ele><time>2026-04-18T15:52:15.436Z</time></trkpt><trkpt lat="44.7706853" lon="5.3610731"><ele>407.0</ele><time>2026-04-18T15:52:16.436Z</time></trkpt><trkpt lat="44.7707887" lon="5.361071"><ele>406.99999999999994</ele><time>2026-04-18T15:52:17.436Z</time></trkpt><trkpt lat="44.7708835" lon="5.3610851"><ele>407.0</ele><time>2026-04-18T15:52:18.435Z</time></trkpt><trkpt lat="44.7709689" lon="5.3611052"><ele>407.0</ele><time>2026-04-18T15:52:19.436Z</time></trkpt><trkpt lat="44.7710421" lon="5.3611346"><ele>407.0</ele><time>2026-04-18T15:52:20.435Z</time></trkpt><trkpt lat="44.7711169" lon="5.3611577"><ele>406.99999999999994</ele><time>2026-04-18T15:52:21.436Z</time></trkpt><trkpt lat="44.7712036" lon="5.3612"><ele>407.0</ele><time>2026-04-18T15:52:22.436Z</time></trkpt><trkpt lat="44.7712946" lon="5.3612458"><ele>408.66666666666663</ele><time>2026-04-18T15:52:23.435Z</time></trkpt><trkpt lat="44.7715364" lon="5.3614028"><ele>410.33333333333337</ele><time>2026-04-18T15:52:25.436Z</time></trkpt><trkpt lat="44.7716631" lon="5.3614967"><ele>412.0</ele><time>2026-04-18T15:52:26.436Z</time></trkpt><trkpt lat="44.7717942" lon="5.3615991"><ele>413.0</ele><time>2026-04-18T15:52:27.436Z</time></trkpt><trkpt lat="44.7719237" lon="5.3616975"><ele>414.0</ele><time>2026-04-18T15:52:28.435Z</time></trkpt><trkpt lat="44.772062" lon="5.3618082"><ele>415.0</ele><time>2026-04-18T15:52:29.436Z</time></trkpt><trkpt lat="44.7722015" lon="5.3619166"><ele>415.0</ele><time>2026-04-18T15:52:30.436Z</time></trkpt><trkpt lat="44.772346" lon="5.3620173"><ele>415.0</ele><time>2026-04-18T15:52:31.436Z</time></trkpt><trkpt lat="44.7724902" lon="5.3621119"><ele>415.0</ele><time>2026-04-18T15:52:32.435Z</time></trkpt><trkpt lat="44.7726373" lon="5.3621937"><ele>416.6666666666667</ele><time>2026-04-18T15:52:33.437Z</time></trkpt><trkpt lat="44.7727873" lon="5.3622629"><ele>418.33333333333337</ele><time>2026-04-18T15:52:34.436Z</time></trkpt><trkpt lat="44.7729445" lon="5.3623268"><ele>420.0</ele><time>2026-04-18T15:52:35.436Z</time></trkpt><trkpt lat="44.773101" lon="5.3623891"><ele>420.0</ele><time>2026-04-18T15:52:36.436Z</time></trkpt><trkpt lat="44.7732573" lon="5.3624431"><ele>420.0</ele><time>2026-04-18T15:52:37.435Z</time></trkpt><trkpt lat="44.7734185" lon="5.3625011"><ele>420.0</ele><time>2026-04-18T15:52:38.436Z</time></trkpt><trkpt lat="44.773583" lon="5.3625541"><ele>421.0</ele><time>2026-04-18T15:52:39.435Z</time></trkpt><trkpt lat="44.7737493" lon="5.3626088"><ele>422.0</ele><time>2026-04-18T15:52:40.436Z</time></trkpt><trkpt lat="44.7739195" lon="5.3626624"><ele>423.0</ele><time>2026-04-18T15:52:41.436Z</time></trkpt><trkpt lat="44.7740863" lon="5.3627174"><ele>423.0</ele><time>2026-04-18T15:52:42.435Z</time></trkpt><trkpt lat="44.7742379" lon="5.3627666"><ele>423.0</ele><time>2026-04-18T15:52:43.436Z</time></trkpt><trkpt lat="44.7743771" lon="5.3628196"><ele>423.0</ele><time>2026-04-18T15:52:44.436Z</time></trkpt><trkpt lat="44.7745068" lon="5.3628763"><ele>423.0</ele><time>2026-04-18T15:52:45.436Z</time></trkpt><trkpt lat="44.7746338" lon="5.3629427"><ele>421.75</ele><time>2026-04-18T15:52:46.436Z</time></trkpt><trkpt lat="44.7747482" lon="5.3630249"><ele>420.5</ele><time>2026-04-18T15:52:47.436Z</time></trkpt><trkpt lat="44.7748524" lon="5.3631226"><ele>419.25</ele><time>2026-04-18T15:52:48.436Z</time></trkpt><trkpt lat="44.7749519" lon="5.3632282"><ele>418.0</ele><time>2026-04-18T15:52:49.436Z</time></trkpt><trkpt lat="44.7750532" lon="5.3633394"><ele>419.75</ele><time>2026-04-18T15:52:50.436Z</time></trkpt><trkpt lat="44.7751572" lon="5.3634543"><ele>421.5</ele><time>2026-04-18T15:52:51.436Z</time></trkpt><trkpt lat="44.7752619" lon="5.3635723"><ele>423.25</ele><time>2026-04-18T15:52:52.435Z</time></trkpt><trkpt lat="44.7753683" lon="5.3636971"><ele>425.0</ele><time>2026-04-18T15:52:53.436Z</time></trkpt><trkpt lat="44.7754766" lon="5.3638274"><ele>429.25</ele><time>2026-04-18T15:52:54.436Z</time></trkpt><trkpt lat="44.7755847" lon="5.3639612"><ele>433.5</ele><time>2026-04-18T15:52:55.436Z</time></trkpt><trkpt lat="44.7756964" lon="5.3640966"><ele>437.75</ele><time>2026-04-18T15:52:56.436Z</time></trkpt><trkpt lat="44.77581" lon="5.3642322"><ele>442.0</ele><time>2026-04-18T15:52:57.436Z</time></trkpt><trkpt lat="44.7759234" lon="5.3643569"><ele>440.0</ele><time>2026-04-18T15:52:58.436Z</time></trkpt><trkpt lat="44.7760353" lon="5.3644637"><ele>438.0</ele><time>2026-04-18T15:52:59.436Z</time></trkpt><trkpt lat="44.776159" lon="5.3645415"><ele>436.0</ele><time>2026-04-18T15:53:00.435Z</time></trkpt><trkpt lat="44.7762949" lon="5.3645894"><ele>434.0</ele><time>2026-04-18T15:53:01.436Z</time></trkpt><trkpt lat="44.7764271" lon="5.3646318"><ele>434.0</ele><time>2026-04-18T15:53:02.436Z</time></trkpt><trkpt lat="44.7765653" lon="5.3646906"><ele>434.0</ele><time>2026-04-18T15:53:03.437Z</time></trkpt><trkpt lat="44.7767019" lon="5.3647697"><ele>434.0</ele><time>2026-04-18T15:53:04.437Z</time></trkpt><trkpt lat="44.7768461" lon="5.3648692"><ele>439.3333333333333</ele><time>2026-04-18T15:53:05.436Z</time></trkpt><trkpt lat="44.7769914" lon="5.3649741"><ele>444.66666666666663</ele><time>2026-04-18T15:53:06.435Z</time></trkpt><trkpt lat="44.777139" lon="5.3650876"><ele>450.0</ele><time>2026-04-18T15:53:07.436Z</time></trkpt><trkpt lat="44.7772882" lon="5.3651774"><ele>450.0</ele><time>2026-04-18T15:53:08.435Z</time></trkpt><trkpt lat="44.7774521" lon="5.365238"><ele>450.0</ele><time>2026-04-18T15:53:09.436Z</time></trkpt><trkpt lat="44.7776159" lon="5.3652688"><ele>450.0</ele><time>2026-04-18T15:53:10.437Z</time></trkpt><trkpt lat="44.7777738" lon="5.3652981"><ele>448.0</ele><time>2026-04-18T15:53:11.435Z</time></trkpt><trkpt lat="44.7779255" lon="5.3653343"><ele>446.0</ele><time>2026-04-18T15:53:12.436Z</time></trkpt><trkpt lat="44.7780812" lon="5.365395"><ele>444.0</ele><time>2026-04-18T15:53:13.436Z</time></trkpt><trkpt lat="44.778233" lon="5.3654845"><ele>447.33333333333337</ele><time>2026-04-18T15:53:14.436Z</time></trkpt><trkpt lat="44.7783759" lon="5.3656034"><ele>450.6666666666667</ele><time>2026-04-18T15:53:15.436Z</time></trkpt><trkpt lat="44.7785186" lon="5.3657379"><ele>454.0</ele><time>2026-04-18T15:53:16.436Z</time></trkpt><trkpt lat="44.7786682" lon="5.3658894"><ele>454.0</ele><time>2026-04-18T15:53:17.436Z</time></trkpt><trkpt lat="44.7788225" lon="5.3660424"><ele>454.0</ele><time>2026-04-18T15:53:18.436Z</time></trkpt><trkpt lat="44.7789666" lon="5.3661812"><ele>454.0</ele><time>2026-04-18T15:53:19.435Z</time></trkpt><trkpt lat="44.7790933" lon="5.3662996"><ele>459.25</ele><time>2026-04-18T15:53:20.437Z</time></trkpt><trkpt lat="44.7791995" lon="5.3664003"><ele>464.5</ele><time>2026-04-18T15:53:21.436Z</time></trkpt><trkpt lat="44.7792906" lon="5.3664863"><ele>469.75</ele><time>2026-04-18T15:53:22.436Z</time></trkpt><trkpt lat="44.7793879" lon="5.3665749"><ele>475.0</ele><time>2026-04-18T15:53:23.436Z</time></trkpt><trkpt lat="44.7794892" lon="5.3666435"><ele>475.0</ele><time>2026-04-18T15:53:24.436Z</time></trkpt><trkpt lat="44.7795915" lon="5.3666907"><ele>475.0</ele><time>2026-04-18T15:53:25.435Z</time></trkpt><trkpt lat="44.7797371" lon="5.3667006"><ele>475.0</ele><time>2026-04-18T15:53:26.436Z</time></trkpt><trkpt lat="44.7798637" lon="5.3667126"><ele>475.0</ele><time>2026-04-18T15:53:27.436Z</time></trkpt><trkpt lat="44.7800148" lon="5.366727"><ele>471.0</ele><time>2026-04-18T15:53:28.435Z</time></trkpt><trkpt lat="44.780201" lon="5.3667305"><ele>467.0</ele><time>2026-04-18T15:53:29.436Z</time></trkpt><trkpt lat="44.7803763" lon="5.3667574"><ele>463.0</ele><time>2026-04-18T15:53:30.436Z</time></trkpt><trkpt lat="44.7805632" lon="5.3668124"><ele>463.0</ele><time>2026-04-18T15:53:31.436Z</time></trkpt><trkpt lat="44.7807702" lon="5.3668774"><ele>463.0</ele><time>2026-04-18T15:53:32.436Z</time></trkpt><trkpt lat="44.780958" lon="5.3669266"><ele>463.0</ele><time>2026-04-18T15:53:33.435Z</time></trkpt><trkpt lat="44.7811401" lon="5.3669763"><ele>464.33333333333337</ele><time>2026-04-18T15:53:34.435Z</time></trkpt><trkpt lat="44.7813203" lon="5.3670033"><ele>465.66666666666663</ele><time>2026-04-18T15:53:35.436Z</time></trkpt><trkpt lat="44.7814964" lon="5.3670345"><ele>467.0</ele><time>2026-04-18T15:53:36.435Z</time></trkpt><trkpt lat="44.7816675" lon="5.3670522"><ele>467.0</ele><time>2026-04-18T15:53:37.434Z</time></trkpt><trkpt lat="44.7818363" lon="5.3670929"><ele>467.0</ele><time>2026-04-18T15:53:38.434Z</time></trkpt><trkpt lat="44.7819872" lon="5.3671836"><ele>467.0</ele><time>2026-04-18T15:53:39.435Z</time></trkpt><trkpt lat="44.7821469" lon="5.3672722"><ele>478.0</ele><time>2026-04-18T15:53:40.435Z</time></trkpt><trkpt lat="44.7823059" lon="5.36736"><ele>489.0</ele><time>2026-04-18T15:53:41.435Z</time></trkpt><trkpt lat="44.7824542" lon="5.3674196"><ele>500.0</ele><time>2026-04-18T15:53:42.435Z</time></trkpt><trkpt lat="44.7826005" lon="5.3674619"><ele>497.75</ele><time>2026-04-18T15:53:43.435Z</time></trkpt><trkpt lat="44.7827413" lon="5.3675168"><ele>495.5</ele><time>2026-04-18T15:53:44.434Z</time></trkpt><trkpt lat="44.7828829" lon="5.3676078"><ele>493.25</ele><time>2026-04-18T15:53:45.435Z</time></trkpt><trkpt lat="44.7830123" lon="5.3676965"><ele>491.0</ele><time>2026-04-18T15:53:46.435Z</time></trkpt><trkpt lat="44.7831317" lon="5.3677798"><ele>491.0</ele><time>2026-04-18T15:53:47.434Z</time></trkpt><trkpt lat="44.7832634" lon="5.3678565"><ele>491.0</ele><time>2026-04-18T15:53:48.435Z</time></trkpt><trkpt lat="44.7833796" lon="5.3678845"><ele>491.0</ele><time>2026-04-18T15:53:49.434Z</time></trkpt><trkpt lat="44.7835031" lon="5.3679228"><ele>491.0</ele><time>2026-04-18T15:53:50.435Z</time></trkpt><trkpt lat="44.7836174" lon="5.367941"><ele>489.0</ele><time>2026-04-18T15:53:51.435Z</time></trkpt><trkpt lat="44.7837157" lon="5.3678714"><ele>487.0</ele><time>2026-04-18T15:53:52.434Z</time></trkpt><trkpt lat="44.7838029" lon="5.3677259"><ele>485.0</ele><time>2026-04-18T15:53:53.435Z</time></trkpt><trkpt lat="44.7839202" lon="5.3676915"><ele>483.0</ele><time>2026-04-18T15:53:54.435Z</time></trkpt><trkpt lat="44.7840193" lon="5.3677142"><ele>483.0</ele><time>2026-04-18T15:53:55.435Z</time></trkpt><trkpt lat="44.7841462" lon="5.3678437"><ele>483.0</ele><time>2026-04-18T15:53:56.435Z</time></trkpt><trkpt lat="44.7842647" lon="5.367973"><ele>483.0</ele><time>2026-04-18T15:53:57.435Z</time></trkpt><trkpt lat="44.7843687" lon="5.3681433"><ele>488.0</ele><time>2026-04-18T15:53:58.435Z</time></trkpt><trkpt lat="44.7844659" lon="5.3683213"><ele>493.0</ele><time>2026-04-18T15:53:59.435Z</time></trkpt><trkpt lat="44.784552" lon="5.3685147"><ele>498.0</ele><time>2026-04-18T15:54:00.435Z</time></trkpt><trkpt lat="44.7846355" lon="5.3686727"><ele>498.0</ele><time>2026-04-18T15:54:01.435Z</time></trkpt><trkpt lat="44.7847402" lon="5.3687792"><ele>498.0</ele><time>2026-04-18T15:54:02.435Z</time></trkpt><trkpt lat="44.7848572" lon="5.3688266"><ele>498.0</ele><time>2026-04-18T15:54:03.435Z</time></trkpt><trkpt lat="44.7849759" lon="5.3687971"><ele>498.0</ele><time>2026-04-18T15:54:04.435Z</time></trkpt><trkpt lat="44.7850817" lon="5.3687039"><ele>498.0</ele><time>2026-04-18T15:54:05.435Z</time></trkpt><trkpt lat="44.7851773" lon="5.3685659"><ele>498.0</ele><time>2026-04-18T15:54:06.435Z</time></trkpt><trkpt lat="44.7852712" lon="5.3684033"><ele>498.0</ele><time>2026-04-18T15:54:07.435Z</time></trkpt><trkpt lat="44.7853822" lon="5.3682589"><ele>498.0</ele><time>2026-04-18T15:54:08.435Z</time></trkpt><trkpt lat="44.7855205" lon="5.3681518"><ele>497.0</ele><time>2026-04-18T15:54:09.434Z</time></trkpt><trkpt lat="44.7856699" lon="5.3680682"><ele>496.0</ele><time>2026-04-18T15:54:10.435Z</time></trkpt><trkpt lat="44.7858304" lon="5.367978"><ele>495.0</ele><time>2026-04-18T15:54:11.435Z</time></trkpt><trkpt lat="44.7859884" lon="5.3678777"><ele>505.66666666666663</ele><time>2026-04-18T15:54:12.435Z</time></trkpt><trkpt lat="44.7861381" lon="5.3677701"><ele>516.3333333333333</ele><time>2026-04-18T15:54:13.435Z</time></trkpt><trkpt lat="44.7862841" lon="5.3676452"><ele>527.0</ele><time>2026-04-18T15:54:14.434Z</time></trkpt><trkpt lat="44.7864172" lon="5.3674951"><ele>527.0</ele><time>2026-04-18T15:54:15.435Z</time></trkpt><trkpt lat="44.7865404" lon="5.3673234"><ele>527.0</ele><time>2026-04-18T15:54:16.435Z</time></trkpt><trkpt lat="44.7866434" lon="5.3671325"><ele>527.0</ele><time>2026-04-18T15:54:17.435Z</time></trkpt><trkpt lat="44.7867323" lon="5.3669606"><ele>525.0</ele><time>2026-04-18T15:54:18.435Z</time></trkpt><trkpt lat="44.7868241" lon="5.366818"><ele>523.0</ele><time>2026-04-18T15:54:19.434Z</time></trkpt><trkpt lat="44.7869275" lon="5.366711"><ele>521.0</ele><time>2026-04-18T15:54:20.435Z</time></trkpt><trkpt lat="44.7870436" lon="5.3666312"><ele>519.0</ele><time>2026-04-18T15:54:21.435Z</time></trkpt><trkpt lat="44.7871691" lon="5.3665926"><ele>519.0</ele><time>2026-04-18T15:54:22.435Z</time></trkpt><trkpt lat="44.7872894" lon="5.366538"><ele>519.0</ele><time>2026-04-18T15:54:23.435Z</time></trkpt><trkpt lat="44.7874159" lon="5.3665098"><ele>519.0</ele><time>2026-04-18T15:54:24.436Z</time></trkpt><trkpt lat="44.7876248" lon="5.3665784"><ele>521.6666666666666</ele><time>2026-04-18T15:54:25.434Z</time></trkpt><trkpt lat="44.7877892" lon="5.3665579"><ele>524.3333333333333</ele><time>2026-04-18T15:54:26.435Z</time></trkpt><trkpt lat="44.7879626" lon="5.3665363"><ele>527.0</ele><time>2026-04-18T15:54:27.435Z</time></trkpt><trkpt lat="44.788123" lon="5.3665194"><ele>527.0</ele><time>2026-04-18T15:54:28.435Z</time></trkpt><trkpt lat="44.7882724" lon="5.3664858"><ele>527.0</ele><time>2026-04-18T15:54:29.435Z</time></trkpt><trkpt lat="44.788424" lon="5.3664269"><ele>527.0</ele><time>2026-04-18T15:54:30.435Z</time></trkpt><trkpt lat="44.7885588" lon="5.3663659"><ele>528.0</ele><time>2026-04-18T15:54:31.435Z</time></trkpt><trkpt lat="44.7886859" lon="5.3663351"><ele>529.0</ele><time>2026-04-18T15:54:32.435Z</time></trkpt><trkpt lat="44.7888144" lon="5.3663504"><ele>530.0</ele><time>2026-04-18T15:54:33.435Z</time></trkpt><trkpt lat="44.7889518" lon="5.3664001"><ele>531.0</ele><time>2026-04-18T15:54:34.435Z</time></trkpt><trkpt lat="44.7891019" lon="5.3664755"><ele>531.0</ele><time>2026-04-18T15:54:35.435Z</time></trkpt><trkpt lat="44.7892545" lon="5.3665363"><ele>531.0</ele><time>2026-04-18T15:54:36.434Z</time></trkpt><trkpt lat="44.7894184" lon="5.3666135"><ele>531.0</ele><time>2026-04-18T15:54:37.435Z</time></trkpt><trkpt lat="44.7895862" lon="5.3667022"><ele>527.6666666666666</ele><time>2026-04-18T15:54:38.435Z</time></trkpt><trkpt lat="44.7897432" lon="5.3667879"><ele>524.3333333333333</ele><time>2026-04-18T15:54:39.434Z</time></trkpt><trkpt lat="44.7898871" lon="5.3668651"><ele>521.0</ele><time>2026-04-18T15:54:40.434Z</time></trkpt><trkpt lat="44.7900197" lon="5.3669594"><ele>521.0</ele><time>2026-04-18T15:54:41.435Z</time></trkpt><trkpt lat="44.7901399" lon="5.3671048"><ele>521.0</ele><time>2026-04-18T15:54:42.435Z</time></trkpt><trkpt lat="44.7902492" lon="5.3672745"><ele>521.0</ele><time>2026-04-18T15:54:43.435Z</time></trkpt><trkpt lat="44.7903581" lon="5.3674652"><ele>521.3333333333333</ele><time>2026-04-18T15:54:44.435Z</time></trkpt><trkpt lat="44.7904696" lon="5.3676747"><ele>521.6666666666666</ele><time>2026-04-18T15:54:45.435Z</time></trkpt><trkpt lat="44.7905898" lon="5.36789"><ele>522.0</ele><time>2026-04-18T15:54:46.435Z</time></trkpt><trkpt lat="44.7907186" lon="5.3681124"><ele>519.0</ele><time>2026-04-18T15:54:47.435Z</time></trkpt><trkpt lat="44.790847" lon="5.3683358"><ele>516.0</ele><time>2026-04-18T15:54:48.435Z</time></trkpt><trkpt lat="44.7909692" lon="5.3685344"><ele>513.0</ele><time>2026-04-18T15:54:49.435Z</time></trkpt><trkpt lat="44.7910963" lon="5.3687188"><ele>520.0</ele><time>2026-04-18T15:54:50.435Z</time></trkpt><trkpt lat="44.7912423" lon="5.3688858"><ele>527.0</ele><time>2026-04-18T15:54:51.435Z</time></trkpt><trkpt lat="44.7913969" lon="5.3690324"><ele>534.0</ele><time>2026-04-18T15:54:52.435Z</time></trkpt><trkpt lat="44.7915468" lon="5.3691744"><ele>534.0</ele><time>2026-04-18T15:54:53.435Z</time></trkpt><trkpt lat="44.7916884" lon="5.3693118"><ele>534.0</ele><time>2026-04-18T15:54:54.435Z</time></trkpt><trkpt lat="44.7918269" lon="5.3694694"><ele>534.0</ele><time>2026-04-18T15:54:55.435Z</time></trkpt><trkpt lat="44.7919545" lon="5.3696472"><ele>533.0</ele><time>2026-04-18T15:54:56.434Z</time></trkpt><trkpt lat="44.7920683" lon="5.369843"><ele>532.0</ele><time>2026-04-18T15:54:57.435Z</time></trkpt><trkpt lat="44.7921854" lon="5.3700429"><ele>531.0</ele><time>2026-04-18T15:54:58.435Z</time></trkpt><trkpt lat="44.792311" lon="5.3702452"><ele>531.0</ele><time>2026-04-18T15:54:59.435Z</time></trkpt><trkpt lat="44.7924432" lon="5.3704528"><ele>531.0</ele><time>2026-04-18T15:55:00.434Z</time></trkpt><trkpt lat="44.7925756" lon="5.3706606"><ele>531.0</ele><time>2026-04-18T15:55:01.435Z</time></trkpt><trkpt lat="44.7927083" lon="5.3708785"><ele>531.0</ele><time>2026-04-18T15:55:02.435Z</time></trkpt><trkpt lat="44.7928217" lon="5.3710819"><ele>531.0</ele><time>2026-04-18T15:55:03.435Z</time></trkpt><trkpt lat="44.7929272" lon="5.3712833"><ele>531.0</ele><time>2026-04-18T15:55:04.435Z</time></trkpt><trkpt lat="44.7930125" lon="5.3715011"><ele>531.0</ele><time>2026-04-18T15:55:05.435Z</time></trkpt><trkpt lat="44.7930846" lon="5.3717379"><ele>531.0</ele><time>2026-04-18T15:55:06.435Z</time></trkpt><trkpt lat="44.7931547" lon="5.37199"><ele>531.0</ele><time>2026-04-18T15:55:07.435Z</time></trkpt><trkpt lat="44.7932217" lon="5.3722551"><ele>534.3333333333334</ele><time>2026-04-18T15:55:08.435Z</time></trkpt><trkpt lat="44.7932821" lon="5.3725352"><ele>537.6666666666667</ele><time>2026-04-18T15:55:09.435Z</time></trkpt><trkpt lat="44.7933426" lon="5.3728289"><ele>541.0</ele><time>2026-04-18T15:55:10.435Z</time></trkpt><trkpt lat="44.7933954" lon="5.3731275"><ele>542.6666666666667</ele><time>2026-04-18T15:55:11.435Z</time></trkpt><trkpt lat="44.7934456" lon="5.3734072"><ele>544.3333333333334</ele><time>2026-04-18T15:55:12.435Z</time></trkpt><trkpt lat="44.7934816" lon="5.3736856"><ele>546.0</ele><time>2026-04-18T15:55:13.435Z</time></trkpt><trkpt lat="44.7935005" lon="5.3739615"><ele>537.3333333333334</ele><time>2026-04-18T15:55:14.434Z</time></trkpt><trkpt lat="44.7935074" lon="5.3742305"><ele>528.6666666666667</ele><time>2026-04-18T15:55:15.435Z</time></trkpt><trkpt lat="44.7935128" lon="5.3744937"><ele>520.0</ele><time>2026-04-18T15:55:16.435Z</time></trkpt><trkpt lat="44.7935394" lon="5.3747614"><ele>520.0</ele><time>2026-04-18T15:55:17.435Z</time></trkpt><trkpt lat="44.7935761" lon="5.3750385"><ele>520.0</ele><time>2026-04-18T15:55:18.435Z</time></trkpt><trkpt lat="44.793619" lon="5.3753237"><ele>520.0</ele><time>2026-04-18T15:55:19.435Z</time></trkpt><trkpt lat="44.7936614" lon="5.3755977"><ele>522.3333333333334</ele><time>2026-04-18T15:55:20.435Z</time></trkpt><trkpt lat="44.7937006" lon="5.3758566"><ele>524.6666666666666</ele><time>2026-04-18T15:55:21.435Z</time></trkpt><trkpt lat="44.7937486" lon="5.3761051"><ele>527.0</ele><time>2026-04-18T15:55:22.435Z</time></trkpt><trkpt lat="44.7938052" lon="5.3763435"><ele>527.3333333333333</ele><time>2026-04-18T15:55:23.435Z</time></trkpt><trkpt lat="44.7938717" lon="5.3765764"><ele>527.6666666666666</ele><time>2026-04-18T15:55:24.434Z</time></trkpt><trkpt lat="44.7939414" lon="5.3768003"><ele>528.0</ele><time>2026-04-18T15:55:25.435Z</time></trkpt><trkpt lat="44.794012" lon="5.3770276"><ele>529.0</ele><time>2026-04-18T15:55:26.435Z</time></trkpt><trkpt lat="44.7940624" lon="5.3772688"><ele>530.0</ele><time>2026-04-18T15:55:27.435Z</time></trkpt><trkpt lat="44.7941039" lon="5.3775184"><ele>531.0</ele><time>2026-04-18T15:55:28.435Z</time></trkpt><trkpt lat="44.7941367" lon="5.3777611"><ele>532.3333333333334</ele><time>2026-04-18T15:55:29.435Z</time></trkpt><trkpt lat="44.794148" lon="5.3780207"><ele>533.6666666666667</ele><time>2026-04-18T15:55:30.434Z</time></trkpt><trkpt lat="44.794145" lon="5.3782951"><ele>535.0</ele><time>2026-04-18T15:55:31.435Z</time></trkpt><trkpt lat="44.794139" lon="5.378587"><ele>534.3333333333334</ele><time>2026-04-18T15:55:32.435Z</time></trkpt><trkpt lat="44.7941346" lon="5.3788675"><ele>533.6666666666666</ele><time>2026-04-18T15:55:33.435Z</time></trkpt><trkpt lat="44.7941296" lon="5.3791333"><ele>533.0</ele><time>2026-04-18T15:55:34.435Z</time></trkpt><trkpt lat="44.7941301" lon="5.3793896"><ele>533.0</ele><time>2026-04-18T15:55:35.435Z</time></trkpt><trkpt lat="44.7941489" lon="5.3796483"><ele>533.0</ele><time>2026-04-18T15:55:36.436Z</time></trkpt><trkpt lat="44.7941889" lon="5.3799064"><ele>533.0</ele><time>2026-04-18T15:55:37.435Z</time></trkpt><trkpt lat="44.7942485" lon="5.3801652"><ele>532.6666666666666</ele><time>2026-04-18T15:55:38.434Z</time></trkpt><trkpt lat="44.794321" lon="5.3804275"><ele>532.3333333333334</ele><time>2026-04-18T15:55:39.435Z</time></trkpt><trkpt lat="44.7943976" lon="5.3806973"><ele>532.0</ele><time>2026-04-18T15:55:40.435Z</time></trkpt><trkpt lat="44.7944712" lon="5.3809526"><ele>531.3333333333334</ele><time>2026-04-18T15:55:41.436Z</time></trkpt><trkpt lat="44.7945497" lon="5.381204"><ele>530.6666666666666</ele><time>2026-04-18T15:55:42.435Z</time></trkpt><trkpt lat="44.7946423" lon="5.3814577"><ele>530.0</ele><time>2026-04-18T15:55:43.435Z</time></trkpt><trkpt lat="44.794745" lon="5.3816994"><ele>530.0</ele><time>2026-04-18T15:55:44.435Z</time></trkpt><trkpt lat="44.7948463" lon="5.3819223"><ele>530.0</ele><time>2026-04-18T15:55:45.434Z</time></trkpt><trkpt lat="44.7949282" lon="5.3821307"><ele>530.0</ele><time>2026-04-18T15:55:46.435Z</time></trkpt><trkpt lat="44.7949902" lon="5.3823372"><ele>529.75</ele><time>2026-04-18T15:55:47.435Z</time></trkpt><trkpt lat="44.7950418" lon="5.3825237"><ele>529.5</ele><time>2026-04-18T15:55:48.435Z</time></trkpt><trkpt lat="44.7950996" lon="5.3826885"><ele>529.25</ele><time>2026-04-18T15:55:49.435Z</time></trkpt><trkpt lat="44.7951726" lon="5.382835"><ele>529.0</ele><time>2026-04-18T15:55:50.435Z</time></trkpt><trkpt lat="44.7952666" lon="5.382936"><ele>529.0</ele><time>2026-04-18T15:55:51.435Z</time></trkpt><trkpt lat="44.7953795" lon="5.3829933"><ele>529.0</ele><time>2026-04-18T15:55:52.435Z</time></trkpt><trkpt lat="44.7955042" lon="5.3830078"><ele>529.0</ele><time>2026-04-18T15:55:53.435Z</time></trkpt><trkpt lat="44.7956318" lon="5.3829993"><ele>529.0</ele><time>2026-04-18T15:55:54.435Z</time></trkpt><trkpt lat="44.7957631" lon="5.3829811"><ele>529.0</ele><time>2026-04-18T15:55:55.435Z</time></trkpt><trkpt lat="44.7958843" lon="5.3829702"><ele>529.0</ele><time>2026-04-18T15:55:56.435Z</time></trkpt><trkpt lat="44.7959872" lon="5.3829606"><ele>529.0</ele><time>2026-04-18T15:55:57.434Z</time></trkpt><trkpt lat="44.7960978" lon="5.3829534"><ele>529.0</ele><time>2026-04-18T15:55:58.435Z</time></trkpt><trkpt lat="44.7961997" lon="5.382951"><ele>529.0</ele><time>2026-04-18T15:55:59.435Z</time></trkpt><trkpt lat="44.7963052" lon="5.3829532"><ele>529.6</ele><time>2026-04-18T15:56:00.435Z</time></trkpt><trkpt lat="44.7964082" lon="5.3829633"><ele>530.2</ele><time>2026-04-18T15:56:01.434Z</time></trkpt><trkpt lat="44.7965081" lon="5.3829759"><ele>530.8000000000001</ele><time>2026-04-18T15:56:02.435Z</time></trkpt><trkpt lat="44.7966077" lon="5.3829935"><ele>531.4</ele><time>2026-04-18T15:56:03.435Z</time></trkpt><trkpt lat="44.7967054" lon="5.383003"><ele>532.0</ele><time>2026-04-18T15:56:04.435Z</time></trkpt><trkpt lat="44.7967929" lon="5.3830296"><ele>533.1666666666667</ele><time>2026-04-18T15:56:05.435Z</time></trkpt><trkpt lat="44.7968867" lon="5.3830491"><ele>534.3333333333334</ele><time>2026-04-18T15:56:06.435Z</time></trkpt><trkpt lat="44.7969772" lon="5.3830711"><ele>535.5</ele><time>2026-04-18T15:56:07.435Z</time></trkpt><trkpt lat="44.7970588" lon="5.3831045"><ele>536.6666666666666</ele><time>2026-04-18T15:56:08.435Z</time></trkpt><trkpt lat="44.7971387" lon="5.3831391"><ele>537.8333333333333</ele><time>2026-04-18T15:56:09.434Z</time></trkpt><trkpt lat="44.7972201" lon="5.3831777"><ele>539.0</ele><time>2026-04-18T15:56:10.435Z</time></trkpt><trkpt lat="44.7973011" lon="5.3832227"><ele>539.0</ele><time>2026-04-18T15:56:11.435Z</time></trkpt><trkpt lat="44.7973823" lon="5.3832678"><ele>539.0</ele><time>2026-04-18T15:56:12.435Z</time></trkpt><trkpt lat="44.7974794" lon="5.3832852"><ele>539.0</ele><time>2026-04-18T15:56:13.435Z</time></trkpt><trkpt lat="44.7975767" lon="5.3832774"><ele>539.0</ele><time>2026-04-18T15:56:14.435Z</time></trkpt><trkpt lat="44.7976763" lon="5.3832623"><ele>539.0</ele><time>2026-04-18T15:56:15.434Z</time></trkpt><trkpt lat="44.7977665" lon="5.3832576"><ele>540.6</ele><time>2026-04-18T15:56:16.434Z</time></trkpt><trkpt lat="44.7978606" lon="5.3832648"><ele>542.2</ele><time>2026-04-18T15:56:17.435Z</time></trkpt><trkpt lat="44.7979502" lon="5.3832885"><ele>543.8000000000001</ele><time>2026-04-18T15:56:18.435Z</time></trkpt><trkpt lat="44.7980399" lon="5.3833267"><ele>545.4</ele><time>2026-04-18T15:56:19.435Z</time></trkpt><trkpt lat="44.7981304" lon="5.3833697"><ele>547.0</ele><time>2026-04-18T15:56:20.434Z</time></trkpt><trkpt lat="44.7982189" lon="5.3834058"><ele>547.0</ele><time>2026-04-18T15:56:21.435Z</time></trkpt><trkpt lat="44.7983107" lon="5.3834434"><ele>547.0</ele><time>2026-04-18T15:56:22.434Z</time></trkpt><trkpt lat="44.798395" lon="5.3834816"><ele>547.0</ele><time>2026-04-18T15:56:23.435Z</time></trkpt><trkpt lat="44.7984782" lon="5.3835398"><ele>547.0</ele><time>2026-04-18T15:56:24.435Z</time></trkpt><trkpt lat="44.798555" lon="5.3836135"><ele>547.0</ele><time>2026-04-18T15:56:25.435Z</time></trkpt><trkpt lat="44.7986323" lon="5.3836856"><ele>547.6</ele><time>2026-04-18T15:56:26.435Z</time></trkpt><trkpt lat="44.7987077" lon="5.3837636"><ele>548.2</ele><time>2026-04-18T15:56:27.434Z</time></trkpt><trkpt lat="44.7987815" lon="5.3838405"><ele>548.8</ele><time>2026-04-18T15:56:28.434Z</time></trkpt><trkpt lat="44.7988549" lon="5.3839182"><ele>549.4</ele><time>2026-04-18T15:56:29.434Z</time></trkpt><trkpt lat="44.7989214" lon="5.3839884"><ele>550.0</ele><time>2026-04-18T15:56:30.434Z</time></trkpt><trkpt lat="44.7989941" lon="5.3840632"><ele>550.1666666666667</ele><time>2026-04-18T15:56:31.435Z</time></trkpt><trkpt lat="44.7990603" lon="5.3841341"><ele>550.3333333333334</ele><time>2026-04-18T15:56:32.435Z</time></trkpt><trkpt lat="44.7991211" lon="5.384221"><ele>550.5</ele><time>2026-04-18T15:56:33.435Z</time></trkpt><trkpt lat="44.7991769" lon="5.384328"><ele>550.6666666666666</ele><time>2026-04-18T15:56:34.435Z</time></trkpt><trkpt lat="44.7992141" lon="5.3844364"><ele>550.8333333333333</ele><time>2026-04-18T15:56:35.435Z</time></trkpt><trkpt lat="44.7992528" lon="5.3845457"><ele>551.0</ele><time>2026-04-18T15:56:36.435Z</time></trkpt><trkpt lat="44.7993097" lon="5.3846484"><ele>554.25</ele><time>2026-04-18T15:56:37.435Z</time></trkpt><trkpt lat="44.7993793" lon="5.3847463"><ele>557.5</ele><time>2026-04-18T15:56:38.435Z</time></trkpt><trkpt lat="44.7994666" lon="5.3848466"><ele>560.75</ele><time>2026-04-18T15:56:39.435Z</time></trkpt><trkpt lat="44.7995697" lon="5.3849617"><ele>564.0</ele><time>2026-04-18T15:56:40.435Z</time></trkpt><trkpt lat="44.7996777" lon="5.3850873"><ele>564.0</ele><time>2026-04-18T15:56:41.435Z</time></trkpt><trkpt lat="44.7997889" lon="5.3852168"><ele>564.0</ele><time>2026-04-18T15:56:42.435Z</time></trkpt><trkpt lat="44.7999288" lon="5.3853857"><ele>564.0</ele><time>2026-04-18T15:56:43.435Z</time></trkpt><trkpt lat="44.800075" lon="5.3855556"><ele>567.6666666666666</ele><time>2026-04-18T15:56:44.435Z</time></trkpt><trkpt lat="44.8002296" lon="5.3857328"><ele>571.3333333333333</ele><time>2026-04-18T15:56:45.435Z</time></trkpt><trkpt lat="44.8003791" lon="5.3859016"><ele>575.0</ele><time>2026-04-18T15:56:46.435Z</time></trkpt><trkpt lat="44.8005332" lon="5.3860731"><ele>575.0</ele><time>2026-04-18T15:56:47.434Z</time></trkpt><trkpt lat="44.8006999" lon="5.3862476"><ele>575.0</ele><time>2026-04-18T15:56:48.435Z</time></trkpt><trkpt lat="44.8008665" lon="5.3864041"><ele>575.0</ele><time>2026-04-18T15:56:49.435Z</time></trkpt><trkpt lat="44.8010211" lon="5.3865376"><ele>573.6666666666666</ele><time>2026-04-18T15:56:50.436Z</time></trkpt><trkpt lat="44.8011711" lon="5.3866552"><ele>572.3333333333334</ele><time>2026-04-18T15:56:51.435Z</time></trkpt><trkpt lat="44.8013183" lon="5.3867608"><ele>571.0</ele><time>2026-04-18T15:56:52.435Z</time></trkpt><trkpt lat="44.8014739" lon="5.3868412"><ele>571.0</ele><time>2026-04-18T15:56:53.434Z</time></trkpt><trkpt lat="44.8016386" lon="5.3868963"><ele>571.0</ele><time>2026-04-18T15:56:54.435Z</time></trkpt><trkpt lat="44.8018047" lon="5.3869164"><ele>571.0</ele><time>2026-04-18T15:56:55.435Z</time></trkpt><trkpt lat="44.801948" lon="5.3869043"><ele>573.6</ele><time>2026-04-18T15:56:56.435Z</time></trkpt><trkpt lat="44.8020725" lon="5.3868727"><ele>576.2</ele><time>2026-04-18T15:56:57.435Z</time></trkpt><trkpt lat="44.802178" lon="5.3868494"><ele>578.8</ele><time>2026-04-18T15:56:58.435Z</time></trkpt><trkpt lat="44.8022726" lon="5.3868676"><ele>581.4</ele><time>2026-04-18T15:56:59.434Z</time></trkpt><trkpt lat="44.8023544" lon="5.3869432"><ele>584.0</ele><time>2026-04-18T15:57:00.435Z</time></trkpt><trkpt lat="44.8023881" lon="5.387065"><ele>583.25</ele><time>2026-04-18T15:57:01.435Z</time></trkpt><trkpt lat="44.8023758" lon="5.3871935"><ele>582.5</ele><time>2026-04-18T15:57:02.435Z</time></trkpt><trkpt lat="44.802326" lon="5.3873285"><ele>581.75</ele><time>2026-04-18T15:57:03.435Z</time></trkpt><trkpt lat="44.8022715" lon="5.3874779"><ele>581.0</ele><time>2026-04-18T15:57:04.434Z</time></trkpt><trkpt lat="44.802229" lon="5.3876533"><ele>581.0</ele><time>2026-04-18T15:57:05.435Z</time></trkpt><trkpt lat="44.8022217" lon="5.3878488"><ele>581.0</ele><time>2026-04-18T15:57:06.435Z</time></trkpt><trkpt lat="44.8022477" lon="5.388051"><ele>581.0</ele><time>2026-04-18T15:57:07.435Z</time></trkpt><trkpt lat="44.8023099" lon="5.3882508"><ele>581.0</ele><time>2026-04-18T15:57:08.435Z</time></trkpt><trkpt lat="44.8024039" lon="5.388443"><ele>582.0</ele><time>2026-04-18T15:57:09.435Z</time></trkpt><trkpt lat="44.802513" lon="5.3886453"><ele>583.0</ele><time>2026-04-18T15:57:10.435Z</time></trkpt><trkpt lat="44.8026168" lon="5.3888568"><ele>584.0</ele><time>2026-04-18T15:57:11.436Z</time></trkpt><trkpt lat="44.8027059" lon="5.3890793"><ele>589.3333333333333</ele><time>2026-04-18T15:57:12.435Z</time></trkpt><trkpt lat="44.802792" lon="5.3892761"><ele>594.6666666666666</ele><time>2026-04-18T15:57:13.434Z</time></trkpt><trkpt lat="44.8028978" lon="5.389447"><ele>600.0</ele><time>2026-04-18T15:57:14.435Z</time></trkpt><trkpt lat="44.8030131" lon="5.3895773"><ele>597.75</ele><time>2026-04-18T15:57:15.435Z</time></trkpt><trkpt lat="44.8031247" lon="5.3896924"><ele>595.5</ele><time>2026-04-18T15:57:16.435Z</time></trkpt><trkpt lat="44.8032167" lon="5.3898311"><ele>593.25</ele><time>2026-04-18T15:57:17.435Z</time></trkpt><trkpt lat="44.8032758" lon="5.3900028"><ele>591.0</ele><time>2026-04-18T15:57:18.435Z</time></trkpt><trkpt lat="44.8033393" lon="5.3901865"><ele>591.0</ele><time>2026-04-18T15:57:19.435Z</time></trkpt><trkpt lat="44.8034408" lon="5.3903577"><ele>591.0</ele><time>2026-04-18T15:57:20.435Z</time></trkpt><trkpt lat="44.8035552" lon="5.3905333"><ele>591.0</ele><time>2026-04-18T15:57:21.435Z</time></trkpt><trkpt lat="44.8036717" lon="5.3907147"><ele>595.3333333333334</ele><time>2026-04-18T15:57:22.434Z</time></trkpt><trkpt lat="44.8037872" lon="5.3908823"><ele>599.6666666666667</ele><time>2026-04-18T15:57:23.435Z</time></trkpt><trkpt lat="44.8039113" lon="5.3910112"><ele>604.0</ele><time>2026-04-18T15:57:24.435Z</time></trkpt><trkpt lat="44.8040522" lon="5.3910982"><ele>604.0</ele><time>2026-04-18T15:57:25.435Z</time></trkpt><trkpt lat="44.8042113" lon="5.3911477"><ele>604.0</ele><time>2026-04-18T15:57:26.435Z</time></trkpt><trkpt lat="44.804378" lon="5.3911695"><ele>604.0</ele><time>2026-04-18T15:57:27.435Z</time></trkpt><trkpt lat="44.8045561" lon="5.3911775"><ele>608.0</ele><time>2026-04-18T15:57:28.435Z</time></trkpt><trkpt lat="44.8047472" lon="5.3911769"><ele>612.0</ele><time>2026-04-18T15:57:29.435Z</time></trkpt><trkpt lat="44.8049336" lon="5.3911608"><ele>616.0</ele><time>2026-04-18T15:57:30.435Z</time></trkpt><trkpt lat="44.8051073" lon="5.3911259"><ele>615.6666666666667</ele><time>2026-04-18T15:57:31.435Z</time></trkpt><trkpt lat="44.8052833" lon="5.3910645"><ele>615.3333333333334</ele><time>2026-04-18T15:57:32.435Z</time></trkpt><trkpt lat="44.8054506" lon="5.3909801"><ele>615.0</ele><time>2026-04-18T15:57:33.435Z</time></trkpt><trkpt lat="44.8056164" lon="5.3908815"><ele>615.0</ele><time>2026-04-18T15:57:34.435Z</time></trkpt><trkpt lat="44.8057747" lon="5.3907808"><ele>615.0</ele><time>2026-04-18T15:57:35.435Z</time></trkpt><trkpt lat="44.8059366" lon="5.3906815"><ele>615.0</ele><time>2026-04-18T15:57:36.436Z</time></trkpt><trkpt lat="44.8060837" lon="5.3905996"><ele>618.0</ele><time>2026-04-18T15:57:37.435Z</time></trkpt><trkpt lat="44.8062194" lon="5.3905261"><ele>621.0</ele><time>2026-04-18T15:57:38.435Z</time></trkpt><trkpt lat="44.8063354" lon="5.3904668"><ele>624.0</ele><time>2026-04-18T15:57:39.435Z</time></trkpt><trkpt lat="44.8064315" lon="5.3904253"><ele>627.0</ele><time>2026-04-18T15:57:40.435Z</time></trkpt><trkpt lat="44.8065218" lon="5.3904299"><ele>627.0</ele><time>2026-04-18T15:57:41.434Z</time></trkpt><trkpt lat="44.8065937" lon="5.3904456"><ele>627.0</ele><time>2026-04-18T15:57:42.435Z</time></trkpt><trkpt lat="44.8065998" lon="5.3905889"><ele>627.0</ele><time>2026-04-18T15:57:43.435Z</time></trkpt><trkpt lat="44.8065899" lon="5.3907304"><ele>627.0</ele><time>2026-04-18T15:57:44.434Z</time></trkpt><trkpt lat="44.8065539" lon="5.3908848"><ele>627.0</ele><time>2026-04-18T15:57:45.434Z</time></trkpt><trkpt lat="44.8065006" lon="5.3910455"><ele>627.0</ele><time>2026-04-18T15:57:46.435Z</time></trkpt><trkpt lat="44.8064629" lon="5.3912129"><ele>627.0</ele><time>2026-04-18T15:57:47.434Z</time></trkpt><trkpt lat="44.8064651" lon="5.3914079"><ele>627.0</ele><time>2026-04-18T15:57:48.435Z</time></trkpt><trkpt lat="44.8064837" lon="5.3916178"><ele>627.0</ele><time>2026-04-18T15:57:49.435Z</time></trkpt><trkpt lat="44.8065087" lon="5.3918426"><ele>627.6666666666666</ele><time>2026-04-18T15:57:50.434Z</time></trkpt><trkpt lat="44.8065493" lon="5.3920643"><ele>628.3333333333333</ele><time>2026-04-18T15:57:51.435Z</time></trkpt><trkpt lat="44.8066282" lon="5.3923002"><ele>629.0</ele><time>2026-04-18T15:57:52.435Z</time></trkpt><trkpt lat="44.8067128" lon="5.3925246"><ele>627.75</ele><time>2026-04-18T15:57:53.435Z</time></trkpt><trkpt lat="44.8067858" lon="5.392718"><ele>626.5</ele><time>2026-04-18T15:57:54.435Z</time></trkpt><trkpt lat="44.8068628" lon="5.3928811"><ele>625.25</ele><time>2026-04-18T15:57:55.435Z</time></trkpt><trkpt lat="44.8069516" lon="5.3930015"><ele>624.0</ele><time>2026-04-18T15:57:56.435Z</time></trkpt><trkpt lat="44.8070662" lon="5.3930731"><ele>624.0</ele><time>2026-04-18T15:57:57.435Z</time></trkpt><trkpt lat="44.8071995" lon="5.3930927"><ele>624.0</ele><time>2026-04-18T15:57:58.435Z</time></trkpt><trkpt lat="44.8073458" lon="5.3930948"><ele>624.0</ele><time>2026-04-18T15:57:59.434Z</time></trkpt><trkpt lat="44.8075019" lon="5.3931162"><ele>624.0</ele><time>2026-04-18T15:58:00.434Z</time></trkpt><trkpt lat="44.8076626" lon="5.3931776"><ele>630.3333333333334</ele><time>2026-04-18T15:58:01.435Z</time></trkpt><trkpt lat="44.8078072" lon="5.3932654"><ele>636.6666666666667</ele><time>2026-04-18T15:58:02.435Z</time></trkpt><trkpt lat="44.8079442" lon="5.3933678"><ele>643.0</ele><time>2026-04-18T15:58:03.435Z</time></trkpt><trkpt lat="44.8080693" lon="5.3934708"><ele>643.0</ele><time>2026-04-18T15:58:04.434Z</time></trkpt><trkpt lat="44.8081923" lon="5.3935408"><ele>643.0</ele><time>2026-04-18T15:58:05.435Z</time></trkpt><trkpt lat="44.8083302" lon="5.3935702"><ele>643.0</ele><time>2026-04-18T15:58:06.435Z</time></trkpt><trkpt lat="44.8084845" lon="5.3935739"><ele>643.0</ele><time>2026-04-18T15:58:07.435Z</time></trkpt><trkpt lat="44.8086484" lon="5.3935722"><ele>648.6666666666667</ele><time>2026-04-18T15:58:08.435Z</time></trkpt><trkpt lat="44.8088232" lon="5.3935932"><ele>654.3333333333334</ele><time>2026-04-18T15:58:09.435Z</time></trkpt><trkpt lat="44.8090106" lon="5.3936396"><ele>660.0</ele><time>2026-04-18T15:58:10.435Z</time></trkpt><trkpt lat="44.8092052" lon="5.3936979"><ele>663.0</ele><time>2026-04-18T15:58:11.434Z</time></trkpt><trkpt lat="44.8094054" lon="5.3937547"><ele>666.0</ele><time>2026-04-18T15:58:12.435Z</time></trkpt><trkpt lat="44.8096128" lon="5.3937986"><ele>669.0</ele><time>2026-04-18T15:58:13.435Z</time></trkpt><trkpt lat="44.8098218" lon="5.3938173"><ele>669.0</ele><time>2026-04-18T15:58:14.435Z</time></trkpt><trkpt lat="44.8100336" lon="5.3938263"><ele>669.0</ele><time>2026-04-18T15:58:15.435Z</time></trkpt><trkpt lat="44.8102404" lon="5.3938241"><ele>669.0</ele><time>2026-04-18T15:58:16.435Z</time></trkpt><trkpt lat="44.8104265" lon="5.3938225"><ele>660.0</ele><time>2026-04-18T15:58:17.435Z</time></trkpt><trkpt lat="44.8105944" lon="5.3938422"><ele>651.0</ele><time>2026-04-18T15:58:18.435Z</time></trkpt><trkpt lat="44.8107582" lon="5.3939048"><ele>642.0</ele><time>2026-04-18T15:58:19.435Z</time></trkpt><trkpt lat="44.8109246" lon="5.3939867"><ele>646.3333333333334</ele><time>2026-04-18T15:58:20.435Z</time></trkpt><trkpt lat="44.8110986" lon="5.3940824"><ele>650.6666666666667</ele><time>2026-04-18T15:58:21.435Z</time></trkpt><trkpt lat="44.8112664" lon="5.3941791"><ele>655.0</ele><time>2026-04-18T15:58:22.434Z</time></trkpt><trkpt lat="44.8114165" lon="5.3942689"><ele>655.0</ele><time>2026-04-18T15:58:23.435Z</time></trkpt><trkpt lat="44.811556" lon="5.3943463"><ele>655.0</ele><time>2026-04-18T15:58:24.435Z</time></trkpt><trkpt lat="44.8116942" lon="5.3944082"><ele>655.0</ele><time>2026-04-18T15:58:25.435Z</time></trkpt><trkpt lat="44.8118382" lon="5.3944352"><ele>655.0</ele><time>2026-04-18T15:58:26.435Z</time></trkpt><trkpt lat="44.8119842" lon="5.3944195"><ele>652.25</ele><time>2026-04-18T15:58:27.435Z</time></trkpt><trkpt lat="44.8121196" lon="5.3943552"><ele>649.5</ele><time>2026-04-18T15:58:28.435Z</time></trkpt><trkpt lat="44.8122273" lon="5.3942427"><ele>646.75</ele><time>2026-04-18T15:58:29.435Z</time></trkpt><trkpt lat="44.8123097" lon="5.3940951"><ele>644.0</ele><time>2026-04-18T15:58:30.434Z</time></trkpt><trkpt lat="44.8123471" lon="5.3939095"><ele>651.0</ele><time>2026-04-18T15:58:31.434Z</time></trkpt><trkpt lat="44.8124148" lon="5.393695"><ele>658.0</ele><time>2026-04-18T15:58:32.635Z</time></trkpt><trkpt lat="44.8125723" lon="5.3933318"><ele>659.6666666666667</ele><time>2026-04-18T15:58:34.435Z</time></trkpt><trkpt lat="44.8126762" lon="5.3931444"><ele>661.3333333333334</ele><time>2026-04-18T15:58:35.434Z</time></trkpt><trkpt lat="44.8128019" lon="5.3929529"><ele>663.0</ele><time>2026-04-18T15:58:36.434Z</time></trkpt><trkpt lat="44.8129341" lon="5.3927669"><ele>663.0</ele><time>2026-04-18T15:58:37.434Z</time></trkpt><trkpt lat="44.8130541" lon="5.3926158"><ele>663.0</ele><time>2026-04-18T15:58:38.434Z</time></trkpt><trkpt lat="44.8131648" lon="5.3924842"><ele>663.0</ele><time>2026-04-18T15:58:39.434Z</time></trkpt><trkpt lat="44.8132603" lon="5.3923723"><ele>663.0</ele><time>2026-04-18T15:58:40.434Z</time></trkpt><trkpt lat="44.8133535" lon="5.3922949"><ele>663.0</ele><time>2026-04-18T15:58:41.434Z</time></trkpt><trkpt lat="44.813455" lon="5.3922811"><ele>663.0</ele><time>2026-04-18T15:58:42.434Z</time></trkpt><trkpt lat="44.8135529" lon="5.3922623"><ele>663.0</ele><time>2026-04-18T15:58:43.435Z</time></trkpt><trkpt lat="44.8136314" lon="5.3923262"><ele>663.0</ele><time>2026-04-18T15:58:44.434Z</time></trkpt><trkpt lat="44.8136799" lon="5.3925145"><ele>663.0</ele><time>2026-04-18T15:58:45.434Z</time></trkpt><trkpt lat="44.8137626" lon="5.392637"><ele>666.75</ele><time>2026-04-18T15:58:46.434Z</time></trkpt><trkpt lat="44.8138771" lon="5.3926947"><ele>670.5</ele><time>2026-04-18T15:58:47.434Z</time></trkpt><trkpt lat="44.8140086" lon="5.3927093"><ele>674.25</ele><time>2026-04-18T15:58:48.433Z</time></trkpt><trkpt lat="44.8141494" lon="5.3926897"><ele>678.0</ele><time>2026-04-18T15:58:49.434Z</time></trkpt><trkpt lat="44.8143082" lon="5.3926621"><ele>679.6666666666666</ele><time>2026-04-18T15:58:50.434Z</time></trkpt><trkpt lat="44.8144792" lon="5.3926349"><ele>681.3333333333333</ele><time>2026-04-18T15:58:51.433Z</time></trkpt><trkpt lat="44.8146643" lon="5.3926024"><ele>683.0</ele><time>2026-04-18T15:58:52.434Z</time></trkpt><trkpt lat="44.8148653" lon="5.3925556"><ele>683.0</ele><time>2026-04-18T15:58:53.434Z</time></trkpt><trkpt lat="44.8150614" lon="5.3925031"><ele>683.0</ele><time>2026-04-18T15:58:54.434Z</time></trkpt><trkpt lat="44.8152692" lon="5.3924476"><ele>683.0</ele><time>2026-04-18T15:58:55.434Z</time></trkpt><trkpt lat="44.815488" lon="5.3923938"><ele>683.0</ele><time>2026-04-18T15:58:56.434Z</time></trkpt><trkpt lat="44.8157158" lon="5.3923558"><ele>683.0</ele><time>2026-04-18T15:58:57.434Z</time></trkpt><trkpt lat="44.8159386" lon="5.3923389"><ele>683.6666666666666</ele><time>2026-04-18T15:58:58.434Z</time></trkpt><trkpt lat="44.816166" lon="5.3923381"><ele>684.3333333333334</ele><time>2026-04-18T15:58:59.433Z</time></trkpt><trkpt lat="44.816383" lon="5.3923639"><ele>685.0</ele><time>2026-04-18T15:59:00.434Z</time></trkpt><trkpt lat="44.8165923" lon="5.3924043"><ele>685.0</ele><time>2026-04-18T15:59:01.434Z</time></trkpt><trkpt lat="44.8167989" lon="5.3924468"><ele>685.0</ele><time>2026-04-18T15:59:02.434Z</time></trkpt><trkpt lat="44.8169984" lon="5.3924829"><ele>685.0</ele><time>2026-04-18T15:59:03.434Z</time></trkpt><trkpt lat="44.8171869" lon="5.3925237"><ele>688.3333333333334</ele><time>2026-04-18T15:59:04.434Z</time></trkpt><trkpt lat="44.817363" lon="5.3925545"><ele>691.6666666666666</ele><time>2026-04-18T15:59:05.434Z</time></trkpt><trkpt lat="44.8175323" lon="5.3925794"><ele>695.0</ele><time>2026-04-18T15:59:06.433Z</time></trkpt><trkpt lat="44.8176954" lon="5.3926091"><ele>697.6666666666666</ele><time>2026-04-18T15:59:07.434Z</time></trkpt><trkpt lat="44.8178548" lon="5.3926399"><ele>700.3333333333334</ele><time>2026-04-18T15:59:08.433Z</time></trkpt><trkpt lat="44.8180075" lon="5.3926718"><ele>703.0</ele><time>2026-04-18T15:59:09.434Z</time></trkpt><trkpt lat="44.8181507" lon="5.3927042"><ele>703.0</ele><time>2026-04-18T15:59:10.434Z</time></trkpt><trkpt lat="44.8182934" lon="5.3927258"><ele>703.0</ele><time>2026-04-18T15:59:11.434Z</time></trkpt><trkpt lat="44.8184369" lon="5.3927373"><ele>703.0</ele><time>2026-04-18T15:59:12.434Z</time></trkpt><trkpt lat="44.818572" lon="5.3927345"><ele>703.0</ele><time>2026-04-18T15:59:13.434Z</time></trkpt><trkpt lat="44.8187047" lon="5.3927154"><ele>701.5</ele><time>2026-04-18T15:59:14.434Z</time></trkpt><trkpt lat="44.8188378" lon="5.3926699"><ele>700.0</ele><time>2026-04-18T15:59:15.434Z</time></trkpt><trkpt lat="44.8189668" lon="5.3926049"><ele>698.5</ele><time>2026-04-18T15:59:16.434Z</time></trkpt><trkpt lat="44.8190832" lon="5.3925119"><ele>697.0</ele><time>2026-04-18T15:59:17.433Z</time></trkpt><trkpt lat="44.8191889" lon="5.3924194"><ele>697.0</ele><time>2026-04-18T15:59:18.433Z</time></trkpt><trkpt lat="44.8192986" lon="5.3923288"><ele>697.0</ele><time>2026-04-18T15:59:19.434Z</time></trkpt><trkpt lat="44.8193872" lon="5.3922243"><ele>697.0</ele><time>2026-04-18T15:59:20.434Z</time></trkpt><trkpt lat="44.8194908" lon="5.3921195"><ele>697.0</ele><time>2026-04-18T15:59:21.434Z</time></trkpt><trkpt lat="44.8195579" lon="5.3920466"><ele>698.6</ele><time>2026-04-18T15:59:22.433Z</time></trkpt><trkpt lat="44.8196449" lon="5.3919788"><ele>700.2</ele><time>2026-04-18T15:59:23.434Z</time></trkpt><trkpt lat="44.8197268" lon="5.39193"><ele>701.8</ele><time>2026-04-18T15:59:24.434Z</time></trkpt><trkpt lat="44.8198283" lon="5.3919951"><ele>703.4</ele><time>2026-04-18T15:59:25.434Z</time></trkpt><trkpt lat="44.8199035" lon="5.3920844"><ele>705.0</ele><time>2026-04-18T15:59:26.434Z</time></trkpt><trkpt lat="44.8199638" lon="5.3922045"><ele>705.0</ele><time>2026-04-18T15:59:27.434Z</time></trkpt><trkpt lat="44.8200254" lon="5.3923315"><ele>705.0</ele><time>2026-04-18T15:59:28.433Z</time></trkpt><trkpt lat="44.8200846" lon="5.3924394"><ele>705.0</ele><time>2026-04-18T15:59:29.434Z</time></trkpt><trkpt lat="44.8201501" lon="5.3925269"><ele>705.0</ele><time>2026-04-18T15:59:30.434Z</time></trkpt><trkpt lat="44.8202318" lon="5.3926013"><ele>705.0</ele><time>2026-04-18T15:59:31.434Z</time></trkpt><trkpt lat="44.8203209" lon="5.3926628"><ele>708.6</ele><time>2026-04-18T15:59:32.434Z</time></trkpt><trkpt lat="44.8204145" lon="5.3927276"><ele>712.2</ele><time>2026-04-18T15:59:33.434Z</time></trkpt><trkpt lat="44.8205076" lon="5.392807"><ele>715.8</ele><time>2026-04-18T15:59:34.434Z</time></trkpt><trkpt lat="44.8205987" lon="5.3929015"><ele>719.4</ele><time>2026-04-18T15:59:35.434Z</time></trkpt><trkpt lat="44.8206788" lon="5.3930133"><ele>723.0</ele><time>2026-04-18T15:59:36.434Z</time></trkpt><trkpt lat="44.8207413" lon="5.3931377"><ele>723.0</ele><time>2026-04-18T15:59:37.434Z</time></trkpt><trkpt lat="44.8207929" lon="5.3932713"><ele>723.0</ele><time>2026-04-18T15:59:38.434Z</time></trkpt><trkpt lat="44.8208353" lon="5.3934138"><ele>723.0</ele><time>2026-04-18T15:59:39.433Z</time></trkpt><trkpt lat="44.820872" lon="5.3935594"><ele>723.0</ele><time>2026-04-18T15:59:40.434Z</time></trkpt><trkpt lat="44.8208995" lon="5.3937097"><ele>723.0</ele><time>2026-04-18T15:59:41.433Z</time></trkpt><trkpt lat="44.8208911" lon="5.3938682"><ele>723.5</ele><time>2026-04-18T15:59:42.434Z</time></trkpt><trkpt lat="44.820862" lon="5.3940285"><ele>724.0</ele><time>2026-04-18T15:59:43.434Z</time></trkpt><trkpt lat="44.8208062" lon="5.3941741"><ele>724.5</ele><time>2026-04-18T15:59:44.433Z</time></trkpt><trkpt lat="44.8207311" lon="5.3943003"><ele>725.0</ele><time>2026-04-18T15:59:45.434Z</time></trkpt><trkpt lat="44.8206407" lon="5.394398"><ele>725.0</ele><time>2026-04-18T15:59:46.434Z</time></trkpt><trkpt lat="44.8205495" lon="5.3944839"><ele>725.0</ele><time>2026-04-18T15:59:47.434Z</time></trkpt><trkpt lat="44.8204599" lon="5.3945715"><ele>725.0</ele><time>2026-04-18T15:59:48.434Z</time></trkpt><trkpt lat="44.8203776" lon="5.3946775"><ele>725.0</ele><time>2026-04-18T15:59:49.434Z</time></trkpt><trkpt lat="44.8203084" lon="5.394799"><ele>725.0</ele><time>2026-04-18T15:59:50.434Z</time></trkpt><trkpt lat="44.8202575" lon="5.3949386"><ele>726.6</ele><time>2026-04-18T15:59:51.433Z</time></trkpt><trkpt lat="44.8202351" lon="5.3950877"><ele>728.2</ele><time>2026-04-18T15:59:52.434Z</time></trkpt><trkpt lat="44.8202513" lon="5.3952261"><ele>729.8</ele><time>2026-04-18T15:59:53.433Z</time></trkpt><trkpt lat="44.8203052" lon="5.3953389"><ele>731.4</ele><time>2026-04-18T15:59:54.434Z</time></trkpt><trkpt lat="44.8203887" lon="5.3954264"><ele>733.0</ele><time>2026-04-18T15:59:55.433Z</time></trkpt><trkpt lat="44.8204853" lon="5.3954959"><ele>730.2</ele><time>2026-04-18T15:59:56.435Z</time></trkpt><trkpt lat="44.8205861" lon="5.3955554"><ele>727.4</ele><time>2026-04-18T15:59:57.434Z</time></trkpt><trkpt lat="44.8206894" lon="5.395601"><ele>724.6</ele><time>2026-04-18T15:59:58.434Z</time></trkpt><trkpt lat="44.8207991" lon="5.3956311"><ele>721.8000000000001</ele><time>2026-04-18T15:59:59.434Z</time></trkpt><trkpt lat="44.8209071" lon="5.3956338"><ele>719.0</ele><time>2026-04-18T16:00:00.434Z</time></trkpt><trkpt lat="44.8210183" lon="5.3956162"><ele>716.25</ele><time>2026-04-18T16:00:01.434Z</time></trkpt><trkpt lat="44.821133" lon="5.3955685"><ele>713.5</ele><time>2026-04-18T16:00:02.434Z</time></trkpt><trkpt lat="44.8212552" lon="5.3955149"><ele>710.75</ele><time>2026-04-18T16:00:03.434Z</time></trkpt><trkpt lat="44.8213792" lon="5.3954435"><ele>708.0</ele><time>2026-04-18T16:00:04.433Z</time></trkpt><trkpt lat="44.8214695" lon="5.3953647"><ele>714.4</ele><time>2026-04-18T16:00:05.434Z</time></trkpt><trkpt lat="44.8215745" lon="5.3952995"><ele>720.8</ele><time>2026-04-18T16:00:06.434Z</time></trkpt><trkpt lat="44.8216743" lon="5.3952365"><ele>727.2</ele><time>2026-04-18T16:00:07.434Z</time></trkpt><trkpt lat="44.8217764" lon="5.3951865"><ele>733.6</ele><time>2026-04-18T16:00:08.434Z</time></trkpt><trkpt lat="44.8218837" lon="5.3951265"><ele>740.0</ele><time>2026-04-18T16:00:09.434Z</time></trkpt><trkpt lat="44.8219885" lon="5.3950688"><ele>742.0</ele><time>2026-04-18T16:00:10.434Z</time></trkpt><trkpt lat="44.8221081" lon="5.3950256"><ele>744.0</ele><time>2026-04-18T16:00:11.434Z</time></trkpt><trkpt lat="44.8222345" lon="5.3950021"><ele>746.0</ele><time>2026-04-18T16:00:12.434Z</time></trkpt><trkpt lat="44.8223671" lon="5.3950021"><ele>748.0</ele><time>2026-04-18T16:00:13.434Z</time></trkpt><trkpt lat="44.8225075" lon="5.3950149"><ele>751.75</ele><time>2026-04-18T16:00:14.433Z</time></trkpt><trkpt lat="44.8226509" lon="5.3950333"><ele>755.5</ele><time>2026-04-18T16:00:15.434Z</time></trkpt><trkpt lat="44.822791" lon="5.3950555"><ele>759.25</ele><time>2026-04-18T16:00:16.434Z</time></trkpt><trkpt lat="44.8229228" lon="5.3950847"><ele>763.0</ele><time>2026-04-18T16:00:17.435Z</time></trkpt><trkpt lat="44.8230496" lon="5.3951295"><ele>763.0</ele><time>2026-04-18T16:00:18.434Z</time></trkpt><trkpt lat="44.8231736" lon="5.3951799"><ele>763.0</ele><time>2026-04-18T16:00:19.434Z</time></trkpt><trkpt lat="44.8232992" lon="5.39522"><ele>763.0</ele><time>2026-04-18T16:00:20.434Z</time></trkpt><trkpt lat="44.823426" lon="5.395256"><ele>763.0</ele><time>2026-04-18T16:00:21.435Z</time></trkpt><trkpt lat="44.8235423" lon="5.395289"><ele>765.5</ele><time>2026-04-18T16:00:22.434Z</time></trkpt><trkpt lat="44.8236467" lon="5.3953189"><ele>768.0</ele><time>2026-04-18T16:00:23.434Z</time></trkpt><trkpt lat="44.8237434" lon="5.3953501"><ele>770.5</ele><time>2026-04-18T16:00:24.433Z</time></trkpt><trkpt lat="44.8238295" lon="5.3953778"><ele>773.0</ele><time>2026-04-18T16:00:25.434Z</time></trkpt><trkpt lat="44.8239119" lon="5.3953993"><ele>775.4999999999999</ele><time>2026-04-18T16:00:26.434Z</time></trkpt><trkpt lat="44.8239782" lon="5.3954367"><ele>778.0</ele><time>2026-04-18T16:00:27.434Z</time></trkpt><trkpt lat="44.8240483" lon="5.3954642"><ele>777.9999999999999</ele><time>2026-04-18T16:00:28.433Z</time></trkpt><trkpt lat="44.8241097" lon="5.3954316"><ele>778.0</ele><time>2026-04-18T16:00:29.434Z</time></trkpt><trkpt lat="44.8241243" lon="5.3952687"><ele>778.0</ele><time>2026-04-18T16:00:31.433Z</time></trkpt><trkpt lat="44.8240669" lon="5.39521"><ele>778.0</ele><time>2026-04-18T16:00:32.433Z</time></trkpt><trkpt lat="44.8239912" lon="5.3951901"><ele>777.9999999999999</ele><time>2026-04-18T16:00:33.434Z</time></trkpt><trkpt lat="44.8239004" lon="5.3951823"><ele>778.0</ele><time>2026-04-18T16:00:34.434Z</time></trkpt><trkpt lat="44.8237985" lon="5.3951651"><ele>778.0</ele><time>2026-04-18T16:00:35.434Z</time></trkpt><trkpt lat="44.8236927" lon="5.3951331"><ele>778.0</ele><time>2026-04-18T16:00:36.433Z</time></trkpt><trkpt lat="44.823582" lon="5.395091"><ele>778.0</ele><time>2026-04-18T16:00:37.434Z</time></trkpt><trkpt lat="44.8234723" lon="5.3950409"><ele>778.0</ele><time>2026-04-18T16:00:38.434Z</time></trkpt><trkpt lat="44.8233651" lon="5.394988"><ele>774.25</ele><time>2026-04-18T16:00:39.434Z</time></trkpt><trkpt lat="44.8232575" lon="5.3949202"><ele>770.5</ele><time>2026-04-18T16:00:40.434Z</time></trkpt><trkpt lat="44.8231495" lon="5.3948494"><ele>766.75</ele><time>2026-04-18T16:00:41.433Z</time></trkpt><trkpt lat="44.823044" lon="5.3947764"><ele>763.0</ele><time>2026-04-18T16:00:42.434Z</time></trkpt><trkpt lat="44.8229377" lon="5.394699"><ele>765.5</ele><time>2026-04-18T16:00:43.434Z</time></trkpt><trkpt lat="44.8228289" lon="5.3946218"><ele>768.0</ele><time>2026-04-18T16:00:44.435Z</time></trkpt><trkpt lat="44.8227232" lon="5.3945389"><ele>770.5</ele><time>2026-04-18T16:00:45.434Z</time></trkpt><trkpt lat="44.8226192" lon="5.3944366"><ele>773.0</ele><time>2026-04-18T16:00:46.434Z</time></trkpt><trkpt lat="44.8225157" lon="5.3943258"><ele>773.0</ele><time>2026-04-18T16:00:47.434Z</time></trkpt><trkpt lat="44.8224087" lon="5.3942061"><ele>773.0</ele><time>2026-04-18T16:00:48.434Z</time></trkpt><trkpt lat="44.8223002" lon="5.3940837"><ele>773.0</ele><time>2026-04-18T16:00:49.434Z</time></trkpt><trkpt lat="44.8222074" lon="5.3939711"><ele>773.0</ele><time>2026-04-18T16:00:50.434Z</time></trkpt><trkpt lat="44.8221197" lon="5.393852"><ele>777.75</ele><time>2026-04-18T16:00:51.434Z</time></trkpt><trkpt lat="44.8220436" lon="5.3937129"><ele>782.5</ele><time>2026-04-18T16:00:52.433Z</time></trkpt><trkpt lat="44.8219851" lon="5.3935506"><ele>787.25</ele><time>2026-04-18T16:00:53.434Z</time></trkpt><trkpt lat="44.8219389" lon="5.393374"><ele>792.0</ele><time>2026-04-18T16:00:54.434Z</time></trkpt><trkpt lat="44.8219" lon="5.3931965"><ele>792.0</ele><time>2026-04-18T16:00:55.434Z</time></trkpt><trkpt lat="44.8218635" lon="5.3930204"><ele>792.0</ele><time>2026-04-18T16:00:56.434Z</time></trkpt><trkpt lat="44.8218281" lon="5.3928608"><ele>792.0</ele><time>2026-04-18T16:00:57.434Z</time></trkpt><trkpt lat="44.8217844" lon="5.392705"><ele>792.0</ele><time>2026-04-18T16:00:58.434Z</time></trkpt><trkpt lat="44.8217353" lon="5.3925547"><ele>792.8333333333334</ele><time>2026-04-18T16:00:59.434Z</time></trkpt><trkpt lat="44.8216963" lon="5.3924214"><ele>793.6666666666667</ele><time>2026-04-18T16:01:00.434Z</time></trkpt><trkpt lat="44.8216577" lon="5.392296"><ele>794.5</ele><time>2026-04-18T16:01:01.434Z</time></trkpt><trkpt lat="44.8216173" lon="5.3921944"><ele>795.3333333333334</ele><time>2026-04-18T16:01:02.434Z</time></trkpt><trkpt lat="44.8215663" lon="5.3921035"><ele>796.1666666666667</ele><time>2026-04-18T16:01:03.434Z</time></trkpt><trkpt lat="44.8215227" lon="5.3920373"><ele>797.0</ele><time>2026-04-18T16:01:04.434Z</time></trkpt><trkpt lat="44.8215192" lon="5.3918874"><ele>797.0</ele><time>2026-04-18T16:01:06.434Z</time></trkpt><trkpt lat="44.8216281" lon="5.3918877"><ele>797.0</ele><time>2026-04-18T16:01:08.434Z</time></trkpt><trkpt lat="44.8216686" lon="5.3919615"><ele>797.0</ele><time>2026-04-18T16:01:09.434Z</time></trkpt><trkpt lat="44.8216895" lon="5.3920811"><ele>797.0</ele><time>2026-04-18T16:01:10.434Z</time></trkpt><trkpt lat="44.8217243" lon="5.3922237"><ele>797.0</ele><time>2026-04-18T16:01:11.433Z</time></trkpt><trkpt lat="44.8217636" lon="5.3923526"><ele>796.0</ele><time>2026-04-18T16:01:12.434Z</time></trkpt><trkpt lat="44.8218084" lon="5.3924834"><ele>795.0</ele><time>2026-04-18T16:01:13.434Z</time></trkpt><trkpt lat="44.8218689" lon="5.3926352"><ele>794.0</ele><time>2026-04-18T16:01:14.434Z</time></trkpt><trkpt lat="44.8219223" lon="5.3927682"><ele>793.0</ele><time>2026-04-18T16:01:15.434Z</time></trkpt><trkpt lat="44.8219811" lon="5.3929047"><ele>792.0</ele><time>2026-04-18T16:01:16.434Z</time></trkpt><trkpt lat="44.8220407" lon="5.3930447"><ele>792.0</ele><time>2026-04-18T16:01:17.434Z</time></trkpt><trkpt lat="44.8221095" lon="5.3931934"><ele>792.0</ele><time>2026-04-18T16:01:18.434Z</time></trkpt><trkpt lat="44.8221829" lon="5.3933305"><ele>792.0</ele><time>2026-04-18T16:01:19.434Z</time></trkpt><trkpt lat="44.8222734" lon="5.3934494"><ele>792.0</ele><time>2026-04-18T16:01:20.434Z</time></trkpt><trkpt lat="44.822388" lon="5.3935587"><ele>792.0</ele><time>2026-04-18T16:01:21.434Z</time></trkpt><trkpt lat="44.8225051" lon="5.3936568"><ele>792.0</ele><time>2026-04-18T16:01:22.435Z</time></trkpt><trkpt lat="44.8226184" lon="5.3937512"><ele>792.0</ele><time>2026-04-18T16:01:23.434Z</time></trkpt><trkpt lat="44.8227246" lon="5.3938541"><ele>792.0</ele><time>2026-04-18T16:01:24.434Z</time></trkpt><trkpt lat="44.8228212" lon="5.3939662"><ele>793.0</ele><time>2026-04-18T16:01:25.434Z</time></trkpt><trkpt lat="44.8229218" lon="5.3940746"><ele>794.0</ele><time>2026-04-18T16:01:26.434Z</time></trkpt><trkpt lat="44.823036" lon="5.3941674"><ele>795.0</ele><time>2026-04-18T16:01:27.433Z</time></trkpt><trkpt lat="44.8231616" lon="5.3942471"><ele>796.0</ele><time>2026-04-18T16:01:28.434Z</time></trkpt><trkpt lat="44.8232931" lon="5.3943111"><ele>796.0</ele><time>2026-04-18T16:01:29.434Z</time></trkpt><trkpt lat="44.8234286" lon="5.3943564"><ele>796.0</ele><time>2026-04-18T16:01:30.434Z</time></trkpt><trkpt lat="44.8235697" lon="5.3943908"><ele>796.0</ele><time>2026-04-18T16:01:31.434Z</time></trkpt><trkpt lat="44.8236978" lon="5.3944119"><ele>796.0</ele><time>2026-04-18T16:01:32.434Z</time></trkpt><trkpt lat="44.8238252" lon="5.3944319"><ele>801.0</ele><time>2026-04-18T16:01:33.434Z</time></trkpt><trkpt lat="44.8239542" lon="5.3944563"><ele>806.0</ele><time>2026-04-18T16:01:34.434Z</time></trkpt><trkpt lat="44.8240862" lon="5.3944887"><ele>811.0</ele><time>2026-04-18T16:01:35.434Z</time></trkpt><trkpt lat="44.8242139" lon="5.3945334"><ele>816.0</ele><time>2026-04-18T16:01:36.434Z</time></trkpt><trkpt lat="44.8243357" lon="5.3946107"><ele>811.75</ele><time>2026-04-18T16:01:37.433Z</time></trkpt><trkpt lat="44.8244665" lon="5.394712"><ele>807.5</ele><time>2026-04-18T16:01:38.434Z</time></trkpt><trkpt lat="44.8246035" lon="5.3947962"><ele>803.25</ele><time>2026-04-18T16:01:39.434Z</time></trkpt><trkpt lat="44.8247322" lon="5.3948614"><ele>799.0</ele><time>2026-04-18T16:01:40.434Z</time></trkpt><trkpt lat="44.8248545" lon="5.3949168"><ele>799.0</ele><time>2026-04-18T16:01:41.434Z</time></trkpt><trkpt lat="44.824986" lon="5.394967"><ele>799.0</ele><time>2026-04-18T16:01:42.434Z</time></trkpt><trkpt lat="44.8251264" lon="5.3950008"><ele>799.0</ele><time>2026-04-18T16:01:43.433Z</time></trkpt><trkpt lat="44.8252791" lon="5.3950068"><ele>799.0</ele><time>2026-04-18T16:01:44.434Z</time></trkpt><trkpt lat="44.8254235" lon="5.3949953"><ele>802.5</ele><time>2026-04-18T16:01:45.434Z</time></trkpt><trkpt lat="44.8255716" lon="5.3949782"><ele>806.0</ele><time>2026-04-18T16:01:46.434Z</time></trkpt><trkpt lat="44.825702" lon="5.3949737"><ele>809.5</ele><time>2026-04-18T16:01:47.434Z</time></trkpt><trkpt lat="44.8258413" lon="5.3949985"><ele>813.0</ele><time>2026-04-18T16:01:48.434Z</time></trkpt><trkpt lat="44.8259867" lon="5.3950297"><ele>816.25</ele><time>2026-04-18T16:01:49.434Z</time></trkpt><trkpt lat="44.8261171" lon="5.3950545"><ele>819.5</ele><time>2026-04-18T16:01:50.433Z</time></trkpt><trkpt lat="44.8262418" lon="5.3950772"><ele>822.75</ele><time>2026-04-18T16:01:51.433Z</time></trkpt><trkpt lat="44.8263685" lon="5.3950931"><ele>826.0</ele><time>2026-04-18T16:01:52.434Z</time></trkpt><trkpt lat="44.8264909" lon="5.3951173"><ele>826.0</ele><time>2026-04-18T16:01:53.434Z</time></trkpt><trkpt lat="44.8266251" lon="5.3951317"><ele>826.0</ele><time>2026-04-18T16:01:54.434Z</time></trkpt><trkpt lat="44.8267627" lon="5.3951419"><ele>826.0</ele><time>2026-04-18T16:01:55.434Z</time></trkpt><trkpt lat="44.8268858" lon="5.3951749"><ele>826.0</ele><time>2026-04-18T16:01:56.434Z</time></trkpt><trkpt lat="44.8269946" lon="5.395227"><ele>826.8</ele><time>2026-04-18T16:01:57.434Z</time></trkpt><trkpt lat="44.8271056" lon="5.3952755"><ele>827.5999999999999</ele><time>2026-04-18T16:01:58.434Z</time></trkpt><trkpt lat="44.8272029" lon="5.3953402"><ele>828.4</ele><time>2026-04-18T16:01:59.434Z</time></trkpt><trkpt lat="44.8272761" lon="5.3954388"><ele>829.2</ele><time>2026-04-18T16:02:00.434Z</time></trkpt><trkpt lat="44.8273209" lon="5.3955714"><ele>830.0</ele><time>2026-04-18T16:02:01.434Z</time></trkpt><trkpt lat="44.8273172" lon="5.3957196"><ele>830.0</ele><time>2026-04-18T16:02:02.434Z</time></trkpt><trkpt lat="44.8272704" lon="5.3958595"><ele>830.0</ele><time>2026-04-18T16:02:03.434Z</time></trkpt><trkpt lat="44.8271961" lon="5.3959852"><ele>830.0</ele><time>2026-04-18T16:02:04.434Z</time></trkpt><trkpt lat="44.8271015" lon="5.3960932"><ele>830.0</ele><time>2026-04-18T16:02:05.433Z</time></trkpt><trkpt lat="44.8270105" lon="5.3961756"><ele>830.0</ele><time>2026-04-18T16:02:06.434Z</time></trkpt><trkpt lat="44.8269214" lon="5.3962512"><ele>830.0</ele><time>2026-04-18T16:02:07.434Z</time></trkpt><trkpt lat="44.8268238" lon="5.3963355"><ele>830.0</ele><time>2026-04-18T16:02:08.434Z</time></trkpt><trkpt lat="44.8267178" lon="5.396441"><ele>830.0</ele><time>2026-04-18T16:02:09.434Z</time></trkpt><trkpt lat="44.8266187" lon="5.3965595"><ele>828.5</ele><time>2026-04-18T16:02:10.434Z</time></trkpt><trkpt lat="44.826525" lon="5.39668"><ele>827.0</ele><time>2026-04-18T16:02:11.434Z</time></trkpt><trkpt lat="44.8264345" lon="5.3968097"><ele>825.5</ele><time>2026-04-18T16:02:12.434Z</time></trkpt><trkpt lat="44.8263575" lon="5.3969322"><ele>824.0</ele><time>2026-04-18T16:02:13.434Z</time></trkpt><trkpt lat="44.8262832" lon="5.3970661"><ele>822.25</ele><time>2026-04-18T16:02:14.434Z</time></trkpt><trkpt lat="44.8262087" lon="5.3972002"><ele>820.5</ele><time>2026-04-18T16:02:15.434Z</time></trkpt><trkpt lat="44.8261107" lon="5.3973217"><ele>818.75</ele><time>2026-04-18T16:02:16.434Z</time></trkpt><trkpt lat="44.8260099" lon="5.3974092"><ele>817.0</ele><time>2026-04-18T16:02:17.434Z</time></trkpt><trkpt lat="44.8259154" lon="5.397465"><ele>816.9999999999999</ele><time>2026-04-18T16:02:18.434Z</time></trkpt><trkpt lat="44.8258284" lon="5.3974986"><ele>817.0</ele><time>2026-04-18T16:02:19.434Z</time></trkpt><trkpt lat="44.825751" lon="5.3975196"><ele>817.0</ele><time>2026-04-18T16:02:20.434Z</time></trkpt><trkpt lat="44.8256769" lon="5.3975568"><ele>817.0</ele><time>2026-04-18T16:02:21.434Z</time></trkpt><trkpt lat="44.8256168" lon="5.3976338"><ele>816.9999999999999</ele><time>2026-04-18T16:02:22.434Z</time></trkpt><trkpt lat="44.825596" lon="5.3977374"><ele>817.0</ele><time>2026-04-18T16:02:23.434Z</time></trkpt><trkpt lat="44.825618" lon="5.3978261"><ele>817.0</ele><time>2026-04-18T16:02:24.434Z</time></trkpt><trkpt lat="44.8256719" lon="5.3978798"><ele>817.0</ele><time>2026-04-18T16:02:25.433Z</time></trkpt><trkpt lat="44.8257407" lon="5.3979344"><ele>817.0</ele><time>2026-04-18T16:02:26.434Z</time></trkpt><trkpt lat="44.825828" lon="5.397917"><ele>817.0</ele><time>2026-04-18T16:02:27.434Z</time></trkpt><trkpt lat="44.8258921" lon="5.3977457"><ele>817.0</ele><time>2026-04-18T16:02:28.434Z</time></trkpt><trkpt lat="44.825984" lon="5.3976579"><ele>823.2</ele><time>2026-04-18T16:02:29.434Z</time></trkpt><trkpt lat="44.826072" lon="5.3975692"><ele>829.4000000000001</ele><time>2026-04-18T16:02:30.434Z</time></trkpt><trkpt lat="44.8261523" lon="5.3975003"><ele>835.5999999999999</ele><time>2026-04-18T16:02:31.434Z</time></trkpt><trkpt lat="44.8262269" lon="5.3974318"><ele>841.8</ele><time>2026-04-18T16:02:32.435Z</time></trkpt><trkpt lat="44.8263022" lon="5.3973422"><ele>848.0</ele><time>2026-04-18T16:02:33.433Z</time></trkpt><trkpt lat="44.8263717" lon="5.3972433"><ele>842.0</ele><time>2026-04-18T16:02:34.434Z</time></trkpt><trkpt lat="44.8264457" lon="5.3971379"><ele>836.0</ele><time>2026-04-18T16:02:35.434Z</time></trkpt><trkpt lat="44.8265272" lon="5.3970366"><ele>830.0</ele><time>2026-04-18T16:02:36.434Z</time></trkpt><trkpt lat="44.8266301" lon="5.39693"><ele>824.0</ele><time>2026-04-18T16:02:37.434Z</time></trkpt><trkpt lat="44.8267572" lon="5.3968294"><ele>830.75</ele><time>2026-04-18T16:02:38.434Z</time></trkpt><trkpt lat="44.8268884" lon="5.3967344"><ele>837.5</ele><time>2026-04-18T16:02:39.434Z</time></trkpt><trkpt lat="44.8270317" lon="5.3966343"><ele>844.25</ele><time>2026-04-18T16:02:40.434Z</time></trkpt><trkpt lat="44.8271572" lon="5.3965414"><ele>851.0</ele><time>2026-04-18T16:02:41.434Z</time></trkpt><trkpt lat="44.8272808" lon="5.3964461"><ele>851.0</ele><time>2026-04-18T16:02:42.434Z</time></trkpt><trkpt lat="44.8273935" lon="5.3963531"><ele>851.0</ele><time>2026-04-18T16:02:43.434Z</time></trkpt><trkpt lat="44.8275068" lon="5.3962511"><ele>851.0</ele><time>2026-04-18T16:02:44.434Z</time></trkpt><trkpt lat="44.8276258" lon="5.3961458"><ele>851.0</ele><time>2026-04-18T16:02:45.434Z</time></trkpt><trkpt lat="44.827743" lon="5.396035"><ele>851.25</ele><time>2026-04-18T16:02:46.434Z</time></trkpt><trkpt lat="44.8278384" lon="5.3959365"><ele>851.5</ele><time>2026-04-18T16:02:47.434Z</time></trkpt><trkpt lat="44.8279389" lon="5.3958354"><ele>851.75</ele><time>2026-04-18T16:02:48.434Z</time></trkpt><trkpt lat="44.8280262" lon="5.3957403"><ele>852.0</ele><time>2026-04-18T16:02:49.434Z</time></trkpt><trkpt lat="44.8280953" lon="5.3956403"><ele>854.2</ele><time>2026-04-18T16:02:50.434Z</time></trkpt><trkpt lat="44.8281188" lon="5.3954965"><ele>856.4000000000001</ele><time>2026-04-18T16:02:51.434Z</time></trkpt><trkpt lat="44.8280945" lon="5.3953565"><ele>858.5999999999999</ele><time>2026-04-18T16:02:52.433Z</time></trkpt><trkpt lat="44.8280219" lon="5.3952299"><ele>860.8</ele><time>2026-04-18T16:02:53.434Z</time></trkpt><trkpt lat="44.8279289" lon="5.3951151"><ele>863.0</ele><time>2026-04-18T16:02:54.433Z</time></trkpt><trkpt lat="44.8278141" lon="5.3950202"><ele>863.0</ele><time>2026-04-18T16:02:55.434Z</time></trkpt><trkpt lat="44.8276824" lon="5.3949443"><ele>863.0</ele><time>2026-04-18T16:02:56.434Z</time></trkpt><trkpt lat="44.8275414" lon="5.3948818"><ele>863.0</ele><time>2026-04-18T16:02:57.433Z</time></trkpt><trkpt lat="44.8273867" lon="5.3948265"><ele>856.6666666666667</ele><time>2026-04-18T16:02:58.434Z</time></trkpt><trkpt lat="44.8272125" lon="5.3947708"><ele>850.3333333333333</ele><time>2026-04-18T16:02:59.433Z</time></trkpt><trkpt lat="44.8270472" lon="5.3947022"><ele>844.0</ele><time>2026-04-18T16:03:00.433Z</time></trkpt><trkpt lat="44.8269002" lon="5.3946041"><ele>857.0</ele><time>2026-04-18T16:03:01.434Z</time></trkpt><trkpt lat="44.8267623" lon="5.3945249"><ele>870.0</ele><time>2026-04-18T16:03:02.434Z</time></trkpt><trkpt lat="44.8266129" lon="5.3944879"><ele>883.0</ele><time>2026-04-18T16:03:03.434Z</time></trkpt><trkpt lat="44.8264552" lon="5.3944693"><ele>883.0</ele><time>2026-04-18T16:03:04.434Z</time></trkpt><trkpt lat="44.8263052" lon="5.3944503"><ele>883.0</ele><time>2026-04-18T16:03:05.434Z</time></trkpt><trkpt lat="44.8261617" lon="5.3944175"><ele>883.0</ele><time>2026-04-18T16:03:06.434Z</time></trkpt><trkpt lat="44.8260154" lon="5.3943545"><ele>883.0</ele><time>2026-04-18T16:03:07.434Z</time></trkpt><trkpt lat="44.825871" lon="5.3942578"><ele>879.0</ele><time>2026-04-18T16:03:08.434Z</time></trkpt><trkpt lat="44.8257214" lon="5.3941409"><ele>875.0</ele><time>2026-04-18T16:03:09.434Z</time></trkpt><trkpt lat="44.82556" lon="5.394016"><ele>871.0</ele><time>2026-04-18T16:03:10.434Z</time></trkpt><trkpt lat="44.8254043" lon="5.3938929"><ele>872.6666666666666</ele><time>2026-04-18T16:03:11.434Z</time></trkpt><trkpt lat="44.8252564" lon="5.3937394"><ele>874.3333333333333</ele><time>2026-04-18T16:03:12.434Z</time></trkpt><trkpt lat="44.8251108" lon="5.3935631"><ele>876.0</ele><time>2026-04-18T16:03:13.434Z</time></trkpt><trkpt lat="44.8249685" lon="5.3933758"><ele>876.0</ele><time>2026-04-18T16:03:14.434Z</time></trkpt><trkpt lat="44.8248427" lon="5.393205"><ele>876.0</ele><time>2026-04-18T16:03:15.434Z</time></trkpt><trkpt lat="44.8247051" lon="5.3930584"><ele>876.0</ele><time>2026-04-18T16:03:16.434Z</time></trkpt><trkpt lat="44.8245558" lon="5.3929495"><ele>876.3333333333333</ele><time>2026-04-18T16:03:17.434Z</time></trkpt><trkpt lat="44.824402" lon="5.3928457"><ele>876.6666666666666</ele><time>2026-04-18T16:03:18.434Z</time></trkpt><trkpt lat="44.8242589" lon="5.3927224"><ele>877.0</ele><time>2026-04-18T16:03:19.434Z</time></trkpt><trkpt lat="44.8241249" lon="5.3925688"><ele>877.0</ele><time>2026-04-18T16:03:20.433Z</time></trkpt><trkpt lat="44.824013" lon="5.3923849"><ele>877.0</ele><time>2026-04-18T16:03:21.433Z</time></trkpt><trkpt lat="44.8239165" lon="5.3921725"><ele>877.0</ele><time>2026-04-18T16:03:22.434Z</time></trkpt><trkpt lat="44.8238176" lon="5.3919472"><ele>880.6666666666666</ele><time>2026-04-18T16:03:23.434Z</time></trkpt><trkpt lat="44.8237062" lon="5.3917246"><ele>884.3333333333333</ele><time>2026-04-18T16:03:24.433Z</time></trkpt><trkpt lat="44.8235801" lon="5.3915097"><ele>888.0</ele><time>2026-04-18T16:03:25.434Z</time></trkpt><trkpt lat="44.8234509" lon="5.3912879"><ele>888.0</ele><time>2026-04-18T16:03:26.434Z</time></trkpt><trkpt lat="44.8233372" lon="5.3910904"><ele>888.0</ele><time>2026-04-18T16:03:27.434Z</time></trkpt><trkpt lat="44.8232394" lon="5.3908961"><ele>888.0</ele><time>2026-04-18T16:03:28.434Z</time></trkpt><trkpt lat="44.8231591" lon="5.3906967"><ele>890.25</ele><time>2026-04-18T16:03:29.433Z</time></trkpt><trkpt lat="44.8230989" lon="5.390501"><ele>892.5</ele><time>2026-04-18T16:03:30.433Z</time></trkpt><trkpt lat="44.8230569" lon="5.3903149"><ele>894.75</ele><time>2026-04-18T16:03:31.434Z</time></trkpt><trkpt lat="44.8230515" lon="5.3901196"><ele>897.0</ele><time>2026-04-18T16:03:32.434Z</time></trkpt><trkpt lat="44.8230809" lon="5.3899298"><ele>897.0</ele><time>2026-04-18T16:03:33.434Z</time></trkpt><trkpt lat="44.8231393" lon="5.3897451"><ele>897.0</ele><time>2026-04-18T16:03:34.434Z</time></trkpt><trkpt lat="44.823207" lon="5.3895486"><ele>897.0</ele><time>2026-04-18T16:03:35.434Z</time></trkpt><trkpt lat="44.823267" lon="5.3893414"><ele>896.25</ele><time>2026-04-18T16:03:36.434Z</time></trkpt><trkpt lat="44.8233029" lon="5.389135"><ele>895.5</ele><time>2026-04-18T16:03:37.434Z</time></trkpt><trkpt lat="44.8233154" lon="5.388927"><ele>894.75</ele><time>2026-04-18T16:03:38.434Z</time></trkpt><trkpt lat="44.8232947" lon="5.388733"><ele>894.0</ele><time>2026-04-18T16:03:39.434Z</time></trkpt><trkpt lat="44.823258" lon="5.3885639"><ele>895.5</ele><time>2026-04-18T16:03:40.434Z</time></trkpt><trkpt lat="44.8232172" lon="5.3884176"><ele>897.0</ele><time>2026-04-18T16:03:41.434Z</time></trkpt><trkpt lat="44.8231732" lon="5.3882963"><ele>898.5</ele><time>2026-04-18T16:03:42.434Z</time></trkpt><trkpt lat="44.823128" lon="5.3881974"><ele>900.0</ele><time>2026-04-18T16:03:43.434Z</time></trkpt><trkpt lat="44.823102" lon="5.3880896"><ele>901.5</ele><time>2026-04-18T16:03:44.434Z</time></trkpt><trkpt lat="44.8230887" lon="5.3879948"><ele>903.0</ele><time>2026-04-18T16:03:45.433Z</time></trkpt><trkpt lat="44.8231899" lon="5.3879771"><ele>903.0</ele><time>2026-04-18T16:03:46.433Z</time></trkpt><trkpt lat="44.823264" lon="5.3881241"><ele>903.0</ele><time>2026-04-18T16:03:48.434Z</time></trkpt><trkpt lat="44.8232802" lon="5.3882587"><ele>903.0</ele><time>2026-04-18T16:03:49.434Z</time></trkpt><trkpt lat="44.8233083" lon="5.3884217"><ele>903.0</ele><time>2026-04-18T16:03:50.434Z</time></trkpt><trkpt lat="44.8233499" lon="5.3886125"><ele>903.0</ele><time>2026-04-18T16:03:51.434Z</time></trkpt><trkpt lat="44.8233864" lon="5.3888291"><ele>903.0</ele><time>2026-04-18T16:03:52.434Z</time></trkpt><trkpt lat="44.8234" lon="5.3890642"><ele>903.0</ele><time>2026-04-18T16:03:53.434Z</time></trkpt><trkpt lat="44.823377" lon="5.3892994"><ele>901.5</ele><time>2026-04-18T16:03:54.434Z</time></trkpt><trkpt lat="44.8233345" lon="5.389511"><ele>900.0</ele><time>2026-04-18T16:03:55.434Z</time></trkpt><trkpt lat="44.8232974" lon="5.3897121"><ele>898.5</ele><time>2026-04-18T16:03:56.434Z</time></trkpt><trkpt lat="44.8232888" lon="5.3899096"><ele>897.0</ele><time>2026-04-18T16:03:57.434Z</time></trkpt><trkpt lat="44.8233107" lon="5.3901145"><ele>897.0</ele><time>2026-04-18T16:03:58.434Z</time></trkpt><trkpt lat="44.8233602" lon="5.390312"><ele>897.0</ele><time>2026-04-18T16:03:59.434Z</time></trkpt><trkpt lat="44.8234388" lon="5.3904966"><ele>897.0</ele><time>2026-04-18T16:04:00.434Z</time></trkpt><trkpt lat="44.8235478" lon="5.3906704"><ele>904.6666666666667</ele><time>2026-04-18T16:04:01.434Z</time></trkpt><trkpt lat="44.8236748" lon="5.3908387"><ele>912.3333333333334</ele><time>2026-04-18T16:04:02.434Z</time></trkpt><trkpt lat="44.8238006" lon="5.3910098"><ele>920.0</ele><time>2026-04-18T16:04:03.434Z</time></trkpt><trkpt lat="44.8239367" lon="5.3911693"><ele>920.0</ele><time>2026-04-18T16:04:04.433Z</time></trkpt><trkpt lat="44.8240963" lon="5.3913382"><ele>920.0</ele><time>2026-04-18T16:04:05.434Z</time></trkpt><trkpt lat="44.8242167" lon="5.3915036"><ele>920.0</ele><time>2026-04-18T16:04:06.434Z</time></trkpt><trkpt lat="44.8243108" lon="5.3916848"><ele>925.6666666666667</ele><time>2026-04-18T16:04:07.434Z</time></trkpt><trkpt lat="44.8244299" lon="5.3918472"><ele>931.3333333333333</ele><time>2026-04-18T16:04:08.433Z</time></trkpt><trkpt lat="44.8245713" lon="5.3919774"><ele>937.0</ele><time>2026-04-18T16:04:09.434Z</time></trkpt><trkpt lat="44.8247398" lon="5.3920884"><ele>937.0</ele><time>2026-04-18T16:04:10.434Z</time></trkpt><trkpt lat="44.8249117" lon="5.3921676"><ele>937.0</ele><time>2026-04-18T16:04:11.434Z</time></trkpt><trkpt lat="44.8250599" lon="5.3922392"><ele>937.0</ele><time>2026-04-18T16:04:12.433Z</time></trkpt><trkpt lat="44.8251909" lon="5.3923425"><ele>937.0</ele><time>2026-04-18T16:04:13.434Z</time></trkpt><trkpt lat="44.8252976" lon="5.3924848"><ele>937.0</ele><time>2026-04-18T16:04:14.434Z</time></trkpt><trkpt lat="44.82541" lon="5.3926234"><ele>937.0</ele><time>2026-04-18T16:04:15.433Z</time></trkpt><trkpt lat="44.8255317" lon="5.3927505"><ele>937.0</ele><time>2026-04-18T16:04:16.434Z</time></trkpt><trkpt lat="44.8256743" lon="5.3928687"><ele>937.0</ele><time>2026-04-18T16:04:17.434Z</time></trkpt><trkpt lat="44.8258259" lon="5.3929839"><ele>937.0</ele><time>2026-04-18T16:04:18.434Z</time></trkpt><trkpt lat="44.8259835" lon="5.3930924"><ele>937.0</ele><time>2026-04-18T16:04:19.434Z</time></trkpt><trkpt lat="44.8261276" lon="5.3931861"><ele>932.5</ele><time>2026-04-18T16:04:20.434Z</time></trkpt><trkpt lat="44.8262572" lon="5.3932693"><ele>928.0</ele><time>2026-04-18T16:04:21.433Z</time></trkpt><trkpt lat="44.8263767" lon="5.3933283"><ele>923.5</ele><time>2026-04-18T16:04:22.433Z</time></trkpt><trkpt lat="44.8264987" lon="5.3933442"><ele>919.0</ele><time>2026-04-18T16:04:23.433Z</time></trkpt><trkpt lat="44.8266185" lon="5.3933076"><ele>919.0</ele><time>2026-04-18T16:04:24.432Z</time></trkpt><trkpt lat="44.82673" lon="5.3932339"><ele>919.0</ele><time>2026-04-18T16:04:25.432Z</time></trkpt><trkpt lat="44.8268453" lon="5.393139"><ele>919.0</ele><time>2026-04-18T16:04:26.433Z</time></trkpt><trkpt lat="44.8269681" lon="5.3930635"><ele>919.0</ele><time>2026-04-18T16:04:27.433Z</time></trkpt><trkpt lat="44.8271132" lon="5.3931137"><ele>925.0</ele><time>2026-04-18T16:04:28.433Z</time></trkpt><trkpt lat="44.8272572" lon="5.3931821"><ele>931.0</ele><time>2026-04-18T16:04:29.433Z</time></trkpt><trkpt lat="44.8273902" lon="5.3932813"><ele>937.0</ele><time>2026-04-18T16:04:30.433Z</time></trkpt><trkpt lat="44.827521" lon="5.3933944"><ele>942.0</ele><time>2026-04-18T16:04:31.433Z</time></trkpt><trkpt lat="44.8276674" lon="5.3934777"><ele>947.0</ele><time>2026-04-18T16:04:32.433Z</time></trkpt><trkpt lat="44.8278303" lon="5.3935457"><ele>952.0</ele><time>2026-04-18T16:04:33.433Z</time></trkpt><trkpt lat="44.8279896" lon="5.3936163"><ele>952.0</ele><time>2026-04-18T16:04:34.432Z</time></trkpt><trkpt lat="44.8281448" lon="5.3936751"><ele>952.0</ele><time>2026-04-18T16:04:35.433Z</time></trkpt><trkpt lat="44.8283015" lon="5.3937049"><ele>952.0</ele><time>2026-04-18T16:04:36.433Z</time></trkpt><trkpt lat="44.8284616" lon="5.3937028"><ele>957.3333333333333</ele><time>2026-04-18T16:04:37.433Z</time></trkpt><trkpt lat="44.8286326" lon="5.3936936"><ele>962.6666666666667</ele><time>2026-04-18T16:04:38.432Z</time></trkpt><trkpt lat="44.8287962" lon="5.3937253"><ele>968.0</ele><time>2026-04-18T16:04:39.433Z</time></trkpt><trkpt lat="44.8289668" lon="5.3937844"><ele>968.0</ele><time>2026-04-18T16:04:40.433Z</time></trkpt><trkpt lat="44.8291526" lon="5.3938326"><ele>968.0</ele><time>2026-04-18T16:04:41.433Z</time></trkpt><trkpt lat="44.8293516" lon="5.3938665"><ele>968.0</ele><time>2026-04-18T16:04:42.433Z</time></trkpt><trkpt lat="44.829558" lon="5.393895"><ele>963.6666666666667</ele><time>2026-04-18T16:04:43.433Z</time></trkpt><trkpt lat="44.8297729" lon="5.3939324"><ele>959.3333333333333</ele><time>2026-04-18T16:04:44.433Z</time></trkpt><trkpt lat="44.8299871" lon="5.3939807"><ele>955.0</ele><time>2026-04-18T16:04:45.432Z</time></trkpt><trkpt lat="44.8301869" lon="5.394034"><ele>955.0</ele><time>2026-04-18T16:04:46.433Z</time></trkpt><trkpt lat="44.8303916" lon="5.3940882"><ele>955.0</ele><time>2026-04-18T16:04:47.433Z</time></trkpt><trkpt lat="44.830588" lon="5.3941669"><ele>955.0</ele><time>2026-04-18T16:04:48.433Z</time></trkpt><trkpt lat="44.8307645" lon="5.3942627"><ele>955.0</ele><time>2026-04-18T16:04:49.433Z</time></trkpt><trkpt lat="44.8309386" lon="5.3943541"><ele>955.0</ele><time>2026-04-18T16:04:50.433Z</time></trkpt><trkpt lat="44.8311185" lon="5.3944228"><ele>955.0</ele><time>2026-04-18T16:04:51.433Z</time></trkpt><trkpt lat="44.8313053" lon="5.3944811"><ele>959.0</ele><time>2026-04-18T16:04:52.433Z</time></trkpt><trkpt lat="44.8314928" lon="5.3945326"><ele>963.0</ele><time>2026-04-18T16:04:53.433Z</time></trkpt><trkpt lat="44.8316624" lon="5.3945765"><ele>967.0</ele><time>2026-04-18T16:04:54.432Z</time></trkpt><trkpt lat="44.8318103" lon="5.3946071"><ele>967.75</ele><time>2026-04-18T16:04:55.433Z</time></trkpt><trkpt lat="44.8319473" lon="5.3946344"><ele>968.5</ele><time>2026-04-18T16:04:56.433Z</time></trkpt><trkpt lat="44.8320723" lon="5.3946671"><ele>969.25</ele><time>2026-04-18T16:04:57.433Z</time></trkpt><trkpt lat="44.8321883" lon="5.3947112"><ele>970.0</ele><time>2026-04-18T16:04:58.432Z</time></trkpt><trkpt lat="44.8322876" lon="5.3948034"><ele>967.5</ele><time>2026-04-18T16:04:59.434Z</time></trkpt><trkpt lat="44.83236" lon="5.3949349"><ele>965.0</ele><time>2026-04-18T16:05:00.433Z</time></trkpt><trkpt lat="44.8324069" lon="5.3950925"><ele>962.5</ele><time>2026-04-18T16:05:01.433Z</time></trkpt><trkpt lat="44.8324112" lon="5.3952626"><ele>960.0</ele><time>2026-04-18T16:05:02.432Z</time></trkpt><trkpt lat="44.8323688" lon="5.3954222"><ele>962.75</ele><time>2026-04-18T16:05:03.433Z</time></trkpt><trkpt lat="44.8322934" lon="5.3955667"><ele>965.5</ele><time>2026-04-18T16:05:04.433Z</time></trkpt><trkpt lat="44.8321957" lon="5.3957097"><ele>968.25</ele><time>2026-04-18T16:05:05.433Z</time></trkpt><trkpt lat="44.8320859" lon="5.3958672"><ele>971.0</ele><time>2026-04-18T16:05:06.433Z</time></trkpt><trkpt lat="44.8319655" lon="5.3960418"><ele>971.0</ele><time>2026-04-18T16:05:07.433Z</time></trkpt><trkpt lat="44.8318373" lon="5.3962256"><ele>971.0</ele><time>2026-04-18T16:05:08.433Z</time></trkpt><trkpt lat="44.8316968" lon="5.3963709"><ele>971.0</ele><time>2026-04-18T16:05:09.433Z</time></trkpt><trkpt lat="44.8315392" lon="5.3964841"><ele>971.0</ele><time>2026-04-18T16:05:10.433Z</time></trkpt><trkpt lat="44.8313776" lon="5.3965939"><ele>971.0</ele><time>2026-04-18T16:05:11.433Z</time></trkpt><trkpt lat="44.8312053" lon="5.3967271"><ele>971.0</ele><time>2026-04-18T16:05:12.432Z</time></trkpt><trkpt lat="44.8310296" lon="5.3968867"><ele>975.3333333333334</ele><time>2026-04-18T16:05:13.433Z</time></trkpt><trkpt lat="44.8308551" lon="5.3970669"><ele>979.6666666666667</ele><time>2026-04-18T16:05:14.433Z</time></trkpt><trkpt lat="44.8306824" lon="5.3972578"><ele>984.0</ele><time>2026-04-18T16:05:15.434Z</time></trkpt><trkpt lat="44.8305094" lon="5.3974224"><ele>984.0</ele><time>2026-04-18T16:05:16.433Z</time></trkpt><trkpt lat="44.8303258" lon="5.3975708"><ele>984.0</ele><time>2026-04-18T16:05:17.433Z</time></trkpt><trkpt lat="44.8301362" lon="5.3977121"><ele>984.0</ele><time>2026-04-18T16:05:18.432Z</time></trkpt><trkpt lat="44.8299626" lon="5.3978327"><ele>985.0</ele><time>2026-04-18T16:05:19.432Z</time></trkpt><trkpt lat="44.8298052" lon="5.3979328"><ele>986.0</ele><time>2026-04-18T16:05:20.433Z</time></trkpt><trkpt lat="44.8296627" lon="5.3980076"><ele>987.0</ele><time>2026-04-18T16:05:21.432Z</time></trkpt><trkpt lat="44.8295429" lon="5.3980498"><ele>988.0</ele><time>2026-04-18T16:05:22.433Z</time></trkpt><trkpt lat="44.8294316" lon="5.3980771"><ele>987.9999999999999</ele><time>2026-04-18T16:05:23.433Z</time></trkpt><trkpt lat="44.8293337" lon="5.3981025"><ele>988.0</ele><time>2026-04-18T16:05:24.432Z</time></trkpt><trkpt lat="44.8292549" lon="5.3981566"><ele>988.0</ele><time>2026-04-18T16:05:25.433Z</time></trkpt><trkpt lat="44.8292255" lon="5.398254"><ele>988.0</ele><time>2026-04-18T16:05:26.433Z</time></trkpt><trkpt lat="44.829245" lon="5.3983586"><ele>987.9999999999999</ele><time>2026-04-18T16:05:27.432Z</time></trkpt><trkpt lat="44.8293127" lon="5.398394"><ele>988.0</ele><time>2026-04-18T16:05:28.433Z</time></trkpt><trkpt lat="44.8293868" lon="5.398358"><ele>988.0</ele><time>2026-04-18T16:05:29.433Z</time></trkpt><trkpt lat="44.8294841" lon="5.3982863"><ele>988.0</ele><time>2026-04-18T16:05:30.433Z</time></trkpt><trkpt lat="44.8296014" lon="5.3982197"><ele>988.0</ele><time>2026-04-18T16:05:31.433Z</time></trkpt><trkpt lat="44.8297469" lon="5.398157"><ele>988.0</ele><time>2026-04-18T16:05:32.433Z</time></trkpt><trkpt lat="44.8299119" lon="5.3980816"><ele>988.0</ele><time>2026-04-18T16:05:33.432Z</time></trkpt><trkpt lat="44.8300857" lon="5.3980042"><ele>988.0</ele><time>2026-04-18T16:05:34.433Z</time></trkpt><trkpt lat="44.8302692" lon="5.397922"><ele>988.0</ele><time>2026-04-18T16:05:35.433Z</time></trkpt><trkpt lat="44.8304629" lon="5.3978249"><ele>986.6666666666666</ele><time>2026-04-18T16:05:36.433Z</time></trkpt><trkpt lat="44.8306479" lon="5.397704"><ele>985.3333333333333</ele><time>2026-04-18T16:05:37.434Z</time></trkpt><trkpt lat="44.8308307" lon="5.3975553"><ele>984.0</ele><time>2026-04-18T16:05:38.433Z</time></trkpt><trkpt lat="44.8309983" lon="5.3974144"><ele>979.6666666666667</ele><time>2026-04-18T16:05:39.433Z</time></trkpt><trkpt lat="44.8311565" lon="5.3972936"><ele>975.3333333333334</ele><time>2026-04-18T16:05:40.433Z</time></trkpt><trkpt lat="44.8313302" lon="5.3971966"><ele>971.0</ele><time>2026-04-18T16:05:41.432Z</time></trkpt><trkpt lat="44.8315034" lon="5.3971332"><ele>971.0</ele><time>2026-04-18T16:05:42.432Z</time></trkpt><trkpt lat="44.8316647" lon="5.3971122"><ele>971.0</ele><time>2026-04-18T16:05:43.433Z</time></trkpt><trkpt lat="44.8318139" lon="5.3971002"><ele>971.0</ele><time>2026-04-18T16:05:44.433Z</time></trkpt><trkpt lat="44.8319442" lon="5.3970455"><ele>971.0</ele><time>2026-04-18T16:05:45.433Z</time></trkpt><trkpt lat="44.832059" lon="5.3969333"><ele>980.0</ele><time>2026-04-18T16:05:46.433Z</time></trkpt><trkpt lat="44.832159" lon="5.3967888"><ele>989.0</ele><time>2026-04-18T16:05:47.433Z</time></trkpt><trkpt lat="44.832278" lon="5.3966602"><ele>998.0</ele><time>2026-04-18T16:05:48.432Z</time></trkpt><trkpt lat="44.8324245" lon="5.3965696"><ele>998.0</ele><time>2026-04-18T16:05:49.433Z</time></trkpt><trkpt lat="44.8325603" lon="5.3964837"><ele>998.0</ele><time>2026-04-18T16:05:50.433Z</time></trkpt><trkpt lat="44.8326876" lon="5.3963573"><ele>998.0</ele><time>2026-04-18T16:05:51.432Z</time></trkpt><trkpt lat="44.8328028" lon="5.3962039"><ele>1002.0</ele><time>2026-04-18T16:05:52.433Z</time></trkpt><trkpt lat="44.8329073" lon="5.3960062"><ele>1006.0</ele><time>2026-04-18T16:05:53.434Z</time></trkpt><trkpt lat="44.8330258" lon="5.3958137"><ele>1010.0</ele><time>2026-04-18T16:05:54.433Z</time></trkpt><trkpt lat="44.8331641" lon="5.3956313"><ele>1004.6666666666667</ele><time>2026-04-18T16:05:55.433Z</time></trkpt><trkpt lat="44.8333114" lon="5.3954474"><ele>999.3333333333333</ele><time>2026-04-18T16:05:56.432Z</time></trkpt><trkpt lat="44.8334522" lon="5.3952562"><ele>994.0</ele><time>2026-04-18T16:05:57.433Z</time></trkpt><trkpt lat="44.8335837" lon="5.3950458"><ele>1002.0</ele><time>2026-04-18T16:05:58.433Z</time></trkpt><trkpt lat="44.8336937" lon="5.3948442"><ele>1010.0</ele><time>2026-04-18T16:05:59.433Z</time></trkpt><trkpt lat="44.833791" lon="5.394659"><ele>1018.0</ele><time>2026-04-18T16:06:00.433Z</time></trkpt><trkpt lat="44.8338762" lon="5.3944808"><ele>1018.0</ele><time>2026-04-18T16:06:01.433Z</time></trkpt><trkpt lat="44.8339154" lon="5.3942519"><ele>1018.0</ele><time>2026-04-18T16:06:02.433Z</time></trkpt><trkpt lat="44.8339557" lon="5.3940341"><ele>1018.0</ele><time>2026-04-18T16:06:03.433Z</time></trkpt><trkpt lat="44.8339826" lon="5.3938259"><ele>1020.25</ele><time>2026-04-18T16:06:04.434Z</time></trkpt><trkpt lat="44.8339858" lon="5.3936321"><ele>1022.5</ele><time>2026-04-18T16:06:05.433Z</time></trkpt><trkpt lat="44.8339551" lon="5.3934486"><ele>1024.75</ele><time>2026-04-18T16:06:06.433Z</time></trkpt><trkpt lat="44.8338919" lon="5.3932904"><ele>1027.0</ele><time>2026-04-18T16:06:07.433Z</time></trkpt><trkpt lat="44.8338038" lon="5.3931706"><ele>1027.0</ele><time>2026-04-18T16:06:08.433Z</time></trkpt><trkpt lat="44.8336964" lon="5.3930918"><ele>1027.0</ele><time>2026-04-18T16:06:09.432Z</time></trkpt><trkpt lat="44.8335642" lon="5.3930684"><ele>1027.0</ele><time>2026-04-18T16:06:10.433Z</time></trkpt><trkpt lat="44.8334309" lon="5.3930551"><ele>1027.0</ele><time>2026-04-18T16:06:11.433Z</time></trkpt><trkpt lat="44.8332826" lon="5.3930275"><ele>1030.0</ele><time>2026-04-18T16:06:12.433Z</time></trkpt><trkpt lat="44.8331257" lon="5.3929751"><ele>1033.0</ele><time>2026-04-18T16:06:13.434Z</time></trkpt><trkpt lat="44.8329921" lon="5.3929006"><ele>1036.0</ele><time>2026-04-18T16:06:14.432Z</time></trkpt><trkpt lat="44.8328739" lon="5.3928371"><ele>1039.0</ele><time>2026-04-18T16:06:15.433Z</time></trkpt><trkpt lat="44.8327589" lon="5.39281"><ele>1039.0</ele><time>2026-04-18T16:06:16.433Z</time></trkpt><trkpt lat="44.8326445" lon="5.3928379"><ele>1039.0</ele><time>2026-04-18T16:06:17.432Z</time></trkpt><trkpt lat="44.8325318" lon="5.3928529"><ele>1039.0</ele><time>2026-04-18T16:06:18.433Z</time></trkpt><trkpt lat="44.8324103" lon="5.3929745"><ele>1039.0</ele><time>2026-04-18T16:06:19.433Z</time></trkpt><trkpt lat="44.8322837" lon="5.3930279"><ele>1038.3333333333333</ele><time>2026-04-18T16:06:20.433Z</time></trkpt><trkpt lat="44.8321047" lon="5.3929484"><ele>1037.6666666666667</ele><time>2026-04-18T16:06:21.793Z</time></trkpt><trkpt lat="44.8319332" lon="5.392893"><ele>1037.0</ele><time>2026-04-18T16:06:22.92Z</time></trkpt><trkpt lat="44.83166" lon="5.3928289"><ele>1038.3333333333335</ele><time>2026-04-18T16:06:24.433Z</time></trkpt><trkpt lat="44.8314688" lon="5.3927868"><ele>1039.6666666666667</ele><time>2026-04-18T16:06:25.433Z</time></trkpt><trkpt lat="44.8312793" lon="5.3927193"><ele>1041.0</ele><time>2026-04-18T16:06:26.433Z</time></trkpt><trkpt lat="44.8311103" lon="5.3926378"><ele>1039.6666666666667</ele><time>2026-04-18T16:06:27.432Z</time></trkpt><trkpt lat="44.830955" lon="5.392543"><ele>1038.3333333333335</ele><time>2026-04-18T16:06:28.433Z</time></trkpt><trkpt lat="44.8308016" lon="5.3924816"><ele>1037.0</ele><time>2026-04-18T16:06:29.432Z</time></trkpt><trkpt lat="44.8306588" lon="5.3924289"><ele>1037.0</ele><time>2026-04-18T16:06:30.433Z</time></trkpt><trkpt lat="44.8305038" lon="5.3924249"><ele>1037.0</ele><time>2026-04-18T16:06:31.433Z</time></trkpt><trkpt lat="44.8303578" lon="5.3923473"><ele>1037.0</ele><time>2026-04-18T16:06:32.433Z</time></trkpt><trkpt lat="44.8302047" lon="5.3922518"><ele>1045.6666666666667</ele><time>2026-04-18T16:06:33.433Z</time></trkpt><trkpt lat="44.8300429" lon="5.3921461"><ele>1054.3333333333333</ele><time>2026-04-18T16:06:34.433Z</time></trkpt><trkpt lat="44.8298694" lon="5.3920425"><ele>1063.0</ele><time>2026-04-18T16:06:35.433Z</time></trkpt><trkpt lat="44.8296863" lon="5.3919315"><ele>1063.0</ele><time>2026-04-18T16:06:36.433Z</time></trkpt><trkpt lat="44.829496" lon="5.391815"><ele>1063.0</ele><time>2026-04-18T16:06:37.433Z</time></trkpt><trkpt lat="44.8293227" lon="5.3917088"><ele>1063.0</ele><time>2026-04-18T16:06:38.432Z</time></trkpt><trkpt lat="44.8291506" lon="5.3916195"><ele>1056.0</ele><time>2026-04-18T16:06:39.432Z</time></trkpt><trkpt lat="44.8289871" lon="5.3915594"><ele>1049.0</ele><time>2026-04-18T16:06:40.432Z</time></trkpt><trkpt lat="44.8288248" lon="5.3915331"><ele>1042.0</ele><time>2026-04-18T16:06:41.433Z</time></trkpt><trkpt lat="44.8286713" lon="5.3915343"><ele>1042.0</ele><time>2026-04-18T16:06:42.433Z</time></trkpt><trkpt lat="44.8285218" lon="5.3915199"><ele>1042.0</ele><time>2026-04-18T16:06:43.433Z</time></trkpt><trkpt lat="44.8283714" lon="5.3914533"><ele>1042.0</ele><time>2026-04-18T16:06:44.433Z</time></trkpt><trkpt lat="44.8282296" lon="5.3913471"><ele>1051.3333333333333</ele><time>2026-04-18T16:06:45.433Z</time></trkpt><trkpt lat="44.828077" lon="5.3912284"><ele>1060.6666666666667</ele><time>2026-04-18T16:06:46.433Z</time></trkpt><trkpt lat="44.8279128" lon="5.3911174"><ele>1070.0</ele><time>2026-04-18T16:06:47.433Z</time></trkpt><trkpt lat="44.8277366" lon="5.3910046"><ele>1065.3333333333335</ele><time>2026-04-18T16:06:48.433Z</time></trkpt><trkpt lat="44.8275519" lon="5.390892"><ele>1060.6666666666667</ele><time>2026-04-18T16:06:49.433Z</time></trkpt><trkpt lat="44.8273597" lon="5.3907823"><ele>1056.0</ele><time>2026-04-18T16:06:50.433Z</time></trkpt><trkpt lat="44.82718" lon="5.3906838"><ele>1056.0</ele><time>2026-04-18T16:06:51.433Z</time></trkpt><trkpt lat="44.8270158" lon="5.3905936"><ele>1056.0</ele><time>2026-04-18T16:06:52.433Z</time></trkpt><trkpt lat="44.8268695" lon="5.3905048"><ele>1056.0</ele><time>2026-04-18T16:06:53.433Z</time></trkpt><trkpt lat="44.8267312" lon="5.3903963"><ele>1062.0</ele><time>2026-04-18T16:06:54.433Z</time></trkpt><trkpt lat="44.8266121" lon="5.3902409"><ele>1068.0</ele><time>2026-04-18T16:06:55.432Z</time></trkpt><trkpt lat="44.8265029" lon="5.3900558"><ele>1074.0</ele><time>2026-04-18T16:06:56.433Z</time></trkpt><trkpt lat="44.8263997" lon="5.3898407"><ele>1084.3333333333333</ele><time>2026-04-18T16:06:57.433Z</time></trkpt><trkpt lat="44.8262965" lon="5.3896063"><ele>1094.6666666666665</ele><time>2026-04-18T16:06:58.433Z</time></trkpt><trkpt lat="44.826201" lon="5.3893656"><ele>1105.0</ele><time>2026-04-18T16:06:59.433Z</time></trkpt><trkpt lat="44.8260996" lon="5.3891247"><ele>1105.0</ele><time>2026-04-18T16:07:00.433Z</time></trkpt><trkpt lat="44.8259942" lon="5.3889142"><ele>1105.0</ele><time>2026-04-18T16:07:01.433Z</time></trkpt><trkpt lat="44.825894" lon="5.3887207"><ele>1105.0</ele><time>2026-04-18T16:07:02.433Z</time></trkpt><trkpt lat="44.8258096" lon="5.3885504"><ele>1098.5</ele><time>2026-04-18T16:07:03.433Z</time></trkpt><trkpt lat="44.8257366" lon="5.3883872"><ele>1092.0</ele><time>2026-04-18T16:07:04.433Z</time></trkpt><trkpt lat="44.8256812" lon="5.3882143"><ele>1085.5</ele><time>2026-04-18T16:07:05.433Z</time></trkpt><trkpt lat="44.8256604" lon="5.3880409"><ele>1079.0</ele><time>2026-04-18T16:07:06.433Z</time></trkpt><trkpt lat="44.825675" lon="5.3878574"><ele>1079.0</ele><time>2026-04-18T16:07:07.433Z</time></trkpt><trkpt lat="44.8257079" lon="5.3876829"><ele>1079.0</ele><time>2026-04-18T16:07:08.434Z</time></trkpt><trkpt lat="44.8257397" lon="5.3874882"><ele>1079.0</ele><time>2026-04-18T16:07:09.433Z</time></trkpt><trkpt lat="44.825751" lon="5.3872673"><ele>1079.0</ele><time>2026-04-18T16:07:10.433Z</time></trkpt><trkpt lat="44.8257436" lon="5.3870226"><ele>1082.0</ele><time>2026-04-18T16:07:11.433Z</time></trkpt><trkpt lat="44.8257238" lon="5.3867528"><ele>1085.0</ele><time>2026-04-18T16:07:12.433Z</time></trkpt><trkpt lat="44.8256959" lon="5.3864768"><ele>1088.0</ele><time>2026-04-18T16:07:13.433Z</time></trkpt><trkpt lat="44.8256641" lon="5.3861906"><ele>1092.3333333333335</ele><time>2026-04-18T16:07:14.433Z</time></trkpt><trkpt lat="44.8256292" lon="5.3859305"><ele>1096.6666666666667</ele><time>2026-04-18T16:07:15.433Z</time></trkpt><trkpt lat="44.8255871" lon="5.3856923"><ele>1101.0</ele><time>2026-04-18T16:07:16.433Z</time></trkpt><trkpt lat="44.8255374" lon="5.38547"><ele>1108.6666666666667</ele><time>2026-04-18T16:07:17.433Z</time></trkpt><trkpt lat="44.8254692" lon="5.3852653"><ele>1116.3333333333335</ele><time>2026-04-18T16:07:18.433Z</time></trkpt><trkpt lat="44.8253799" lon="5.3850814"><ele>1124.0</ele><time>2026-04-18T16:07:19.433Z</time></trkpt><trkpt lat="44.8252718" lon="5.3849189"><ele>1117.5</ele><time>2026-04-18T16:07:20.433Z</time></trkpt><trkpt lat="44.8251384" lon="5.3848034"><ele>1111.0</ele><time>2026-04-18T16:07:21.433Z</time></trkpt><trkpt lat="44.8249914" lon="5.3847199"><ele>1104.5</ele><time>2026-04-18T16:07:22.432Z</time></trkpt><trkpt lat="44.8248675" lon="5.3846501"><ele>1098.0</ele><time>2026-04-18T16:07:23.433Z</time></trkpt><trkpt lat="44.8247711" lon="5.3845667"><ele>1098.0</ele><time>2026-04-18T16:07:24.433Z</time></trkpt><trkpt lat="44.8247025" lon="5.3844813"><ele>1098.0</ele><time>2026-04-18T16:07:25.433Z</time></trkpt><trkpt lat="44.8246737" lon="5.3843845"><ele>1098.0</ele><time>2026-04-18T16:07:26.433Z</time></trkpt><trkpt lat="44.8247516" lon="5.3842971"><ele>1098.0</ele><time>2026-04-18T16:07:28.433Z</time></trkpt><trkpt lat="44.8248117" lon="5.384353"><ele>1098.0</ele><time>2026-04-18T16:07:29.433Z</time></trkpt><trkpt lat="44.8248744" lon="5.3844084"><ele>1098.0</ele><time>2026-04-18T16:07:30.433Z</time></trkpt><trkpt lat="44.8249564" lon="5.3845139"><ele>1098.0</ele><time>2026-04-18T16:07:31.433Z</time></trkpt><trkpt lat="44.82508" lon="5.3845711"><ele>1098.0</ele><time>2026-04-18T16:07:32.433Z</time></trkpt><trkpt lat="44.8252083" lon="5.384639"><ele>1098.0</ele><time>2026-04-18T16:07:33.433Z</time></trkpt><trkpt lat="44.8253382" lon="5.3847353"><ele>1098.0</ele><time>2026-04-18T16:07:34.432Z</time></trkpt><trkpt lat="44.8254573" lon="5.3848688"><ele>1106.6666666666667</ele><time>2026-04-18T16:07:35.433Z</time></trkpt><trkpt lat="44.8255682" lon="5.3850476"><ele>1115.3333333333335</ele><time>2026-04-18T16:07:36.433Z</time></trkpt><trkpt lat="44.8256598" lon="5.3852428"><ele>1124.0</ele><time>2026-04-18T16:07:37.433Z</time></trkpt><trkpt lat="44.8257337" lon="5.3854619"><ele>1116.3333333333335</ele><time>2026-04-18T16:07:38.433Z</time></trkpt><trkpt lat="44.8257869" lon="5.3856932"><ele>1108.6666666666667</ele><time>2026-04-18T16:07:39.433Z</time></trkpt><trkpt lat="44.8258333" lon="5.3859452"><ele>1101.0</ele><time>2026-04-18T16:07:40.433Z</time></trkpt><trkpt lat="44.8258828" lon="5.3862065"><ele>1096.6666666666667</ele><time>2026-04-18T16:07:41.434Z</time></trkpt><trkpt lat="44.8259361" lon="5.3864509"><ele>1092.3333333333335</ele><time>2026-04-18T16:07:42.432Z</time></trkpt><trkpt lat="44.8259907" lon="5.3866885"><ele>1088.0</ele><time>2026-04-18T16:07:43.433Z</time></trkpt><trkpt lat="44.8260307" lon="5.3869302"><ele>1107.0</ele><time>2026-04-18T16:07:44.433Z</time></trkpt><trkpt lat="44.8260461" lon="5.3871778"><ele>1126.0</ele><time>2026-04-18T16:07:45.433Z</time></trkpt><trkpt lat="44.8260457" lon="5.3874129"><ele>1145.0</ele><time>2026-04-18T16:07:46.433Z</time></trkpt><trkpt lat="44.8260336" lon="5.3876193"><ele>1145.0</ele><time>2026-04-18T16:07:47.433Z</time></trkpt><trkpt lat="44.8260392" lon="5.3878161"><ele>1145.0</ele><time>2026-04-18T16:07:48.433Z</time></trkpt><trkpt lat="44.8260967" lon="5.3879993"><ele>1145.0</ele><time>2026-04-18T16:07:49.433Z</time></trkpt><trkpt lat="44.8261807" lon="5.3881664"><ele>1145.0</ele><time>2026-04-18T16:07:50.433Z</time></trkpt><trkpt lat="44.8262721" lon="5.3883371"><ele>1140.0</ele><time>2026-04-18T16:07:51.433Z</time></trkpt><trkpt lat="44.8263643" lon="5.3885233"><ele>1135.0</ele><time>2026-04-18T16:07:52.433Z</time></trkpt><trkpt lat="44.8264601" lon="5.3887236"><ele>1130.0</ele><time>2026-04-18T16:07:53.433Z</time></trkpt><trkpt lat="44.8265679" lon="5.3889309"><ele>1136.0</ele><time>2026-04-18T16:07:54.433Z</time></trkpt><trkpt lat="44.8266758" lon="5.3891386"><ele>1142.0</ele><time>2026-04-18T16:07:55.433Z</time></trkpt><trkpt lat="44.8267796" lon="5.3893216"><ele>1148.0</ele><time>2026-04-18T16:07:56.433Z</time></trkpt><trkpt lat="44.8268906" lon="5.3894908"><ele>1148.0</ele><time>2026-04-18T16:07:57.433Z</time></trkpt><trkpt lat="44.8270226" lon="5.3896285"><ele>1148.0</ele><time>2026-04-18T16:07:58.433Z</time></trkpt><trkpt lat="44.8271686" lon="5.3897462"><ele>1148.0</ele><time>2026-04-18T16:07:59.432Z</time></trkpt><trkpt lat="44.8273352" lon="5.389845"><ele>1138.0</ele><time>2026-04-18T16:08:00.433Z</time></trkpt><trkpt lat="44.8275057" lon="5.389925"><ele>1128.0</ele><time>2026-04-18T16:08:01.433Z</time></trkpt><trkpt lat="44.8276894" lon="5.3899897"><ele>1118.0</ele><time>2026-04-18T16:08:02.433Z</time></trkpt><trkpt lat="44.8278813" lon="5.3900508"><ele>1118.0</ele><time>2026-04-18T16:08:03.433Z</time></trkpt><trkpt lat="44.8280811" lon="5.3901006"><ele>1118.0</ele><time>2026-04-18T16:08:04.433Z</time></trkpt><trkpt lat="44.8282905" lon="5.3901339"><ele>1118.0</ele><time>2026-04-18T16:08:05.433Z</time></trkpt><trkpt lat="44.8284946" lon="5.3901503"><ele>1120.0</ele><time>2026-04-18T16:08:06.433Z</time></trkpt><trkpt lat="44.8286919" lon="5.3901429"><ele>1122.0</ele><time>2026-04-18T16:08:07.432Z</time></trkpt><trkpt lat="44.8288841" lon="5.3901394"><ele>1124.0</ele><time>2026-04-18T16:08:08.433Z</time></trkpt><trkpt lat="44.8290811" lon="5.3901568"><ele>1124.0</ele><time>2026-04-18T16:08:09.433Z</time></trkpt><trkpt lat="44.8292867" lon="5.3902016"><ele>1124.0</ele><time>2026-04-18T16:08:10.433Z</time></trkpt><trkpt lat="44.8294905" lon="5.3902594"><ele>1124.0</ele><time>2026-04-18T16:08:11.433Z</time></trkpt><trkpt lat="44.8297037" lon="5.3903226"><ele>1135.0</ele><time>2026-04-18T16:08:12.433Z</time></trkpt><trkpt lat="44.8299225" lon="5.3903915"><ele>1146.0</ele><time>2026-04-18T16:08:13.433Z</time></trkpt><trkpt lat="44.8301424" lon="5.3904644"><ele>1136.3333333333333</ele><time>2026-04-18T16:08:14.433Z</time></trkpt><trkpt lat="44.8303388" lon="5.3905133"><ele>1126.6666666666665</ele><time>2026-04-18T16:08:15.433Z</time></trkpt><trkpt lat="44.830535" lon="5.3905517"><ele>1117.0</ele><time>2026-04-18T16:08:16.433Z</time></trkpt><trkpt lat="44.8307236" lon="5.3905627"><ele>1117.0</ele><time>2026-04-18T16:08:17.433Z</time></trkpt><trkpt lat="44.8308895" lon="5.3905669"><ele>1117.0</ele><time>2026-04-18T16:08:18.433Z</time></trkpt><trkpt lat="44.8310431" lon="5.3905993"><ele>1117.0</ele><time>2026-04-18T16:08:19.433Z</time></trkpt><trkpt lat="44.831198" lon="5.3906402"><ele>1117.3333333333333</ele><time>2026-04-18T16:08:20.433Z</time></trkpt><trkpt lat="44.8313578" lon="5.3906513"><ele>1117.6666666666667</ele><time>2026-04-18T16:08:21.433Z</time></trkpt><trkpt lat="44.8315263" lon="5.3906333"><ele>1118.0</ele><time>2026-04-18T16:08:22.433Z</time></trkpt><trkpt lat="44.8316961" lon="5.3905951"><ele>1115.3333333333335</ele><time>2026-04-18T16:08:23.432Z</time></trkpt><trkpt lat="44.8318737" lon="5.3905441"><ele>1112.6666666666667</ele><time>2026-04-18T16:08:24.434Z</time></trkpt><trkpt lat="44.8320528" lon="5.3904877"><ele>1110.0</ele><time>2026-04-18T16:08:25.433Z</time></trkpt><trkpt lat="44.8322333" lon="5.3904115"><ele>1123.3333333333333</ele><time>2026-04-18T16:08:26.433Z</time></trkpt><trkpt lat="44.832396" lon="5.3903177"><ele>1136.6666666666665</ele><time>2026-04-18T16:08:27.432Z</time></trkpt><trkpt lat="44.8325507" lon="5.3902309"><ele>1150.0</ele><time>2026-04-18T16:08:28.433Z</time></trkpt><trkpt lat="44.8326954" lon="5.3901644"><ele>1154.75</ele><time>2026-04-18T16:08:29.433Z</time></trkpt><trkpt lat="44.832843" lon="5.3900819"><ele>1159.5</ele><time>2026-04-18T16:08:30.433Z</time></trkpt><trkpt lat="44.83296" lon="5.3901115"><ele>1164.25</ele><time>2026-04-18T16:08:31.433Z</time></trkpt><trkpt lat="44.833086" lon="5.3901456"><ele>1169.0</ele><time>2026-04-18T16:08:32.433Z</time></trkpt><trkpt lat="44.8332059" lon="5.3902096"><ele>1169.0</ele><time>2026-04-18T16:08:33.433Z</time></trkpt><trkpt lat="44.8333304" lon="5.3902843"><ele>1169.0</ele><time>2026-04-18T16:08:34.433Z</time></trkpt><trkpt lat="44.8334026" lon="5.3903855"><ele>1169.0</ele><time>2026-04-18T16:08:35.433Z</time></trkpt><trkpt lat="44.8335247" lon="5.3904053"><ele>1169.0</ele><time>2026-04-18T16:08:36.432Z</time></trkpt><trkpt lat="44.8336275" lon="5.3904301"><ele>1170.5</ele><time>2026-04-18T16:08:37.433Z</time></trkpt><trkpt lat="44.8337033" lon="5.3904081"><ele>1172.0</ele><time>2026-04-18T16:08:38.433Z</time></trkpt><trkpt lat="44.8338002" lon="5.3903016"><ele>1173.5</ele><time>2026-04-18T16:08:39.433Z</time></trkpt><trkpt lat="44.8339151" lon="5.390168"><ele>1175.0</ele><time>2026-04-18T16:08:40.433Z</time></trkpt><trkpt lat="44.8340386" lon="5.3900298"><ele>1175.0</ele><time>2026-04-18T16:08:41.433Z</time></trkpt><trkpt lat="44.8341723" lon="5.389976"><ele>1175.0</ele><time>2026-04-18T16:08:42.433Z</time></trkpt><trkpt lat="44.8343152" lon="5.3899332"><ele>1175.0</ele><time>2026-04-18T16:08:43.433Z</time></trkpt><trkpt lat="44.8344773" lon="5.389942"><ele>1175.0</ele><time>2026-04-18T16:08:44.433Z</time></trkpt><trkpt lat="44.8346194" lon="5.3900708"><ele>1195.6666666666667</ele><time>2026-04-18T16:08:45.433Z</time></trkpt><trkpt lat="44.8347687" lon="5.3901955"><ele>1216.3333333333333</ele><time>2026-04-18T16:08:46.433Z</time></trkpt><trkpt lat="44.8349186" lon="5.3903396"><ele>1237.0</ele><time>2026-04-18T16:08:47.433Z</time></trkpt><trkpt lat="44.8350773" lon="5.3904976"><ele>1221.0</ele><time>2026-04-18T16:08:48.433Z</time></trkpt><trkpt lat="44.8352456" lon="5.3906679"><ele>1205.0</ele><time>2026-04-18T16:08:49.433Z</time></trkpt><trkpt lat="44.8354186" lon="5.3908408"><ele>1189.0</ele><time>2026-04-18T16:08:50.433Z</time></trkpt><trkpt lat="44.835596" lon="5.3910297"><ele>1189.0</ele><time>2026-04-18T16:08:51.433Z</time></trkpt><trkpt lat="44.8357746" lon="5.3912277"><ele>1189.0</ele><time>2026-04-18T16:08:52.433Z</time></trkpt><trkpt lat="44.8359615" lon="5.3914293"><ele>1188.0</ele><time>2026-04-18T16:08:53.433Z</time></trkpt><trkpt lat="44.8361455" lon="5.391622"><ele>1187.0</ele><time>2026-04-18T16:08:54.433Z</time></trkpt><trkpt lat="44.8363329" lon="5.3918162"><ele>1187.0</ele><time>2026-04-18T16:08:55.433Z</time></trkpt><trkpt lat="44.8365217" lon="5.392009"><ele>1187.0</ele><time>2026-04-18T16:08:56.432Z</time></trkpt><trkpt lat="44.8367125" lon="5.3921991"><ele>1189.6666666666667</ele><time>2026-04-18T16:08:57.433Z</time></trkpt><trkpt lat="44.8369021" lon="5.3923883"><ele>1192.3333333333333</ele><time>2026-04-18T16:08:58.433Z</time></trkpt><trkpt lat="44.8370775" lon="5.3925657"><ele>1195.0</ele><time>2026-04-18T16:08:59.433Z</time></trkpt><trkpt lat="44.8372382" lon="5.3927277"><ele>1195.0</ele><time>2026-04-18T16:09:00.433Z</time></trkpt><trkpt lat="44.8373887" lon="5.392874"><ele>1195.0</ele><time>2026-04-18T16:09:01.433Z</time></trkpt><trkpt lat="44.8375296" lon="5.393005"><ele>1195.0</ele><time>2026-04-18T16:09:02.433Z</time></trkpt><trkpt lat="44.8376572" lon="5.3931339"><ele>1198.0</ele><time>2026-04-18T16:09:03.433Z</time></trkpt><trkpt lat="44.8377695" lon="5.3932673"><ele>1201.0</ele><time>2026-04-18T16:09:04.433Z</time></trkpt><trkpt lat="44.8378502" lon="5.3934098"><ele>1204.0</ele><time>2026-04-18T16:09:05.433Z</time></trkpt><trkpt lat="44.8378999" lon="5.3935688"><ele>1207.0</ele><time>2026-04-18T16:09:06.433Z</time></trkpt><trkpt lat="44.8379086" lon="5.3937431"><ele>1207.0</ele><time>2026-04-18T16:09:07.432Z</time></trkpt><trkpt lat="44.8378673" lon="5.3939238"><ele>1207.0</ele><time>2026-04-18T16:09:08.433Z</time></trkpt><trkpt lat="44.8378001" lon="5.3941119"><ele>1207.0</ele><time>2026-04-18T16:09:09.433Z</time></trkpt><trkpt lat="44.8377184" lon="5.394301"><ele>1207.0</ele><time>2026-04-18T16:09:10.433Z</time></trkpt><trkpt lat="44.8376319" lon="5.3945069"><ele>1198.3333333333333</ele><time>2026-04-18T16:09:11.432Z</time></trkpt><trkpt lat="44.8375358" lon="5.3947206"><ele>1189.6666666666667</ele><time>2026-04-18T16:09:12.433Z</time></trkpt><trkpt lat="44.8374328" lon="5.3949316"><ele>1181.0</ele><time>2026-04-18T16:09:13.433Z</time></trkpt><trkpt lat="44.8373328" lon="5.3951179"><ele>1181.0</ele><time>2026-04-18T16:09:14.433Z</time></trkpt><trkpt lat="44.8372386" lon="5.3953153"><ele>1181.0</ele><time>2026-04-18T16:09:15.433Z</time></trkpt><trkpt lat="44.8371543" lon="5.395529"><ele>1181.0</ele><time>2026-04-18T16:09:16.433Z</time></trkpt><trkpt lat="44.8370927" lon="5.3957578"><ele>1187.3333333333335</ele><time>2026-04-18T16:09:17.433Z</time></trkpt><trkpt lat="44.8370433" lon="5.3959902"><ele>1193.6666666666667</ele><time>2026-04-18T16:09:18.432Z</time></trkpt><trkpt lat="44.8370182" lon="5.3962338"><ele>1200.0</ele><time>2026-04-18T16:09:19.433Z</time></trkpt><trkpt lat="44.8369974" lon="5.3964759"><ele>1202.75</ele><time>2026-04-18T16:09:20.432Z</time></trkpt><trkpt lat="44.8369914" lon="5.3966744"><ele>1205.5</ele><time>2026-04-18T16:09:21.433Z</time></trkpt><trkpt lat="44.8369473" lon="5.3968438"><ele>1208.25</ele><time>2026-04-18T16:09:22.433Z</time></trkpt><trkpt lat="44.8368858" lon="5.3969958"><ele>1211.0</ele><time>2026-04-18T16:09:23.433Z</time></trkpt><trkpt lat="44.8368087" lon="5.3971383"><ele>1205.8333333333335</ele><time>2026-04-18T16:09:24.433Z</time></trkpt><trkpt lat="44.836736" lon="5.3972605"><ele>1200.6666666666667</ele><time>2026-04-18T16:09:25.433Z</time></trkpt><trkpt lat="44.8366746" lon="5.3973786"><ele>1195.5</ele><time>2026-04-18T16:09:26.433Z</time></trkpt><trkpt lat="44.8366316" lon="5.3974738"><ele>1190.3333333333333</ele><time>2026-04-18T16:09:27.433Z</time></trkpt><trkpt lat="44.8366176" lon="5.3975673"><ele>1185.1666666666665</ele><time>2026-04-18T16:09:28.433Z</time></trkpt><trkpt lat="44.8366456" lon="5.397648"><ele>1180.0</ele><time>2026-04-18T16:09:29.433Z</time></trkpt><trkpt lat="44.8367496" lon="5.3976744"><ele>1186.2</ele><time>2026-04-18T16:09:31.433Z</time></trkpt><trkpt lat="44.8368036" lon="5.3975934"><ele>1192.4</ele><time>2026-04-18T16:09:32.433Z</time></trkpt><trkpt lat="44.836841" lon="5.3974865"><ele>1198.6</ele><time>2026-04-18T16:09:33.433Z</time></trkpt><trkpt lat="44.8368884" lon="5.397353"><ele>1204.8</ele><time>2026-04-18T16:09:34.433Z</time></trkpt><trkpt lat="44.8369721" lon="5.3972231"><ele>1211.0</ele><time>2026-04-18T16:09:35.433Z</time></trkpt><trkpt lat="44.837061" lon="5.3971009"><ele>1211.0</ele><time>2026-04-18T16:09:36.433Z</time></trkpt><trkpt lat="44.8371248" lon="5.3969513"><ele>1211.0</ele><time>2026-04-18T16:09:37.433Z</time></trkpt><trkpt lat="44.8371605" lon="5.3967784"><ele>1211.0</ele><time>2026-04-18T16:09:38.433Z</time></trkpt><trkpt lat="44.8371865" lon="5.3965801"><ele>1211.0</ele><time>2026-04-18T16:09:39.433Z</time></trkpt><trkpt lat="44.8372253" lon="5.3963672"><ele>1207.3333333333335</ele><time>2026-04-18T16:09:40.433Z</time></trkpt><trkpt lat="44.8372779" lon="5.3961503"><ele>1203.6666666666667</ele><time>2026-04-18T16:09:41.433Z</time></trkpt><trkpt lat="44.8373465" lon="5.3959235"><ele>1200.0</ele><time>2026-04-18T16:09:42.433Z</time></trkpt><trkpt lat="44.83743" lon="5.3957229"><ele>1200.0</ele><time>2026-04-18T16:09:43.433Z</time></trkpt><trkpt lat="44.8375356" lon="5.3955362"><ele>1200.0</ele><time>2026-04-18T16:09:44.433Z</time></trkpt><trkpt lat="44.8376601" lon="5.3953559"><ele>1200.0</ele><time>2026-04-18T16:09:45.432Z</time></trkpt><trkpt lat="44.8377863" lon="5.3951624"><ele>1202.3333333333333</ele><time>2026-04-18T16:09:46.433Z</time></trkpt><trkpt lat="44.8379151" lon="5.3949554"><ele>1204.6666666666665</ele><time>2026-04-18T16:09:47.433Z</time></trkpt><trkpt lat="44.8380483" lon="5.3947488"><ele>1207.0</ele><time>2026-04-18T16:09:48.432Z</time></trkpt><trkpt lat="44.8381835" lon="5.3945562"><ele>1207.0</ele><time>2026-04-18T16:09:49.433Z</time></trkpt><trkpt lat="44.8383077" lon="5.3943831"><ele>1207.0</ele><time>2026-04-18T16:09:50.433Z</time></trkpt><trkpt lat="44.8384134" lon="5.3942082"><ele>1207.0</ele><time>2026-04-18T16:09:51.433Z</time></trkpt><trkpt lat="44.8384981" lon="5.3940401"><ele>1215.75</ele><time>2026-04-18T16:09:52.432Z</time></trkpt><trkpt lat="44.8385637" lon="5.3938793"><ele>1224.5</ele><time>2026-04-18T16:09:53.433Z</time></trkpt><trkpt lat="44.8385978" lon="5.3937173"><ele>1233.25</ele><time>2026-04-18T16:09:54.433Z</time></trkpt><trkpt lat="44.8385883" lon="5.3935439"><ele>1242.0</ele><time>2026-04-18T16:09:55.432Z</time></trkpt><trkpt lat="44.8385423" lon="5.3933699"><ele>1237.3333333333333</ele><time>2026-04-18T16:09:56.433Z</time></trkpt><trkpt lat="44.838467" lon="5.3931898"><ele>1232.6666666666665</ele><time>2026-04-18T16:09:57.432Z</time></trkpt><trkpt lat="44.838371" lon="5.3930226"><ele>1228.0</ele><time>2026-04-18T16:09:58.432Z</time></trkpt><trkpt lat="44.8382509" lon="5.3928418"><ele>1228.0</ele><time>2026-04-18T16:09:59.433Z</time></trkpt><trkpt lat="44.8381152" lon="5.3926624"><ele>1228.0</ele><time>2026-04-18T16:10:00.433Z</time></trkpt><trkpt lat="44.8379676" lon="5.3924746"><ele>1228.0</ele><time>2026-04-18T16:10:01.433Z</time></trkpt><trkpt lat="44.8378124" lon="5.3922897"><ele>1227.0</ele><time>2026-04-18T16:10:02.433Z</time></trkpt><trkpt lat="44.8376503" lon="5.3920917"><ele>1226.0</ele><time>2026-04-18T16:10:03.433Z</time></trkpt><trkpt lat="44.8375053" lon="5.3919131"><ele>1225.0</ele><time>2026-04-18T16:10:04.433Z</time></trkpt><trkpt lat="44.8373732" lon="5.3917507"><ele>1225.0</ele><time>2026-04-18T16:10:05.433Z</time></trkpt><trkpt lat="44.8372647" lon="5.391616"><ele>1225.0</ele><time>2026-04-18T16:10:06.433Z</time></trkpt><trkpt lat="44.8371741" lon="5.391508"><ele>1225.0</ele><time>2026-04-18T16:10:07.433Z</time></trkpt><trkpt lat="44.8370973" lon="5.3914276"><ele>1225.0</ele><time>2026-04-18T16:10:08.433Z</time></trkpt><trkpt lat="44.8370302" lon="5.3913682"><ele>1225.0</ele><time>2026-04-18T16:10:09.433Z</time></trkpt><trkpt lat="44.8369797" lon="5.3913063"><ele>1225.0</ele><time>2026-04-18T16:10:10.432Z</time></trkpt><trkpt lat="44.8369754" lon="5.3911619"><ele>1225.0</ele><time>2026-04-18T16:10:12.433Z</time></trkpt><trkpt lat="44.8370838" lon="5.3911071"><ele>1225.0</ele><time>2026-04-18T16:10:14.433Z</time></trkpt><trkpt lat="44.8371539" lon="5.3911101"><ele>1225.0</ele><time>2026-04-18T16:10:15.433Z</time></trkpt><trkpt lat="44.8371977" lon="5.3913088"><ele>1225.0</ele><time>2026-04-18T16:10:16.433Z</time></trkpt><trkpt lat="44.8372935" lon="5.3914017"><ele>1225.0</ele><time>2026-04-18T16:10:17.433Z</time></trkpt><trkpt lat="44.837411" lon="5.3915154"><ele>1225.0</ele><time>2026-04-18T16:10:18.433Z</time></trkpt><trkpt lat="44.8375316" lon="5.3916399"><ele>1225.0</ele><time>2026-04-18T16:10:19.432Z</time></trkpt><trkpt lat="44.8376774" lon="5.3917745"><ele>1226.0</ele><time>2026-04-18T16:10:20.434Z</time></trkpt><trkpt lat="44.8378355" lon="5.3919114"><ele>1227.0</ele><time>2026-04-18T16:10:21.433Z</time></trkpt><trkpt lat="44.8379964" lon="5.3920569"><ele>1228.0</ele><time>2026-04-18T16:10:22.432Z</time></trkpt><trkpt lat="44.8381628" lon="5.3922085"><ele>1228.0</ele><time>2026-04-18T16:10:23.433Z</time></trkpt><trkpt lat="44.838337" lon="5.3923679"><ele>1228.0</ele><time>2026-04-18T16:10:24.433Z</time></trkpt><trkpt lat="44.8385" lon="5.3925243"><ele>1228.0</ele><time>2026-04-18T16:10:25.433Z</time></trkpt><trkpt lat="44.8386609" lon="5.3926919"><ele>1233.0</ele><time>2026-04-18T16:10:26.433Z</time></trkpt><trkpt lat="44.8387986" lon="5.3928588"><ele>1238.0</ele><time>2026-04-18T16:10:27.432Z</time></trkpt><trkpt lat="44.8389161" lon="5.3930317"><ele>1243.0</ele><time>2026-04-18T16:10:28.433Z</time></trkpt><trkpt lat="44.8390184" lon="5.393199"><ele>1243.0</ele><time>2026-04-18T16:10:29.433Z</time></trkpt><trkpt lat="44.8391031" lon="5.3933563"><ele>1243.0</ele><time>2026-04-18T16:10:30.432Z</time></trkpt><trkpt lat="44.8391695" lon="5.3935008"><ele>1243.0</ele><time>2026-04-18T16:10:31.433Z</time></trkpt><trkpt lat="44.839205" lon="5.3936536"><ele>1243.0</ele><time>2026-04-18T16:10:32.433Z</time></trkpt><trkpt lat="44.8392143" lon="5.39381"><ele>1242.75</ele><time>2026-04-18T16:10:33.433Z</time></trkpt><trkpt lat="44.839194" lon="5.3939759"><ele>1242.5</ele><time>2026-04-18T16:10:34.433Z</time></trkpt><trkpt lat="44.8391523" lon="5.3941405"><ele>1242.25</ele><time>2026-04-18T16:10:35.433Z</time></trkpt><trkpt lat="44.839089" lon="5.394301"><ele>1242.0</ele><time>2026-04-18T16:10:36.432Z</time></trkpt><trkpt lat="44.8390148" lon="5.3944623"><ele>1242.0</ele><time>2026-04-18T16:10:37.433Z</time></trkpt><trkpt lat="44.8389199" lon="5.3946116"><ele>1242.0</ele><time>2026-04-18T16:10:38.433Z</time></trkpt><trkpt lat="44.8388155" lon="5.3947602"><ele>1242.0</ele><time>2026-04-18T16:10:39.433Z</time></trkpt><trkpt lat="44.8387199" lon="5.3949235"><ele>1242.0</ele><time>2026-04-18T16:10:40.432Z</time></trkpt><trkpt lat="44.8386337" lon="5.3951026"><ele>1242.3333333333333</ele><time>2026-04-18T16:10:41.433Z</time></trkpt><trkpt lat="44.8385517" lon="5.3953002"><ele>1242.6666666666665</ele><time>2026-04-18T16:10:42.432Z</time></trkpt><trkpt lat="44.8384684" lon="5.3955069"><ele>1243.0</ele><time>2026-04-18T16:10:43.433Z</time></trkpt><trkpt lat="44.8383859" lon="5.3957011"><ele>1243.0</ele><time>2026-04-18T16:10:44.433Z</time></trkpt><trkpt lat="44.8383127" lon="5.3958744"><ele>1243.0</ele><time>2026-04-18T16:10:45.433Z</time></trkpt><trkpt lat="44.8382419" lon="5.3960355"><ele>1243.0</ele><time>2026-04-18T16:10:46.432Z</time></trkpt><trkpt lat="44.8381884" lon="5.3962019"><ele>1243.0</ele><time>2026-04-18T16:10:47.433Z</time></trkpt><trkpt lat="44.8381556" lon="5.3963811"><ele>1246.2</ele><time>2026-04-18T16:10:48.433Z</time></trkpt><trkpt lat="44.8381347" lon="5.3965521"><ele>1249.4</ele><time>2026-04-18T16:10:49.434Z</time></trkpt><trkpt lat="44.8381262" lon="5.3967102"><ele>1252.6000000000001</ele><time>2026-04-18T16:10:50.433Z</time></trkpt><trkpt lat="44.8381259" lon="5.396856"><ele>1255.8</ele><time>2026-04-18T16:10:51.432Z</time></trkpt><trkpt lat="44.8381329" lon="5.3969992"><ele>1259.0</ele><time>2026-04-18T16:10:52.433Z</time></trkpt><trkpt lat="44.8381402" lon="5.3971394"><ele>1258.2</ele><time>2026-04-18T16:10:53.433Z</time></trkpt><trkpt lat="44.8381591" lon="5.3972745"><ele>1257.4</ele><time>2026-04-18T16:10:54.433Z</time></trkpt><trkpt lat="44.8381905" lon="5.3974224"><ele>1256.6</ele><time>2026-04-18T16:10:55.433Z</time></trkpt><trkpt lat="44.8382179" lon="5.3975819"><ele>1255.8</ele><time>2026-04-18T16:10:56.433Z</time></trkpt><trkpt lat="44.8382435" lon="5.3977287"><ele>1255.0</ele><time>2026-04-18T16:10:57.433Z</time></trkpt><trkpt lat="44.8400851" lon="5.4058994"><ele>1253.5</ele><time>2026-04-18T16:11:14.345Z</time></trkpt><trkpt lat="44.8404244" lon="5.4056307"><ele>1252.0</ele><time>2026-04-18T16:11:31.433Z</time></trkpt><trkpt lat="44.8404586" lon="5.4057663"><ele>1252.0</ele><time>2026-04-18T16:11:32.433Z</time></trkpt><trkpt lat="44.840473" lon="5.4058656"><ele>1252.0</ele><time>2026-04-18T16:11:33.433Z</time></trkpt><trkpt lat="44.8404699" lon="5.4059557"><ele>1252.0</ele><time>2026-04-18T16:11:34.433Z</time></trkpt><trkpt lat="44.8404912" lon="5.4060402"><ele>1252.0</ele><time>2026-04-18T16:11:35.433Z</time></trkpt><trkpt lat="44.840538" lon="5.4061022"><ele>1252.0</ele><time>2026-04-18T16:11:36.433Z</time></trkpt><trkpt lat="44.8406093" lon="5.4061288"><ele>1252.0</ele><time>2026-04-18T16:11:37.432Z</time></trkpt><trkpt lat="44.8406732" lon="5.4061014"><ele>1252.0</ele><time>2026-04-18T16:11:38.432Z</time></trkpt><trkpt lat="44.8407325" lon="5.4060403"><ele>1252.0</ele><time>2026-04-18T16:11:39.433Z</time></trkpt><trkpt lat="44.8407993" lon="5.4059744"><ele>1252.0</ele><time>2026-04-18T16:11:40.433Z</time></trkpt><trkpt lat="44.8408873" lon="5.4059218"><ele>1252.0</ele><time>2026-04-18T16:11:41.433Z</time></trkpt><trkpt lat="44.8409954" lon="5.4058613"><ele>1252.0</ele><time>2026-04-18T16:11:42.433Z</time></trkpt><trkpt lat="44.8411225" lon="5.4057913"><ele>1252.0</ele><time>2026-04-18T16:11:43.433Z</time></trkpt><trkpt lat="44.8412641" lon="5.4057213"><ele>1250.3333333333333</ele><time>2026-04-18T16:11:44.433Z</time></trkpt><trkpt lat="44.8414241" lon="5.405646"><ele>1248.6666666666667</ele><time>2026-04-18T16:11:45.433Z</time></trkpt><trkpt lat="44.8415942" lon="5.405568"><ele>1247.0</ele><time>2026-04-18T16:11:46.433Z</time></trkpt><trkpt lat="44.84178" lon="5.4054913"><ele>1251.0</ele><time>2026-04-18T16:11:47.433Z</time></trkpt><trkpt lat="44.8419698" lon="5.4054211"><ele>1255.0</ele><time>2026-04-18T16:11:48.433Z</time></trkpt><trkpt lat="44.8421627" lon="5.4053558"><ele>1259.0</ele><time>2026-04-18T16:11:49.433Z</time></trkpt><trkpt lat="44.8423676" lon="5.4052943"><ele>1259.0</ele><time>2026-04-18T16:11:50.433Z</time></trkpt><trkpt lat="44.842577" lon="5.405238"><ele>1259.0</ele><time>2026-04-18T16:11:51.433Z</time></trkpt><trkpt lat="44.8427788" lon="5.4051867"><ele>1259.0</ele><time>2026-04-18T16:11:52.433Z</time></trkpt><trkpt lat="44.8429731" lon="5.4051443"><ele>1256.3333333333335</ele><time>2026-04-18T16:11:53.433Z</time></trkpt><trkpt lat="44.843166" lon="5.4051226"><ele>1253.6666666666667</ele><time>2026-04-18T16:11:54.432Z</time></trkpt><trkpt lat="44.843358" lon="5.4051005"><ele>1251.0</ele><time>2026-04-18T16:11:55.433Z</time></trkpt><trkpt lat="44.8435656" lon="5.405115"><ele>1248.6666666666667</ele><time>2026-04-18T16:11:56.433Z</time></trkpt><trkpt lat="44.843767" lon="5.4051017"><ele>1246.3333333333335</ele><time>2026-04-18T16:11:57.433Z</time></trkpt><trkpt lat="44.8439725" lon="5.4050702"><ele>1244.0</ele><time>2026-04-18T16:11:58.433Z</time></trkpt><trkpt lat="44.8441887" lon="5.4050328"><ele>1240.0</ele><time>2026-04-18T16:11:59.432Z</time></trkpt><trkpt lat="44.8443921" lon="5.4049985"><ele>1236.0</ele><time>2026-04-18T16:12:00.433Z</time></trkpt><trkpt lat="44.8445913" lon="5.4049767"><ele>1232.0</ele><time>2026-04-18T16:12:01.433Z</time></trkpt><trkpt lat="44.8447837" lon="5.4049543"><ele>1232.0</ele><time>2026-04-18T16:12:02.433Z</time></trkpt><trkpt lat="44.8449684" lon="5.4049464"><ele>1232.0</ele><time>2026-04-18T16:12:03.433Z</time></trkpt><trkpt lat="44.8451448" lon="5.4049391"><ele>1232.0</ele><time>2026-04-18T16:12:04.433Z</time></trkpt><trkpt lat="44.8453175" lon="5.4049249"><ele>1230.0</ele><time>2026-04-18T16:12:05.432Z</time></trkpt><trkpt lat="44.8454844" lon="5.4049038"><ele>1228.0</ele><time>2026-04-18T16:12:06.432Z</time></trkpt><trkpt lat="44.845654" lon="5.4048773"><ele>1226.0</ele><time>2026-04-18T16:12:07.432Z</time></trkpt><trkpt lat="44.8458282" lon="5.4048536"><ele>1222.6666666666667</ele><time>2026-04-18T16:12:08.433Z</time></trkpt><trkpt lat="44.8459905" lon="5.4048292"><ele>1219.3333333333333</ele><time>2026-04-18T16:12:09.433Z</time></trkpt><trkpt lat="44.8461424" lon="5.4048065"><ele>1216.0</ele><time>2026-04-18T16:12:10.433Z</time></trkpt><trkpt lat="44.8462909" lon="5.4047789"><ele>1216.0</ele><time>2026-04-18T16:12:11.433Z</time></trkpt><trkpt lat="44.8464336" lon="5.4047523"><ele>1216.0</ele><time>2026-04-18T16:12:12.433Z</time></trkpt><trkpt lat="44.8465601" lon="5.4047294"><ele>1216.0</ele><time>2026-04-18T16:12:13.433Z</time></trkpt><trkpt lat="44.8466791" lon="5.404699"><ele>1216.0</ele><time>2026-04-18T16:12:14.433Z</time></trkpt><trkpt lat="44.8467908" lon="5.404651"><ele>1223.5</ele><time>2026-04-18T16:12:15.434Z</time></trkpt><trkpt lat="44.8469104" lon="5.4046099"><ele>1231.0</ele><time>2026-04-18T16:12:16.432Z</time></trkpt><trkpt lat="44.8470398" lon="5.404595"><ele>1238.5</ele><time>2026-04-18T16:12:17.433Z</time></trkpt><trkpt lat="44.8471788" lon="5.4045824"><ele>1246.0</ele><time>2026-04-18T16:12:18.433Z</time></trkpt><trkpt lat="44.8473181" lon="5.4045466"><ele>1246.0</ele><time>2026-04-18T16:12:19.433Z</time></trkpt><trkpt lat="44.8474588" lon="5.4044937"><ele>1246.0</ele><time>2026-04-18T16:12:20.433Z</time></trkpt><trkpt lat="44.8475911" lon="5.4044307"><ele>1246.0</ele><time>2026-04-18T16:12:21.433Z</time></trkpt><trkpt lat="44.8477078" lon="5.4043872"><ele>1246.0</ele><time>2026-04-18T16:12:22.433Z</time></trkpt><trkpt lat="44.8478373" lon="5.4044982"><ele>1247.0</ele><time>2026-04-18T16:12:23.433Z</time></trkpt><trkpt lat="44.8479799" lon="5.4045235"><ele>1248.0</ele><time>2026-04-18T16:12:24.433Z</time></trkpt><trkpt lat="44.8481361" lon="5.4045324"><ele>1249.0</ele><time>2026-04-18T16:12:25.433Z</time></trkpt><trkpt lat="44.8483056" lon="5.4045157"><ele>1248.6666666666665</ele><time>2026-04-18T16:12:26.432Z</time></trkpt><trkpt lat="44.8484842" lon="5.4044807"><ele>1248.3333333333333</ele><time>2026-04-18T16:12:27.433Z</time></trkpt><trkpt lat="44.8486616" lon="5.4044359"><ele>1248.0</ele><time>2026-04-18T16:12:28.432Z</time></trkpt><trkpt lat="44.8488361" lon="5.4044147"><ele>1248.0</ele><time>2026-04-18T16:12:29.433Z</time></trkpt><trkpt lat="44.8490272" lon="5.4044106"><ele>1248.0</ele><time>2026-04-18T16:12:30.432Z</time></trkpt><trkpt lat="44.8492029" lon="5.4044608"><ele>1248.0</ele><time>2026-04-18T16:12:31.433Z</time></trkpt><trkpt lat="44.8493995" lon="5.4044887"><ele>1248.3333333333333</ele><time>2026-04-18T16:12:32.432Z</time></trkpt><trkpt lat="44.8495966" lon="5.4045053"><ele>1248.6666666666665</ele><time>2026-04-18T16:12:33.433Z</time></trkpt><trkpt lat="44.8498002" lon="5.4045153"><ele>1249.0</ele><time>2026-04-18T16:12:34.433Z</time></trkpt><trkpt lat="44.8500113" lon="5.4045163"><ele>1251.6666666666665</ele><time>2026-04-18T16:12:35.433Z</time></trkpt><trkpt lat="44.8502315" lon="5.4045119"><ele>1254.3333333333333</ele><time>2026-04-18T16:12:36.434Z</time></trkpt><trkpt lat="44.85045" lon="5.404505"><ele>1257.0</ele><time>2026-04-18T16:12:37.433Z</time></trkpt><trkpt lat="44.8506673" lon="5.404498"><ele>1257.0</ele><time>2026-04-18T16:12:38.433Z</time></trkpt><trkpt lat="44.8508835" lon="5.4044837"><ele>1257.0</ele><time>2026-04-18T16:12:39.433Z</time></trkpt><trkpt lat="44.851077" lon="5.4044787"><ele>1257.0</ele><time>2026-04-18T16:12:40.433Z</time></trkpt><trkpt lat="44.8512712" lon="5.4044598"><ele>1252.0</ele><time>2026-04-18T16:12:41.434Z</time></trkpt><trkpt lat="44.8514631" lon="5.4044326"><ele>1247.0</ele><time>2026-04-18T16:12:42.433Z</time></trkpt><trkpt lat="44.8516428" lon="5.4043952"><ele>1242.0</ele><time>2026-04-18T16:12:43.433Z</time></trkpt><trkpt lat="44.8518251" lon="5.4043358"><ele>1238.0</ele><time>2026-04-18T16:12:44.433Z</time></trkpt><trkpt lat="44.8519818" lon="5.4042461"><ele>1234.0</ele><time>2026-04-18T16:12:45.433Z</time></trkpt><trkpt lat="44.8521234" lon="5.4041366"><ele>1230.0</ele><time>2026-04-18T16:12:46.433Z</time></trkpt><trkpt lat="44.8522558" lon="5.4040327"><ele>1230.0</ele><time>2026-04-18T16:12:47.433Z</time></trkpt><trkpt lat="44.8523914" lon="5.4039651"><ele>1230.0</ele><time>2026-04-18T16:12:48.433Z</time></trkpt><trkpt lat="44.8525208" lon="5.4038941"><ele>1230.0</ele><time>2026-04-18T16:12:49.433Z</time></trkpt><trkpt lat="44.8526405" lon="5.4038688"><ele>1230.0</ele><time>2026-04-18T16:12:50.433Z</time></trkpt><trkpt lat="44.8527966" lon="5.4040178"><ele>1233.0</ele><time>2026-04-18T16:12:51.433Z</time></trkpt><trkpt lat="44.8529223" lon="5.4041136"><ele>1236.0</ele><time>2026-04-18T16:12:52.433Z</time></trkpt><trkpt lat="44.8530727" lon="5.40415"><ele>1239.0</ele><time>2026-04-18T16:12:53.432Z</time></trkpt><trkpt lat="44.8532277" lon="5.4041838"><ele>1239.0</ele><time>2026-04-18T16:12:54.433Z</time></trkpt><trkpt lat="44.8533983" lon="5.404194"><ele>1239.0</ele><time>2026-04-18T16:12:55.433Z</time></trkpt><trkpt lat="44.8535708" lon="5.4042039"><ele>1239.0</ele><time>2026-04-18T16:12:56.432Z</time></trkpt><trkpt lat="44.8537471" lon="5.4042189"><ele>1242.6666666666667</ele><time>2026-04-18T16:12:57.433Z</time></trkpt><trkpt lat="44.8539215" lon="5.4042572"><ele>1246.3333333333335</ele><time>2026-04-18T16:12:58.433Z</time></trkpt><trkpt lat="44.8541106" lon="5.4043158"><ele>1250.0</ele><time>2026-04-18T16:12:59.433Z</time></trkpt><trkpt lat="44.8543009" lon="5.4043767"><ele>1251.0</ele><time>2026-04-18T16:13:00.432Z</time></trkpt><trkpt lat="44.8544879" lon="5.4044192"><ele>1252.0</ele><time>2026-04-18T16:13:01.433Z</time></trkpt><trkpt lat="44.8546857" lon="5.4044483"><ele>1253.0</ele><time>2026-04-18T16:13:02.433Z</time></trkpt><trkpt lat="44.8548885" lon="5.404455"><ele>1253.0</ele><time>2026-04-18T16:13:03.434Z</time></trkpt><trkpt lat="44.8550928" lon="5.4044317"><ele>1253.0</ele><time>2026-04-18T16:13:04.433Z</time></trkpt><trkpt lat="44.8552993" lon="5.4043951"><ele>1253.0</ele><time>2026-04-18T16:13:05.433Z</time></trkpt><trkpt lat="44.855503" lon="5.4043408"><ele>1249.0</ele><time>2026-04-18T16:13:06.434Z</time></trkpt><trkpt lat="44.855713" lon="5.4042733"><ele>1245.0</ele><time>2026-04-18T16:13:07.433Z</time></trkpt><trkpt lat="44.855912" lon="5.4041937"><ele>1241.0</ele><time>2026-04-18T16:13:08.433Z</time></trkpt><trkpt lat="44.8560545" lon="5.4040889"><ele>1241.0</ele><time>2026-04-18T16:13:09.433Z</time></trkpt><trkpt lat="44.8562126" lon="5.4040118"><ele>1241.0</ele><time>2026-04-18T16:13:10.433Z</time></trkpt><trkpt lat="44.8563551" lon="5.4039544"><ele>1241.0</ele><time>2026-04-18T16:13:11.433Z</time></trkpt><trkpt lat="44.8564927" lon="5.4039654"><ele>1241.0</ele><time>2026-04-18T16:13:12.433Z</time></trkpt><trkpt lat="44.8566321" lon="5.4040301"><ele>1241.0</ele><time>2026-04-18T16:13:13.433Z</time></trkpt><trkpt lat="44.856767" lon="5.4041288"><ele>1241.0</ele><time>2026-04-18T16:13:14.433Z</time></trkpt><trkpt lat="44.8568893" lon="5.4042512"><ele>1241.0</ele><time>2026-04-18T16:13:15.433Z</time></trkpt><trkpt lat="44.8570118" lon="5.4043572"><ele>1244.75</ele><time>2026-04-18T16:13:16.433Z</time></trkpt><trkpt lat="44.8571405" lon="5.4044221"><ele>1248.5</ele><time>2026-04-18T16:13:17.433Z</time></trkpt><trkpt lat="44.8572609" lon="5.4044899"><ele>1252.25</ele><time>2026-04-18T16:13:18.432Z</time></trkpt><trkpt lat="44.8574232" lon="5.4044493"><ele>1256.0</ele><time>2026-04-18T16:13:19.433Z</time></trkpt><trkpt lat="44.8575777" lon="5.4044486"><ele>1256.3333333333335</ele><time>2026-04-18T16:13:20.433Z</time></trkpt><trkpt lat="44.8577168" lon="5.4044559"><ele>1256.6666666666667</ele><time>2026-04-18T16:13:21.433Z</time></trkpt><trkpt lat="44.8578923" lon="5.4043613"><ele>1257.0</ele><time>2026-04-18T16:13:22.432Z</time></trkpt><trkpt lat="44.8580343" lon="5.4043461"><ele>1257.0</ele><time>2026-04-18T16:13:23.433Z</time></trkpt><trkpt lat="44.8581671" lon="5.404381"><ele>1257.0</ele><time>2026-04-18T16:13:24.433Z</time></trkpt><trkpt lat="44.8582929" lon="5.4044557"><ele>1257.0</ele><time>2026-04-18T16:13:25.432Z</time></trkpt><trkpt lat="44.8584281" lon="5.4045142"><ele>1257.0</ele><time>2026-04-18T16:13:26.433Z</time></trkpt><trkpt lat="44.8585772" lon="5.4045374"><ele>1259.6666666666667</ele><time>2026-04-18T16:13:27.432Z</time></trkpt><trkpt lat="44.858719" lon="5.4045712"><ele>1262.3333333333335</ele><time>2026-04-18T16:13:28.432Z</time></trkpt><trkpt lat="44.8589004" lon="5.4045466"><ele>1265.0</ele><time>2026-04-18T16:13:29.433Z</time></trkpt><trkpt lat="44.8590751" lon="5.4045427"><ele>1265.0</ele><time>2026-04-18T16:13:30.432Z</time></trkpt><trkpt lat="44.8592817" lon="5.4045346"><ele>1265.0</ele><time>2026-04-18T16:13:31.433Z</time></trkpt><trkpt lat="44.8594712" lon="5.4045204"><ele>1265.0</ele><time>2026-04-18T16:13:32.433Z</time></trkpt><trkpt lat="44.8596517" lon="5.4045192"><ele>1268.0</ele><time>2026-04-18T16:13:33.433Z</time></trkpt><trkpt lat="44.8598125" lon="5.4045493"><ele>1271.0</ele><time>2026-04-18T16:13:34.433Z</time></trkpt><trkpt lat="44.8599752" lon="5.4046324"><ele>1274.0</ele><time>2026-04-18T16:13:35.432Z</time></trkpt><trkpt lat="44.8601036" lon="5.4047599"><ele>1263.6666666666667</ele><time>2026-04-18T16:13:36.433Z</time></trkpt><trkpt lat="44.8602388" lon="5.4048517"><ele>1253.3333333333333</ele><time>2026-04-18T16:13:37.433Z</time></trkpt><trkpt lat="44.8603875" lon="5.4049145"><ele>1243.0</ele><time>2026-04-18T16:13:38.433Z</time></trkpt><trkpt lat="44.8605475" lon="5.4049404"><ele>1243.0</ele><time>2026-04-18T16:13:39.433Z</time></trkpt><trkpt lat="44.8607109" lon="5.4049544"><ele>1243.0</ele><time>2026-04-18T16:13:40.433Z</time></trkpt><trkpt lat="44.8608822" lon="5.4049619"><ele>1243.0</ele><time>2026-04-18T16:13:41.433Z</time></trkpt><trkpt lat="44.8610521" lon="5.4050255"><ele>1249.6666666666665</ele><time>2026-04-18T16:13:42.432Z</time></trkpt><trkpt lat="44.8612359" lon="5.4051114"><ele>1256.3333333333333</ele><time>2026-04-18T16:13:43.433Z</time></trkpt><trkpt lat="44.8614218" lon="5.4052026"><ele>1263.0</ele><time>2026-04-18T16:13:44.433Z</time></trkpt><trkpt lat="44.8616254" lon="5.4052742"><ele>1267.0</ele><time>2026-04-18T16:13:45.433Z</time></trkpt><trkpt lat="44.8618378" lon="5.4053509"><ele>1271.0</ele><time>2026-04-18T16:13:46.433Z</time></trkpt><trkpt lat="44.8620545" lon="5.405432"><ele>1275.0</ele><time>2026-04-18T16:13:47.433Z</time></trkpt><trkpt lat="44.8622711" lon="5.4055032"><ele>1255.0</ele><time>2026-04-18T16:13:48.433Z</time></trkpt><trkpt lat="44.8624928" lon="5.4055665"><ele>1235.0</ele><time>2026-04-18T16:13:49.432Z</time></trkpt><trkpt lat="44.8627179" lon="5.4056265"><ele>1235.0</ele><time>2026-04-18T16:13:50.433Z</time></trkpt><trkpt lat="44.8629485" lon="5.4056848"><ele>1235.0</ele><time>2026-04-18T16:13:51.433Z</time></trkpt><trkpt lat="44.8631926" lon="5.4057424"><ele>1235.0</ele><time>2026-04-18T16:13:52.433Z</time></trkpt><trkpt lat="44.8634147" lon="5.4058092"><ele>1235.0</ele><time>2026-04-18T16:13:53.433Z</time></trkpt><trkpt lat="44.8636168" lon="5.4058683"><ele>1235.0</ele><time>2026-04-18T16:13:54.432Z</time></trkpt><trkpt lat="44.863808" lon="5.4059307"><ele>1240.3333333333335</ele><time>2026-04-18T16:13:55.433Z</time></trkpt><trkpt lat="44.863996" lon="5.4059766"><ele>1245.6666666666667</ele><time>2026-04-18T16:13:56.433Z</time></trkpt><trkpt lat="44.8641863" lon="5.4060085"><ele>1251.0</ele><time>2026-04-18T16:13:57.433Z</time></trkpt><trkpt lat="44.8643716" lon="5.4060004"><ele>1252.6666666666667</ele><time>2026-04-18T16:13:58.433Z</time></trkpt><trkpt lat="44.8645478" lon="5.4059855"><ele>1254.3333333333335</ele><time>2026-04-18T16:13:59.433Z</time></trkpt><trkpt lat="44.8646894" lon="5.4059568"><ele>1256.0</ele><time>2026-04-18T16:14:00.433Z</time></trkpt><trkpt lat="44.8648572" lon="5.4059598"><ele>1256.0</ele><time>2026-04-18T16:14:01.433Z</time></trkpt><trkpt lat="44.8650391" lon="5.4060285"><ele>1256.0</ele><time>2026-04-18T16:14:02.433Z</time></trkpt><trkpt lat="44.8652155" lon="5.4060994"><ele>1256.0</ele><time>2026-04-18T16:14:03.432Z</time></trkpt><trkpt lat="44.8653985" lon="5.4061799"><ele>1261.3333333333335</ele><time>2026-04-18T16:14:04.433Z</time></trkpt><trkpt lat="44.865553" lon="5.4062805"><ele>1266.6666666666667</ele><time>2026-04-18T16:14:05.433Z</time></trkpt><trkpt lat="44.8656957" lon="5.4063936"><ele>1272.0</ele><time>2026-04-18T16:14:06.433Z</time></trkpt><trkpt lat="44.865844" lon="5.4064949"><ele>1262.0</ele><time>2026-04-18T16:14:07.432Z</time></trkpt><trkpt lat="44.8660094" lon="5.4065596"><ele>1252.0</ele><time>2026-04-18T16:14:08.433Z</time></trkpt><trkpt lat="44.866176" lon="5.4066054"><ele>1242.0</ele><time>2026-04-18T16:14:09.433Z</time></trkpt><trkpt lat="44.8663535" lon="5.4066391"><ele>1242.0</ele><time>2026-04-18T16:14:10.433Z</time></trkpt><trkpt lat="44.8665391" lon="5.4066671"><ele>1242.0</ele><time>2026-04-18T16:14:11.433Z</time></trkpt><trkpt lat="44.8667228" lon="5.4066933"><ele>1242.0</ele><time>2026-04-18T16:14:12.432Z</time></trkpt><trkpt lat="44.8668874" lon="5.4067111"><ele>1243.6666666666667</ele><time>2026-04-18T16:14:13.433Z</time></trkpt><trkpt lat="44.8670464" lon="5.4067143"><ele>1245.3333333333335</ele><time>2026-04-18T16:14:14.433Z</time></trkpt><trkpt lat="44.8672091" lon="5.4066864"><ele>1247.0</ele><time>2026-04-18T16:14:15.433Z</time></trkpt><trkpt lat="44.867368" lon="5.4066357"><ele>1247.0</ele><time>2026-04-18T16:14:16.433Z</time></trkpt><trkpt lat="44.8675213" lon="5.4065686"><ele>1247.0</ele><time>2026-04-18T16:14:17.433Z</time></trkpt><trkpt lat="44.8676773" lon="5.4065241"><ele>1247.0</ele><time>2026-04-18T16:14:18.433Z</time></trkpt><trkpt lat="44.8678251" lon="5.4065383"><ele>1248.3333333333335</ele><time>2026-04-18T16:14:19.433Z</time></trkpt><trkpt lat="44.867974" lon="5.4065763"><ele>1249.6666666666667</ele><time>2026-04-18T16:14:20.434Z</time></trkpt><trkpt lat="44.868122" lon="5.4066507"><ele>1251.0</ele><time>2026-04-18T16:14:21.433Z</time></trkpt><trkpt lat="44.8682592" lon="5.4067511"><ele>1251.0</ele><time>2026-04-18T16:14:22.432Z</time></trkpt><trkpt lat="44.8683875" lon="5.4068531"><ele>1251.0</ele><time>2026-04-18T16:14:23.432Z</time></trkpt><trkpt lat="44.8685243" lon="5.4069376"><ele>1251.0</ele><time>2026-04-18T16:14:24.433Z</time></trkpt><trkpt lat="44.868678" lon="5.4070108"><ele>1254.6666666666667</ele><time>2026-04-18T16:14:25.433Z</time></trkpt><trkpt lat="44.8688308" lon="5.4070794"><ele>1258.3333333333335</ele><time>2026-04-18T16:14:26.432Z</time></trkpt><trkpt lat="44.8689874" lon="5.4071406"><ele>1262.0</ele><time>2026-04-18T16:14:27.433Z</time></trkpt><trkpt lat="44.8691614" lon="5.4071974"><ele>1251.3333333333335</ele><time>2026-04-18T16:14:28.432Z</time></trkpt><trkpt lat="44.8693386" lon="5.4072425"><ele>1240.6666666666667</ele><time>2026-04-18T16:14:29.433Z</time></trkpt><trkpt lat="44.8695259" lon="5.4072718"><ele>1230.0</ele><time>2026-04-18T16:14:30.433Z</time></trkpt><trkpt lat="44.8697189" lon="5.4072978"><ele>1230.0</ele><time>2026-04-18T16:14:31.432Z</time></trkpt><trkpt lat="44.8699229" lon="5.4073202"><ele>1230.0</ele><time>2026-04-18T16:14:32.433Z</time></trkpt><trkpt lat="44.8701323" lon="5.4073435"><ele>1230.0</ele><time>2026-04-18T16:14:33.433Z</time></trkpt><trkpt lat="44.8703508" lon="5.4073704"><ele>1230.3333333333333</ele><time>2026-04-18T16:14:34.433Z</time></trkpt><trkpt lat="44.870568" lon="5.4073913"><ele>1230.6666666666665</ele><time>2026-04-18T16:14:35.433Z</time></trkpt><trkpt lat="44.8707712" lon="5.4074176"><ele>1231.0</ele><time>2026-04-18T16:14:36.433Z</time></trkpt><trkpt lat="44.8709628" lon="5.4074532"><ele>1231.0</ele><time>2026-04-18T16:14:37.433Z</time></trkpt><trkpt lat="44.8711329" lon="5.4074791"><ele>1231.0</ele><time>2026-04-18T16:14:38.433Z</time></trkpt><trkpt lat="44.8712972" lon="5.407503"><ele>1231.0</ele><time>2026-04-18T16:14:39.432Z</time></trkpt><trkpt lat="44.8714543" lon="5.4075244"><ele>1231.0</ele><time>2026-04-18T16:14:40.433Z</time></trkpt><trkpt lat="44.8716352" lon="5.4075343"><ele>1231.0</ele><time>2026-04-18T16:14:41.433Z</time></trkpt><trkpt lat="44.8718125" lon="5.4073953"><ele>1231.0</ele><time>2026-04-18T16:14:42.433Z</time></trkpt><trkpt lat="44.8719895" lon="5.4073533"><ele>1230.75</ele><time>2026-04-18T16:14:43.433Z</time></trkpt><trkpt lat="44.8721324" lon="5.4073109"><ele>1230.5</ele><time>2026-04-18T16:14:44.433Z</time></trkpt><trkpt lat="44.8722745" lon="5.4072785"><ele>1230.25</ele><time>2026-04-18T16:14:45.434Z</time></trkpt><trkpt lat="44.8723848" lon="5.4072303"><ele>1230.0</ele><time>2026-04-18T16:14:46.433Z</time></trkpt><trkpt lat="44.872477" lon="5.4071568"><ele>1230.6666666666667</ele><time>2026-04-18T16:14:47.433Z</time></trkpt><trkpt lat="44.8725449" lon="5.4070669"><ele>1231.3333333333333</ele><time>2026-04-18T16:14:48.432Z</time></trkpt><trkpt lat="44.8726074" lon="5.4069796"><ele>1232.0</ele><time>2026-04-18T16:14:49.433Z</time></trkpt><trkpt lat="44.8726666" lon="5.4068911"><ele>1232.6666666666665</ele><time>2026-04-18T16:14:50.433Z</time></trkpt><trkpt lat="44.8727294" lon="5.4068069"><ele>1233.3333333333333</ele><time>2026-04-18T16:14:51.433Z</time></trkpt><trkpt lat="44.8727906" lon="5.4067256"><ele>1234.0</ele><time>2026-04-18T16:14:52.433Z</time></trkpt><trkpt lat="44.8728651" lon="5.4066473"><ele>1234.75</ele><time>2026-04-18T16:14:53.433Z</time></trkpt><trkpt lat="44.8729514" lon="5.4065751"><ele>1235.5</ele><time>2026-04-18T16:14:54.434Z</time></trkpt><trkpt lat="44.8730538" lon="5.4064932"><ele>1236.25</ele><time>2026-04-18T16:14:55.433Z</time></trkpt><trkpt lat="44.8731736" lon="5.4064002"><ele>1237.0</ele><time>2026-04-18T16:14:56.433Z</time></trkpt><trkpt lat="44.8733103" lon="5.4063032"><ele>1232.3333333333333</ele><time>2026-04-18T16:14:57.433Z</time></trkpt><trkpt lat="44.8734618" lon="5.4062083"><ele>1227.6666666666667</ele><time>2026-04-18T16:14:58.433Z</time></trkpt><trkpt lat="44.8736258" lon="5.4061181"><ele>1223.0</ele><time>2026-04-18T16:14:59.433Z</time></trkpt><trkpt lat="44.8737928" lon="5.4060384"><ele>1223.0</ele><time>2026-04-18T16:15:00.433Z</time></trkpt><trkpt lat="44.8739657" lon="5.4059872"><ele>1223.0</ele><time>2026-04-18T16:15:01.432Z</time></trkpt><trkpt lat="44.8741403" lon="5.405956"><ele>1223.0</ele><time>2026-04-18T16:15:02.433Z</time></trkpt><trkpt lat="44.8743037" lon="5.4059531"><ele>1223.0</ele><time>2026-04-18T16:15:03.433Z</time></trkpt><trkpt lat="44.8744664" lon="5.4059396"><ele>1223.0</ele><time>2026-04-18T16:15:04.433Z</time></trkpt><trkpt lat="44.874631" lon="5.4059033"><ele>1223.0</ele><time>2026-04-18T16:15:05.433Z</time></trkpt><trkpt lat="44.8747756" lon="5.4058405"><ele>1223.0</ele><time>2026-04-18T16:15:06.432Z</time></trkpt><trkpt lat="44.8749352" lon="5.4058279"><ele>1223.0</ele><time>2026-04-18T16:15:07.432Z</time></trkpt><trkpt lat="44.8750957" lon="5.4058449"><ele>1223.0</ele><time>2026-04-18T16:15:08.432Z</time></trkpt><trkpt lat="44.8752576" lon="5.4058752"><ele>1218.3333333333335</ele><time>2026-04-18T16:15:09.433Z</time></trkpt><trkpt lat="44.8754239" lon="5.4059327"><ele>1213.6666666666667</ele><time>2026-04-18T16:15:10.433Z</time></trkpt><trkpt lat="44.8756033" lon="5.40597"><ele>1209.0</ele><time>2026-04-18T16:15:11.433Z</time></trkpt><trkpt lat="44.8757804" lon="5.4060066"><ele>1207.0</ele><time>2026-04-18T16:15:12.433Z</time></trkpt><trkpt lat="44.8759379" lon="5.4060133"><ele>1205.0</ele><time>2026-04-18T16:15:13.432Z</time></trkpt><trkpt lat="44.8760771" lon="5.4060471"><ele>1203.0</ele><time>2026-04-18T16:15:14.433Z</time></trkpt><trkpt lat="44.8762111" lon="5.4061182"><ele>1201.0</ele><time>2026-04-18T16:15:15.433Z</time></trkpt><trkpt lat="44.8763228" lon="5.4061959"><ele>1201.0</ele><time>2026-04-18T16:15:16.432Z</time></trkpt><trkpt lat="44.8764208" lon="5.4062741"><ele>1201.0</ele><time>2026-04-18T16:15:17.433Z</time></trkpt><trkpt lat="44.8764998" lon="5.4063361"><ele>1201.0</ele><time>2026-04-18T16:15:18.433Z</time></trkpt><trkpt lat="44.8765789" lon="5.406379"><ele>1201.0</ele><time>2026-04-18T16:15:19.433Z</time></trkpt><trkpt lat="44.8766554" lon="5.4064181"><ele>1201.0</ele><time>2026-04-18T16:15:20.432Z</time></trkpt><trkpt lat="44.876724" lon="5.4064668"><ele>1201.0</ele><time>2026-04-18T16:15:21.432Z</time></trkpt><trkpt lat="44.8767254" lon="5.4063233"><ele>1201.0</ele><time>2026-04-18T16:15:22.433Z</time></trkpt><trkpt lat="44.8766263" lon="5.4061754"><ele>1201.0</ele><time>2026-04-18T16:15:23.433Z</time></trkpt><trkpt lat="44.8765661" lon="5.4060864"><ele>1201.0</ele><time>2026-04-18T16:15:24.433Z</time></trkpt><trkpt lat="44.8764661" lon="5.4059839"><ele>1201.0</ele><time>2026-04-18T16:15:25.434Z</time></trkpt><trkpt lat="44.8763564" lon="5.4058907"><ele>1201.0</ele><time>2026-04-18T16:15:26.433Z</time></trkpt><trkpt lat="44.876244" lon="5.4057986"><ele>1201.0</ele><time>2026-04-18T16:15:27.433Z</time></trkpt><trkpt lat="44.8761201" lon="5.4057107"><ele>1201.0</ele><time>2026-04-18T16:15:28.433Z</time></trkpt><trkpt lat="44.8759756" lon="5.4056272"><ele>1201.0</ele><time>2026-04-18T16:15:29.433Z</time></trkpt><trkpt lat="44.8758613" lon="5.4055991"><ele>1203.0</ele><time>2026-04-18T16:15:30.433Z</time></trkpt><trkpt lat="44.8757616" lon="5.4055669"><ele>1205.0</ele><time>2026-04-18T16:15:31.434Z</time></trkpt><trkpt lat="44.8756314" lon="5.4054554"><ele>1207.0</ele><time>2026-04-18T16:15:32.433Z</time></trkpt><trkpt lat="44.8755096" lon="5.4053239"><ele>1209.0</ele><time>2026-04-18T16:15:33.433Z</time></trkpt><trkpt lat="44.8754049" lon="5.4052216"><ele>1207.0</ele><time>2026-04-18T16:15:34.433Z</time></trkpt><trkpt lat="44.8753078" lon="5.4051021"><ele>1205.0</ele><time>2026-04-18T16:15:35.433Z</time></trkpt><trkpt lat="44.8751928" lon="5.4050436"><ele>1203.0</ele><time>2026-04-18T16:15:36.432Z</time></trkpt><trkpt lat="44.8750814" lon="5.4049281"><ele>1201.0</ele><time>2026-04-18T16:15:37.433Z</time></trkpt><trkpt lat="44.874998" lon="5.4047724"><ele>1197.6666666666665</ele><time>2026-04-18T16:15:38.433Z</time></trkpt><trkpt lat="44.8749299" lon="5.4045906"><ele>1194.3333333333333</ele><time>2026-04-18T16:15:39.433Z</time></trkpt><trkpt lat="44.87487" lon="5.4043971"><ele>1191.0</ele><time>2026-04-18T16:15:40.433Z</time></trkpt><trkpt lat="44.874805" lon="5.4041871"><ele>1191.0</ele><time>2026-04-18T16:15:41.433Z</time></trkpt><trkpt lat="44.8747354" lon="5.4039919"><ele>1191.0</ele><time>2026-04-18T16:15:42.433Z</time></trkpt><trkpt lat="44.8746642" lon="5.4038097"><ele>1191.0</ele><time>2026-04-18T16:15:43.433Z</time></trkpt><trkpt lat="44.8745986" lon="5.4036516"><ele>1191.0</ele><time>2026-04-18T16:15:44.433Z</time></trkpt><trkpt lat="44.8745489" lon="5.403493"><ele>1189.75</ele><time>2026-04-18T16:15:45.433Z</time></trkpt><trkpt lat="44.8745351" lon="5.403317"><ele>1188.5</ele><time>2026-04-18T16:15:46.433Z</time></trkpt><trkpt lat="44.8745551" lon="5.4031395"><ele>1187.25</ele><time>2026-04-18T16:15:47.433Z</time></trkpt><trkpt lat="44.8745946" lon="5.4029536"><ele>1186.0</ele><time>2026-04-18T16:15:48.432Z</time></trkpt><trkpt lat="44.8746388" lon="5.4027686"><ele>1185.0</ele><time>2026-04-18T16:15:49.433Z</time></trkpt><trkpt lat="44.874683" lon="5.4025889"><ele>1184.0</ele><time>2026-04-18T16:15:50.433Z</time></trkpt><trkpt lat="44.8747164" lon="5.4023961"><ele>1183.0</ele><time>2026-04-18T16:15:51.433Z</time></trkpt><trkpt lat="44.8747585" lon="5.40222"><ele>1182.0</ele><time>2026-04-18T16:15:52.432Z</time></trkpt><trkpt lat="44.8747796" lon="5.4020387"><ele>1181.0</ele><time>2026-04-18T16:15:53.432Z</time></trkpt><trkpt lat="44.8747664" lon="5.4018456"><ele>1180.0</ele><time>2026-04-18T16:15:54.433Z</time></trkpt><trkpt lat="44.8747374" lon="5.4016723"><ele>1179.0</ele><time>2026-04-18T16:15:55.433Z</time></trkpt><trkpt lat="44.8746751" lon="5.4015096"><ele>1178.0</ele><time>2026-04-18T16:15:56.433Z</time></trkpt><trkpt lat="44.8745849" lon="5.4013602"><ele>1176.5</ele><time>2026-04-18T16:15:57.433Z</time></trkpt><trkpt lat="44.8744885" lon="5.4012294"><ele>1175.0</ele><time>2026-04-18T16:15:58.433Z</time></trkpt><trkpt lat="44.8744038" lon="5.4010939"><ele>1173.5</ele><time>2026-04-18T16:15:59.433Z</time></trkpt><trkpt lat="44.8743416" lon="5.4009264"><ele>1172.0</ele><time>2026-04-18T16:16:00.432Z</time></trkpt><trkpt lat="44.8743127" lon="5.4007411"><ele>1172.0</ele><time>2026-04-18T16:16:01.433Z</time></trkpt><trkpt lat="44.8743149" lon="5.4005573"><ele>1172.0</ele><time>2026-04-18T16:16:02.433Z</time></trkpt><trkpt lat="44.874335" lon="5.4003731"><ele>1172.0</ele><time>2026-04-18T16:16:03.432Z</time></trkpt><trkpt lat="44.874378" lon="5.4002088"><ele>1172.0</ele><time>2026-04-18T16:16:04.433Z</time></trkpt><trkpt lat="44.8744439" lon="5.4000625"><ele>1170.5</ele><time>2026-04-18T16:16:05.433Z</time></trkpt><trkpt lat="44.8745122" lon="5.3999005"><ele>1169.0</ele><time>2026-04-18T16:16:06.433Z</time></trkpt><trkpt lat="44.874575" lon="5.3997467"><ele>1167.5</ele><time>2026-04-18T16:16:07.433Z</time></trkpt><trkpt lat="44.8746309" lon="5.3995814"><ele>1166.0</ele><time>2026-04-18T16:16:08.432Z</time></trkpt><trkpt lat="44.8746696" lon="5.3994114"><ele>1165.8</ele><time>2026-04-18T16:16:09.433Z</time></trkpt><trkpt lat="44.8746911" lon="5.39926"><ele>1165.6</ele><time>2026-04-18T16:16:10.433Z</time></trkpt><trkpt lat="44.8747072" lon="5.3991384"><ele>1165.4</ele><time>2026-04-18T16:16:11.433Z</time></trkpt><trkpt lat="44.8747396" lon="5.3990485"><ele>1165.2</ele><time>2026-04-18T16:16:12.433Z</time></trkpt><trkpt lat="44.8748014" lon="5.399012"><ele>1165.0</ele><time>2026-04-18T16:16:13.434Z</time></trkpt><trkpt lat="44.8749081" lon="5.3991132"><ele>1165.0</ele><time>2026-04-18T16:16:15.432Z</time></trkpt><trkpt lat="44.8749234" lon="5.39925"><ele>1165.0</ele><time>2026-04-18T16:16:16.433Z</time></trkpt><trkpt lat="44.8749779" lon="5.3993952"><ele>1165.0</ele><time>2026-04-18T16:16:17.433Z</time></trkpt><trkpt lat="44.8750324" lon="5.3995428"><ele>1165.0</ele><time>2026-04-18T16:16:18.433Z</time></trkpt><trkpt lat="44.8751016" lon="5.3996878"><ele>1164.8</ele><time>2026-04-18T16:16:19.433Z</time></trkpt><trkpt lat="44.8751659" lon="5.3998137"><ele>1164.6</ele><time>2026-04-18T16:16:20.433Z</time></trkpt><trkpt lat="44.875249" lon="5.3999161"><ele>1164.4</ele><time>2026-04-18T16:16:21.433Z</time></trkpt><trkpt lat="44.8753429" lon="5.3999619"><ele>1164.2</ele><time>2026-04-18T16:16:22.433Z</time></trkpt><trkpt lat="44.8754359" lon="5.4000174"><ele>1164.0</ele><time>2026-04-18T16:16:23.433Z</time></trkpt><trkpt lat="44.8755413" lon="5.4000518"><ele>1164.0</ele><time>2026-04-18T16:16:24.433Z</time></trkpt><trkpt lat="44.8757131" lon="5.3999168"><ele>1164.0</ele><time>2026-04-18T16:16:25.433Z</time></trkpt><trkpt lat="44.8759269" lon="5.3996586"><ele>1158.3333333333333</ele><time>2026-04-18T16:16:26.432Z</time></trkpt><trkpt lat="44.876079" lon="5.3995686"><ele>1152.6666666666665</ele><time>2026-04-18T16:16:27.432Z</time></trkpt><trkpt lat="44.8762584" lon="5.399475"><ele>1147.0</ele><time>2026-04-18T16:16:28.432Z</time></trkpt><trkpt lat="44.8764228" lon="5.3993887"><ele>1147.0</ele><time>2026-04-18T16:16:29.433Z</time></trkpt><trkpt lat="44.8765869" lon="5.3993224"><ele>1147.0</ele><time>2026-04-18T16:16:30.433Z</time></trkpt><trkpt lat="44.8767517" lon="5.399266"><ele>1147.0</ele><time>2026-04-18T16:16:31.433Z</time></trkpt><trkpt lat="44.8769215" lon="5.3992337"><ele>1147.0</ele><time>2026-04-18T16:16:32.433Z</time></trkpt><trkpt lat="44.8771017" lon="5.3992229"><ele>1147.0</ele><time>2026-04-18T16:16:33.433Z</time></trkpt><trkpt lat="44.8772888" lon="5.3992178"><ele>1147.0</ele><time>2026-04-18T16:16:34.433Z</time></trkpt><trkpt lat="44.8774836" lon="5.3991956"><ele>1150.6666666666665</ele><time>2026-04-18T16:16:35.433Z</time></trkpt><trkpt lat="44.8776762" lon="5.3991542"><ele>1154.3333333333333</ele><time>2026-04-18T16:16:36.433Z</time></trkpt><trkpt lat="44.8778598" lon="5.3991004"><ele>1158.0</ele><time>2026-04-18T16:16:37.433Z</time></trkpt><trkpt lat="44.8780286" lon="5.3990264"><ele>1158.0</ele><time>2026-04-18T16:16:38.433Z</time></trkpt><trkpt lat="44.8781883" lon="5.3989306"><ele>1158.0</ele><time>2026-04-18T16:16:39.433Z</time></trkpt><trkpt lat="44.8783315" lon="5.3988178"><ele>1158.0</ele><time>2026-04-18T16:16:40.433Z</time></trkpt><trkpt lat="44.878453" lon="5.398709"><ele>1153.6</ele><time>2026-04-18T16:16:41.433Z</time></trkpt><trkpt lat="44.8785479" lon="5.398618"><ele>1149.1999999999998</ele><time>2026-04-18T16:16:42.434Z</time></trkpt><trkpt lat="44.8786123" lon="5.3985501"><ele>1144.8</ele><time>2026-04-18T16:16:43.433Z</time></trkpt><trkpt lat="44.8786712" lon="5.3984903"><ele>1140.3999999999999</ele><time>2026-04-18T16:16:45.433Z</time></trkpt><trkpt lat="44.8786421" lon="5.3983856"><ele>1136.0</ele><time>2026-04-18T16:16:53.433Z</time></trkpt><trkpt lat="44.8785497" lon="5.3984632"><ele>1136.0</ele><time>2026-04-18T16:16:56.433Z</time></trkpt><trkpt lat="44.8784488" lon="5.3985434"><ele>1136.0</ele><time>2026-04-18T16:16:58.433Z</time></trkpt><trkpt lat="44.8783323" lon="5.3986112"><ele>1136.0</ele><time>2026-04-18T16:17:00.433Z</time></trkpt><trkpt lat="44.8782328" lon="5.3986357"><ele>1136.0</ele><time>2026-04-18T16:17:02.432Z</time></trkpt><trkpt lat="44.8781276" lon="5.3986495"><ele>1136.0</ele><time>2026-04-18T16:17:04.433Z</time></trkpt><trkpt lat="44.8780551" lon="5.3986516"><ele>1134.2</ele><time>2026-04-18T16:17:05.432Z</time></trkpt><trkpt lat="44.877981" lon="5.3986476"><ele>1132.3999999999999</ele><time>2026-04-18T16:17:06.433Z</time></trkpt><trkpt lat="44.8778587" lon="5.3986443"><ele>1130.6</ele><time>2026-04-18T16:17:08.433Z</time></trkpt><trkpt lat="44.8777363" lon="5.3986557"><ele>1128.8</ele><time>2026-04-18T16:17:10.432Z</time></trkpt><trkpt lat="44.8776588" lon="5.3986569"><ele>1127.0</ele><time>2026-04-18T16:17:11.433Z</time></trkpt><trkpt lat="44.8775892" lon="5.3986472"><ele>1126.0</ele><time>2026-04-18T16:17:12.433Z</time></trkpt><trkpt lat="44.8775192" lon="5.3986493"><ele>1125.0</ele><time>2026-04-18T16:17:13.433Z</time></trkpt><trkpt lat="44.8774536" lon="5.3986487"><ele>1124.0</ele><time>2026-04-18T16:17:14.433Z</time></trkpt><trkpt lat="44.8773252" lon="5.3986591"><ele>1123.0</ele><time>2026-04-18T16:17:16.433Z</time></trkpt><trkpt lat="44.8772372" lon="5.3985848"><ele>1122.0</ele><time>2026-04-18T16:17:18.433Z</time></trkpt><trkpt lat="44.877156" lon="5.3985288"><ele>1122.0</ele><time>2026-04-18T16:17:20.433Z</time></trkpt><trkpt lat="44.877107" lon="5.3984589"><ele>1122.0</ele><time>2026-04-18T16:17:22.433Z</time></trkpt><trkpt lat="44.8770814" lon="5.3983691"><ele>1122.0</ele><time>2026-04-18T16:17:24.433Z</time></trkpt><trkpt lat="44.8770555" lon="5.3982604"><ele>1122.0</ele><time>2026-04-18T16:17:26.434Z</time></trkpt><trkpt lat="44.8770739" lon="5.3981673"><ele>1122.0</ele><time>2026-04-18T16:17:29.433Z</time></trkpt><trkpt lat="44.8771664" lon="5.3981451"><ele>1122.0</ele><time>2026-04-18T16:17:31.433Z</time></trkpt><trkpt lat="44.8772268" lon="5.3980854"><ele>1120.3333333333333</ele><time>2026-04-18T16:17:33.433Z</time></trkpt><trkpt lat="44.8772981" lon="5.3979936"><ele>1118.6666666666667</ele><time>2026-04-18T16:17:35.433Z</time></trkpt><trkpt lat="44.8773855" lon="5.397924"><ele>1117.0</ele><time>2026-04-18T16:17:37.433Z</time></trkpt><trkpt lat="44.8774547" lon="5.3978457"><ele>1115.3333333333335</ele><time>2026-04-18T16:17:39.433Z</time></trkpt><trkpt lat="44.8774956" lon="5.3977595"><ele>1113.6666666666667</ele><time>2026-04-18T16:17:41.433Z</time></trkpt><trkpt lat="44.8775387" lon="5.3976618"><ele>1112.0</ele><time>2026-04-18T16:17:43.433Z</time></trkpt><trkpt lat="44.8776049" lon="5.3975813"><ele>1112.0</ele><time>2026-04-18T16:17:45.433Z</time></trkpt><trkpt lat="44.8776982" lon="5.3975022"><ele>1112.0</ele><time>2026-04-18T16:17:47.433Z</time></trkpt><trkpt lat="44.8777602" lon="5.3974087"><ele>1112.0</ele><time>2026-04-18T16:17:49.433Z</time></trkpt><trkpt lat="44.8778074" lon="5.3972903"><ele>1112.0</ele><time>2026-04-18T16:17:51.433Z</time></trkpt><trkpt lat="44.8778211" lon="5.3971512"><ele>1112.0</ele><time>2026-04-18T16:17:53.434Z</time></trkpt><trkpt lat="44.8778514" lon="5.3970216"><ele>1109.8</ele><time>2026-04-18T16:17:56.433Z</time></trkpt><trkpt lat="44.8778988" lon="5.3969278"><ele>1107.6</ele><time>2026-04-18T16:17:58.433Z</time></trkpt><trkpt lat="44.8779631" lon="5.3968385"><ele>1105.3999999999999</ele><time>2026-04-18T16:18:00.432Z</time></trkpt><trkpt lat="44.8780517" lon="5.39675"><ele>1103.2</ele><time>2026-04-18T16:18:02.433Z</time></trkpt><trkpt lat="44.8781392" lon="5.3967047"><ele>1101.0</ele><time>2026-04-18T16:18:04.433Z</time></trkpt><trkpt lat="44.8782127" lon="5.3966435"><ele>1101.0</ele><time>2026-04-18T16:18:06.434Z</time></trkpt><trkpt lat="44.8783013" lon="5.3965712"><ele>1101.0</ele><time>2026-04-18T16:18:08.433Z</time></trkpt><trkpt lat="44.8784494" lon="5.3965288"><ele>1101.0</ele><time>2026-04-18T16:18:10.433Z</time></trkpt><trkpt lat="44.8785154" lon="5.3964328"><ele>1101.0</ele><time>2026-04-18T16:18:13.433Z</time></trkpt><trkpt lat="44.8785548" lon="5.3963373"><ele>1101.0</ele><time>2026-04-18T16:18:15.432Z</time></trkpt><trkpt lat="44.8786276" lon="5.3962584"><ele>1099.8333333333333</ele><time>2026-04-18T16:18:17.433Z</time></trkpt><trkpt lat="44.8787142" lon="5.3962072"><ele>1098.6666666666667</ele><time>2026-04-18T16:18:19.433Z</time></trkpt><trkpt lat="44.8787979" lon="5.3961773"><ele>1097.5</ele><time>2026-04-18T16:18:21.433Z</time></trkpt><trkpt lat="44.8788692" lon="5.3961449"><ele>1096.3333333333335</ele><time>2026-04-18T16:18:23.433Z</time></trkpt><trkpt lat="44.8789289" lon="5.3960854"><ele>1095.1666666666667</ele><time>2026-04-18T16:18:25.433Z</time></trkpt><trkpt lat="44.8789729" lon="5.3959916"><ele>1094.0</ele><time>2026-04-18T16:18:27.432Z</time></trkpt><trkpt lat="44.8790052" lon="5.3959138"><ele>1094.0</ele><time>2026-04-18T16:18:29.433Z</time></trkpt><trkpt lat="44.8790409" lon="5.3958217"><ele>1094.0</ele><time>2026-04-18T16:18:31.433Z</time></trkpt><trkpt lat="44.8790823" lon="5.3957314"><ele>1094.0</ele><time>2026-04-18T16:18:33.433Z</time></trkpt><trkpt lat="44.8791508" lon="5.3956441"><ele>1094.0</ele><time>2026-04-18T16:18:35.432Z</time></trkpt><trkpt lat="44.8792116" lon="5.3955556"><ele>1094.0</ele><time>2026-04-18T16:18:37.433Z</time></trkpt><trkpt lat="44.8792812" lon="5.3954745"><ele>1094.0</ele><time>2026-04-18T16:18:39.432Z</time></trkpt><trkpt lat="44.8793469" lon="5.3953945"><ele>1093.75</ele><time>2026-04-18T16:18:41.433Z</time></trkpt><trkpt lat="44.879415" lon="5.3952802"><ele>1093.5</ele><time>2026-04-18T16:18:43.433Z</time></trkpt><trkpt lat="44.8794914" lon="5.3951708"><ele>1093.25</ele><time>2026-04-18T16:18:45.433Z</time></trkpt><trkpt lat="44.8795689" lon="5.3950531"><ele>1093.0</ele><time>2026-04-18T16:18:47.433Z</time></trkpt><trkpt lat="44.8796391" lon="5.3949081"><ele>1093.0</ele><time>2026-04-18T16:18:49.433Z</time></trkpt><trkpt lat="44.8796836" lon="5.3947678"><ele>1093.0</ele><time>2026-04-18T16:18:51.433Z</time></trkpt><trkpt lat="44.879722" lon="5.3946232"><ele>1093.0</ele><time>2026-04-18T16:18:53.433Z</time></trkpt><trkpt lat="44.8797647" lon="5.3944723"><ele>1093.0</ele><time>2026-04-18T16:18:55.433Z</time></trkpt><trkpt lat="44.8797873" lon="5.394385"><ele>1093.0</ele><time>2026-04-18T16:18:56.433Z</time></trkpt><trkpt lat="44.8798135" lon="5.3942956"><ele>1092.6666666666665</ele><time>2026-04-18T16:18:57.433Z</time></trkpt><trkpt lat="44.8798402" lon="5.3942059"><ele>1092.3333333333333</ele><time>2026-04-18T16:18:58.433Z</time></trkpt><trkpt lat="44.8798723" lon="5.3941238"><ele>1092.0</ele><time>2026-04-18T16:18:59.432Z</time></trkpt><trkpt lat="44.8799314" lon="5.3939743"><ele>1091.6666666666667</ele><time>2026-04-18T16:19:01.433Z</time></trkpt><trkpt lat="44.8799709" lon="5.3938469"><ele>1091.3333333333335</ele><time>2026-04-18T16:19:03.433Z</time></trkpt><trkpt lat="44.8800017" lon="5.3937458"><ele>1091.0</ele><time>2026-04-18T16:19:05.433Z</time></trkpt><trkpt lat="44.8800412" lon="5.3936331"><ele>1091.0</ele><time>2026-04-18T16:19:07.433Z</time></trkpt><trkpt lat="44.8800627" lon="5.3935112"><ele>1091.0</ele><time>2026-04-18T16:19:09.433Z</time></trkpt><trkpt lat="44.8800718" lon="5.3934121"><ele>1091.0</ele><time>2026-04-18T16:19:11.432Z</time></trkpt><trkpt lat="44.8801113" lon="5.3932923"><ele>1091.0</ele><time>2026-04-18T16:19:14.433Z</time></trkpt><trkpt lat="44.8801407" lon="5.3932064"><ele>1091.0</ele><time>2026-04-18T16:19:16.433Z</time></trkpt><trkpt lat="44.8802109" lon="5.3931616"><ele>1091.0</ele><time>2026-04-18T16:19:18.433Z</time></trkpt><trkpt lat="44.8802987" lon="5.3931156"><ele>1090.8</ele><time>2026-04-18T16:19:20.433Z</time></trkpt><trkpt lat="44.880377" lon="5.393045"><ele>1090.6</ele><time>2026-04-18T16:19:22.433Z</time></trkpt><trkpt lat="44.8804431" lon="5.3929576"><ele>1090.4</ele><time>2026-04-18T16:19:24.433Z</time></trkpt><trkpt lat="44.8805008" lon="5.3928508"><ele>1090.2</ele><time>2026-04-18T16:19:26.432Z</time></trkpt><trkpt lat="44.8805817" lon="5.3927324"><ele>1090.0</ele><time>2026-04-18T16:19:28.434Z</time></trkpt><trkpt lat="44.8806386" lon="5.3926749"><ele>1090.1666666666665</ele><time>2026-04-18T16:19:29.432Z</time></trkpt><trkpt lat="44.8807312" lon="5.3925598"><ele>1090.3333333333333</ele><time>2026-04-18T16:19:31.433Z</time></trkpt><trkpt lat="44.8807821" lon="5.3924973"><ele>1090.5</ele><time>2026-04-18T16:19:32.434Z</time></trkpt><trkpt lat="44.880835" lon="5.3924333"><ele>1090.6666666666667</ele><time>2026-04-18T16:19:33.432Z</time></trkpt><trkpt lat="44.8808855" lon="5.3923681"><ele>1090.8333333333335</ele><time>2026-04-18T16:19:34.433Z</time></trkpt><trkpt lat="44.8809393" lon="5.3923146"><ele>1091.0</ele><time>2026-04-18T16:19:35.432Z</time></trkpt><trkpt lat="44.8810072" lon="5.3922548"><ele>1091.0</ele><time>2026-04-18T16:19:36.433Z</time></trkpt><trkpt lat="44.8810651" lon="5.3922021"><ele>1091.0</ele><time>2026-04-18T16:19:37.433Z</time></trkpt><trkpt lat="44.881121" lon="5.3921467"><ele>1091.0</ele><time>2026-04-18T16:19:38.433Z</time></trkpt><trkpt lat="44.8811741" lon="5.3920786"><ele>1091.0</ele><time>2026-04-18T16:19:39.433Z</time></trkpt><trkpt lat="44.8812225" lon="5.3919984"><ele>1091.0</ele><time>2026-04-18T16:19:40.433Z</time></trkpt><trkpt lat="44.8812602" lon="5.3919108"><ele>1091.0</ele><time>2026-04-18T16:19:41.432Z</time></trkpt><trkpt lat="44.8812941" lon="5.3918308"><ele>1091.0</ele><time>2026-04-18T16:19:42.433Z</time></trkpt><trkpt lat="44.8813434" lon="5.3917477"><ele>1090.8333333333335</ele><time>2026-04-18T16:19:43.433Z</time></trkpt><trkpt lat="44.8814011" lon="5.3916633"><ele>1090.6666666666667</ele><time>2026-04-18T16:19:44.433Z</time></trkpt><trkpt lat="44.8814757" lon="5.3916024"><ele>1090.5</ele><time>2026-04-18T16:19:45.433Z</time></trkpt><trkpt lat="44.8815603" lon="5.3915528"><ele>1090.3333333333333</ele><time>2026-04-18T16:19:46.433Z</time></trkpt><trkpt lat="44.8816486" lon="5.3915011"><ele>1090.1666666666665</ele><time>2026-04-18T16:19:47.433Z</time></trkpt><trkpt lat="44.8817287" lon="5.3914451"><ele>1090.0</ele><time>2026-04-18T16:19:48.433Z</time></trkpt><trkpt lat="44.8818094" lon="5.3913878"><ele>1088.5</ele><time>2026-04-18T16:19:49.433Z</time></trkpt><trkpt lat="44.8818845" lon="5.3913327"><ele>1087.0</ele><time>2026-04-18T16:19:50.433Z</time></trkpt><trkpt lat="44.8819599" lon="5.3912676"><ele>1085.5</ele><time>2026-04-18T16:19:51.433Z</time></trkpt><trkpt lat="44.8820317" lon="5.3911942"><ele>1084.0</ele><time>2026-04-18T16:19:52.433Z</time></trkpt><trkpt lat="44.8821073" lon="5.391129"><ele>1082.5</ele><time>2026-04-18T16:19:53.433Z</time></trkpt><trkpt lat="44.8821859" lon="5.3910699"><ele>1081.0</ele><time>2026-04-18T16:19:54.433Z</time></trkpt><trkpt lat="44.8822692" lon="5.3910047"><ele>1081.0</ele><time>2026-04-18T16:19:55.432Z</time></trkpt><trkpt lat="44.8823639" lon="5.3909519"><ele>1081.0</ele><time>2026-04-18T16:19:56.433Z</time></trkpt><trkpt lat="44.882472" lon="5.3909077"><ele>1081.0</ele><time>2026-04-18T16:19:57.432Z</time></trkpt><trkpt lat="44.8825992" lon="5.3908623"><ele>1081.0</ele><time>2026-04-18T16:19:58.433Z</time></trkpt><trkpt lat="44.8827268" lon="5.3908151"><ele>1081.6</ele><time>2026-04-18T16:19:59.433Z</time></trkpt><trkpt lat="44.8828412" lon="5.3907684"><ele>1082.1999999999998</ele><time>2026-04-18T16:20:00.432Z</time></trkpt><trkpt lat="44.8829534" lon="5.3907265"><ele>1082.8000000000002</ele><time>2026-04-18T16:20:01.433Z</time></trkpt><trkpt lat="44.8830534" lon="5.390692"><ele>1083.4</ele><time>2026-04-18T16:20:02.433Z</time></trkpt><trkpt lat="44.8831445" lon="5.3906655"><ele>1084.0</ele><time>2026-04-18T16:20:03.433Z</time></trkpt><trkpt lat="44.8832236" lon="5.3906463"><ele>1084.0</ele><time>2026-04-18T16:20:04.433Z</time></trkpt><trkpt lat="44.8832896" lon="5.3906353"><ele>1084.0</ele><time>2026-04-18T16:20:05.432Z</time></trkpt><trkpt lat="44.8833897" lon="5.3906096"><ele>1084.0</ele><time>2026-04-18T16:20:07.433Z</time></trkpt><trkpt lat="44.8835044" lon="5.3905573"><ele>1084.0</ele><time>2026-04-18T16:20:09.433Z</time></trkpt><trkpt lat="44.8835907" lon="5.3904958"><ele>1084.0</ele><time>2026-04-18T16:20:10.433Z</time></trkpt><trkpt lat="44.8836951" lon="5.3904067"><ele>1082.0</ele><time>2026-04-18T16:20:11.432Z</time></trkpt><trkpt lat="44.8838112" lon="5.3902891"><ele>1080.0</ele><time>2026-04-18T16:20:12.433Z</time></trkpt><trkpt lat="44.883943" lon="5.3901451"><ele>1078.0</ele><time>2026-04-18T16:20:13.433Z</time></trkpt><trkpt lat="44.884087" lon="5.3899954"><ele>1078.0</ele><time>2026-04-18T16:20:14.433Z</time></trkpt><trkpt lat="44.8842442" lon="5.3898303"><ele>1078.0</ele><time>2026-04-18T16:20:15.433Z</time></trkpt><trkpt lat="44.8844042" lon="5.3896567"><ele>1078.0</ele><time>2026-04-18T16:20:16.434Z</time></trkpt><trkpt lat="44.8845724" lon="5.3894644"><ele>1077.3333333333333</ele><time>2026-04-18T16:20:17.434Z</time></trkpt><trkpt lat="44.884741" lon="5.389275"><ele>1076.6666666666667</ele><time>2026-04-18T16:20:18.433Z</time></trkpt><trkpt lat="44.8849121" lon="5.3890796"><ele>1076.0</ele><time>2026-04-18T16:20:19.434Z</time></trkpt><trkpt lat="44.8850794" lon="5.3888801"><ele>1076.3333333333335</ele><time>2026-04-18T16:20:20.433Z</time></trkpt><trkpt lat="44.8852442" lon="5.388668"><ele>1076.6666666666667</ele><time>2026-04-18T16:20:21.433Z</time></trkpt><trkpt lat="44.8854112" lon="5.3884543"><ele>1077.0</ele><time>2026-04-18T16:20:22.433Z</time></trkpt><trkpt lat="44.8855767" lon="5.3882371"><ele>1077.0</ele><time>2026-04-18T16:20:23.433Z</time></trkpt><trkpt lat="44.8857441" lon="5.3880207"><ele>1077.0</ele><time>2026-04-18T16:20:24.433Z</time></trkpt><trkpt lat="44.885911" lon="5.3877999"><ele>1075.5</ele><time>2026-04-18T16:20:25.433Z</time></trkpt><trkpt lat="44.8860805" lon="5.3875752"><ele>1074.0</ele><time>2026-04-18T16:20:26.433Z</time></trkpt><trkpt lat="44.8862533" lon="5.3873497"><ele>1074.5</ele><time>2026-04-18T16:20:27.433Z</time></trkpt><trkpt lat="44.8864267" lon="5.3871238"><ele>1075.0</ele><time>2026-04-18T16:20:28.432Z</time></trkpt><trkpt lat="44.8866008" lon="5.3868927"><ele>1073.0</ele><time>2026-04-18T16:20:29.433Z</time></trkpt><trkpt lat="44.8867743" lon="5.3866603"><ele>1071.0</ele><time>2026-04-18T16:20:30.433Z</time></trkpt><trkpt lat="44.8869432" lon="5.3864485"><ele>1072.0</ele><time>2026-04-18T16:20:31.433Z</time></trkpt><trkpt lat="44.8871068" lon="5.3862407"><ele>1073.0</ele><time>2026-04-18T16:20:32.433Z</time></trkpt><trkpt lat="44.8872684" lon="5.3860424"><ele>1074.0</ele><time>2026-04-18T16:20:33.433Z</time></trkpt><trkpt lat="44.8874309" lon="5.3858613"><ele>1073.6666666666667</ele><time>2026-04-18T16:20:34.433Z</time></trkpt><trkpt lat="44.8875972" lon="5.3857036"><ele>1073.3333333333335</ele><time>2026-04-18T16:20:35.433Z</time></trkpt><trkpt lat="44.8877761" lon="5.3855673"><ele>1073.0</ele><time>2026-04-18T16:20:36.432Z</time></trkpt><trkpt lat="44.8879611" lon="5.3854431"><ele>1073.0</ele><time>2026-04-18T16:20:37.433Z</time></trkpt><trkpt lat="44.8881588" lon="5.3853252"><ele>1073.0</ele><time>2026-04-18T16:20:38.433Z</time></trkpt><trkpt lat="44.8883627" lon="5.385213"><ele>1073.0</ele><time>2026-04-18T16:20:39.433Z</time></trkpt><trkpt lat="44.8885477" lon="5.3851147"><ele>1072.3333333333335</ele><time>2026-04-18T16:20:40.433Z</time></trkpt><trkpt lat="44.8887302" lon="5.3850162"><ele>1071.6666666666667</ele><time>2026-04-18T16:20:41.433Z</time></trkpt><trkpt lat="44.888908" lon="5.3849114"><ele>1071.0</ele><time>2026-04-18T16:20:42.433Z</time></trkpt><trkpt lat="44.8890838" lon="5.3847922"><ele>1071.0</ele><time>2026-04-18T16:20:43.433Z</time></trkpt><trkpt lat="44.8892555" lon="5.3846477"><ele>1071.0</ele><time>2026-04-18T16:20:44.433Z</time></trkpt><trkpt lat="44.8894224" lon="5.3844929"><ele>1071.0</ele><time>2026-04-18T16:20:45.433Z</time></trkpt><trkpt lat="44.8895718" lon="5.3843452"><ele>1071.0</ele><time>2026-04-18T16:20:46.433Z</time></trkpt><trkpt lat="44.8897122" lon="5.3841951"><ele>1071.0</ele><time>2026-04-18T16:20:47.433Z</time></trkpt><trkpt lat="44.8898283" lon="5.3840174"><ele>1071.0</ele><time>2026-04-18T16:20:48.433Z</time></trkpt><trkpt lat="44.8899303" lon="5.3838104"><ele>1072.0</ele><time>2026-04-18T16:20:49.433Z</time></trkpt><trkpt lat="44.8900277" lon="5.3835869"><ele>1073.0</ele><time>2026-04-18T16:20:50.433Z</time></trkpt><trkpt lat="44.8901286" lon="5.3833447"><ele>1074.0</ele><time>2026-04-18T16:20:51.433Z</time></trkpt><trkpt lat="44.8902366" lon="5.3830934"><ele>1072.3333333333333</ele><time>2026-04-18T16:20:52.433Z</time></trkpt><trkpt lat="44.8903475" lon="5.3828262"><ele>1070.6666666666665</ele><time>2026-04-18T16:20:53.433Z</time></trkpt><trkpt lat="44.8904638" lon="5.3825494"><ele>1069.0</ele><time>2026-04-18T16:20:54.433Z</time></trkpt><trkpt lat="44.8905849" lon="5.3822673"><ele>1069.0</ele><time>2026-04-18T16:20:55.433Z</time></trkpt><trkpt lat="44.8907005" lon="5.3820017"><ele>1069.0</ele><time>2026-04-18T16:20:56.432Z</time></trkpt><trkpt lat="44.8908119" lon="5.3817354"><ele>1069.0</ele><time>2026-04-18T16:20:57.433Z</time></trkpt><trkpt lat="44.8909202" lon="5.3814787"><ele>1068.0</ele><time>2026-04-18T16:20:58.433Z</time></trkpt><trkpt lat="44.8910232" lon="5.3812397"><ele>1067.0</ele><time>2026-04-18T16:20:59.433Z</time></trkpt><trkpt lat="44.8911235" lon="5.3810202"><ele>1066.0</ele><time>2026-04-18T16:21:00.433Z</time></trkpt><trkpt lat="44.8912137" lon="5.3808279"><ele>1066.0</ele><time>2026-04-18T16:21:01.433Z</time></trkpt><trkpt lat="44.8912887" lon="5.3806544"><ele>1066.0</ele><time>2026-04-18T16:21:02.433Z</time></trkpt><trkpt lat="44.8913422" lon="5.3804925"><ele>1066.0</ele><time>2026-04-18T16:21:03.432Z</time></trkpt><trkpt lat="44.8913704" lon="5.3803073"><ele>1066.0</ele><time>2026-04-18T16:21:04.433Z</time></trkpt><trkpt lat="44.8913817" lon="5.380114"><ele>1065.75</ele><time>2026-04-18T16:21:05.433Z</time></trkpt><trkpt lat="44.8913892" lon="5.379913"><ele>1065.5</ele><time>2026-04-18T16:21:06.432Z</time></trkpt><trkpt lat="44.8913962" lon="5.379702"><ele>1065.25</ele><time>2026-04-18T16:21:07.433Z</time></trkpt><trkpt lat="44.8914159" lon="5.3794935"><ele>1065.0</ele><time>2026-04-18T16:21:08.433Z</time></trkpt><trkpt lat="44.8914399" lon="5.3792887"><ele>1064.75</ele><time>2026-04-18T16:21:09.434Z</time></trkpt><trkpt lat="44.8914788" lon="5.3790962"><ele>1064.5</ele><time>2026-04-18T16:21:10.433Z</time></trkpt><trkpt lat="44.8915407" lon="5.3789101"><ele>1064.25</ele><time>2026-04-18T16:21:11.433Z</time></trkpt><trkpt lat="44.8916262" lon="5.3787345"><ele>1064.0</ele><time>2026-04-18T16:21:12.433Z</time></trkpt><trkpt lat="44.8917215" lon="5.3785813"><ele>1061.6666666666667</ele><time>2026-04-18T16:21:13.433Z</time></trkpt><trkpt lat="44.8918146" lon="5.3784203"><ele>1059.3333333333333</ele><time>2026-04-18T16:21:14.433Z</time></trkpt><trkpt lat="44.8919023" lon="5.3782465"><ele>1057.0</ele><time>2026-04-18T16:21:15.433Z</time></trkpt><trkpt lat="44.8919842" lon="5.3780588"><ele>1056.3333333333333</ele><time>2026-04-18T16:21:16.433Z</time></trkpt><trkpt lat="44.8920406" lon="5.3778492"><ele>1055.6666666666667</ele><time>2026-04-18T16:21:17.433Z</time></trkpt><trkpt lat="44.8920906" lon="5.3776251"><ele>1055.0</ele><time>2026-04-18T16:21:18.433Z</time></trkpt><trkpt lat="44.8921004" lon="5.3773784"><ele>1055.0</ele><time>2026-04-18T16:21:19.433Z</time></trkpt><trkpt lat="44.8921227" lon="5.3771318"><ele>1055.0</ele><time>2026-04-18T16:21:20.432Z</time></trkpt><trkpt lat="44.8921889" lon="5.3768993"><ele>1055.0</ele><time>2026-04-18T16:21:21.433Z</time></trkpt><trkpt lat="44.8922802" lon="5.3766618"><ele>1055.0</ele><time>2026-04-18T16:21:22.432Z</time></trkpt><trkpt lat="44.8923941" lon="5.3764293"><ele>1055.0</ele><time>2026-04-18T16:21:23.433Z</time></trkpt><trkpt lat="44.8925066" lon="5.3762143"><ele>1055.0</ele><time>2026-04-18T16:21:24.433Z</time></trkpt><trkpt lat="44.892612" lon="5.3760179"><ele>1055.0</ele><time>2026-04-18T16:21:25.433Z</time></trkpt><trkpt lat="44.8927146" lon="5.3758345"><ele>1055.0</ele><time>2026-04-18T16:21:26.433Z</time></trkpt><trkpt lat="44.8928132" lon="5.3756577"><ele>1055.0</ele><time>2026-04-18T16:21:27.432Z</time></trkpt><trkpt lat="44.8929101" lon="5.3754824"><ele>1055.6666666666667</ele><time>2026-04-18T16:21:28.433Z</time></trkpt><trkpt lat="44.8930082" lon="5.3753095"><ele>1056.3333333333333</ele><time>2026-04-18T16:21:29.433Z</time></trkpt><trkpt lat="44.8931037" lon="5.3751393"><ele>1057.0</ele><time>2026-04-18T16:21:30.433Z</time></trkpt><trkpt lat="44.8931994" lon="5.3749685"><ele>1057.0</ele><time>2026-04-18T16:21:31.432Z</time></trkpt><trkpt lat="44.8932933" lon="5.3747961"><ele>1057.0</ele><time>2026-04-18T16:21:32.432Z</time></trkpt><trkpt lat="44.8933863" lon="5.3746243"><ele>1057.0</ele><time>2026-04-18T16:21:33.433Z</time></trkpt><trkpt lat="44.8934788" lon="5.3744517"><ele>1057.5</ele><time>2026-04-18T16:21:34.433Z</time></trkpt><trkpt lat="44.8935686" lon="5.3742885"><ele>1058.0</ele><time>2026-04-18T16:21:35.432Z</time></trkpt><trkpt lat="44.8936529" lon="5.3741332"><ele>1058.5</ele><time>2026-04-18T16:21:36.433Z</time></trkpt><trkpt lat="44.8937402" lon="5.3739849"><ele>1059.0</ele><time>2026-04-18T16:21:37.432Z</time></trkpt><trkpt lat="44.8937997" lon="5.3738622"><ele>1058.75</ele><time>2026-04-18T16:21:38.433Z</time></trkpt><trkpt lat="44.8938749" lon="5.3737313"><ele>1058.5</ele><time>2026-04-18T16:21:39.433Z</time></trkpt><trkpt lat="44.8939438" lon="5.3736027"><ele>1058.25</ele><time>2026-04-18T16:21:40.433Z</time></trkpt><trkpt lat="44.8940105" lon="5.3734766"><ele>1058.0</ele><time>2026-04-18T16:21:41.433Z</time></trkpt><trkpt lat="44.8940609" lon="5.3733393"><ele>1058.0</ele><time>2026-04-18T16:21:42.432Z</time></trkpt><trkpt lat="44.8941202" lon="5.3732165"><ele>1058.0</ele><time>2026-04-18T16:21:43.433Z</time></trkpt><trkpt lat="44.8941897" lon="5.3731033"><ele>1058.0</ele><time>2026-04-18T16:21:44.433Z</time></trkpt><trkpt lat="44.8942657" lon="5.3729949"><ele>1058.0</ele><time>2026-04-18T16:21:45.433Z</time></trkpt><trkpt lat="44.8943379" lon="5.3728779"><ele>1058.0</ele><time>2026-04-18T16:21:46.433Z</time></trkpt><trkpt lat="44.8944066" lon="5.3727557"><ele>1058.25</ele><time>2026-04-18T16:21:47.433Z</time></trkpt><trkpt lat="44.8944709" lon="5.3726265"><ele>1058.5</ele><time>2026-04-18T16:21:48.432Z</time></trkpt><trkpt lat="44.8945399" lon="5.3725027"><ele>1058.75</ele><time>2026-04-18T16:21:49.433Z</time></trkpt><trkpt lat="44.8946095" lon="5.3723733"><ele>1059.0</ele><time>2026-04-18T16:21:50.432Z</time></trkpt><trkpt lat="44.8946749" lon="5.3722391"><ele>1058.5</ele><time>2026-04-18T16:21:51.433Z</time></trkpt><trkpt lat="44.894745" lon="5.3721074"><ele>1058.0</ele><time>2026-04-18T16:21:52.433Z</time></trkpt><trkpt lat="44.8948126" lon="5.3719743"><ele>1057.5</ele><time>2026-04-18T16:21:53.433Z</time></trkpt><trkpt lat="44.894882" lon="5.3718441"><ele>1057.0</ele><time>2026-04-18T16:21:54.433Z</time></trkpt><trkpt lat="44.8949536" lon="5.3717131"><ele>1057.0</ele><time>2026-04-18T16:21:55.432Z</time></trkpt><trkpt lat="44.8950217" lon="5.3715864"><ele>1057.0</ele><time>2026-04-18T16:21:56.433Z</time></trkpt><trkpt lat="44.8950919" lon="5.3714629"><ele>1057.0</ele><time>2026-04-18T16:21:57.433Z</time></trkpt><trkpt lat="44.8951541" lon="5.3713398"><ele>1057.0</ele><time>2026-04-18T16:21:58.432Z</time></trkpt><trkpt lat="44.8952182" lon="5.3712199"><ele>1057.0</ele><time>2026-04-18T16:21:59.432Z</time></trkpt><trkpt lat="44.8952761" lon="5.3711097"><ele>1057.1666666666665</ele><time>2026-04-18T16:22:00.433Z</time></trkpt><trkpt lat="44.8953298" lon="5.3710041"><ele>1057.3333333333333</ele><time>2026-04-18T16:22:01.433Z</time></trkpt><trkpt lat="44.895385" lon="5.3709174"><ele>1057.5</ele><time>2026-04-18T16:22:02.433Z</time></trkpt><trkpt lat="44.8954374" lon="5.3708517"><ele>1057.6666666666667</ele><time>2026-04-18T16:22:03.433Z</time></trkpt><trkpt lat="44.8955073" lon="5.3708193"><ele>1057.8333333333335</ele><time>2026-04-18T16:22:04.433Z</time></trkpt><trkpt lat="44.895581" lon="5.3707948"><ele>1058.0</ele><time>2026-04-18T16:22:05.433Z</time></trkpt><trkpt lat="44.8956693" lon="5.3707776"><ele>1058.0</ele><time>2026-04-18T16:22:06.432Z</time></trkpt><trkpt lat="44.8957573" lon="5.3707649"><ele>1058.0</ele><time>2026-04-18T16:22:07.433Z</time></trkpt><trkpt lat="44.8958428" lon="5.3707506"><ele>1058.0</ele><time>2026-04-18T16:22:08.432Z</time></trkpt><trkpt lat="44.8959213" lon="5.3707291"><ele>1058.0</ele><time>2026-04-18T16:22:09.433Z</time></trkpt><trkpt lat="44.8959959" lon="5.3706725"><ele>1058.0</ele><time>2026-04-18T16:22:10.433Z</time></trkpt><trkpt lat="44.8960618" lon="5.370591"><ele>1058.0</ele><time>2026-04-18T16:22:11.433Z</time></trkpt><trkpt lat="44.8961189" lon="5.3704843"><ele>1054.8</ele><time>2026-04-18T16:22:12.433Z</time></trkpt><trkpt lat="44.896167" lon="5.3703556"><ele>1051.6</ele><time>2026-04-18T16:22:13.433Z</time></trkpt><trkpt lat="44.8962098" lon="5.3702141"><ele>1048.4</ele><time>2026-04-18T16:22:14.433Z</time></trkpt><trkpt lat="44.8962448" lon="5.3700691"><ele>1045.2</ele><time>2026-04-18T16:22:15.433Z</time></trkpt><trkpt lat="44.8962789" lon="5.3699149"><ele>1042.0</ele><time>2026-04-18T16:22:16.433Z</time></trkpt><trkpt lat="44.8963246" lon="5.3697637"><ele>1042.2</ele><time>2026-04-18T16:22:17.432Z</time></trkpt><trkpt lat="44.8963949" lon="5.369638"><ele>1042.4</ele><time>2026-04-18T16:22:18.433Z</time></trkpt><trkpt lat="44.896474" lon="5.3695306"><ele>1042.6</ele><time>2026-04-18T16:22:19.433Z</time></trkpt><trkpt lat="44.8965546" lon="5.3694392"><ele>1042.8</ele><time>2026-04-18T16:22:20.433Z</time></trkpt><trkpt lat="44.8966457" lon="5.369362"><ele>1043.0</ele><time>2026-04-18T16:22:21.433Z</time></trkpt><trkpt lat="44.8967488" lon="5.3692968"><ele>1043.25</ele><time>2026-04-18T16:22:22.432Z</time></trkpt><trkpt lat="44.8968582" lon="5.3692402"><ele>1043.5</ele><time>2026-04-18T16:22:23.432Z</time></trkpt><trkpt lat="44.8969741" lon="5.3691928"><ele>1043.75</ele><time>2026-04-18T16:22:24.433Z</time></trkpt><trkpt lat="44.8970947" lon="5.369146"><ele>1044.0</ele><time>2026-04-18T16:22:25.432Z</time></trkpt><trkpt lat="44.8972154" lon="5.3691013"><ele>1044.0</ele><time>2026-04-18T16:22:26.433Z</time></trkpt><trkpt lat="44.8973344" lon="5.3690695"><ele>1044.0</ele><time>2026-04-18T16:22:27.433Z</time></trkpt><trkpt lat="44.897455" lon="5.3690418"><ele>1044.0</ele><time>2026-04-18T16:22:28.433Z</time></trkpt><trkpt lat="44.8975802" lon="5.3690161"><ele>1044.0</ele><time>2026-04-18T16:22:29.434Z</time></trkpt><trkpt lat="44.8977051" lon="5.3689925"><ele>1044.0</ele><time>2026-04-18T16:22:30.433Z</time></trkpt><trkpt lat="44.8978349" lon="5.3689766"><ele>1044.0</ele><time>2026-04-18T16:22:31.433Z</time></trkpt><trkpt lat="44.8979769" lon="5.3689809"><ele>1044.0</ele><time>2026-04-18T16:22:32.433Z</time></trkpt><trkpt lat="44.8981239" lon="5.3690054"><ele>1044.0</ele><time>2026-04-18T16:22:33.433Z</time></trkpt><trkpt lat="44.8982838" lon="5.3690433"><ele>1044.6666666666667</ele><time>2026-04-18T16:22:34.433Z</time></trkpt><trkpt lat="44.898445" lon="5.3690957"><ele>1045.3333333333335</ele><time>2026-04-18T16:22:35.433Z</time></trkpt><trkpt lat="44.8986154" lon="5.3691655"><ele>1046.0</ele><time>2026-04-18T16:22:36.432Z</time></trkpt><trkpt lat="44.8987824" lon="5.3692601"><ele>1046.0</ele><time>2026-04-18T16:22:37.433Z</time></trkpt><trkpt lat="44.8989536" lon="5.3693698"><ele>1046.0</ele><time>2026-04-18T16:22:38.432Z</time></trkpt><trkpt lat="44.8991255" lon="5.3694905"><ele>1046.0</ele><time>2026-04-18T16:22:39.433Z</time></trkpt><trkpt lat="44.899294" lon="5.369618"><ele>1046.6666666666667</ele><time>2026-04-18T16:22:40.433Z</time></trkpt><trkpt lat="44.8994593" lon="5.3697471"><ele>1047.3333333333333</ele><time>2026-04-18T16:22:41.433Z</time></trkpt><trkpt lat="44.8996267" lon="5.369873"><ele>1048.0</ele><time>2026-04-18T16:22:42.433Z</time></trkpt><trkpt lat="44.899783" lon="5.369996"><ele>1048.0</ele><time>2026-04-18T16:22:43.433Z</time></trkpt><trkpt lat="44.8999207" lon="5.3701166"><ele>1048.0</ele><time>2026-04-18T16:22:44.433Z</time></trkpt><trkpt lat="44.9000433" lon="5.3702371"><ele>1048.0</ele><time>2026-04-18T16:22:45.432Z</time></trkpt><trkpt lat="44.9001545" lon="5.3703656"><ele>1049.0</ele><time>2026-04-18T16:22:46.433Z</time></trkpt><trkpt lat="44.9002658" lon="5.3705006"><ele>1050.0</ele><time>2026-04-18T16:22:47.433Z</time></trkpt><trkpt lat="44.9003699" lon="5.3706263"><ele>1051.0</ele><time>2026-04-18T16:22:48.433Z</time></trkpt><trkpt lat="44.9004628" lon="5.3707441"><ele>1052.0</ele><time>2026-04-18T16:22:49.433Z</time></trkpt><trkpt lat="44.900547" lon="5.3708525"><ele>1052.0</ele><time>2026-04-18T16:22:50.433Z</time></trkpt><trkpt lat="44.9006294" lon="5.3709585"><ele>1052.0</ele><time>2026-04-18T16:22:51.433Z</time></trkpt><trkpt lat="44.9007114" lon="5.3710622"><ele>1052.0</ele><time>2026-04-18T16:22:52.433Z</time></trkpt><trkpt lat="44.9008047" lon="5.3711593"><ele>1052.0</ele><time>2026-04-18T16:22:53.432Z</time></trkpt><trkpt lat="44.9008941" lon="5.3712508"><ele>1052.0</ele><time>2026-04-18T16:22:54.433Z</time></trkpt><trkpt lat="44.9009918" lon="5.3713398"><ele>1053.0</ele><time>2026-04-18T16:22:55.433Z</time></trkpt><trkpt lat="44.901109" lon="5.3714132"><ele>1054.0</ele><time>2026-04-18T16:22:56.433Z</time></trkpt><trkpt lat="44.9012405" lon="5.3714717"><ele>1055.0</ele><time>2026-04-18T16:22:57.433Z</time></trkpt><trkpt lat="44.9013892" lon="5.3715159"><ele>1056.0</ele><time>2026-04-18T16:22:58.433Z</time></trkpt><trkpt lat="44.9015443" lon="5.3715364"><ele>1056.0</ele><time>2026-04-18T16:22:59.433Z</time></trkpt><trkpt lat="44.9017069" lon="5.3715368"><ele>1056.0</ele><time>2026-04-18T16:23:00.433Z</time></trkpt><trkpt lat="44.9018757" lon="5.3715425"><ele>1056.0</ele><time>2026-04-18T16:23:01.433Z</time></trkpt><trkpt lat="44.9020433" lon="5.3715552"><ele>1057.6666666666667</ele><time>2026-04-18T16:23:02.433Z</time></trkpt><trkpt lat="44.9022164" lon="5.3715711"><ele>1059.3333333333335</ele><time>2026-04-18T16:23:03.433Z</time></trkpt><trkpt lat="44.9023917" lon="5.3715826"><ele>1061.0</ele><time>2026-04-18T16:23:04.433Z</time></trkpt><trkpt lat="44.9025652" lon="5.3715896"><ele>1061.5</ele><time>2026-04-18T16:23:05.433Z</time></trkpt><trkpt lat="44.9027265" lon="5.3715936"><ele>1062.0</ele><time>2026-04-18T16:23:06.433Z</time></trkpt><trkpt lat="44.9028665" lon="5.3715967"><ele>1062.5</ele><time>2026-04-18T16:23:07.433Z</time></trkpt><trkpt lat="44.903002" lon="5.3716095"><ele>1063.0</ele><time>2026-04-18T16:23:08.433Z</time></trkpt><trkpt lat="44.9031358" lon="5.37162"><ele>1063.0</ele><time>2026-04-18T16:23:09.433Z</time></trkpt><trkpt lat="44.9032552" lon="5.3716293"><ele>1063.0</ele><time>2026-04-18T16:23:10.433Z</time></trkpt><trkpt lat="44.9033611" lon="5.3716392"><ele>1063.0</ele><time>2026-04-18T16:23:11.432Z</time></trkpt><trkpt lat="44.9034489" lon="5.3716503"><ele>1063.0</ele><time>2026-04-18T16:23:12.433Z</time></trkpt><trkpt lat="44.9035331" lon="5.3716683"><ele>1063.0</ele><time>2026-04-18T16:23:13.433Z</time></trkpt><trkpt lat="44.9036001" lon="5.3716748"><ele>1062.8</ele><time>2026-04-18T16:23:14.433Z</time></trkpt><trkpt lat="44.9036685" lon="5.3716396"><ele>1062.6</ele><time>2026-04-18T16:23:15.433Z</time></trkpt><trkpt lat="44.9037249" lon="5.3715518"><ele>1062.4</ele><time>2026-04-18T16:23:16.433Z</time></trkpt><trkpt lat="44.9037837" lon="5.371435"><ele>1062.2</ele><time>2026-04-18T16:23:17.433Z</time></trkpt><trkpt lat="44.9038584" lon="5.3712984"><ele>1062.0</ele><time>2026-04-18T16:23:18.433Z</time></trkpt><trkpt lat="44.9039546" lon="5.3711591"><ele>1064.3333333333333</ele><time>2026-04-18T16:23:19.432Z</time></trkpt><trkpt lat="44.9040682" lon="5.3710027"><ele>1066.6666666666665</ele><time>2026-04-18T16:23:20.433Z</time></trkpt><trkpt lat="44.9041938" lon="5.3708316"><ele>1069.0</ele><time>2026-04-18T16:23:21.433Z</time></trkpt><trkpt lat="44.904325" lon="5.370655"><ele>1070.6666666666665</ele><time>2026-04-18T16:23:22.433Z</time></trkpt><trkpt lat="44.9044609" lon="5.3704585"><ele>1072.3333333333333</ele><time>2026-04-18T16:23:23.433Z</time></trkpt><trkpt lat="44.9046044" lon="5.370257"><ele>1074.0</ele><time>2026-04-18T16:23:24.433Z</time></trkpt><trkpt lat="44.9047463" lon="5.3700532"><ele>1074.0</ele><time>2026-04-18T16:23:25.432Z</time></trkpt><trkpt lat="44.9048969" lon="5.3698359"><ele>1074.0</ele><time>2026-04-18T16:23:26.432Z</time></trkpt><trkpt lat="44.9050545" lon="5.3696154"><ele>1074.0</ele><time>2026-04-18T16:23:27.433Z</time></trkpt><trkpt lat="44.9052106" lon="5.3693885"><ele>1076.0</ele><time>2026-04-18T16:23:28.433Z</time></trkpt><trkpt lat="44.9053682" lon="5.3691703"><ele>1078.0</ele><time>2026-04-18T16:23:29.432Z</time></trkpt><trkpt lat="44.905527" lon="5.3689472"><ele>1080.0</ele><time>2026-04-18T16:23:30.432Z</time></trkpt><trkpt lat="44.9056814" lon="5.3687288"><ele>1083.3333333333333</ele><time>2026-04-18T16:23:31.432Z</time></trkpt><trkpt lat="44.9058317" lon="5.3685145"><ele>1086.6666666666665</ele><time>2026-04-18T16:23:32.432Z</time></trkpt><trkpt lat="44.9059823" lon="5.3683061"><ele>1090.0</ele><time>2026-04-18T16:23:33.433Z</time></trkpt><trkpt lat="44.9061183" lon="5.3681178"><ele>1093.6666666666665</ele><time>2026-04-18T16:23:34.432Z</time></trkpt><trkpt lat="44.9062569" lon="5.3679325"><ele>1097.3333333333333</ele><time>2026-04-18T16:23:35.433Z</time></trkpt><trkpt lat="44.9063984" lon="5.3677496"><ele>1101.0</ele><time>2026-04-18T16:23:36.433Z</time></trkpt><trkpt lat="44.9065374" lon="5.3675702"><ele>1101.0</ele><time>2026-04-18T16:23:37.432Z</time></trkpt><trkpt lat="44.9066667" lon="5.3674083"><ele>1101.0</ele><time>2026-04-18T16:23:38.433Z</time></trkpt><trkpt lat="44.9067809" lon="5.3672613"><ele>1101.0</ele><time>2026-04-18T16:23:39.433Z</time></trkpt><trkpt lat="44.9068914" lon="5.367123"><ele>1105.25</ele><time>2026-04-18T16:23:40.433Z</time></trkpt><trkpt lat="44.9070107" lon="5.3670073"><ele>1109.5</ele><time>2026-04-18T16:23:41.432Z</time></trkpt><trkpt lat="44.9071454" lon="5.3669321"><ele>1113.75</ele><time>2026-04-18T16:23:42.433Z</time></trkpt><trkpt lat="44.9072808" lon="5.366901"><ele>1118.0</ele><time>2026-04-18T16:23:43.433Z</time></trkpt><trkpt lat="44.9074147" lon="5.3669403"><ele>1118.0</ele><time>2026-04-18T16:23:44.433Z</time></trkpt><trkpt lat="44.9075357" lon="5.367052"><ele>1118.0</ele><time>2026-04-18T16:23:45.433Z</time></trkpt><trkpt lat="44.9076594" lon="5.3671744"><ele>1118.0</ele><time>2026-04-18T16:23:46.433Z</time></trkpt><trkpt lat="44.9077869" lon="5.3673042"><ele>1119.0</ele><time>2026-04-18T16:23:47.433Z</time></trkpt><trkpt lat="44.9079254" lon="5.367436"><ele>1120.0</ele><time>2026-04-18T16:23:48.433Z</time></trkpt><trkpt lat="44.9080676" lon="5.3675808"><ele>1121.0</ele><time>2026-04-18T16:23:49.433Z</time></trkpt><trkpt lat="44.9082115" lon="5.367732"><ele>1121.0</ele><time>2026-04-18T16:23:50.433Z</time></trkpt><trkpt lat="44.9083444" lon="5.3678779"><ele>1121.0</ele><time>2026-04-18T16:23:51.433Z</time></trkpt><trkpt lat="44.9084612" lon="5.3680193"><ele>1121.0</ele><time>2026-04-18T16:23:52.433Z</time></trkpt><trkpt lat="44.9085824" lon="5.3681397"><ele>1121.6666666666667</ele><time>2026-04-18T16:23:53.432Z</time></trkpt><trkpt lat="44.9087186" lon="5.3682161"><ele>1122.3333333333333</ele><time>2026-04-18T16:23:54.433Z</time></trkpt><trkpt lat="44.9088657" lon="5.3682607"><ele>1123.0</ele><time>2026-04-18T16:23:55.434Z</time></trkpt><trkpt lat="44.9090204" lon="5.3682606"><ele>1123.0</ele><time>2026-04-18T16:23:56.433Z</time></trkpt><trkpt lat="44.9091899" lon="5.3682533"><ele>1123.0</ele><time>2026-04-18T16:23:57.433Z</time></trkpt><trkpt lat="44.9093722" lon="5.3682574"><ele>1123.0</ele><time>2026-04-18T16:23:58.432Z</time></trkpt><trkpt lat="44.9095651" lon="5.3682728"><ele>1125.6666666666665</ele><time>2026-04-18T16:23:59.433Z</time></trkpt><trkpt lat="44.9097592" lon="5.3683026"><ele>1128.3333333333333</ele><time>2026-04-18T16:24:00.433Z</time></trkpt><trkpt lat="44.9099487" lon="5.3683699"><ele>1131.0</ele><time>2026-04-18T16:24:01.433Z</time></trkpt><trkpt lat="44.9101398" lon="5.3684656"><ele>1136.3333333333333</ele><time>2026-04-18T16:24:02.433Z</time></trkpt><trkpt lat="44.9103363" lon="5.3685713"><ele>1141.6666666666665</ele><time>2026-04-18T16:24:03.433Z</time></trkpt><trkpt lat="44.9105086" lon="5.3686624"><ele>1147.0</ele><time>2026-04-18T16:24:04.432Z</time></trkpt><trkpt lat="44.9106772" lon="5.3687366"><ele>1147.0</ele><time>2026-04-18T16:24:05.433Z</time></trkpt><trkpt lat="44.91085" lon="5.3687851"><ele>1147.0</ele><time>2026-04-18T16:24:06.433Z</time></trkpt><trkpt lat="44.9110394" lon="5.3687922"><ele>1147.0</ele><time>2026-04-18T16:24:07.433Z</time></trkpt><trkpt lat="44.9112255" lon="5.3688128"><ele>1146.3333333333333</ele><time>2026-04-18T16:24:08.433Z</time></trkpt><trkpt lat="44.9114099" lon="5.3688641"><ele>1145.6666666666667</ele><time>2026-04-18T16:24:09.433Z</time></trkpt><trkpt lat="44.9115916" lon="5.368944"><ele>1145.0</ele><time>2026-04-18T16:24:10.433Z</time></trkpt><trkpt lat="44.9117509" lon="5.3690286"><ele>1153.0</ele><time>2026-04-18T16:24:11.433Z</time></trkpt><trkpt lat="44.9118959" lon="5.3691352"><ele>1161.0</ele><time>2026-04-18T16:24:12.433Z</time></trkpt><trkpt lat="44.9120299" lon="5.3692858"><ele>1169.0</ele><time>2026-04-18T16:24:13.433Z</time></trkpt><trkpt lat="44.9121473" lon="5.3694716"><ele>1169.0</ele><time>2026-04-18T16:24:14.433Z</time></trkpt><trkpt lat="44.9122456" lon="5.3696349"><ele>1169.0</ele><time>2026-04-18T16:24:15.433Z</time></trkpt><trkpt lat="44.9123445" lon="5.3697763"><ele>1169.0</ele><time>2026-04-18T16:24:16.433Z</time></trkpt><trkpt lat="44.9124512" lon="5.3698854"><ele>1169.0</ele><time>2026-04-18T16:24:17.433Z</time></trkpt><trkpt lat="44.912574" lon="5.3699676"><ele>1168.25</ele><time>2026-04-18T16:24:18.433Z</time></trkpt><trkpt lat="44.9127097" lon="5.3700264"><ele>1167.5</ele><time>2026-04-18T16:24:19.433Z</time></trkpt><trkpt lat="44.9128524" lon="5.370059"><ele>1166.75</ele><time>2026-04-18T16:24:20.433Z</time></trkpt><trkpt lat="44.9130002" lon="5.370062"><ele>1166.0</ele><time>2026-04-18T16:24:21.433Z</time></trkpt><trkpt lat="44.9131505" lon="5.3700143"><ele>1166.0</ele><time>2026-04-18T16:24:22.432Z</time></trkpt><trkpt lat="44.9133139" lon="5.3699434"><ele>1166.0</ele><time>2026-04-18T16:24:23.433Z</time></trkpt><trkpt lat="44.9134718" lon="5.3698709"><ele>1166.0</ele><time>2026-04-18T16:24:24.433Z</time></trkpt><trkpt lat="44.9136125" lon="5.369818"><ele>1170.3333333333335</ele><time>2026-04-18T16:24:25.433Z</time></trkpt><trkpt lat="44.9137674" lon="5.3697708"><ele>1174.6666666666667</ele><time>2026-04-18T16:24:26.433Z</time></trkpt><trkpt lat="44.9139397" lon="5.3697578"><ele>1179.0</ele><time>2026-04-18T16:24:27.433Z</time></trkpt><trkpt lat="44.9141038" lon="5.3697623"><ele>1188.3333333333333</ele><time>2026-04-18T16:24:28.433Z</time></trkpt><trkpt lat="44.9142729" lon="5.3699412"><ele>1197.6666666666665</ele><time>2026-04-18T16:24:29.432Z</time></trkpt><trkpt lat="44.9144456" lon="5.3700695"><ele>1207.0</ele><time>2026-04-18T16:24:30.433Z</time></trkpt><trkpt lat="44.9146123" lon="5.3702073"><ele>1207.0</ele><time>2026-04-18T16:24:31.432Z</time></trkpt><trkpt lat="44.9147757" lon="5.3703633"><ele>1207.0</ele><time>2026-04-18T16:24:32.433Z</time></trkpt><trkpt lat="44.914948" lon="5.3705231"><ele>1207.0</ele><time>2026-04-18T16:24:33.433Z</time></trkpt><trkpt lat="44.9151037" lon="5.3706549"><ele>1205.3333333333333</ele><time>2026-04-18T16:24:34.433Z</time></trkpt><trkpt lat="44.9152529" lon="5.3707735"><ele>1203.6666666666667</ele><time>2026-04-18T16:24:35.433Z</time></trkpt><trkpt lat="44.9154054" lon="5.3708794"><ele>1202.0</ele><time>2026-04-18T16:24:36.433Z</time></trkpt><trkpt lat="44.9155575" lon="5.3709673"><ele>1202.0</ele><time>2026-04-18T16:24:37.433Z</time></trkpt><trkpt lat="44.9157227" lon="5.3710332"><ele>1202.0</ele><time>2026-04-18T16:24:38.433Z</time></trkpt><trkpt lat="44.9158941" lon="5.3710925"><ele>1202.0</ele><time>2026-04-18T16:24:39.433Z</time></trkpt><trkpt lat="44.9160785" lon="5.3711448"><ele>1207.3333333333335</ele><time>2026-04-18T16:24:40.433Z</time></trkpt><trkpt lat="44.9162679" lon="5.3711904"><ele>1212.6666666666667</ele><time>2026-04-18T16:24:41.432Z</time></trkpt><trkpt lat="44.9164679" lon="5.3712224"><ele>1218.0</ele><time>2026-04-18T16:24:42.433Z</time></trkpt><trkpt lat="44.9166644" lon="5.3712568"><ele>1223.6666666666667</ele><time>2026-04-18T16:24:43.433Z</time></trkpt><trkpt lat="44.916846" lon="5.3713037"><ele>1229.3333333333335</ele><time>2026-04-18T16:24:44.433Z</time></trkpt><trkpt lat="44.9170269" lon="5.3713731"><ele>1235.0</ele><time>2026-04-18T16:24:45.433Z</time></trkpt><trkpt lat="44.9171958" lon="5.3714338"><ele>1224.3333333333335</ele><time>2026-04-18T16:24:46.433Z</time></trkpt><trkpt lat="44.9173587" lon="5.3714828"><ele>1213.6666666666667</ele><time>2026-04-18T16:24:47.433Z</time></trkpt><trkpt lat="44.9175189" lon="5.3715203"><ele>1203.0</ele><time>2026-04-18T16:24:48.433Z</time></trkpt><trkpt lat="44.9176601" lon="5.3715435"><ele>1203.0</ele><time>2026-04-18T16:24:49.433Z</time></trkpt><trkpt lat="44.9177784" lon="5.3715693"><ele>1203.0</ele><time>2026-04-18T16:24:50.433Z</time></trkpt><trkpt lat="44.9178939" lon="5.3715882"><ele>1203.0</ele><time>2026-04-18T16:24:51.433Z</time></trkpt><trkpt lat="44.9179894" lon="5.3716079"><ele>1203.0</ele><time>2026-04-18T16:24:52.433Z</time></trkpt><trkpt lat="44.9180644" lon="5.3716144"><ele>1203.0</ele><time>2026-04-18T16:24:53.433Z</time></trkpt><trkpt lat="44.9181332" lon="5.3715783"><ele>1203.0</ele><time>2026-04-18T16:24:54.433Z</time></trkpt><trkpt lat="44.9181708" lon="5.3714969"><ele>1203.0</ele><time>2026-04-18T16:24:55.432Z</time></trkpt><trkpt lat="44.9180942" lon="5.3713633"><ele>1203.0</ele><time>2026-04-18T16:24:57.432Z</time></trkpt><trkpt lat="44.9180191" lon="5.371351"><ele>1203.0</ele><time>2026-04-18T16:24:58.433Z</time></trkpt><trkpt lat="44.9179051" lon="5.3713604"><ele>1203.0</ele><time>2026-04-18T16:24:59.433Z</time></trkpt><trkpt lat="44.9177783" lon="5.3713641"><ele>1213.6666666666667</ele><time>2026-04-18T16:25:00.433Z</time></trkpt><trkpt lat="44.9176333" lon="5.3713333"><ele>1224.3333333333335</ele><time>2026-04-18T16:25:01.433Z</time></trkpt><trkpt lat="44.9174868" lon="5.3712697"><ele>1235.0</ele><time>2026-04-18T16:25:02.433Z</time></trkpt><trkpt lat="44.9173377" lon="5.3711679"><ele>1235.0</ele><time>2026-04-18T16:25:03.433Z</time></trkpt><trkpt lat="44.9171835" lon="5.3710442"><ele>1235.0</ele><time>2026-04-18T16:25:04.433Z</time></trkpt><trkpt lat="44.917041" lon="5.3709239"><ele>1235.0</ele><time>2026-04-18T16:25:05.433Z</time></trkpt><trkpt lat="44.9169059" lon="5.3708213"><ele>1235.0</ele><time>2026-04-18T16:25:06.433Z</time></trkpt><trkpt lat="44.9167659" lon="5.3707259"><ele>1235.0</ele><time>2026-04-18T16:25:07.433Z</time></trkpt><trkpt lat="44.9166267" lon="5.3706429"><ele>1235.0</ele><time>2026-04-18T16:25:08.434Z</time></trkpt><trkpt lat="44.9164826" lon="5.3705527"><ele>1242.0</ele><time>2026-04-18T16:25:09.432Z</time></trkpt><trkpt lat="44.9163384" lon="5.3704381"><ele>1249.0</ele><time>2026-04-18T16:25:10.432Z</time></trkpt><trkpt lat="44.9161879" lon="5.3703009"><ele>1256.0</ele><time>2026-04-18T16:25:11.433Z</time></trkpt><trkpt lat="44.9160313" lon="5.3701462"><ele>1259.0</ele><time>2026-04-18T16:25:12.433Z</time></trkpt><trkpt lat="44.9158785" lon="5.3699897"><ele>1262.0</ele><time>2026-04-18T16:25:13.433Z</time></trkpt><trkpt lat="44.9157327" lon="5.3698313"><ele>1265.0</ele><time>2026-04-18T16:25:14.433Z</time></trkpt><trkpt lat="44.9156038" lon="5.3696535"><ele>1265.0</ele><time>2026-04-18T16:25:15.433Z</time></trkpt><trkpt lat="44.9154856" lon="5.3694684"><ele>1265.0</ele><time>2026-04-18T16:25:16.433Z</time></trkpt><trkpt lat="44.9153575" lon="5.3692974"><ele>1265.0</ele><time>2026-04-18T16:25:17.433Z</time></trkpt><trkpt lat="44.9152172" lon="5.3691423"><ele>1266.3333333333335</ele><time>2026-04-18T16:25:18.433Z</time></trkpt><trkpt lat="44.9150691" lon="5.3689947"><ele>1267.6666666666667</ele><time>2026-04-18T16:25:19.433Z</time></trkpt><trkpt lat="44.9149245" lon="5.3688428"><ele>1269.0</ele><time>2026-04-18T16:25:20.433Z</time></trkpt><trkpt lat="44.9147816" lon="5.3686727"><ele>1269.0</ele><time>2026-04-18T16:25:21.433Z</time></trkpt><trkpt lat="44.9146293" lon="5.3685047"><ele>1269.0</ele><time>2026-04-18T16:25:22.433Z</time></trkpt><trkpt lat="44.9144789" lon="5.3683488"><ele>1269.0</ele><time>2026-04-18T16:25:23.432Z</time></trkpt><trkpt lat="44.9143461" lon="5.3681926"><ele>1270.0</ele><time>2026-04-18T16:25:24.433Z</time></trkpt><trkpt lat="44.9142044" lon="5.3680185"><ele>1271.0</ele><time>2026-04-18T16:25:25.433Z</time></trkpt><trkpt lat="44.9140671" lon="5.3678337"><ele>1272.0</ele><time>2026-04-18T16:25:26.433Z</time></trkpt><trkpt lat="44.9139374" lon="5.3676443"><ele>1272.0</ele><time>2026-04-18T16:25:27.433Z</time></trkpt><trkpt lat="44.9137995" lon="5.3674627"><ele>1272.0</ele><time>2026-04-18T16:25:28.433Z</time></trkpt><trkpt lat="44.9136442" lon="5.3673004"><ele>1272.0</ele><time>2026-04-18T16:25:29.432Z</time></trkpt><trkpt lat="44.9134884" lon="5.3671415"><ele>1273.0</ele><time>2026-04-18T16:25:30.433Z</time></trkpt><trkpt lat="44.9133226" lon="5.3669875"><ele>1274.0</ele><time>2026-04-18T16:25:31.433Z</time></trkpt><trkpt lat="44.9131496" lon="5.3668335"><ele>1275.0</ele><time>2026-04-18T16:25:32.433Z</time></trkpt><trkpt lat="44.9129872" lon="5.3666883"><ele>1275.0</ele><time>2026-04-18T16:25:33.433Z</time></trkpt><trkpt lat="44.9128397" lon="5.3665586"><ele>1275.0</ele><time>2026-04-18T16:25:34.433Z</time></trkpt><trkpt lat="44.912703" lon="5.3664464"><ele>1275.0</ele><time>2026-04-18T16:25:35.433Z</time></trkpt><trkpt lat="44.9125661" lon="5.3663328"><ele>1281.3333333333333</ele><time>2026-04-18T16:25:36.433Z</time></trkpt><trkpt lat="44.9124395" lon="5.3662101"><ele>1287.6666666666665</ele><time>2026-04-18T16:25:37.433Z</time></trkpt><trkpt lat="44.9123204" lon="5.3660626"><ele>1294.0</ele><time>2026-04-18T16:25:38.433Z</time></trkpt><trkpt lat="44.9121988" lon="5.3659107"><ele>1294.0</ele><time>2026-04-18T16:25:39.433Z</time></trkpt><trkpt lat="44.9120772" lon="5.3657811"><ele>1294.0</ele><time>2026-04-18T16:25:40.433Z</time></trkpt><trkpt lat="44.9119459" lon="5.3656696"><ele>1294.0</ele><time>2026-04-18T16:25:41.433Z</time></trkpt><trkpt lat="44.9118064" lon="5.3655698"><ele>1297.0</ele><time>2026-04-18T16:25:42.433Z</time></trkpt><trkpt lat="44.9116741" lon="5.3654668"><ele>1300.0</ele><time>2026-04-18T16:25:43.433Z</time></trkpt><trkpt lat="44.9115574" lon="5.3653401"><ele>1303.0</ele><time>2026-04-18T16:25:44.433Z</time></trkpt><trkpt lat="44.9114402" lon="5.365189"><ele>1303.0</ele><time>2026-04-18T16:25:45.432Z</time></trkpt><trkpt lat="44.9113166" lon="5.3650431"><ele>1303.0</ele><time>2026-04-18T16:25:46.433Z</time></trkpt><trkpt lat="44.9111858" lon="5.3648977"><ele>1303.0</ele><time>2026-04-18T16:25:47.433Z</time></trkpt><trkpt lat="44.9110486" lon="5.3647595"><ele>1306.0</ele><time>2026-04-18T16:25:48.433Z</time></trkpt><trkpt lat="44.9109004" lon="5.3646199"><ele>1309.0</ele><time>2026-04-18T16:25:49.433Z</time></trkpt><trkpt lat="44.9107516" lon="5.3644815"><ele>1312.0</ele><time>2026-04-18T16:25:50.433Z</time></trkpt><trkpt lat="44.9105929" lon="5.3643407"><ele>1312.0</ele><time>2026-04-18T16:25:51.432Z</time></trkpt><trkpt lat="44.9104277" lon="5.3642032"><ele>1312.0</ele><time>2026-04-18T16:25:52.433Z</time></trkpt><trkpt lat="44.910257" lon="5.3640647"><ele>1312.0</ele><time>2026-04-18T16:25:53.433Z</time></trkpt><trkpt lat="44.9100815" lon="5.3639242"><ele>1318.0</ele><time>2026-04-18T16:25:54.433Z</time></trkpt><trkpt lat="44.9098947" lon="5.3637783"><ele>1324.0</ele><time>2026-04-18T16:25:55.433Z</time></trkpt><trkpt lat="44.9097024" lon="5.3636323"><ele>1330.0</ele><time>2026-04-18T16:25:56.433Z</time></trkpt><trkpt lat="44.9095267" lon="5.3634983"><ele>1330.0</ele><time>2026-04-18T16:25:57.432Z</time></trkpt><trkpt lat="44.9093428" lon="5.3633736"><ele>1330.0</ele><time>2026-04-18T16:25:58.433Z</time></trkpt><trkpt lat="44.9091566" lon="5.3632453"><ele>1330.0</ele><time>2026-04-18T16:25:59.433Z</time></trkpt><trkpt lat="44.9089906" lon="5.3631127"><ele>1336.3333333333333</ele><time>2026-04-18T16:26:00.433Z</time></trkpt><trkpt lat="44.9088328" lon="5.3629664"><ele>1342.6666666666667</ele><time>2026-04-18T16:26:01.433Z</time></trkpt><trkpt lat="44.9086894" lon="5.3627997"><ele>1349.0</ele><time>2026-04-18T16:26:02.433Z</time></trkpt><trkpt lat="44.9085392" lon="5.3626174"><ele>1346.3333333333335</ele><time>2026-04-18T16:26:03.433Z</time></trkpt><trkpt lat="44.9083897" lon="5.3624369"><ele>1343.6666666666667</ele><time>2026-04-18T16:26:04.433Z</time></trkpt><trkpt lat="44.9082528" lon="5.3622783"><ele>1341.0</ele><time>2026-04-18T16:26:05.433Z</time></trkpt><trkpt lat="44.9081345" lon="5.3621203"><ele>1341.0</ele><time>2026-04-18T16:26:06.433Z</time></trkpt><trkpt lat="44.9080355" lon="5.3619764"><ele>1341.0</ele><time>2026-04-18T16:26:07.433Z</time></trkpt><trkpt lat="44.9079524" lon="5.3618347"><ele>1341.0</ele><time>2026-04-18T16:26:08.433Z</time></trkpt><trkpt lat="44.9078854" lon="5.361704"><ele>1341.0</ele><time>2026-04-18T16:26:09.433Z</time></trkpt><trkpt lat="44.9078317" lon="5.361575"><ele>1341.0</ele><time>2026-04-18T16:26:10.433Z</time></trkpt><trkpt lat="44.907785" lon="5.3614285"><ele>1341.0</ele><time>2026-04-18T16:26:11.433Z</time></trkpt><trkpt lat="44.9077314" lon="5.3612839"><ele>1341.0</ele><time>2026-04-18T16:26:12.433Z</time></trkpt><trkpt lat="44.9076579" lon="5.3611499"><ele>1341.0</ele><time>2026-04-18T16:26:13.433Z</time></trkpt><trkpt lat="44.9075681" lon="5.3610164"><ele>1338.75</ele><time>2026-04-18T16:26:14.433Z</time></trkpt><trkpt lat="44.9074702" lon="5.3608804"><ele>1336.5</ele><time>2026-04-18T16:26:15.433Z</time></trkpt><trkpt lat="44.9073897" lon="5.3607304"><ele>1334.25</ele><time>2026-04-18T16:26:16.433Z</time></trkpt><trkpt lat="44.9073272" lon="5.3605718"><ele>1332.0</ele><time>2026-04-18T16:26:17.433Z</time></trkpt><trkpt lat="44.9072911" lon="5.3604028"><ele>1332.0</ele><time>2026-04-18T16:26:18.433Z</time></trkpt><trkpt lat="44.9072782" lon="5.3602285"><ele>1332.0</ele><time>2026-04-18T16:26:19.432Z</time></trkpt><trkpt lat="44.9072755" lon="5.3600492"><ele>1332.0</ele><time>2026-04-18T16:26:20.433Z</time></trkpt><trkpt lat="44.9073036" lon="5.3598671"><ele>1332.0</ele><time>2026-04-18T16:26:21.433Z</time></trkpt><trkpt lat="44.9073532" lon="5.3596845"><ele>1332.75</ele><time>2026-04-18T16:26:22.433Z</time></trkpt><trkpt lat="44.9073753" lon="5.3594982"><ele>1333.5</ele><time>2026-04-18T16:26:23.433Z</time></trkpt><trkpt lat="44.9073693" lon="5.3592985"><ele>1334.25</ele><time>2026-04-18T16:26:24.432Z</time></trkpt><trkpt lat="44.9073609" lon="5.3590987"><ele>1335.0</ele><time>2026-04-18T16:26:25.432Z</time></trkpt><trkpt lat="44.9073655" lon="5.3589163"><ele>1336.25</ele><time>2026-04-18T16:26:26.433Z</time></trkpt><trkpt lat="44.9073963" lon="5.3587216"><ele>1337.5</ele><time>2026-04-18T16:26:27.433Z</time></trkpt><trkpt lat="44.9074464" lon="5.3585311"><ele>1338.75</ele><time>2026-04-18T16:26:28.432Z</time></trkpt><trkpt lat="44.9074878" lon="5.3583489"><ele>1340.0</ele><time>2026-04-18T16:26:29.433Z</time></trkpt><trkpt lat="44.9074908" lon="5.3581755"><ele>1341.5</ele><time>2026-04-18T16:26:30.433Z</time></trkpt><trkpt lat="44.9074624" lon="5.3580034"><ele>1343.0</ele><time>2026-04-18T16:26:31.433Z</time></trkpt><trkpt lat="44.9074195" lon="5.3578428"><ele>1344.5</ele><time>2026-04-18T16:26:32.433Z</time></trkpt><trkpt lat="44.9073636" lon="5.3576629"><ele>1346.0</ele><time>2026-04-18T16:26:33.433Z</time></trkpt><trkpt lat="44.9073328" lon="5.3574648"><ele>1346.0</ele><time>2026-04-18T16:26:34.432Z</time></trkpt><trkpt lat="44.9073069" lon="5.3572624"><ele>1346.0</ele><time>2026-04-18T16:26:35.432Z</time></trkpt><trkpt lat="44.907288" lon="5.3570791"><ele>1346.0</ele><time>2026-04-18T16:26:36.433Z</time></trkpt><trkpt lat="44.90729" lon="5.3569052"><ele>1346.0</ele><time>2026-04-18T16:26:37.433Z</time></trkpt><trkpt lat="44.9073206" lon="5.3567284"><ele>1346.0</ele><time>2026-04-18T16:26:38.433Z</time></trkpt><trkpt lat="44.9073753" lon="5.3565567"><ele>1346.0</ele><time>2026-04-18T16:26:39.433Z</time></trkpt><trkpt lat="44.9074522" lon="5.3564081"><ele>1346.0</ele><time>2026-04-18T16:26:40.432Z</time></trkpt><trkpt lat="44.9075523" lon="5.3562729"><ele>1346.0</ele><time>2026-04-18T16:26:41.433Z</time></trkpt><trkpt lat="44.9076728" lon="5.3561647"><ele>1350.0</ele><time>2026-04-18T16:26:42.433Z</time></trkpt><trkpt lat="44.907802" lon="5.3560631"><ele>1354.0</ele><time>2026-04-18T16:26:43.432Z</time></trkpt><trkpt lat="44.9079248" lon="5.3559471"><ele>1358.0</ele><time>2026-04-18T16:26:44.433Z</time></trkpt><trkpt lat="44.9080342" lon="5.3558414"><ele>1362.0</ele><time>2026-04-18T16:26:45.433Z</time></trkpt><trkpt lat="44.9081331" lon="5.3557595"><ele>1362.0</ele><time>2026-04-18T16:26:46.433Z</time></trkpt><trkpt lat="44.9082412" lon="5.3557221"><ele>1362.0</ele><time>2026-04-18T16:26:47.432Z</time></trkpt><trkpt lat="44.9083617" lon="5.3556854"><ele>1362.0</ele><time>2026-04-18T16:26:48.433Z</time></trkpt><trkpt lat="44.9084813" lon="5.3557322"><ele>1362.0</ele><time>2026-04-18T16:26:49.433Z</time></trkpt><trkpt lat="44.908596" lon="5.3557742"><ele>1365.25</ele><time>2026-04-18T16:26:50.433Z</time></trkpt><trkpt lat="44.9087165" lon="5.3557725"><ele>1368.5</ele><time>2026-04-18T16:26:51.434Z</time></trkpt><trkpt lat="44.9088509" lon="5.3557447"><ele>1371.75</ele><time>2026-04-18T16:26:52.433Z</time></trkpt><trkpt lat="44.9089671" lon="5.3556115"><ele>1375.0</ele><time>2026-04-18T16:26:53.433Z</time></trkpt><trkpt lat="44.909101" lon="5.3555648"><ele>1373.75</ele><time>2026-04-18T16:26:54.433Z</time></trkpt><trkpt lat="44.9092488" lon="5.355521"><ele>1372.5</ele><time>2026-04-18T16:26:55.433Z</time></trkpt><trkpt lat="44.9093914" lon="5.35548"><ele>1371.25</ele><time>2026-04-18T16:26:56.433Z</time></trkpt><trkpt lat="44.9095384" lon="5.3554508"><ele>1370.0</ele><time>2026-04-18T16:26:57.432Z</time></trkpt><trkpt lat="44.9096938" lon="5.355419"><ele>1370.0</ele><time>2026-04-18T16:26:58.433Z</time></trkpt><trkpt lat="44.9098255" lon="5.3553473"><ele>1370.0</ele><time>2026-04-18T16:26:59.433Z</time></trkpt><trkpt lat="44.9099483" lon="5.3552572"><ele>1370.0</ele><time>2026-04-18T16:27:00.433Z</time></trkpt><trkpt lat="44.9100762" lon="5.3551477"><ele>1370.0</ele><time>2026-04-18T16:27:01.433Z</time></trkpt><trkpt lat="44.9101677" lon="5.3549949"><ele>1372.5</ele><time>2026-04-18T16:27:02.433Z</time></trkpt><trkpt lat="44.9102356" lon="5.3548212"><ele>1375.0</ele><time>2026-04-18T16:27:03.433Z</time></trkpt><trkpt lat="44.9102609" lon="5.3546186"><ele>1377.5</ele><time>2026-04-18T16:27:04.433Z</time></trkpt><trkpt lat="44.9102957" lon="5.3544332"><ele>1380.0</ele><time>2026-04-18T16:27:05.433Z</time></trkpt><trkpt lat="44.9102493" lon="5.3542101"><ele>1380.0</ele><time>2026-04-18T16:27:06.433Z</time></trkpt><trkpt lat="44.9102089" lon="5.3539811"><ele>1380.0</ele><time>2026-04-18T16:27:07.433Z</time></trkpt><trkpt lat="44.9101586" lon="5.3537446"><ele>1380.0</ele><time>2026-04-18T16:27:08.433Z</time></trkpt><trkpt lat="44.9101116" lon="5.3535166"><ele>1377.0</ele><time>2026-04-18T16:27:09.433Z</time></trkpt><trkpt lat="44.9100729" lon="5.3533015"><ele>1374.0</ele><time>2026-04-18T16:27:10.433Z</time></trkpt><trkpt lat="44.9100509" lon="5.3530775"><ele>1371.0</ele><time>2026-04-18T16:27:11.433Z</time></trkpt><trkpt lat="44.9100565" lon="5.3528468"><ele>1378.3333333333333</ele><time>2026-04-18T16:27:12.433Z</time></trkpt><trkpt lat="44.9100805" lon="5.3526154"><ele>1385.6666666666665</ele><time>2026-04-18T16:27:13.433Z</time></trkpt><trkpt lat="44.9101103" lon="5.3523695"><ele>1393.0</ele><time>2026-04-18T16:27:14.433Z</time></trkpt><trkpt lat="44.9101295" lon="5.3521417"><ele>1393.6666666666665</ele><time>2026-04-18T16:27:15.433Z</time></trkpt><trkpt lat="44.9101412" lon="5.3519168"><ele>1394.3333333333333</ele><time>2026-04-18T16:27:16.433Z</time></trkpt><trkpt lat="44.9101408" lon="5.3516871"><ele>1395.0</ele><time>2026-04-18T16:27:17.433Z</time></trkpt><trkpt lat="44.9101327" lon="5.3514482"><ele>1394.3333333333333</ele><time>2026-04-18T16:27:18.432Z</time></trkpt><trkpt lat="44.91011" lon="5.3512039"><ele>1393.6666666666665</ele><time>2026-04-18T16:27:19.433Z</time></trkpt><trkpt lat="44.9100773" lon="5.3509536"><ele>1393.0</ele><time>2026-04-18T16:27:20.433Z</time></trkpt><trkpt lat="44.9100401" lon="5.3506876"><ele>1388.3333333333333</ele><time>2026-04-18T16:27:21.433Z</time></trkpt><trkpt lat="44.9100026" lon="5.3504307"><ele>1383.6666666666667</ele><time>2026-04-18T16:27:22.433Z</time></trkpt><trkpt lat="44.9099722" lon="5.3501907"><ele>1379.0</ele><time>2026-04-18T16:27:23.432Z</time></trkpt><trkpt lat="44.9099504" lon="5.3499704"><ele>1379.0</ele><time>2026-04-18T16:27:24.433Z</time></trkpt><trkpt lat="44.9099491" lon="5.3497553"><ele>1379.0</ele><time>2026-04-18T16:27:25.433Z</time></trkpt><trkpt lat="44.9099668" lon="5.3495308"><ele>1379.0</ele><time>2026-04-18T16:27:26.433Z</time></trkpt><trkpt lat="44.9099907" lon="5.3492956"><ele>1379.75</ele><time>2026-04-18T16:27:27.433Z</time></trkpt><trkpt lat="44.910012" lon="5.3490796"><ele>1380.5</ele><time>2026-04-18T16:27:28.433Z</time></trkpt><trkpt lat="44.9100238" lon="5.3488746"><ele>1381.25</ele><time>2026-04-18T16:27:29.433Z</time></trkpt><trkpt lat="44.9100044" lon="5.3486726"><ele>1382.0</ele><time>2026-04-18T16:27:30.433Z</time></trkpt><trkpt lat="44.9099608" lon="5.3484621"><ele>1384.0</ele><time>2026-04-18T16:27:31.433Z</time></trkpt><trkpt lat="44.9098953" lon="5.3482502"><ele>1386.0</ele><time>2026-04-18T16:27:32.433Z</time></trkpt><trkpt lat="44.9098472" lon="5.348018"><ele>1388.0</ele><time>2026-04-18T16:27:33.433Z</time></trkpt><trkpt lat="44.909819" lon="5.3477642"><ele>1389.0</ele><time>2026-04-18T16:27:34.433Z</time></trkpt><trkpt lat="44.9097997" lon="5.3475129"><ele>1390.0</ele><time>2026-04-18T16:27:35.433Z</time></trkpt><trkpt lat="44.909776" lon="5.3472848"><ele>1391.0</ele><time>2026-04-18T16:27:36.433Z</time></trkpt><trkpt lat="44.9097499" lon="5.3470698"><ele>1392.5</ele><time>2026-04-18T16:27:37.433Z</time></trkpt><trkpt lat="44.9097317" lon="5.3468739"><ele>1394.0</ele><time>2026-04-18T16:27:38.432Z</time></trkpt><trkpt lat="44.9097125" lon="5.3466901"><ele>1395.5</ele><time>2026-04-18T16:27:39.433Z</time></trkpt><trkpt lat="44.9096508" lon="5.3465328"><ele>1397.0</ele><time>2026-04-18T16:27:40.432Z</time></trkpt><trkpt lat="44.9095674" lon="5.3463957"><ele>1398.5</ele><time>2026-04-18T16:27:41.433Z</time></trkpt><trkpt lat="44.909452" lon="5.3463117"><ele>1400.0</ele><time>2026-04-18T16:27:42.432Z</time></trkpt><trkpt lat="44.9093308" lon="5.3462728"><ele>1401.5</ele><time>2026-04-18T16:27:43.432Z</time></trkpt><trkpt lat="44.9091995" lon="5.3462909"><ele>1403.0</ele><time>2026-04-18T16:27:44.432Z</time></trkpt><trkpt lat="44.9090563" lon="5.3463051"><ele>1403.0</ele><time>2026-04-18T16:27:45.433Z</time></trkpt><trkpt lat="44.9089311" lon="5.3463822"><ele>1403.0</ele><time>2026-04-18T16:27:46.433Z</time></trkpt><trkpt lat="44.9088145" lon="5.346369"><ele>1403.0</ele><time>2026-04-18T16:27:47.433Z</time></trkpt><trkpt lat="44.908698" lon="5.3463105"><ele>1403.0</ele><time>2026-04-18T16:27:48.433Z</time></trkpt><trkpt lat="44.9085976" lon="5.3461868"><ele>1403.0</ele><time>2026-04-18T16:27:49.433Z</time></trkpt><trkpt lat="44.9085231" lon="5.3460182"><ele>1403.0</ele><time>2026-04-18T16:27:50.433Z</time></trkpt><trkpt lat="44.9084458" lon="5.3458325"><ele>1403.0</ele><time>2026-04-18T16:27:51.433Z</time></trkpt><trkpt lat="44.9083406" lon="5.3456559"><ele>1404.25</ele><time>2026-04-18T16:27:52.433Z</time></trkpt><trkpt lat="44.9082106" lon="5.345518"><ele>1405.5</ele><time>2026-04-18T16:27:53.433Z</time></trkpt><trkpt lat="44.908092" lon="5.3454151"><ele>1406.75</ele><time>2026-04-18T16:27:54.433Z</time></trkpt><trkpt lat="44.9079671" lon="5.3453079"><ele>1408.0</ele><time>2026-04-18T16:27:55.433Z</time></trkpt><trkpt lat="44.9078786" lon="5.3451552"><ele>1408.0</ele><time>2026-04-18T16:27:56.432Z</time></trkpt><trkpt lat="44.907813" lon="5.3449748"><ele>1408.0</ele><time>2026-04-18T16:27:57.433Z</time></trkpt><trkpt lat="44.9077768" lon="5.3447705"><ele>1408.0</ele><time>2026-04-18T16:27:58.433Z</time></trkpt><trkpt lat="44.907749" lon="5.3445535"><ele>1408.0</ele><time>2026-04-18T16:27:59.433Z</time></trkpt><trkpt lat="44.9077198" lon="5.3443533"><ele>1410.3333333333333</ele><time>2026-04-18T16:28:00.433Z</time></trkpt><trkpt lat="44.9076645" lon="5.3441586"><ele>1412.6666666666667</ele><time>2026-04-18T16:28:01.433Z</time></trkpt><trkpt lat="44.9076035" lon="5.3439846"><ele>1415.0</ele><time>2026-04-18T16:28:02.433Z</time></trkpt><trkpt lat="44.9074464" lon="5.3437952"><ele>1416.3333333333335</ele><time>2026-04-18T16:28:03.433Z</time></trkpt><trkpt lat="44.9073147" lon="5.3436233"><ele>1417.6666666666667</ele><time>2026-04-18T16:28:04.433Z</time></trkpt><trkpt lat="44.907166" lon="5.3434444"><ele>1419.0</ele><time>2026-04-18T16:28:05.433Z</time></trkpt><trkpt lat="44.9070016" lon="5.3432678"><ele>1419.0</ele><time>2026-04-18T16:28:06.433Z</time></trkpt><trkpt lat="44.9068316" lon="5.3431127"><ele>1419.0</ele><time>2026-04-18T16:28:07.433Z</time></trkpt><trkpt lat="44.9066413" lon="5.3429573"><ele>1419.0</ele><time>2026-04-18T16:28:08.433Z</time></trkpt><trkpt lat="44.9064426" lon="5.3428092"><ele>1418.3333333333333</ele><time>2026-04-18T16:28:09.433Z</time></trkpt><trkpt lat="44.9062364" lon="5.3426626"><ele>1417.6666666666665</ele><time>2026-04-18T16:28:10.433Z</time></trkpt><trkpt lat="44.9060405" lon="5.3425275"><ele>1417.0</ele><time>2026-04-18T16:28:11.433Z</time></trkpt><trkpt lat="44.90584" lon="5.3423906"><ele>1417.0</ele><time>2026-04-18T16:28:12.433Z</time></trkpt><trkpt lat="44.9056927" lon="5.342286"><ele>1417.0</ele><time>2026-04-18T16:28:13.433Z</time></trkpt><trkpt lat="44.905561" lon="5.3421816"><ele>1417.0</ele><time>2026-04-18T16:28:14.434Z</time></trkpt><trkpt lat="44.905466" lon="5.3420731"><ele>1417.0</ele><time>2026-04-18T16:28:15.433Z</time></trkpt><trkpt lat="44.9053652" lon="5.341963"><ele>1419.0</ele><time>2026-04-18T16:28:16.434Z</time></trkpt><trkpt lat="44.9053754" lon="5.3417815"><ele>1421.0</ele><time>2026-04-18T16:28:17.434Z</time></trkpt><trkpt lat="44.9053748" lon="5.3416296"><ele>1423.0</ele><time>2026-04-18T16:28:18.433Z</time></trkpt><trkpt lat="44.9054119" lon="5.3414589"><ele>1425.0</ele><time>2026-04-18T16:28:19.432Z</time></trkpt><trkpt lat="44.9054503" lon="5.3412802"><ele>1425.0</ele><time>2026-04-18T16:28:20.432Z</time></trkpt><trkpt lat="44.9055022" lon="5.3411197"><ele>1425.0</ele><time>2026-04-18T16:28:21.432Z</time></trkpt><trkpt lat="44.9055855" lon="5.3409797"><ele>1425.0</ele><time>2026-04-18T16:28:22.434Z</time></trkpt><trkpt lat="44.9057053" lon="5.340867"><ele>1425.0</ele><time>2026-04-18T16:28:23.433Z</time></trkpt><trkpt lat="44.9058544" lon="5.3407803"><ele>1427.5</ele><time>2026-04-18T16:28:24.433Z</time></trkpt><trkpt lat="44.9059978" lon="5.3406908"><ele>1430.0</ele><time>2026-04-18T16:28:25.433Z</time></trkpt><trkpt lat="44.9061225" lon="5.3406061"><ele>1432.5</ele><time>2026-04-18T16:28:26.433Z</time></trkpt><trkpt lat="44.9062229" lon="5.3405296"><ele>1435.0</ele><time>2026-04-18T16:28:27.434Z</time></trkpt><trkpt lat="44.9062987" lon="5.3404743"><ele>1436.0</ele><time>2026-04-18T16:28:28.433Z</time></trkpt><trkpt lat="44.9063642" lon="5.3404493"><ele>1436.0</ele><time>2026-04-18T16:28:29.433Z</time></trkpt><trkpt lat="44.9064306" lon="5.3404008"><ele>1436.0</ele><time>2026-04-18T16:28:31.434Z</time></trkpt></trkseg><trkseg><trkpt lat="44.9063644" lon="5.3403818"><ele>1436.0</ele><time>2026-04-18T16:38:49.433Z</time></trkpt><trkpt lat="44.9064374" lon="5.3403373"><ele>1436.0</ele><time>2026-04-18T16:38:52.433Z</time></trkpt><trkpt lat="44.9064774" lon="5.3402518"><ele>1436.0</ele><time>2026-04-18T16:38:54.433Z</time></trkpt><trkpt lat="44.906474" lon="5.3401624"><ele>1436.0</ele><time>2026-04-18T16:38:56.433Z</time></trkpt><trkpt lat="44.9064277" lon="5.3400301"><ele>1436.0</ele><time>2026-04-18T16:38:57.433Z</time></trkpt><trkpt lat="44.9063627" lon="5.3398815"><ele>1436.0</ele><time>2026-04-18T16:38:58.433Z</time></trkpt><trkpt lat="44.9062956" lon="5.3397411"><ele>1435.0</ele><time>2026-04-18T16:38:59.433Z</time></trkpt><trkpt lat="44.9061926" lon="5.3396066"><ele>1434.0</ele><time>2026-04-18T16:39:00.433Z</time></trkpt><trkpt lat="44.9060624" lon="5.3395424"><ele>1433.0</ele><time>2026-04-18T16:39:01.432Z</time></trkpt><trkpt lat="44.9059556" lon="5.3394691"><ele>1432.0</ele><time>2026-04-18T16:39:02.433Z</time></trkpt><trkpt lat="44.9058751" lon="5.3393506"><ele>1432.0</ele><time>2026-04-18T16:39:03.432Z</time></trkpt><trkpt lat="44.9058191" lon="5.3392148"><ele>1432.0</ele><time>2026-04-18T16:39:04.433Z</time></trkpt><trkpt lat="44.905791" lon="5.3390312"><ele>1432.0</ele><time>2026-04-18T16:39:05.433Z</time></trkpt><trkpt lat="44.9057703" lon="5.3388433"><ele>1432.0</ele><time>2026-04-18T16:39:06.433Z</time></trkpt><trkpt lat="44.9057543" lon="5.3386481"><ele>1433.5</ele><time>2026-04-18T16:39:07.433Z</time></trkpt><trkpt lat="44.9057442" lon="5.3384599"><ele>1435.0</ele><time>2026-04-18T16:39:08.433Z</time></trkpt><trkpt lat="44.9057356" lon="5.3382931"><ele>1436.5</ele><time>2026-04-18T16:39:09.433Z</time></trkpt><trkpt lat="44.9057217" lon="5.3381234"><ele>1438.0</ele><time>2026-04-18T16:39:10.433Z</time></trkpt><trkpt lat="44.9057122" lon="5.3379563"><ele>1438.0</ele><time>2026-04-18T16:39:11.433Z</time></trkpt><trkpt lat="44.9057028" lon="5.3377868"><ele>1438.0</ele><time>2026-04-18T16:39:12.433Z</time></trkpt><trkpt lat="44.9056961" lon="5.3376221"><ele>1438.0</ele><time>2026-04-18T16:39:13.433Z</time></trkpt><trkpt lat="44.9056938" lon="5.3374598"><ele>1438.0</ele><time>2026-04-18T16:39:14.432Z</time></trkpt><trkpt lat="44.9057019" lon="5.3372915"><ele>1438.0</ele><time>2026-04-18T16:39:15.433Z</time></trkpt><trkpt lat="44.9057154" lon="5.3371174"><ele>1438.0</ele><time>2026-04-18T16:39:16.432Z</time></trkpt><trkpt lat="44.9057317" lon="5.3369475"><ele>1438.0</ele><time>2026-04-18T16:39:17.433Z</time></trkpt><trkpt lat="44.9057455" lon="5.3367694"><ele>1438.0</ele><time>2026-04-18T16:39:18.433Z</time></trkpt><trkpt lat="44.9057597" lon="5.3365913"><ele>1438.0</ele><time>2026-04-18T16:39:19.433Z</time></trkpt><trkpt lat="44.9057784" lon="5.3364201"><ele>1438.0</ele><time>2026-04-18T16:39:20.432Z</time></trkpt><trkpt lat="44.905798" lon="5.3362448"><ele>1438.0</ele><time>2026-04-18T16:39:21.433Z</time></trkpt><trkpt lat="44.9058168" lon="5.3360804"><ele>1438.0</ele><time>2026-04-18T16:39:22.433Z</time></trkpt><trkpt lat="44.9058368" lon="5.3359223"><ele>1438.6000000000001</ele><time>2026-04-18T16:39:23.433Z</time></trkpt><trkpt lat="44.9058535" lon="5.3357709"><ele>1439.2</ele><time>2026-04-18T16:39:24.432Z</time></trkpt><trkpt lat="44.9058738" lon="5.335626"><ele>1439.8</ele><time>2026-04-18T16:39:25.433Z</time></trkpt><trkpt lat="44.9059023" lon="5.3354767"><ele>1440.4</ele><time>2026-04-18T16:39:26.433Z</time></trkpt><trkpt lat="44.9059459" lon="5.3353387"><ele>1441.0</ele><time>2026-04-18T16:39:27.433Z</time></trkpt><trkpt lat="44.9060116" lon="5.3352242"><ele>1438.75</ele><time>2026-04-18T16:39:28.434Z</time></trkpt><trkpt lat="44.9060971" lon="5.3351248"><ele>1436.5</ele><time>2026-04-18T16:39:29.433Z</time></trkpt><trkpt lat="44.9061975" lon="5.3350374"><ele>1434.25</ele><time>2026-04-18T16:39:30.433Z</time></trkpt><trkpt lat="44.9063158" lon="5.3349733"><ele>1432.0</ele><time>2026-04-18T16:39:31.433Z</time></trkpt><trkpt lat="44.9064501" lon="5.3349478"><ele>1432.0</ele><time>2026-04-18T16:39:32.433Z</time></trkpt><trkpt lat="44.9065942" lon="5.3349508"><ele>1432.0</ele><time>2026-04-18T16:39:33.433Z</time></trkpt><trkpt lat="44.9067426" lon="5.3349603"><ele>1432.0</ele><time>2026-04-18T16:39:34.433Z</time></trkpt><trkpt lat="44.9068878" lon="5.3349686"><ele>1432.0</ele><time>2026-04-18T16:39:35.433Z</time></trkpt><trkpt lat="44.9070283" lon="5.3349686"><ele>1432.5</ele><time>2026-04-18T16:39:36.433Z</time></trkpt><trkpt lat="44.9071655" lon="5.3349548"><ele>1433.0</ele><time>2026-04-18T16:39:37.432Z</time></trkpt><trkpt lat="44.9073056" lon="5.3349198"><ele>1433.5</ele><time>2026-04-18T16:39:38.433Z</time></trkpt><trkpt lat="44.9074455" lon="5.3348602"><ele>1434.0</ele><time>2026-04-18T16:39:39.433Z</time></trkpt><trkpt lat="44.9075688" lon="5.3347995"><ele>1434.75</ele><time>2026-04-18T16:39:40.433Z</time></trkpt><trkpt lat="44.9076819" lon="5.3347318"><ele>1435.5</ele><time>2026-04-18T16:39:41.433Z</time></trkpt><trkpt lat="44.9077956" lon="5.3346512"><ele>1436.25</ele><time>2026-04-18T16:39:42.433Z</time></trkpt><trkpt lat="44.9079103" lon="5.3345591"><ele>1437.0</ele><time>2026-04-18T16:39:43.433Z</time></trkpt><trkpt lat="44.9080303" lon="5.3344569"><ele>1433.5</ele><time>2026-04-18T16:39:44.433Z</time></trkpt><trkpt lat="44.9081569" lon="5.3343499"><ele>1430.0</ele><time>2026-04-18T16:39:45.433Z</time></trkpt><trkpt lat="44.9082856" lon="5.3342451"><ele>1426.5</ele><time>2026-04-18T16:39:46.432Z</time></trkpt><trkpt lat="44.9084061" lon="5.3341458"><ele>1423.0</ele><time>2026-04-18T16:39:47.433Z</time></trkpt><trkpt lat="44.9085154" lon="5.3340349"><ele>1422.25</ele><time>2026-04-18T16:39:48.433Z</time></trkpt><trkpt lat="44.9086083" lon="5.3339001"><ele>1421.5</ele><time>2026-04-18T16:39:49.433Z</time></trkpt><trkpt lat="44.9086784" lon="5.3337319"><ele>1420.75</ele><time>2026-04-18T16:39:50.433Z</time></trkpt><trkpt lat="44.9087407" lon="5.3335632"><ele>1420.0</ele><time>2026-04-18T16:39:51.433Z</time></trkpt><trkpt lat="44.9087609" lon="5.3333777"><ele>1419.0</ele><time>2026-04-18T16:39:52.432Z</time></trkpt><trkpt lat="44.9087881" lon="5.3332039"><ele>1418.0</ele><time>2026-04-18T16:39:53.433Z</time></trkpt><trkpt lat="44.9088206" lon="5.3330451"><ele>1417.0</ele><time>2026-04-18T16:39:54.433Z</time></trkpt><trkpt lat="44.908869" lon="5.3328991"><ele>1416.0</ele><time>2026-04-18T16:39:55.433Z</time></trkpt><trkpt lat="44.9089359" lon="5.3327749"><ele>1416.0</ele><time>2026-04-18T16:39:56.433Z</time></trkpt><trkpt lat="44.9090283" lon="5.3326755"><ele>1416.0</ele><time>2026-04-18T16:39:57.432Z</time></trkpt><trkpt lat="44.9091388" lon="5.3326112"><ele>1416.0</ele><time>2026-04-18T16:39:58.433Z</time></trkpt><trkpt lat="44.9092627" lon="5.3325885"><ele>1416.0</ele><time>2026-04-18T16:39:59.433Z</time></trkpt><trkpt lat="44.9093915" lon="5.3325919"><ele>1415.25</ele><time>2026-04-18T16:40:00.433Z</time></trkpt><trkpt lat="44.9095231" lon="5.3326019"><ele>1414.5</ele><time>2026-04-18T16:40:01.433Z</time></trkpt><trkpt lat="44.9096438" lon="5.3326045"><ele>1413.75</ele><time>2026-04-18T16:40:02.433Z</time></trkpt><trkpt lat="44.9097546" lon="5.3325678"><ele>1413.0</ele><time>2026-04-18T16:40:03.433Z</time></trkpt><trkpt lat="44.909856" lon="5.3324715"><ele>1413.0</ele><time>2026-04-18T16:40:04.433Z</time></trkpt><trkpt lat="44.9099385" lon="5.3323456"><ele>1413.0</ele><time>2026-04-18T16:40:05.433Z</time></trkpt><trkpt lat="44.9100113" lon="5.3321939"><ele>1413.0</ele><time>2026-04-18T16:40:06.433Z</time></trkpt><trkpt lat="44.9100902" lon="5.332065"><ele>1413.0</ele><time>2026-04-18T16:40:07.433Z</time></trkpt><trkpt lat="44.9101892" lon="5.331956"><ele>1412.25</ele><time>2026-04-18T16:40:08.433Z</time></trkpt><trkpt lat="44.9103103" lon="5.3318758"><ele>1411.5</ele><time>2026-04-18T16:40:09.432Z</time></trkpt><trkpt lat="44.9104314" lon="5.3318261"><ele>1410.75</ele><time>2026-04-18T16:40:10.434Z</time></trkpt><trkpt lat="44.910543" lon="5.3317815"><ele>1410.0</ele><time>2026-04-18T16:40:11.433Z</time></trkpt><trkpt lat="44.9106455" lon="5.3317158"><ele>1410.0</ele><time>2026-04-18T16:40:12.433Z</time></trkpt><trkpt lat="44.9107332" lon="5.3316106"><ele>1410.0</ele><time>2026-04-18T16:40:13.433Z</time></trkpt><trkpt lat="44.9108011" lon="5.3314851"><ele>1410.0</ele><time>2026-04-18T16:40:14.433Z</time></trkpt><trkpt lat="44.9108442" lon="5.331342"><ele>1410.0</ele><time>2026-04-18T16:40:15.433Z</time></trkpt><trkpt lat="44.9108761" lon="5.3311845"><ele>1409.6</ele><time>2026-04-18T16:40:16.433Z</time></trkpt><trkpt lat="44.9108992" lon="5.3310325"><ele>1409.2</ele><time>2026-04-18T16:40:17.433Z</time></trkpt><trkpt lat="44.9109221" lon="5.3308823"><ele>1408.8000000000002</ele><time>2026-04-18T16:40:18.433Z</time></trkpt><trkpt lat="44.9109464" lon="5.3307355"><ele>1408.4</ele><time>2026-04-18T16:40:19.434Z</time></trkpt><trkpt lat="44.9109647" lon="5.3306021"><ele>1408.0</ele><time>2026-04-18T16:40:20.433Z</time></trkpt><trkpt lat="44.9109761" lon="5.3304827"><ele>1408.142857142857</ele><time>2026-04-18T16:40:21.432Z</time></trkpt><trkpt lat="44.9109754" lon="5.3303913"><ele>1408.2857142857142</ele><time>2026-04-18T16:40:22.433Z</time></trkpt><trkpt lat="44.9109814" lon="5.3302933"><ele>1408.4285714285716</ele><time>2026-04-18T16:40:24.433Z</time></trkpt><trkpt lat="44.9109711" lon="5.3302023"><ele>1408.5714285714284</ele><time>2026-04-18T16:40:27.433Z</time></trkpt><trkpt lat="44.9109125" lon="5.3302743"><ele>1408.7142857142856</ele><time>2026-04-18T16:40:31.433Z</time></trkpt><trkpt lat="44.9108945" lon="5.3303634"><ele>1408.857142857143</ele><time>2026-04-18T16:40:40.433Z</time></trkpt><trkpt lat="44.9109721" lon="5.3303749"><ele>1409.0</ele><time>2026-04-18T16:40:46.432Z</time></trkpt><trkpt lat="44.9110017" lon="5.3302601"><ele>1409.0</ele><time>2026-04-18T16:40:48.433Z</time></trkpt><trkpt lat="44.9109561" lon="5.3301078"><ele>1409.0</ele><time>2026-04-18T16:40:50.433Z</time></trkpt><trkpt lat="44.9109053" lon="5.3300036"><ele>1409.0</ele><time>2026-04-18T16:40:51.432Z</time></trkpt><trkpt lat="44.9108465" lon="5.3298636"><ele>1409.0</ele><time>2026-04-18T16:40:52.433Z</time></trkpt><trkpt lat="44.9107799" lon="5.3296954"><ele>1410.0</ele><time>2026-04-18T16:40:53.432Z</time></trkpt><trkpt lat="44.9107155" lon="5.3295204"><ele>1411.0</ele><time>2026-04-18T16:40:54.432Z</time></trkpt><trkpt lat="44.9106563" lon="5.3293283"><ele>1412.0</ele><time>2026-04-18T16:40:55.433Z</time></trkpt><trkpt lat="44.9106044" lon="5.3291562"><ele>1413.0</ele><time>2026-04-18T16:40:56.433Z</time></trkpt><trkpt lat="44.9105507" lon="5.3289867"><ele>1413.25</ele><time>2026-04-18T16:40:57.433Z</time></trkpt><trkpt lat="44.9105003" lon="5.328818"><ele>1413.5</ele><time>2026-04-18T16:40:58.433Z</time></trkpt><trkpt lat="44.9104541" lon="5.3286441"><ele>1413.75</ele><time>2026-04-18T16:40:59.432Z</time></trkpt><trkpt lat="44.9104078" lon="5.3284837"><ele>1414.0</ele><time>2026-04-18T16:41:00.432Z</time></trkpt><trkpt lat="44.9103621" lon="5.3283189"><ele>1414.0</ele><time>2026-04-18T16:41:01.433Z</time></trkpt><trkpt lat="44.9103047" lon="5.3281656"><ele>1414.0</ele><time>2026-04-18T16:41:02.433Z</time></trkpt><trkpt lat="44.9102383" lon="5.3280229"><ele>1414.0</ele><time>2026-04-18T16:41:03.432Z</time></trkpt><trkpt lat="44.910151" lon="5.3278942"><ele>1414.0</ele><time>2026-04-18T16:41:04.432Z</time></trkpt><trkpt lat="44.9100529" lon="5.3277711"><ele>1410.75</ele><time>2026-04-18T16:41:05.433Z</time></trkpt><trkpt lat="44.9099647" lon="5.3276501"><ele>1407.5</ele><time>2026-04-18T16:41:06.433Z</time></trkpt><trkpt lat="44.9098892" lon="5.3275285"><ele>1404.25</ele><time>2026-04-18T16:41:07.433Z</time></trkpt><trkpt lat="44.9098189" lon="5.3274022"><ele>1401.0</ele><time>2026-04-18T16:41:08.433Z</time></trkpt><trkpt lat="44.9097652" lon="5.3272623"><ele>1400.1999999999998</ele><time>2026-04-18T16:41:09.433Z</time></trkpt><trkpt lat="44.9097267" lon="5.3271163"><ele>1399.3999999999999</ele><time>2026-04-18T16:41:10.433Z</time></trkpt><trkpt lat="44.9096978" lon="5.3269729"><ele>1398.6</ele><time>2026-04-18T16:41:11.433Z</time></trkpt><trkpt lat="44.9096751" lon="5.3268319"><ele>1397.8</ele><time>2026-04-18T16:41:12.433Z</time></trkpt><trkpt lat="44.9096591" lon="5.3266981"><ele>1397.0</ele><time>2026-04-18T16:41:13.433Z</time></trkpt><trkpt lat="44.9096475" lon="5.3265597"><ele>1397.0</ele><time>2026-04-18T16:41:14.432Z</time></trkpt><trkpt lat="44.9097102" lon="5.3264562"><ele>1397.0</ele><time>2026-04-18T16:41:15.432Z</time></trkpt><trkpt lat="44.9097605" lon="5.3263418"><ele>1397.0</ele><time>2026-04-18T16:41:16.433Z</time></trkpt><trkpt lat="44.9098172" lon="5.3262306"><ele>1397.0</ele><time>2026-04-18T16:41:17.433Z</time></trkpt><trkpt lat="44.9098723" lon="5.326128"><ele>1397.0</ele><time>2026-04-18T16:41:18.433Z</time></trkpt><trkpt lat="44.9099231" lon="5.3260256"><ele>1395.3333333333335</ele><time>2026-04-18T16:41:19.432Z</time></trkpt><trkpt lat="44.9099638" lon="5.3259302"><ele>1393.6666666666667</ele><time>2026-04-18T16:41:20.434Z</time></trkpt><trkpt lat="44.909992" lon="5.3258392"><ele>1392.0</ele><time>2026-04-18T16:41:21.433Z</time></trkpt><trkpt lat="44.9100215" lon="5.3257535"><ele>1390.3333333333333</ele><time>2026-04-18T16:41:22.433Z</time></trkpt><trkpt lat="44.9100613" lon="5.3256574"><ele>1388.6666666666665</ele><time>2026-04-18T16:41:23.433Z</time></trkpt><trkpt lat="44.9101146" lon="5.3255568"><ele>1387.0</ele><time>2026-04-18T16:41:24.433Z</time></trkpt><trkpt lat="44.9101809" lon="5.3254573"><ele>1384.25</ele><time>2026-04-18T16:41:25.433Z</time></trkpt><trkpt lat="44.9102751" lon="5.3253549"><ele>1381.5</ele><time>2026-04-18T16:41:26.433Z</time></trkpt><trkpt lat="44.9103909" lon="5.3252745"><ele>1378.75</ele><time>2026-04-18T16:41:27.433Z</time></trkpt><trkpt lat="44.9105325" lon="5.3252247"><ele>1376.0</ele><time>2026-04-18T16:41:28.433Z</time></trkpt><trkpt lat="44.9106966" lon="5.3252091"><ele>1376.0</ele><time>2026-04-18T16:41:29.433Z</time></trkpt><trkpt lat="44.9108784" lon="5.3252123"><ele>1376.0</ele><time>2026-04-18T16:41:30.433Z</time></trkpt><trkpt lat="44.9110762" lon="5.3252207"><ele>1376.0</ele><time>2026-04-18T16:41:31.433Z</time></trkpt><trkpt lat="44.9112833" lon="5.3252299"><ele>1374.0</ele><time>2026-04-18T16:41:32.433Z</time></trkpt><trkpt lat="44.9115028" lon="5.3252347"><ele>1372.0</ele><time>2026-04-18T16:41:33.433Z</time></trkpt><trkpt lat="44.9117304" lon="5.3252362"><ele>1370.0</ele><time>2026-04-18T16:41:34.433Z</time></trkpt><trkpt lat="44.9119506" lon="5.3252349"><ele>1369.0</ele><time>2026-04-18T16:41:35.433Z</time></trkpt><trkpt lat="44.9121627" lon="5.3252307"><ele>1368.0</ele><time>2026-04-18T16:41:36.433Z</time></trkpt><trkpt lat="44.9123627" lon="5.3252249"><ele>1367.0</ele><time>2026-04-18T16:41:37.433Z</time></trkpt><trkpt lat="44.9125465" lon="5.3252159"><ele>1365.6666666666667</ele><time>2026-04-18T16:41:38.433Z</time></trkpt><trkpt lat="44.9127232" lon="5.3251922"><ele>1364.3333333333333</ele><time>2026-04-18T16:41:39.433Z</time></trkpt><trkpt lat="44.9128942" lon="5.3251619"><ele>1363.0</ele><time>2026-04-18T16:41:40.433Z</time></trkpt><trkpt lat="44.9130652" lon="5.3251492"><ele>1363.0</ele><time>2026-04-18T16:41:41.432Z</time></trkpt><trkpt lat="44.9132424" lon="5.3251727"><ele>1363.0</ele><time>2026-04-18T16:41:42.432Z</time></trkpt><trkpt lat="44.9134262" lon="5.3252253"><ele>1363.0</ele><time>2026-04-18T16:41:43.433Z</time></trkpt><trkpt lat="44.9135963" lon="5.3252879"><ele>1360.0</ele><time>2026-04-18T16:41:44.433Z</time></trkpt><trkpt lat="44.9137611" lon="5.3253625"><ele>1357.0</ele><time>2026-04-18T16:41:45.432Z</time></trkpt><trkpt lat="44.9139161" lon="5.3254376"><ele>1354.0</ele><time>2026-04-18T16:41:46.433Z</time></trkpt><trkpt lat="44.9140746" lon="5.3254819"><ele>1352.3333333333333</ele><time>2026-04-18T16:41:47.432Z</time></trkpt><trkpt lat="44.9142414" lon="5.3254827"><ele>1350.6666666666667</ele><time>2026-04-18T16:41:48.432Z</time></trkpt><trkpt lat="44.9144242" lon="5.3254509"><ele>1349.0</ele><time>2026-04-18T16:41:49.433Z</time></trkpt><trkpt lat="44.9146141" lon="5.3254004"><ele>1349.0</ele><time>2026-04-18T16:41:50.433Z</time></trkpt><trkpt lat="44.914817" lon="5.3253434"><ele>1349.0</ele><time>2026-04-18T16:41:51.433Z</time></trkpt><trkpt lat="44.9150172" lon="5.3252784"><ele>1349.0</ele><time>2026-04-18T16:41:52.433Z</time></trkpt><trkpt lat="44.9152118" lon="5.3252178"><ele>1348.0</ele><time>2026-04-18T16:41:53.432Z</time></trkpt><trkpt lat="44.9153973" lon="5.3251535"><ele>1347.0</ele><time>2026-04-18T16:41:54.433Z</time></trkpt><trkpt lat="44.9155729" lon="5.3250856"><ele>1346.0</ele><time>2026-04-18T16:41:55.432Z</time></trkpt><trkpt lat="44.9157377" lon="5.3250085"><ele>1346.0</ele><time>2026-04-18T16:41:56.432Z</time></trkpt><trkpt lat="44.9158885" lon="5.3249399"><ele>1346.0</ele><time>2026-04-18T16:41:57.433Z</time></trkpt><trkpt lat="44.9160349" lon="5.324882"><ele>1346.0</ele><time>2026-04-18T16:41:58.432Z</time></trkpt><trkpt lat="44.9161841" lon="5.3248323"><ele>1344.3333333333335</ele><time>2026-04-18T16:41:59.433Z</time></trkpt><trkpt lat="44.9163418" lon="5.3248431"><ele>1342.6666666666667</ele><time>2026-04-18T16:42:00.433Z</time></trkpt><trkpt lat="44.9165031" lon="5.3248972"><ele>1341.0</ele><time>2026-04-18T16:42:01.433Z</time></trkpt><trkpt lat="44.9166617" lon="5.3249697"><ele>1338.3333333333333</ele><time>2026-04-18T16:42:02.433Z</time></trkpt><trkpt lat="44.9168169" lon="5.3250689"><ele>1335.6666666666665</ele><time>2026-04-18T16:42:03.433Z</time></trkpt><trkpt lat="44.9169555" lon="5.3251708"><ele>1333.0</ele><time>2026-04-18T16:42:04.432Z</time></trkpt><trkpt lat="44.9170853" lon="5.3252514"><ele>1333.0</ele><time>2026-04-18T16:42:05.433Z</time></trkpt><trkpt lat="44.9172244" lon="5.3252984"><ele>1333.0</ele><time>2026-04-18T16:42:06.432Z</time></trkpt><trkpt lat="44.9173743" lon="5.3252896"><ele>1333.0</ele><time>2026-04-18T16:42:07.432Z</time></trkpt><trkpt lat="44.9175376" lon="5.3252466"><ele>1330.3333333333333</ele><time>2026-04-18T16:42:08.433Z</time></trkpt><trkpt lat="44.9177108" lon="5.3251858"><ele>1327.6666666666667</ele><time>2026-04-18T16:42:09.433Z</time></trkpt><trkpt lat="44.9178809" lon="5.3251334"><ele>1325.0</ele><time>2026-04-18T16:42:10.433Z</time></trkpt><trkpt lat="44.9180462" lon="5.325086"><ele>1325.0</ele><time>2026-04-18T16:42:11.433Z</time></trkpt><trkpt lat="44.9182001" lon="5.3250617"><ele>1325.0</ele><time>2026-04-18T16:42:12.433Z</time></trkpt><trkpt lat="44.9183316" lon="5.3250648"><ele>1325.0</ele><time>2026-04-18T16:42:13.433Z</time></trkpt><trkpt lat="44.9184477" lon="5.3250832"><ele>1325.0</ele><time>2026-04-18T16:42:14.432Z</time></trkpt><trkpt lat="44.9185593" lon="5.3251109"><ele>1323.8</ele><time>2026-04-18T16:42:15.432Z</time></trkpt><trkpt lat="44.9186623" lon="5.3251382"><ele>1322.6</ele><time>2026-04-18T16:42:16.432Z</time></trkpt><trkpt lat="44.9187631" lon="5.3251664"><ele>1321.4</ele><time>2026-04-18T16:42:17.433Z</time></trkpt><trkpt lat="44.9188519" lon="5.3251916"><ele>1320.2</ele><time>2026-04-18T16:42:18.433Z</time></trkpt><trkpt lat="44.9189241" lon="5.3252183"><ele>1319.0</ele><time>2026-04-18T16:42:19.433Z</time></trkpt><trkpt lat="44.9190145" lon="5.3252713"><ele>1319.0</ele><time>2026-04-18T16:42:21.433Z</time></trkpt><trkpt lat="44.9191191" lon="5.3252639"><ele>1319.0</ele><time>2026-04-18T16:42:35.433Z</time></trkpt><trkpt lat="44.9191999" lon="5.3252552"><ele>1319.0</ele><time>2026-04-18T16:42:36.433Z</time></trkpt><trkpt lat="44.919325" lon="5.3252225"><ele>1319.0</ele><time>2026-04-18T16:42:37.433Z</time></trkpt><trkpt lat="44.9194609" lon="5.3251604"><ele>1317.6666666666667</ele><time>2026-04-18T16:42:38.433Z</time></trkpt><trkpt lat="44.9196174" lon="5.3250646"><ele>1316.3333333333333</ele><time>2026-04-18T16:42:39.433Z</time></trkpt><trkpt lat="44.9197668" lon="5.3249596"><ele>1315.0</ele><time>2026-04-18T16:42:40.432Z</time></trkpt><trkpt lat="44.9199025" lon="5.3248555"><ele>1315.0</ele><time>2026-04-18T16:42:41.432Z</time></trkpt><trkpt lat="44.9200261" lon="5.3247377"><ele>1315.0</ele><time>2026-04-18T16:42:42.432Z</time></trkpt><trkpt lat="44.9201312" lon="5.3245792"><ele>1315.0</ele><time>2026-04-18T16:42:43.433Z</time></trkpt><trkpt lat="44.9202219" lon="5.3243933"><ele>1313.75</ele><time>2026-04-18T16:42:44.433Z</time></trkpt><trkpt lat="44.9203018" lon="5.3242179"><ele>1312.5</ele><time>2026-04-18T16:42:45.433Z</time></trkpt><trkpt lat="44.9203762" lon="5.3240649"><ele>1311.25</ele><time>2026-04-18T16:42:46.433Z</time></trkpt><trkpt lat="44.9204467" lon="5.3239426"><ele>1310.0</ele><time>2026-04-18T16:42:47.433Z</time></trkpt><trkpt lat="44.9205391" lon="5.3238476"><ele>1307.2</ele><time>2026-04-18T16:42:48.432Z</time></trkpt><trkpt lat="44.9206407" lon="5.3237976"><ele>1304.4</ele><time>2026-04-18T16:42:49.432Z</time></trkpt><trkpt lat="44.9207399" lon="5.3237818"><ele>1301.6</ele><time>2026-04-18T16:42:50.433Z</time></trkpt><trkpt lat="44.9208345" lon="5.3237878"><ele>1298.8</ele><time>2026-04-18T16:42:51.433Z</time></trkpt><trkpt lat="44.920926" lon="5.3238024"><ele>1296.0</ele><time>2026-04-18T16:42:52.433Z</time></trkpt><trkpt lat="44.9210106" lon="5.3238212"><ele>1295.1999999999998</ele><time>2026-04-18T16:42:53.433Z</time></trkpt><trkpt lat="44.9210943" lon="5.3238465"><ele>1294.3999999999999</ele><time>2026-04-18T16:42:54.433Z</time></trkpt><trkpt lat="44.9211833" lon="5.3238745"><ele>1293.6</ele><time>2026-04-18T16:42:55.433Z</time></trkpt><trkpt lat="44.9212902" lon="5.3239055"><ele>1292.8</ele><time>2026-04-18T16:42:56.432Z</time></trkpt><trkpt lat="44.9214121" lon="5.3239395"><ele>1292.0</ele><time>2026-04-18T16:42:57.432Z</time></trkpt><trkpt lat="44.9215473" lon="5.3239838"><ele>1293.0</ele><time>2026-04-18T16:42:58.432Z</time></trkpt><trkpt lat="44.9216994" lon="5.3240437"><ele>1294.0</ele><time>2026-04-18T16:42:59.433Z</time></trkpt><trkpt lat="44.9218528" lon="5.3241233"><ele>1295.0</ele><time>2026-04-18T16:43:00.433Z</time></trkpt><trkpt lat="44.9219947" lon="5.3242083"><ele>1295.0</ele><time>2026-04-18T16:43:01.433Z</time></trkpt><trkpt lat="44.9221321" lon="5.3242905"><ele>1295.0</ele><time>2026-04-18T16:43:02.433Z</time></trkpt><trkpt lat="44.9222758" lon="5.3243449"><ele>1295.0</ele><time>2026-04-18T16:43:03.433Z</time></trkpt><trkpt lat="44.9224318" lon="5.3243802"><ele>1294.0</ele><time>2026-04-18T16:43:04.432Z</time></trkpt><trkpt lat="44.9226037" lon="5.3243967"><ele>1293.0</ele><time>2026-04-18T16:43:05.433Z</time></trkpt><trkpt lat="44.9227864" lon="5.3243943"><ele>1292.0</ele><time>2026-04-18T16:43:06.432Z</time></trkpt><trkpt lat="44.9229723" lon="5.3243771"><ele>1292.0</ele><time>2026-04-18T16:43:07.432Z</time></trkpt><trkpt lat="44.9231607" lon="5.3243615"><ele>1292.0</ele><time>2026-04-18T16:43:08.433Z</time></trkpt><trkpt lat="44.9233406" lon="5.3243508"><ele>1292.0</ele><time>2026-04-18T16:43:09.433Z</time></trkpt><trkpt lat="44.9235249" lon="5.3243415"><ele>1290.0</ele><time>2026-04-18T16:43:10.433Z</time></trkpt><trkpt lat="44.9237071" lon="5.3243351"><ele>1288.0</ele><time>2026-04-18T16:43:11.433Z</time></trkpt><trkpt lat="44.9238861" lon="5.3243399"><ele>1286.0</ele><time>2026-04-18T16:43:12.433Z</time></trkpt><trkpt lat="44.9240558" lon="5.3243572"><ele>1286.0</ele><time>2026-04-18T16:43:13.433Z</time></trkpt><trkpt lat="44.9242226" lon="5.3243938"><ele>1286.0</ele><time>2026-04-18T16:43:14.433Z</time></trkpt><trkpt lat="44.9243895" lon="5.3244601"><ele>1286.0</ele><time>2026-04-18T16:43:15.433Z</time></trkpt><trkpt lat="44.9245561" lon="5.3245508"><ele>1288.0</ele><time>2026-04-18T16:43:16.433Z</time></trkpt><trkpt lat="44.9247182" lon="5.3246542"><ele>1290.0</ele><time>2026-04-18T16:43:17.433Z</time></trkpt><trkpt lat="44.9248742" lon="5.324753"><ele>1292.0</ele><time>2026-04-18T16:43:18.433Z</time></trkpt><trkpt lat="44.9250387" lon="5.3248269"><ele>1289.3333333333335</ele><time>2026-04-18T16:43:19.433Z</time></trkpt><trkpt lat="44.9252138" lon="5.3248776"><ele>1286.6666666666667</ele><time>2026-04-18T16:43:20.433Z</time></trkpt><trkpt lat="44.9253943" lon="5.3248931"><ele>1284.0</ele><time>2026-04-18T16:43:21.433Z</time></trkpt><trkpt lat="44.9255771" lon="5.3249155"><ele>1284.0</ele><time>2026-04-18T16:43:22.434Z</time></trkpt><trkpt lat="44.925774" lon="5.3248457"><ele>1284.0</ele><time>2026-04-18T16:43:23.432Z</time></trkpt><trkpt lat="44.9259561" lon="5.3248091"><ele>1284.0</ele><time>2026-04-18T16:43:24.433Z</time></trkpt><trkpt lat="44.9261227" lon="5.3247747"><ele>1282.0</ele><time>2026-04-18T16:43:25.433Z</time></trkpt><trkpt lat="44.9262867" lon="5.3247661"><ele>1280.0</ele><time>2026-04-18T16:43:26.433Z</time></trkpt><trkpt lat="44.9264355" lon="5.3247903"><ele>1278.0</ele><time>2026-04-18T16:43:27.433Z</time></trkpt><trkpt lat="44.9265608" lon="5.3248309"><ele>1276.0</ele><time>2026-04-18T16:43:28.433Z</time></trkpt><trkpt lat="44.9266724" lon="5.324865"><ele>1274.5</ele><time>2026-04-18T16:43:29.433Z</time></trkpt><trkpt lat="44.9267817" lon="5.324858"><ele>1273.0</ele><time>2026-04-18T16:43:30.433Z</time></trkpt><trkpt lat="44.9268889" lon="5.3247882"><ele>1271.5</ele><time>2026-04-18T16:43:31.433Z</time></trkpt><trkpt lat="44.9269918" lon="5.3246678"><ele>1270.0</ele><time>2026-04-18T16:43:32.433Z</time></trkpt><trkpt lat="44.9270997" lon="5.3245089"><ele>1270.0</ele><time>2026-04-18T16:43:33.433Z</time></trkpt><trkpt lat="44.9272261" lon="5.324332"><ele>1270.0</ele><time>2026-04-18T16:43:34.433Z</time></trkpt><trkpt lat="44.9273661" lon="5.3241415"><ele>1270.0</ele><time>2026-04-18T16:43:35.432Z</time></trkpt><trkpt lat="44.9275044" lon="5.3239502"><ele>1268.3333333333333</ele><time>2026-04-18T16:43:36.433Z</time></trkpt><trkpt lat="44.927637" lon="5.3237626"><ele>1266.6666666666667</ele><time>2026-04-18T16:43:37.433Z</time></trkpt><trkpt lat="44.9277758" lon="5.3235806"><ele>1265.0</ele><time>2026-04-18T16:43:38.433Z</time></trkpt><trkpt lat="44.9279227" lon="5.3234077"><ele>1265.0</ele><time>2026-04-18T16:43:39.433Z</time></trkpt><trkpt lat="44.9280715" lon="5.3232524"><ele>1265.0</ele><time>2026-04-18T16:43:40.432Z</time></trkpt><trkpt lat="44.9282224" lon="5.3231134"><ele>1265.0</ele><time>2026-04-18T16:43:41.432Z</time></trkpt><trkpt lat="44.9283772" lon="5.3229818"><ele>1259.6666666666667</ele><time>2026-04-18T16:43:42.432Z</time></trkpt><trkpt lat="44.9285459" lon="5.3228748"><ele>1254.3333333333333</ele><time>2026-04-18T16:43:43.433Z</time></trkpt><trkpt lat="44.9287195" lon="5.3227781"><ele>1249.0</ele><time>2026-04-18T16:43:44.433Z</time></trkpt><trkpt lat="44.928939" lon="5.3227076"><ele>1249.0</ele><time>2026-04-18T16:43:45.433Z</time></trkpt><trkpt lat="44.9291495" lon="5.3226301"><ele>1249.0</ele><time>2026-04-18T16:43:46.433Z</time></trkpt><trkpt lat="44.9293618" lon="5.322559"><ele>1249.0</ele><time>2026-04-18T16:43:47.433Z</time></trkpt><trkpt lat="44.9295668" lon="5.3224996"><ele>1248.3333333333333</ele><time>2026-04-18T16:43:48.433Z</time></trkpt><trkpt lat="44.9297682" lon="5.3224475"><ele>1247.6666666666667</ele><time>2026-04-18T16:43:49.433Z</time></trkpt><trkpt lat="44.9299624" lon="5.3224022"><ele>1247.0</ele><time>2026-04-18T16:43:50.433Z</time></trkpt><trkpt lat="44.9301369" lon="5.3223598"><ele>1244.6666666666667</ele><time>2026-04-18T16:43:51.433Z</time></trkpt><trkpt lat="44.930295" lon="5.3223269"><ele>1242.3333333333333</ele><time>2026-04-18T16:43:52.433Z</time></trkpt><trkpt lat="44.9304447" lon="5.3223154"><ele>1240.0</ele><time>2026-04-18T16:43:53.433Z</time></trkpt><trkpt lat="44.9305928" lon="5.3223455"><ele>1240.0</ele><time>2026-04-18T16:43:54.433Z</time></trkpt><trkpt lat="44.9307322" lon="5.322422"><ele>1240.0</ele><time>2026-04-18T16:43:55.434Z</time></trkpt><trkpt lat="44.9308478" lon="5.3225404"><ele>1240.0</ele><time>2026-04-18T16:43:56.433Z</time></trkpt><trkpt lat="44.9309513" lon="5.322693"><ele>1240.0</ele><time>2026-04-18T16:43:57.433Z</time></trkpt><trkpt lat="44.9310451" lon="5.3228591"><ele>1240.0</ele><time>2026-04-18T16:43:58.432Z</time></trkpt><trkpt lat="44.9311366" lon="5.3230146"><ele>1240.0</ele><time>2026-04-18T16:43:59.433Z</time></trkpt><trkpt lat="44.9312411" lon="5.3231409"><ele>1240.0</ele><time>2026-04-18T16:44:00.433Z</time></trkpt><trkpt lat="44.9313539" lon="5.3232693"><ele>1240.0</ele><time>2026-04-18T16:44:01.433Z</time></trkpt><trkpt lat="44.9314932" lon="5.3233616"><ele>1240.0</ele><time>2026-04-18T16:44:02.433Z</time></trkpt><trkpt lat="44.931669" lon="5.3234447"><ele>1240.0</ele><time>2026-04-18T16:44:03.433Z</time></trkpt><trkpt lat="44.9318499" lon="5.3234323"><ele>1240.0</ele><time>2026-04-18T16:44:04.433Z</time></trkpt><trkpt lat="44.9320107" lon="5.3234724"><ele>1236.3333333333333</ele><time>2026-04-18T16:44:05.433Z</time></trkpt><trkpt lat="44.9321772" lon="5.3234857"><ele>1232.6666666666667</ele><time>2026-04-18T16:44:06.433Z</time></trkpt><trkpt lat="44.93235" lon="5.3234825"><ele>1229.0</ele><time>2026-04-18T16:44:07.433Z</time></trkpt><trkpt lat="44.9325048" lon="5.3234651"><ele>1226.25</ele><time>2026-04-18T16:44:08.433Z</time></trkpt><trkpt lat="44.9326502" lon="5.3234256"><ele>1223.5</ele><time>2026-04-18T16:44:09.432Z</time></trkpt><trkpt lat="44.9327849" lon="5.3234066"><ele>1220.75</ele><time>2026-04-18T16:44:10.433Z</time></trkpt><trkpt lat="44.932904" lon="5.3234291"><ele>1218.0</ele><time>2026-04-18T16:44:11.433Z</time></trkpt><trkpt lat="44.9330117" lon="5.3234618"><ele>1218.0</ele><time>2026-04-18T16:44:12.432Z</time></trkpt><trkpt lat="44.9331076" lon="5.3234913"><ele>1218.0</ele><time>2026-04-18T16:44:13.433Z</time></trkpt><trkpt lat="44.9331878" lon="5.3234837"><ele>1218.0</ele><time>2026-04-18T16:44:14.434Z</time></trkpt><trkpt lat="44.9332504" lon="5.3234248"><ele>1218.0</ele><time>2026-04-18T16:44:15.433Z</time></trkpt><trkpt lat="44.9332694" lon="5.3233374"><ele>1218.0</ele><time>2026-04-18T16:44:16.433Z</time></trkpt><trkpt lat="44.9331773" lon="5.3232074"><ele>1218.0</ele><time>2026-04-18T16:44:18.433Z</time></trkpt><trkpt lat="44.9330922" lon="5.3231729"><ele>1218.0</ele><time>2026-04-18T16:44:19.433Z</time></trkpt><trkpt lat="44.9329695" lon="5.3231527"><ele>1218.0</ele><time>2026-04-18T16:44:20.433Z</time></trkpt><trkpt lat="44.9328206" lon="5.3231458"><ele>1218.0</ele><time>2026-04-18T16:44:21.433Z</time></trkpt><trkpt lat="44.9326612" lon="5.3231545"><ele>1218.0</ele><time>2026-04-18T16:44:22.433Z</time></trkpt><trkpt lat="44.9324892" lon="5.323166"><ele>1220.75</ele><time>2026-04-18T16:44:23.433Z</time></trkpt><trkpt lat="44.9323298" lon="5.3231829"><ele>1223.5</ele><time>2026-04-18T16:44:24.432Z</time></trkpt><trkpt lat="44.9321948" lon="5.323181"><ele>1226.25</ele><time>2026-04-18T16:44:25.433Z</time></trkpt><trkpt lat="44.9320642" lon="5.3231414"><ele>1229.0</ele><time>2026-04-18T16:44:26.432Z</time></trkpt><trkpt lat="44.931941" lon="5.323073"><ele>1226.25</ele><time>2026-04-18T16:44:27.432Z</time></trkpt><trkpt lat="44.9318366" lon="5.322956"><ele>1223.5</ele><time>2026-04-18T16:44:28.433Z</time></trkpt><trkpt lat="44.9317544" lon="5.3228057"><ele>1220.75</ele><time>2026-04-18T16:44:29.433Z</time></trkpt><trkpt lat="44.9316903" lon="5.3226181"><ele>1218.0</ele><time>2026-04-18T16:44:30.433Z</time></trkpt><trkpt lat="44.931637" lon="5.3224301"><ele>1213.3333333333333</ele><time>2026-04-18T16:44:31.433Z</time></trkpt><trkpt lat="44.9315996" lon="5.3222223"><ele>1208.6666666666665</ele><time>2026-04-18T16:44:32.433Z</time></trkpt><trkpt lat="44.9315606" lon="5.321995"><ele>1204.0</ele><time>2026-04-18T16:44:33.433Z</time></trkpt><trkpt lat="44.9315235" lon="5.32178"><ele>1204.0</ele><time>2026-04-18T16:44:34.432Z</time></trkpt><trkpt lat="44.9314693" lon="5.3215715"><ele>1204.0</ele><time>2026-04-18T16:44:35.433Z</time></trkpt><trkpt lat="44.9313888" lon="5.321379"><ele>1204.0</ele><time>2026-04-18T16:44:36.433Z</time></trkpt><trkpt lat="44.9312944" lon="5.3212704"><ele>1204.0</ele><time>2026-04-18T16:44:37.433Z</time></trkpt><trkpt lat="44.9311266" lon="5.3211447"><ele>1203.0</ele><time>2026-04-18T16:44:38.432Z</time></trkpt><trkpt lat="44.9308534" lon="5.3210709"><ele>1202.0</ele><time>2026-04-18T16:44:39.432Z</time></trkpt><trkpt lat="44.9306892" lon="5.3209606"><ele>1202.0</ele><time>2026-04-18T16:44:40.433Z</time></trkpt><trkpt lat="44.9305205" lon="5.3208896"><ele>1202.0</ele><time>2026-04-18T16:44:41.433Z</time></trkpt><trkpt lat="44.9303435" lon="5.3208292"><ele>1202.0</ele><time>2026-04-18T16:44:42.433Z</time></trkpt><trkpt lat="44.9301512" lon="5.320781"><ele>1204.6666666666667</ele><time>2026-04-18T16:44:43.433Z</time></trkpt><trkpt lat="44.9299497" lon="5.3207416"><ele>1207.3333333333333</ele><time>2026-04-18T16:44:44.433Z</time></trkpt><trkpt lat="44.9297647" lon="5.3207101"><ele>1210.0</ele><time>2026-04-18T16:44:45.433Z</time></trkpt><trkpt lat="44.9295837" lon="5.3206788"><ele>1210.0</ele><time>2026-04-18T16:44:46.433Z</time></trkpt><trkpt lat="44.9294118" lon="5.3206604"><ele>1210.0</ele><time>2026-04-18T16:44:47.433Z</time></trkpt><trkpt lat="44.9292397" lon="5.3206614"><ele>1210.0</ele><time>2026-04-18T16:44:48.433Z</time></trkpt><trkpt lat="44.929059" lon="5.3206968"><ele>1208.6666666666665</ele><time>2026-04-18T16:44:49.433Z</time></trkpt><trkpt lat="44.9288735" lon="5.3207434"><ele>1207.3333333333333</ele><time>2026-04-18T16:44:50.433Z</time></trkpt><trkpt lat="44.9287065" lon="5.3208002"><ele>1206.0</ele><time>2026-04-18T16:44:51.433Z</time></trkpt><trkpt lat="44.9285431" lon="5.3208687"><ele>1206.0</ele><time>2026-04-18T16:44:52.433Z</time></trkpt><trkpt lat="44.928398" lon="5.3209476"><ele>1206.0</ele><time>2026-04-18T16:44:53.433Z</time></trkpt><trkpt lat="44.9282752" lon="5.3210348"><ele>1206.0</ele><time>2026-04-18T16:44:54.433Z</time></trkpt><trkpt lat="44.9281629" lon="5.3211158"><ele>1206.0</ele><time>2026-04-18T16:44:55.433Z</time></trkpt><trkpt lat="44.9280652" lon="5.3211822"><ele>1204.3999999999999</ele><time>2026-04-18T16:44:56.433Z</time></trkpt><trkpt lat="44.9279691" lon="5.3212267"><ele>1202.8</ele><time>2026-04-18T16:44:57.433Z</time></trkpt><trkpt lat="44.9278788" lon="5.3212358"><ele>1201.1999999999998</ele><time>2026-04-18T16:44:58.433Z</time></trkpt><trkpt lat="44.9278003" lon="5.3212067"><ele>1199.6</ele><time>2026-04-18T16:44:59.433Z</time></trkpt><trkpt lat="44.9277451" lon="5.3211431"><ele>1198.0</ele><time>2026-04-18T16:45:00.433Z</time></trkpt><trkpt lat="44.9276971" lon="5.3209876"><ele>1198.0</ele><time>2026-04-18T16:45:02.433Z</time></trkpt><trkpt lat="44.9277159" lon="5.3208189"><ele>1198.0</ele><time>2026-04-18T16:45:04.433Z</time></trkpt><trkpt lat="44.9277649" lon="5.3207122"><ele>1198.0</ele><time>2026-04-18T16:45:05.433Z</time></trkpt><trkpt lat="44.927838" lon="5.3205902"><ele>1198.0</ele><time>2026-04-18T16:45:06.433Z</time></trkpt><trkpt lat="44.9279356" lon="5.3204545"><ele>1199.0</ele><time>2026-04-18T16:45:07.432Z</time></trkpt><trkpt lat="44.928055" lon="5.3203071"><ele>1200.0</ele><time>2026-04-18T16:45:08.434Z</time></trkpt><trkpt lat="44.9281876" lon="5.3201684"><ele>1201.0</ele><time>2026-04-18T16:45:09.433Z</time></trkpt><trkpt lat="44.9283251" lon="5.3199964"><ele>1201.0</ele><time>2026-04-18T16:45:10.432Z</time></trkpt><trkpt lat="44.9284503" lon="5.3198155"><ele>1201.0</ele><time>2026-04-18T16:45:11.433Z</time></trkpt><trkpt lat="44.9285669" lon="5.3196592"><ele>1201.0</ele><time>2026-04-18T16:45:12.433Z</time></trkpt><trkpt lat="44.9286919" lon="5.3195343"><ele>1201.0</ele><time>2026-04-18T16:45:13.433Z</time></trkpt><trkpt lat="44.9288281" lon="5.3194368"><ele>1201.0</ele><time>2026-04-18T16:45:14.433Z</time></trkpt><trkpt lat="44.9289656" lon="5.3193299"><ele>1201.0</ele><time>2026-04-18T16:45:15.433Z</time></trkpt><trkpt lat="44.9291151" lon="5.3192281"><ele>1198.3333333333333</ele><time>2026-04-18T16:45:16.433Z</time></trkpt><trkpt lat="44.9292802" lon="5.3191494"><ele>1195.6666666666667</ele><time>2026-04-18T16:45:17.433Z</time></trkpt><trkpt lat="44.9294568" lon="5.3190676"><ele>1193.0</ele><time>2026-04-18T16:45:18.433Z</time></trkpt><trkpt lat="44.9296348" lon="5.3189912"><ele>1193.0</ele><time>2026-04-18T16:45:19.433Z</time></trkpt><trkpt lat="44.9298407" lon="5.3189454"><ele>1193.0</ele><time>2026-04-18T16:45:20.433Z</time></trkpt><trkpt lat="44.9300593" lon="5.3189344"><ele>1193.0</ele><time>2026-04-18T16:45:21.433Z</time></trkpt><trkpt lat="44.9302762" lon="5.3189094"><ele>1200.0</ele><time>2026-04-18T16:45:22.433Z</time></trkpt><trkpt lat="44.9304798" lon="5.3188915"><ele>1207.0</ele><time>2026-04-18T16:45:23.433Z</time></trkpt><trkpt lat="44.9306716" lon="5.3188751"><ele>1214.0</ele><time>2026-04-18T16:45:24.433Z</time></trkpt><trkpt lat="44.9308505" lon="5.318869"><ele>1211.0</ele><time>2026-04-18T16:45:25.433Z</time></trkpt><trkpt lat="44.9310264" lon="5.3188706"><ele>1208.0</ele><time>2026-04-18T16:45:26.433Z</time></trkpt><trkpt lat="44.931209" lon="5.3189045"><ele>1205.0</ele><time>2026-04-18T16:45:27.433Z</time></trkpt><trkpt lat="44.9313822" lon="5.3189288"><ele>1198.3333333333335</ele><time>2026-04-18T16:45:28.433Z</time></trkpt><trkpt lat="44.9315406" lon="5.3189769"><ele>1191.6666666666667</ele><time>2026-04-18T16:45:29.433Z</time></trkpt><trkpt lat="44.9317041" lon="5.3189406"><ele>1185.0</ele><time>2026-04-18T16:45:30.433Z</time></trkpt><trkpt lat="44.9318691" lon="5.3188787"><ele>1183.3333333333333</ele><time>2026-04-18T16:45:31.433Z</time></trkpt><trkpt lat="44.9320262" lon="5.3188135"><ele>1181.6666666666665</ele><time>2026-04-18T16:45:32.432Z</time></trkpt><trkpt lat="44.9321688" lon="5.3186917"><ele>1180.0</ele><time>2026-04-18T16:45:33.433Z</time></trkpt><trkpt lat="44.9322724" lon="5.3185014"><ele>1180.0</ele><time>2026-04-18T16:45:34.433Z</time></trkpt><trkpt lat="44.9323792" lon="5.3183321"><ele>1180.0</ele><time>2026-04-18T16:45:35.433Z</time></trkpt><trkpt lat="44.9324973" lon="5.3180862"><ele>1180.0</ele><time>2026-04-18T16:45:36.433Z</time></trkpt><trkpt lat="44.9326136" lon="5.3178593"><ele>1178.0</ele><time>2026-04-18T16:45:37.433Z</time></trkpt><trkpt lat="44.9327221" lon="5.3176523"><ele>1176.0</ele><time>2026-04-18T16:45:38.433Z</time></trkpt><trkpt lat="44.9328223" lon="5.3174659"><ele>1174.0</ele><time>2026-04-18T16:45:39.433Z</time></trkpt><trkpt lat="44.9329475" lon="5.3173053"><ele>1178.6666666666665</ele><time>2026-04-18T16:45:40.433Z</time></trkpt><trkpt lat="44.9330892" lon="5.3171735"><ele>1183.3333333333333</ele><time>2026-04-18T16:45:41.433Z</time></trkpt><trkpt lat="44.933236" lon="5.317066"><ele>1188.0</ele><time>2026-04-18T16:45:42.433Z</time></trkpt><trkpt lat="44.9333888" lon="5.3169974"><ele>1183.0</ele><time>2026-04-18T16:45:43.433Z</time></trkpt><trkpt lat="44.9335417" lon="5.3169518"><ele>1178.0</ele><time>2026-04-18T16:45:44.433Z</time></trkpt><trkpt lat="44.9336761" lon="5.3168776"><ele>1173.0</ele><time>2026-04-18T16:45:45.433Z</time></trkpt><trkpt lat="44.9338069" lon="5.3167962"><ele>1168.0</ele><time>2026-04-18T16:45:46.433Z</time></trkpt><trkpt lat="44.9338263" lon="5.3165947"><ele>1168.0</ele><time>2026-04-18T16:45:47.433Z</time></trkpt><trkpt lat="44.933874" lon="5.3164386"><ele>1168.0</ele><time>2026-04-18T16:45:48.433Z</time></trkpt><trkpt lat="44.9338952" lon="5.3162578"><ele>1168.0</ele><time>2026-04-18T16:45:49.433Z</time></trkpt><trkpt lat="44.9338583" lon="5.3160788"><ele>1168.0</ele><time>2026-04-18T16:45:50.433Z</time></trkpt><trkpt lat="44.933785" lon="5.3159165"><ele>1166.75</ele><time>2026-04-18T16:45:51.433Z</time></trkpt><trkpt lat="44.9336408" lon="5.3158202"><ele>1165.5</ele><time>2026-04-18T16:45:52.433Z</time></trkpt><trkpt lat="44.9335677" lon="5.3156935"><ele>1164.25</ele><time>2026-04-18T16:45:53.434Z</time></trkpt><trkpt lat="44.9335133" lon="5.3155568"><ele>1163.0</ele><time>2026-04-18T16:45:54.434Z</time></trkpt><trkpt lat="44.9334739" lon="5.3153949"><ele>1162.3333333333335</ele><time>2026-04-18T16:45:55.432Z</time></trkpt><trkpt lat="44.9335581" lon="5.3151989"><ele>1161.6666666666667</ele><time>2026-04-18T16:45:56.433Z</time></trkpt><trkpt lat="44.9335922" lon="5.3150132"><ele>1161.0</ele><time>2026-04-18T16:45:57.432Z</time></trkpt><trkpt lat="44.9336417" lon="5.3147986"><ele>1164.75</ele><time>2026-04-18T16:45:58.432Z</time></trkpt><trkpt lat="44.9336961" lon="5.3145808"><ele>1168.5</ele><time>2026-04-18T16:45:59.432Z</time></trkpt><trkpt lat="44.9337503" lon="5.3143917"><ele>1172.25</ele><time>2026-04-18T16:46:00.433Z</time></trkpt><trkpt lat="44.9338226" lon="5.3142452"><ele>1176.0</ele><time>2026-04-18T16:46:01.432Z</time></trkpt><trkpt lat="44.93392" lon="5.3141263"><ele>1176.0</ele><time>2026-04-18T16:46:02.433Z</time></trkpt><trkpt lat="44.9340369" lon="5.3140528"><ele>1176.0</ele><time>2026-04-18T16:46:03.433Z</time></trkpt><trkpt lat="44.9341795" lon="5.314014"><ele>1176.0</ele><time>2026-04-18T16:46:04.432Z</time></trkpt><trkpt lat="44.9343376" lon="5.3139759"><ele>1176.0</ele><time>2026-04-18T16:46:05.433Z</time></trkpt><trkpt lat="44.9344896" lon="5.3139472"><ele>1176.75</ele><time>2026-04-18T16:46:06.433Z</time></trkpt><trkpt lat="44.9346294" lon="5.3138811"><ele>1177.5</ele><time>2026-04-18T16:46:07.433Z</time></trkpt><trkpt lat="44.9347745" lon="5.313808"><ele>1178.25</ele><time>2026-04-18T16:46:08.434Z</time></trkpt><trkpt lat="44.9348886" lon="5.313714"><ele>1179.0</ele><time>2026-04-18T16:46:09.432Z</time></trkpt><trkpt lat="44.9349649" lon="5.3135836"><ele>1179.0</ele><time>2026-04-18T16:46:10.433Z</time></trkpt><trkpt lat="44.9350464" lon="5.3134155"><ele>1179.0</ele><time>2026-04-18T16:46:11.433Z</time></trkpt><trkpt lat="44.9351022" lon="5.3132143"><ele>1179.0</ele><time>2026-04-18T16:46:12.433Z</time></trkpt><trkpt lat="44.9350489" lon="5.3128471"><ele>1179.0</ele><time>2026-04-18T16:46:13.433Z</time></trkpt><trkpt lat="44.9350883" lon="5.3125985"><ele>1179.0</ele><time>2026-04-18T16:46:14.432Z</time></trkpt><trkpt lat="44.935127" lon="5.3123562"><ele>1179.0</ele><time>2026-04-18T16:46:15.433Z</time></trkpt><trkpt lat="44.935162" lon="5.3121514"><ele>1179.0</ele><time>2026-04-18T16:46:16.432Z</time></trkpt><trkpt lat="44.9351949" lon="5.3119505"><ele>1179.0</ele><time>2026-04-18T16:46:17.432Z</time></trkpt><trkpt lat="44.9352052" lon="5.3117524"><ele>1179.0</ele><time>2026-04-18T16:46:18.433Z</time></trkpt><trkpt lat="44.9351398" lon="5.3115223"><ele>1179.0</ele><time>2026-04-18T16:46:19.432Z</time></trkpt><trkpt lat="44.9350965" lon="5.3112861"><ele>1179.0</ele><time>2026-04-18T16:46:20.433Z</time></trkpt><trkpt lat="44.9350439" lon="5.3110344"><ele>1179.0</ele><time>2026-04-18T16:46:21.433Z</time></trkpt><trkpt lat="44.9349872" lon="5.310791"><ele>1176.6666666666667</ele><time>2026-04-18T16:46:22.432Z</time></trkpt><trkpt lat="44.9349186" lon="5.3105567"><ele>1174.3333333333335</ele><time>2026-04-18T16:46:23.433Z</time></trkpt><trkpt lat="44.9348396" lon="5.310349"><ele>1172.0</ele><time>2026-04-18T16:46:24.433Z</time></trkpt><trkpt lat="44.9347442" lon="5.3101586"><ele>1172.0</ele><time>2026-04-18T16:46:25.433Z</time></trkpt><trkpt lat="44.9346577" lon="5.3099756"><ele>1172.0</ele><time>2026-04-18T16:46:26.433Z</time></trkpt><trkpt lat="44.9345647" lon="5.3098353"><ele>1172.0</ele><time>2026-04-18T16:46:27.433Z</time></trkpt><trkpt lat="44.9344875" lon="5.3096797"><ele>1172.0</ele><time>2026-04-18T16:46:28.433Z</time></trkpt><trkpt lat="44.9344419" lon="5.309512"><ele>1170.75</ele><time>2026-04-18T16:46:29.433Z</time></trkpt><trkpt lat="44.9344378" lon="5.3093352"><ele>1169.5</ele><time>2026-04-18T16:46:30.433Z</time></trkpt><trkpt lat="44.9344937" lon="5.309145"><ele>1168.25</ele><time>2026-04-18T16:46:31.433Z</time></trkpt><trkpt lat="44.9345344" lon="5.3089382"><ele>1167.0</ele><time>2026-04-18T16:46:32.432Z</time></trkpt><trkpt lat="44.9346168" lon="5.3087093"><ele>1167.0</ele><time>2026-04-18T16:46:33.433Z</time></trkpt><trkpt lat="44.9346879" lon="5.3084811"><ele>1167.0</ele><time>2026-04-18T16:46:34.433Z</time></trkpt><trkpt lat="44.9347538" lon="5.3082878"><ele>1167.0</ele><time>2026-04-18T16:46:35.433Z</time></trkpt><trkpt lat="44.9348189" lon="5.308106"><ele>1165.0</ele><time>2026-04-18T16:46:36.433Z</time></trkpt><trkpt lat="44.9349232" lon="5.3079551"><ele>1163.0</ele><time>2026-04-18T16:46:37.432Z</time></trkpt><trkpt lat="44.9350469" lon="5.3078343"><ele>1161.0</ele><time>2026-04-18T16:46:38.433Z</time></trkpt><trkpt lat="44.9351679" lon="5.3076987"><ele>1161.0</ele><time>2026-04-18T16:46:39.433Z</time></trkpt><trkpt lat="44.9353161" lon="5.3075638"><ele>1161.0</ele><time>2026-04-18T16:46:40.433Z</time></trkpt><trkpt lat="44.9354903" lon="5.3074389"><ele>1161.0</ele><time>2026-04-18T16:46:41.433Z</time></trkpt><trkpt lat="44.9356698" lon="5.3072935"><ele>1161.3333333333333</ele><time>2026-04-18T16:46:42.432Z</time></trkpt><trkpt lat="44.9358788" lon="5.3071896"><ele>1161.6666666666665</ele><time>2026-04-18T16:46:43.433Z</time></trkpt><trkpt lat="44.9360886" lon="5.3070868"><ele>1162.0</ele><time>2026-04-18T16:46:44.432Z</time></trkpt><trkpt lat="44.936264" lon="5.3069836"><ele>1162.0</ele><time>2026-04-18T16:46:45.433Z</time></trkpt><trkpt lat="44.9364389" lon="5.3068741"><ele>1162.0</ele><time>2026-04-18T16:46:46.433Z</time></trkpt><trkpt lat="44.9366069" lon="5.3067602"><ele>1162.0</ele><time>2026-04-18T16:46:47.433Z</time></trkpt><trkpt lat="44.9367312" lon="5.3068179"><ele>1161.6666666666665</ele><time>2026-04-18T16:46:48.433Z</time></trkpt><trkpt lat="44.9368799" lon="5.3068237"><ele>1161.3333333333333</ele><time>2026-04-18T16:46:49.434Z</time></trkpt><trkpt lat="44.9370207" lon="5.3068859"><ele>1161.0</ele><time>2026-04-18T16:46:50.433Z</time></trkpt><trkpt lat="44.9371649" lon="5.3069934"><ele>1161.0</ele><time>2026-04-18T16:46:51.432Z</time></trkpt><trkpt lat="44.9373082" lon="5.3071138"><ele>1161.0</ele><time>2026-04-18T16:46:52.433Z</time></trkpt><trkpt lat="44.9374614" lon="5.30726"><ele>1161.0</ele><time>2026-04-18T16:46:53.433Z</time></trkpt><trkpt lat="44.9376237" lon="5.3074164"><ele>1159.3333333333333</ele><time>2026-04-18T16:46:54.433Z</time></trkpt><trkpt lat="44.9377828" lon="5.307571"><ele>1157.6666666666665</ele><time>2026-04-18T16:46:55.433Z</time></trkpt><trkpt lat="44.9379276" lon="5.307714"><ele>1156.0</ele><time>2026-04-18T16:46:56.433Z</time></trkpt><trkpt lat="44.9380784" lon="5.3078561"><ele>1156.0</ele><time>2026-04-18T16:46:57.432Z</time></trkpt><trkpt lat="44.9382055" lon="5.3080252"><ele>1156.0</ele><time>2026-04-18T16:46:58.433Z</time></trkpt><trkpt lat="44.9383034" lon="5.3082174"><ele>1156.0</ele><time>2026-04-18T16:46:59.433Z</time></trkpt><trkpt lat="44.938412" lon="5.3083872"><ele>1153.6666666666665</ele><time>2026-04-18T16:47:00.433Z</time></trkpt><trkpt lat="44.9385168" lon="5.3085702"><ele>1151.3333333333333</ele><time>2026-04-18T16:47:01.433Z</time></trkpt><trkpt lat="44.9386248" lon="5.3087464"><ele>1149.0</ele><time>2026-04-18T16:47:02.433Z</time></trkpt><trkpt lat="44.9387238" lon="5.3088902"><ele>1149.3333333333333</ele><time>2026-04-18T16:47:03.432Z</time></trkpt><trkpt lat="44.9388442" lon="5.3090253"><ele>1149.6666666666665</ele><time>2026-04-18T16:47:04.433Z</time></trkpt><trkpt lat="44.9389774" lon="5.3091254"><ele>1150.0</ele><time>2026-04-18T16:47:05.433Z</time></trkpt><trkpt lat="44.9391477" lon="5.3091581"><ele>1148.5</ele><time>2026-04-18T16:47:06.433Z</time></trkpt><trkpt lat="44.9392511" lon="5.3091544"><ele>1147.0</ele><time>2026-04-18T16:47:07.433Z</time></trkpt><trkpt lat="44.9393772" lon="5.3091424"><ele>1145.5</ele><time>2026-04-18T16:47:08.432Z</time></trkpt><trkpt lat="44.9395233" lon="5.3090568"><ele>1144.0</ele><time>2026-04-18T16:47:09.433Z</time></trkpt><trkpt lat="44.9396852" lon="5.3088387"><ele>1144.0</ele><time>2026-04-18T16:47:10.433Z</time></trkpt><trkpt lat="44.9398392" lon="5.3087541"><ele>1144.0</ele><time>2026-04-18T16:47:11.433Z</time></trkpt><trkpt lat="44.9400005" lon="5.3086783"><ele>1144.0</ele><time>2026-04-18T16:47:12.433Z</time></trkpt><trkpt lat="44.9401687" lon="5.3086328"><ele>1143.0</ele><time>2026-04-18T16:47:13.433Z</time></trkpt><trkpt lat="44.9403394" lon="5.3086019"><ele>1142.0</ele><time>2026-04-18T16:47:14.432Z</time></trkpt><trkpt lat="44.9404985" lon="5.3086981"><ele>1141.0</ele><time>2026-04-18T16:47:15.433Z</time></trkpt><trkpt lat="44.9406537" lon="5.3087332"><ele>1141.0</ele><time>2026-04-18T16:47:16.433Z</time></trkpt><trkpt lat="44.9408015" lon="5.3087856"><ele>1141.0</ele><time>2026-04-18T16:47:17.433Z</time></trkpt><trkpt lat="44.9409322" lon="5.308823"><ele>1141.0</ele><time>2026-04-18T16:47:18.434Z</time></trkpt><trkpt lat="44.9410538" lon="5.3088571"><ele>1141.0</ele><time>2026-04-18T16:47:19.433Z</time></trkpt><trkpt lat="44.9411719" lon="5.3088959"><ele>1140.3333333333333</ele><time>2026-04-18T16:47:20.433Z</time></trkpt><trkpt lat="44.9413096" lon="5.3088333"><ele>1139.6666666666667</ele><time>2026-04-18T16:47:21.433Z</time></trkpt><trkpt lat="44.9414584" lon="5.3088049"><ele>1139.0</ele><time>2026-04-18T16:47:22.432Z</time></trkpt><trkpt lat="44.9416221" lon="5.3087939"><ele>1139.6666666666667</ele><time>2026-04-18T16:47:23.433Z</time></trkpt><trkpt lat="44.941803" lon="5.3087862"><ele>1140.3333333333333</ele><time>2026-04-18T16:47:24.433Z</time></trkpt><trkpt lat="44.9420027" lon="5.308775"><ele>1141.0</ele><time>2026-04-18T16:47:25.433Z</time></trkpt><trkpt lat="44.9422099" lon="5.308764"><ele>1141.0</ele><time>2026-04-18T16:47:26.433Z</time></trkpt><trkpt lat="44.9424214" lon="5.3087628"><ele>1141.0</ele><time>2026-04-18T16:47:27.434Z</time></trkpt><trkpt lat="44.9426446" lon="5.3087807"><ele>1141.0</ele><time>2026-04-18T16:47:28.432Z</time></trkpt><trkpt lat="44.9428723" lon="5.3087989"><ele>1143.0</ele><time>2026-04-18T16:47:29.433Z</time></trkpt><trkpt lat="44.9430961" lon="5.308818"><ele>1145.0</ele><time>2026-04-18T16:47:30.433Z</time></trkpt><trkpt lat="44.9432943" lon="5.3088221"><ele>1147.0</ele><time>2026-04-18T16:47:31.433Z</time></trkpt><trkpt lat="44.9434782" lon="5.3088497"><ele>1143.6666666666665</ele><time>2026-04-18T16:47:32.432Z</time></trkpt><trkpt lat="44.9436576" lon="5.3089288"><ele>1140.3333333333333</ele><time>2026-04-18T16:47:33.433Z</time></trkpt><trkpt lat="44.9438323" lon="5.3090457"><ele>1137.0</ele><time>2026-04-18T16:47:34.432Z</time></trkpt><trkpt lat="44.9440129" lon="5.3091672"><ele>1137.0</ele><time>2026-04-18T16:47:35.433Z</time></trkpt><trkpt lat="44.9441961" lon="5.3092869"><ele>1137.0</ele><time>2026-04-18T16:47:36.432Z</time></trkpt><trkpt lat="44.9444105" lon="5.3094084"><ele>1137.0</ele><time>2026-04-18T16:47:37.433Z</time></trkpt><trkpt lat="44.9446141" lon="5.3095419"><ele>1137.0</ele><time>2026-04-18T16:47:38.432Z</time></trkpt><trkpt lat="44.9448277" lon="5.3096743"><ele>1137.0</ele><time>2026-04-18T16:47:39.432Z</time></trkpt><trkpt lat="44.9450337" lon="5.3097971"><ele>1140.3333333333333</ele><time>2026-04-18T16:47:40.433Z</time></trkpt><trkpt lat="44.9452298" lon="5.3099022"><ele>1143.6666666666665</ele><time>2026-04-18T16:47:41.433Z</time></trkpt><trkpt lat="44.9454238" lon="5.3100032"><ele>1147.0</ele><time>2026-04-18T16:47:42.433Z</time></trkpt><trkpt lat="44.9456139" lon="5.3100981"><ele>1147.0</ele><time>2026-04-18T16:47:43.433Z</time></trkpt><trkpt lat="44.9457989" lon="5.3101894"><ele>1147.0</ele><time>2026-04-18T16:47:44.433Z</time></trkpt><trkpt lat="44.9460241" lon="5.3102722"><ele>1147.0</ele><time>2026-04-18T16:47:45.433Z</time></trkpt><trkpt lat="44.9462507" lon="5.3101688"><ele>1151.0</ele><time>2026-04-18T16:47:46.433Z</time></trkpt><trkpt lat="44.9464712" lon="5.3101677"><ele>1155.0</ele><time>2026-04-18T16:47:47.433Z</time></trkpt><trkpt lat="44.9467054" lon="5.3101593"><ele>1156.5</ele><time>2026-04-18T16:47:48.432Z</time></trkpt><trkpt lat="44.9469389" lon="5.3101268"><ele>1158.0</ele><time>2026-04-18T16:47:49.433Z</time></trkpt><trkpt lat="44.9471701" lon="5.3100923"><ele>1158.0</ele><time>2026-04-18T16:47:50.432Z</time></trkpt><trkpt lat="44.947393" lon="5.310055"><ele>1158.0</ele><time>2026-04-18T16:47:51.434Z</time></trkpt><trkpt lat="44.947608" lon="5.3100323"><ele>1158.0</ele><time>2026-04-18T16:47:52.433Z</time></trkpt><trkpt lat="44.9478115" lon="5.310006"><ele>1156.3333333333333</ele><time>2026-04-18T16:47:53.433Z</time></trkpt><trkpt lat="44.9480091" lon="5.3099761"><ele>1154.6666666666665</ele><time>2026-04-18T16:47:54.433Z</time></trkpt><trkpt lat="44.9482012" lon="5.3099367"><ele>1153.0</ele><time>2026-04-18T16:47:55.433Z</time></trkpt><trkpt lat="44.9483933" lon="5.3098743"><ele>1151.6666666666665</ele><time>2026-04-18T16:47:56.433Z</time></trkpt><trkpt lat="44.9485862" lon="5.3097941"><ele>1150.3333333333333</ele><time>2026-04-18T16:47:57.433Z</time></trkpt><trkpt lat="44.9487772" lon="5.3096985"><ele>1149.0</ele><time>2026-04-18T16:47:58.433Z</time></trkpt><trkpt lat="44.9489728" lon="5.3095696"><ele>1154.6666666666667</ele><time>2026-04-18T16:47:59.433Z</time></trkpt><trkpt lat="44.9491694" lon="5.3094385"><ele>1160.3333333333335</ele><time>2026-04-18T16:48:00.433Z</time></trkpt><trkpt lat="44.9493431" lon="5.3093127"><ele>1166.0</ele><time>2026-04-18T16:48:01.433Z</time></trkpt><trkpt lat="44.9494969" lon="5.3092028"><ele>1166.0</ele><time>2026-04-18T16:48:02.433Z</time></trkpt><trkpt lat="44.9496679" lon="5.3091285"><ele>1166.0</ele><time>2026-04-18T16:48:03.432Z</time></trkpt><trkpt lat="44.9498426" lon="5.3090339"><ele>1166.0</ele><time>2026-04-18T16:48:04.433Z</time></trkpt><trkpt lat="44.95003" lon="5.30902"><ele>1164.3333333333335</ele><time>2026-04-18T16:48:05.432Z</time></trkpt><trkpt lat="44.9502222" lon="5.3089588"><ele>1162.6666666666667</ele><time>2026-04-18T16:48:06.433Z</time></trkpt><trkpt lat="44.9504198" lon="5.3088732"><ele>1161.0</ele><time>2026-04-18T16:48:07.433Z</time></trkpt><trkpt lat="44.9506064" lon="5.3088197"><ele>1163.6666666666667</ele><time>2026-04-18T16:48:08.434Z</time></trkpt><trkpt lat="44.9507799" lon="5.3087727"><ele>1166.3333333333335</ele><time>2026-04-18T16:48:09.433Z</time></trkpt><trkpt lat="44.9509466" lon="5.3087149"><ele>1169.0</ele><time>2026-04-18T16:48:10.433Z</time></trkpt><trkpt lat="44.9511019" lon="5.308597"><ele>1169.0</ele><time>2026-04-18T16:48:11.433Z</time></trkpt><trkpt lat="44.9512546" lon="5.3084928"><ele>1169.0</ele><time>2026-04-18T16:48:12.433Z</time></trkpt><trkpt lat="44.9514015" lon="5.3083569"><ele>1169.0</ele><time>2026-04-18T16:48:13.432Z</time></trkpt><trkpt lat="44.9515184" lon="5.3082645"><ele>1169.0</ele><time>2026-04-18T16:48:14.433Z</time></trkpt><trkpt lat="44.9516313" lon="5.3081716"><ele>1169.0</ele><time>2026-04-18T16:48:15.433Z</time></trkpt><trkpt lat="44.951718" lon="5.3080998"><ele>1169.0</ele><time>2026-04-18T16:48:16.433Z</time></trkpt><trkpt lat="44.9517652" lon="5.3080253"><ele>1169.0</ele><time>2026-04-18T16:48:17.433Z</time></trkpt><trkpt lat="44.9517734" lon="5.3079317"><ele>1169.0</ele><time>2026-04-18T16:48:25.433Z</time></trkpt><trkpt lat="44.9516939" lon="5.3078642"><ele>1172.0</ele><time>2026-04-18T16:48:37.433Z</time></trkpt><trkpt lat="44.951592" lon="5.3077671"><ele>1175.0</ele><time>2026-04-18T16:48:39.433Z</time></trkpt><trkpt lat="44.95153" lon="5.3077299"><ele>1178.0</ele><time>2026-04-18T16:48:40.433Z</time></trkpt><trkpt lat="44.9514543" lon="5.3077972"><ele>1181.0</ele><time>2026-04-18T16:48:42.433Z</time></trkpt><trkpt lat="44.9513935" lon="5.3078433"><ele>1184.0</ele><time>2026-04-18T16:48:43.433Z</time></trkpt><trkpt lat="44.9513437" lon="5.3079011"><ele>1187.0</ele><time>2026-04-18T16:48:44.433Z</time></trkpt><trkpt lat="44.9513139" lon="5.307984"><ele>1184.0</ele><time>2026-04-18T16:48:45.433Z</time></trkpt><trkpt lat="44.9513069" lon="5.3080875"><ele>1181.0</ele><time>2026-04-18T16:48:46.433Z</time></trkpt><trkpt lat="44.9512245" lon="5.3082255"><ele>1178.0</ele><time>2026-04-18T16:48:48.433Z</time></trkpt><trkpt lat="44.9511531" lon="5.308263"><ele>1175.0</ele><time>2026-04-18T16:48:49.433Z</time></trkpt><trkpt lat="44.9510752" lon="5.308289"><ele>1172.0</ele><time>2026-04-18T16:48:50.432Z</time></trkpt><trkpt lat="44.9509921" lon="5.3083126"><ele>1169.0</ele><time>2026-04-18T16:48:51.433Z</time></trkpt><trkpt lat="44.9508977" lon="5.3083234"><ele>1170.0</ele><time>2026-04-18T16:48:52.432Z</time></trkpt><trkpt lat="44.9508084" lon="5.3083306"><ele>1171.0</ele><time>2026-04-18T16:48:53.433Z</time></trkpt><trkpt lat="44.9507092" lon="5.30833"><ele>1172.0</ele><time>2026-04-18T16:48:54.433Z</time></trkpt><trkpt lat="44.9506078" lon="5.3083443"><ele>1173.0</ele><time>2026-04-18T16:48:55.433Z</time></trkpt><trkpt lat="44.9505202" lon="5.3083205"><ele>1174.0</ele><time>2026-04-18T16:48:56.433Z</time></trkpt><trkpt lat="44.9504514" lon="5.3083003"><ele>1174.0</ele><time>2026-04-18T16:48:57.432Z</time></trkpt><trkpt lat="44.9503497" lon="5.3082666"><ele>1174.0</ele><time>2026-04-18T16:48:59.434Z</time></trkpt><trkpt lat="44.9502826" lon="5.3082743"><ele>1174.0</ele><time>2026-04-18T16:49:00.433Z</time></trkpt><trkpt lat="44.9502142" lon="5.308272"><ele>1174.0</ele><time>2026-04-18T16:49:01.432Z</time></trkpt><trkpt lat="44.9500774" lon="5.3083031"><ele>1174.0</ele><time>2026-04-18T16:49:03.433Z</time></trkpt><trkpt lat="44.9499868" lon="5.3083539"><ele>1175.8</ele><time>2026-04-18T16:49:04.432Z</time></trkpt><trkpt lat="44.9498958" lon="5.3083723"><ele>1177.6000000000001</ele><time>2026-04-18T16:49:05.433Z</time></trkpt><trkpt lat="44.9497994" lon="5.3083913"><ele>1179.4</ele><time>2026-04-18T16:49:06.433Z</time></trkpt><trkpt lat="44.9496943" lon="5.308404"><ele>1181.2</ele><time>2026-04-18T16:49:07.433Z</time></trkpt><trkpt lat="44.9496064" lon="5.3084167"><ele>1183.0</ele><time>2026-04-18T16:49:08.433Z</time></trkpt><trkpt lat="44.9495133" lon="5.3084346"><ele>1183.0</ele><time>2026-04-18T16:49:09.433Z</time></trkpt><trkpt lat="44.9494164" lon="5.3084675"><ele>1183.0</ele><time>2026-04-18T16:49:10.433Z</time></trkpt><trkpt lat="44.9493351" lon="5.308503"><ele>1183.0</ele><time>2026-04-18T16:49:11.433Z</time></trkpt><trkpt lat="44.9492643" lon="5.3085904"><ele>1183.0</ele><time>2026-04-18T16:49:12.432Z</time></trkpt><trkpt lat="44.9491896" lon="5.3086733"><ele>1183.0</ele><time>2026-04-18T16:49:13.433Z</time></trkpt><trkpt lat="44.9490994" lon="5.3087485"><ele>1181.2</ele><time>2026-04-18T16:49:14.433Z</time></trkpt><trkpt lat="44.9490006" lon="5.3088095"><ele>1179.4</ele><time>2026-04-18T16:49:15.433Z</time></trkpt><trkpt lat="44.9488941" lon="5.3088628"><ele>1177.6000000000001</ele><time>2026-04-18T16:49:16.433Z</time></trkpt><trkpt lat="44.948793" lon="5.3089024"><ele>1175.8</ele><time>2026-04-18T16:49:17.433Z</time></trkpt><trkpt lat="44.9486831" lon="5.3089356"><ele>1174.0</ele><time>2026-04-18T16:49:18.433Z</time></trkpt><trkpt lat="44.9485775" lon="5.3089653"><ele>1174.0</ele><time>2026-04-18T16:49:19.433Z</time></trkpt><trkpt lat="44.9484742" lon="5.3090003"><ele>1174.0</ele><time>2026-04-18T16:49:20.433Z</time></trkpt><trkpt lat="44.948372" lon="5.309"><ele>1174.0</ele><time>2026-04-18T16:49:22.433Z</time></trkpt><trkpt lat="44.948221" lon="5.3089881"><ele>1174.0</ele><time>2026-04-18T16:49:24.433Z</time></trkpt><trkpt lat="44.9481239" lon="5.3089813"><ele>1176.0</ele><time>2026-04-18T16:49:25.433Z</time></trkpt><trkpt lat="44.9480169" lon="5.3089982"><ele>1178.0</ele><time>2026-04-18T16:49:26.433Z</time></trkpt><trkpt lat="44.9479126" lon="5.3089984"><ele>1180.0</ele><time>2026-04-18T16:49:27.432Z</time></trkpt><trkpt lat="44.947802" lon="5.3090056"><ele>1182.0</ele><time>2026-04-18T16:49:28.432Z</time></trkpt><trkpt lat="44.9476864" lon="5.3090105"><ele>1184.0</ele><time>2026-04-18T16:49:29.433Z</time></trkpt><trkpt lat="44.9475662" lon="5.3090086"><ele>1184.75</ele><time>2026-04-18T16:49:30.433Z</time></trkpt><trkpt lat="44.947444" lon="5.3089952"><ele>1185.5</ele><time>2026-04-18T16:49:31.433Z</time></trkpt><trkpt lat="44.9473184" lon="5.3089769"><ele>1186.25</ele><time>2026-04-18T16:49:32.432Z</time></trkpt><trkpt lat="44.9471928" lon="5.3089568"><ele>1187.0</ele><time>2026-04-18T16:49:33.433Z</time></trkpt><trkpt lat="44.9470735" lon="5.3089394"><ele>1187.0</ele><time>2026-04-18T16:49:34.434Z</time></trkpt><trkpt lat="44.9469628" lon="5.3089218"><ele>1187.0</ele><time>2026-04-18T16:49:35.433Z</time></trkpt><trkpt lat="44.9468513" lon="5.3088974"><ele>1187.0</ele><time>2026-04-18T16:49:36.433Z</time></trkpt><trkpt lat="44.946739" lon="5.3088646"><ele>1187.0</ele><time>2026-04-18T16:49:37.433Z</time></trkpt><trkpt lat="44.9466322" lon="5.3088388"><ele>1187.0</ele><time>2026-04-18T16:49:38.432Z</time></trkpt><trkpt lat="44.9465322" lon="5.3087951"><ele>1193.75</ele><time>2026-04-18T16:49:39.433Z</time></trkpt><trkpt lat="44.9464152" lon="5.3087311"><ele>1200.5</ele><time>2026-04-18T16:49:40.434Z</time></trkpt><trkpt lat="44.9463018" lon="5.3086703"><ele>1207.25</ele><time>2026-04-18T16:49:41.433Z</time></trkpt><trkpt lat="44.9461983" lon="5.3086248"><ele>1214.0</ele><time>2026-04-18T16:49:42.433Z</time></trkpt><trkpt lat="44.9460962" lon="5.3085722"><ele>1214.0</ele><time>2026-04-18T16:49:43.433Z</time></trkpt><trkpt lat="44.9459947" lon="5.3085039"><ele>1214.0</ele><time>2026-04-18T16:49:44.433Z</time></trkpt><trkpt lat="44.9458886" lon="5.3084403"><ele>1214.0</ele><time>2026-04-18T16:49:45.432Z</time></trkpt><trkpt lat="44.9457726" lon="5.3082927"><ele>1214.0</ele><time>2026-04-18T16:49:47.433Z</time></trkpt><trkpt lat="44.945704" lon="5.3081972"><ele>1215.4</ele><time>2026-04-18T16:49:48.433Z</time></trkpt><trkpt lat="44.9456352" lon="5.3081231"><ele>1216.8000000000002</ele><time>2026-04-18T16:49:49.433Z</time></trkpt><trkpt lat="44.9455711" lon="5.3080352"><ele>1218.1999999999998</ele><time>2026-04-18T16:49:50.432Z</time></trkpt><trkpt lat="44.9454803" lon="5.3079146"><ele>1219.6</ele><time>2026-04-18T16:49:51.433Z</time></trkpt><trkpt lat="44.9453937" lon="5.3078105"><ele>1221.0</ele><time>2026-04-18T16:49:52.432Z</time></trkpt><trkpt lat="44.9453079" lon="5.3076548"><ele>1221.0</ele><time>2026-04-18T16:49:53.433Z</time></trkpt><trkpt lat="44.9452354" lon="5.3074852"><ele>1221.0</ele><time>2026-04-18T16:49:54.432Z</time></trkpt><trkpt lat="44.9451592" lon="5.3073398"><ele>1221.0</ele><time>2026-04-18T16:49:55.433Z</time></trkpt><trkpt lat="44.9450733" lon="5.3071725"><ele>1221.0</ele><time>2026-04-18T16:49:56.433Z</time></trkpt><trkpt lat="44.9449899" lon="5.3070134"><ele>1219.5</ele><time>2026-04-18T16:49:57.433Z</time></trkpt><trkpt lat="44.9449017" lon="5.3068795"><ele>1218.0</ele><time>2026-04-18T16:49:58.433Z</time></trkpt><trkpt lat="44.94482" lon="5.306746"><ele>1216.5</ele><time>2026-04-18T16:49:59.433Z</time></trkpt><trkpt lat="44.9447446" lon="5.3066108"><ele>1215.0</ele><time>2026-04-18T16:50:00.433Z</time></trkpt><trkpt lat="44.9446496" lon="5.3065021"><ele>1220.5</ele><time>2026-04-18T16:50:01.433Z</time></trkpt><trkpt lat="44.9445616" lon="5.3063747"><ele>1226.0</ele><time>2026-04-18T16:50:02.433Z</time></trkpt><trkpt lat="44.9444657" lon="5.3062874"><ele>1231.5</ele><time>2026-04-18T16:50:03.432Z</time></trkpt><trkpt lat="44.9443273" lon="5.3062287"><ele>1237.0</ele><time>2026-04-18T16:50:04.432Z</time></trkpt><trkpt lat="44.9442226" lon="5.3061504"><ele>1232.25</ele><time>2026-04-18T16:50:05.433Z</time></trkpt><trkpt lat="44.9441045" lon="5.3060442"><ele>1227.5</ele><time>2026-04-18T16:50:06.432Z</time></trkpt><trkpt lat="44.9439926" lon="5.3059515"><ele>1222.75</ele><time>2026-04-18T16:50:07.434Z</time></trkpt><trkpt lat="44.943894" lon="5.3058555"><ele>1218.0</ele><time>2026-04-18T16:50:08.433Z</time></trkpt><trkpt lat="44.9437688" lon="5.3057429"><ele>1218.0</ele><time>2026-04-18T16:50:09.433Z</time></trkpt><trkpt lat="44.9436471" lon="5.3056515"><ele>1218.0</ele><time>2026-04-18T16:50:10.433Z</time></trkpt><trkpt lat="44.9435224" lon="5.3055619"><ele>1218.0</ele><time>2026-04-18T16:50:11.433Z</time></trkpt><trkpt lat="44.9434128" lon="5.3054811"><ele>1218.0</ele><time>2026-04-18T16:50:12.433Z</time></trkpt><trkpt lat="44.9433029" lon="5.3054002"><ele>1220.75</ele><time>2026-04-18T16:50:13.433Z</time></trkpt><trkpt lat="44.9432002" lon="5.305324"><ele>1223.5</ele><time>2026-04-18T16:50:14.432Z</time></trkpt><trkpt lat="44.9430757" lon="5.3052428"><ele>1226.25</ele><time>2026-04-18T16:50:15.433Z</time></trkpt><trkpt lat="44.9429508" lon="5.3051571"><ele>1229.0</ele><time>2026-04-18T16:50:16.433Z</time></trkpt><trkpt lat="44.9428225" lon="5.3050574"><ele>1229.0</ele><time>2026-04-18T16:50:17.433Z</time></trkpt><trkpt lat="44.9426751" lon="5.3049991"><ele>1229.0</ele><time>2026-04-18T16:50:19.433Z</time></trkpt><trkpt lat="44.9425761" lon="5.3049692"><ele>1229.0</ele><time>2026-04-18T16:50:20.433Z</time></trkpt><trkpt lat="44.942502" lon="5.3049536"><ele>1229.0</ele><time>2026-04-18T16:50:21.433Z</time></trkpt><trkpt lat="44.9424355" lon="5.304909"><ele>1229.0</ele><time>2026-04-18T16:50:22.433Z</time></trkpt><trkpt lat="44.9423633" lon="5.3048753"><ele>1227.8333333333335</ele><time>2026-04-18T16:50:23.433Z</time></trkpt><trkpt lat="44.9422848" lon="5.3048381"><ele>1226.6666666666667</ele><time>2026-04-18T16:50:24.433Z</time></trkpt><trkpt lat="44.9422156" lon="5.3047988"><ele>1225.5</ele><time>2026-04-18T16:50:25.433Z</time></trkpt><trkpt lat="44.9421436" lon="5.3048057"><ele>1224.3333333333333</ele><time>2026-04-18T16:50:26.433Z</time></trkpt><trkpt lat="44.9420675" lon="5.3047978"><ele>1223.1666666666665</ele><time>2026-04-18T16:50:27.433Z</time></trkpt><trkpt lat="44.9419975" lon="5.3047703"><ele>1222.0</ele><time>2026-04-18T16:50:28.433Z</time></trkpt><trkpt lat="44.9419021" lon="5.3047468"><ele>1227.0</ele><time>2026-04-18T16:50:29.433Z</time></trkpt><trkpt lat="44.9417943" lon="5.3047153"><ele>1232.0</ele><time>2026-04-18T16:50:30.433Z</time></trkpt><trkpt lat="44.941703" lon="5.3046764"><ele>1237.0</ele><time>2026-04-18T16:50:31.433Z</time></trkpt><trkpt lat="44.9416209" lon="5.3046571"><ele>1242.0</ele><time>2026-04-18T16:50:32.433Z</time></trkpt><trkpt lat="44.9415415" lon="5.3046303"><ele>1247.0</ele><time>2026-04-18T16:50:33.433Z</time></trkpt><trkpt lat="44.9414626" lon="5.304609"><ele>1247.0</ele><time>2026-04-18T16:50:34.433Z</time></trkpt><trkpt lat="44.9413751" lon="5.304594"><ele>1247.0</ele><time>2026-04-18T16:50:35.433Z</time></trkpt><trkpt lat="44.9413128" lon="5.3045561"><ele>1247.0</ele><time>2026-04-18T16:50:36.433Z</time></trkpt><trkpt lat="44.9412498" lon="5.3045466"><ele>1247.0</ele><time>2026-04-18T16:50:37.432Z</time></trkpt><trkpt lat="44.9411602" lon="5.3045409"><ele>1247.0</ele><time>2026-04-18T16:50:39.432Z</time></trkpt><trkpt lat="44.9410135" lon="5.3044727"><ele>1247.0</ele><time>2026-04-18T16:51:05.433Z</time></trkpt><trkpt lat="44.9409152" lon="5.3044288"><ele>1247.0</ele><time>2026-04-18T16:51:06.433Z</time></trkpt><trkpt lat="44.9407848" lon="5.3043887"><ele>1247.0</ele><time>2026-04-18T16:51:07.432Z</time></trkpt><trkpt lat="44.9406811" lon="5.3043557"><ele>1247.0</ele><time>2026-04-18T16:51:08.433Z</time></trkpt><trkpt lat="44.9405859" lon="5.3043275"><ele>1247.0</ele><time>2026-04-18T16:51:09.432Z</time></trkpt><trkpt lat="44.9404892" lon="5.3042797"><ele>1244.8</ele><time>2026-04-18T16:51:10.432Z</time></trkpt><trkpt lat="44.9403897" lon="5.3042189"><ele>1242.6</ele><time>2026-04-18T16:51:11.433Z</time></trkpt><trkpt lat="44.9402968" lon="5.3041473"><ele>1240.3999999999999</ele><time>2026-04-18T16:51:12.433Z</time></trkpt><trkpt lat="44.9401978" lon="5.3040872"><ele>1238.2</ele><time>2026-04-18T16:51:13.433Z</time></trkpt><trkpt lat="44.9400901" lon="5.3040106"><ele>1236.0</ele><time>2026-04-18T16:51:14.433Z</time></trkpt><trkpt lat="44.9399719" lon="5.3039266"><ele>1241.25</ele><time>2026-04-18T16:51:15.433Z</time></trkpt><trkpt lat="44.9398627" lon="5.3038405"><ele>1246.5</ele><time>2026-04-18T16:51:16.433Z</time></trkpt><trkpt lat="44.9397494" lon="5.3037606"><ele>1251.75</ele><time>2026-04-18T16:51:17.432Z</time></trkpt><trkpt lat="44.9396399" lon="5.3036713"><ele>1257.0</ele><time>2026-04-18T16:51:18.433Z</time></trkpt><trkpt lat="44.9395182" lon="5.303587"><ele>1257.0</ele><time>2026-04-18T16:51:19.433Z</time></trkpt><trkpt lat="44.939407" lon="5.3035113"><ele>1257.0</ele><time>2026-04-18T16:51:20.433Z</time></trkpt><trkpt lat="44.9392828" lon="5.303443"><ele>1257.0</ele><time>2026-04-18T16:51:21.433Z</time></trkpt><trkpt lat="44.9391699" lon="5.3033704"><ele>1257.0</ele><time>2026-04-18T16:51:22.433Z</time></trkpt><trkpt lat="44.9390484" lon="5.3032966"><ele>1260.0</ele><time>2026-04-18T16:51:23.433Z</time></trkpt><trkpt lat="44.9389231" lon="5.3032434"><ele>1263.0</ele><time>2026-04-18T16:51:24.433Z</time></trkpt><trkpt lat="44.9387994" lon="5.3031669"><ele>1266.0</ele><time>2026-04-18T16:51:25.433Z</time></trkpt><trkpt lat="44.9386863" lon="5.3031173"><ele>1269.0</ele><time>2026-04-18T16:51:26.433Z</time></trkpt><trkpt lat="44.938563" lon="5.3030426"><ele>1269.0</ele><time>2026-04-18T16:51:27.433Z</time></trkpt><trkpt lat="44.9384431" lon="5.3029807"><ele>1269.0</ele><time>2026-04-18T16:51:28.433Z</time></trkpt><trkpt lat="44.9383296" lon="5.3029215"><ele>1269.0</ele><time>2026-04-18T16:51:29.433Z</time></trkpt><trkpt lat="44.93823" lon="5.3028674"><ele>1269.0</ele><time>2026-04-18T16:51:30.432Z</time></trkpt><trkpt lat="44.9381244" lon="5.3028008"><ele>1265.25</ele><time>2026-04-18T16:51:31.433Z</time></trkpt><trkpt lat="44.9380332" lon="5.3027309"><ele>1261.5</ele><time>2026-04-18T16:51:32.434Z</time></trkpt><trkpt lat="44.9379369" lon="5.3026611"><ele>1257.75</ele><time>2026-04-18T16:51:33.433Z</time></trkpt><trkpt lat="44.9378358" lon="5.3025962"><ele>1254.0</ele><time>2026-04-18T16:51:34.432Z</time></trkpt><trkpt lat="44.9377155" lon="5.3025132"><ele>1254.0</ele><time>2026-04-18T16:51:35.433Z</time></trkpt><trkpt lat="44.9376127" lon="5.3024484"><ele>1254.0</ele><time>2026-04-18T16:51:36.433Z</time></trkpt><trkpt lat="44.937498" lon="5.3023796"><ele>1254.0</ele><time>2026-04-18T16:51:37.433Z</time></trkpt><trkpt lat="44.9373886" lon="5.3022961"><ele>1254.0</ele><time>2026-04-18T16:51:38.432Z</time></trkpt><trkpt lat="44.9372914" lon="5.3022164"><ele>1257.4</ele><time>2026-04-18T16:51:39.433Z</time></trkpt><trkpt lat="44.9372077" lon="5.3021508"><ele>1260.8000000000002</ele><time>2026-04-18T16:51:40.433Z</time></trkpt><trkpt lat="44.9371245" lon="5.3020943"><ele>1264.1999999999998</ele><time>2026-04-18T16:51:41.433Z</time></trkpt><trkpt lat="44.9370385" lon="5.3020313"><ele>1267.6</ele><time>2026-04-18T16:51:42.432Z</time></trkpt><trkpt lat="44.936964" lon="5.301961"><ele>1271.0</ele><time>2026-04-18T16:51:43.433Z</time></trkpt><trkpt lat="44.9368856" lon="5.3018966"><ele>1271.0</ele><time>2026-04-18T16:51:44.433Z</time></trkpt><trkpt lat="44.9368082" lon="5.3018277"><ele>1271.0</ele><time>2026-04-18T16:51:45.432Z</time></trkpt><trkpt lat="44.936717" lon="5.3018104"><ele>1271.0</ele><time>2026-04-18T16:51:46.433Z</time></trkpt><trkpt lat="44.9366539" lon="5.301806"><ele>1271.0</ele><time>2026-04-18T16:51:47.433Z</time></trkpt><trkpt lat="44.9365753" lon="5.3017964"><ele>1271.0</ele><time>2026-04-18T16:51:48.434Z</time></trkpt><trkpt lat="44.9364723" lon="5.3017892"><ele>1271.0</ele><time>2026-04-18T16:51:49.432Z</time></trkpt><trkpt lat="44.9363878" lon="5.3017646"><ele>1268.0</ele><time>2026-04-18T16:51:50.433Z</time></trkpt><trkpt lat="44.9362894" lon="5.3017456"><ele>1265.0</ele><time>2026-04-18T16:51:51.432Z</time></trkpt><trkpt lat="44.9361799" lon="5.3016946"><ele>1262.0</ele><time>2026-04-18T16:51:52.433Z</time></trkpt><trkpt lat="44.9360486" lon="5.3016664"><ele>1259.0</ele><time>2026-04-18T16:51:53.432Z</time></trkpt><trkpt lat="44.9359252" lon="5.3016282"><ele>1257.75</ele><time>2026-04-18T16:51:54.433Z</time></trkpt><trkpt lat="44.9357965" lon="5.3015936"><ele>1256.5</ele><time>2026-04-18T16:51:55.433Z</time></trkpt><trkpt lat="44.9356663" lon="5.3015648"><ele>1255.25</ele><time>2026-04-18T16:51:56.433Z</time></trkpt><trkpt lat="44.9355338" lon="5.3015393"><ele>1254.0</ele><time>2026-04-18T16:51:57.433Z</time></trkpt><trkpt lat="44.9354038" lon="5.3015006"><ele>1254.0</ele><time>2026-04-18T16:51:58.433Z</time></trkpt><trkpt lat="44.9352743" lon="5.3014706"><ele>1254.0</ele><time>2026-04-18T16:51:59.434Z</time></trkpt><trkpt lat="44.9351725" lon="5.3014462"><ele>1254.0</ele><time>2026-04-18T16:52:00.433Z</time></trkpt><trkpt lat="44.93506" lon="5.3014173"><ele>1254.0</ele><time>2026-04-18T16:52:01.433Z</time></trkpt><trkpt lat="44.934961" lon="5.3013884"><ele>1259.0</ele><time>2026-04-18T16:52:02.433Z</time></trkpt><trkpt lat="44.9348515" lon="5.3013633"><ele>1264.0</ele><time>2026-04-18T16:52:03.433Z</time></trkpt><trkpt lat="44.9347565" lon="5.3013452"><ele>1269.0</ele><time>2026-04-18T16:52:04.434Z</time></trkpt><trkpt lat="44.9346745" lon="5.3013209"><ele>1274.0</ele><time>2026-04-18T16:52:05.433Z</time></trkpt><trkpt lat="44.9345861" lon="5.3012906"><ele>1279.0</ele><time>2026-04-18T16:52:06.433Z</time></trkpt><trkpt lat="44.9344972" lon="5.3012377"><ele>1279.0</ele><time>2026-04-18T16:52:07.433Z</time></trkpt><trkpt lat="44.9344015" lon="5.3011834"><ele>1279.0</ele><time>2026-04-18T16:52:08.433Z</time></trkpt><trkpt lat="44.9342899" lon="5.3011278"><ele>1279.0</ele><time>2026-04-18T16:52:09.433Z</time></trkpt><trkpt lat="44.9341759" lon="5.3010803"><ele>1279.0</ele><time>2026-04-18T16:52:10.433Z</time></trkpt><trkpt lat="44.9340649" lon="5.3010356"><ele>1278.5</ele><time>2026-04-18T16:52:11.433Z</time></trkpt><trkpt lat="44.9339097" lon="5.3009877"><ele>1278.0</ele><time>2026-04-18T16:52:13.433Z</time></trkpt><trkpt lat="44.933814" lon="5.3009521"><ele>1277.5</ele><time>2026-04-18T16:52:14.433Z</time></trkpt><trkpt lat="44.9337199" lon="5.30091"><ele>1277.0</ele><time>2026-04-18T16:52:15.434Z</time></trkpt><trkpt lat="44.9336046" lon="5.3008725"><ele>1277.0</ele><time>2026-04-18T16:52:16.433Z</time></trkpt><trkpt lat="44.9334905" lon="5.300847"><ele>1277.0</ele><time>2026-04-18T16:52:17.434Z</time></trkpt><trkpt lat="44.933384" lon="5.300804"><ele>1277.0</ele><time>2026-04-18T16:52:18.433Z</time></trkpt><trkpt lat="44.9332814" lon="5.300792"><ele>1277.0</ele><time>2026-04-18T16:52:19.433Z</time></trkpt><trkpt lat="44.9331711" lon="5.3007535"><ele>1277.0</ele><time>2026-04-18T16:52:20.433Z</time></trkpt><trkpt lat="44.9330459" lon="5.3007631"><ele>1276.75</ele><time>2026-04-18T16:52:21.433Z</time></trkpt><trkpt lat="44.9329276" lon="5.3007395"><ele>1276.5</ele><time>2026-04-18T16:52:22.433Z</time></trkpt><trkpt lat="44.9328089" lon="5.3007073"><ele>1276.25</ele><time>2026-04-18T16:52:23.433Z</time></trkpt><trkpt lat="44.9326815" lon="5.3006623"><ele>1276.0</ele><time>2026-04-18T16:52:24.433Z</time></trkpt><trkpt lat="44.9325677" lon="5.3006184"><ele>1281.5</ele><time>2026-04-18T16:52:25.433Z</time></trkpt><trkpt lat="44.9324518" lon="5.3005789"><ele>1287.0</ele><time>2026-04-18T16:52:26.432Z</time></trkpt><trkpt lat="44.9323252" lon="5.300546"><ele>1292.5</ele><time>2026-04-18T16:52:27.433Z</time></trkpt><trkpt lat="44.9322314" lon="5.3005339"><ele>1298.0</ele><time>2026-04-18T16:52:28.433Z</time></trkpt><trkpt lat="44.9321006" lon="5.3005"><ele>1298.0</ele><time>2026-04-18T16:52:29.433Z</time></trkpt><trkpt lat="44.9319869" lon="5.3004673"><ele>1298.0</ele><time>2026-04-18T16:52:30.433Z</time></trkpt><trkpt lat="44.9318625" lon="5.3004351"><ele>1298.0</ele><time>2026-04-18T16:52:31.432Z</time></trkpt><trkpt lat="44.9317388" lon="5.3004229"><ele>1298.0</ele><time>2026-04-18T16:52:32.433Z</time></trkpt><trkpt lat="44.9316136" lon="5.300407"><ele>1296.8000000000002</ele><time>2026-04-18T16:52:33.433Z</time></trkpt><trkpt lat="44.9314958" lon="5.3003796"><ele>1295.6</ele><time>2026-04-18T16:52:34.433Z</time></trkpt><trkpt lat="44.9313984" lon="5.3003537"><ele>1294.4</ele><time>2026-04-18T16:52:35.432Z</time></trkpt><trkpt lat="44.9313062" lon="5.300309"><ele>1293.1999999999998</ele><time>2026-04-18T16:52:36.433Z</time></trkpt><trkpt lat="44.931204" lon="5.3002493"><ele>1292.0</ele><time>2026-04-18T16:52:37.433Z</time></trkpt><trkpt lat="44.9311144" lon="5.3002135"><ele>1292.0</ele><time>2026-04-18T16:52:38.433Z</time></trkpt><trkpt lat="44.9310201" lon="5.3001638"><ele>1292.0</ele><time>2026-04-18T16:52:39.433Z</time></trkpt><trkpt lat="44.9309394" lon="5.3001393"><ele>1292.0</ele><time>2026-04-18T16:52:40.433Z</time></trkpt><trkpt lat="44.9308614" lon="5.300115"><ele>1292.0</ele><time>2026-04-18T16:52:41.432Z</time></trkpt><trkpt lat="44.930807" lon="5.299996"><ele>1292.0</ele><time>2026-04-18T16:52:43.432Z</time></trkpt><trkpt lat="44.9307409" lon="5.2998825"><ele>1293.0</ele><time>2026-04-18T16:52:45.433Z</time></trkpt><trkpt lat="44.9307303" lon="5.2997141"><ele>1294.0</ele><time>2026-04-18T16:52:47.432Z</time></trkpt><trkpt lat="44.9307411" lon="5.2996031"><ele>1295.0</ele><time>2026-04-18T16:52:48.433Z</time></trkpt><trkpt lat="44.9307712" lon="5.2994763"><ele>1296.0</ele><time>2026-04-18T16:52:49.433Z</time></trkpt><trkpt lat="44.9307657" lon="5.2993337"><ele>1297.0</ele><time>2026-04-18T16:52:50.433Z</time></trkpt><trkpt lat="44.9307541" lon="5.2992001"><ele>1297.0</ele><time>2026-04-18T16:52:51.433Z</time></trkpt><trkpt lat="44.9307457" lon="5.2990711"><ele>1297.0</ele><time>2026-04-18T16:52:52.433Z</time></trkpt><trkpt lat="44.9307262" lon="5.2989732"><ele>1297.0</ele><time>2026-04-18T16:52:53.433Z</time></trkpt><trkpt lat="44.9307149" lon="5.2988844"><ele>1297.0</ele><time>2026-04-18T16:52:54.433Z</time></trkpt><trkpt lat="44.9307065" lon="5.2987856"><ele>1297.0</ele><time>2026-04-18T16:52:55.433Z</time></trkpt><trkpt lat="44.9307202" lon="5.2986631"><ele>1297.0</ele><time>2026-04-18T16:52:56.433Z</time></trkpt><trkpt lat="44.9307326" lon="5.2985224"><ele>1297.5</ele><time>2026-04-18T16:52:57.433Z</time></trkpt><trkpt lat="44.9307479" lon="5.2984023"><ele>1298.0</ele><time>2026-04-18T16:52:58.433Z</time></trkpt><trkpt lat="44.9307399" lon="5.2982881"><ele>1298.5</ele><time>2026-04-18T16:52:59.432Z</time></trkpt><trkpt lat="44.9307671" lon="5.2982021"><ele>1299.0</ele><time>2026-04-18T16:53:00.434Z</time></trkpt><trkpt lat="44.9307851" lon="5.2980832"><ele>1299.5</ele><time>2026-04-18T16:53:01.432Z</time></trkpt><trkpt lat="44.9307986" lon="5.2979864"><ele>1300.0</ele><time>2026-04-18T16:53:02.433Z</time></trkpt><trkpt lat="44.930819" lon="5.2978211"><ele>1300.0</ele><time>2026-04-18T16:53:04.434Z</time></trkpt><trkpt lat="44.9308559" lon="5.2977304"><ele>1300.0</ele><time>2026-04-18T16:53:05.433Z</time></trkpt><trkpt lat="44.9308434" lon="5.2976307"><ele>1300.0</ele><time>2026-04-18T16:53:06.432Z</time></trkpt><trkpt lat="44.9308619" lon="5.2974905"><ele>1300.0</ele><time>2026-04-18T16:53:07.433Z</time></trkpt><trkpt lat="44.9308454" lon="5.2973456"><ele>1300.0</ele><time>2026-04-18T16:53:08.432Z</time></trkpt><trkpt lat="44.9308421" lon="5.2972176"><ele>1300.0</ele><time>2026-04-18T16:53:09.433Z</time></trkpt><trkpt lat="44.9308443" lon="5.2971004"><ele>1299.4</ele><time>2026-04-18T16:53:10.434Z</time></trkpt><trkpt lat="44.930823" lon="5.2969897"><ele>1298.8</ele><time>2026-04-18T16:53:11.432Z</time></trkpt><trkpt lat="44.9307759" lon="5.2968479"><ele>1298.1999999999998</ele><time>2026-04-18T16:53:13.433Z</time></trkpt><trkpt lat="44.9307138" lon="5.2967579"><ele>1297.6</ele><time>2026-04-18T16:53:14.433Z</time></trkpt><trkpt lat="44.9306156" lon="5.2966952"><ele>1297.0</ele><time>2026-04-18T16:53:15.433Z</time></trkpt><trkpt lat="44.9305301" lon="5.2966251"><ele>1297.0</ele><time>2026-04-18T16:53:16.433Z</time></trkpt><trkpt lat="44.9304565" lon="5.2965494"><ele>1297.0</ele><time>2026-04-18T16:53:17.432Z</time></trkpt><trkpt lat="44.9303517" lon="5.296517"><ele>1297.0</ele><time>2026-04-18T16:53:18.433Z</time></trkpt><trkpt lat="44.9302621" lon="5.2964386"><ele>1297.0</ele><time>2026-04-18T16:53:19.433Z</time></trkpt><trkpt lat="44.9301751" lon="5.2963646"><ele>1297.0</ele><time>2026-04-18T16:53:20.433Z</time></trkpt><trkpt lat="44.930093" lon="5.2962744"><ele>1296.6666666666665</ele><time>2026-04-18T16:53:21.433Z</time></trkpt><trkpt lat="44.9300086" lon="5.2961836"><ele>1296.3333333333333</ele><time>2026-04-18T16:53:22.432Z</time></trkpt><trkpt lat="44.9299443" lon="5.2960687"><ele>1296.0</ele><time>2026-04-18T16:53:23.433Z</time></trkpt><trkpt lat="44.9299145" lon="5.2959741"><ele>1295.6666666666667</ele><time>2026-04-18T16:53:24.433Z</time></trkpt><trkpt lat="44.9298606" lon="5.2959237"><ele>1295.3333333333335</ele><time>2026-04-18T16:53:25.433Z</time></trkpt><trkpt lat="44.9298267" lon="5.2958419"><ele>1295.0</ele><time>2026-04-18T16:53:26.433Z</time></trkpt><trkpt lat="44.9297833" lon="5.2957692"><ele>1295.0</ele><time>2026-04-18T16:53:27.432Z</time></trkpt><trkpt lat="44.929734" lon="5.295696"><ele>1295.0</ele><time>2026-04-18T16:53:28.433Z</time></trkpt><trkpt lat="44.9296612" lon="5.2956142"><ele>1295.0</ele><time>2026-04-18T16:53:29.433Z</time></trkpt><trkpt lat="44.929609" lon="5.2955582"><ele>1295.0</ele><time>2026-04-18T16:53:30.433Z</time></trkpt><trkpt lat="44.9295396" lon="5.2954959"><ele>1295.0</ele><time>2026-04-18T16:53:31.432Z</time></trkpt><trkpt lat="44.9294025" lon="5.2954616"><ele>1292.4</ele><time>2026-04-18T16:53:32.433Z</time></trkpt><trkpt lat="44.9293273" lon="5.2954438"><ele>1289.8</ele><time>2026-04-18T16:53:33.433Z</time></trkpt><trkpt lat="44.929238" lon="5.2954163"><ele>1287.1999999999998</ele><time>2026-04-18T16:53:34.433Z</time></trkpt><trkpt lat="44.9291224" lon="5.2953886"><ele>1284.6</ele><time>2026-04-18T16:53:35.433Z</time></trkpt><trkpt lat="44.9290057" lon="5.2953482"><ele>1282.0</ele><time>2026-04-18T16:53:36.432Z</time></trkpt><trkpt lat="44.928908" lon="5.2953259"><ele>1282.0</ele><time>2026-04-18T16:53:37.433Z</time></trkpt><trkpt lat="44.9288107" lon="5.2952945"><ele>1282.0</ele><time>2026-04-18T16:53:38.433Z</time></trkpt><trkpt lat="44.9286941" lon="5.2952761"><ele>1282.0</ele><time>2026-04-18T16:53:39.433Z</time></trkpt><trkpt lat="44.9285952" lon="5.2952717"><ele>1282.0</ele><time>2026-04-18T16:53:40.433Z</time></trkpt><trkpt lat="44.9284642" lon="5.2952842"><ele>1282.0</ele><time>2026-04-18T16:53:41.433Z</time></trkpt><trkpt lat="44.9283467" lon="5.2952882"><ele>1282.0</ele><time>2026-04-18T16:53:42.433Z</time></trkpt><trkpt lat="44.928226" lon="5.295293"><ele>1282.0</ele><time>2026-04-18T16:53:43.433Z</time></trkpt><trkpt lat="44.9280943" lon="5.2952949"><ele>1282.0</ele><time>2026-04-18T16:53:44.433Z</time></trkpt><trkpt lat="44.9279686" lon="5.2952941"><ele>1282.0</ele><time>2026-04-18T16:53:45.432Z</time></trkpt><trkpt lat="44.9278388" lon="5.2952895"><ele>1282.0</ele><time>2026-04-18T16:53:46.433Z</time></trkpt><trkpt lat="44.9277145" lon="5.2953327"><ele>1282.0</ele><time>2026-04-18T16:53:47.433Z</time></trkpt><trkpt lat="44.927592" lon="5.2953316"><ele>1282.0</ele><time>2026-04-18T16:53:48.433Z</time></trkpt><trkpt lat="44.9274488" lon="5.2953364"><ele>1282.0</ele><time>2026-04-18T16:53:49.433Z</time></trkpt><trkpt lat="44.9273001" lon="5.2953186"><ele>1282.3999999999999</ele><time>2026-04-18T16:53:50.433Z</time></trkpt><trkpt lat="44.927174" lon="5.2953397"><ele>1282.8</ele><time>2026-04-18T16:53:51.433Z</time></trkpt><trkpt lat="44.9270676" lon="5.2953327"><ele>1283.2</ele><time>2026-04-18T16:53:52.433Z</time></trkpt><trkpt lat="44.926963" lon="5.2953414"><ele>1283.6</ele><time>2026-04-18T16:53:53.432Z</time></trkpt><trkpt lat="44.9268788" lon="5.2953698"><ele>1284.0</ele><time>2026-04-18T16:53:54.433Z</time></trkpt><trkpt lat="44.9267537" lon="5.2953799"><ele>1284.6</ele><time>2026-04-18T16:53:55.432Z</time></trkpt><trkpt lat="44.9266418" lon="5.2953484"><ele>1285.2</ele><time>2026-04-18T16:53:56.433Z</time></trkpt><trkpt lat="44.9265318" lon="5.2953286"><ele>1285.8</ele><time>2026-04-18T16:53:57.433Z</time></trkpt><trkpt lat="44.9264196" lon="5.2952742"><ele>1286.3999999999999</ele><time>2026-04-18T16:53:58.433Z</time></trkpt><trkpt lat="44.9263281" lon="5.2952343"><ele>1287.0</ele><time>2026-04-18T16:53:59.433Z</time></trkpt><trkpt lat="44.9262287" lon="5.2951777"><ele>1287.0</ele><time>2026-04-18T16:54:00.434Z</time></trkpt><trkpt lat="44.9261268" lon="5.2951055"><ele>1287.0</ele><time>2026-04-18T16:54:01.433Z</time></trkpt><trkpt lat="44.9260197" lon="5.2949467"><ele>1287.0</ele><time>2026-04-18T16:54:02.433Z</time></trkpt><trkpt lat="44.9259203" lon="5.2948691"><ele>1287.0</ele><time>2026-04-18T16:54:03.433Z</time></trkpt><trkpt lat="44.9258194" lon="5.2947837"><ele>1285.0</ele><time>2026-04-18T16:54:04.433Z</time></trkpt><trkpt lat="44.9257197" lon="5.2946778"><ele>1283.0</ele><time>2026-04-18T16:54:05.432Z</time></trkpt><trkpt lat="44.9256413" lon="5.2945763"><ele>1281.0</ele><time>2026-04-18T16:54:06.433Z</time></trkpt><trkpt lat="44.9255527" lon="5.2944798"><ele>1279.0</ele><time>2026-04-18T16:54:07.433Z</time></trkpt><trkpt lat="44.9254683" lon="5.2943758"><ele>1279.0</ele><time>2026-04-18T16:54:08.433Z</time></trkpt><trkpt lat="44.9253755" lon="5.2942912"><ele>1279.0</ele><time>2026-04-18T16:54:09.433Z</time></trkpt><trkpt lat="44.9252598" lon="5.294201"><ele>1279.0</ele><time>2026-04-18T16:54:10.433Z</time></trkpt><trkpt lat="44.9251512" lon="5.2941055"><ele>1279.0</ele><time>2026-04-18T16:54:11.432Z</time></trkpt><trkpt lat="44.9250536" lon="5.2940298"><ele>1279.2</ele><time>2026-04-18T16:54:12.433Z</time></trkpt><trkpt lat="44.9249683" lon="5.2939327"><ele>1279.4</ele><time>2026-04-18T16:54:13.433Z</time></trkpt><trkpt lat="44.9248774" lon="5.2938542"><ele>1279.6</ele><time>2026-04-18T16:54:14.433Z</time></trkpt><trkpt lat="44.9247981" lon="5.2937955"><ele>1279.8</ele><time>2026-04-18T16:54:15.433Z</time></trkpt><trkpt lat="44.924719" lon="5.2937346"><ele>1280.0</ele><time>2026-04-18T16:54:16.433Z</time></trkpt><trkpt lat="44.9246452" lon="5.293653"><ele>1280.0</ele><time>2026-04-18T16:54:17.434Z</time></trkpt><trkpt lat="44.9245714" lon="5.2935599"><ele>1280.0</ele><time>2026-04-18T16:54:18.433Z</time></trkpt><trkpt lat="44.9244973" lon="5.293472"><ele>1280.0</ele><time>2026-04-18T16:54:19.433Z</time></trkpt><trkpt lat="44.9244588" lon="5.2933901"><ele>1280.0</ele><time>2026-04-18T16:54:20.433Z</time></trkpt><trkpt lat="44.9244546" lon="5.2932655"><ele>1280.0</ele><time>2026-04-18T16:54:21.433Z</time></trkpt><trkpt lat="44.9244138" lon="5.2931705"><ele>1280.0</ele><time>2026-04-18T16:54:22.433Z</time></trkpt><trkpt lat="44.9243606" lon="5.2930734"><ele>1280.2</ele><time>2026-04-18T16:54:23.433Z</time></trkpt><trkpt lat="44.9242997" lon="5.2930085"><ele>1280.4</ele><time>2026-04-18T16:54:24.433Z</time></trkpt><trkpt lat="44.9242117" lon="5.2929248"><ele>1280.6</ele><time>2026-04-18T16:54:25.433Z</time></trkpt><trkpt lat="44.9241133" lon="5.292871"><ele>1280.8</ele><time>2026-04-18T16:54:26.433Z</time></trkpt><trkpt lat="44.9240148" lon="5.2928032"><ele>1281.0</ele><time>2026-04-18T16:54:27.433Z</time></trkpt><trkpt lat="44.9239257" lon="5.2927489"><ele>1281.0</ele><time>2026-04-18T16:54:28.433Z</time></trkpt><trkpt lat="44.9238479" lon="5.2927261"><ele>1281.0</ele><time>2026-04-18T16:54:29.433Z</time></trkpt><trkpt lat="44.9237626" lon="5.2926826"><ele>1281.0</ele><time>2026-04-18T16:54:30.433Z</time></trkpt><trkpt lat="44.9236793" lon="5.2926485"><ele>1281.0</ele><time>2026-04-18T16:54:31.433Z</time></trkpt><trkpt lat="44.9235951" lon="5.2926277"><ele>1281.0</ele><time>2026-04-18T16:54:32.433Z</time></trkpt><trkpt lat="44.9234885" lon="5.2926324"><ele>1281.0</ele><time>2026-04-18T16:54:33.433Z</time></trkpt><trkpt lat="44.923392" lon="5.2926254"><ele>1283.4</ele><time>2026-04-18T16:54:34.433Z</time></trkpt><trkpt lat="44.9232812" lon="5.2926246"><ele>1285.8</ele><time>2026-04-18T16:54:35.433Z</time></trkpt><trkpt lat="44.9231718" lon="5.2926198"><ele>1288.2</ele><time>2026-04-18T16:54:36.433Z</time></trkpt><trkpt lat="44.9230639" lon="5.2926296"><ele>1290.6000000000001</ele><time>2026-04-18T16:54:37.433Z</time></trkpt><trkpt lat="44.9229675" lon="5.2926114"><ele>1293.0</ele><time>2026-04-18T16:54:38.433Z</time></trkpt><trkpt lat="44.9228643" lon="5.2926021"><ele>1293.0</ele><time>2026-04-18T16:54:39.434Z</time></trkpt><trkpt lat="44.9227651" lon="5.2926012"><ele>1293.0</ele><time>2026-04-18T16:54:40.433Z</time></trkpt><trkpt lat="44.9226536" lon="5.292584"><ele>1293.0</ele><time>2026-04-18T16:54:41.433Z</time></trkpt><trkpt lat="44.9225537" lon="5.2925926"><ele>1293.0</ele><time>2026-04-18T16:54:42.433Z</time></trkpt><trkpt lat="44.9224616" lon="5.2925998"><ele>1293.0</ele><time>2026-04-18T16:54:43.432Z</time></trkpt><trkpt lat="44.9223653" lon="5.2926014"><ele>1292.6000000000001</ele><time>2026-04-18T16:54:44.433Z</time></trkpt><trkpt lat="44.922274" lon="5.2926147"><ele>1292.2</ele><time>2026-04-18T16:54:45.433Z</time></trkpt><trkpt lat="44.9221743" lon="5.2926204"><ele>1291.8</ele><time>2026-04-18T16:54:46.432Z</time></trkpt><trkpt lat="44.9220833" lon="5.2926373"><ele>1291.4</ele><time>2026-04-18T16:54:47.433Z</time></trkpt><trkpt lat="44.9219842" lon="5.2926705"><ele>1291.0</ele><time>2026-04-18T16:54:48.433Z</time></trkpt><trkpt lat="44.9218779" lon="5.2927227"><ele>1291.0</ele><time>2026-04-18T16:54:49.433Z</time></trkpt><trkpt lat="44.9217749" lon="5.2927637"><ele>1291.0</ele><time>2026-04-18T16:54:50.433Z</time></trkpt><trkpt lat="44.921669" lon="5.2927975"><ele>1291.0</ele><time>2026-04-18T16:54:51.432Z</time></trkpt><trkpt lat="44.9215568" lon="5.2928468"><ele>1291.0</ele><time>2026-04-18T16:54:52.433Z</time></trkpt><trkpt lat="44.9214569" lon="5.2929298"><ele>1291.0</ele><time>2026-04-18T16:54:53.433Z</time></trkpt><trkpt lat="44.9213614" lon="5.2929812"><ele>1290.0</ele><time>2026-04-18T16:54:54.433Z</time></trkpt><trkpt lat="44.9212724" lon="5.2930473"><ele>1289.0</ele><time>2026-04-18T16:54:55.433Z</time></trkpt><trkpt lat="44.9211887" lon="5.2930906"><ele>1288.0</ele><time>2026-04-18T16:54:56.433Z</time></trkpt><trkpt lat="44.9211075" lon="5.2931019"><ele>1287.0</ele><time>2026-04-18T16:54:57.433Z</time></trkpt><trkpt lat="44.921033" lon="5.2931134"><ele>1286.0</ele><time>2026-04-18T16:54:58.433Z</time></trkpt><trkpt lat="44.9209428" lon="5.2931176"><ele>1285.0</ele><time>2026-04-18T16:54:59.433Z</time></trkpt><trkpt lat="44.9208543" lon="5.2931589"><ele>1288.4</ele><time>2026-04-18T16:55:00.433Z</time></trkpt><trkpt lat="44.9207763" lon="5.2932466"><ele>1291.8</ele><time>2026-04-18T16:55:01.433Z</time></trkpt><trkpt lat="44.9206903" lon="5.2932926"><ele>1295.1999999999998</ele><time>2026-04-18T16:55:02.433Z</time></trkpt><trkpt lat="44.9205958" lon="5.2933313"><ele>1298.6</ele><time>2026-04-18T16:55:03.433Z</time></trkpt><trkpt lat="44.9205045" lon="5.2933662"><ele>1302.0</ele><time>2026-04-18T16:55:04.433Z</time></trkpt><trkpt lat="44.9204113" lon="5.2934157"><ele>1302.0</ele><time>2026-04-18T16:55:05.433Z</time></trkpt><trkpt lat="44.9203076" lon="5.293498"><ele>1302.0</ele><time>2026-04-18T16:55:06.432Z</time></trkpt><trkpt lat="44.920212" lon="5.2935692"><ele>1302.0</ele><time>2026-04-18T16:55:07.433Z</time></trkpt><trkpt lat="44.9201061" lon="5.2936308"><ele>1302.0</ele><time>2026-04-18T16:55:08.432Z</time></trkpt><trkpt lat="44.9199934" lon="5.2936794"><ele>1300.0</ele><time>2026-04-18T16:55:09.434Z</time></trkpt><trkpt lat="44.9198841" lon="5.2937286"><ele>1298.0</ele><time>2026-04-18T16:55:10.433Z</time></trkpt><trkpt lat="44.9197618" lon="5.2937749"><ele>1296.0</ele><time>2026-04-18T16:55:11.433Z</time></trkpt><trkpt lat="44.9196474" lon="5.2938271"><ele>1294.0</ele><time>2026-04-18T16:55:12.433Z</time></trkpt><trkpt lat="44.9195436" lon="5.2938811"><ele>1294.0</ele><time>2026-04-18T16:55:13.433Z</time></trkpt><trkpt lat="44.9194467" lon="5.2939257"><ele>1294.0</ele><time>2026-04-18T16:55:14.433Z</time></trkpt><trkpt lat="44.9193582" lon="5.2939189"><ele>1294.0</ele><time>2026-04-18T16:55:15.434Z</time></trkpt><trkpt lat="44.91926" lon="5.293919"><ele>1294.0</ele><time>2026-04-18T16:55:16.433Z</time></trkpt><trkpt lat="44.9191513" lon="5.2939193"><ele>1294.0</ele><time>2026-04-18T16:55:17.433Z</time></trkpt><trkpt lat="44.9190463" lon="5.2939168"><ele>1293.0</ele><time>2026-04-18T16:55:18.433Z</time></trkpt><trkpt lat="44.9189429" lon="5.2939132"><ele>1292.0</ele><time>2026-04-18T16:55:19.433Z</time></trkpt><trkpt lat="44.9188308" lon="5.2939298"><ele>1291.0</ele><time>2026-04-18T16:55:20.433Z</time></trkpt><trkpt lat="44.9187031" lon="5.2939739"><ele>1290.0</ele><time>2026-04-18T16:55:21.433Z</time></trkpt><trkpt lat="44.9185884" lon="5.2940047"><ele>1293.2</ele><time>2026-04-18T16:55:22.433Z</time></trkpt><trkpt lat="44.9184835" lon="5.2940477"><ele>1296.4</ele><time>2026-04-18T16:55:23.432Z</time></trkpt><trkpt lat="44.9183765" lon="5.2940917"><ele>1299.6</ele><time>2026-04-18T16:55:24.433Z</time></trkpt><trkpt lat="44.9182727" lon="5.2940583"><ele>1302.8</ele><time>2026-04-18T16:55:25.433Z</time></trkpt><trkpt lat="44.9181619" lon="5.2940637"><ele>1306.0</ele><time>2026-04-18T16:55:26.433Z</time></trkpt><trkpt lat="44.9180457" lon="5.294044"><ele>1306.5</ele><time>2026-04-18T16:55:27.433Z</time></trkpt><trkpt lat="44.9179306" lon="5.2940037"><ele>1307.0</ele><time>2026-04-18T16:55:28.433Z</time></trkpt><trkpt lat="44.9178093" lon="5.2939437"><ele>1307.5</ele><time>2026-04-18T16:55:29.433Z</time></trkpt><trkpt lat="44.9176844" lon="5.29388"><ele>1308.0</ele><time>2026-04-18T16:55:30.433Z</time></trkpt><trkpt lat="44.9175539" lon="5.2938321"><ele>1305.5</ele><time>2026-04-18T16:55:31.432Z</time></trkpt><trkpt lat="44.917425" lon="5.2938011"><ele>1303.0</ele><time>2026-04-18T16:55:32.433Z</time></trkpt><trkpt lat="44.9173173" lon="5.2937708"><ele>1300.5</ele><time>2026-04-18T16:55:33.433Z</time></trkpt><trkpt lat="44.9171871" lon="5.293738"><ele>1298.0</ele><time>2026-04-18T16:55:34.433Z</time></trkpt><trkpt lat="44.9170647" lon="5.2936878"><ele>1298.0</ele><time>2026-04-18T16:55:35.432Z</time></trkpt><trkpt lat="44.9169395" lon="5.2936342"><ele>1298.0</ele><time>2026-04-18T16:55:36.433Z</time></trkpt><trkpt lat="44.9168179" lon="5.2936401"><ele>1298.0</ele><time>2026-04-18T16:55:37.433Z</time></trkpt><trkpt lat="44.9166951" lon="5.2936225"><ele>1298.0</ele><time>2026-04-18T16:55:38.433Z</time></trkpt><trkpt lat="44.9166125" lon="5.293595"><ele>1299.8000000000002</ele><time>2026-04-18T16:55:39.433Z</time></trkpt><trkpt lat="44.9165101" lon="5.2935399"><ele>1301.6</ele><time>2026-04-18T16:55:40.432Z</time></trkpt><trkpt lat="44.9164059" lon="5.2934852"><ele>1303.4</ele><time>2026-04-18T16:55:41.433Z</time></trkpt><trkpt lat="44.9163188" lon="5.2933606"><ele>1305.1999999999998</ele><time>2026-04-18T16:55:42.433Z</time></trkpt><trkpt lat="44.9162439" lon="5.2932999"><ele>1307.0</ele><time>2026-04-18T16:55:43.433Z</time></trkpt><trkpt lat="44.9161781" lon="5.293292"><ele>1307.0</ele><time>2026-04-18T16:55:44.433Z</time></trkpt><trkpt lat="44.9160988" lon="5.2932347"><ele>1307.0</ele><time>2026-04-18T16:55:45.433Z</time></trkpt><trkpt lat="44.9160141" lon="5.2932059"><ele>1307.0</ele><time>2026-04-18T16:55:46.433Z</time></trkpt><trkpt lat="44.9159011" lon="5.2931669"><ele>1307.0</ele><time>2026-04-18T16:55:48.433Z</time></trkpt><trkpt lat="44.9158602" lon="5.2930758"><ele>1307.0</ele><time>2026-04-18T16:55:50.433Z</time></trkpt><trkpt lat="44.9158955" lon="5.292993"><ele>1307.0</ele><time>2026-04-18T16:55:52.433Z</time></trkpt><trkpt lat="44.9160035" lon="5.2929175"><ele>1305.8333333333335</ele><time>2026-04-18T16:55:54.433Z</time></trkpt><trkpt lat="44.9161053" lon="5.2928505"><ele>1304.6666666666667</ele><time>2026-04-18T16:55:56.432Z</time></trkpt><trkpt lat="44.9161653" lon="5.292784"><ele>1303.5</ele><time>2026-04-18T16:55:57.433Z</time></trkpt><trkpt lat="44.9162195" lon="5.2927096"><ele>1302.3333333333333</ele><time>2026-04-18T16:55:58.433Z</time></trkpt><trkpt lat="44.916281" lon="5.2926442"><ele>1301.1666666666665</ele><time>2026-04-18T16:55:59.433Z</time></trkpt><trkpt lat="44.9163375" lon="5.2925563"><ele>1300.0</ele><time>2026-04-18T16:56:00.432Z</time></trkpt><trkpt lat="44.9163839" lon="5.2924762"><ele>1300.0</ele><time>2026-04-18T16:56:01.432Z</time></trkpt><trkpt lat="44.9164414" lon="5.2923957"><ele>1300.0</ele><time>2026-04-18T16:56:02.432Z</time></trkpt><trkpt lat="44.9164853" lon="5.2923099"><ele>1300.0</ele><time>2026-04-18T16:56:03.433Z</time></trkpt><trkpt lat="44.9165279" lon="5.2922007"><ele>1300.0</ele><time>2026-04-18T16:56:04.433Z</time></trkpt><trkpt lat="44.9165635" lon="5.2921253"><ele>1300.0</ele><time>2026-04-18T16:56:05.433Z</time></trkpt><trkpt lat="44.9166208" lon="5.2919975"><ele>1300.0</ele><time>2026-04-18T16:56:07.433Z</time></trkpt><trkpt lat="44.9166621" lon="5.2918683"><ele>1299.6</ele><time>2026-04-18T16:56:09.433Z</time></trkpt><trkpt lat="44.9167112" lon="5.2917041"><ele>1299.2</ele><time>2026-04-18T16:56:11.433Z</time></trkpt><trkpt lat="44.9167481" lon="5.2916069"><ele>1298.8000000000002</ele><time>2026-04-18T16:56:13.432Z</time></trkpt><trkpt lat="44.9167887" lon="5.2915265"><ele>1298.4</ele><time>2026-04-18T16:56:15.433Z</time></trkpt><trkpt lat="44.9168501" lon="5.2914836"><ele>1298.0</ele><time>2026-04-18T16:56:17.432Z</time></trkpt><trkpt lat="44.9169594" lon="5.2915479"><ele>1295.0</ele><time>2026-04-18T16:56:19.433Z</time></trkpt><trkpt lat="44.9170175" lon="5.2915831"><ele>1292.0</ele><time>2026-04-18T16:56:20.432Z</time></trkpt><trkpt lat="44.9170832" lon="5.291648"><ele>1289.0</ele><time>2026-04-18T16:56:21.433Z</time></trkpt><trkpt lat="44.9171646" lon="5.2917969"><ele>1286.0</ele><time>2026-04-18T16:56:22.433Z</time></trkpt><trkpt lat="44.9173381" lon="5.2920077"><ele>1286.0</ele><time>2026-04-18T16:56:23.432Z</time></trkpt><trkpt lat="44.9174306" lon="5.2921504"><ele>1286.0</ele><time>2026-04-18T16:56:24.433Z</time></trkpt><trkpt lat="44.9175348" lon="5.2923038"><ele>1286.0</ele><time>2026-04-18T16:56:25.433Z</time></trkpt><trkpt lat="44.9176313" lon="5.292415"><ele>1286.0</ele><time>2026-04-18T16:56:26.433Z</time></trkpt><trkpt lat="44.9177579" lon="5.2925163"><ele>1283.0</ele><time>2026-04-18T16:56:27.433Z</time></trkpt><trkpt lat="44.9179106" lon="5.2925257"><ele>1280.0</ele><time>2026-04-18T16:56:28.433Z</time></trkpt><trkpt lat="44.9180587" lon="5.2925513"><ele>1277.0</ele><time>2026-04-18T16:56:29.433Z</time></trkpt><trkpt lat="44.9182801" lon="5.2925136"><ele>1276.0</ele><time>2026-04-18T16:56:30.433Z</time></trkpt><trkpt lat="44.918479" lon="5.2925143"><ele>1275.0</ele><time>2026-04-18T16:56:31.433Z</time></trkpt><trkpt lat="44.9186897" lon="5.2925024"><ele>1274.0</ele><time>2026-04-18T16:56:32.433Z</time></trkpt><trkpt lat="44.9189026" lon="5.292493"><ele>1274.0</ele><time>2026-04-18T16:56:33.433Z</time></trkpt><trkpt lat="44.9191073" lon="5.2924816"><ele>1274.0</ele><time>2026-04-18T16:56:34.434Z</time></trkpt><trkpt lat="44.9192989" lon="5.2924642"><ele>1274.0</ele><time>2026-04-18T16:56:35.432Z</time></trkpt><trkpt lat="44.9195027" lon="5.2924435"><ele>1273.6666666666667</ele><time>2026-04-18T16:56:36.433Z</time></trkpt><trkpt lat="44.9196898" lon="5.2924061"><ele>1273.3333333333333</ele><time>2026-04-18T16:56:37.433Z</time></trkpt><trkpt lat="44.9199105" lon="5.2923043"><ele>1273.0</ele><time>2026-04-18T16:56:38.433Z</time></trkpt><trkpt lat="44.9201185" lon="5.2922306"><ele>1267.0</ele><time>2026-04-18T16:56:39.432Z</time></trkpt><trkpt lat="44.9203211" lon="5.2920919"><ele>1261.0</ele><time>2026-04-18T16:56:40.432Z</time></trkpt><trkpt lat="44.9205171" lon="5.2919911"><ele>1255.0</ele><time>2026-04-18T16:56:41.433Z</time></trkpt><trkpt lat="44.9207128" lon="5.29188"><ele>1256.3333333333333</ele><time>2026-04-18T16:56:42.432Z</time></trkpt><trkpt lat="44.9209226" lon="5.2918312"><ele>1257.6666666666667</ele><time>2026-04-18T16:56:43.433Z</time></trkpt><trkpt lat="44.9211154" lon="5.2917624"><ele>1259.0</ele><time>2026-04-18T16:56:44.433Z</time></trkpt><trkpt lat="44.9213151" lon="5.2916678"><ele>1259.0</ele><time>2026-04-18T16:56:45.433Z</time></trkpt><trkpt lat="44.9215235" lon="5.2915658"><ele>1259.0</ele><time>2026-04-18T16:56:46.433Z</time></trkpt><trkpt lat="44.9217268" lon="5.2914557"><ele>1259.0</ele><time>2026-04-18T16:56:47.432Z</time></trkpt><trkpt lat="44.9219279" lon="5.2913533"><ele>1253.3333333333335</ele><time>2026-04-18T16:56:48.433Z</time></trkpt><trkpt lat="44.9221333" lon="5.2912448"><ele>1247.6666666666667</ele><time>2026-04-18T16:56:49.433Z</time></trkpt><trkpt lat="44.922344" lon="5.2911613"><ele>1242.0</ele><time>2026-04-18T16:56:50.433Z</time></trkpt><trkpt lat="44.9225487" lon="5.2910979"><ele>1240.6666666666667</ele><time>2026-04-18T16:56:51.433Z</time></trkpt><trkpt lat="44.9227501" lon="5.2910347"><ele>1239.3333333333335</ele><time>2026-04-18T16:56:52.433Z</time></trkpt><trkpt lat="44.9229398" lon="5.2909786"><ele>1238.0</ele><time>2026-04-18T16:56:53.433Z</time></trkpt><trkpt lat="44.9231243" lon="5.2909285"><ele>1238.0</ele><time>2026-04-18T16:56:54.433Z</time></trkpt><trkpt lat="44.9232913" lon="5.2908915"><ele>1238.0</ele><time>2026-04-18T16:56:55.433Z</time></trkpt><trkpt lat="44.9234688" lon="5.2908792"><ele>1238.0</ele><time>2026-04-18T16:56:56.433Z</time></trkpt><trkpt lat="44.9236538" lon="5.2909078"><ele>1234.6666666666667</ele><time>2026-04-18T16:56:57.433Z</time></trkpt><trkpt lat="44.9238353" lon="5.2909459"><ele>1231.3333333333333</ele><time>2026-04-18T16:56:58.433Z</time></trkpt><trkpt lat="44.9240016" lon="5.290979"><ele>1228.0</ele><time>2026-04-18T16:56:59.433Z</time></trkpt><trkpt lat="44.9241528" lon="5.2910072"><ele>1227.25</ele><time>2026-04-18T16:57:00.433Z</time></trkpt><trkpt lat="44.9242956" lon="5.2910244"><ele>1226.5</ele><time>2026-04-18T16:57:01.432Z</time></trkpt><trkpt lat="44.9244303" lon="5.2910294"><ele>1225.75</ele><time>2026-04-18T16:57:02.434Z</time></trkpt><trkpt lat="44.9245607" lon="5.2910209"><ele>1225.0</ele><time>2026-04-18T16:57:03.433Z</time></trkpt><trkpt lat="44.9247126" lon="5.2908809"><ele>1225.0</ele><time>2026-04-18T16:57:04.433Z</time></trkpt><trkpt lat="44.9247902" lon="5.2906335"><ele>1225.0</ele><time>2026-04-18T16:57:05.433Z</time></trkpt><trkpt lat="44.924885" lon="5.2904986"><ele>1225.0</ele><time>2026-04-18T16:57:06.433Z</time></trkpt><trkpt lat="44.9250083" lon="5.2904225"><ele>1221.3333333333333</ele><time>2026-04-18T16:57:07.433Z</time></trkpt><trkpt lat="44.9251512" lon="5.2903811"><ele>1217.6666666666667</ele><time>2026-04-18T16:57:08.433Z</time></trkpt><trkpt lat="44.9253161" lon="5.2903636"><ele>1214.0</ele><time>2026-04-18T16:57:09.433Z</time></trkpt><trkpt lat="44.9254949" lon="5.2903483"><ele>1214.0</ele><time>2026-04-18T16:57:10.433Z</time></trkpt><trkpt lat="44.9256959" lon="5.2903362"><ele>1214.0</ele><time>2026-04-18T16:57:11.432Z</time></trkpt><trkpt lat="44.9258978" lon="5.2903211"><ele>1214.0</ele><time>2026-04-18T16:57:12.433Z</time></trkpt><trkpt lat="44.9261035" lon="5.2903029"><ele>1212.3333333333335</ele><time>2026-04-18T16:57:13.433Z</time></trkpt><trkpt lat="44.9263092" lon="5.2902822"><ele>1210.6666666666667</ele><time>2026-04-18T16:57:14.433Z</time></trkpt><trkpt lat="44.9265113" lon="5.2902736"><ele>1209.0</ele><time>2026-04-18T16:57:15.433Z</time></trkpt><trkpt lat="44.9267309" lon="5.2902228"><ele>1205.0</ele><time>2026-04-18T16:57:16.433Z</time></trkpt><trkpt lat="44.9269479" lon="5.2901711"><ele>1201.0</ele><time>2026-04-18T16:57:17.433Z</time></trkpt><trkpt lat="44.9271906" lon="5.2900968"><ele>1201.0</ele><time>2026-04-18T16:57:18.432Z</time></trkpt><trkpt lat="44.92741" lon="5.2900493"><ele>1201.0</ele><time>2026-04-18T16:57:19.433Z</time></trkpt><trkpt lat="44.9276358" lon="5.2899879"><ele>1199.5</ele><time>2026-04-18T16:57:20.433Z</time></trkpt><trkpt lat="44.9278609" lon="5.2899365"><ele>1198.0</ele><time>2026-04-18T16:57:21.432Z</time></trkpt><trkpt lat="44.9280936" lon="5.289888"><ele>1198.0</ele><time>2026-04-18T16:57:22.433Z</time></trkpt><trkpt lat="44.9283356" lon="5.2898517"><ele>1198.0</ele><time>2026-04-18T16:57:23.433Z</time></trkpt><trkpt lat="44.928565" lon="5.2898183"><ele>1195.0</ele><time>2026-04-18T16:57:24.432Z</time></trkpt><trkpt lat="44.9287779" lon="5.2897918"><ele>1192.0</ele><time>2026-04-18T16:57:25.433Z</time></trkpt><trkpt lat="44.928987" lon="5.289792"><ele>1189.0</ele><time>2026-04-18T16:57:26.434Z</time></trkpt><trkpt lat="44.9291231" lon="5.2898004"><ele>1187.6666666666665</ele><time>2026-04-18T16:57:27.432Z</time></trkpt><trkpt lat="44.92929" lon="5.2898325"><ele>1186.3333333333333</ele><time>2026-04-18T16:57:28.433Z</time></trkpt><trkpt lat="44.9294495" lon="5.2899077"><ele>1185.0</ele><time>2026-04-18T16:57:29.433Z</time></trkpt><trkpt lat="44.9295906" lon="5.2899904"><ele>1185.0</ele><time>2026-04-18T16:57:30.433Z</time></trkpt><trkpt lat="44.9297312" lon="5.2900639"><ele>1185.0</ele><time>2026-04-18T16:57:31.433Z</time></trkpt><trkpt lat="44.9298658" lon="5.290107"><ele>1185.0</ele><time>2026-04-18T16:57:32.433Z</time></trkpt><trkpt lat="44.9299878" lon="5.2901298"><ele>1185.0</ele><time>2026-04-18T16:57:33.433Z</time></trkpt><trkpt lat="44.9301357" lon="5.2900616"><ele>1186.3333333333333</ele><time>2026-04-18T16:57:34.433Z</time></trkpt><trkpt lat="44.9302761" lon="5.2900006"><ele>1187.6666666666665</ele><time>2026-04-18T16:57:35.433Z</time></trkpt><trkpt lat="44.930416" lon="5.2898089"><ele>1189.0</ele><time>2026-04-18T16:57:36.433Z</time></trkpt><trkpt lat="44.9305692" lon="5.2896727"><ele>1187.6666666666665</ele><time>2026-04-18T16:57:37.433Z</time></trkpt><trkpt lat="44.930727" lon="5.2895129"><ele>1186.3333333333333</ele><time>2026-04-18T16:57:38.432Z</time></trkpt><trkpt lat="44.9308769" lon="5.2893617"><ele>1185.0</ele><time>2026-04-18T16:57:39.433Z</time></trkpt><trkpt lat="44.9310195" lon="5.289207"><ele>1185.0</ele><time>2026-04-18T16:57:40.433Z</time></trkpt><trkpt lat="44.9311682" lon="5.2890583"><ele>1185.0</ele><time>2026-04-18T16:57:41.433Z</time></trkpt><trkpt lat="44.931309" lon="5.2889073"><ele>1185.0</ele><time>2026-04-18T16:57:42.433Z</time></trkpt><trkpt lat="44.9313912" lon="5.2887389"><ele>1183.0</ele><time>2026-04-18T16:57:43.432Z</time></trkpt><trkpt lat="44.9314953" lon="5.2885724"><ele>1181.0</ele><time>2026-04-18T16:57:44.433Z</time></trkpt><trkpt lat="44.9316083" lon="5.2884148"><ele>1179.0</ele><time>2026-04-18T16:57:45.433Z</time></trkpt><trkpt lat="44.9317387" lon="5.2882742"><ele>1179.0</ele><time>2026-04-18T16:57:46.433Z</time></trkpt><trkpt lat="44.9318854" lon="5.2881463"><ele>1179.0</ele><time>2026-04-18T16:57:47.433Z</time></trkpt><trkpt lat="44.93205" lon="5.2880388"><ele>1179.0</ele><time>2026-04-18T16:57:48.432Z</time></trkpt><trkpt lat="44.9322199" lon="5.2879308"><ele>1176.0</ele><time>2026-04-18T16:57:49.433Z</time></trkpt><trkpt lat="44.9323997" lon="5.2878113"><ele>1173.0</ele><time>2026-04-18T16:57:50.433Z</time></trkpt><trkpt lat="44.9325841" lon="5.2876794"><ele>1170.0</ele><time>2026-04-18T16:57:51.433Z</time></trkpt><trkpt lat="44.9327971" lon="5.2875531"><ele>1170.0</ele><time>2026-04-18T16:57:52.433Z</time></trkpt><trkpt lat="44.9329997" lon="5.287428"><ele>1170.0</ele><time>2026-04-18T16:57:53.433Z</time></trkpt><trkpt lat="44.9332023" lon="5.2873094"><ele>1170.0</ele><time>2026-04-18T16:57:54.433Z</time></trkpt><trkpt lat="44.9334024" lon="5.2871933"><ele>1166.3333333333333</ele><time>2026-04-18T16:57:55.433Z</time></trkpt><trkpt lat="44.9336071" lon="5.2870904"><ele>1162.6666666666665</ele><time>2026-04-18T16:57:56.433Z</time></trkpt><trkpt lat="44.9338159" lon="5.2869974"><ele>1159.0</ele><time>2026-04-18T16:57:57.433Z</time></trkpt><trkpt lat="44.9340185" lon="5.286912"><ele>1159.0</ele><time>2026-04-18T16:57:58.433Z</time></trkpt><trkpt lat="44.9342155" lon="5.2868492"><ele>1159.0</ele><time>2026-04-18T16:57:59.433Z</time></trkpt><trkpt lat="44.9344102" lon="5.2868003"><ele>1159.0</ele><time>2026-04-18T16:58:00.433Z</time></trkpt><trkpt lat="44.9346069" lon="5.2867645"><ele>1157.6666666666665</ele><time>2026-04-18T16:58:01.433Z</time></trkpt><trkpt lat="44.9348068" lon="5.2867349"><ele>1156.3333333333333</ele><time>2026-04-18T16:58:02.433Z</time></trkpt><trkpt lat="44.9350037" lon="5.2867167"><ele>1155.0</ele><time>2026-04-18T16:58:03.432Z</time></trkpt><trkpt lat="44.9351994" lon="5.2867114"><ele>1154.6666666666667</ele><time>2026-04-18T16:58:04.433Z</time></trkpt><trkpt lat="44.9354043" lon="5.2867184"><ele>1154.3333333333335</ele><time>2026-04-18T16:58:05.433Z</time></trkpt><trkpt lat="44.9356148" lon="5.2867228"><ele>1154.0</ele><time>2026-04-18T16:58:06.433Z</time></trkpt><trkpt lat="44.9358149" lon="5.2867324"><ele>1150.6666666666667</ele><time>2026-04-18T16:58:07.433Z</time></trkpt><trkpt lat="44.9360085" lon="5.2867467"><ele>1147.3333333333333</ele><time>2026-04-18T16:58:08.432Z</time></trkpt><trkpt lat="44.9361951" lon="5.2867701"><ele>1144.0</ele><time>2026-04-18T16:58:09.433Z</time></trkpt><trkpt lat="44.9363812" lon="5.286811"><ele>1144.0</ele><time>2026-04-18T16:58:10.433Z</time></trkpt><trkpt lat="44.9365687" lon="5.2868797"><ele>1144.0</ele><time>2026-04-18T16:58:11.433Z</time></trkpt><trkpt lat="44.936756" lon="5.2869742"><ele>1144.0</ele><time>2026-04-18T16:58:12.433Z</time></trkpt><trkpt lat="44.9369401" lon="5.2870824"><ele>1143.3333333333333</ele><time>2026-04-18T16:58:13.433Z</time></trkpt><trkpt lat="44.9371205" lon="5.2871987"><ele>1142.6666666666667</ele><time>2026-04-18T16:58:14.434Z</time></trkpt><trkpt lat="44.937294" lon="5.2873073"><ele>1142.0</ele><time>2026-04-18T16:58:15.433Z</time></trkpt><trkpt lat="44.9374581" lon="5.2874139"><ele>1140.6666666666667</ele><time>2026-04-18T16:58:16.433Z</time></trkpt><trkpt lat="44.9376206" lon="5.2874935"><ele>1139.3333333333333</ele><time>2026-04-18T16:58:17.433Z</time></trkpt><trkpt lat="44.9377706" lon="5.2875496"><ele>1138.0</ele><time>2026-04-18T16:58:18.433Z</time></trkpt><trkpt lat="44.937901" lon="5.2875797"><ele>1138.0</ele><time>2026-04-18T16:58:19.433Z</time></trkpt><trkpt lat="44.9380214" lon="5.2875935"><ele>1138.0</ele><time>2026-04-18T16:58:20.433Z</time></trkpt><trkpt lat="44.9381212" lon="5.2874934"><ele>1138.0</ele><time>2026-04-18T16:58:21.433Z</time></trkpt><trkpt lat="44.9382144" lon="5.2873732"><ele>1138.0</ele><time>2026-04-18T16:58:22.433Z</time></trkpt><trkpt lat="44.9382782" lon="5.2871933"><ele>1139.0</ele><time>2026-04-18T16:58:23.433Z</time></trkpt><trkpt lat="44.9383619" lon="5.2870291"><ele>1140.0</ele><time>2026-04-18T16:58:24.432Z</time></trkpt><trkpt lat="44.9384755" lon="5.2868715"><ele>1141.0</ele><time>2026-04-18T16:58:25.433Z</time></trkpt><trkpt lat="44.9386071" lon="5.2867162"><ele>1141.0</ele><time>2026-04-18T16:58:26.433Z</time></trkpt><trkpt lat="44.9387606" lon="5.2865649"><ele>1141.0</ele><time>2026-04-18T16:58:27.433Z</time></trkpt><trkpt lat="44.938916" lon="5.2864169"><ele>1141.0</ele><time>2026-04-18T16:58:28.432Z</time></trkpt><trkpt lat="44.9390593" lon="5.2862587"><ele>1138.3333333333333</ele><time>2026-04-18T16:58:29.433Z</time></trkpt><trkpt lat="44.9392011" lon="5.2860812"><ele>1135.6666666666667</ele><time>2026-04-18T16:58:30.433Z</time></trkpt><trkpt lat="44.9393172" lon="5.2859092"><ele>1133.0</ele><time>2026-04-18T16:58:31.433Z</time></trkpt><trkpt lat="44.9394343" lon="5.2857712"><ele>1133.0</ele><time>2026-04-18T16:58:32.433Z</time></trkpt><trkpt lat="44.9395764" lon="5.285644"><ele>1133.0</ele><time>2026-04-18T16:58:33.433Z</time></trkpt><trkpt lat="44.9397075" lon="5.2855043"><ele>1133.0</ele><time>2026-04-18T16:58:34.433Z</time></trkpt><trkpt lat="44.9398658" lon="5.2853823"><ele>1126.0</ele><time>2026-04-18T16:58:35.433Z</time></trkpt><trkpt lat="44.9400917" lon="5.2853545"><ele>1119.0</ele><time>2026-04-18T16:58:36.433Z</time></trkpt><trkpt lat="44.9402669" lon="5.2852914"><ele>1112.0</ele><time>2026-04-18T16:58:37.433Z</time></trkpt><trkpt lat="44.9404464" lon="5.2852319"><ele>1112.0</ele><time>2026-04-18T16:58:38.433Z</time></trkpt><trkpt lat="44.9406084" lon="5.2851774"><ele>1112.0</ele><time>2026-04-18T16:58:39.433Z</time></trkpt><trkpt lat="44.9407589" lon="5.2851391"><ele>1112.0</ele><time>2026-04-18T16:58:40.433Z</time></trkpt><trkpt lat="44.9409207" lon="5.2851203"><ele>1111.0</ele><time>2026-04-18T16:58:41.433Z</time></trkpt><trkpt lat="44.9410891" lon="5.2851124"><ele>1110.0</ele><time>2026-04-18T16:58:42.434Z</time></trkpt><trkpt lat="44.9412702" lon="5.285124"><ele>1109.0</ele><time>2026-04-18T16:58:43.434Z</time></trkpt><trkpt lat="44.9414643" lon="5.2851503"><ele>1109.0</ele><time>2026-04-18T16:58:44.433Z</time></trkpt><trkpt lat="44.9416644" lon="5.2851687"><ele>1109.0</ele><time>2026-04-18T16:58:45.434Z</time></trkpt><trkpt lat="44.9418717" lon="5.2851957"><ele>1109.0</ele><time>2026-04-18T16:58:46.434Z</time></trkpt><trkpt lat="44.9420775" lon="5.2852372"><ele>1105.6666666666667</ele><time>2026-04-18T16:58:47.434Z</time></trkpt><trkpt lat="44.9422898" lon="5.2852846"><ele>1102.3333333333333</ele><time>2026-04-18T16:58:48.433Z</time></trkpt><trkpt lat="44.9424926" lon="5.2853363"><ele>1099.0</ele><time>2026-04-18T16:58:49.434Z</time></trkpt><trkpt lat="44.9426785" lon="5.2853895"><ele>1099.0</ele><time>2026-04-18T16:58:50.433Z</time></trkpt><trkpt lat="44.9428488" lon="5.2854417"><ele>1099.0</ele><time>2026-04-18T16:58:51.434Z</time></trkpt><trkpt lat="44.9429978" lon="5.2855032"><ele>1099.0</ele><time>2026-04-18T16:58:52.434Z</time></trkpt><trkpt lat="44.9431343" lon="5.285601"><ele>1098.6666666666665</ele><time>2026-04-18T16:58:53.434Z</time></trkpt><trkpt lat="44.9432519" lon="5.2857326"><ele>1098.3333333333333</ele><time>2026-04-18T16:58:54.434Z</time></trkpt><trkpt lat="44.9433515" lon="5.2858868"><ele>1098.0</ele><time>2026-04-18T16:58:55.434Z</time></trkpt><trkpt lat="44.9434553" lon="5.2860624"><ele>1098.0</ele><time>2026-04-18T16:58:56.434Z</time></trkpt><trkpt lat="44.9435614" lon="5.2862113"><ele>1098.0</ele><time>2026-04-18T16:58:57.434Z</time></trkpt><trkpt lat="44.9436713" lon="5.286321"><ele>1098.0</ele><time>2026-04-18T16:58:58.434Z</time></trkpt><trkpt lat="44.9437814" lon="5.2864234"><ele>1098.0</ele><time>2026-04-18T16:58:59.434Z</time></trkpt><trkpt lat="44.9438719" lon="5.2864981"><ele>1098.0</ele><time>2026-04-18T16:59:00.433Z</time></trkpt><trkpt lat="44.9439466" lon="5.2864422"><ele>1098.0</ele><time>2026-04-18T16:59:01.434Z</time></trkpt><trkpt lat="44.9440517" lon="5.2864291"><ele>1098.0</ele><time>2026-04-18T16:59:03.433Z</time></trkpt><trkpt lat="44.9441206" lon="5.2864056"><ele>1098.0</ele><time>2026-04-18T16:59:05.434Z</time></trkpt><trkpt lat="44.9441849" lon="5.2864282"><ele>1098.0</ele><time>2026-04-18T16:59:07.434Z</time></trkpt><trkpt lat="44.9442703" lon="5.2864641"><ele>1098.0</ele><time>2026-04-18T16:59:09.434Z</time></trkpt><trkpt lat="44.9443482" lon="5.2864817"><ele>1097.5</ele><time>2026-04-18T16:59:11.433Z</time></trkpt><trkpt lat="44.9444286" lon="5.286461"><ele>1097.0</ele><time>2026-04-18T16:59:12.434Z</time></trkpt><trkpt lat="44.9445355" lon="5.286456"><ele>1096.5</ele><time>2026-04-18T16:59:14.434Z</time></trkpt><trkpt lat="44.9446284" lon="5.2864394"><ele>1096.0</ele><time>2026-04-18T16:59:16.434Z</time></trkpt><trkpt lat="44.9446921" lon="5.2864097"><ele>1095.5</ele><time>2026-04-18T16:59:18.433Z</time></trkpt><trkpt lat="44.9447646" lon="5.2863938"><ele>1095.0</ele><time>2026-04-18T16:59:21.434Z</time></trkpt><trkpt lat="44.9448273" lon="5.2863761"><ele>1095.0</ele><time>2026-04-18T16:59:23.434Z</time></trkpt><trkpt lat="44.9448827" lon="5.2863319"><ele>1095.0</ele><time>2026-04-18T16:59:29.433Z</time></trkpt><trkpt lat="44.9449487" lon="5.2863704"><ele>1095.0</ele><time>2026-04-18T16:59:47.434Z</time></trkpt><trkpt lat="44.9448809" lon="5.2864143"><ele>1095.0</ele><time>2026-04-18T16:59:51.434Z</time></trkpt><trkpt lat="44.9447998" lon="5.2864233"><ele>1095.0</ele><time>2026-04-18T16:59:53.433Z</time></trkpt><trkpt lat="44.9447081" lon="5.2864538"><ele>1095.0</ele><time>2026-04-18T16:59:55.434Z</time></trkpt><trkpt lat="44.9446116" lon="5.2864811"><ele>1097.6</ele><time>2026-04-18T16:59:57.434Z</time></trkpt><trkpt lat="44.9445138" lon="5.28649"><ele>1100.2</ele><time>2026-04-18T16:59:59.434Z</time></trkpt><trkpt lat="44.9444296" lon="5.2864838"><ele>1102.8</ele><time>2026-04-18T17:00:01.434Z</time></trkpt><trkpt lat="44.9443421" lon="5.2864714"><ele>1105.4</ele><time>2026-04-18T17:00:03.434Z</time></trkpt><trkpt lat="44.9442464" lon="5.2864715"><ele>1108.0</ele><time>2026-04-18T17:00:05.434Z</time></trkpt><trkpt lat="44.9441454" lon="5.2864535"><ele>1108.0</ele><time>2026-04-18T17:00:07.434Z</time></trkpt><trkpt lat="44.9440604" lon="5.2864526"><ele>1108.0</ele><time>2026-04-18T17:00:09.434Z</time></trkpt><trkpt lat="44.94396" lon="5.2865093"><ele>1108.0</ele><time>2026-04-18T17:00:11.434Z</time></trkpt><trkpt lat="44.9438761" lon="5.2864912"><ele>1108.0</ele><time>2026-04-18T17:00:13.434Z</time></trkpt><trkpt lat="44.9439081" lon="5.2863963"><ele>1108.0</ele><time>2026-04-18T17:00:40.434Z</time></trkpt><trkpt lat="44.943984" lon="5.2864107"><ele>1108.0</ele><time>2026-04-18T17:00:41.434Z</time></trkpt><trkpt lat="44.9440865" lon="5.2863965"><ele>1104.75</ele><time>2026-04-18T17:00:42.434Z</time></trkpt><trkpt lat="44.9442317" lon="5.286389"><ele>1101.5</ele><time>2026-04-18T17:00:43.434Z</time></trkpt><trkpt lat="44.9443894" lon="5.2863645"><ele>1098.25</ele><time>2026-04-18T17:00:44.434Z</time></trkpt><trkpt lat="44.9445201" lon="5.2863464"><ele>1095.0</ele><time>2026-04-18T17:00:45.434Z</time></trkpt><trkpt lat="44.9446707" lon="5.2863197"><ele>1095.0</ele><time>2026-04-18T17:00:46.434Z</time></trkpt><trkpt lat="44.9448334" lon="5.2862998"><ele>1095.0</ele><time>2026-04-18T17:00:47.434Z</time></trkpt><trkpt lat="44.9449896" lon="5.2862799"><ele>1095.0</ele><time>2026-04-18T17:00:48.434Z</time></trkpt><trkpt lat="44.9451604" lon="5.2862765"><ele>1094.0</ele><time>2026-04-18T17:00:49.434Z</time></trkpt><trkpt lat="44.9453275" lon="5.2862892"><ele>1093.0</ele><time>2026-04-18T17:00:50.433Z</time></trkpt><trkpt lat="44.9454936" lon="5.2863373"><ele>1092.0</ele><time>2026-04-18T17:00:51.434Z</time></trkpt><trkpt lat="44.9456699" lon="5.2864124"><ele>1092.3333333333333</ele><time>2026-04-18T17:00:52.434Z</time></trkpt><trkpt lat="44.9458541" lon="5.2865089"><ele>1092.6666666666665</ele><time>2026-04-18T17:00:53.434Z</time></trkpt><trkpt lat="44.9460392" lon="5.2866081"><ele>1093.0</ele><time>2026-04-18T17:00:54.434Z</time></trkpt><trkpt lat="44.9462076" lon="5.2867101"><ele>1093.0</ele><time>2026-04-18T17:00:55.434Z</time></trkpt><trkpt lat="44.9463546" lon="5.2868093"><ele>1093.0</ele><time>2026-04-18T17:00:56.434Z</time></trkpt><trkpt lat="44.946479" lon="5.2868996"><ele>1093.0</ele><time>2026-04-18T17:00:57.434Z</time></trkpt><trkpt lat="44.9465755" lon="5.2870075"><ele>1093.0</ele><time>2026-04-18T17:00:58.434Z</time></trkpt><trkpt lat="44.9466684" lon="5.2870873"><ele>1092.3333333333333</ele><time>2026-04-18T17:00:59.434Z</time></trkpt><trkpt lat="44.9467478" lon="5.2871673"><ele>1091.6666666666665</ele><time>2026-04-18T17:01:00.434Z</time></trkpt><trkpt lat="44.9468261" lon="5.2872426"><ele>1091.0</ele><time>2026-04-18T17:01:01.434Z</time></trkpt><trkpt lat="44.9468963" lon="5.2872911"><ele>1090.3333333333333</ele><time>2026-04-18T17:01:02.434Z</time></trkpt><trkpt lat="44.9469749" lon="5.2872837"><ele>1089.6666666666667</ele><time>2026-04-18T17:01:04.434Z</time></trkpt><trkpt lat="44.9470482" lon="5.2872852"><ele>1089.0</ele><time>2026-04-18T17:01:06.434Z</time></trkpt><trkpt lat="44.9471171" lon="5.2872772"><ele>1090.75</ele><time>2026-04-18T17:01:12.434Z</time></trkpt><trkpt lat="44.9472365" lon="5.2873413"><ele>1092.5</ele><time>2026-04-18T17:01:55.434Z</time></trkpt><trkpt lat="44.9473586" lon="5.2873553"><ele>1094.25</ele><time>2026-04-18T17:01:59.434Z</time></trkpt><trkpt lat="44.947446" lon="5.2873777"><ele>1096.0</ele><time>2026-04-18T17:02:01.433Z</time></trkpt><trkpt lat="44.947556" lon="5.287409"><ele>1096.0</ele><time>2026-04-18T17:02:03.433Z</time></trkpt><trkpt lat="44.9476325" lon="5.2874074"><ele>1096.0</ele><time>2026-04-18T17:02:04.433Z</time></trkpt><trkpt lat="44.9477157" lon="5.2873907"><ele>1096.0</ele><time>2026-04-18T17:02:05.434Z</time></trkpt><trkpt lat="44.9477895" lon="5.2873774"><ele>1096.0</ele><time>2026-04-18T17:02:06.433Z</time></trkpt><trkpt lat="44.9478634" lon="5.2873511"><ele>1096.0</ele><time>2026-04-18T17:02:08.433Z</time></trkpt><trkpt lat="44.9479427" lon="5.2873361"><ele>1096.0</ele><time>2026-04-18T17:02:10.434Z</time></trkpt><trkpt lat="44.9480078" lon="5.287362"><ele>1096.0</ele><time>2026-04-18T17:02:12.434Z</time></trkpt><trkpt lat="44.9480796" lon="5.2873847"><ele>1096.0</ele><time>2026-04-18T17:02:14.434Z</time></trkpt><trkpt lat="44.9481449" lon="5.2873663"><ele>1096.0</ele><time>2026-04-18T17:02:15.434Z</time></trkpt><trkpt lat="44.9482201" lon="5.2873554"><ele>1096.0</ele><time>2026-04-18T17:02:17.434Z</time></trkpt><trkpt lat="44.9482969" lon="5.2873595"><ele>1096.0</ele><time>2026-04-18T17:03:15.434Z</time></trkpt><trkpt lat="44.9483559" lon="5.2874038"><ele>1096.0</ele><time>2026-04-18T17:03:19.434Z</time></trkpt><trkpt lat="44.9483716" lon="5.2875491"><ele>1095.6666666666665</ele><time>2026-04-18T17:03:21.434Z</time></trkpt><trkpt lat="44.9483981" lon="5.2876778"><ele>1095.3333333333333</ele><time>2026-04-18T17:03:23.434Z</time></trkpt><trkpt lat="44.9484477" lon="5.2877742"><ele>1095.0</ele><time>2026-04-18T17:03:25.434Z</time></trkpt><trkpt lat="44.9485232" lon="5.2878261"><ele>1094.6666666666667</ele><time>2026-04-18T17:03:28.433Z</time></trkpt><trkpt lat="44.9485798" lon="5.2878713"><ele>1094.3333333333335</ele><time>2026-04-18T17:03:32.434Z</time></trkpt><trkpt lat="44.9486408" lon="5.2879074"><ele>1094.0</ele><time>2026-04-18T17:03:38.433Z</time></trkpt><trkpt lat="44.94871" lon="5.2879178"><ele>1094.0</ele><time>2026-04-18T17:03:40.434Z</time></trkpt><trkpt lat="44.9488184" lon="5.2878386"><ele>1094.0</ele><time>2026-04-18T17:03:41.434Z</time></trkpt><trkpt lat="44.9489238" lon="5.2878189"><ele>1094.0</ele><time>2026-04-18T17:03:43.434Z</time></trkpt><trkpt lat="44.9489994" lon="5.2877838"><ele>1094.0</ele><time>2026-04-18T17:03:45.435Z</time></trkpt><trkpt lat="44.9490661" lon="5.2877398"><ele>1094.0</ele><time>2026-04-18T17:03:47.433Z</time></trkpt><trkpt lat="44.9491466" lon="5.2876503"><ele>1093.5714285714284</ele><time>2026-04-18T17:03:49.434Z</time></trkpt><trkpt lat="44.9492225" lon="5.2875727"><ele>1093.142857142857</ele><time>2026-04-18T17:03:51.434Z</time></trkpt><trkpt lat="44.9492431" lon="5.2874871"><ele>1092.7142857142858</ele><time>2026-04-18T17:03:55.433Z</time></trkpt><trkpt lat="44.949287" lon="5.287418"><ele>1092.2857142857142</ele><time>2026-04-18T17:04:06.434Z</time></trkpt><trkpt lat="44.9493471" lon="5.2873899"><ele>1091.857142857143</ele><time>2026-04-18T17:04:15.433Z</time></trkpt><trkpt lat="44.9493136" lon="5.2873048"><ele>1091.4285714285713</ele><time>2026-04-18T17:25:37.436Z</time></trkpt><trkpt lat="44.9493556" lon="5.287374"><ele>1091.0</ele><time>2026-04-18T17:26:50.435Z</time></trkpt><trkpt lat="44.9493108" lon="5.2874779"><ele>1091.0</ele><time>2026-04-18T17:26:54.435Z</time></trkpt><trkpt lat="44.9492677" lon="5.2875492"><ele>1091.0</ele><time>2026-04-18T17:26:57.435Z</time></trkpt><trkpt lat="44.9492042" lon="5.287597"><ele>1091.0</ele><time>2026-04-18T17:27:02.434Z</time></trkpt><trkpt lat="44.9491431" lon="5.28764"><ele>1091.0</ele><time>2026-04-18T17:27:07.342Z</time></trkpt><trkpt lat="44.9490898" lon="5.2877129"><ele>1091.0</ele><time>2026-04-18T17:27:13.425Z</time></trkpt><trkpt lat="44.9490456" lon="5.2877795"><ele>1091.0</ele><time>2026-04-18T17:27:19.435Z</time></trkpt><trkpt lat="44.9489948" lon="5.2878375"><ele>1091.0</ele><time>2026-04-18T17:27:25.434Z</time></trkpt><trkpt lat="44.9489386" lon="5.2878875"><ele>1091.4285714285713</ele><time>2026-04-18T17:27:33.435Z</time></trkpt><trkpt lat="44.948873" lon="5.2879017"><ele>1091.857142857143</ele><time>2026-04-18T17:27:43.434Z</time></trkpt><trkpt lat="44.9488061" lon="5.2879151"><ele>1092.2857142857142</ele><time>2026-04-18T17:27:51.437Z</time></trkpt><trkpt lat="44.9487388" lon="5.2879256"><ele>1092.7142857142858</ele><time>2026-04-18T17:28:02.443Z</time></trkpt><trkpt lat="44.9486683" lon="5.2879273"><ele>1093.142857142857</ele><time>2026-04-18T17:28:09.434Z</time></trkpt><trkpt lat="44.9486045" lon="5.2879067"><ele>1093.5714285714284</ele><time>2026-04-18T17:28:14.434Z</time></trkpt><trkpt lat="44.9485368" lon="5.2878768"><ele>1094.0</ele><time>2026-04-18T17:28:22.344Z</time></trkpt><trkpt lat="44.9484669" lon="5.2878856"><ele>1094.0</ele><time>2026-04-18T17:28:31.436Z</time></trkpt><trkpt lat="44.9484218" lon="5.2878209"><ele>1094.0</ele><time>2026-04-18T17:28:37.363Z</time></trkpt><trkpt lat="44.9483769" lon="5.2877356"><ele>1094.0</ele><time>2026-04-18T17:28:45.464Z</time></trkpt><trkpt lat="44.9483615" lon="5.2876443"><ele>1094.0</ele><time>2026-04-18T17:28:51.435Z</time></trkpt><trkpt lat="44.9483629" lon="5.28755"><ele>1094.0</ele><time>2026-04-18T17:28:56.435Z</time></trkpt><trkpt lat="44.9483476" lon="5.287462"><ele>1094.0</ele><time>2026-04-18T17:29:04.435Z</time></trkpt><trkpt lat="44.9483919" lon="5.2873985"><ele>1094.0</ele><time>2026-04-18T17:29:17.435Z</time></trkpt><trkpt lat="44.9483575" lon="5.2874792"><ele>1094.0</ele><time>2026-04-18T17:35:21.435Z</time></trkpt><trkpt lat="44.9483923" lon="5.2873546"><ele>1094.0</ele><time>2026-04-18T17:37:36.435Z</time></trkpt><trkpt lat="44.948374" lon="5.2874517"><ele>1094.0</ele><time>2026-04-18T17:39:27.434Z</time></trkpt><trkpt lat="44.9483914" lon="5.2875442"><ele>1094.0</ele><time>2026-04-18T17:39:41.437Z</time></trkpt><trkpt lat="44.948403" lon="5.2876423"><ele>1094.0</ele><time>2026-04-18T17:39:49.441Z</time></trkpt><trkpt lat="44.9484401" lon="5.287718"><ele>1094.0</ele><time>2026-04-18T17:39:57.445Z</time></trkpt><trkpt lat="44.9484607" lon="5.2878119"><ele>1094.0</ele><time>2026-04-18T17:40:09.364Z</time></trkpt><trkpt lat="44.948509" lon="5.2878884"><ele>1094.0</ele><time>2026-04-18T17:40:24.435Z</time></trkpt><trkpt lat="44.9485796" lon="5.2878824"><ele>1094.0</ele><time>2026-04-18T17:40:32.463Z</time></trkpt><trkpt lat="44.9486428" lon="5.2878852"><ele>1094.0</ele><time>2026-04-18T17:40:37.435Z</time></trkpt><trkpt lat="44.9487127" lon="5.2879004"><ele>1094.0</ele><time>2026-04-18T17:40:42.435Z</time></trkpt><trkpt lat="44.9487785" lon="5.2879406"><ele>1094.0</ele><time>2026-04-18T17:40:46.435Z</time></trkpt><trkpt lat="44.9488429" lon="5.2879516"><ele>1094.0</ele><time>2026-04-18T17:40:52.435Z</time></trkpt><trkpt lat="44.9489069" lon="5.2879216"><ele>1094.0</ele><time>2026-04-18T17:40:57.389Z</time></trkpt><trkpt lat="44.948971" lon="5.2878869"><ele>1094.0</ele><time>2026-04-18T17:41:02.452Z</time></trkpt><trkpt lat="44.9490273" lon="5.2878471"><ele>1094.0</ele><time>2026-04-18T17:41:08.434Z</time></trkpt><trkpt lat="44.9490781" lon="5.2877805"><ele>1094.0</ele><time>2026-04-18T17:41:13.436Z</time></trkpt><trkpt lat="44.9491332" lon="5.2877161"><ele>1094.0</ele><time>2026-04-18T17:41:18.45Z</time></trkpt><trkpt lat="44.9491806" lon="5.2876449"><ele>1094.0</ele><time>2026-04-18T17:41:23.354Z</time></trkpt><trkpt lat="44.9492239" lon="5.287572"><ele>1094.0</ele><time>2026-04-18T17:41:28.435Z</time></trkpt><trkpt lat="44.949282" lon="5.2874977"><ele>1094.0</ele><time>2026-04-18T17:41:34.435Z</time></trkpt><trkpt lat="44.9493316" lon="5.287425"><ele>1094.0</ele><time>2026-04-18T17:41:40.45Z</time></trkpt><trkpt lat="44.949389" lon="5.2873771"><ele>1094.0</ele><time>2026-04-18T17:41:46.434Z</time></trkpt><trkpt lat="44.9493279" lon="5.2874125"><ele>1094.0</ele><time>2026-04-18T17:54:34.442Z</time></trkpt><trkpt lat="44.9492743" lon="5.2874687"><ele>1094.0</ele><time>2026-04-18T17:54:38.444Z</time></trkpt><trkpt lat="44.9492151" lon="5.2875108"><ele>1094.0</ele><time>2026-04-18T17:54:43.435Z</time></trkpt><trkpt lat="44.9491702" lon="5.2875764"><ele>1094.0</ele><time>2026-04-18T17:54:50.436Z</time></trkpt><trkpt lat="44.9491529" lon="5.2876841"><ele>1094.0</ele><time>2026-04-18T17:56:22.512Z</time></trkpt><trkpt lat="44.9491053" lon="5.2877637"><ele>1094.0</ele><time>2026-04-18T17:56:25.437Z</time></trkpt><trkpt lat="44.9490446" lon="5.2878214"><ele>1094.0</ele><time>2026-04-18T17:56:32.437Z</time></trkpt><trkpt lat="44.9489706" lon="5.2878364"><ele>1094.0</ele><time>2026-04-18T17:57:13.436Z</time></trkpt><trkpt lat="44.9489119" lon="5.2878833"><ele>1094.0</ele><time>2026-04-18T17:57:17.508Z</time></trkpt><trkpt lat="44.94884" lon="5.2879116"><ele>1094.0</ele><time>2026-04-18T17:57:23.103Z</time></trkpt><trkpt lat="44.9487452" lon="5.2878765"><ele>1094.0</ele><time>2026-04-18T17:57:28.437Z</time></trkpt><trkpt lat="44.9484079" lon="5.2876053"><ele>1094.0</ele><time>2026-04-18T17:57:33.437Z</time></trkpt><trkpt lat="44.9483951" lon="5.2874265"><ele>1094.0</ele><time>2026-04-18T17:57:35.436Z</time></trkpt><trkpt lat="44.9484014" lon="5.2872917"><ele>1094.0</ele><time>2026-04-18T17:57:37.436Z</time></trkpt><trkpt lat="44.948476" lon="5.2872589"><ele>1094.0</ele><time>2026-04-18T17:57:40.436Z</time></trkpt><trkpt lat="44.948538" lon="5.2872773"><ele>1094.0</ele><time>2026-04-18T17:57:44.436Z</time></trkpt><trkpt lat="44.9484741" lon="5.2872815"><ele>1094.0</ele><time>2026-04-18T17:58:02.437Z</time></trkpt><trkpt lat="44.948428" lon="5.2873477"><ele>1094.0</ele><time>2026-04-18T17:58:04.437Z</time></trkpt><trkpt lat="44.9484112" lon="5.2874409"><ele>1094.0</ele><time>2026-04-18T17:58:06.436Z</time></trkpt><trkpt lat="44.9483744" lon="5.2875477"><ele>1094.0</ele><time>2026-04-18T17:58:09.437Z</time></trkpt><trkpt lat="44.9482761" lon="5.2875425"><ele>1094.0</ele><time>2026-04-18T17:58:12.438Z</time></trkpt><trkpt lat="44.9482101" lon="5.2874931"><ele>1094.0</ele><time>2026-04-18T17:58:14.438Z</time></trkpt><trkpt lat="44.9481251" lon="5.2874649"><ele>1094.0</ele><time>2026-04-18T17:58:17.437Z</time></trkpt><trkpt lat="44.9481348" lon="5.2873589"><ele>1094.0</ele><time>2026-04-18T17:58:21.437Z</time></trkpt><trkpt lat="44.9482076" lon="5.2873308"><ele>1094.0</ele><time>2026-04-18T17:58:24.437Z</time></trkpt><trkpt lat="44.9482731" lon="5.2873629"><ele>1094.0</ele><time>2026-04-18T17:58:27.437Z</time></trkpt><trkpt lat="44.9483375" lon="5.2873679"><ele>1094.0</ele><time>2026-04-18T17:58:30.436Z</time></trkpt><trkpt lat="44.9484417" lon="5.2873257"><ele>1094.0</ele><time>2026-04-18T17:58:39.436Z</time></trkpt><trkpt lat="44.9485156" lon="5.287299"><ele>1094.0</ele><time>2026-04-18T17:58:41.436Z</time></trkpt><trkpt lat="44.9486275" lon="5.2872847"><ele>1092.3333333333335</ele><time>2026-04-18T17:58:43.437Z</time></trkpt><trkpt lat="44.9487496" lon="5.2872437"><ele>1090.6666666666667</ele><time>2026-04-18T17:58:45.437Z</time></trkpt><trkpt lat="44.9488158" lon="5.2871993"><ele>1089.0</ele><time>2026-04-18T17:58:46.437Z</time></trkpt><trkpt lat="44.9488825" lon="5.2871533"><ele>1087.3333333333333</ele><time>2026-04-18T17:58:47.436Z</time></trkpt><trkpt lat="44.9489439" lon="5.2871035"><ele>1085.6666666666665</ele><time>2026-04-18T17:58:48.437Z</time></trkpt><trkpt lat="44.9490078" lon="5.2870438"><ele>1084.0</ele><time>2026-04-18T17:58:49.438Z</time></trkpt><trkpt lat="44.9490821" lon="5.2869787"><ele>1084.0</ele><time>2026-04-18T17:58:50.436Z</time></trkpt><trkpt lat="44.9491502" lon="5.286911"><ele>1084.0</ele><time>2026-04-18T17:58:51.437Z</time></trkpt><trkpt lat="44.9492257" lon="5.2868522"><ele>1084.0</ele><time>2026-04-18T17:58:52.437Z</time></trkpt><trkpt lat="44.9493082" lon="5.2867934"><ele>1084.0</ele><time>2026-04-18T17:58:53.437Z</time></trkpt><trkpt lat="44.9493893" lon="5.2867346"><ele>1084.0</ele><time>2026-04-18T17:58:54.438Z</time></trkpt><trkpt lat="44.949477" lon="5.2866933"><ele>1084.0</ele><time>2026-04-18T17:58:55.437Z</time></trkpt><trkpt lat="44.9495642" lon="5.2866633"><ele>1083.4</ele><time>2026-04-18T17:58:56.437Z</time></trkpt><trkpt lat="44.9496537" lon="5.2866502"><ele>1082.8000000000002</ele><time>2026-04-18T17:58:57.437Z</time></trkpt><trkpt lat="44.9497571" lon="5.2866602"><ele>1082.1999999999998</ele><time>2026-04-18T17:58:58.436Z</time></trkpt><trkpt lat="44.9498714" lon="5.2866786"><ele>1081.6</ele><time>2026-04-18T17:58:59.437Z</time></trkpt><trkpt lat="44.9499827" lon="5.2866772"><ele>1081.0</ele><time>2026-04-18T17:59:00.437Z</time></trkpt><trkpt lat="44.9500937" lon="5.2866763"><ele>1078.8</ele><time>2026-04-18T17:59:01.437Z</time></trkpt><trkpt lat="44.9501988" lon="5.2866774"><ele>1076.6</ele><time>2026-04-18T17:59:02.436Z</time></trkpt><trkpt lat="44.9503012" lon="5.2866906"><ele>1074.4</ele><time>2026-04-18T17:59:03.437Z</time></trkpt><trkpt lat="44.9504044" lon="5.2867035"><ele>1072.2</ele><time>2026-04-18T17:59:04.438Z</time></trkpt><trkpt lat="44.9505264" lon="5.2867497"><ele>1070.0</ele><time>2026-04-18T17:59:05.437Z</time></trkpt><trkpt lat="44.9506379" lon="5.2868447"><ele>1070.0</ele><time>2026-04-18T17:59:06.437Z</time></trkpt><trkpt lat="44.9506907" lon="5.286978"><ele>1070.0</ele><time>2026-04-18T17:59:07.436Z</time></trkpt><trkpt lat="44.950778" lon="5.2870699"><ele>1070.0</ele><time>2026-04-18T17:59:08.437Z</time></trkpt><trkpt lat="44.950866" lon="5.2871554"><ele>1070.0</ele><time>2026-04-18T17:59:09.437Z</time></trkpt><trkpt lat="44.9509622" lon="5.2872407"><ele>1070.0</ele><time>2026-04-18T17:59:10.437Z</time></trkpt><trkpt lat="44.9510601" lon="5.287318"><ele>1070.0</ele><time>2026-04-18T17:59:11.437Z</time></trkpt><trkpt lat="44.9511373" lon="5.2874069"><ele>1070.0</ele><time>2026-04-18T17:59:12.437Z</time></trkpt><trkpt lat="44.9512218" lon="5.2874759"><ele>1070.0</ele><time>2026-04-18T17:59:13.437Z</time></trkpt><trkpt lat="44.951308" lon="5.2875526"><ele>1070.0</ele><time>2026-04-18T17:59:14.436Z</time></trkpt><trkpt lat="44.9513803" lon="5.2876327"><ele>1070.0</ele><time>2026-04-18T17:59:15.437Z</time></trkpt><trkpt lat="44.9514698" lon="5.2876982"><ele>1070.0</ele><time>2026-04-18T17:59:16.437Z</time></trkpt><trkpt lat="44.9515771" lon="5.2877535"><ele>1070.0</ele><time>2026-04-18T17:59:17.437Z</time></trkpt><trkpt lat="44.9516791" lon="5.2877949"><ele>1070.0</ele><time>2026-04-18T17:59:18.436Z</time></trkpt><trkpt lat="44.9517835" lon="5.2878166"><ele>1070.0</ele><time>2026-04-18T17:59:19.437Z</time></trkpt><trkpt lat="44.9518838" lon="5.2878311"><ele>1070.0</ele><time>2026-04-18T17:59:20.437Z</time></trkpt><trkpt lat="44.9519614" lon="5.2878298"><ele>1067.25</ele><time>2026-04-18T17:59:21.513Z</time></trkpt><trkpt lat="44.9521006" lon="5.2878292"><ele>1064.5</ele><time>2026-04-18T17:59:22.657Z</time></trkpt><trkpt lat="44.9522727" lon="5.2878041"><ele>1061.75</ele><time>2026-04-18T17:59:24.437Z</time></trkpt><trkpt lat="44.9523199" lon="5.2877001"><ele>1059.0</ele><time>2026-04-18T17:59:25.436Z</time></trkpt><trkpt lat="44.9523751" lon="5.2876167"><ele>1059.0</ele><time>2026-04-18T17:59:26.437Z</time></trkpt><trkpt lat="44.9523976" lon="5.2875089"><ele>1059.0</ele><time>2026-04-18T17:59:27.436Z</time></trkpt><trkpt lat="44.9523863" lon="5.2873928"><ele>1059.0</ele><time>2026-04-18T17:59:28.438Z</time></trkpt><trkpt lat="44.9523505" lon="5.287267"><ele>1059.0</ele><time>2026-04-18T17:59:29.437Z</time></trkpt><trkpt lat="44.9522941" lon="5.2871244"><ele>1059.0</ele><time>2026-04-18T17:59:30.437Z</time></trkpt><trkpt lat="44.9522238" lon="5.2869888"><ele>1056.75</ele><time>2026-04-18T17:59:31.437Z</time></trkpt><trkpt lat="44.9521418" lon="5.2868639"><ele>1054.5</ele><time>2026-04-18T17:59:32.437Z</time></trkpt><trkpt lat="44.9520507" lon="5.286745"><ele>1052.25</ele><time>2026-04-18T17:59:33.437Z</time></trkpt><trkpt lat="44.9519597" lon="5.2866392"><ele>1050.0</ele><time>2026-04-18T17:59:34.437Z</time></trkpt><trkpt lat="44.9518699" lon="5.2865419"><ele>1050.0</ele><time>2026-04-18T17:59:35.437Z</time></trkpt><trkpt lat="44.9517773" lon="5.2864537"><ele>1050.0</ele><time>2026-04-18T17:59:36.437Z</time></trkpt><trkpt lat="44.951672" lon="5.2863716"><ele>1050.0</ele><time>2026-04-18T17:59:37.437Z</time></trkpt><trkpt lat="44.9515107" lon="5.2862656"><ele>1050.0</ele><time>2026-04-18T17:59:38.771Z</time></trkpt><trkpt lat="44.9514234" lon="5.286119"><ele>1048.75</ele><time>2026-04-18T17:59:39.898Z</time></trkpt><trkpt lat="44.9512629" lon="5.2859711"><ele>1047.5</ele><time>2026-04-18T17:59:41.436Z</time></trkpt><trkpt lat="44.9511659" lon="5.2858679"><ele>1046.25</ele><time>2026-04-18T17:59:42.437Z</time></trkpt><trkpt lat="44.9510718" lon="5.2857626"><ele>1045.0</ele><time>2026-04-18T17:59:43.437Z</time></trkpt><trkpt lat="44.9509804" lon="5.2856489"><ele>1043.25</ele><time>2026-04-18T17:59:44.437Z</time></trkpt><trkpt lat="44.9508848" lon="5.2855509"><ele>1041.5</ele><time>2026-04-18T17:59:45.437Z</time></trkpt><trkpt lat="44.9507857" lon="5.2854709"><ele>1039.75</ele><time>2026-04-18T17:59:46.436Z</time></trkpt><trkpt lat="44.9506841" lon="5.2854004"><ele>1038.0</ele><time>2026-04-18T17:59:47.438Z</time></trkpt><trkpt lat="44.9505817" lon="5.2853577"><ele>1038.0</ele><time>2026-04-18T17:59:48.437Z</time></trkpt><trkpt lat="44.9504773" lon="5.2853297"><ele>1038.0</ele><time>2026-04-18T17:59:49.436Z</time></trkpt><trkpt lat="44.9503764" lon="5.2853051"><ele>1038.0</ele><time>2026-04-18T17:59:50.437Z</time></trkpt><trkpt lat="44.9502874" lon="5.2852533"><ele>1038.0</ele><time>2026-04-18T17:59:51.436Z</time></trkpt><trkpt lat="44.9502151" lon="5.28517"><ele>1038.0</ele><time>2026-04-18T17:59:52.437Z</time></trkpt><trkpt lat="44.9501375" lon="5.2850877"><ele>1038.0</ele><time>2026-04-18T17:59:53.436Z</time></trkpt><trkpt lat="44.9500724" lon="5.2849848"><ele>1038.0</ele><time>2026-04-18T17:59:54.436Z</time></trkpt><trkpt lat="44.9500231" lon="5.2848555"><ele>1038.0</ele><time>2026-04-18T17:59:55.436Z</time></trkpt><trkpt lat="44.9500363" lon="5.2847372"><ele>1038.0</ele><time>2026-04-18T17:59:56.436Z</time></trkpt><trkpt lat="44.9502312" lon="5.2845457"><ele>1038.4</ele><time>2026-04-18T17:59:57.437Z</time></trkpt><trkpt lat="44.9502921" lon="5.2844346"><ele>1038.8</ele><time>2026-04-18T17:59:58.436Z</time></trkpt><trkpt lat="44.9503525" lon="5.2843266"><ele>1039.2</ele><time>2026-04-18T17:59:59.437Z</time></trkpt><trkpt lat="44.950463" lon="5.2843266"><ele>1039.6</ele><time>2026-04-18T18:00:00.437Z</time></trkpt><trkpt lat="44.9505592" lon="5.2842308"><ele>1040.0</ele><time>2026-04-18T18:00:01.437Z</time></trkpt><trkpt lat="44.9508006" lon="5.2843189"><ele>1040.6666666666667</ele><time>2026-04-18T18:00:02.437Z</time></trkpt><trkpt lat="44.9509526" lon="5.2843334"><ele>1041.3333333333333</ele><time>2026-04-18T18:00:03.437Z</time></trkpt><trkpt lat="44.9510976" lon="5.2843155"><ele>1042.0</ele><time>2026-04-18T18:00:04.437Z</time></trkpt><trkpt lat="44.9512899" lon="5.2843606"><ele>1042.0</ele><time>2026-04-18T18:00:05.437Z</time></trkpt><trkpt lat="44.9514289" lon="5.2844094"><ele>1042.0</ele><time>2026-04-18T18:00:06.437Z</time></trkpt><trkpt lat="44.9515706" lon="5.284454"><ele>1042.0</ele><time>2026-04-18T18:00:07.437Z</time></trkpt><trkpt lat="44.9517037" lon="5.28449"><ele>1042.0</ele><time>2026-04-18T18:00:08.436Z</time></trkpt><trkpt lat="44.9518373" lon="5.2845229"><ele>1042.25</ele><time>2026-04-18T18:00:09.437Z</time></trkpt><trkpt lat="44.951979" lon="5.2845686"><ele>1042.5</ele><time>2026-04-18T18:00:10.437Z</time></trkpt><trkpt lat="44.9520938" lon="5.2845925"><ele>1042.75</ele><time>2026-04-18T18:00:11.437Z</time></trkpt><trkpt lat="44.952231" lon="5.284655"><ele>1043.0</ele><time>2026-04-18T18:00:12.437Z</time></trkpt><trkpt lat="44.9523566" lon="5.2846985"><ele>1043.0</ele><time>2026-04-18T18:00:13.437Z</time></trkpt><trkpt lat="44.9524663" lon="5.2847322"><ele>1043.0</ele><time>2026-04-18T18:00:14.436Z</time></trkpt><trkpt lat="44.9525699" lon="5.2847547"><ele>1043.0</ele><time>2026-04-18T18:00:15.438Z</time></trkpt><trkpt lat="44.9526628" lon="5.2847601"><ele>1043.0</ele><time>2026-04-18T18:00:16.436Z</time></trkpt><trkpt lat="44.9528095" lon="5.2848439"><ele>1040.5</ele><time>2026-04-18T18:00:17.437Z</time></trkpt><trkpt lat="44.9529338" lon="5.2848376"><ele>1038.0</ele><time>2026-04-18T18:00:18.437Z</time></trkpt><trkpt lat="44.9530519" lon="5.2848218"><ele>1035.5</ele><time>2026-04-18T18:00:19.436Z</time></trkpt><trkpt lat="44.9531621" lon="5.2847784"><ele>1033.0</ele><time>2026-04-18T18:00:20.437Z</time></trkpt><trkpt lat="44.9532707" lon="5.2847211"><ele>1032.5</ele><time>2026-04-18T18:00:21.437Z</time></trkpt><trkpt lat="44.9533783" lon="5.2846421"><ele>1032.0</ele><time>2026-04-18T18:00:22.437Z</time></trkpt><trkpt lat="44.9534814" lon="5.2845553"><ele>1031.5</ele><time>2026-04-18T18:00:23.436Z</time></trkpt><trkpt lat="44.9535761" lon="5.2844704"><ele>1031.0</ele><time>2026-04-18T18:00:24.437Z</time></trkpt><trkpt lat="44.9536603" lon="5.284374"><ele>1031.0</ele><time>2026-04-18T18:00:25.436Z</time></trkpt><trkpt lat="44.953729" lon="5.2842635"><ele>1031.0</ele><time>2026-04-18T18:00:26.437Z</time></trkpt><trkpt lat="44.9537811" lon="5.2841484"><ele>1031.0</ele><time>2026-04-18T18:00:27.436Z</time></trkpt><trkpt lat="44.9538203" lon="5.2840347"><ele>1031.0</ele><time>2026-04-18T18:00:28.437Z</time></trkpt><trkpt lat="44.9538384" lon="5.2839207"><ele>1031.0</ele><time>2026-04-18T18:00:29.437Z</time></trkpt><trkpt lat="44.9538487" lon="5.2838006"><ele>1032.0</ele><time>2026-04-18T18:00:30.437Z</time></trkpt><trkpt lat="44.9538436" lon="5.2836568"><ele>1033.0</ele><time>2026-04-18T18:00:31.437Z</time></trkpt><trkpt lat="44.9538488" lon="5.283534"><ele>1034.0</ele><time>2026-04-18T18:00:32.437Z</time></trkpt><trkpt lat="44.9538506" lon="5.2834005"><ele>1035.0</ele><time>2026-04-18T18:00:33.437Z</time></trkpt><trkpt lat="44.9538811" lon="5.2832795"><ele>1036.0</ele><time>2026-04-18T18:00:34.437Z</time></trkpt><trkpt lat="44.9534957" lon="5.282778"><ele>1032.25</ele><time>2026-04-18T18:00:39.437Z</time></trkpt><trkpt lat="44.9534059" lon="5.2826907"><ele>1028.5</ele><time>2026-04-18T18:00:40.436Z</time></trkpt><trkpt lat="44.9532931" lon="5.2825919"><ele>1024.75</ele><time>2026-04-18T18:00:41.437Z</time></trkpt><trkpt lat="44.9531798" lon="5.2824703"><ele>1021.0</ele><time>2026-04-18T18:00:42.437Z</time></trkpt><trkpt lat="44.9530767" lon="5.2823465"><ele>1006.75</ele><time>2026-04-18T18:00:43.437Z</time></trkpt><trkpt lat="44.9529758" lon="5.2822526"><ele>992.5</ele><time>2026-04-18T18:00:44.436Z</time></trkpt><trkpt lat="44.9528714" lon="5.2821662"><ele>978.25</ele><time>2026-04-18T18:00:45.436Z</time></trkpt><trkpt lat="44.9527667" lon="5.2820854"><ele>964.0</ele><time>2026-04-18T18:00:46.437Z</time></trkpt><trkpt lat="44.9526695" lon="5.2820199"><ele>964.0</ele><time>2026-04-18T18:00:47.437Z</time></trkpt><trkpt lat="44.9525834" lon="5.281956"><ele>964.0000000000001</ele><time>2026-04-18T18:00:48.437Z</time></trkpt><trkpt lat="44.9525137" lon="5.2818861"><ele>964.0000000000001</ele><time>2026-04-18T18:00:49.437Z</time></trkpt><trkpt lat="44.9524514" lon="5.2817913"><ele>964.0</ele><time>2026-04-18T18:00:50.437Z</time></trkpt><trkpt lat="44.9523946" lon="5.2816921"><ele>964.0</ele><time>2026-04-18T18:00:51.437Z</time></trkpt><trkpt lat="44.9523119" lon="5.2816172"><ele>959.8000000000001</ele><time>2026-04-18T18:00:52.436Z</time></trkpt><trkpt lat="44.9522143" lon="5.2815838"><ele>955.6000000000001</ele><time>2026-04-18T18:00:53.437Z</time></trkpt><trkpt lat="44.9521161" lon="5.28156"><ele>951.4</ele><time>2026-04-18T18:00:54.437Z</time></trkpt><trkpt lat="44.9520192" lon="5.2815208"><ele>947.2</ele><time>2026-04-18T18:00:55.437Z</time></trkpt><trkpt lat="44.9519123" lon="5.2814437"><ele>943.0</ele><time>2026-04-18T18:00:56.437Z</time></trkpt><trkpt lat="44.9518063" lon="5.2813536"><ele>949.25</ele><time>2026-04-18T18:00:57.437Z</time></trkpt><trkpt lat="44.9517055" lon="5.2812648"><ele>955.5</ele><time>2026-04-18T18:00:58.437Z</time></trkpt><trkpt lat="44.9516105" lon="5.2811734"><ele>961.75</ele><time>2026-04-18T18:00:59.437Z</time></trkpt><trkpt lat="44.9515206" lon="5.2810804"><ele>968.0</ele><time>2026-04-18T18:01:00.437Z</time></trkpt><trkpt lat="44.9514323" lon="5.2809875"><ele>968.0</ele><time>2026-04-18T18:01:01.436Z</time></trkpt><trkpt lat="44.9513351" lon="5.2808986"><ele>968.0</ele><time>2026-04-18T18:01:02.437Z</time></trkpt><trkpt lat="44.9512269" lon="5.2808318"><ele>968.0</ele><time>2026-04-18T18:01:03.437Z</time></trkpt><trkpt lat="44.951112" lon="5.280785"><ele>968.0</ele><time>2026-04-18T18:01:04.437Z</time></trkpt><trkpt lat="44.9510003" lon="5.2807378"><ele>959.6666666666667</ele><time>2026-04-18T18:01:05.437Z</time></trkpt><trkpt lat="44.9508732" lon="5.2806731"><ele>951.3333333333333</ele><time>2026-04-18T18:01:06.437Z</time></trkpt><trkpt lat="44.9507477" lon="5.2805963"><ele>943.0</ele><time>2026-04-18T18:01:07.437Z</time></trkpt><trkpt lat="44.9505843" lon="5.2804777"><ele>943.0</ele><time>2026-04-18T18:01:08.437Z</time></trkpt><trkpt lat="44.9504399" lon="5.2803921"><ele>943.0</ele><time>2026-04-18T18:01:09.437Z</time></trkpt><trkpt lat="44.950279" lon="5.2802951"><ele>943.0</ele><time>2026-04-18T18:01:10.437Z</time></trkpt><trkpt lat="44.9501254" lon="5.2801977"><ele>950.0</ele><time>2026-04-18T18:01:11.436Z</time></trkpt><trkpt lat="44.9499786" lon="5.2801089"><ele>957.0</ele><time>2026-04-18T18:01:12.437Z</time></trkpt><trkpt lat="44.949832" lon="5.2800325"><ele>964.0</ele><time>2026-04-18T18:01:13.436Z</time></trkpt><trkpt lat="44.9496797" lon="5.27997"><ele>964.0</ele><time>2026-04-18T18:01:14.437Z</time></trkpt><trkpt lat="44.9495296" lon="5.2799263"><ele>964.0</ele><time>2026-04-18T18:01:15.437Z</time></trkpt><trkpt lat="44.9493721" lon="5.2798914"><ele>964.0</ele><time>2026-04-18T18:01:16.437Z</time></trkpt><trkpt lat="44.9492159" lon="5.2798645"><ele>945.3333333333333</ele><time>2026-04-18T18:01:17.437Z</time></trkpt><trkpt lat="44.9490572" lon="5.2798346"><ele>926.6666666666667</ele><time>2026-04-18T18:01:18.437Z</time></trkpt><trkpt lat="44.9488988" lon="5.2797888"><ele>908.0</ele><time>2026-04-18T18:01:19.437Z</time></trkpt><trkpt lat="44.9487468" lon="5.2797272"><ele>908.0</ele><time>2026-04-18T18:01:20.437Z</time></trkpt><trkpt lat="44.9485995" lon="5.2796452"><ele>908.0</ele><time>2026-04-18T18:01:21.437Z</time></trkpt><trkpt lat="44.9484551" lon="5.2795367"><ele>908.0</ele><time>2026-04-18T18:01:22.437Z</time></trkpt><trkpt lat="44.9483242" lon="5.2794142"><ele>915.0</ele><time>2026-04-18T18:01:23.438Z</time></trkpt><trkpt lat="44.9481981" lon="5.279295"><ele>922.0</ele><time>2026-04-18T18:01:24.437Z</time></trkpt><trkpt lat="44.9480687" lon="5.2791819"><ele>929.0</ele><time>2026-04-18T18:01:25.436Z</time></trkpt><trkpt lat="44.9479337" lon="5.2790829"><ele>929.0</ele><time>2026-04-18T18:01:26.437Z</time></trkpt><trkpt lat="44.9477903" lon="5.27899"><ele>929.0</ele><time>2026-04-18T18:01:27.437Z</time></trkpt><trkpt lat="44.9476433" lon="5.2788894"><ele>929.0</ele><time>2026-04-18T18:01:28.437Z</time></trkpt><trkpt lat="44.9474953" lon="5.2787714"><ele>924.0</ele><time>2026-04-18T18:01:29.437Z</time></trkpt><trkpt lat="44.9473421" lon="5.2786415"><ele>919.0</ele><time>2026-04-18T18:01:30.437Z</time></trkpt><trkpt lat="44.9471806" lon="5.2784945"><ele>914.0</ele><time>2026-04-18T18:01:31.437Z</time></trkpt><trkpt lat="44.9470239" lon="5.278343"><ele>914.0</ele><time>2026-04-18T18:01:32.437Z</time></trkpt><trkpt lat="44.9468702" lon="5.2781932"><ele>914.0</ele><time>2026-04-18T18:01:33.437Z</time></trkpt><trkpt lat="44.946725" lon="5.2780569"><ele>914.0</ele><time>2026-04-18T18:01:34.437Z</time></trkpt><trkpt lat="44.9465836" lon="5.2779327"><ele>914.6666666666667</ele><time>2026-04-18T18:01:35.436Z</time></trkpt><trkpt lat="44.9464415" lon="5.2778138"><ele>915.3333333333333</ele><time>2026-04-18T18:01:36.437Z</time></trkpt><trkpt lat="44.9462926" lon="5.2776964"><ele>916.0</ele><time>2026-04-18T18:01:37.437Z</time></trkpt><trkpt lat="44.9461342" lon="5.2775846"><ele>916.0</ele><time>2026-04-18T18:01:38.437Z</time></trkpt><trkpt lat="44.9459734" lon="5.2774776"><ele>916.0</ele><time>2026-04-18T18:01:39.437Z</time></trkpt><trkpt lat="44.945808" lon="5.2773755"><ele>916.0</ele><time>2026-04-18T18:01:40.437Z</time></trkpt><trkpt lat="44.9456381" lon="5.277274"><ele>911.3333333333333</ele><time>2026-04-18T18:01:41.437Z</time></trkpt><trkpt lat="44.9454714" lon="5.2771751"><ele>906.6666666666667</ele><time>2026-04-18T18:01:42.436Z</time></trkpt><trkpt lat="44.9453116" lon="5.2770793"><ele>902.0</ele><time>2026-04-18T18:01:43.437Z</time></trkpt><trkpt lat="44.9451548" lon="5.2769894"><ele>904.6666666666667</ele><time>2026-04-18T18:01:44.437Z</time></trkpt><trkpt lat="44.9450037" lon="5.2768989"><ele>907.3333333333333</ele><time>2026-04-18T18:01:45.437Z</time></trkpt><trkpt lat="44.9448592" lon="5.2768021"><ele>910.0</ele><time>2026-04-18T18:01:46.437Z</time></trkpt><trkpt lat="44.9447211" lon="5.2767018"><ele>910.0</ele><time>2026-04-18T18:01:47.437Z</time></trkpt><trkpt lat="44.9445874" lon="5.2765991"><ele>910.0</ele><time>2026-04-18T18:01:48.437Z</time></trkpt><trkpt lat="44.9444588" lon="5.2765006"><ele>910.0</ele><time>2026-04-18T18:01:49.438Z</time></trkpt><trkpt lat="44.9443364" lon="5.276401"><ele>910.0</ele><time>2026-04-18T18:01:50.437Z</time></trkpt><trkpt lat="44.9442215" lon="5.2763024"><ele>904.6</ele><time>2026-04-18T18:01:51.437Z</time></trkpt><trkpt lat="44.9441116" lon="5.2762154"><ele>899.2</ele><time>2026-04-18T18:01:52.436Z</time></trkpt><trkpt lat="44.9440066" lon="5.276143"><ele>893.8</ele><time>2026-04-18T18:01:53.437Z</time></trkpt><trkpt lat="44.9439091" lon="5.2760929"><ele>888.4</ele><time>2026-04-18T18:01:54.437Z</time></trkpt><trkpt lat="44.9438167" lon="5.2760601"><ele>883.0</ele><time>2026-04-18T18:01:55.437Z</time></trkpt><trkpt lat="44.9437253" lon="5.2760436"><ele>883.0</ele><time>2026-04-18T18:01:56.437Z</time></trkpt><trkpt lat="44.9436371" lon="5.2760398"><ele>883.0</ele><time>2026-04-18T18:01:57.437Z</time></trkpt><trkpt lat="44.9435585" lon="5.2760393"><ele>883.0</ele><time>2026-04-18T18:01:58.437Z</time></trkpt><trkpt lat="44.9434457" lon="5.2760127"><ele>883.0</ele><time>2026-04-18T18:02:00.437Z</time></trkpt><trkpt lat="44.9434294" lon="5.2758893"><ele>883.0</ele><time>2026-04-18T18:02:02.437Z</time></trkpt><trkpt lat="44.9435461" lon="5.2758457"><ele>883.0</ele><time>2026-04-18T18:02:04.437Z</time></trkpt><trkpt lat="44.9436354" lon="5.275879"><ele>883.0</ele><time>2026-04-18T18:02:05.438Z</time></trkpt><trkpt lat="44.9437226" lon="5.2759008"><ele>883.0</ele><time>2026-04-18T18:02:06.437Z</time></trkpt><trkpt lat="44.9438028" lon="5.2759185"><ele>883.0</ele><time>2026-04-18T18:02:07.436Z</time></trkpt><trkpt lat="44.9439005" lon="5.2759331"><ele>883.0</ele><time>2026-04-18T18:02:08.437Z</time></trkpt><trkpt lat="44.9440034" lon="5.2759508"><ele>883.0</ele><time>2026-04-18T18:02:09.437Z</time></trkpt><trkpt lat="44.9441151" lon="5.2759806"><ele>883.0</ele><time>2026-04-18T18:02:10.437Z</time></trkpt><trkpt lat="44.944227" lon="5.2760181"><ele>883.0</ele><time>2026-04-18T18:02:11.437Z</time></trkpt><trkpt lat="44.9443354" lon="5.276063"><ele>883.0</ele><time>2026-04-18T18:02:12.437Z</time></trkpt><trkpt lat="44.9444478" lon="5.276113"><ele>879.25</ele><time>2026-04-18T18:02:13.436Z</time></trkpt><trkpt lat="44.9445607" lon="5.2761599"><ele>875.5</ele><time>2026-04-18T18:02:14.437Z</time></trkpt><trkpt lat="44.944671" lon="5.2762005"><ele>871.75</ele><time>2026-04-18T18:02:15.437Z</time></trkpt><trkpt lat="44.9447755" lon="5.2762419"><ele>868.0</ele><time>2026-04-18T18:02:16.437Z</time></trkpt><trkpt lat="44.9448826" lon="5.2762868"><ele>868.0</ele><time>2026-04-18T18:02:17.436Z</time></trkpt><trkpt lat="44.9449972" lon="5.276326"><ele>868.0</ele><time>2026-04-18T18:02:18.437Z</time></trkpt><trkpt lat="44.9451178" lon="5.2763501"><ele>868.0</ele><time>2026-04-18T18:02:19.437Z</time></trkpt><trkpt lat="44.9452443" lon="5.2763649"><ele>868.0</ele><time>2026-04-18T18:02:20.436Z</time></trkpt><trkpt lat="44.9453734" lon="5.2763799"><ele>867.5</ele><time>2026-04-18T18:02:21.437Z</time></trkpt><trkpt lat="44.9454967" lon="5.2763971"><ele>867.0</ele><time>2026-04-18T18:02:22.437Z</time></trkpt><trkpt lat="44.9456228" lon="5.2764206"><ele>866.5</ele><time>2026-04-18T18:02:23.437Z</time></trkpt><trkpt lat="44.9457503" lon="5.2764479"><ele>866.0</ele><time>2026-04-18T18:02:24.436Z</time></trkpt><trkpt lat="44.9458762" lon="5.2764646"><ele>872.5</ele><time>2026-04-18T18:02:25.436Z</time></trkpt><trkpt lat="44.9460033" lon="5.2764974"><ele>879.0</ele><time>2026-04-18T18:02:26.437Z</time></trkpt><trkpt lat="44.9461324" lon="5.2765049"><ele>885.5</ele><time>2026-04-18T18:02:27.436Z</time></trkpt><trkpt lat="44.9462632" lon="5.276499"><ele>892.0</ele><time>2026-04-18T18:02:28.436Z</time></trkpt><trkpt lat="44.9463933" lon="5.2764973"><ele>892.0</ele><time>2026-04-18T18:02:29.437Z</time></trkpt><trkpt lat="44.9465158" lon="5.276489"><ele>892.0</ele><time>2026-04-18T18:02:30.438Z</time></trkpt><trkpt lat="44.9466375" lon="5.2764757"><ele>892.0</ele><time>2026-04-18T18:02:31.438Z</time></trkpt><trkpt lat="44.946757" lon="5.2764686"><ele>892.0</ele><time>2026-04-18T18:02:32.438Z</time></trkpt><trkpt lat="44.9468727" lon="5.2764761"><ele>886.5</ele><time>2026-04-18T18:02:33.437Z</time></trkpt><trkpt lat="44.9469902" lon="5.2765087"><ele>881.0</ele><time>2026-04-18T18:02:34.438Z</time></trkpt><trkpt lat="44.9470984" lon="5.2765675"><ele>875.5</ele><time>2026-04-18T18:02:35.438Z</time></trkpt><trkpt lat="44.9471995" lon="5.2766567"><ele>870.0</ele><time>2026-04-18T18:02:36.436Z</time></trkpt><trkpt lat="44.9472952" lon="5.2767548"><ele>870.0</ele><time>2026-04-18T18:02:37.438Z</time></trkpt><trkpt lat="44.9473827" lon="5.2768807"><ele>870.0</ele><time>2026-04-18T18:02:38.438Z</time></trkpt><trkpt lat="44.9474522" lon="5.2770281"><ele>870.0</ele><time>2026-04-18T18:02:39.438Z</time></trkpt><trkpt lat="44.947532" lon="5.2771485"><ele>870.0</ele><time>2026-04-18T18:02:40.438Z</time></trkpt><trkpt lat="44.9476202" lon="5.2772696"><ele>866.5</ele><time>2026-04-18T18:02:41.438Z</time></trkpt><trkpt lat="44.9477249" lon="5.2773562"><ele>863.0</ele><time>2026-04-18T18:02:42.438Z</time></trkpt><trkpt lat="44.9478487" lon="5.2774278"><ele>859.5</ele><time>2026-04-18T18:02:43.438Z</time></trkpt><trkpt lat="44.9479826" lon="5.2774867"><ele>856.0</ele><time>2026-04-18T18:02:44.438Z</time></trkpt><trkpt lat="44.9481075" lon="5.2775489"><ele>856.0</ele><time>2026-04-18T18:02:45.438Z</time></trkpt><trkpt lat="44.9482209" lon="5.2776049"><ele>856.0</ele><time>2026-04-18T18:02:46.438Z</time></trkpt><trkpt lat="44.9483534" lon="5.2776533"><ele>856.0</ele><time>2026-04-18T18:02:47.438Z</time></trkpt><trkpt lat="44.9484772" lon="5.2777173"><ele>856.0</ele><time>2026-04-18T18:02:48.438Z</time></trkpt><trkpt lat="44.9485915" lon="5.2778086"><ele>852.5</ele><time>2026-04-18T18:02:49.437Z</time></trkpt><trkpt lat="44.9487246" lon="5.2778679"><ele>849.0</ele><time>2026-04-18T18:02:50.438Z</time></trkpt><trkpt lat="44.9488587" lon="5.2779221"><ele>845.5</ele><time>2026-04-18T18:02:51.438Z</time></trkpt><trkpt lat="44.9489875" lon="5.2779691"><ele>842.0</ele><time>2026-04-18T18:02:52.438Z</time></trkpt><trkpt lat="44.9491339" lon="5.2779905"><ele>838.6666666666667</ele><time>2026-04-18T18:02:53.438Z</time></trkpt><trkpt lat="44.9492938" lon="5.2779881"><ele>835.3333333333333</ele><time>2026-04-18T18:02:54.438Z</time></trkpt><trkpt lat="44.9494655" lon="5.2779691"><ele>832.0</ele><time>2026-04-18T18:02:55.438Z</time></trkpt><trkpt lat="44.9496285" lon="5.2779537"><ele>832.0</ele><time>2026-04-18T18:02:56.438Z</time></trkpt><trkpt lat="44.9497881" lon="5.2779448"><ele>832.0</ele><time>2026-04-18T18:02:57.438Z</time></trkpt><trkpt lat="44.9499505" lon="5.2779655"><ele>832.0</ele><time>2026-04-18T18:02:58.437Z</time></trkpt><trkpt lat="44.9501071" lon="5.2779842"><ele>828.6666666666666</ele><time>2026-04-18T18:02:59.438Z</time></trkpt><trkpt lat="44.9502675" lon="5.2780025"><ele>825.3333333333333</ele><time>2026-04-18T18:03:00.438Z</time></trkpt><trkpt lat="44.9504194" lon="5.2780269"><ele>822.0</ele><time>2026-04-18T18:03:01.437Z</time></trkpt><trkpt lat="44.9505607" lon="5.2780532"><ele>822.0</ele><time>2026-04-18T18:03:02.438Z</time></trkpt><trkpt lat="44.9507014" lon="5.2780864"><ele>822.0</ele><time>2026-04-18T18:03:03.438Z</time></trkpt><trkpt lat="44.9508519" lon="5.2781309"><ele>822.0</ele><time>2026-04-18T18:03:04.439Z</time></trkpt><trkpt lat="44.9509969" lon="5.2781746"><ele>822.0</ele><time>2026-04-18T18:03:05.438Z</time></trkpt><trkpt lat="44.9511523" lon="5.2782268"><ele>829.6666666666667</ele><time>2026-04-18T18:03:06.438Z</time></trkpt><trkpt lat="44.9513068" lon="5.2782696"><ele>837.3333333333334</ele><time>2026-04-18T18:03:07.438Z</time></trkpt><trkpt lat="44.9514659" lon="5.278315"><ele>845.0</ele><time>2026-04-18T18:03:08.437Z</time></trkpt><trkpt lat="44.9516209" lon="5.278357"><ele>839.0</ele><time>2026-04-18T18:03:09.438Z</time></trkpt><trkpt lat="44.9517907" lon="5.2784185"><ele>833.0</ele><time>2026-04-18T18:03:10.438Z</time></trkpt><trkpt lat="44.9519533" lon="5.2784748"><ele>827.0</ele><time>2026-04-18T18:03:11.438Z</time></trkpt><trkpt lat="44.9520999" lon="5.2785274"><ele>827.0</ele><time>2026-04-18T18:03:12.438Z</time></trkpt><trkpt lat="44.9522499" lon="5.2785847"><ele>827.0</ele><time>2026-04-18T18:03:13.438Z</time></trkpt><trkpt lat="44.9523961" lon="5.2786399"><ele>827.0</ele><time>2026-04-18T18:03:14.438Z</time></trkpt><trkpt lat="44.9525353" lon="5.2786992"><ele>820.75</ele><time>2026-04-18T18:03:15.437Z</time></trkpt><trkpt lat="44.9526515" lon="5.278759"><ele>814.5</ele><time>2026-04-18T18:03:16.439Z</time></trkpt><trkpt lat="44.9527676" lon="5.2788018"><ele>808.25</ele><time>2026-04-18T18:03:17.437Z</time></trkpt><trkpt lat="44.9528871" lon="5.2788349"><ele>802.0</ele><time>2026-04-18T18:03:18.438Z</time></trkpt><trkpt lat="44.9530061" lon="5.2788719"><ele>802.0</ele><time>2026-04-18T18:03:19.438Z</time></trkpt><trkpt lat="44.953108" lon="5.2789341"><ele>802.0</ele><time>2026-04-18T18:03:20.437Z</time></trkpt><trkpt lat="44.9532318" lon="5.2790177"><ele>802.0</ele><time>2026-04-18T18:03:21.438Z</time></trkpt><trkpt lat="44.9533428" lon="5.2791034"><ele>802.0</ele><time>2026-04-18T18:03:22.436Z</time></trkpt><trkpt lat="44.9534319" lon="5.2792097"><ele>805.8</ele><time>2026-04-18T18:03:23.438Z</time></trkpt><trkpt lat="44.9535393" lon="5.2792791"><ele>809.6</ele><time>2026-04-18T18:03:24.437Z</time></trkpt><trkpt lat="44.9536048" lon="5.27936"><ele>813.4</ele><time>2026-04-18T18:03:25.438Z</time></trkpt><trkpt lat="44.9536659" lon="5.2793919"><ele>817.1999999999999</ele><time>2026-04-18T18:03:26.437Z</time></trkpt><trkpt lat="44.9537613" lon="5.2793712"><ele>821.0</ele><time>2026-04-18T18:03:27.437Z</time></trkpt><trkpt lat="44.9538533" lon="5.2793463"><ele>821.0</ele><time>2026-04-18T18:03:28.438Z</time></trkpt><trkpt lat="44.9539609" lon="5.2792933"><ele>821.0</ele><time>2026-04-18T18:03:29.438Z</time></trkpt><trkpt lat="44.9540832" lon="5.2792762"><ele>821.0</ele><time>2026-04-18T18:03:30.438Z</time></trkpt><trkpt lat="44.9542303" lon="5.2793143"><ele>821.0</ele><time>2026-04-18T18:03:31.438Z</time></trkpt><trkpt lat="44.9543486" lon="5.2793225"><ele>820.5999999999999</ele><time>2026-04-18T18:03:32.437Z</time></trkpt><trkpt lat="44.9544652" lon="5.2793374"><ele>820.2</ele><time>2026-04-18T18:03:33.438Z</time></trkpt><trkpt lat="44.9545611" lon="5.2793477"><ele>819.8</ele><time>2026-04-18T18:03:34.438Z</time></trkpt><trkpt lat="44.9546672" lon="5.2793702"><ele>819.4000000000001</ele><time>2026-04-18T18:03:35.438Z</time></trkpt><trkpt lat="44.9547791" lon="5.2793794"><ele>819.0</ele><time>2026-04-18T18:03:36.437Z</time></trkpt><trkpt lat="44.9548915" lon="5.2793834"><ele>819.0</ele><time>2026-04-18T18:03:37.438Z</time></trkpt><trkpt lat="44.9550111" lon="5.2794088"><ele>819.0</ele><time>2026-04-18T18:03:38.438Z</time></trkpt><trkpt lat="44.9551332" lon="5.279423"><ele>819.0</ele><time>2026-04-18T18:03:39.437Z</time></trkpt><trkpt lat="44.9552617" lon="5.2794407"><ele>819.0</ele><time>2026-04-18T18:03:40.438Z</time></trkpt><trkpt lat="44.9553828" lon="5.2794725"><ele>816.25</ele><time>2026-04-18T18:03:41.438Z</time></trkpt><trkpt lat="44.9555014" lon="5.2794992"><ele>813.5</ele><time>2026-04-18T18:03:42.438Z</time></trkpt><trkpt lat="44.9556296" lon="5.2795251"><ele>810.75</ele><time>2026-04-18T18:03:43.438Z</time></trkpt><trkpt lat="44.9557551" lon="5.2795487"><ele>808.0</ele><time>2026-04-18T18:03:44.438Z</time></trkpt><trkpt lat="44.9558884" lon="5.2795655"><ele>807.25</ele><time>2026-04-18T18:03:45.438Z</time></trkpt><trkpt lat="44.9560163" lon="5.2795813"><ele>806.5</ele><time>2026-04-18T18:03:46.437Z</time></trkpt><trkpt lat="44.9561489" lon="5.2795866"><ele>805.75</ele><time>2026-04-18T18:03:47.437Z</time></trkpt><trkpt lat="44.9562919" lon="5.2796011"><ele>805.0</ele><time>2026-04-18T18:03:48.438Z</time></trkpt><trkpt lat="44.9564172" lon="5.2796156"><ele>805.0</ele><time>2026-04-18T18:03:49.438Z</time></trkpt><trkpt lat="44.9565427" lon="5.2796082"><ele>805.0</ele><time>2026-04-18T18:03:50.438Z</time></trkpt><trkpt lat="44.9566578" lon="5.2795865"><ele>805.0</ele><time>2026-04-18T18:03:51.437Z</time></trkpt><trkpt lat="44.9567544" lon="5.2795582"><ele>805.0</ele><time>2026-04-18T18:03:52.438Z</time></trkpt><trkpt lat="44.9568496" lon="5.2795226"><ele>805.0</ele><time>2026-04-18T18:03:53.438Z</time></trkpt><trkpt lat="44.9569363" lon="5.2794806"><ele>804.8333333333333</ele><time>2026-04-18T18:03:54.439Z</time></trkpt><trkpt lat="44.957014" lon="5.2794247"><ele>804.6666666666666</ele><time>2026-04-18T18:03:55.438Z</time></trkpt><trkpt lat="44.9570855" lon="5.279363"><ele>804.5</ele><time>2026-04-18T18:03:56.438Z</time></trkpt><trkpt lat="44.9571521" lon="5.2792986"><ele>804.3333333333333</ele><time>2026-04-18T18:03:57.438Z</time></trkpt><trkpt lat="44.9572201" lon="5.279237"><ele>804.1666666666666</ele><time>2026-04-18T18:03:58.437Z</time></trkpt><trkpt lat="44.9572877" lon="5.2791865"><ele>804.0</ele><time>2026-04-18T18:03:59.438Z</time></trkpt><trkpt lat="44.9573662" lon="5.279154"><ele>804.0</ele><time>2026-04-18T18:04:00.438Z</time></trkpt><trkpt lat="44.9574338" lon="5.2791223"><ele>804.0</ele><time>2026-04-18T18:04:01.437Z</time></trkpt><trkpt lat="44.9574903" lon="5.2790759"><ele>804.0</ele><time>2026-04-18T18:04:02.438Z</time></trkpt><trkpt lat="44.9575247" lon="5.2789988"><ele>804.0</ele><time>2026-04-18T18:04:03.438Z</time></trkpt><trkpt lat="44.9574825" lon="5.2788418"><ele>804.0</ele><time>2026-04-18T18:04:05.438Z</time></trkpt><trkpt lat="44.9573587" lon="5.2788408"><ele>804.0</ele><time>2026-04-18T18:04:07.438Z</time></trkpt><trkpt lat="44.9572976" lon="5.2788934"><ele>804.0</ele><time>2026-04-18T18:04:08.438Z</time></trkpt><trkpt lat="44.9572413" lon="5.2789566"><ele>804.0</ele><time>2026-04-18T18:04:09.438Z</time></trkpt><trkpt lat="44.9571792" lon="5.2790271"><ele>804.0</ele><time>2026-04-18T18:04:10.438Z</time></trkpt><trkpt lat="44.9571093" lon="5.2791019"><ele>804.0</ele><time>2026-04-18T18:04:11.439Z</time></trkpt><trkpt lat="44.9570292" lon="5.2791664"><ele>804.0</ele><time>2026-04-18T18:04:12.439Z</time></trkpt><trkpt lat="44.9569413" lon="5.2792166"><ele>804.0</ele><time>2026-04-18T18:04:13.438Z</time></trkpt><trkpt lat="44.9568411" lon="5.2792488"><ele>804.0</ele><time>2026-04-18T18:04:14.437Z</time></trkpt><trkpt lat="44.9567338" lon="5.2792625"><ele>804.0</ele><time>2026-04-18T18:04:15.437Z</time></trkpt><trkpt lat="44.9566285" lon="5.279255"><ele>804.0</ele><time>2026-04-18T18:04:16.438Z</time></trkpt><trkpt lat="44.9565229" lon="5.2792395"><ele>804.0</ele><time>2026-04-18T18:04:17.438Z</time></trkpt><trkpt lat="44.9564225" lon="5.2792174"><ele>804.0</ele><time>2026-04-18T18:04:18.437Z</time></trkpt><trkpt lat="44.9563222" lon="5.2791845"><ele>804.2</ele><time>2026-04-18T18:04:19.438Z</time></trkpt><trkpt lat="44.9562207" lon="5.2791532"><ele>804.4000000000001</ele><time>2026-04-18T18:04:20.438Z</time></trkpt><trkpt lat="44.9561297" lon="5.2791197"><ele>804.6</ele><time>2026-04-18T18:04:21.438Z</time></trkpt><trkpt lat="44.956039" lon="5.2790792"><ele>804.8</ele><time>2026-04-18T18:04:22.438Z</time></trkpt><trkpt lat="44.9559466" lon="5.2790335"><ele>805.0</ele><time>2026-04-18T18:04:23.438Z</time></trkpt><trkpt lat="44.955851" lon="5.278981"><ele>798.6</ele><time>2026-04-18T18:04:24.438Z</time></trkpt><trkpt lat="44.955761" lon="5.2789249"><ele>792.2</ele><time>2026-04-18T18:04:25.438Z</time></trkpt><trkpt lat="44.9556714" lon="5.2788599"><ele>785.8</ele><time>2026-04-18T18:04:26.437Z</time></trkpt><trkpt lat="44.9555812" lon="5.2787804"><ele>779.4</ele><time>2026-04-18T18:04:27.438Z</time></trkpt><trkpt lat="44.9554859" lon="5.2786918"><ele>773.0</ele><time>2026-04-18T18:04:28.438Z</time></trkpt><trkpt lat="44.9553927" lon="5.2786059"><ele>773.0</ele><time>2026-04-18T18:04:29.438Z</time></trkpt><trkpt lat="44.9552882" lon="5.2785147"><ele>773.0</ele><time>2026-04-18T18:04:30.437Z</time></trkpt><trkpt lat="44.9551812" lon="5.2784255"><ele>773.0</ele><time>2026-04-18T18:04:31.438Z</time></trkpt><trkpt lat="44.9550638" lon="5.2783519"><ele>773.0</ele><time>2026-04-18T18:04:32.438Z</time></trkpt><trkpt lat="44.9549467" lon="5.2782949"><ele>777.0</ele><time>2026-04-18T18:04:33.437Z</time></trkpt><trkpt lat="44.954826" lon="5.2782628"><ele>781.0</ele><time>2026-04-18T18:04:34.438Z</time></trkpt><trkpt lat="44.9546969" lon="5.2782338"><ele>785.0</ele><time>2026-04-18T18:04:35.438Z</time></trkpt><trkpt lat="44.9545652" lon="5.2781995"><ele>789.0</ele><time>2026-04-18T18:04:36.438Z</time></trkpt><trkpt lat="44.9544328" lon="5.2781584"><ele>789.0</ele><time>2026-04-18T18:04:37.438Z</time></trkpt><trkpt lat="44.9543085" lon="5.2781133"><ele>789.0</ele><time>2026-04-18T18:04:38.438Z</time></trkpt><trkpt lat="44.9541844" lon="5.2780814"><ele>789.0</ele><time>2026-04-18T18:04:39.438Z</time></trkpt><trkpt lat="44.9540637" lon="5.278074"><ele>789.0</ele><time>2026-04-18T18:04:40.438Z</time></trkpt><trkpt lat="44.9539438" lon="5.2780865"><ele>781.25</ele><time>2026-04-18T18:04:41.437Z</time></trkpt><trkpt lat="44.9538314" lon="5.2780825"><ele>773.5</ele><time>2026-04-18T18:04:42.438Z</time></trkpt><trkpt lat="44.9537184" lon="5.2780286"><ele>765.75</ele><time>2026-04-18T18:04:43.438Z</time></trkpt><trkpt lat="44.9536193" lon="5.2779472"><ele>758.0</ele><time>2026-04-18T18:04:44.438Z</time></trkpt><trkpt lat="44.9535352" lon="5.2777911"><ele>758.0</ele><time>2026-04-18T18:04:45.438Z</time></trkpt><trkpt lat="44.9534581" lon="5.2776495"><ele>758.0</ele><time>2026-04-18T18:04:46.438Z</time></trkpt><trkpt lat="44.9533753" lon="5.2775143"><ele>758.0</ele><time>2026-04-18T18:04:47.438Z</time></trkpt><trkpt lat="44.9532817" lon="5.2773899"><ele>758.0</ele><time>2026-04-18T18:04:48.439Z</time></trkpt><trkpt lat="44.9531822" lon="5.2772737"><ele>754.25</ele><time>2026-04-18T18:04:49.438Z</time></trkpt><trkpt lat="44.9530768" lon="5.277164"><ele>750.5</ele><time>2026-04-18T18:04:50.438Z</time></trkpt><trkpt lat="44.9529618" lon="5.2770632"><ele>746.75</ele><time>2026-04-18T18:04:51.438Z</time></trkpt><trkpt lat="44.9528448" lon="5.2769767"><ele>743.0</ele><time>2026-04-18T18:04:52.438Z</time></trkpt><trkpt lat="44.9527257" lon="5.2769021"><ele>743.0</ele><time>2026-04-18T18:04:53.438Z</time></trkpt><trkpt lat="44.9526062" lon="5.2768357"><ele>743.0</ele><time>2026-04-18T18:04:54.438Z</time></trkpt><trkpt lat="44.9524885" lon="5.2767771"><ele>743.0</ele><time>2026-04-18T18:04:55.438Z</time></trkpt><trkpt lat="44.9523643" lon="5.2767201"><ele>743.0</ele><time>2026-04-18T18:04:56.438Z</time></trkpt><trkpt lat="44.9522478" lon="5.2766431"><ele>739.75</ele><time>2026-04-18T18:04:57.438Z</time></trkpt><trkpt lat="44.9521371" lon="5.2765323"><ele>736.5</ele><time>2026-04-18T18:04:58.437Z</time></trkpt><trkpt lat="44.9520393" lon="5.2764007"><ele>733.25</ele><time>2026-04-18T18:04:59.438Z</time></trkpt><trkpt lat="44.9519577" lon="5.2762807"><ele>730.0</ele><time>2026-04-18T18:05:00.438Z</time></trkpt><trkpt lat="44.9518767" lon="5.2761779"><ele>730.0</ele><time>2026-04-18T18:05:01.438Z</time></trkpt><trkpt lat="44.9517833" lon="5.2761048"><ele>730.0</ele><time>2026-04-18T18:05:02.438Z</time></trkpt><trkpt lat="44.9516867" lon="5.2760475"><ele>730.0</ele><time>2026-04-18T18:05:03.437Z</time></trkpt><trkpt lat="44.9516071" lon="5.2760228"><ele>730.0</ele><time>2026-04-18T18:05:04.438Z</time></trkpt><trkpt lat="44.9514374" lon="5.2760392"><ele>734.0</ele><time>2026-04-18T18:05:05.438Z</time></trkpt><trkpt lat="44.9513135" lon="5.2760396"><ele>738.0</ele><time>2026-04-18T18:05:06.438Z</time></trkpt><trkpt lat="44.9511835" lon="5.276025"><ele>742.0</ele><time>2026-04-18T18:05:07.438Z</time></trkpt><trkpt lat="44.9510529" lon="5.2759914"><ele>746.0</ele><time>2026-04-18T18:05:08.438Z</time></trkpt><trkpt lat="44.9509254" lon="5.2759379"><ele>745.75</ele><time>2026-04-18T18:05:09.438Z</time></trkpt><trkpt lat="44.9508028" lon="5.2758885"><ele>745.5</ele><time>2026-04-18T18:05:10.438Z</time></trkpt><trkpt lat="44.9506823" lon="5.2758408"><ele>745.25</ele><time>2026-04-18T18:05:11.438Z</time></trkpt><trkpt lat="44.9505539" lon="5.2757966"><ele>745.0</ele><time>2026-04-18T18:05:12.438Z</time></trkpt><trkpt lat="44.9504288" lon="5.2757563"><ele>745.0</ele><time>2026-04-18T18:05:13.438Z</time></trkpt><trkpt lat="44.9503048" lon="5.275705"><ele>745.0</ele><time>2026-04-18T18:05:14.438Z</time></trkpt><trkpt lat="44.9501795" lon="5.2756464"><ele>745.0</ele><time>2026-04-18T18:05:15.438Z</time></trkpt><trkpt lat="44.9500632" lon="5.2755723"><ele>745.0</ele><time>2026-04-18T18:05:16.438Z</time></trkpt><trkpt lat="44.9499521" lon="5.2754796"><ele>742.0</ele><time>2026-04-18T18:05:17.438Z</time></trkpt><trkpt lat="44.9498466" lon="5.2753907"><ele>739.0</ele><time>2026-04-18T18:05:18.438Z</time></trkpt><trkpt lat="44.9497422" lon="5.2753034"><ele>736.0</ele><time>2026-04-18T18:05:19.438Z</time></trkpt><trkpt lat="44.9496344" lon="5.2752165"><ele>733.0</ele><time>2026-04-18T18:05:20.438Z</time></trkpt><trkpt lat="44.9495468" lon="5.2751192"><ele>733.0</ele><time>2026-04-18T18:05:21.438Z</time></trkpt><trkpt lat="44.9494801" lon="5.2749936"><ele>733.0</ele><time>2026-04-18T18:05:22.438Z</time></trkpt><trkpt lat="44.9494428" lon="5.2748468"><ele>733.0</ele><time>2026-04-18T18:05:23.438Z</time></trkpt><trkpt lat="44.9494398" lon="5.2746827"><ele>733.0</ele><time>2026-04-18T18:05:24.438Z</time></trkpt><trkpt lat="44.9494677" lon="5.2745215"><ele>731.25</ele><time>2026-04-18T18:05:25.438Z</time></trkpt><trkpt lat="44.9495074" lon="5.2743635"><ele>729.5</ele><time>2026-04-18T18:05:26.438Z</time></trkpt><trkpt lat="44.9495462" lon="5.2742142"><ele>727.75</ele><time>2026-04-18T18:05:27.438Z</time></trkpt><trkpt lat="44.9495776" lon="5.2740606"><ele>726.0</ele><time>2026-04-18T18:05:28.438Z</time></trkpt><trkpt lat="44.949601" lon="5.2739022"><ele>725.0</ele><time>2026-04-18T18:05:29.437Z</time></trkpt><trkpt lat="44.9496208" lon="5.2737392"><ele>724.0</ele><time>2026-04-18T18:05:30.438Z</time></trkpt><trkpt lat="44.9496385" lon="5.2735714"><ele>723.0</ele><time>2026-04-18T18:05:31.438Z</time></trkpt><trkpt lat="44.9496556" lon="5.2734031"><ele>722.0</ele><time>2026-04-18T18:05:32.438Z</time></trkpt><trkpt lat="44.9496644" lon="5.2732375"><ele>720.8</ele><time>2026-04-18T18:05:33.437Z</time></trkpt><trkpt lat="44.9496584" lon="5.2730737"><ele>719.6</ele><time>2026-04-18T18:05:34.438Z</time></trkpt><trkpt lat="44.9496448" lon="5.2729199"><ele>718.4</ele><time>2026-04-18T18:05:35.438Z</time></trkpt><trkpt lat="44.9496285" lon="5.2727706"><ele>717.1999999999999</ele><time>2026-04-18T18:05:36.438Z</time></trkpt><trkpt lat="44.9496138" lon="5.2726308"><ele>716.0</ele><time>2026-04-18T18:05:37.437Z</time></trkpt><trkpt lat="44.9495977" lon="5.2724906"><ele>716.0</ele><time>2026-04-18T18:05:38.438Z</time></trkpt><trkpt lat="44.949581" lon="5.2723596"><ele>716.0</ele><time>2026-04-18T18:05:39.438Z</time></trkpt><trkpt lat="44.9495652" lon="5.2722233"><ele>716.0</ele><time>2026-04-18T18:05:40.438Z</time></trkpt><trkpt lat="44.9495437" lon="5.2720729"><ele>716.0</ele><time>2026-04-18T18:05:41.437Z</time></trkpt><trkpt lat="44.9495086" lon="5.2719083"><ele>716.0</ele><time>2026-04-18T18:05:42.438Z</time></trkpt><trkpt lat="44.9494642" lon="5.2717277"><ele>717.25</ele><time>2026-04-18T18:05:43.438Z</time></trkpt><trkpt lat="44.9493922" lon="5.2715552"><ele>718.5</ele><time>2026-04-18T18:05:44.438Z</time></trkpt><trkpt lat="44.9493025" lon="5.2713874"><ele>719.75</ele><time>2026-04-18T18:05:45.437Z</time></trkpt><trkpt lat="44.9492106" lon="5.2712206"><ele>721.0</ele><time>2026-04-18T18:05:46.437Z</time></trkpt><trkpt lat="44.9491129" lon="5.271059"><ele>721.0</ele><time>2026-04-18T18:05:47.437Z</time></trkpt><trkpt lat="44.9490131" lon="5.2709168"><ele>721.0</ele><time>2026-04-18T18:05:48.439Z</time></trkpt><trkpt lat="44.9489331" lon="5.2707673"><ele>721.0</ele><time>2026-04-18T18:05:49.438Z</time></trkpt><trkpt lat="44.9488636" lon="5.2706052"><ele>721.0</ele><time>2026-04-18T18:05:50.438Z</time></trkpt><trkpt lat="44.9488121" lon="5.270441"><ele>720.4</ele><time>2026-04-18T18:05:51.438Z</time></trkpt><trkpt lat="44.9487852" lon="5.2702673"><ele>719.8</ele><time>2026-04-18T18:05:52.438Z</time></trkpt><trkpt lat="44.9487691" lon="5.2701092"><ele>719.1999999999999</ele><time>2026-04-18T18:05:53.437Z</time></trkpt><trkpt lat="44.9487527" lon="5.2699575"><ele>718.5999999999999</ele><time>2026-04-18T18:05:54.438Z</time></trkpt><trkpt lat="44.9487431" lon="5.2698257"><ele>718.0</ele><time>2026-04-18T18:05:55.438Z</time></trkpt><trkpt lat="44.9487666" lon="5.2696939"><ele>718.0</ele><time>2026-04-18T18:05:56.437Z</time></trkpt><trkpt lat="44.9487904" lon="5.2695877"><ele>718.0</ele><time>2026-04-18T18:05:57.438Z</time></trkpt><trkpt lat="44.9488203" lon="5.2694945"><ele>718.0</ele><time>2026-04-18T18:05:58.438Z</time></trkpt><trkpt lat="44.9488579" lon="5.2694166"><ele>718.0</ele><time>2026-04-18T18:05:59.438Z</time></trkpt><trkpt lat="44.9489081" lon="5.2693557"><ele>718.0</ele><time>2026-04-18T18:06:00.438Z</time></trkpt><trkpt lat="44.9489681" lon="5.2693078"><ele>718.0</ele><time>2026-04-18T18:06:01.438Z</time></trkpt><trkpt lat="44.9490563" lon="5.269274"><ele>718.0</ele><time>2026-04-18T18:06:02.437Z</time></trkpt><trkpt lat="44.9491529" lon="5.2692478"><ele>719.2</ele><time>2026-04-18T18:06:03.438Z</time></trkpt><trkpt lat="44.9492538" lon="5.2692142"><ele>720.4</ele><time>2026-04-18T18:06:04.437Z</time></trkpt><trkpt lat="44.9493575" lon="5.2691604"><ele>721.6</ele><time>2026-04-18T18:06:05.438Z</time></trkpt><trkpt lat="44.9494569" lon="5.2690783"><ele>722.8000000000001</ele><time>2026-04-18T18:06:06.438Z</time></trkpt><trkpt lat="44.9495519" lon="5.2689946"><ele>724.0</ele><time>2026-04-18T18:06:07.438Z</time></trkpt><trkpt lat="44.9496554" lon="5.2688592"><ele>724.0</ele><time>2026-04-18T18:06:08.438Z</time></trkpt><trkpt lat="44.9497632" lon="5.2687594"><ele>724.0</ele><time>2026-04-18T18:06:09.44Z</time></trkpt><trkpt lat="44.949872" lon="5.2686796"><ele>724.0</ele><time>2026-04-18T18:06:10.438Z</time></trkpt><trkpt lat="44.9499849" lon="5.2686168"><ele>724.0</ele><time>2026-04-18T18:06:11.438Z</time></trkpt><trkpt lat="44.9500961" lon="5.2685624"><ele>719.0</ele><time>2026-04-18T18:06:12.438Z</time></trkpt><trkpt lat="44.9502134" lon="5.26853"><ele>714.0</ele><time>2026-04-18T18:06:13.441Z</time></trkpt><trkpt lat="44.9503321" lon="5.2685114"><ele>709.0</ele><time>2026-04-18T18:06:14.442Z</time></trkpt><trkpt lat="44.9504385" lon="5.2685085"><ele>704.0</ele><time>2026-04-18T18:06:15.442Z</time></trkpt><trkpt lat="44.9505519" lon="5.2685039"><ele>704.0</ele><time>2026-04-18T18:06:16.442Z</time></trkpt><trkpt lat="44.9506518" lon="5.2685066"><ele>704.0</ele><time>2026-04-18T18:06:17.443Z</time></trkpt><trkpt lat="44.950746" lon="5.2684926"><ele>704.0</ele><time>2026-04-18T18:06:18.443Z</time></trkpt><trkpt lat="44.9508321" lon="5.2684721"><ele>704.0</ele><time>2026-04-18T18:06:19.444Z</time></trkpt><trkpt lat="44.9508947" lon="5.2684234"><ele>704.0</ele><time>2026-04-18T18:06:20.441Z</time></trkpt><trkpt lat="44.9509544" lon="5.2683592"><ele>704.0</ele><time>2026-04-18T18:06:21.446Z</time></trkpt><trkpt lat="44.9509568" lon="5.2682282"><ele>703.6</ele><time>2026-04-18T18:06:22.447Z</time></trkpt><trkpt lat="44.9509342" lon="5.268108"><ele>703.2</ele><time>2026-04-18T18:06:23.445Z</time></trkpt><trkpt lat="44.950898" lon="5.2679477"><ele>702.8000000000001</ele><time>2026-04-18T18:06:24.444Z</time></trkpt><trkpt lat="44.9508763" lon="5.2677951"><ele>702.4000000000001</ele><time>2026-04-18T18:06:25.446Z</time></trkpt><trkpt lat="44.950829" lon="5.2676599"><ele>702.0</ele><time>2026-04-18T18:06:26.443Z</time></trkpt><trkpt lat="44.9507895" lon="5.2675411"><ele>702.0</ele><time>2026-04-18T18:06:27.442Z</time></trkpt><trkpt lat="44.9507518" lon="5.2674144"><ele>702.0</ele><time>2026-04-18T18:06:28.447Z</time></trkpt><trkpt lat="44.9507076" lon="5.2672792"><ele>702.0</ele><time>2026-04-18T18:06:29.445Z</time></trkpt><trkpt lat="44.9506564" lon="5.2671382"><ele>702.0</ele><time>2026-04-18T18:06:30.446Z</time></trkpt><trkpt lat="44.9506262" lon="5.2669919"><ele>702.0</ele><time>2026-04-18T18:06:31.447Z</time></trkpt><trkpt lat="44.9505844" lon="5.2668496"><ele>701.0</ele><time>2026-04-18T18:06:32.438Z</time></trkpt><trkpt lat="44.9505385" lon="5.2667126"><ele>700.0</ele><time>2026-04-18T18:06:33.439Z</time></trkpt><trkpt lat="44.9505006" lon="5.2665742"><ele>699.0</ele><time>2026-04-18T18:06:34.439Z</time></trkpt><trkpt lat="44.9504864" lon="5.266442"><ele>698.0</ele><time>2026-04-18T18:06:35.438Z</time></trkpt><trkpt lat="44.9504765" lon="5.266311"><ele>697.0</ele><time>2026-04-18T18:06:36.439Z</time></trkpt><trkpt lat="44.9505467" lon="5.2662182"><ele>697.0</ele><time>2026-04-18T18:06:37.44Z</time></trkpt><trkpt lat="44.9505984" lon="5.2661611"><ele>697.0</ele><time>2026-04-18T18:06:38.439Z</time></trkpt><trkpt lat="44.9506828" lon="5.2660889"><ele>697.0</ele><time>2026-04-18T18:06:39.44Z</time></trkpt><trkpt lat="44.9508124" lon="5.266167"><ele>697.0</ele><time>2026-04-18T18:06:40.438Z</time></trkpt><trkpt lat="44.9508952" lon="5.2662023"><ele>697.0</ele><time>2026-04-18T18:06:41.442Z</time></trkpt><trkpt lat="44.9509916" lon="5.2662287"><ele>692.2</ele><time>2026-04-18T18:06:42.439Z</time></trkpt><trkpt lat="44.9511094" lon="5.2661955"><ele>687.4000000000001</ele><time>2026-04-18T18:06:44.442Z</time></trkpt><trkpt lat="44.951157" lon="5.2661173"><ele>682.5999999999999</ele><time>2026-04-18T18:06:45.443Z</time></trkpt><trkpt lat="44.9511618" lon="5.2660014"><ele>677.8</ele><time>2026-04-18T18:06:46.442Z</time></trkpt><trkpt lat="44.9511516" lon="5.2658792"><ele>673.0</ele><time>2026-04-18T18:06:47.442Z</time></trkpt><trkpt lat="44.9511268" lon="5.2657371"><ele>671.5999999999999</ele><time>2026-04-18T18:06:48.447Z</time></trkpt><trkpt lat="44.9510955" lon="5.2655984"><ele>670.1999999999999</ele><time>2026-04-18T18:06:49.438Z</time></trkpt><trkpt lat="44.9510497" lon="5.265475"><ele>668.8</ele><time>2026-04-18T18:06:50.438Z</time></trkpt><trkpt lat="44.9510251" lon="5.2653479"><ele>667.4</ele><time>2026-04-18T18:06:51.445Z</time></trkpt><trkpt lat="44.9509833" lon="5.2652215"><ele>666.0</ele><time>2026-04-18T18:06:52.438Z</time></trkpt><trkpt lat="44.9509667" lon="5.2650718"><ele>666.0</ele><time>2026-04-18T18:06:53.439Z</time></trkpt><trkpt lat="44.9509734" lon="5.26493"><ele>666.0</ele><time>2026-04-18T18:06:54.444Z</time></trkpt><trkpt lat="44.9509971" lon="5.2647894"><ele>666.0</ele><time>2026-04-18T18:06:55.442Z</time></trkpt><trkpt lat="44.9510333" lon="5.2646579"><ele>666.0</ele><time>2026-04-18T18:06:56.444Z</time></trkpt><trkpt lat="44.9510439" lon="5.2645077"><ele>666.0</ele><time>2026-04-18T18:06:57.444Z</time></trkpt><trkpt lat="44.9510576" lon="5.2643732"><ele>665.0</ele><time>2026-04-18T18:06:58.438Z</time></trkpt><trkpt lat="44.9511072" lon="5.2640515"><ele>664.0</ele><time>2026-04-18T18:07:00.439Z</time></trkpt><trkpt lat="44.9511706" lon="5.2639355"><ele>663.0</ele><time>2026-04-18T18:07:01.438Z</time></trkpt><trkpt lat="44.9512246" lon="5.2638196"><ele>662.0</ele><time>2026-04-18T18:07:02.438Z</time></trkpt><trkpt lat="44.9512717" lon="5.2637051"><ele>661.2</ele><time>2026-04-18T18:07:03.438Z</time></trkpt><trkpt lat="44.9512819" lon="5.2635762"><ele>660.4000000000001</ele><time>2026-04-18T18:07:04.438Z</time></trkpt><trkpt lat="44.9512711" lon="5.2634396"><ele>659.5999999999999</ele><time>2026-04-18T18:07:05.438Z</time></trkpt><trkpt lat="44.9512506" lon="5.2632981"><ele>658.8</ele><time>2026-04-18T18:07:06.437Z</time></trkpt><trkpt lat="44.9512247" lon="5.2631753"><ele>658.0</ele><time>2026-04-18T18:07:07.438Z</time></trkpt><trkpt lat="44.9511979" lon="5.2630541"><ele>657.2</ele><time>2026-04-18T18:07:08.44Z</time></trkpt><trkpt lat="44.951172" lon="5.2629445"><ele>656.4</ele><time>2026-04-18T18:07:09.439Z</time></trkpt><trkpt lat="44.9511868" lon="5.262794"><ele>655.6</ele><time>2026-04-18T18:07:11.44Z</time></trkpt><trkpt lat="44.9512823" lon="5.262733"><ele>654.8000000000001</ele><time>2026-04-18T18:07:13.439Z</time></trkpt><trkpt lat="44.9513627" lon="5.2628264"><ele>654.0</ele><time>2026-04-18T18:07:14.439Z</time></trkpt><trkpt lat="44.9514016" lon="5.2629319"><ele>654.0</ele><time>2026-04-18T18:07:15.439Z</time></trkpt><trkpt lat="44.9514503" lon="5.2630622"><ele>654.0</ele><time>2026-04-18T18:07:16.441Z</time></trkpt><trkpt lat="44.951501" lon="5.2631922"><ele>654.0</ele><time>2026-04-18T18:07:17.444Z</time></trkpt><trkpt lat="44.9515398" lon="5.2633151"><ele>654.0</ele><time>2026-04-18T18:07:18.443Z</time></trkpt><trkpt lat="44.9515972" lon="5.2634348"><ele>654.0</ele><time>2026-04-18T18:07:19.439Z</time></trkpt><trkpt lat="44.9516569" lon="5.2635602"><ele>650.2</ele><time>2026-04-18T18:07:20.444Z</time></trkpt><trkpt lat="44.9517107" lon="5.2636723"><ele>646.4000000000001</ele><time>2026-04-18T18:07:21.443Z</time></trkpt><trkpt lat="44.9517554" lon="5.2638046"><ele>642.6</ele><time>2026-04-18T18:07:22.444Z</time></trkpt><trkpt lat="44.9517928" lon="5.2639501"><ele>638.8</ele><time>2026-04-18T18:07:23.444Z</time></trkpt><trkpt lat="44.9518262" lon="5.2640978"><ele>635.0</ele><time>2026-04-18T18:07:24.439Z</time></trkpt><trkpt lat="44.9518582" lon="5.2642468"><ele>635.0</ele><time>2026-04-18T18:07:25.438Z</time></trkpt><trkpt lat="44.9519036" lon="5.2643903"><ele>635.0</ele><time>2026-04-18T18:07:26.441Z</time></trkpt><trkpt lat="44.9519014" lon="5.2645823"><ele>635.0</ele><time>2026-04-18T18:07:27.442Z</time></trkpt><trkpt lat="44.9519351" lon="5.2647799"><ele>635.0</ele><time>2026-04-18T18:07:28.442Z</time></trkpt><trkpt lat="44.9519555" lon="5.2649488"><ele>635.0</ele><time>2026-04-18T18:07:29.444Z</time></trkpt><trkpt lat="44.9519768" lon="5.265106"><ele>635.0</ele><time>2026-04-18T18:07:30.447Z</time></trkpt><trkpt lat="44.9519922" lon="5.265269"><ele>635.0</ele><time>2026-04-18T18:07:31.447Z</time></trkpt><trkpt lat="44.9520145" lon="5.2654513"><ele>635.0</ele><time>2026-04-18T18:07:32.448Z</time></trkpt><trkpt lat="44.9520445" lon="5.2656317"><ele>635.0</ele><time>2026-04-18T18:07:33.439Z</time></trkpt><trkpt lat="44.9520774" lon="5.2658098"><ele>635.0</ele><time>2026-04-18T18:07:34.438Z</time></trkpt><trkpt lat="44.9521247" lon="5.265998"><ele>635.0</ele><time>2026-04-18T18:07:35.44Z</time></trkpt><trkpt lat="44.95218" lon="5.2661701"><ele>635.0</ele><time>2026-04-18T18:07:36.439Z</time></trkpt><trkpt lat="44.9522306" lon="5.2663508"><ele>636.0</ele><time>2026-04-18T18:07:37.438Z</time></trkpt><trkpt lat="44.9522819" lon="5.266529"><ele>637.0</ele><time>2026-04-18T18:07:38.439Z</time></trkpt><trkpt lat="44.9523442" lon="5.2666777"><ele>638.0</ele><time>2026-04-18T18:07:39.439Z</time></trkpt><trkpt lat="44.9524018" lon="5.2668318"><ele>639.0</ele><time>2026-04-18T18:07:40.439Z</time></trkpt><trkpt lat="44.95246" lon="5.267"><ele>639.0</ele><time>2026-04-18T18:07:41.438Z</time></trkpt><trkpt lat="44.952539" lon="5.2671524"><ele>639.0</ele><time>2026-04-18T18:07:42.439Z</time></trkpt><trkpt lat="44.952603" lon="5.2673091"><ele>639.0</ele><time>2026-04-18T18:07:43.439Z</time></trkpt><trkpt lat="44.9526659" lon="5.267497"><ele>639.0</ele><time>2026-04-18T18:07:44.439Z</time></trkpt><trkpt lat="44.9527125" lon="5.2676586"><ele>634.2</ele><time>2026-04-18T18:07:45.441Z</time></trkpt><trkpt lat="44.9527222" lon="5.2678285"><ele>629.4</ele><time>2026-04-18T18:07:46.439Z</time></trkpt><trkpt lat="44.9527482" lon="5.2679704"><ele>624.6</ele><time>2026-04-18T18:07:47.44Z</time></trkpt><trkpt lat="44.9527692" lon="5.2681291"><ele>619.8</ele><time>2026-04-18T18:07:48.44Z</time></trkpt><trkpt lat="44.9527871" lon="5.2682608"><ele>615.0</ele><time>2026-04-18T18:07:49.443Z</time></trkpt><trkpt lat="44.9528081" lon="5.2684082"><ele>614.75</ele><time>2026-04-18T18:07:50.441Z</time></trkpt><trkpt lat="44.9527987" lon="5.2685641"><ele>614.5</ele><time>2026-04-18T18:07:51.442Z</time></trkpt><trkpt lat="44.9527856" lon="5.2687147"><ele>614.25</ele><time>2026-04-18T18:07:52.441Z</time></trkpt><trkpt lat="44.9527292" lon="5.2688714"><ele>614.0</ele><time>2026-04-18T18:07:53.444Z</time></trkpt><trkpt lat="44.9526376" lon="5.2690446"><ele>613.8</ele><time>2026-04-18T18:07:54.443Z</time></trkpt><trkpt lat="44.9525954" lon="5.2692003"><ele>613.5999999999999</ele><time>2026-04-18T18:07:55.439Z</time></trkpt><trkpt lat="44.9525515" lon="5.2693309"><ele>613.4</ele><time>2026-04-18T18:07:56.439Z</time></trkpt><trkpt lat="44.9525098" lon="5.2694624"><ele>613.1999999999999</ele><time>2026-04-18T18:07:57.446Z</time></trkpt><trkpt lat="44.9524876" lon="5.2695638"><ele>613.0</ele><time>2026-04-18T18:07:58.443Z</time></trkpt><trkpt lat="44.9525179" lon="5.2697199"><ele>613.0</ele><time>2026-04-18T18:08:00.443Z</time></trkpt><trkpt lat="44.9525814" lon="5.2697465"><ele>613.0</ele><time>2026-04-18T18:08:01.446Z</time></trkpt><trkpt lat="44.952695" lon="5.2696918"><ele>613.0</ele><time>2026-04-18T18:08:03.444Z</time></trkpt><trkpt lat="44.9527595" lon="5.2695979"><ele>613.0</ele><time>2026-04-18T18:08:04.446Z</time></trkpt><trkpt lat="44.9528201" lon="5.2694817"><ele>613.0</ele><time>2026-04-18T18:08:05.438Z</time></trkpt><trkpt lat="44.952886" lon="5.2693489"><ele>613.0</ele><time>2026-04-18T18:08:06.438Z</time></trkpt><trkpt lat="44.9529472" lon="5.269231"><ele>613.0</ele><time>2026-04-18T18:08:07.438Z</time></trkpt><trkpt lat="44.9530429" lon="5.2689361"><ele>613.0</ele><time>2026-04-18T18:08:09.439Z</time></trkpt><trkpt lat="44.9531168" lon="5.2688026"><ele>613.25</ele><time>2026-04-18T18:08:10.438Z</time></trkpt><trkpt lat="44.9531783" lon="5.2686616"><ele>613.5</ele><time>2026-04-18T18:08:11.437Z</time></trkpt><trkpt lat="44.9532502" lon="5.2685129"><ele>613.75</ele><time>2026-04-18T18:08:12.438Z</time></trkpt><trkpt lat="44.9533115" lon="5.2683745"><ele>614.0</ele><time>2026-04-18T18:08:13.438Z</time></trkpt><trkpt lat="44.9533843" lon="5.2682437"><ele>611.0</ele><time>2026-04-18T18:08:14.438Z</time></trkpt><trkpt lat="44.9535056" lon="5.2681449"><ele>608.0</ele><time>2026-04-18T18:08:15.439Z</time></trkpt><trkpt lat="44.9536034" lon="5.2680572"><ele>605.0</ele><time>2026-04-18T18:08:16.44Z</time></trkpt><trkpt lat="44.9537055" lon="5.267969"><ele>602.0</ele><time>2026-04-18T18:08:17.439Z</time></trkpt><trkpt lat="44.9538142" lon="5.2678856"><ele>602.0</ele><time>2026-04-18T18:08:18.439Z</time></trkpt><trkpt lat="44.9539132" lon="5.2678025"><ele>602.0</ele><time>2026-04-18T18:08:19.441Z</time></trkpt><trkpt lat="44.9540179" lon="5.2677272"><ele>602.0</ele><time>2026-04-18T18:08:20.442Z</time></trkpt><trkpt lat="44.9541057" lon="5.2676448"><ele>602.0</ele><time>2026-04-18T18:08:21.442Z</time></trkpt><trkpt lat="44.9541843" lon="5.2675423"><ele>602.0</ele><time>2026-04-18T18:08:22.444Z</time></trkpt><trkpt lat="44.9542331" lon="5.2674166"><ele>596.75</ele><time>2026-04-18T18:08:23.444Z</time></trkpt><trkpt lat="44.9542621" lon="5.267292"><ele>591.5</ele><time>2026-04-18T18:08:24.444Z</time></trkpt><trkpt lat="44.954263" lon="5.2671407"><ele>586.25</ele><time>2026-04-18T18:08:25.445Z</time></trkpt><trkpt lat="44.9542367" lon="5.2669689"><ele>581.0</ele><time>2026-04-18T18:08:26.443Z</time></trkpt><trkpt lat="44.9542106" lon="5.2667911"><ele>583.75</ele><time>2026-04-18T18:08:27.445Z</time></trkpt><trkpt lat="44.954179" lon="5.2666197"><ele>586.5</ele><time>2026-04-18T18:08:28.455Z</time></trkpt><trkpt lat="44.9541599" lon="5.2664402"><ele>589.25</ele><time>2026-04-18T18:08:29.443Z</time></trkpt><trkpt lat="44.9541675" lon="5.2662776"><ele>592.0</ele><time>2026-04-18T18:08:30.445Z</time></trkpt><trkpt lat="44.9541765" lon="5.266117"><ele>587.0</ele><time>2026-04-18T18:08:31.444Z</time></trkpt><trkpt lat="44.9542196" lon="5.26596"><ele>582.0</ele><time>2026-04-18T18:08:32.443Z</time></trkpt><trkpt lat="44.9542529" lon="5.2657998"><ele>577.0</ele><time>2026-04-18T18:08:33.445Z</time></trkpt><trkpt lat="44.9542988" lon="5.2656674"><ele>572.0</ele><time>2026-04-18T18:08:34.444Z</time></trkpt><trkpt lat="44.9543278" lon="5.265516"><ele>571.25</ele><time>2026-04-18T18:08:35.443Z</time></trkpt><trkpt lat="44.9543393" lon="5.2653482"><ele>570.5</ele><time>2026-04-18T18:08:36.437Z</time></trkpt><trkpt lat="44.9543345" lon="5.2651822"><ele>569.75</ele><time>2026-04-18T18:08:37.439Z</time></trkpt><trkpt lat="44.9543005" lon="5.2650198"><ele>569.0</ele><time>2026-04-18T18:08:38.438Z</time></trkpt><trkpt lat="44.9542641" lon="5.26486"><ele>567.8</ele><time>2026-04-18T18:08:39.439Z</time></trkpt><trkpt lat="44.9542074" lon="5.2647303"><ele>566.5999999999999</ele><time>2026-04-18T18:08:40.44Z</time></trkpt><trkpt lat="44.9541501" lon="5.2645878"><ele>565.4</ele><time>2026-04-18T18:08:41.445Z</time></trkpt><trkpt lat="44.9541001" lon="5.2644997"><ele>564.1999999999999</ele><time>2026-04-18T18:08:42.439Z</time></trkpt><trkpt lat="44.9540379" lon="5.2643275"><ele>563.0</ele><time>2026-04-18T18:08:45.439Z</time></trkpt><trkpt lat="44.9542057" lon="5.2643848"><ele>563.0</ele><time>2026-04-18T18:08:47.439Z</time></trkpt><trkpt lat="44.9542846" lon="5.2644642"><ele>563.0</ele><time>2026-04-18T18:08:48.439Z</time></trkpt><trkpt lat="44.9543314" lon="5.2646078"><ele>563.0</ele><time>2026-04-18T18:08:49.439Z</time></trkpt><trkpt lat="44.9544113" lon="5.264695"><ele>563.0</ele><time>2026-04-18T18:08:50.439Z</time></trkpt><trkpt lat="44.9544893" lon="5.2647711"><ele>563.0</ele><time>2026-04-18T18:08:51.439Z</time></trkpt><trkpt lat="44.9545434" lon="5.2648681"><ele>564.1999999999999</ele><time>2026-04-18T18:08:52.439Z</time></trkpt><trkpt lat="44.9546079" lon="5.2649639"><ele>565.4</ele><time>2026-04-18T18:08:53.439Z</time></trkpt><trkpt lat="44.9546723" lon="5.2650633"><ele>566.5999999999999</ele><time>2026-04-18T18:08:54.439Z</time></trkpt><trkpt lat="44.9547342" lon="5.2651752"><ele>567.8</ele><time>2026-04-18T18:08:55.439Z</time></trkpt><trkpt lat="44.9547837" lon="5.2653301"><ele>569.0</ele><time>2026-04-18T18:08:56.441Z</time></trkpt><trkpt lat="44.9548229" lon="5.2654835"><ele>569.75</ele><time>2026-04-18T18:08:57.442Z</time></trkpt><trkpt lat="44.9548575" lon="5.2656395"><ele>570.5</ele><time>2026-04-18T18:08:58.44Z</time></trkpt><trkpt lat="44.9548922" lon="5.2657957"><ele>571.25</ele><time>2026-04-18T18:08:59.445Z</time></trkpt><trkpt lat="44.9549182" lon="5.2659528"><ele>572.0</ele><time>2026-04-18T18:09:00.441Z</time></trkpt><trkpt lat="44.9549536" lon="5.2660988"><ele>572.0</ele><time>2026-04-18T18:09:01.446Z</time></trkpt><trkpt lat="44.9549964" lon="5.2662504"><ele>572.0</ele><time>2026-04-18T18:09:02.446Z</time></trkpt><trkpt lat="44.9550461" lon="5.2664051"><ele>572.0</ele><time>2026-04-18T18:09:03.445Z</time></trkpt><trkpt lat="44.9550952" lon="5.2665524"><ele>572.0</ele><time>2026-04-18T18:09:04.446Z</time></trkpt><trkpt lat="44.955145" lon="5.26671"><ele>568.0</ele><time>2026-04-18T18:09:05.445Z</time></trkpt><trkpt lat="44.9551922" lon="5.2668621"><ele>564.0</ele><time>2026-04-18T18:09:06.447Z</time></trkpt><trkpt lat="44.9552458" lon="5.2670089"><ele>560.0</ele><time>2026-04-18T18:09:07.446Z</time></trkpt><trkpt lat="44.9552969" lon="5.2671475"><ele>556.0</ele><time>2026-04-18T18:09:08.447Z</time></trkpt><trkpt lat="44.9553479" lon="5.2672793"><ele>556.0</ele><time>2026-04-18T18:09:09.439Z</time></trkpt><trkpt lat="44.9553922" lon="5.2674016"><ele>556.0</ele><time>2026-04-18T18:09:10.439Z</time></trkpt><trkpt lat="44.9554367" lon="5.267522"><ele>556.0</ele><time>2026-04-18T18:09:11.439Z</time></trkpt><trkpt lat="44.9554749" lon="5.2676213"><ele>556.0</ele><time>2026-04-18T18:09:12.44Z</time></trkpt><trkpt lat="44.9555086" lon="5.2677115"><ele>556.0</ele><time>2026-04-18T18:09:13.439Z</time></trkpt><trkpt lat="44.9555382" lon="5.2677902"><ele>556.0</ele><time>2026-04-18T18:09:14.439Z</time></trkpt><trkpt lat="44.9555755" lon="5.2678938"><ele>556.0</ele><time>2026-04-18T18:09:16.439Z</time></trkpt><trkpt lat="44.9555961" lon="5.2679817"><ele>556.0</ele><time>2026-04-18T18:09:19.438Z</time></trkpt><trkpt lat="44.9556195" lon="5.268074"><ele>556.0</ele><time>2026-04-18T18:09:23.438Z</time></trkpt><trkpt lat="44.9556582" lon="5.2681733"><ele>556.0</ele><time>2026-04-18T18:09:25.439Z</time></trkpt><trkpt lat="44.9556703" lon="5.2682971"><ele>556.0</ele><time>2026-04-18T18:09:26.439Z</time></trkpt><trkpt lat="44.9556763" lon="5.2684157"><ele>556.0</ele><time>2026-04-18T18:09:27.44Z</time></trkpt><trkpt lat="44.9556786" lon="5.2685386"><ele>555.6</ele><time>2026-04-18T18:09:28.441Z</time></trkpt><trkpt lat="44.9556716" lon="5.2686687"><ele>555.2</ele><time>2026-04-18T18:09:29.442Z</time></trkpt><trkpt lat="44.9556518" lon="5.2687995"><ele>554.8</ele><time>2026-04-18T18:09:30.442Z</time></trkpt><trkpt lat="44.955628" lon="5.268935"><ele>554.4</ele><time>2026-04-18T18:09:31.439Z</time></trkpt><trkpt lat="44.9555811" lon="5.2690665"><ele>554.0</ele><time>2026-04-18T18:09:32.441Z</time></trkpt><trkpt lat="44.9555109" lon="5.2692263"><ele>552.25</ele><time>2026-04-18T18:09:33.439Z</time></trkpt><trkpt lat="44.9554406" lon="5.2693616"><ele>550.5</ele><time>2026-04-18T18:09:34.444Z</time></trkpt><trkpt lat="44.9553733" lon="5.2694965"><ele>548.75</ele><time>2026-04-18T18:09:35.439Z</time></trkpt><trkpt lat="44.9553049" lon="5.2696079"><ele>547.0</ele><time>2026-04-18T18:09:36.44Z</time></trkpt><trkpt lat="44.9552345" lon="5.2697306"><ele>545.8333333333334</ele><time>2026-04-18T18:09:37.439Z</time></trkpt><trkpt lat="44.9551636" lon="5.2698472"><ele>544.6666666666667</ele><time>2026-04-18T18:09:38.448Z</time></trkpt><trkpt lat="44.9551263" lon="5.2699529"><ele>543.5</ele><time>2026-04-18T18:09:39.438Z</time></trkpt><trkpt lat="44.9550895" lon="5.270067"><ele>542.3333333333334</ele><time>2026-04-18T18:09:40.439Z</time></trkpt><trkpt lat="44.9551106" lon="5.2701736"><ele>541.1666666666666</ele><time>2026-04-18T18:09:41.44Z</time></trkpt><trkpt lat="44.9551198" lon="5.2702807"><ele>540.0</ele><time>2026-04-18T18:09:42.439Z</time></trkpt><trkpt lat="44.9552091" lon="5.2704209"><ele>540.0</ele><time>2026-04-18T18:09:43.44Z</time></trkpt><trkpt lat="44.9553272" lon="5.2704451"><ele>540.0</ele><time>2026-04-18T18:09:44.439Z</time></trkpt><trkpt lat="44.9554496" lon="5.270443"><ele>540.0</ele><time>2026-04-18T18:09:45.439Z</time></trkpt><trkpt lat="44.9555719" lon="5.2704399"><ele>540.0</ele><time>2026-04-18T18:09:46.44Z</time></trkpt><trkpt lat="44.9556684" lon="5.2704421"><ele>540.0</ele><time>2026-04-18T18:09:47.439Z</time></trkpt><trkpt lat="44.9557766" lon="5.2704417"><ele>540.0</ele><time>2026-04-18T18:09:48.438Z</time></trkpt><trkpt lat="44.9559062" lon="5.2704417"><ele>540.0</ele><time>2026-04-18T18:09:49.439Z</time></trkpt><trkpt lat="44.9560107" lon="5.2704786"><ele>540.0</ele><time>2026-04-18T18:09:50.44Z</time></trkpt><trkpt lat="44.9561225" lon="5.2705258"><ele>540.25</ele><time>2026-04-18T18:09:51.439Z</time></trkpt><trkpt lat="44.9562408" lon="5.2705789"><ele>540.5</ele><time>2026-04-18T18:09:52.442Z</time></trkpt><trkpt lat="44.9563462" lon="5.2706457"><ele>540.75</ele><time>2026-04-18T18:09:53.441Z</time></trkpt><trkpt lat="44.9564574" lon="5.2707053"><ele>541.0</ele><time>2026-04-18T18:09:54.439Z</time></trkpt><trkpt lat="44.9565735" lon="5.2707622"><ele>541.0</ele><time>2026-04-18T18:09:55.44Z</time></trkpt><trkpt lat="44.9566826" lon="5.270823"><ele>541.0</ele><time>2026-04-18T18:09:56.439Z</time></trkpt><trkpt lat="44.9568117" lon="5.2708255"><ele>541.0</ele><time>2026-04-18T18:09:57.439Z</time></trkpt><trkpt lat="44.9569488" lon="5.2708057"><ele>541.0</ele><time>2026-04-18T18:09:58.444Z</time></trkpt><trkpt lat="44.9570874" lon="5.2707748"><ele>541.0</ele><time>2026-04-18T18:09:59.445Z</time></trkpt><trkpt lat="44.9572176" lon="5.2706858"><ele>541.0</ele><time>2026-04-18T18:10:00.445Z</time></trkpt><trkpt lat="44.9573431" lon="5.270606"><ele>541.0</ele><time>2026-04-18T18:10:01.445Z</time></trkpt><trkpt lat="44.9574682" lon="5.2705237"><ele>541.0</ele><time>2026-04-18T18:10:02.442Z</time></trkpt><trkpt lat="44.9575989" lon="5.2704474"><ele>538.25</ele><time>2026-04-18T18:10:03.445Z</time></trkpt><trkpt lat="44.9577302" lon="5.2703717"><ele>535.5</ele><time>2026-04-18T18:10:04.446Z</time></trkpt><trkpt lat="44.9578472" lon="5.2702985"><ele>532.75</ele><time>2026-04-18T18:10:05.446Z</time></trkpt><trkpt lat="44.9579646" lon="5.2702296"><ele>530.0</ele><time>2026-04-18T18:10:06.446Z</time></trkpt><trkpt lat="44.9580811" lon="5.2701592"><ele>530.0</ele><time>2026-04-18T18:10:07.446Z</time></trkpt><trkpt lat="44.958202" lon="5.2700863"><ele>530.0</ele><time>2026-04-18T18:10:08.447Z</time></trkpt><trkpt lat="44.9583314" lon="5.2700195"><ele>530.0</ele><time>2026-04-18T18:10:09.446Z</time></trkpt><trkpt lat="44.9584632" lon="5.2699451"><ele>530.0</ele><time>2026-04-18T18:10:10.444Z</time></trkpt><trkpt lat="44.9585988" lon="5.2698673"><ele>530.5</ele><time>2026-04-18T18:10:11.445Z</time></trkpt><trkpt lat="44.9587277" lon="5.2697866"><ele>531.0</ele><time>2026-04-18T18:10:12.439Z</time></trkpt><trkpt lat="44.9588507" lon="5.269699"><ele>531.5</ele><time>2026-04-18T18:10:13.44Z</time></trkpt><trkpt lat="44.9589734" lon="5.2696381"><ele>532.0</ele><time>2026-04-18T18:10:14.438Z</time></trkpt><trkpt lat="44.959098" lon="5.2695629"><ele>528.5</ele><time>2026-04-18T18:10:15.439Z</time></trkpt><trkpt lat="44.959212" lon="5.2694968"><ele>525.0</ele><time>2026-04-18T18:10:16.439Z</time></trkpt><trkpt lat="44.9593285" lon="5.2694503"><ele>521.5</ele><time>2026-04-18T18:10:17.439Z</time></trkpt><trkpt lat="44.9594543" lon="5.2694"><ele>518.0</ele><time>2026-04-18T18:10:18.44Z</time></trkpt><trkpt lat="44.959586" lon="5.2693473"><ele>518.0</ele><time>2026-04-18T18:10:19.439Z</time></trkpt><trkpt lat="44.9597134" lon="5.2693764"><ele>518.0</ele><time>2026-04-18T18:10:20.441Z</time></trkpt><trkpt lat="44.9598325" lon="5.2694053"><ele>518.0</ele><time>2026-04-18T18:10:21.439Z</time></trkpt><trkpt lat="44.9599748" lon="5.2694538"><ele>518.0</ele><time>2026-04-18T18:10:22.442Z</time></trkpt><trkpt lat="44.9601014" lon="5.2695597"><ele>518.0</ele><time>2026-04-18T18:10:23.442Z</time></trkpt><trkpt lat="44.9602107" lon="5.2696832"><ele>518.0</ele><time>2026-04-18T18:10:24.442Z</time></trkpt><trkpt lat="44.9602972" lon="5.2697988"><ele>518.0</ele><time>2026-04-18T18:10:25.44Z</time></trkpt><trkpt lat="44.9603819" lon="5.2698833"><ele>518.0</ele><time>2026-04-18T18:10:26.44Z</time></trkpt><trkpt lat="44.9604751" lon="5.2699446"><ele>518.0</ele><time>2026-04-18T18:10:27.441Z</time></trkpt><trkpt lat="44.9605679" lon="5.2699483"><ele>518.0</ele><time>2026-04-18T18:10:28.443Z</time></trkpt><trkpt lat="44.9606738" lon="5.2699231"><ele>518.0</ele><time>2026-04-18T18:10:29.442Z</time></trkpt><trkpt lat="44.9607729" lon="5.2698829"><ele>518.0</ele><time>2026-04-18T18:10:30.438Z</time></trkpt><trkpt lat="44.9608558" lon="5.2697099"><ele>515.25</ele><time>2026-04-18T18:10:31.44Z</time></trkpt><trkpt lat="44.9609398" lon="5.269605"><ele>512.5</ele><time>2026-04-18T18:10:32.444Z</time></trkpt><trkpt lat="44.9610306" lon="5.2695005"><ele>509.75</ele><time>2026-04-18T18:10:33.445Z</time></trkpt><trkpt lat="44.961133" lon="5.2694128"><ele>507.0</ele><time>2026-04-18T18:10:34.447Z</time></trkpt><trkpt lat="44.9612327" lon="5.2693498"><ele>507.0</ele><time>2026-04-18T18:10:35.445Z</time></trkpt><trkpt lat="44.9613476" lon="5.2692903"><ele>507.0</ele><time>2026-04-18T18:10:36.443Z</time></trkpt><trkpt lat="44.9614601" lon="5.2692373"><ele>507.0</ele><time>2026-04-18T18:10:37.446Z</time></trkpt><trkpt lat="44.9615782" lon="5.2692089"><ele>507.0</ele><time>2026-04-18T18:10:38.445Z</time></trkpt><trkpt lat="44.9617076" lon="5.2691979"><ele>505.5</ele><time>2026-04-18T18:10:39.446Z</time></trkpt><trkpt lat="44.961822" lon="5.2692283"><ele>504.0</ele><time>2026-04-18T18:10:40.444Z</time></trkpt><trkpt lat="44.9619335" lon="5.2692937"><ele>502.5</ele><time>2026-04-18T18:10:41.439Z</time></trkpt><trkpt lat="44.9620553" lon="5.2693671"><ele>501.0</ele><time>2026-04-18T18:10:42.438Z</time></trkpt><trkpt lat="44.9621505" lon="5.2694548"><ele>501.0</ele><time>2026-04-18T18:10:43.441Z</time></trkpt><trkpt lat="44.9622354" lon="5.2695439"><ele>501.0</ele><time>2026-04-18T18:10:44.447Z</time></trkpt><trkpt lat="44.9623089" lon="5.2696489"><ele>501.0</ele><time>2026-04-18T18:10:45.439Z</time></trkpt><trkpt lat="44.9623729" lon="5.2697551"><ele>501.0</ele><time>2026-04-18T18:10:46.446Z</time></trkpt><trkpt lat="44.9624324" lon="5.269861"><ele>501.0</ele><time>2026-04-18T18:10:47.438Z</time></trkpt><trkpt lat="44.9624851" lon="5.2699589"><ele>501.5</ele><time>2026-04-18T18:10:48.44Z</time></trkpt><trkpt lat="44.9625281" lon="5.270034"><ele>502.0</ele><time>2026-04-18T18:10:49.439Z</time></trkpt><trkpt lat="44.9625792" lon="5.2700983"><ele>502.5</ele><time>2026-04-18T18:10:50.442Z</time></trkpt><trkpt lat="44.9626303" lon="5.2701516"><ele>503.0</ele><time>2026-04-18T18:10:51.439Z</time></trkpt><trkpt lat="44.9627041" lon="5.2702374"><ele>503.5</ele><time>2026-04-18T18:10:53.439Z</time></trkpt><trkpt lat="44.9627196" lon="5.2703448"><ele>504.0</ele><time>2026-04-18T18:10:57.439Z</time></trkpt><trkpt lat="44.9626675" lon="5.2704511"><ele>504.0</ele><time>2026-04-18T18:11:00.44Z</time></trkpt><trkpt lat="44.9626322" lon="5.2705328"><ele>504.0</ele><time>2026-04-18T18:11:02.439Z</time></trkpt><trkpt lat="44.9625691" lon="5.2705448"><ele>504.0</ele><time>2026-04-18T18:11:09.439Z</time></trkpt><trkpt lat="44.9625585" lon="5.2704142"><ele>504.0</ele><time>2026-04-18T18:29:23.507Z</time></trkpt><trkpt lat="44.9625853" lon="5.2705011"><ele>504.0</ele><time>2026-04-18T18:29:38.441Z</time></trkpt></trkseg></trk></gpx>